<?xml version='1.0' encoding='UTF-8'?><gpx version="1.1" creator="JPX - https://github.com/jenetics/jpx" xmlns="http://www.topografix.com/GPX/1/1"><trk><trkseg><trkpt lat="45.16865748870672" lon="8.279089749258803"><ele>231.0</ele><time>2026-04-26T09:11:06.999Z</time></trkpt><trkpt lat="45.168723493295225" lon="8.279123815591232"><ele>231.00000000000003</ele><time>2026-04-26T09:18:08.001Z</time></trkpt><trkpt lat="45.168783018677715" lon="8.279078538158162"><ele>231.00000000000003</ele><time>2026-04-26T09:18:10.001Z</time></trkpt><trkpt lat="45.16883634883637" lon="8.278850504502154"><ele>231.0</ele><time>2026-04-26T09:18:11.001Z</time></trkpt><trkpt lat="45.168881412903595" lon="8.278699506793973"><ele>231.0</ele><time>2026-04-26T09:18:12.001Z</time></trkpt><trkpt lat="45.16897663071492" lon="8.27866096402453"><ele>232.33333333333334</ele><time>2026-04-26T09:18:14.001Z</time></trkpt><trkpt lat="45.16905629689745" lon="8.278509450782375"><ele>233.66666666666669</ele><time>2026-04-26T09:18:16.001Z</time></trkpt><trkpt lat="45.169103572420624" lon="8.27844219472603"><ele>235.0</ele><time>2026-04-26T09:18:17.001Z</time></trkpt><trkpt lat="45.16915710236245" lon="8.278384386510927"><ele>236.33333333333334</ele><time>2026-04-26T09:18:18.001Z</time></trkpt><trkpt lat="45.1692156000698" lon="8.278322386992436"><ele>237.66666666666669</ele><time>2026-04-26T09:18:19.001Z</time></trkpt><trkpt lat="45.1692696731288" lon="8.278260199908784"><ele>239.0</ele><time>2026-04-26T09:18:20.001Z</time></trkpt><trkpt lat="45.16933051126186" lon="8.27818761391931"><ele>239.00000000000003</ele><time>2026-04-26T09:18:21.001Z</time></trkpt><trkpt lat="45.169386685628794" lon="8.278108692814367"><ele>239.0</ele><time>2026-04-26T09:18:22.001Z</time></trkpt><trkpt lat="45.1694325502999" lon="8.278033657411966"><ele>239.0</ele><time>2026-04-26T09:18:24.001Z</time></trkpt><trkpt lat="45.16951398567489" lon="8.278082912861034"><ele>239.0</ele><time>2026-04-26T09:18:26.001Z</time></trkpt><trkpt lat="45.16960166823724" lon="8.278099915393664"><ele>239.00000000000003</ele><time>2026-04-26T09:18:27.001Z</time></trkpt><trkpt lat="45.16970672262692" lon="8.27811738705704"><ele>239.0</ele><time>2026-04-26T09:18:28.001Z</time></trkpt><trkpt lat="45.169829032804174" lon="8.27813681518411"><ele>236.75</ele><time>2026-04-26T09:18:29.001Z</time></trkpt><trkpt lat="45.16993971167251" lon="8.278152190232792"><ele>234.5</ele><time>2026-04-26T09:18:30.001Z</time></trkpt><trkpt lat="45.17005949655065" lon="8.278168687823888"><ele>232.25</ele><time>2026-04-26T09:18:31.001Z</time></trkpt><trkpt lat="45.17017698989938" lon="8.278187816165905"><ele>230.0</ele><time>2026-04-26T09:18:32.001Z</time></trkpt><trkpt lat="45.170291319999166" lon="8.27818636748409"><ele>230.0</ele><time>2026-04-26T09:18:33.001Z</time></trkpt><trkpt lat="45.17040437313558" lon="8.278192704949326"><ele>230.0</ele><time>2026-04-26T09:18:34.001Z</time></trkpt><trkpt lat="45.17051786221699" lon="8.27815872522686"><ele>230.0</ele><time>2026-04-26T09:18:35.001Z</time></trkpt><trkpt lat="45.170611148210256" lon="8.278061580559772"><ele>230.0</ele><time>2026-04-26T09:18:36.001Z</time></trkpt><trkpt lat="45.170687792008664" lon="8.27792850520046"><ele>227.0</ele><time>2026-04-26T09:18:37.001Z</time></trkpt><trkpt lat="45.17072442515461" lon="8.277777526590642"><ele>224.0</ele><time>2026-04-26T09:18:38.001Z</time></trkpt><trkpt lat="45.170762610988106" lon="8.27762774228359"><ele>221.0</ele><time>2026-04-26T09:18:39.001Z</time></trkpt><trkpt lat="45.17083713675184" lon="8.277499896099478"><ele>218.0</ele><time>2026-04-26T09:18:40Z</time></trkpt><trkpt lat="45.17095721904411" lon="8.27741671622848"><ele>218.0</ele><time>2026-04-26T09:18:41Z</time></trkpt><trkpt lat="45.171070249675026" lon="8.2772898378161"><ele>218.0</ele><time>2026-04-26T09:18:42Z</time></trkpt><trkpt lat="45.17116460959526" lon="8.277140993771392"><ele>218.0</ele><time>2026-04-26T09:18:43Z</time></trkpt><trkpt lat="45.17127901449915" lon="8.277028065293683"><ele>218.0</ele><time>2026-04-26T09:18:44Z</time></trkpt><trkpt lat="45.17138579509713" lon="8.276933179506054"><ele>216.0</ele><time>2026-04-26T09:18:45Z</time></trkpt><trkpt lat="45.171499726648214" lon="8.276902596338097"><ele>214.0</ele><time>2026-04-26T09:18:46Z</time></trkpt><trkpt lat="45.171623394234096" lon="8.276883358070647"><ele>212.0</ele><time>2026-04-26T09:18:47Z</time></trkpt><trkpt lat="45.171752207632466" lon="8.276862377493577"><ele>210.0</ele><time>2026-04-26T09:18:48Z</time></trkpt><trkpt lat="45.17188259790538" lon="8.276842093713247"><ele>206.0</ele><time>2026-04-26T09:18:49Z</time></trkpt><trkpt lat="45.172019606751064" lon="8.276820518944612"><ele>202.0</ele><time>2026-04-26T09:18:50Z</time></trkpt><trkpt lat="45.17215852925172" lon="8.2767720232323"><ele>198.0</ele><time>2026-04-26T09:18:51Z</time></trkpt><trkpt lat="45.172303420765424" lon="8.276762540497813"><ele>194.0</ele><time>2026-04-26T09:18:52Z</time></trkpt><trkpt lat="45.17244486967985" lon="8.276732669240854"><ele>192.75</ele><time>2026-04-26T09:18:53Z</time></trkpt><trkpt lat="45.17258571538781" lon="8.276734929286748"><ele>191.5</ele><time>2026-04-26T09:18:54Z</time></trkpt><trkpt lat="45.17271934365369" lon="8.276696682243974"><ele>190.25</ele><time>2026-04-26T09:18:55Z</time></trkpt><trkpt lat="45.17285255133851" lon="8.27671957139817"><ele>189.0</ele><time>2026-04-26T09:18:56Z</time></trkpt><trkpt lat="45.17297745607195" lon="8.276742882744507"><ele>189.0</ele><time>2026-04-26T09:18:57Z</time></trkpt><trkpt lat="45.1730940871432" lon="8.27678377836073"><ele>189.0</ele><time>2026-04-26T09:18:58Z</time></trkpt><trkpt lat="45.17319594664622" lon="8.276878715205985"><ele>189.0</ele><time>2026-04-26T09:18:59Z</time></trkpt><trkpt lat="45.173293738572376" lon="8.276974315770078"><ele>189.0</ele><time>2026-04-26T09:19:00Z</time></trkpt><trkpt lat="45.17339167203566" lon="8.277058435595444"><ele>188.16666666666666</ele><time>2026-04-26T09:19:01Z</time></trkpt><trkpt lat="45.173486643903985" lon="8.2771409350836"><ele>187.33333333333334</ele><time>2026-04-26T09:19:02Z</time></trkpt><trkpt lat="45.17357805985173" lon="8.27722192065601"><ele>186.5</ele><time>2026-04-26T09:19:03Z</time></trkpt><trkpt lat="45.17365358750556" lon="8.277292310353555"><ele>185.66666666666669</ele><time>2026-04-26T09:19:04Z</time></trkpt><trkpt lat="45.17371008896674" lon="8.277355646062885"><ele>184.83333333333334</ele><time>2026-04-26T09:19:05Z</time></trkpt><trkpt lat="45.17373954036752" lon="8.277437250147955"><ele>184.0</ele><time>2026-04-26T09:19:06Z</time></trkpt><trkpt lat="45.17366740154485" lon="8.277598260742337"><ele>182.79999999999998</ele><time>2026-04-26T09:19:08Z</time></trkpt><trkpt lat="45.173569321378515" lon="8.27762884369076"><ele>181.6</ele><time>2026-04-26T09:19:09Z</time></trkpt><trkpt lat="45.173469069036486" lon="8.277648134030793"><ele>180.4</ele><time>2026-04-26T09:19:10Z</time></trkpt><trkpt lat="45.17336816759431" lon="8.277683415891106"><ele>179.2</ele><time>2026-04-26T09:19:11Z</time></trkpt><trkpt lat="45.17326414493534" lon="8.277730368940801"><ele>178.0</ele><time>2026-04-26T09:19:12Z</time></trkpt><trkpt lat="45.17315523822098" lon="8.27777804793161"><ele>178.0</ele><time>2026-04-26T09:19:13Z</time></trkpt><trkpt lat="45.17305494787775" lon="8.27782968303092"><ele>178.0</ele><time>2026-04-26T09:19:14Z</time></trkpt><trkpt lat="45.17295814591706" lon="8.277897544027448"><ele>178.0</ele><time>2026-04-26T09:19:15Z</time></trkpt><trkpt lat="45.17287557482212" lon="8.277971561544058"><ele>178.0</ele><time>2026-04-26T09:19:16Z</time></trkpt><trkpt lat="45.17280241250627" lon="8.278038545089908"><ele>178.0</ele><time>2026-04-26T09:19:17Z</time></trkpt><trkpt lat="45.17275741267512" lon="8.27815679497152"><ele>175.75</ele><time>2026-04-26T09:19:18Z</time></trkpt><trkpt lat="45.17274259809579" lon="8.278309422197887"><ele>173.5</ele><time>2026-04-26T09:19:19Z</time></trkpt><trkpt lat="45.17275282900298" lon="8.278483076136904"><ele>171.25</ele><time>2026-04-26T09:19:20Z</time></trkpt><trkpt lat="45.172754355028886" lon="8.278658327281212"><ele>169.0</ele><time>2026-04-26T09:19:21Z</time></trkpt><trkpt lat="45.17275236168136" lon="8.278840929154574"><ele>169.0</ele><time>2026-04-26T09:19:22Z</time></trkpt><trkpt lat="45.17274783521212" lon="8.279025472916508"><ele>169.0</ele><time>2026-04-26T09:19:23Z</time></trkpt><trkpt lat="45.17275846086203" lon="8.279198404589078"><ele>169.0</ele><time>2026-04-26T09:19:24Z</time></trkpt><trkpt lat="45.17277745386193" lon="8.279357044771407"><ele>169.0</ele><time>2026-04-26T09:19:25Z</time></trkpt><trkpt lat="45.17280785180282" lon="8.279503254342542"><ele>169.0</ele><time>2026-04-26T09:19:26Z</time></trkpt><trkpt lat="45.172831541370286" lon="8.279632710753742"><ele>169.0</ele><time>2026-04-26T09:19:27Z</time></trkpt><trkpt lat="45.17284004395019" lon="8.279733393462175"><ele>169.0</ele><time>2026-04-26T09:19:28Z</time></trkpt><trkpt lat="45.172861055745784" lon="8.279852302007384"><ele>169.0</ele><time>2026-04-26T09:19:30Z</time></trkpt><trkpt lat="45.172957366581464" lon="8.279930440730052"><ele>169.0</ele><time>2026-04-26T09:19:32Z</time></trkpt><trkpt lat="45.17304402964836" lon="8.279952500515725"><ele>169.75</ele><time>2026-04-26T09:19:33Z</time></trkpt><trkpt lat="45.17315215623435" lon="8.279990783542486"><ele>170.5</ele><time>2026-04-26T09:19:34Z</time></trkpt><trkpt lat="45.17323606867715" lon="8.28009814129718"><ele>171.25</ele><time>2026-04-26T09:19:35Z</time></trkpt><trkpt lat="45.17329504204928" lon="8.280242910372689"><ele>172.0</ele><time>2026-04-26T09:19:36Z</time></trkpt><trkpt lat="45.17332506226703" lon="8.280422276342575"><ele>171.75</ele><time>2026-04-26T09:19:37Z</time></trkpt><trkpt lat="45.17333248098505" lon="8.280621487740001"><ele>171.5</ele><time>2026-04-26T09:19:38Z</time></trkpt><trkpt lat="45.173301495384045" lon="8.280828107586792"><ele>171.25</ele><time>2026-04-26T09:19:39Z</time></trkpt><trkpt lat="45.17322799155826" lon="8.281017570208363"><ele>171.0</ele><time>2026-04-26T09:19:40Z</time></trkpt><trkpt lat="45.17313359885909" lon="8.281206335348635"><ele>171.0</ele><time>2026-04-26T09:19:41Z</time></trkpt><trkpt lat="45.173045303576636" lon="8.281382593906075"><ele>171.0</ele><time>2026-04-26T09:19:42Z</time></trkpt><trkpt lat="45.172958642517756" lon="8.281573024121606"><ele>171.0</ele><time>2026-04-26T09:19:43Z</time></trkpt><trkpt lat="45.17286647629281" lon="8.281770341908246"><ele>168.0</ele><time>2026-04-26T09:19:44Z</time></trkpt><trkpt lat="45.17276899469751" lon="8.28197531897997"><ele>165.0</ele><time>2026-04-26T09:19:45Z</time></trkpt><trkpt lat="45.17266613521116" lon="8.282179763296247"><ele>162.0</ele><time>2026-04-26T09:19:46Z</time></trkpt><trkpt lat="45.172566389781956" lon="8.282381570906269"><ele>163.0</ele><time>2026-04-26T09:19:47Z</time></trkpt><trkpt lat="45.17246934071735" lon="8.282588786612356"><ele>164.0</ele><time>2026-04-26T09:19:48Z</time></trkpt><trkpt lat="45.17236862167123" lon="8.282798753926954"><ele>165.0</ele><time>2026-04-26T09:19:49Z</time></trkpt><trkpt lat="45.17226977495622" lon="8.28300732111925"><ele>162.66666666666666</ele><time>2026-04-26T09:19:50Z</time></trkpt><trkpt lat="45.17217560091368" lon="8.283210309818516"><ele>160.33333333333331</ele><time>2026-04-26T09:19:51Z</time></trkpt><trkpt lat="45.17208445011204" lon="8.283422165926321"><ele>158.0</ele><time>2026-04-26T09:19:52Z</time></trkpt><trkpt lat="45.17200090146895" lon="8.283642618507397"><ele>158.0</ele><time>2026-04-26T09:19:53Z</time></trkpt><trkpt lat="45.17193540850956" lon="8.2838718005167"><ele>158.0</ele><time>2026-04-26T09:19:54Z</time></trkpt><trkpt lat="45.17188037235939" lon="8.284105944707518"><ele>158.0</ele><time>2026-04-26T09:19:55Z</time></trkpt><trkpt lat="45.17184903494031" lon="8.284352193852794"><ele>156.0</ele><time>2026-04-26T09:19:56Z</time></trkpt><trkpt lat="45.17184269504808" lon="8.284603055353017"><ele>154.0</ele><time>2026-04-26T09:19:57Z</time></trkpt><trkpt lat="45.17184558713926" lon="8.284853111798066"><ele>152.0</ele><time>2026-04-26T09:19:58Z</time></trkpt><trkpt lat="45.17183409008896" lon="8.28510524281229"><ele>151.66666666666666</ele><time>2026-04-26T09:19:59Z</time></trkpt><trkpt lat="45.17180229265748" lon="8.285354782014648"><ele>151.33333333333334</ele><time>2026-04-26T09:20:00Z</time></trkpt><trkpt lat="45.17175659710484" lon="8.285603288610128"><ele>151.0</ele><time>2026-04-26T09:20:01Z</time></trkpt><trkpt lat="45.17170767075077" lon="8.28585257660268"><ele>150.33333333333334</ele><time>2026-04-26T09:20:02Z</time></trkpt><trkpt lat="45.1716569427891" lon="8.28609514722086"><ele>149.66666666666666</ele><time>2026-04-26T09:20:03Z</time></trkpt><trkpt lat="45.171618586388014" lon="8.286343216285733"><ele>149.0</ele><time>2026-04-26T09:20:04Z</time></trkpt><trkpt lat="45.17158641989601" lon="8.286592520128785"><ele>148.66666666666666</ele><time>2026-04-26T09:20:05Z</time></trkpt><trkpt lat="45.171562754265786" lon="8.286842041425789"><ele>148.33333333333334</ele><time>2026-04-26T09:20:06Z</time></trkpt><trkpt lat="45.17154943324331" lon="8.287090340577599"><ele>148.0</ele><time>2026-04-26T09:20:07Z</time></trkpt><trkpt lat="45.17155953549759" lon="8.287335414083472"><ele>146.33333333333334</ele><time>2026-04-26T09:20:08Z</time></trkpt><trkpt lat="45.171592773187356" lon="8.287576830880765"><ele>144.66666666666666</ele><time>2026-04-26T09:20:09Z</time></trkpt><trkpt lat="45.17165464465664" lon="8.287804738646171"><ele>143.0</ele><time>2026-04-26T09:20:10Z</time></trkpt><trkpt lat="45.17173438738122" lon="8.288022921720865"><ele>142.33333333333331</ele><time>2026-04-26T09:20:11Z</time></trkpt><trkpt lat="45.171829465774586" lon="8.288225462251406"><ele>141.66666666666666</ele><time>2026-04-26T09:20:12Z</time></trkpt><trkpt lat="45.17194949266033" lon="8.2884063839061"><ele>141.0</ele><time>2026-04-26T09:20:13Z</time></trkpt><trkpt lat="45.172086964405445" lon="8.288562196100976"><ele>141.0</ele><time>2026-04-26T09:20:14Z</time></trkpt><trkpt lat="45.172239115428134" lon="8.288702964384976"><ele>141.0</ele><time>2026-04-26T09:20:15Z</time></trkpt><trkpt lat="45.17240067599932" lon="8.288822405330666"><ele>141.0</ele><time>2026-04-26T09:20:16Z</time></trkpt><trkpt lat="45.17256604567046" lon="8.288936197559615"><ele>137.66666666666666</ele><time>2026-04-26T09:20:17Z</time></trkpt><trkpt lat="45.17273060153606" lon="8.289051612557195"><ele>134.33333333333331</ele><time>2026-04-26T09:20:18Z</time></trkpt><trkpt lat="45.17289725423356" lon="8.289178050519313"><ele>131.0</ele><time>2026-04-26T09:20:19Z</time></trkpt><trkpt lat="45.17306231773123" lon="8.289308584985953"><ele>131.66666666666666</ele><time>2026-04-26T09:20:20.001Z</time></trkpt><trkpt lat="45.173227309623904" lon="8.289437467718217"><ele>132.33333333333334</ele><time>2026-04-26T09:20:21.001Z</time></trkpt><trkpt lat="45.17338709417311" lon="8.289563795016866"><ele>133.0</ele><time>2026-04-26T09:20:22.001Z</time></trkpt><trkpt lat="45.17354995548758" lon="8.289693252043614"><ele>133.0</ele><time>2026-04-26T09:20:23.001Z</time></trkpt><trkpt lat="45.17370640527834" lon="8.289831951778845"><ele>133.0</ele><time>2026-04-26T09:20:24.001Z</time></trkpt><trkpt lat="45.17385274230942" lon="8.28999273120266"><ele>133.0</ele><time>2026-04-26T09:20:25.001Z</time></trkpt><trkpt lat="45.17398598346185" lon="8.29018472664148"><ele>133.0</ele><time>2026-04-26T09:20:26.001Z</time></trkpt><trkpt lat="45.1741063306717" lon="8.290390967316808"><ele>133.0</ele><time>2026-04-26T09:20:27.001Z</time></trkpt><trkpt lat="45.174221361178844" lon="8.290607961620593"><ele>133.0</ele><time>2026-04-26T09:20:28.001Z</time></trkpt><trkpt lat="45.17434114467628" lon="8.290818986721805"><ele>132.33333333333334</ele><time>2026-04-26T09:20:29.001Z</time></trkpt><trkpt lat="45.17446356527703" lon="8.291029060365062"><ele>131.66666666666666</ele><time>2026-04-26T09:20:30.001Z</time></trkpt><trkpt lat="45.17458224030079" lon="8.291241480666502"><ele>131.0</ele><time>2026-04-26T09:20:31.001Z</time></trkpt><trkpt lat="45.17469989241286" lon="8.2914561126743"><ele>129.0</ele><time>2026-04-26T09:20:32.001Z</time></trkpt><trkpt lat="45.17481953264475" lon="8.2916700156897"><ele>127.0</ele><time>2026-04-26T09:20:33.001Z</time></trkpt><trkpt lat="45.17493919923573" lon="8.291884576594095"><ele>125.0</ele><time>2026-04-26T09:20:34.001Z</time></trkpt><trkpt lat="45.175059306929676" lon="8.292101134097123"><ele>124.66666666666666</ele><time>2026-04-26T09:20:35.001Z</time></trkpt><trkpt lat="45.17518168789788" lon="8.292318230008354"><ele>124.33333333333334</ele><time>2026-04-26T09:20:36.001Z</time></trkpt><trkpt lat="45.17530454495454" lon="8.292533098977025"><ele>124.0</ele><time>2026-04-26T09:20:37.001Z</time></trkpt><trkpt lat="45.17542948007302" lon="8.292751284091052"><ele>124.0</ele><time>2026-04-26T09:20:38.001Z</time></trkpt><trkpt lat="45.17555143856443" lon="8.292973691872737"><ele>124.0</ele><time>2026-04-26T09:20:39.001Z</time></trkpt><trkpt lat="45.175671294849955" lon="8.293199316446744"><ele>124.0</ele><time>2026-04-26T09:20:40.001Z</time></trkpt><trkpt lat="45.17579256614762" lon="8.293419255348764"><ele>125.33333333333334</ele><time>2026-04-26T09:20:41.001Z</time></trkpt><trkpt lat="45.175928685011165" lon="8.2936277579161"><ele>126.66666666666666</ele><time>2026-04-26T09:20:42.001Z</time></trkpt><trkpt lat="45.176089958084084" lon="8.293795530114116"><ele>128.0</ele><time>2026-04-26T09:20:43.001Z</time></trkpt><trkpt lat="45.17627594791736" lon="8.293920421032244"><ele>128.33333333333331</ele><time>2026-04-26T09:20:44.001Z</time></trkpt><trkpt lat="45.17647067460554" lon="8.294012159077242"><ele>128.66666666666666</ele><time>2026-04-26T09:20:45.001Z</time></trkpt><trkpt lat="45.1766686083909" lon="8.2941009666617"><ele>129.0</ele><time>2026-04-26T09:20:45.999Z</time></trkpt><trkpt lat="45.176867176613996" lon="8.29419266984019"><ele>129.0</ele><time>2026-04-26T09:20:46.999Z</time></trkpt><trkpt lat="45.177063406275096" lon="8.294293985108663"><ele>129.0</ele><time>2026-04-26T09:20:47.999Z</time></trkpt><trkpt lat="45.17726357085368" lon="8.294391997732681"><ele>129.0</ele><time>2026-04-26T09:20:48.999Z</time></trkpt><trkpt lat="45.177465951839714" lon="8.294491221420198"><ele>129.0</ele><time>2026-04-26T09:20:49.999Z</time></trkpt><trkpt lat="45.17766923804517" lon="8.29459007899811"><ele>129.0</ele><time>2026-04-26T09:20:50.999Z</time></trkpt><trkpt lat="45.17787215280848" lon="8.294690705159699"><ele>129.0</ele><time>2026-04-26T09:20:51.999Z</time></trkpt><trkpt lat="45.17807455525902" lon="8.294786319607677"><ele>128.33333333333334</ele><time>2026-04-26T09:20:52.999Z</time></trkpt><trkpt lat="45.17827742086529" lon="8.294879604078066"><ele>127.66666666666667</ele><time>2026-04-26T09:20:53.999Z</time></trkpt><trkpt lat="45.17848077073056" lon="8.294977588023116"><ele>127.0</ele><time>2026-04-26T09:20:54.999Z</time></trkpt><trkpt lat="45.17868371647556" lon="8.295076089295426"><ele>127.0</ele><time>2026-04-26T09:20:55.999Z</time></trkpt><trkpt lat="45.1788864940599" lon="8.295172916812968"><ele>127.0</ele><time>2026-04-26T09:20:56.999Z</time></trkpt><trkpt lat="45.179084823399286" lon="8.295270832463387"><ele>127.0</ele><time>2026-04-26T09:20:57.999Z</time></trkpt><trkpt lat="45.17928449541704" lon="8.295366246436451"><ele>127.0</ele><time>2026-04-26T09:20:58.999Z</time></trkpt><trkpt lat="45.179486973948954" lon="8.29545316213831"><ele>127.0</ele><time>2026-04-26T09:20:59.999Z</time></trkpt><trkpt lat="45.17969123580164" lon="8.29551567592813"><ele>127.0</ele><time>2026-04-26T09:21:00.999Z</time></trkpt><trkpt lat="45.179896865073836" lon="8.29555020879893"><ele>127.0</ele><time>2026-04-26T09:21:01.999Z</time></trkpt><trkpt lat="45.18010560084176" lon="8.295572271900179"><ele>127.0</ele><time>2026-04-26T09:21:03Z</time></trkpt><trkpt lat="45.180312258839585" lon="8.295582781389426"><ele>127.0</ele><time>2026-04-26T09:21:04Z</time></trkpt><trkpt lat="45.180513897611846" lon="8.295592724399643"><ele>128.0</ele><time>2026-04-26T09:21:05Z</time></trkpt><trkpt lat="45.18072100852126" lon="8.29560243415982"><ele>129.0</ele><time>2026-04-26T09:21:06Z</time></trkpt><trkpt lat="45.180927038150216" lon="8.295615656918066"><ele>130.0</ele><time>2026-04-26T09:21:07Z</time></trkpt><trkpt lat="45.181134534136824" lon="8.295627460567903"><ele>130.0</ele><time>2026-04-26T09:21:08Z</time></trkpt><trkpt lat="45.18134046496407" lon="8.295642351173635"><ele>130.0</ele><time>2026-04-26T09:21:09Z</time></trkpt><trkpt lat="45.181544540529536" lon="8.295656593208957"><ele>130.0</ele><time>2026-04-26T09:21:10Z</time></trkpt><trkpt lat="45.18175051400822" lon="8.295656114490296"><ele>129.0</ele><time>2026-04-26T09:21:11Z</time></trkpt><trkpt lat="45.18195434731442" lon="8.295665679592938"><ele>128.0</ele><time>2026-04-26T09:21:12Z</time></trkpt><trkpt lat="45.182155088335335" lon="8.295673310750548"><ele>127.0</ele><time>2026-04-26T09:21:13Z</time></trkpt><trkpt lat="45.182354651721994" lon="8.295684321060328"><ele>126.66666666666667</ele><time>2026-04-26T09:21:14Z</time></trkpt><trkpt lat="45.18255609340044" lon="8.295694744888188"><ele>126.33333333333334</ele><time>2026-04-26T09:21:15Z</time></trkpt><trkpt lat="45.182752402766404" lon="8.295701469954649"><ele>126.0</ele><time>2026-04-26T09:21:16Z</time></trkpt><trkpt lat="45.18294002205556" lon="8.295734762774341"><ele>126.0</ele><time>2026-04-26T09:21:17Z</time></trkpt><trkpt lat="45.18311785991576" lon="8.295721862618185"><ele>126.0</ele><time>2026-04-26T09:21:18Z</time></trkpt><trkpt lat="45.183289777601665" lon="8.295730946065365"><ele>126.0</ele><time>2026-04-26T09:21:19Z</time></trkpt><trkpt lat="45.18345962660179" lon="8.295743940575472"><ele>126.33333333333334</ele><time>2026-04-26T09:21:20Z</time></trkpt><trkpt lat="45.183632698740325" lon="8.29575607344476"><ele>126.66666666666667</ele><time>2026-04-26T09:21:21Z</time></trkpt><trkpt lat="45.18380507321636" lon="8.295769316735454"><ele>127.0</ele><time>2026-04-26T09:21:22Z</time></trkpt><trkpt lat="45.183974841550665" lon="8.2957776667304"><ele>128.33333333333334</ele><time>2026-04-26T09:21:23Z</time></trkpt><trkpt lat="45.18413945796029" lon="8.29579250489534"><ele>129.66666666666666</ele><time>2026-04-26T09:21:24Z</time></trkpt><trkpt lat="45.18431326270298" lon="8.295803393889495"><ele>131.0</ele><time>2026-04-26T09:21:25Z</time></trkpt><trkpt lat="45.18447768463368" lon="8.295824249354878"><ele>131.0</ele><time>2026-04-26T09:21:26Z</time></trkpt><trkpt lat="45.184640259098096" lon="8.29583972943234"><ele>131.0</ele><time>2026-04-26T09:21:27Z</time></trkpt><trkpt lat="45.18480527947936" lon="8.295849598943839"><ele>131.0</ele><time>2026-04-26T09:21:28Z</time></trkpt><trkpt lat="45.18497006430716" lon="8.295854000942196"><ele>131.0</ele><time>2026-04-26T09:21:29Z</time></trkpt><trkpt lat="45.18513617338084" lon="8.29586062271364"><ele>131.0</ele><time>2026-04-26T09:21:30Z</time></trkpt><trkpt lat="45.18530670815308" lon="8.295861510773534"><ele>131.0</ele><time>2026-04-26T09:21:31Z</time></trkpt><trkpt lat="45.1854696788682" lon="8.29589099368072"><ele>131.0</ele><time>2026-04-26T09:21:32Z</time></trkpt><trkpt lat="45.18562738763307" lon="8.295900618032299"><ele>131.0</ele><time>2026-04-26T09:21:33Z</time></trkpt><trkpt lat="45.185773430391876" lon="8.295892918172898"><ele>131.0</ele><time>2026-04-26T09:21:34Z</time></trkpt><trkpt lat="45.18590980791083" lon="8.295906261947199"><ele>131.0</ele><time>2026-04-26T09:21:35Z</time></trkpt><trkpt lat="45.18603797251332" lon="8.295912695161732"><ele>131.0</ele><time>2026-04-26T09:21:36Z</time></trkpt><trkpt lat="45.186160038943" lon="8.295922846796683"><ele>131.0</ele><time>2026-04-26T09:21:37Z</time></trkpt><trkpt lat="45.18627652639723" lon="8.29592967911354"><ele>131.0</ele><time>2026-04-26T09:21:38Z</time></trkpt><trkpt lat="45.18638448439544" lon="8.295933334466149"><ele>131.0</ele><time>2026-04-26T09:21:39Z</time></trkpt><trkpt lat="45.186483976081874" lon="8.295934942451204"><ele>131.0</ele><time>2026-04-26T09:21:40Z</time></trkpt><trkpt lat="45.18658660376856" lon="8.295936697374364"><ele>131.0</ele><time>2026-04-26T09:21:41Z</time></trkpt><trkpt lat="45.18668620140751" lon="8.29594831636901"><ele>131.0</ele><time>2026-04-26T09:21:42Z</time></trkpt><trkpt lat="45.18678164692187" lon="8.295945400222093"><ele>131.0</ele><time>2026-04-26T09:21:43Z</time></trkpt><trkpt lat="45.186869587868955" lon="8.295952533731764"><ele>131.0</ele><time>2026-04-26T09:21:44Z</time></trkpt><trkpt lat="45.18694733103694" lon="8.295978182855055"><ele>131.0</ele><time>2026-04-26T09:21:45Z</time></trkpt><trkpt lat="45.18705494716339" lon="8.295962094411767"><ele>131.0</ele><time>2026-04-26T09:21:47Z</time></trkpt><trkpt lat="45.18713394571811" lon="8.29598894309811"><ele>131.0</ele><time>2026-04-26T09:21:49Z</time></trkpt><trkpt lat="45.18720300606509" lon="8.29596356102371"><ele>131.0</ele><time>2026-04-26T09:21:51Z</time></trkpt><trkpt lat="45.18729764059714" lon="8.296005959523425"><ele>131.0</ele><time>2026-04-26T09:21:54Z</time></trkpt><trkpt lat="45.187337680345856" lon="8.296084038050322"><ele>131.0</ele><time>2026-04-26T09:21:55Z</time></trkpt><trkpt lat="45.187470743865624" lon="8.296060053980332"><ele>131.16666666666666</ele><time>2026-04-26T09:21:57Z</time></trkpt><trkpt lat="45.18752668576861" lon="8.296012014987923"><ele>131.33333333333331</ele><time>2026-04-26T09:21:58Z</time></trkpt><trkpt lat="45.187591792986076" lon="8.29600497072789"><ele>131.5</ele><time>2026-04-26T09:21:59Z</time></trkpt><trkpt lat="45.187672584387485" lon="8.295992878821767"><ele>131.66666666666666</ele><time>2026-04-26T09:22:00Z</time></trkpt><trkpt lat="45.1877526455027" lon="8.29602001967244"><ele>131.83333333333334</ele><time>2026-04-26T09:22:01Z</time></trkpt><trkpt lat="45.1878380584284" lon="8.29602542992504"><ele>132.0</ele><time>2026-04-26T09:22:02Z</time></trkpt><trkpt lat="45.187919199023234" lon="8.296030569560216"><ele>132.0</ele><time>2026-04-26T09:22:03Z</time></trkpt><trkpt lat="45.187998494873824" lon="8.296035592341253"><ele>132.0</ele><time>2026-04-26T09:22:04Z</time></trkpt><trkpt lat="45.188073457034086" lon="8.296040340622076"><ele>132.0</ele><time>2026-04-26T09:22:05Z</time></trkpt><trkpt lat="45.188145752718505" lon="8.296044550450224"><ele>132.0</ele><time>2026-04-26T09:22:06Z</time></trkpt><trkpt lat="45.18820900284874" lon="8.29604815703998"><ele>132.0</ele><time>2026-04-26T09:22:07Z</time></trkpt><trkpt lat="45.188314611495905" lon="8.296054178956576"><ele>132.0</ele><time>2026-04-26T09:22:09Z</time></trkpt><trkpt lat="45.18843701247355" lon="8.296061158385887"><ele>131.85714285714286</ele><time>2026-04-26T09:22:11Z</time></trkpt><trkpt lat="45.18850434379151" lon="8.296064997637973"><ele>131.71428571428572</ele><time>2026-04-26T09:22:12Z</time></trkpt><trkpt lat="45.18857400822744" lon="8.29606881531652"><ele>131.57142857142858</ele><time>2026-04-26T09:22:13Z</time></trkpt><trkpt lat="45.188644698178145" lon="8.296072747883738"><ele>131.42857142857144</ele><time>2026-04-26T09:22:14Z</time></trkpt><trkpt lat="45.18871112203387" lon="8.296076712345608"><ele>131.2857142857143</ele><time>2026-04-26T09:22:15Z</time></trkpt><trkpt lat="45.18878707832932" lon="8.296081135118348"><ele>131.14285714285714</ele><time>2026-04-26T09:22:16Z</time></trkpt><trkpt lat="45.18887614388173" lon="8.296086321213142"><ele>131.0</ele><time>2026-04-26T09:22:17Z</time></trkpt><trkpt lat="45.18898210611965" lon="8.29609249117045"><ele>131.0</ele><time>2026-04-26T09:22:18Z</time></trkpt><trkpt lat="45.18910007986897" lon="8.296099360533287"><ele>131.0</ele><time>2026-04-26T09:22:19Z</time></trkpt><trkpt lat="45.189223236797424" lon="8.296106531942913"><ele>131.0</ele><time>2026-04-26T09:22:20Z</time></trkpt><trkpt lat="45.189347782432634" lon="8.296115415044124"><ele>131.0</ele><time>2026-04-26T09:22:21Z</time></trkpt><trkpt lat="45.18946558377137" lon="8.296123304132498"><ele>131.0</ele><time>2026-04-26T09:22:22Z</time></trkpt><trkpt lat="45.18957890351188" lon="8.29613089307337"><ele>131.0</ele><time>2026-04-26T09:22:23Z</time></trkpt><trkpt lat="45.18968888390722" lon="8.296138258778884"><ele>131.0</ele><time>2026-04-26T09:22:24Z</time></trkpt><trkpt lat="45.1898045212421" lon="8.29614938806544"><ele>131.0</ele><time>2026-04-26T09:22:25Z</time></trkpt><trkpt lat="45.189912429825156" lon="8.296158247324087"><ele>131.0</ele><time>2026-04-26T09:22:26Z</time></trkpt><trkpt lat="45.190023804180285" lon="8.296167201197244"><ele>131.25</ele><time>2026-04-26T09:22:27Z</time></trkpt><trkpt lat="45.19014460848905" lon="8.296176913207642"><ele>131.5</ele><time>2026-04-26T09:22:28Z</time></trkpt><trkpt lat="45.1902711898602" lon="8.296185726216766"><ele>131.75</ele><time>2026-04-26T09:22:29Z</time></trkpt><trkpt lat="45.19040088290148" lon="8.296194587474142"><ele>132.0</ele><time>2026-04-26T09:22:30Z</time></trkpt><trkpt lat="45.190532867540796" lon="8.296203605236155"><ele>132.0</ele><time>2026-04-26T09:22:31Z</time></trkpt><trkpt lat="45.19067176884553" lon="8.296212061104997"><ele>132.0</ele><time>2026-04-26T09:22:32Z</time></trkpt><trkpt lat="45.19079709616558" lon="8.296219902655267"><ele>132.0</ele><time>2026-04-26T09:22:33Z</time></trkpt><trkpt lat="45.19092506130903" lon="8.296227909261418"><ele>132.0</ele><time>2026-04-26T09:22:34Z</time></trkpt><trkpt lat="45.19104473783648" lon="8.29623539725118"><ele>132.0</ele><time>2026-04-26T09:22:35Z</time></trkpt><trkpt lat="45.19116060641958" lon="8.296242646983345"><ele>132.0</ele><time>2026-04-26T09:22:36.001Z</time></trkpt><trkpt lat="45.19127468285149" lon="8.29624978450259"><ele>132.0</ele><time>2026-04-26T09:22:37.001Z</time></trkpt><trkpt lat="45.191388977829895" lon="8.296256380879246"><ele>132.0</ele><time>2026-04-26T09:22:38.001Z</time></trkpt><trkpt lat="45.19149978199376" lon="8.29626294790631"><ele>132.4</ele><time>2026-04-26T09:22:39.001Z</time></trkpt><trkpt lat="45.191601891887885" lon="8.296268999647005"><ele>132.79999999999998</ele><time>2026-04-26T09:22:40.001Z</time></trkpt><trkpt lat="45.19169736135189" lon="8.296273142495027"><ele>133.2</ele><time>2026-04-26T09:22:41.001Z</time></trkpt><trkpt lat="45.19178863606311" lon="8.296277043124967"><ele>133.6</ele><time>2026-04-26T09:22:42.001Z</time></trkpt><trkpt lat="45.191875560558884" lon="8.296280757757177"><ele>134.0</ele><time>2026-04-26T09:22:43.001Z</time></trkpt><trkpt lat="45.19195734586163" lon="8.29626188518102"><ele>134.0</ele><time>2026-04-26T09:22:44.001Z</time></trkpt><trkpt lat="45.1920349343444" lon="8.296263826644244"><ele>134.0</ele><time>2026-04-26T09:22:45.001Z</time></trkpt><trkpt lat="45.192110367987524" lon="8.296271160243744"><ele>134.0</ele><time>2026-04-26T09:22:46.001Z</time></trkpt><trkpt lat="45.192187262505776" lon="8.296278564565197"><ele>134.0</ele><time>2026-04-26T09:22:47.001Z</time></trkpt><trkpt lat="45.19226210370652" lon="8.296285200501217"><ele>134.0</ele><time>2026-04-26T09:22:48.001Z</time></trkpt><trkpt lat="45.192334181323886" lon="8.296290215527945"><ele>134.0</ele><time>2026-04-26T09:22:49.001Z</time></trkpt><trkpt lat="45.19239888482617" lon="8.296294422504117"><ele>134.0</ele><time>2026-04-26T09:22:50.001Z</time></trkpt><trkpt lat="45.19252464251298" lon="8.29631680209704"><ele>134.0</ele><time>2026-04-26T09:22:52Z</time></trkpt><trkpt lat="45.19263734273278" lon="8.296325895537645"><ele>134.0</ele><time>2026-04-26T09:22:54Z</time></trkpt><trkpt lat="45.19270402194017" lon="8.296295691730682"><ele>134.0</ele><time>2026-04-26T09:22:56Z</time></trkpt><trkpt lat="45.19280990234971" lon="8.296300649627504"><ele>134.0</ele><time>2026-04-26T09:22:58Z</time></trkpt><trkpt lat="45.192894611248875" lon="8.296337118857677"><ele>134.0</ele><time>2026-04-26T09:23:00Z</time></trkpt><trkpt lat="45.192963214130536" lon="8.29635081494625"><ele>134.0</ele><time>2026-04-26T09:23:02Z</time></trkpt><trkpt lat="45.19304770659648" lon="8.296185766488627"><ele>134.0</ele><time>2026-04-26T09:23:04Z</time></trkpt><trkpt lat="45.19303820205873" lon="8.296075283954476"><ele>134.0</ele><time>2026-04-26T09:23:05Z</time></trkpt><trkpt lat="45.19305459714838" lon="8.295960903409748"><ele>134.0</ele><time>2026-04-26T09:23:06Z</time></trkpt><trkpt lat="45.19307535617465" lon="8.295816077966897"><ele>134.0</ele><time>2026-04-26T09:23:07Z</time></trkpt><trkpt lat="45.19309803273363" lon="8.29566187397196"><ele>134.0</ele><time>2026-04-26T09:23:08Z</time></trkpt><trkpt lat="45.19312434422186" lon="8.295485064479948"><ele>133.75</ele><time>2026-04-26T09:23:09Z</time></trkpt><trkpt lat="45.193170848799994" lon="8.295297651139043"><ele>133.5</ele><time>2026-04-26T09:23:10Z</time></trkpt><trkpt lat="45.19318561955411" lon="8.29510367054965"><ele>133.25</ele><time>2026-04-26T09:23:11Z</time></trkpt><trkpt lat="45.19321262534594" lon="8.294946432720039"><ele>133.0</ele><time>2026-04-26T09:23:12Z</time></trkpt><trkpt lat="45.193235555621484" lon="8.294813115636792"><ele>133.20000000000002</ele><time>2026-04-26T09:23:13Z</time></trkpt><trkpt lat="45.193253982013715" lon="8.29470727271663"><ele>133.4</ele><time>2026-04-26T09:23:14Z</time></trkpt><trkpt lat="45.19329439648587" lon="8.29453130197095"><ele>133.60000000000002</ele><time>2026-04-26T09:23:16Z</time></trkpt><trkpt lat="45.19331359182153" lon="8.29440245254405"><ele>133.8</ele><time>2026-04-26T09:23:17Z</time></trkpt><trkpt lat="45.19332775580583" lon="8.294211639904885"><ele>134.0</ele><time>2026-04-26T09:23:18Z</time></trkpt><trkpt lat="45.193352499332605" lon="8.294022568148026"><ele>133.5</ele><time>2026-04-26T09:23:19Z</time></trkpt><trkpt lat="45.19338112204485" lon="8.293819665077505"><ele>133.0</ele><time>2026-04-26T09:23:20Z</time></trkpt><trkpt lat="45.19341332027436" lon="8.293621700769624"><ele>132.5</ele><time>2026-04-26T09:23:21Z</time></trkpt><trkpt lat="45.193444056737114" lon="8.293423737778088"><ele>132.0</ele><time>2026-04-26T09:23:22Z</time></trkpt><trkpt lat="45.19347325938322" lon="8.293216444807362"><ele>131.66666666666666</ele><time>2026-04-26T09:23:23Z</time></trkpt><trkpt lat="45.19349892139308" lon="8.293002984024085"><ele>131.33333333333331</ele><time>2026-04-26T09:23:24Z</time></trkpt><trkpt lat="45.19353084251348" lon="8.292780944107658"><ele>131.0</ele><time>2026-04-26T09:23:25Z</time></trkpt><trkpt lat="45.19356797468738" lon="8.29256043258646"><ele>131.0</ele><time>2026-04-26T09:23:26Z</time></trkpt><trkpt lat="45.193603980962436" lon="8.292336864170798"><ele>131.0</ele><time>2026-04-26T09:23:27Z</time></trkpt><trkpt lat="45.19363301913161" lon="8.292105780671944"><ele>131.0</ele><time>2026-04-26T09:23:28Z</time></trkpt><trkpt lat="45.193680903175554" lon="8.291880170114892"><ele>131.0</ele><time>2026-04-26T09:23:29Z</time></trkpt><trkpt lat="45.19371412986144" lon="8.291649789200855"><ele>131.0</ele><time>2026-04-26T09:23:30Z</time></trkpt><trkpt lat="45.19373362469879" lon="8.291420946921987"><ele>131.0</ele><time>2026-04-26T09:23:31Z</time></trkpt><trkpt lat="45.19376788216313" lon="8.291202625982342"><ele>130.75</ele><time>2026-04-26T09:23:32Z</time></trkpt><trkpt lat="45.193801822183126" lon="8.290995945292313"><ele>130.5</ele><time>2026-04-26T09:23:33Z</time></trkpt><trkpt lat="45.19382859503592" lon="8.290813213929793"><ele>130.25</ele><time>2026-04-26T09:23:34Z</time></trkpt><trkpt lat="45.19385070954395" lon="8.290637716045524"><ele>130.0</ele><time>2026-04-26T09:23:35Z</time></trkpt><trkpt lat="45.19386933361777" lon="8.290500355896043"><ele>130.0</ele><time>2026-04-26T09:23:36Z</time></trkpt><trkpt lat="45.19389614859457" lon="8.290392022499864"><ele>130.0</ele><time>2026-04-26T09:23:37Z</time></trkpt><trkpt lat="45.19389670917926" lon="8.290285457007402"><ele>130.0</ele><time>2026-04-26T09:23:38Z</time></trkpt><trkpt lat="45.19395329649813" lon="8.290229970810987"><ele>130.0</ele><time>2026-04-26T09:23:39Z</time></trkpt><trkpt lat="45.19403351485562" lon="8.290212503878884"><ele>130.0</ele><time>2026-04-26T09:23:40Z</time></trkpt><trkpt lat="45.19413769826442" lon="8.290210225634413"><ele>130.0</ele><time>2026-04-26T09:23:41Z</time></trkpt><trkpt lat="45.194247937026375" lon="8.290215853601786"><ele>130.0</ele><time>2026-04-26T09:23:42Z</time></trkpt><trkpt lat="45.194365998345994" lon="8.290231791300753"><ele>130.0</ele><time>2026-04-26T09:23:43Z</time></trkpt><trkpt lat="45.19449625888386" lon="8.290215948144523"><ele>130.0</ele><time>2026-04-26T09:23:44Z</time></trkpt><trkpt lat="45.19462027426872" lon="8.290221135840316"><ele>130.0</ele><time>2026-04-26T09:23:45Z</time></trkpt><trkpt lat="45.194750593837284" lon="8.290219198605536"><ele>130.8</ele><time>2026-04-26T09:23:46Z</time></trkpt><trkpt lat="45.19485836052216" lon="8.290215632538171"><ele>131.6</ele><time>2026-04-26T09:23:47Z</time></trkpt><trkpt lat="45.19496157153817" lon="8.290213570081079"><ele>132.4</ele><time>2026-04-26T09:23:48Z</time></trkpt><trkpt lat="45.19504245354545" lon="8.290223032423187"><ele>133.2</ele><time>2026-04-26T09:23:49Z</time></trkpt><trkpt lat="45.19511374875007" lon="8.290209717306361"><ele>134.0</ele><time>2026-04-26T09:23:51Z</time></trkpt><trkpt lat="45.19524828199098" lon="8.290195691502515"><ele>134.0</ele><time>2026-04-26T09:24:04Z</time></trkpt><trkpt lat="45.19535663147848" lon="8.290184291880042"><ele>134.0</ele><time>2026-04-26T09:24:05Z</time></trkpt><trkpt lat="45.195465241666085" lon="8.290199184385454"><ele>134.0</ele><time>2026-04-26T09:24:06Z</time></trkpt><trkpt lat="45.195566879065254" lon="8.29019641885692"><ele>134.0</ele><time>2026-04-26T09:24:07Z</time></trkpt><trkpt lat="45.19567412570386" lon="8.290193500701655"><ele>134.0</ele><time>2026-04-26T09:24:08Z</time></trkpt><trkpt lat="45.195787395012474" lon="8.290190418671841"><ele>133.75</ele><time>2026-04-26T09:24:09Z</time></trkpt><trkpt lat="45.1959075226197" lon="8.290165219157894"><ele>133.5</ele><time>2026-04-26T09:24:10Z</time></trkpt><trkpt lat="45.196033337420175" lon="8.29018387863423"><ele>133.25</ele><time>2026-04-26T09:24:11Z</time></trkpt><trkpt lat="45.19615281803335" lon="8.290164332954209"><ele>133.0</ele><time>2026-04-26T09:24:12Z</time></trkpt><trkpt lat="45.196269643964165" lon="8.290156995579354"><ele>133.0</ele><time>2026-04-26T09:24:13Z</time></trkpt><trkpt lat="45.19639432994929" lon="8.290177930465797"><ele>133.0</ele><time>2026-04-26T09:24:14Z</time></trkpt><trkpt lat="45.196529492805006" lon="8.290175778319947"><ele>133.0</ele><time>2026-04-26T09:24:15Z</time></trkpt><trkpt lat="45.19666167938956" lon="8.290152050603167"><ele>133.0</ele><time>2026-04-26T09:24:16.001Z</time></trkpt><trkpt lat="45.19678138845379" lon="8.29015390522327"><ele>132.8</ele><time>2026-04-26T09:24:17.001Z</time></trkpt><trkpt lat="45.196888264748104" lon="8.290146632447412"><ele>132.60000000000002</ele><time>2026-04-26T09:24:18.001Z</time></trkpt><trkpt lat="45.1969925927112" lon="8.290154802719996"><ele>132.39999999999998</ele><time>2026-04-26T09:24:19.001Z</time></trkpt><trkpt lat="45.19709652678924" lon="8.290153984488894"><ele>132.2</ele><time>2026-04-26T09:24:20.001Z</time></trkpt><trkpt lat="45.197200130291485" lon="8.29014601696337"><ele>132.0</ele><time>2026-04-26T09:24:21.001Z</time></trkpt><trkpt lat="45.19730859682642" lon="8.290145095361883"><ele>131.66666666666666</ele><time>2026-04-26T09:24:22.001Z</time></trkpt><trkpt lat="45.19739244810759" lon="8.29014605855039"><ele>131.33333333333334</ele><time>2026-04-26T09:24:23.001Z</time></trkpt><trkpt lat="45.19746395224579" lon="8.290143227748711"><ele>131.0</ele><time>2026-04-26T09:24:24.001Z</time></trkpt><trkpt lat="45.197543255902566" lon="8.290152134277825"><ele>130.66666666666669</ele><time>2026-04-26T09:24:25.001Z</time></trkpt><trkpt lat="45.19761616191614" lon="8.29019778682654"><ele>130.33333333333334</ele><time>2026-04-26T09:24:26.001Z</time></trkpt><trkpt lat="45.19766445950857" lon="8.290282172942714"><ele>130.0</ele><time>2026-04-26T09:24:27.001Z</time></trkpt><trkpt lat="45.197667243048016" lon="8.290414818936249"><ele>130.0</ele><time>2026-04-26T09:24:28.001Z</time></trkpt><trkpt lat="45.19765619738965" lon="8.29055792012689"><ele>130.0</ele><time>2026-04-26T09:24:29.001Z</time></trkpt><trkpt lat="45.197634829296426" lon="8.290738297269444"><ele>130.0</ele><time>2026-04-26T09:24:30.001Z</time></trkpt><trkpt lat="45.19762310909443" lon="8.29097439051144"><ele>130.0</ele><time>2026-04-26T09:24:31.001Z</time></trkpt><trkpt lat="45.19760996216242" lon="8.291239224478735"><ele>130.66666666666669</ele><time>2026-04-26T09:24:32.001Z</time></trkpt><trkpt lat="45.19760713250681" lon="8.291497393705479"><ele>131.33333333333334</ele><time>2026-04-26T09:24:33.001Z</time></trkpt><trkpt lat="45.197575968039644" lon="8.291764745614433"><ele>132.0</ele><time>2026-04-26T09:24:34.001Z</time></trkpt><trkpt lat="45.19755817469057" lon="8.292035586701232"><ele>132.33333333333334</ele><time>2026-04-26T09:24:35.001Z</time></trkpt><trkpt lat="45.19754723574077" lon="8.292301758582322"><ele>132.66666666666669</ele><time>2026-04-26T09:24:36.001Z</time></trkpt><trkpt lat="45.197536787398946" lon="8.292548529054624"><ele>133.0</ele><time>2026-04-26T09:24:37.001Z</time></trkpt><trkpt lat="45.19752323836866" lon="8.292770397890843"><ele>133.0</ele><time>2026-04-26T09:24:38.001Z</time></trkpt><trkpt lat="45.197507911622765" lon="8.292963295008665"><ele>133.0</ele><time>2026-04-26T09:24:39.001Z</time></trkpt><trkpt lat="45.19749650411885" lon="8.293114016202715"><ele>133.0</ele><time>2026-04-26T09:24:40.001Z</time></trkpt><trkpt lat="45.197486708249464" lon="8.293248683158009"><ele>133.0</ele><time>2026-04-26T09:24:41.001Z</time></trkpt><trkpt lat="45.197487725829056" lon="8.293363293743091"><ele>133.0</ele><time>2026-04-26T09:24:42.001Z</time></trkpt><trkpt lat="45.19750332888353" lon="8.293453071051603"><ele>133.0</ele><time>2026-04-26T09:24:43.001Z</time></trkpt><trkpt lat="45.197559136269604" lon="8.29351821258152"><ele>133.0</ele><time>2026-04-26T09:24:44.001Z</time></trkpt><trkpt lat="45.197650695514795" lon="8.29351869631729"><ele>133.0</ele><time>2026-04-26T09:24:45.001Z</time></trkpt><trkpt lat="45.1977755897195" lon="8.293539042673599"><ele>133.0</ele><time>2026-04-26T09:24:46.001Z</time></trkpt><trkpt lat="45.1979233694594" lon="8.293552656578113"><ele>133.0</ele><time>2026-04-26T09:24:47.001Z</time></trkpt><trkpt lat="45.19807199670301" lon="8.293566231287956"><ele>132.33333333333334</ele><time>2026-04-26T09:24:48.001Z</time></trkpt><trkpt lat="45.19821488200373" lon="8.293579318864081"><ele>131.66666666666666</ele><time>2026-04-26T09:24:49.001Z</time></trkpt><trkpt lat="45.19837491239659" lon="8.293593986236504"><ele>131.0</ele><time>2026-04-26T09:24:50.001Z</time></trkpt><trkpt lat="45.19854397599193" lon="8.293609481587339"><ele>131.0</ele><time>2026-04-26T09:24:51.001Z</time></trkpt><trkpt lat="45.198711361270924" lon="8.293625162174408"><ele>131.0</ele><time>2026-04-26T09:24:52.001Z</time></trkpt><trkpt lat="45.19886129571398" lon="8.29364131006433"><ele>131.0</ele><time>2026-04-26T09:24:53.001Z</time></trkpt><trkpt lat="45.19897447092661" lon="8.293653498956035"><ele>131.0</ele><time>2026-04-26T09:24:54.001Z</time></trkpt><trkpt lat="45.199070873559194" lon="8.293663881476332"><ele>131.2</ele><time>2026-04-26T09:24:55.001Z</time></trkpt><trkpt lat="45.19914225900668" lon="8.293674152476854"><ele>131.39999999999998</ele><time>2026-04-26T09:24:56.001Z</time></trkpt><trkpt lat="45.199205339030335" lon="8.293686518969213"><ele>131.6</ele><time>2026-04-26T09:24:57.001Z</time></trkpt><trkpt lat="45.19926537183015" lon="8.29373441367766"><ele>131.79999999999998</ele><time>2026-04-26T09:24:59Z</time></trkpt><trkpt lat="45.19920600029831" lon="8.293949332439515"><ele>132.0</ele><time>2026-04-26T09:25:00Z</time></trkpt><trkpt lat="45.199137289873946" lon="8.294056628781348"><ele>132.0</ele><time>2026-04-26T09:25:01Z</time></trkpt><trkpt lat="45.19908431297691" lon="8.294187105585793"><ele>132.0</ele><time>2026-04-26T09:25:02Z</time></trkpt><trkpt lat="45.199041942807916" lon="8.29435693045804"><ele>132.0</ele><time>2026-04-26T09:25:03Z</time></trkpt><trkpt lat="45.198992499621355" lon="8.294537265764182"><ele>132.0</ele><time>2026-04-26T09:25:04Z</time></trkpt><trkpt lat="45.198959703687066" lon="8.294731005946726"><ele>132.0</ele><time>2026-04-26T09:25:05Z</time></trkpt><trkpt lat="45.198951214347694" lon="8.294922123953956"><ele>132.0</ele><time>2026-04-26T09:25:06Z</time></trkpt><trkpt lat="45.19898721960392" lon="8.29511526563563"><ele>132.0</ele><time>2026-04-26T09:25:07Z</time></trkpt><trkpt lat="45.1990463385581" lon="8.295294736793934"><ele>132.0</ele><time>2026-04-26T09:25:08Z</time></trkpt><trkpt lat="45.19906961252023" lon="8.295474412102145"><ele>132.0</ele><time>2026-04-26T09:25:09Z</time></trkpt><trkpt lat="45.199093849474295" lon="8.295635420639643"><ele>132.0</ele><time>2026-04-26T09:25:10Z</time></trkpt><trkpt lat="45.199094849489974" lon="8.295796104963632"><ele>132.0</ele><time>2026-04-26T09:25:11Z</time></trkpt><trkpt lat="45.19903954338346" lon="8.295932584759008"><ele>132.0</ele><time>2026-04-26T09:25:12Z</time></trkpt><trkpt lat="45.198969169615225" lon="8.296095719241997"><ele>132.0</ele><time>2026-04-26T09:25:13Z</time></trkpt><trkpt lat="45.198903413679936" lon="8.29626655321491"><ele>132.0</ele><time>2026-04-26T09:25:14Z</time></trkpt><trkpt lat="45.19882135855604" lon="8.29643901769421"><ele>132.0</ele><time>2026-04-26T09:25:15Z</time></trkpt><trkpt lat="45.19874298270622" lon="8.296617648105457"><ele>132.0</ele><time>2026-04-26T09:25:16Z</time></trkpt><trkpt lat="45.19866697464933" lon="8.296790453729338"><ele>132.0</ele><time>2026-04-26T09:25:17Z</time></trkpt><trkpt lat="45.198593299707035" lon="8.296948663432524"><ele>132.0</ele><time>2026-04-26T09:25:18Z</time></trkpt><trkpt lat="45.19852857648793" lon="8.29708799919106"><ele>132.0</ele><time>2026-04-26T09:25:19Z</time></trkpt><trkpt lat="45.19844793533415" lon="8.297213962952302"><ele>132.0</ele><time>2026-04-26T09:25:20Z</time></trkpt><trkpt lat="45.198400641339596" lon="8.297306526509542"><ele>132.0</ele><time>2026-04-26T09:25:21Z</time></trkpt><trkpt lat="45.19834626313536" lon="8.29744875304343"><ele>132.0</ele><time>2026-04-26T09:25:23Z</time></trkpt><trkpt lat="45.19831536866702" lon="8.29754443773388"><ele>132.0</ele><time>2026-04-26T09:25:33Z</time></trkpt><trkpt lat="45.19845500913102" lon="8.297651993086816"><ele>132.0</ele><time>2026-04-26T09:25:35Z</time></trkpt><trkpt lat="45.19855166640508" lon="8.29768460189252"><ele>132.0</ele><time>2026-04-26T09:25:36Z</time></trkpt><trkpt lat="45.19865788096263" lon="8.29772043511319"><ele>132.0</ele><time>2026-04-26T09:25:37Z</time></trkpt><trkpt lat="45.19876160691935" lon="8.29775542864813"><ele>132.0</ele><time>2026-04-26T09:25:38Z</time></trkpt><trkpt lat="45.19887467820307" lon="8.297793575721231"><ele>132.0</ele><time>2026-04-26T09:25:39Z</time></trkpt><trkpt lat="45.19899563704937" lon="8.297833422013387"><ele>132.0</ele><time>2026-04-26T09:25:40Z</time></trkpt><trkpt lat="45.19911287156525" lon="8.29787227164355"><ele>132.25</ele><time>2026-04-26T09:25:41Z</time></trkpt><trkpt lat="45.19922502705317" lon="8.297909438201508"><ele>132.5</ele><time>2026-04-26T09:25:42Z</time></trkpt><trkpt lat="45.19934468314662" lon="8.297926853164162"><ele>132.75</ele><time>2026-04-26T09:25:43Z</time></trkpt><trkpt lat="45.19945614298017" lon="8.29798578704754"><ele>133.0</ele><time>2026-04-26T09:25:44Z</time></trkpt><trkpt lat="45.19956485772671" lon="8.298021526843204"><ele>133.0</ele><time>2026-04-26T09:25:45Z</time></trkpt><trkpt lat="45.19965856607031" lon="8.29805233328397"><ele>133.0</ele><time>2026-04-26T09:25:46Z</time></trkpt><trkpt lat="45.19974116020356" lon="8.298079486012925"><ele>133.0</ele><time>2026-04-26T09:25:47Z</time></trkpt><trkpt lat="45.19981728748721" lon="8.298104512772236"><ele>133.0</ele><time>2026-04-26T09:25:48Z</time></trkpt><trkpt lat="45.19988870907673" lon="8.29812799248814"><ele>133.0</ele><time>2026-04-26T09:25:49Z</time></trkpt><trkpt lat="45.19996906567847" lon="8.298154409569538"><ele>133.0</ele><time>2026-04-26T09:25:50Z</time></trkpt><trkpt lat="45.20005941924121" lon="8.29816106909517"><ele>132.8</ele><time>2026-04-26T09:25:51Z</time></trkpt><trkpt lat="45.2001481673321" lon="8.298213551966812"><ele>132.60000000000002</ele><time>2026-04-26T09:25:52Z</time></trkpt><trkpt lat="45.2002382675123" lon="8.298243660180054"><ele>132.39999999999998</ele><time>2026-04-26T09:25:53Z</time></trkpt><trkpt lat="45.20033284345879" lon="8.298275264047977"><ele>132.2</ele><time>2026-04-26T09:25:54Z</time></trkpt><trkpt lat="45.20042245936167" lon="8.298305210433648"><ele>132.0</ele><time>2026-04-26T09:25:55Z</time></trkpt><trkpt lat="45.20051160593043" lon="8.298334999986885"><ele>132.0</ele><time>2026-04-26T09:25:56Z</time></trkpt><trkpt lat="45.20059552412759" lon="8.298363042406878"><ele>132.0</ele><time>2026-04-26T09:25:57Z</time></trkpt><trkpt lat="45.200670116977626" lon="8.298387968607551"><ele>132.0</ele><time>2026-04-26T09:25:58Z</time></trkpt><trkpt lat="45.20073392006893" lon="8.298409288943525"><ele>132.0</ele><time>2026-04-26T09:25:59Z</time></trkpt><trkpt lat="45.20082420308167" lon="8.298421042347202"><ele>132.0</ele><time>2026-04-26T09:26:01Z</time></trkpt><trkpt lat="45.20088570765542" lon="8.298446376598784"><ele>132.0</ele><time>2026-04-26T09:26:04Z</time></trkpt><trkpt lat="45.20094852649361" lon="8.298467238139883"><ele>132.0</ele><time>2026-04-26T09:26:11.001Z</time></trkpt><trkpt lat="45.201091253215935" lon="8.298507153184103"><ele>132.2</ele><time>2026-04-26T09:26:13.001Z</time></trkpt><trkpt lat="45.20119177749063" lon="8.298535232570789"><ele>132.39999999999998</ele><time>2026-04-26T09:26:14.001Z</time></trkpt><trkpt lat="45.2012871418772" lon="8.298588626338596"><ele>132.60000000000002</ele><time>2026-04-26T09:26:15.001Z</time></trkpt><trkpt lat="45.20140064724451" lon="8.298603236838296"><ele>132.8</ele><time>2026-04-26T09:26:16.001Z</time></trkpt><trkpt lat="45.2015192541074" lon="8.298653322930456"><ele>133.0</ele><time>2026-04-26T09:26:17.001Z</time></trkpt><trkpt lat="45.20165480030196" lon="8.298699771944637"><ele>133.0</ele><time>2026-04-26T09:26:18.001Z</time></trkpt><trkpt lat="45.2018018528555" lon="8.29874718582854"><ele>133.0</ele><time>2026-04-26T09:26:19.001Z</time></trkpt><trkpt lat="45.201946624368695" lon="8.29879710311654"><ele>133.0</ele><time>2026-04-26T09:26:20.001Z</time></trkpt><trkpt lat="45.202093879562" lon="8.298846555219566"><ele>133.0</ele><time>2026-04-26T09:26:21.001Z</time></trkpt><trkpt lat="45.20224405474022" lon="8.29890710329811"><ele>133.0</ele><time>2026-04-26T09:26:22.001Z</time></trkpt><trkpt lat="45.202402105931874" lon="8.298955330986717"><ele>133.0</ele><time>2026-04-26T09:26:23.001Z</time></trkpt><trkpt lat="45.20256482192132" lon="8.299004413483194"><ele>132.33333333333334</ele><time>2026-04-26T09:26:24.001Z</time></trkpt><trkpt lat="45.20271627537484" lon="8.299049280694504"><ele>131.66666666666666</ele><time>2026-04-26T09:26:25.001Z</time></trkpt><trkpt lat="45.2028725644861" lon="8.299104063194715"><ele>131.0</ele><time>2026-04-26T09:26:26.001Z</time></trkpt><trkpt lat="45.20303047083409" lon="8.29918145081924"><ele>131.33333333333331</ele><time>2026-04-26T09:26:27.001Z</time></trkpt><trkpt lat="45.203183422635476" lon="8.299281782798259"><ele>131.66666666666666</ele><time>2026-04-26T09:26:28.001Z</time></trkpt><trkpt lat="45.20333745020167" lon="8.299410652245593"><ele>132.0</ele><time>2026-04-26T09:26:29.001Z</time></trkpt><trkpt lat="45.203493394513515" lon="8.299552157200772"><ele>132.0</ele><time>2026-04-26T09:26:30.001Z</time></trkpt><trkpt lat="45.20364926772382" lon="8.299697440197178"><ele>132.0</ele><time>2026-04-26T09:26:31.001Z</time></trkpt><trkpt lat="45.20380841728174" lon="8.299845995086908"><ele>132.0</ele><time>2026-04-26T09:26:32.001Z</time></trkpt><trkpt lat="45.20396919050241" lon="8.299997190045735"><ele>132.33333333333334</ele><time>2026-04-26T09:26:33.001Z</time></trkpt><trkpt lat="45.20412867040948" lon="8.300154644773633"><ele>132.66666666666669</ele><time>2026-04-26T09:26:34.001Z</time></trkpt><trkpt lat="45.20428570619626" lon="8.3003039727599"><ele>133.0</ele><time>2026-04-26T09:26:35.001Z</time></trkpt><trkpt lat="45.20444743364493" lon="8.300454844651197"><ele>133.0</ele><time>2026-04-26T09:26:36.001Z</time></trkpt><trkpt lat="45.204610621770975" lon="8.300606826453667"><ele>133.0</ele><time>2026-04-26T09:26:37.001Z</time></trkpt><trkpt lat="45.20477878772094" lon="8.300767240291083"><ele>133.0</ele><time>2026-04-26T09:26:38.001Z</time></trkpt><trkpt lat="45.204946391756756" lon="8.300938055617827"><ele>133.33333333333334</ele><time>2026-04-26T09:26:39.001Z</time></trkpt><trkpt lat="45.20511284735024" lon="8.301103610865383"><ele>133.66666666666666</ele><time>2026-04-26T09:26:40.001Z</time></trkpt><trkpt lat="45.20528605410591" lon="8.301274861953509"><ele>134.0</ele><time>2026-04-26T09:26:41.001Z</time></trkpt><trkpt lat="45.20546216819949" lon="8.301435933690634"><ele>134.0</ele><time>2026-04-26T09:26:42.001Z</time></trkpt><trkpt lat="45.20563770883394" lon="8.301597110457225"><ele>134.0</ele><time>2026-04-26T09:26:43.001Z</time></trkpt><trkpt lat="45.205810184056034" lon="8.301761108498551"><ele>134.0</ele><time>2026-04-26T09:26:44.001Z</time></trkpt><trkpt lat="45.20598364547942" lon="8.301926864644647"><ele>134.33333333333331</ele><time>2026-04-26T09:26:45.001Z</time></trkpt><trkpt lat="45.20615625252968" lon="8.302090244939615"><ele>134.66666666666666</ele><time>2026-04-26T09:26:46.001Z</time></trkpt><trkpt lat="45.20632939143804" lon="8.302255553734337"><ele>135.0</ele><time>2026-04-26T09:26:47.001Z</time></trkpt><trkpt lat="45.20650240327106" lon="8.302421182579753"><ele>136.66666666666666</ele><time>2026-04-26T09:26:48.001Z</time></trkpt><trkpt lat="45.206674857763474" lon="8.30258177015331"><ele>138.33333333333331</ele><time>2026-04-26T09:26:49.001Z</time></trkpt><trkpt lat="45.20683838855811" lon="8.302739647128751"><ele>140.0</ele><time>2026-04-26T09:26:50.001Z</time></trkpt><trkpt lat="45.20699274279154" lon="8.302885001867926"><ele>140.0</ele><time>2026-04-26T09:26:51.001Z</time></trkpt><trkpt lat="45.20714020383121" lon="8.303018904610147"><ele>140.0</ele><time>2026-04-26T09:26:52.001Z</time></trkpt><trkpt lat="45.20728325149282" lon="8.30314183004291"><ele>140.0</ele><time>2026-04-26T09:26:53.001Z</time></trkpt><trkpt lat="45.20741245662594" lon="8.303253963984616"><ele>140.0</ele><time>2026-04-26T09:26:54.001Z</time></trkpt><trkpt lat="45.20753172247572" lon="8.303364966922906"><ele>140.0</ele><time>2026-04-26T09:26:55.001Z</time></trkpt><trkpt lat="45.20761852309007" lon="8.303477777734638"><ele>140.0</ele><time>2026-04-26T09:26:56.001Z</time></trkpt><trkpt lat="45.20768425762035" lon="8.303592589472542"><ele>140.0</ele><time>2026-04-26T09:26:57.001Z</time></trkpt><trkpt lat="45.20768551517096" lon="8.303749884975916"><ele>140.0</ele><time>2026-04-26T09:26:58.001Z</time></trkpt><trkpt lat="45.207696286529846" lon="8.30389163585392"><ele>140.0</ele><time>2026-04-26T09:26:59.001Z</time></trkpt><trkpt lat="45.20773806060185" lon="8.304025525640787"><ele>140.0</ele><time>2026-04-26T09:27:00.001Z</time></trkpt><trkpt lat="45.20781786623905" lon="8.304113173736395"><ele>140.0</ele><time>2026-04-26T09:27:01.001Z</time></trkpt><trkpt lat="45.20791707365672" lon="8.304140511009962"><ele>140.0</ele><time>2026-04-26T09:27:02.001Z</time></trkpt><trkpt lat="45.2080342528861" lon="8.30410092093439"><ele>140.0</ele><time>2026-04-26T09:27:03.001Z</time></trkpt><trkpt lat="45.20816899684092" lon="8.304034153929253"><ele>140.0</ele><time>2026-04-26T09:27:04Z</time></trkpt><trkpt lat="45.20832635262855" lon="8.304017628197132"><ele>140.0</ele><time>2026-04-26T09:27:05Z</time></trkpt><trkpt lat="45.2084949299592" lon="8.30406030790351"><ele>140.0</ele><time>2026-04-26T09:27:06Z</time></trkpt><trkpt lat="45.208675103943605" lon="8.30411355867489"><ele>140.0</ele><time>2026-04-26T09:27:07Z</time></trkpt><trkpt lat="45.20887380091924" lon="8.304155395391465"><ele>140.0</ele><time>2026-04-26T09:27:08Z</time></trkpt><trkpt lat="45.209080404465354" lon="8.304194671186709"><ele>140.33333333333331</ele><time>2026-04-26T09:27:09Z</time></trkpt><trkpt lat="45.20928679696633" lon="8.304232178436875"><ele>140.66666666666666</ele><time>2026-04-26T09:27:10Z</time></trkpt><trkpt lat="45.20950175878531" lon="8.304290125064082"><ele>141.0</ele><time>2026-04-26T09:27:11Z</time></trkpt><trkpt lat="45.20971639583939" lon="8.304365837981292"><ele>140.5</ele><time>2026-04-26T09:27:12Z</time></trkpt><trkpt lat="45.20993376122412" lon="8.304464008254055"><ele>140.0</ele><time>2026-04-26T09:27:13Z</time></trkpt><trkpt lat="45.21014772608385" lon="8.304564755738763"><ele>140.0</ele><time>2026-04-26T09:27:14Z</time></trkpt><trkpt lat="45.21035840333674" lon="8.30466101491277"><ele>140.0</ele><time>2026-04-26T09:27:15Z</time></trkpt><trkpt lat="45.21057466724099" lon="8.304758898453139"><ele>140.0</ele><time>2026-04-26T09:27:16Z</time></trkpt><trkpt lat="45.210794237601654" lon="8.304855547753787"><ele>141.5</ele><time>2026-04-26T09:27:17Z</time></trkpt><trkpt lat="45.211014097509754" lon="8.304960985736738"><ele>143.0</ele><time>2026-04-26T09:27:18Z</time></trkpt><trkpt lat="45.21123950154899" lon="8.305062163389403"><ele>143.0</ele><time>2026-04-26T09:27:19Z</time></trkpt><trkpt lat="45.211466184013034" lon="8.30516542413246"><ele>143.0</ele><time>2026-04-26T09:27:20Z</time></trkpt><trkpt lat="45.21169232221219" lon="8.305270511542716"><ele>142.0</ele><time>2026-04-26T09:27:21Z</time></trkpt><trkpt lat="45.21192353002562" lon="8.30537633528205"><ele>141.0</ele><time>2026-04-26T09:27:22Z</time></trkpt><trkpt lat="45.212148739715346" lon="8.305479212460375"><ele>141.5</ele><time>2026-04-26T09:27:23Z</time></trkpt><trkpt lat="45.212368510775185" lon="8.305580729341896"><ele>142.0</ele><time>2026-04-26T09:27:24Z</time></trkpt><trkpt lat="45.21259291121578" lon="8.305683223671982"><ele>142.0</ele><time>2026-04-26T09:27:25Z</time></trkpt><trkpt lat="45.21281969820148" lon="8.305788430127565"><ele>142.0</ele><time>2026-04-26T09:27:26Z</time></trkpt><trkpt lat="45.21304915874368" lon="8.305894773177323"><ele>141.5</ele><time>2026-04-26T09:27:27Z</time></trkpt><trkpt lat="45.21328229230845" lon="8.30600118123425"><ele>141.0</ele><time>2026-04-26T09:27:28Z</time></trkpt><trkpt lat="45.213515949165725" lon="8.306109289226859"><ele>141.0</ele><time>2026-04-26T09:27:29Z</time></trkpt><trkpt lat="45.21375188725292" lon="8.306221648801747"><ele>141.0</ele><time>2026-04-26T09:27:30Z</time></trkpt><trkpt lat="45.21398779453284" lon="8.306331956808828"><ele>141.0</ele><time>2026-04-26T09:27:31Z</time></trkpt><trkpt lat="45.21422434682023" lon="8.30644395061581"><ele>141.0</ele><time>2026-04-26T09:27:32Z</time></trkpt><trkpt lat="45.2144627804618" lon="8.30655224309627"><ele>141.0</ele><time>2026-04-26T09:27:33Z</time></trkpt><trkpt lat="45.21470377703328" lon="8.306660090357356"><ele>141.0</ele><time>2026-04-26T09:27:34Z</time></trkpt><trkpt lat="45.21494410143629" lon="8.306770951473279"><ele>142.0</ele><time>2026-04-26T09:27:35Z</time></trkpt><trkpt lat="45.2151864289123" lon="8.306888826912097"><ele>143.0</ele><time>2026-04-26T09:27:36Z</time></trkpt><trkpt lat="45.21542780849594" lon="8.307003589812004"><ele>142.5</ele><time>2026-04-26T09:27:37Z</time></trkpt><trkpt lat="45.21566859581205" lon="8.30711498393614"><ele>142.0</ele><time>2026-04-26T09:27:38Z</time></trkpt><trkpt lat="45.21590858325416" lon="8.307226212814196"><ele>141.5</ele><time>2026-04-26T09:27:39Z</time></trkpt><trkpt lat="45.21614845740741" lon="8.307337179117198"><ele>141.0</ele><time>2026-04-26T09:27:40Z</time></trkpt><trkpt lat="45.21638884652293" lon="8.307447878068995"><ele>141.0</ele><time>2026-04-26T09:27:41Z</time></trkpt><trkpt lat="45.21662930134148" lon="8.307557452290943"><ele>141.0</ele><time>2026-04-26T09:27:42Z</time></trkpt><trkpt lat="45.216868563516314" lon="8.30766715256802"><ele>141.0</ele><time>2026-04-26T09:27:43Z</time></trkpt><trkpt lat="45.21711057550363" lon="8.307777571533947"><ele>141.0</ele><time>2026-04-26T09:27:44Z</time></trkpt><trkpt lat="45.217351975341934" lon="8.307888435041352"><ele>141.0</ele><time>2026-04-26T09:27:45Z</time></trkpt><trkpt lat="45.217592625080506" lon="8.307999968658907"><ele>141.0</ele><time>2026-04-26T09:27:46Z</time></trkpt><trkpt lat="45.21783449365365" lon="8.308114835112452"><ele>140.5</ele><time>2026-04-26T09:27:47Z</time></trkpt><trkpt lat="45.218077183843775" lon="8.30822647838706"><ele>140.0</ele><time>2026-04-26T09:27:48Z</time></trkpt><trkpt lat="45.21831986437319" lon="8.308338796108318"><ele>140.0</ele><time>2026-04-26T09:27:49Z</time></trkpt><trkpt lat="45.218567839788626" lon="8.30845187755014"><ele>140.0</ele><time>2026-04-26T09:27:50Z</time></trkpt><trkpt lat="45.218810882481286" lon="8.30856830060742"><ele>140.5</ele><time>2026-04-26T09:27:51Z</time></trkpt><trkpt lat="45.21905551354402" lon="8.308680994481799"><ele>141.0</ele><time>2026-04-26T09:27:52Z</time></trkpt><trkpt lat="45.21929864063487" lon="8.308793331021706"><ele>141.0</ele><time>2026-04-26T09:27:53Z</time></trkpt><trkpt lat="45.21954277672046" lon="8.308905085309263"><ele>141.0</ele><time>2026-04-26T09:27:54Z</time></trkpt><trkpt lat="45.21978807242004" lon="8.309017313500663"><ele>140.0</ele><time>2026-04-26T09:27:55Z</time></trkpt><trkpt lat="45.2200337306466" lon="8.309130487349766"><ele>139.0</ele><time>2026-04-26T09:27:56Z</time></trkpt><trkpt lat="45.22027942794345" lon="8.30924582172556"><ele>139.0</ele><time>2026-04-26T09:27:57Z</time></trkpt><trkpt lat="45.220529558865486" lon="8.309361493478258"><ele>139.0</ele><time>2026-04-26T09:27:58Z</time></trkpt><trkpt lat="45.22077048688146" lon="8.309490942340371"><ele>139.0</ele><time>2026-04-26T09:27:59Z</time></trkpt><trkpt lat="45.22100761171833" lon="8.3096304029444"><ele>139.0</ele><time>2026-04-26T09:28:00Z</time></trkpt><trkpt lat="45.221249461208146" lon="8.309777839485964"><ele>138.0</ele><time>2026-04-26T09:28:01Z</time></trkpt><trkpt lat="45.22148541552143" lon="8.309942891163553"><ele>137.0</ele><time>2026-04-26T09:28:02Z</time></trkpt><trkpt lat="45.22171764152723" lon="8.310115534005131"><ele>137.0</ele><time>2026-04-26T09:28:03Z</time></trkpt><trkpt lat="45.22194477458198" lon="8.310302816036867"><ele>137.0</ele><time>2026-04-26T09:28:04Z</time></trkpt><trkpt lat="45.222166651054984" lon="8.31050548431177"><ele>137.0</ele><time>2026-04-26T09:28:05.001Z</time></trkpt><trkpt lat="45.22238479997664" lon="8.310718139080613"><ele>137.0</ele><time>2026-04-26T09:28:06.001Z</time></trkpt><trkpt lat="45.2225987959798" lon="8.310942213121903"><ele>137.0</ele><time>2026-04-26T09:28:07.001Z</time></trkpt><trkpt lat="45.22280766332738" lon="8.31117124509824"><ele>137.0</ele><time>2026-04-26T09:28:08.001Z</time></trkpt><trkpt lat="45.22301269462401" lon="8.31140657351896"><ele>137.5</ele><time>2026-04-26T09:28:09.001Z</time></trkpt><trkpt lat="45.2232110887605" lon="8.31164861001045"><ele>138.0</ele><time>2026-04-26T09:28:10.001Z</time></trkpt><trkpt lat="45.223407887519784" lon="8.31189750936516"><ele>138.0</ele><time>2026-04-26T09:28:11.001Z</time></trkpt><trkpt lat="45.22360378280656" lon="8.31214348870949"><ele>138.0</ele><time>2026-04-26T09:28:12.001Z</time></trkpt><trkpt lat="45.22379848520787" lon="8.312378345803095"><ele>138.0</ele><time>2026-04-26T09:28:13.001Z</time></trkpt><trkpt lat="45.22398819600919" lon="8.312614007626884"><ele>138.0</ele><time>2026-04-26T09:28:14.001Z</time></trkpt><trkpt lat="45.22416990264398" lon="8.312841699966357"><ele>138.0</ele><time>2026-04-26T09:28:15.001Z</time></trkpt><trkpt lat="45.22434329037577" lon="8.313061599460973"><ele>138.0</ele><time>2026-04-26T09:28:16.001Z</time></trkpt><trkpt lat="45.22450470839932" lon="8.313270857682154"><ele>138.0</ele><time>2026-04-26T09:28:17.001Z</time></trkpt><trkpt lat="45.2246559459861" lon="8.313477491934663"><ele>138.0</ele><time>2026-04-26T09:28:18.001Z</time></trkpt><trkpt lat="45.22480226305606" lon="8.313672844989467"><ele>138.0</ele><time>2026-04-26T09:28:19.001Z</time></trkpt><trkpt lat="45.22494157554753" lon="8.313861857356516"><ele>138.33333333333334</ele><time>2026-04-26T09:28:20.001Z</time></trkpt><trkpt lat="45.22507558867448" lon="8.3140513147117"><ele>138.66666666666669</ele><time>2026-04-26T09:28:21.001Z</time></trkpt><trkpt lat="45.225196481538596" lon="8.314236347085624"><ele>139.0</ele><time>2026-04-26T09:28:22.001Z</time></trkpt><trkpt lat="45.22530534523615" lon="8.314411961971897"><ele>139.0</ele><time>2026-04-26T09:28:23.001Z</time></trkpt><trkpt lat="45.225406796896344" lon="8.314577280861391"><ele>139.0</ele><time>2026-04-26T09:28:24.001Z</time></trkpt><trkpt lat="45.22549151084186" lon="8.314728645181837"><ele>139.0</ele><time>2026-04-26T09:28:25.001Z</time></trkpt><trkpt lat="45.22556226153805" lon="8.31485557065561"><ele>139.0</ele><time>2026-04-26T09:28:26.001Z</time></trkpt><trkpt lat="45.22562449987296" lon="8.314937883132727"><ele>139.2</ele><time>2026-04-26T09:28:27.001Z</time></trkpt><trkpt lat="45.22570548263514" lon="8.314993358316965"><ele>139.4</ele><time>2026-04-26T09:28:28.001Z</time></trkpt><trkpt lat="45.22580255489371" lon="8.315008381847607"><ele>139.6</ele><time>2026-04-26T09:28:29.001Z</time></trkpt><trkpt lat="45.22591387445411" lon="8.31503972337614"><ele>139.8</ele><time>2026-04-26T09:28:30.001Z</time></trkpt><trkpt lat="45.226033571368546" lon="8.315124383643498"><ele>140.0</ele><time>2026-04-26T09:28:31.001Z</time></trkpt><trkpt lat="45.226161676164295" lon="8.315248142036836"><ele>140.0</ele><time>2026-04-26T09:28:32.001Z</time></trkpt><trkpt lat="45.22628762422591" lon="8.315388454898898"><ele>140.0</ele><time>2026-04-26T09:28:33.001Z</time></trkpt><trkpt lat="45.226415167728895" lon="8.315547892795456"><ele>140.0</ele><time>2026-04-26T09:28:34.001Z</time></trkpt><trkpt lat="45.22654918523207" lon="8.315720123712738"><ele>139.66666666666666</ele><time>2026-04-26T09:28:35.001Z</time></trkpt><trkpt lat="45.226694955558294" lon="8.315897553197155"><ele>139.33333333333334</ele><time>2026-04-26T09:28:36.001Z</time></trkpt><trkpt lat="45.22684314172083" lon="8.316077303943787"><ele>139.0</ele><time>2026-04-26T09:28:37.001Z</time></trkpt><trkpt lat="45.22698752581558" lon="8.316260600997692"><ele>139.0</ele><time>2026-04-26T09:28:38.001Z</time></trkpt><trkpt lat="45.22713493849582" lon="8.31645578893618"><ele>139.0</ele><time>2026-04-26T09:28:39.001Z</time></trkpt><trkpt lat="45.22729121006195" lon="8.316652285943094"><ele>139.0</ele><time>2026-04-26T09:28:40.001Z</time></trkpt><trkpt lat="45.22745317843992" lon="8.316851506518038"><ele>139.0</ele><time>2026-04-26T09:28:41.001Z</time></trkpt><trkpt lat="45.227617746731376" lon="8.317052825345831"><ele>139.0</ele><time>2026-04-26T09:28:42.001Z</time></trkpt><trkpt lat="45.22778159287394" lon="8.317258624425888"><ele>139.0</ele><time>2026-04-26T09:28:43.001Z</time></trkpt><trkpt lat="45.22794836551591" lon="8.31746855527647"><ele>139.0</ele><time>2026-04-26T09:28:44.001Z</time></trkpt><trkpt lat="45.228116814151655" lon="8.31768163112487"><ele>139.0</ele><time>2026-04-26T09:28:45.001Z</time></trkpt><trkpt lat="45.228286503971674" lon="8.317897351827005"><ele>139.0</ele><time>2026-04-26T09:28:46.001Z</time></trkpt><trkpt lat="45.22845948457005" lon="8.318115579467323"><ele>139.0</ele><time>2026-04-26T09:28:47.001Z</time></trkpt><trkpt lat="45.22863244457629" lon="8.31833073839617"><ele>139.0</ele><time>2026-04-26T09:28:48.001Z</time></trkpt><trkpt lat="45.22880152443312" lon="8.318537868030193"><ele>139.0</ele><time>2026-04-26T09:28:49.001Z</time></trkpt><trkpt lat="45.228964043233695" lon="8.31873538427797"><ele>139.0</ele><time>2026-04-26T09:28:50.001Z</time></trkpt><trkpt lat="45.229115976125534" lon="8.31892002089859"><ele>139.33333333333334</ele><time>2026-04-26T09:28:51.001Z</time></trkpt><trkpt lat="45.22925780411851" lon="8.319097273925093"><ele>139.66666666666666</ele><time>2026-04-26T09:28:52.001Z</time></trkpt><trkpt lat="45.229402035363876" lon="8.319276101345595"><ele>140.0</ele><time>2026-04-26T09:28:53.001Z</time></trkpt><trkpt lat="45.22954722520748" lon="8.319456689823063"><ele>140.0</ele><time>2026-04-26T09:28:54.001Z</time></trkpt><trkpt lat="45.229691586361525" lon="8.319635881962451"><ele>140.0</ele><time>2026-04-26T09:28:55.001Z</time></trkpt><trkpt lat="45.2298316637491" lon="8.319814254650119"><ele>140.0</ele><time>2026-04-26T09:28:56.001Z</time></trkpt><trkpt lat="45.229968632606656" lon="8.319982299661879"><ele>140.0</ele><time>2026-04-26T09:28:57.001Z</time></trkpt><trkpt lat="45.2301023840847" lon="8.32014693317747"><ele>140.0</ele><time>2026-04-26T09:28:58.001Z</time></trkpt><trkpt lat="45.230233360538634" lon="8.32031131586624"><ele>140.0</ele><time>2026-04-26T09:28:59.001Z</time></trkpt><trkpt lat="45.230364178943056" lon="8.320469507327518"><ele>140.0</ele><time>2026-04-26T09:29:00.001Z</time></trkpt><trkpt lat="45.230479143974925" lon="8.320611805994641"><ele>140.0</ele><time>2026-04-26T09:29:01.001Z</time></trkpt><trkpt lat="45.23056719477587" lon="8.320718500487748"><ele>140.0</ele><time>2026-04-26T09:29:02.001Z</time></trkpt><trkpt lat="45.23065438722289" lon="8.320816918985173"><ele>140.0</ele><time>2026-04-26T09:29:03.001Z</time></trkpt><trkpt lat="45.23073115351342" lon="8.32091257721815"><ele>140.0</ele><time>2026-04-26T09:29:04.001Z</time></trkpt><trkpt lat="45.23080172513422" lon="8.320993304087756"><ele>140.0</ele><time>2026-04-26T09:29:05.001Z</time></trkpt><trkpt lat="45.23086745743192" lon="8.32107262223602"><ele>140.0</ele><time>2026-04-26T09:29:06.001Z</time></trkpt><trkpt lat="45.23093832610238" lon="8.321160913751296"><ele>140.0</ele><time>2026-04-26T09:29:07.001Z</time></trkpt><trkpt lat="45.23101236179083" lon="8.321250348034033"><ele>140.0</ele><time>2026-04-26T09:29:08.001Z</time></trkpt><trkpt lat="45.23108427807143" lon="8.321345933664194"><ele>140.2</ele><time>2026-04-26T09:29:09.001Z</time></trkpt><trkpt lat="45.23115565704752" lon="8.321440466234224"><ele>140.4</ele><time>2026-04-26T09:29:10Z</time></trkpt><trkpt lat="45.231233083744435" lon="8.321532072439856"><ele>140.6</ele><time>2026-04-26T09:29:11Z</time></trkpt><trkpt lat="45.23130630553008" lon="8.321630374475067"><ele>140.8</ele><time>2026-04-26T09:29:12Z</time></trkpt><trkpt lat="45.231386916604414" lon="8.321720719240593"><ele>141.0</ele><time>2026-04-26T09:29:13Z</time></trkpt><trkpt lat="45.23146337143702" lon="8.321814720953094"><ele>140.8</ele><time>2026-04-26T09:29:14Z</time></trkpt><trkpt lat="45.231537942684575" lon="8.3219044670073"><ele>140.6</ele><time>2026-04-26T09:29:15Z</time></trkpt><trkpt lat="45.231611488741" lon="8.321993285099964"><ele>140.4</ele><time>2026-04-26T09:29:16Z</time></trkpt><trkpt lat="45.23167833192402" lon="8.322095183265716"><ele>140.2</ele><time>2026-04-26T09:29:17Z</time></trkpt><trkpt lat="45.231758850071415" lon="8.322195123333659"><ele>140.0</ele><time>2026-04-26T09:29:18Z</time></trkpt><trkpt lat="45.23184034582898" lon="8.322295939966413"><ele>140.5</ele><time>2026-04-26T09:29:19Z</time></trkpt><trkpt lat="45.231923969234344" lon="8.32239938866585"><ele>141.0</ele><time>2026-04-26T09:29:20Z</time></trkpt><trkpt lat="45.23201933234349" lon="8.322517360295503"><ele>141.5</ele><time>2026-04-26T09:29:21Z</time></trkpt><trkpt lat="45.23211976042875" lon="8.3226423324726"><ele>142.0</ele><time>2026-04-26T09:29:22Z</time></trkpt><trkpt lat="45.2322255877792" lon="8.322774031993287"><ele>141.5</ele><time>2026-04-26T09:29:23Z</time></trkpt><trkpt lat="45.23233605479724" lon="8.322911505464306"><ele>141.0</ele><time>2026-04-26T09:29:24Z</time></trkpt><trkpt lat="45.232455746850576" lon="8.323034651442393"><ele>140.5</ele><time>2026-04-26T09:29:25Z</time></trkpt><trkpt lat="45.23256517757202" lon="8.323175960317123"><ele>140.0</ele><time>2026-04-26T09:29:26Z</time></trkpt><trkpt lat="45.23267429570681" lon="8.32332572751595"><ele>140.0</ele><time>2026-04-26T09:29:27Z</time></trkpt><trkpt lat="45.232780538322615" lon="8.323463532923501"><ele>140.0</ele><time>2026-04-26T09:29:28Z</time></trkpt><trkpt lat="45.2328877145867" lon="8.323572141714425"><ele>140.0</ele><time>2026-04-26T09:29:29Z</time></trkpt><trkpt lat="45.232982158636695" lon="8.323715565704989"><ele>140.0</ele><time>2026-04-26T09:29:30Z</time></trkpt><trkpt lat="45.233079970193984" lon="8.323837289765969"><ele>140.0</ele><time>2026-04-26T09:29:31Z</time></trkpt><trkpt lat="45.23317980644468" lon="8.323941387020925"><ele>140.0</ele><time>2026-04-26T09:29:32Z</time></trkpt><trkpt lat="45.23327132995536" lon="8.32406119536799"><ele>140.0</ele><time>2026-04-26T09:29:33Z</time></trkpt><trkpt lat="45.23335649444997" lon="8.324175344209351"><ele>140.0</ele><time>2026-04-26T09:29:34Z</time></trkpt><trkpt lat="45.233441759330866" lon="8.324286217189446"><ele>140.0</ele><time>2026-04-26T09:29:35Z</time></trkpt><trkpt lat="45.23352996112708" lon="8.324396038688528"><ele>140.0</ele><time>2026-04-26T09:29:36Z</time></trkpt><trkpt lat="45.23362045901138" lon="8.324514704966154"><ele>140.0</ele><time>2026-04-26T09:29:37Z</time></trkpt><trkpt lat="45.23371777716219" lon="8.32463187508251"><ele>140.0</ele><time>2026-04-26T09:29:38Z</time></trkpt><trkpt lat="45.23381888898277" lon="8.324751683359539"><ele>140.25</ele><time>2026-04-26T09:29:39Z</time></trkpt><trkpt lat="45.23391852114194" lon="8.324877493122393"><ele>140.5</ele><time>2026-04-26T09:29:40Z</time></trkpt><trkpt lat="45.234019946050026" lon="8.325007518637362"><ele>140.75</ele><time>2026-04-26T09:29:41Z</time></trkpt><trkpt lat="45.2341232763322" lon="8.325124153645529"><ele>141.0</ele><time>2026-04-26T09:29:42Z</time></trkpt><trkpt lat="45.234220671301" lon="8.325245489579679"><ele>141.25</ele><time>2026-04-26T09:29:43Z</time></trkpt><trkpt lat="45.23432068222643" lon="8.325363066136926"><ele>141.5</ele><time>2026-04-26T09:29:44Z</time></trkpt><trkpt lat="45.23440972023367" lon="8.325492089553897"><ele>141.75</ele><time>2026-04-26T09:29:45Z</time></trkpt><trkpt lat="45.23449255971151" lon="8.325625670125293"><ele>142.0</ele><time>2026-04-26T09:29:46Z</time></trkpt><trkpt lat="45.23459426367903" lon="8.325724401080391"><ele>141.6</ele><time>2026-04-26T09:29:47Z</time></trkpt><trkpt lat="45.234670580961655" lon="8.325852023328466"><ele>141.2</ele><time>2026-04-26T09:29:48Z</time></trkpt><trkpt lat="45.23475006717503" lon="8.325953806975503"><ele>140.8</ele><time>2026-04-26T09:29:49Z</time></trkpt><trkpt lat="45.234818712388545" lon="8.326043239984577"><ele>140.4</ele><time>2026-04-26T09:29:50Z</time></trkpt><trkpt lat="45.23489232299146" lon="8.326108545206454"><ele>140.0</ele><time>2026-04-26T09:29:51Z</time></trkpt><trkpt lat="45.23494935492731" lon="8.32618583557357"><ele>139.8</ele><time>2026-04-26T09:29:52Z</time></trkpt><trkpt lat="45.23500794553203" lon="8.326269885549797"><ele>139.6</ele><time>2026-04-26T09:29:53Z</time></trkpt><trkpt lat="45.23506764644578" lon="8.326361172860393"><ele>139.4</ele><time>2026-04-26T09:29:54Z</time></trkpt><trkpt lat="45.23513293484527" lon="8.326469530696965"><ele>139.2</ele><time>2026-04-26T09:29:55Z</time></trkpt><trkpt lat="45.235206437084884" lon="8.326591877309104"><ele>139.0</ele><time>2026-04-26T09:29:56Z</time></trkpt><trkpt lat="45.23528979885543" lon="8.326715831059168"><ele>138.75</ele><time>2026-04-26T09:29:57Z</time></trkpt><trkpt lat="45.23538342283157" lon="8.326849410520586"><ele>138.5</ele><time>2026-04-26T09:29:58Z</time></trkpt><trkpt lat="45.235482488356915" lon="8.326989109704854"><ele>138.25</ele><time>2026-04-26T09:29:59Z</time></trkpt><trkpt lat="45.235579009038354" lon="8.327130761535399"><ele>138.0</ele><time>2026-04-26T09:30:00Z</time></trkpt><trkpt lat="45.23567571552239" lon="8.327267217828817"><ele>137.8</ele><time>2026-04-26T09:30:01Z</time></trkpt><trkpt lat="45.2357634333847" lon="8.32739052658722"><ele>137.60000000000002</ele><time>2026-04-26T09:30:02Z</time></trkpt><trkpt lat="45.23584205544061" lon="8.327499304786578"><ele>137.39999999999998</ele><time>2026-04-26T09:30:03.001Z</time></trkpt><trkpt lat="45.23591235352525" lon="8.3276014521606"><ele>137.2</ele><time>2026-04-26T09:30:04.001Z</time></trkpt><trkpt lat="45.23597659776999" lon="8.327692671729048"><ele>137.0</ele><time>2026-04-26T09:30:05.001Z</time></trkpt><trkpt lat="45.23603577751566" lon="8.327768505519455"><ele>137.0</ele><time>2026-04-26T09:30:06.001Z</time></trkpt><trkpt lat="45.23608989338369" lon="8.327833852691132"><ele>137.0</ele><time>2026-04-26T09:30:07.001Z</time></trkpt><trkpt lat="45.2361498897585" lon="8.3278666587676"><ele>137.0</ele><time>2026-04-26T09:30:08.001Z</time></trkpt><trkpt lat="45.236277186684035" lon="8.327826550687833"><ele>137.0</ele><time>2026-04-26T09:30:10.001Z</time></trkpt><trkpt lat="45.236329274155125" lon="8.327709990251684"><ele>137.0</ele><time>2026-04-26T09:30:11.001Z</time></trkpt><trkpt lat="45.2363891524077" lon="8.327576177932922"><ele>136.75</ele><time>2026-04-26T09:30:12.001Z</time></trkpt><trkpt lat="45.2364854105389" lon="8.32746493370979"><ele>136.5</ele><time>2026-04-26T09:30:13.001Z</time></trkpt><trkpt lat="45.2365996432593" lon="8.327332636547322"><ele>136.25</ele><time>2026-04-26T09:30:14.001Z</time></trkpt><trkpt lat="45.23671325850075" lon="8.327179131651045"><ele>136.0</ele><time>2026-04-26T09:30:15.001Z</time></trkpt><trkpt lat="45.23684542805022" lon="8.327044940515814"><ele>136.0</ele><time>2026-04-26T09:30:16.001Z</time></trkpt><trkpt lat="45.23697738986979" lon="8.326910855271736"><ele>136.0</ele><time>2026-04-26T09:30:17.001Z</time></trkpt><trkpt lat="45.23710722936903" lon="8.326779070058231"><ele>136.0</ele><time>2026-04-26T09:30:18.001Z</time></trkpt><trkpt lat="45.237227994591684" lon="8.326656433867841"><ele>135.25</ele><time>2026-04-26T09:30:19.001Z</time></trkpt><trkpt lat="45.237341248075424" lon="8.326531237535486"><ele>134.5</ele><time>2026-04-26T09:30:20.001Z</time></trkpt><trkpt lat="45.23744468984738" lon="8.326403159654753"><ele>133.75</ele><time>2026-04-26T09:30:21.001Z</time></trkpt><trkpt lat="45.23753887480305" lon="8.326265363807607"><ele>133.0</ele><time>2026-04-26T09:30:22.001Z</time></trkpt><trkpt lat="45.237624270933736" lon="8.326114410348922"><ele>133.0</ele><time>2026-04-26T09:30:23.001Z</time></trkpt><trkpt lat="45.23770076070952" lon="8.325960318803745"><ele>133.0</ele><time>2026-04-26T09:30:24.001Z</time></trkpt><trkpt lat="45.23776626512114" lon="8.325793834632425"><ele>133.0</ele><time>2026-04-26T09:30:25.001Z</time></trkpt><trkpt lat="45.237828974271295" lon="8.325617974882595"><ele>133.0</ele><time>2026-04-26T09:30:26.001Z</time></trkpt><trkpt lat="45.237884373793726" lon="8.325441579667539"><ele>133.25</ele><time>2026-04-26T09:30:27.001Z</time></trkpt><trkpt lat="45.23793862433918" lon="8.32526368557785"><ele>133.5</ele><time>2026-04-26T09:30:28.001Z</time></trkpt><trkpt lat="45.2379833267477" lon="8.325093900784314"><ele>133.75</ele><time>2026-04-26T09:30:29.001Z</time></trkpt><trkpt lat="45.2380248987923" lon="8.324919101516338"><ele>134.0</ele><time>2026-04-26T09:30:30.001Z</time></trkpt><trkpt lat="45.23805680031571" lon="8.324747988756984"><ele>134.25</ele><time>2026-04-26T09:30:31.001Z</time></trkpt><trkpt lat="45.23808850188699" lon="8.324572276587846"><ele>134.5</ele><time>2026-04-26T09:30:32.001Z</time></trkpt><trkpt lat="45.2381253797714" lon="8.324392581983789"><ele>134.75</ele><time>2026-04-26T09:30:33.001Z</time></trkpt><trkpt lat="45.238191108606564" lon="8.324212859481074"><ele>135.0</ele><time>2026-04-26T09:30:34.001Z</time></trkpt><trkpt lat="45.2382343590411" lon="8.324013578376313"><ele>135.33333333333334</ele><time>2026-04-26T09:30:35.001Z</time></trkpt><trkpt lat="45.23828381863738" lon="8.323788311323057"><ele>135.66666666666669</ele><time>2026-04-26T09:30:36.001Z</time></trkpt><trkpt lat="45.23833707615748" lon="8.323548574249747"><ele>136.0</ele><time>2026-04-26T09:30:37.001Z</time></trkpt><trkpt lat="45.23838923124033" lon="8.323314477190365"><ele>135.66666666666669</ele><time>2026-04-26T09:30:38.001Z</time></trkpt><trkpt lat="45.238445398849166" lon="8.323062370004235"><ele>135.33333333333334</ele><time>2026-04-26T09:30:39.001Z</time></trkpt><trkpt lat="45.23850426415438" lon="8.322798154234286"><ele>135.0</ele><time>2026-04-26T09:30:40.001Z</time></trkpt><trkpt lat="45.23856627026079" lon="8.322519841015154"><ele>134.66666666666666</ele><time>2026-04-26T09:30:41.001Z</time></trkpt><trkpt lat="45.23861394284228" lon="8.322230471948332"><ele>134.33333333333331</ele><time>2026-04-26T09:30:42.001Z</time></trkpt><trkpt lat="45.23867606703634" lon="8.321960559930925"><ele>134.0</ele><time>2026-04-26T09:30:43.001Z</time></trkpt><trkpt lat="45.23873812111585" lon="8.321684070844723"><ele>134.0</ele><time>2026-04-26T09:30:44.001Z</time></trkpt><trkpt lat="45.23880147287278" lon="8.321399984849286"><ele>134.0</ele><time>2026-04-26T09:30:45.001Z</time></trkpt><trkpt lat="45.23886488762021" lon="8.32111217739382"><ele>134.0</ele><time>2026-04-26T09:30:46.001Z</time></trkpt><trkpt lat="45.23893098266212" lon="8.32082074726694"><ele>135.66666666666666</ele><time>2026-04-26T09:30:47.001Z</time></trkpt><trkpt lat="45.23899684768555" lon="8.320524440004986"><ele>137.33333333333334</ele><time>2026-04-26T09:30:48.001Z</time></trkpt><trkpt lat="45.239064362404385" lon="8.320225366452286"><ele>139.0</ele><time>2026-04-26T09:30:49.001Z</time></trkpt><trkpt lat="45.23913210208768" lon="8.319921545503448"><ele>137.5</ele><time>2026-04-26T09:30:50.001Z</time></trkpt><trkpt lat="45.23920166544508" lon="8.319615350805464"><ele>136.0</ele><time>2026-04-26T09:30:51.001Z</time></trkpt><trkpt lat="45.23927037506059" lon="8.319302091990304"><ele>136.0</ele><time>2026-04-26T09:30:52.001Z</time></trkpt><trkpt lat="45.23933953273878" lon="8.31898888844892"><ele>136.0</ele><time>2026-04-26T09:30:53.001Z</time></trkpt><trkpt lat="45.2394085859172" lon="8.318676418664552"><ele>137.5</ele><time>2026-04-26T09:30:54.001Z</time></trkpt><trkpt lat="45.239479425908456" lon="8.318358267137244"><ele>139.0</ele><time>2026-04-26T09:30:55.001Z</time></trkpt><trkpt lat="45.23954968809576" lon="8.318036136948972"><ele>139.0</ele><time>2026-04-26T09:30:56.001Z</time></trkpt><trkpt lat="45.23962180817696" lon="8.317712392637086"><ele>139.0</ele><time>2026-04-26T09:30:57.001Z</time></trkpt><trkpt lat="45.2396947785406" lon="8.317388148078987"><ele>138.5</ele><time>2026-04-26T09:30:58.001Z</time></trkpt><trkpt lat="45.23976667396225" lon="8.317062685392612"><ele>138.0</ele><time>2026-04-26T09:30:59.001Z</time></trkpt><trkpt lat="45.239835974560854" lon="8.316751632433334"><ele>138.0</ele><time>2026-04-26T09:31:00.001Z</time></trkpt><trkpt lat="45.23990640758194" lon="8.316432788007575"><ele>138.0</ele><time>2026-04-26T09:31:01.001Z</time></trkpt><trkpt lat="45.239977523658865" lon="8.316111187335734"><ele>138.5</ele><time>2026-04-26T09:31:02.001Z</time></trkpt><trkpt lat="45.24004821368167" lon="8.31578876561675"><ele>139.0</ele><time>2026-04-26T09:31:03.001Z</time></trkpt><trkpt lat="45.240120372725045" lon="8.315463285214785"><ele>139.5</ele><time>2026-04-26T09:31:04.001Z</time></trkpt><trkpt lat="45.24019328653421" lon="8.315136869894808"><ele>140.0</ele><time>2026-04-26T09:31:05.001Z</time></trkpt><trkpt lat="45.240264470140055" lon="8.314812136984596"><ele>140.0</ele><time>2026-04-26T09:31:06.001Z</time></trkpt><trkpt lat="45.240337515752145" lon="8.31448310202764"><ele>140.0</ele><time>2026-04-26T09:31:07.001Z</time></trkpt><trkpt lat="45.24040800895643" lon="8.314155980715105"><ele>140.0</ele><time>2026-04-26T09:31:08.001Z</time></trkpt><trkpt lat="45.2404807404692" lon="8.313831272317834"><ele>140.0</ele><time>2026-04-26T09:31:09.001Z</time></trkpt><trkpt lat="45.24055154059293" lon="8.313522554552419"><ele>140.0</ele><time>2026-04-26T09:31:10.001Z</time></trkpt><trkpt lat="45.24061987777161" lon="8.31320718863629"><ele>140.0</ele><time>2026-04-26T09:31:11.001Z</time></trkpt><trkpt lat="45.240688665128054" lon="8.312890976736536"><ele>140.0</ele><time>2026-04-26T09:31:12.001Z</time></trkpt><trkpt lat="45.240756770428874" lon="8.312570547147494"><ele>140.0</ele><time>2026-04-26T09:31:13.001Z</time></trkpt><trkpt lat="45.24082553071646" lon="8.312255540484355"><ele>140.0</ele><time>2026-04-26T09:31:14.001Z</time></trkpt><trkpt lat="45.24089622446984" lon="8.31193794076501"><ele>140.0</ele><time>2026-04-26T09:31:15.001Z</time></trkpt><trkpt lat="45.24096703869015" lon="8.311618657896705"><ele>140.0</ele><time>2026-04-26T09:31:16.001Z</time></trkpt><trkpt lat="45.2410380501064" lon="8.311298118832404"><ele>140.0</ele><time>2026-04-26T09:31:17.001Z</time></trkpt><trkpt lat="45.241108682855256" lon="8.310975252614355"><ele>140.0</ele><time>2026-04-26T09:31:18.001Z</time></trkpt><trkpt lat="45.24117875093175" lon="8.310653473976366"><ele>140.0</ele><time>2026-04-26T09:31:19.001Z</time></trkpt><trkpt lat="45.24124822221505" lon="8.310330613773843"><ele>139.5</ele><time>2026-04-26T09:31:20.001Z</time></trkpt><trkpt lat="45.24131781807435" lon="8.310008838722132"><ele>139.0</ele><time>2026-04-26T09:31:21.001Z</time></trkpt><trkpt lat="45.241387212948155" lon="8.309683652938505"><ele>139.0</ele><time>2026-04-26T09:31:22.001Z</time></trkpt><trkpt lat="45.24145616127469" lon="8.309360520940329"><ele>139.0</ele><time>2026-04-26T09:31:23.001Z</time></trkpt><trkpt lat="45.241529050997435" lon="8.309033717725784"><ele>139.5</ele><time>2026-04-26T09:31:24.001Z</time></trkpt><trkpt lat="45.24160371528296" lon="8.308705634755544"><ele>140.0</ele><time>2026-04-26T09:31:25.001Z</time></trkpt><trkpt lat="45.24167769551504" lon="8.30837838386724"><ele>140.0</ele><time>2026-04-26T09:31:26.001Z</time></trkpt><trkpt lat="45.24175269791759" lon="8.308044524208423"><ele>140.0</ele><time>2026-04-26T09:31:27.001Z</time></trkpt><trkpt lat="45.241824359622676" lon="8.307715219878942"><ele>140.0</ele><time>2026-04-26T09:31:28.001Z</time></trkpt><trkpt lat="45.241894976417996" lon="8.30738732626166"><ele>140.0</ele><time>2026-04-26T09:31:29.001Z</time></trkpt><trkpt lat="45.24196682251701" lon="8.30705099406368"><ele>139.5</ele><time>2026-04-26T09:31:30.001Z</time></trkpt><trkpt lat="45.24203861431025" lon="8.306716864952193"><ele>139.0</ele><time>2026-04-26T09:31:31.001Z</time></trkpt><trkpt lat="45.242127837725924" lon="8.306388798837538"><ele>140.0</ele><time>2026-04-26T09:31:32.001Z</time></trkpt><trkpt lat="45.24218672054874" lon="8.306044366525521"><ele>141.0</ele><time>2026-04-26T09:31:33.001Z</time></trkpt><trkpt lat="45.24226221418295" lon="8.305705825883745"><ele>141.5</ele><time>2026-04-26T09:31:34.001Z</time></trkpt><trkpt lat="45.24233799069793" lon="8.305371981331728"><ele>142.0</ele><time>2026-04-26T09:31:35.001Z</time></trkpt><trkpt lat="45.242417175014296" lon="8.305036163582969"><ele>142.0</ele><time>2026-04-26T09:31:36.001Z</time></trkpt><trkpt lat="45.24250023299101" lon="8.304702052632203"><ele>142.0</ele><time>2026-04-26T09:31:37Z</time></trkpt><trkpt lat="45.242590794422085" lon="8.304369190373466"><ele>142.0</ele><time>2026-04-26T09:31:38Z</time></trkpt><trkpt lat="45.24268812061845" lon="8.304040521267016"><ele>142.0</ele><time>2026-04-26T09:31:39Z</time></trkpt><trkpt lat="45.24278772562146" lon="8.303712327301836"><ele>141.5</ele><time>2026-04-26T09:31:40Z</time></trkpt><trkpt lat="45.24288572583009" lon="8.303385312824453"><ele>141.0</ele><time>2026-04-26T09:31:41Z</time></trkpt><trkpt lat="45.24298410326443" lon="8.303054962955134"><ele>140.5</ele><time>2026-04-26T09:31:42Z</time></trkpt><trkpt lat="45.243084705262255" lon="8.302721006973082"><ele>140.0</ele><time>2026-04-26T09:31:43Z</time></trkpt><trkpt lat="45.24318378575174" lon="8.302388711449536"><ele>141.0</ele><time>2026-04-26T09:31:44Z</time></trkpt><trkpt lat="45.24328643621438" lon="8.30205425505772"><ele>142.0</ele><time>2026-04-26T09:31:45Z</time></trkpt><trkpt lat="45.243386179948445" lon="8.301718800267794"><ele>141.5</ele><time>2026-04-26T09:31:46Z</time></trkpt><trkpt lat="45.243486901765884" lon="8.301385385778586"><ele>141.0</ele><time>2026-04-26T09:31:47Z</time></trkpt><trkpt lat="45.24358876005232" lon="8.301048214553774"><ele>141.0</ele><time>2026-04-26T09:31:48Z</time></trkpt><trkpt lat="45.24369359885792" lon="8.300709155713403"><ele>141.0</ele><time>2026-04-26T09:31:49Z</time></trkpt><trkpt lat="45.2437936035211" lon="8.300375001163912"><ele>141.0</ele><time>2026-04-26T09:31:50Z</time></trkpt><trkpt lat="45.24389593052184" lon="8.300037371539617"><ele>141.0</ele><time>2026-04-26T09:31:51Z</time></trkpt><trkpt lat="45.24399460493786" lon="8.29970081089629"><ele>141.0</ele><time>2026-04-26T09:31:52Z</time></trkpt><trkpt lat="45.24409594014194" lon="8.299363765043328"><ele>141.0</ele><time>2026-04-26T09:31:53Z</time></trkpt><trkpt lat="45.24419318656885" lon="8.299031600663849"><ele>141.5</ele><time>2026-04-26T09:31:54.001Z</time></trkpt><trkpt lat="45.244287786951745" lon="8.298697924374494"><ele>142.0</ele><time>2026-04-26T09:31:55.001Z</time></trkpt><trkpt lat="45.244385449197395" lon="8.298362925359156"><ele>142.0</ele><time>2026-04-26T09:31:56.001Z</time></trkpt><trkpt lat="45.24448378619254" lon="8.298028184906912"><ele>142.0</ele><time>2026-04-26T09:31:57.001Z</time></trkpt><trkpt lat="45.24458320925927" lon="8.297697356074385"><ele>142.0</ele><time>2026-04-26T09:31:58.001Z</time></trkpt><trkpt lat="45.24468459243832" lon="8.297367643924316"><ele>142.0</ele><time>2026-04-26T09:31:59.001Z</time></trkpt><trkpt lat="45.24478623317501" lon="8.297040150981282"><ele>142.0</ele><time>2026-04-26T09:32:00.001Z</time></trkpt><trkpt lat="45.24488884987359" lon="8.296711025120395"><ele>142.0</ele><time>2026-04-26T09:32:01.001Z</time></trkpt><trkpt lat="45.24498834269538" lon="8.296385538854992"><ele>142.0</ele><time>2026-04-26T09:32:02.001Z</time></trkpt><trkpt lat="45.24508486901006" lon="8.296055763064931"><ele>142.0</ele><time>2026-04-26T09:32:03.001Z</time></trkpt><trkpt lat="45.24518024581568" lon="8.295729708972631"><ele>142.5</ele><time>2026-04-26T09:32:04.001Z</time></trkpt><trkpt lat="45.24527845617892" lon="8.295405227218499"><ele>143.0</ele><time>2026-04-26T09:32:05.001Z</time></trkpt><trkpt lat="45.24537466278265" lon="8.295082449679523"><ele>143.0</ele><time>2026-04-26T09:32:06.001Z</time></trkpt><trkpt lat="45.24547681138229" lon="8.294764216993142"><ele>143.0</ele><time>2026-04-26T09:32:07.001Z</time></trkpt><trkpt lat="45.24558702248285" lon="8.294455513353467"><ele>143.0</ele><time>2026-04-26T09:32:08.001Z</time></trkpt><trkpt lat="45.24570939683739" lon="8.294155355959118"><ele>143.0</ele><time>2026-04-26T09:32:09.001Z</time></trkpt><trkpt lat="45.24585147738826" lon="8.293880626684158"><ele>143.0</ele><time>2026-04-26T09:32:10.001Z</time></trkpt><trkpt lat="45.2459991320531" lon="8.293619179692739"><ele>143.0</ele><time>2026-04-26T09:32:11.001Z</time></trkpt><trkpt lat="45.24614490253656" lon="8.293352192719716"><ele>143.0</ele><time>2026-04-26T09:32:12.001Z</time></trkpt><trkpt lat="45.246289715575514" lon="8.293092768639255"><ele>143.0</ele><time>2026-04-26T09:32:13.001Z</time></trkpt><trkpt lat="45.24644090096303" lon="8.292824321396234"><ele>142.5</ele><time>2026-04-26T09:32:14.001Z</time></trkpt><trkpt lat="45.2465945679742" lon="8.292550537249253"><ele>142.0</ele><time>2026-04-26T09:32:15.001Z</time></trkpt><trkpt lat="45.24674875485815" lon="8.292273255837394"><ele>142.0</ele><time>2026-04-26T09:32:16.001Z</time></trkpt><trkpt lat="45.246901049430726" lon="8.291999007786409"><ele>142.0</ele><time>2026-04-26T09:32:17.001Z</time></trkpt><trkpt lat="45.247056069078646" lon="8.291723533554341"><ele>142.0</ele><time>2026-04-26T09:32:18.001Z</time></trkpt><trkpt lat="45.24721248394392" lon="8.29144807163481"><ele>142.0</ele><time>2026-04-26T09:32:19.001Z</time></trkpt><trkpt lat="45.24736959557674" lon="8.291170656028944"><ele>142.0</ele><time>2026-04-26T09:32:20.001Z</time></trkpt><trkpt lat="45.24752564150072" lon="8.290891358012919"><ele>142.0</ele><time>2026-04-26T09:32:21.001Z</time></trkpt><trkpt lat="45.24768205557458" lon="8.290611838950895"><ele>141.5</ele><time>2026-04-26T09:32:22.001Z</time></trkpt><trkpt lat="45.247840318333125" lon="8.290329870700797"><ele>141.0</ele><time>2026-04-26T09:32:23.001Z</time></trkpt><trkpt lat="45.24799858806831" lon="8.290047468354071"><ele>141.5</ele><time>2026-04-26T09:32:24.001Z</time></trkpt><trkpt lat="45.248157499083" lon="8.289764051638295"><ele>142.0</ele><time>2026-04-26T09:32:25.001Z</time></trkpt><trkpt lat="45.2483157913995" lon="8.289479031027929"><ele>142.0</ele><time>2026-04-26T09:32:26.001Z</time></trkpt><trkpt lat="45.24847080795318" lon="8.289195235931912"><ele>142.0</ele><time>2026-04-26T09:32:27.001Z</time></trkpt><trkpt lat="45.248623604093055" lon="8.288912335282859"><ele>142.0</ele><time>2026-04-26T09:32:28.001Z</time></trkpt><trkpt lat="45.24877611779571" lon="8.288627312179642"><ele>142.0</ele><time>2026-04-26T09:32:29.001Z</time></trkpt><trkpt lat="45.2489284007683" lon="8.288344890697672"><ele>142.5</ele><time>2026-04-26T09:32:30.001Z</time></trkpt><trkpt lat="45.24908035561934" lon="8.288069952938978"><ele>143.0</ele><time>2026-04-26T09:32:31.001Z</time></trkpt><trkpt lat="45.24922453543711" lon="8.287814563610757"><ele>143.0</ele><time>2026-04-26T09:32:32.001Z</time></trkpt><trkpt lat="45.249360780149836" lon="8.287578121000418"><ele>143.0</ele><time>2026-04-26T09:32:33.001Z</time></trkpt><trkpt lat="45.24949232025367" lon="8.287351659372703"><ele>143.0</ele><time>2026-04-26T09:32:34.001Z</time></trkpt><trkpt lat="45.24961808778273" lon="8.287132274247046"><ele>143.0</ele><time>2026-04-26T09:32:35.001Z</time></trkpt><trkpt lat="45.249739579679364" lon="8.286915953326288"><ele>143.0</ele><time>2026-04-26T09:32:36.001Z</time></trkpt><trkpt lat="45.24985398351691" lon="8.286708821875143"><ele>143.0</ele><time>2026-04-26T09:32:37.001Z</time></trkpt><trkpt lat="45.24996431264476" lon="8.286509556736908"><ele>143.0</ele><time>2026-04-26T09:32:38.001Z</time></trkpt><trkpt lat="45.250065761840794" lon="8.286324724283539"><ele>143.0</ele><time>2026-04-26T09:32:39.001Z</time></trkpt><trkpt lat="45.250162179068376" lon="8.28614716824899"><ele>143.0</ele><time>2026-04-26T09:32:40.001Z</time></trkpt><trkpt lat="45.25025064390813" lon="8.28598510708429"><ele>143.0</ele><time>2026-04-26T09:32:41.001Z</time></trkpt><trkpt lat="45.25032999887522" lon="8.285839880690972"><ele>143.0</ele><time>2026-04-26T09:32:42.001Z</time></trkpt><trkpt lat="45.250399051285484" lon="8.285720087695088"><ele>143.0</ele><time>2026-04-26T09:32:43.001Z</time></trkpt><trkpt lat="45.25045635936612" lon="8.285613956791638"><ele>143.0</ele><time>2026-04-26T09:32:44.001Z</time></trkpt><trkpt lat="45.25051418751858" lon="8.285521957294076"><ele>143.0</ele><time>2026-04-26T09:32:45.001Z</time></trkpt><trkpt lat="45.250581211970456" lon="8.285465941298192"><ele>143.4</ele><time>2026-04-26T09:32:46.001Z</time></trkpt><trkpt lat="45.25065187305921" lon="8.28543731601315"><ele>143.8</ele><time>2026-04-26T09:32:47.001Z</time></trkpt><trkpt lat="45.25071285655443" lon="8.285363328254927"><ele>144.2</ele><time>2026-04-26T09:32:48.001Z</time></trkpt><trkpt lat="45.25074217708554" lon="8.285238837187807"><ele>144.6</ele><time>2026-04-26T09:32:49.001Z</time></trkpt><trkpt lat="45.250775616868395" lon="8.285091289821555"><ele>145.0</ele><time>2026-04-26T09:32:50.001Z</time></trkpt><trkpt lat="45.25083357972864" lon="8.284950366480423"><ele>145.0</ele><time>2026-04-26T09:32:51.001Z</time></trkpt><trkpt lat="45.250913427036416" lon="8.2848191344564"><ele>145.0</ele><time>2026-04-26T09:32:52.001Z</time></trkpt><trkpt lat="45.25099870424884" lon="8.284677739002127"><ele>145.0</ele><time>2026-04-26T09:32:53.001Z</time></trkpt><trkpt lat="45.251083154040515" lon="8.284531995044775"><ele>145.0</ele><time>2026-04-26T09:32:54.001Z</time></trkpt><trkpt lat="45.2511591945229" lon="8.284377602027085"><ele>145.0</ele><time>2026-04-26T09:32:55.001Z</time></trkpt><trkpt lat="45.25122810984882" lon="8.284216951973587"><ele>145.0</ele><time>2026-04-26T09:32:56.001Z</time></trkpt><trkpt lat="45.25128772869892" lon="8.284051852981127"><ele>145.0</ele><time>2026-04-26T09:32:57.001Z</time></trkpt><trkpt lat="45.25134275838765" lon="8.283886890902913"><ele>145.0</ele><time>2026-04-26T09:32:58.001Z</time></trkpt><trkpt lat="45.2513913072868" lon="8.28371937732021"><ele>145.0</ele><time>2026-04-26T09:32:59.001Z</time></trkpt><trkpt lat="45.251440461843835" lon="8.283551178110626"><ele>145.0</ele><time>2026-04-26T09:33:00.001Z</time></trkpt><trkpt lat="45.25147996519047" lon="8.283384925318888"><ele>145.0</ele><time>2026-04-26T09:33:01.001Z</time></trkpt><trkpt lat="45.25151722855082" lon="8.283218591917313"><ele>145.0</ele><time>2026-04-26T09:33:02.001Z</time></trkpt><trkpt lat="45.251549019806006" lon="8.283053934157762"><ele>145.0</ele><time>2026-04-26T09:33:03.001Z</time></trkpt><trkpt lat="45.25158075291018" lon="8.282893942464105"><ele>145.0</ele><time>2026-04-26T09:33:04.001Z</time></trkpt><trkpt lat="45.25161799594706" lon="8.282738654523483"><ele>145.0</ele><time>2026-04-26T09:33:05.001Z</time></trkpt><trkpt lat="45.251654563346094" lon="8.282582553928087"><ele>145.0</ele><time>2026-04-26T09:33:06.001Z</time></trkpt><trkpt lat="45.2516875488126" lon="8.282427921367688"><ele>145.0</ele><time>2026-04-26T09:33:07.001Z</time></trkpt><trkpt lat="45.25172296188334" lon="8.282273488165036"><ele>145.0</ele><time>2026-04-26T09:33:08.001Z</time></trkpt><trkpt lat="45.251760001931004" lon="8.282121159959601"><ele>145.0</ele><time>2026-04-26T09:33:09.001Z</time></trkpt><trkpt lat="45.251794954669386" lon="8.28197365440446"><ele>145.0</ele><time>2026-04-26T09:33:10.001Z</time></trkpt><trkpt lat="45.251828382572775" lon="8.281825454362378"><ele>145.0</ele><time>2026-04-26T09:33:11.001Z</time></trkpt><trkpt lat="45.25186145232816" lon="8.281674410174332"><ele>145.25</ele><time>2026-04-26T09:33:12.001Z</time></trkpt><trkpt lat="45.251892434424235" lon="8.281522826547617"><ele>145.5</ele><time>2026-04-26T09:33:13.001Z</time></trkpt><trkpt lat="45.25192291309312" lon="8.281372627726409"><ele>145.75</ele><time>2026-04-26T09:33:14.001Z</time></trkpt><trkpt lat="45.25195514115535" lon="8.281218125510982"><ele>146.0</ele><time>2026-04-26T09:33:15.001Z</time></trkpt><trkpt lat="45.25198971761955" lon="8.281059472902523"><ele>146.0</ele><time>2026-04-26T09:33:16.001Z</time></trkpt><trkpt lat="45.25204120409437" lon="8.280904103054908"><ele>146.0</ele><time>2026-04-26T09:33:17.001Z</time></trkpt><trkpt lat="45.25207936674206" lon="8.280730603306495"><ele>146.0</ele><time>2026-04-26T09:33:18.001Z</time></trkpt><trkpt lat="45.25212199466058" lon="8.280536220209408"><ele>146.0</ele><time>2026-04-26T09:33:19.001Z</time></trkpt><trkpt lat="45.252166979517376" lon="8.280330729806746"><ele>146.0</ele><time>2026-04-26T09:33:20.001Z</time></trkpt><trkpt lat="45.25221270430039" lon="8.2801324779649"><ele>146.0</ele><time>2026-04-26T09:33:21.001Z</time></trkpt><trkpt lat="45.25225900970269" lon="8.279940651297409"><ele>146.0</ele><time>2026-04-26T09:33:22Z</time></trkpt><trkpt lat="45.25230759723381" lon="8.27977093991928"><ele>146.0</ele><time>2026-04-26T09:33:23Z</time></trkpt><trkpt lat="45.25236269368194" lon="8.27959686851486"><ele>146.25</ele><time>2026-04-26T09:33:24Z</time></trkpt><trkpt lat="45.252411200418784" lon="8.279452106571382"><ele>146.5</ele><time>2026-04-26T09:33:25Z</time></trkpt><trkpt lat="45.2524584679713" lon="8.279319873421969"><ele>146.75</ele><time>2026-04-26T09:33:26Z</time></trkpt><trkpt lat="45.25256631262871" lon="8.27903449552646"><ele>147.0</ele><time>2026-04-26T09:33:27Z</time></trkpt><trkpt lat="45.252629813245356" lon="8.27887077994982"><ele>147.0</ele><time>2026-04-26T09:33:28Z</time></trkpt><trkpt lat="45.25269522920233" lon="8.278714390030364"><ele>147.0</ele><time>2026-04-26T09:33:29Z</time></trkpt><trkpt lat="45.252760071813555" lon="8.278561932054851"><ele>147.0</ele><time>2026-04-26T09:33:30Z</time></trkpt><trkpt lat="45.25282554846624" lon="8.278415894722558"><ele>147.0</ele><time>2026-04-26T09:33:31Z</time></trkpt><trkpt lat="45.25289382342802" lon="8.278275946506989"><ele>147.0</ele><time>2026-04-26T09:33:32Z</time></trkpt><trkpt lat="45.2529618674436" lon="8.278142076492859"><ele>147.0</ele><time>2026-04-26T09:33:33Z</time></trkpt><trkpt lat="45.25302837514994" lon="8.278028012234628"><ele>147.0</ele><time>2026-04-26T09:33:34Z</time></trkpt><trkpt lat="45.253093502309966" lon="8.277921203807336"><ele>147.0</ele><time>2026-04-26T09:33:35Z</time></trkpt><trkpt lat="45.25317526661006" lon="8.277858335087725"><ele>147.0</ele><time>2026-04-26T09:33:36Z</time></trkpt><trkpt lat="45.25326744672282" lon="8.277837531363623"><ele>147.0</ele><time>2026-04-26T09:33:37Z</time></trkpt><trkpt lat="45.25336112029982" lon="8.277869920256176"><ele>147.0</ele><time>2026-04-26T09:33:38Z</time></trkpt><trkpt lat="45.25346937649276" lon="8.277904243536268"><ele>147.0</ele><time>2026-04-26T09:33:39Z</time></trkpt><trkpt lat="45.25357912131017" lon="8.277951212516594"><ele>147.0</ele><time>2026-04-26T09:33:40Z</time></trkpt><trkpt lat="45.253684513113136" lon="8.277979604229431"><ele>147.0</ele><time>2026-04-26T09:33:41Z</time></trkpt><trkpt lat="45.25378319027615" lon="8.278024856046734"><ele>147.0</ele><time>2026-04-26T09:33:42Z</time></trkpt><trkpt lat="45.25389024150879" lon="8.278030412007423"><ele>147.0</ele><time>2026-04-26T09:33:43Z</time></trkpt><trkpt lat="45.25398414329476" lon="8.277982650111843"><ele>147.0</ele><time>2026-04-26T09:33:44Z</time></trkpt><trkpt lat="45.254069316241434" lon="8.277896238254689"><ele>147.0</ele><time>2026-04-26T09:33:45Z</time></trkpt><trkpt lat="45.254158691128296" lon="8.277790260628926"><ele>147.0</ele><time>2026-04-26T09:33:46Z</time></trkpt><trkpt lat="45.25424238626441" lon="8.277671332465626"><ele>147.0</ele><time>2026-04-26T09:33:47Z</time></trkpt><trkpt lat="45.25431578916257" lon="8.277542443140918"><ele>147.0</ele><time>2026-04-26T09:33:48Z</time></trkpt><trkpt lat="45.25438895643251" lon="8.277412768799085"><ele>147.0</ele><time>2026-04-26T09:33:49Z</time></trkpt><trkpt lat="45.25443208672337" lon="8.277243242338503"><ele>147.0</ele><time>2026-04-26T09:33:50Z</time></trkpt><trkpt lat="45.254490601248015" lon="8.277108174465132"><ele>147.0</ele><time>2026-04-26T09:33:51Z</time></trkpt><trkpt lat="45.25452905521765" lon="8.276957818361701"><ele>147.0</ele><time>2026-04-26T09:33:52Z</time></trkpt><trkpt lat="45.25457198471323" lon="8.276798898851672"><ele>147.0</ele><time>2026-04-26T09:33:53Z</time></trkpt><trkpt lat="45.254617029345326" lon="8.276628914774019"><ele>147.0</ele><time>2026-04-26T09:33:54Z</time></trkpt><trkpt lat="45.25466384754798" lon="8.27645070141859"><ele>147.0</ele><time>2026-04-26T09:33:55Z</time></trkpt><trkpt lat="45.25471155130963" lon="8.276271601520698"><ele>147.0</ele><time>2026-04-26T09:33:56Z</time></trkpt><trkpt lat="45.25475728029571" lon="8.276094725799506"><ele>147.0</ele><time>2026-04-26T09:33:57Z</time></trkpt><trkpt lat="45.25480142853752" lon="8.27592539579839"><ele>147.0</ele><time>2026-04-26T09:33:58Z</time></trkpt><trkpt lat="45.254845237219" lon="8.275755442869675"><ele>147.5</ele><time>2026-04-26T09:33:59Z</time></trkpt><trkpt lat="45.25488867119201" lon="8.275586524573392"><ele>148.0</ele><time>2026-04-26T09:34:00Z</time></trkpt><trkpt lat="45.254931276150835" lon="8.275424685546156"><ele>148.5</ele><time>2026-04-26T09:34:01Z</time></trkpt><trkpt lat="45.2549727961163" lon="8.275266150677407"><ele>149.0</ele><time>2026-04-26T09:34:02Z</time></trkpt><trkpt lat="45.254992722581775" lon="8.275096069357382"><ele>149.0</ele><time>2026-04-26T09:34:03Z</time></trkpt><trkpt lat="45.255032447211384" lon="8.274936358029782"><ele>149.0</ele><time>2026-04-26T09:34:04Z</time></trkpt><trkpt lat="45.25507432784853" lon="8.274775389409418"><ele>149.0</ele><time>2026-04-26T09:34:05Z</time></trkpt><trkpt lat="45.255117636664565" lon="8.274609991326937"><ele>149.0</ele><time>2026-04-26T09:34:06Z</time></trkpt><trkpt lat="45.2551616241161" lon="8.274437159612873"><ele>148.25</ele><time>2026-04-26T09:34:07Z</time></trkpt><trkpt lat="45.2552307936835" lon="8.274279239130005"><ele>147.5</ele><time>2026-04-26T09:34:08Z</time></trkpt><trkpt lat="45.255338915787696" lon="8.274135073123723"><ele>146.75</ele><time>2026-04-26T09:34:09Z</time></trkpt><trkpt lat="45.255296069179245" lon="8.273914270113098"><ele>146.0</ele><time>2026-04-26T09:34:10Z</time></trkpt><trkpt lat="45.25534260659898" lon="8.273741892792751"><ele>146.0</ele><time>2026-04-26T09:34:11Z</time></trkpt><trkpt lat="45.25539067813126" lon="8.273568202422688"><ele>146.0</ele><time>2026-04-26T09:34:12Z</time></trkpt><trkpt lat="45.25543679548194" lon="8.273395044047733"><ele>146.0</ele><time>2026-04-26T09:34:13Z</time></trkpt><trkpt lat="45.25548563630229" lon="8.273216856374901"><ele>146.0</ele><time>2026-04-26T09:34:14Z</time></trkpt><trkpt lat="45.25552954576625" lon="8.273039913748022"><ele>146.0</ele><time>2026-04-26T09:34:15Z</time></trkpt><trkpt lat="45.25557747652199" lon="8.27285267660975"><ele>146.0</ele><time>2026-04-26T09:34:16Z</time></trkpt><trkpt lat="45.25562906821884" lon="8.27265109339934"><ele>146.0</ele><time>2026-04-26T09:34:17Z</time></trkpt><trkpt lat="45.25568253041094" lon="8.272447942461524"><ele>146.0</ele><time>2026-04-26T09:34:18Z</time></trkpt><trkpt lat="45.255824453458224" lon="8.272294714627295"><ele>146.33333333333331</ele><time>2026-04-26T09:34:19Z</time></trkpt><trkpt lat="45.25579298945042" lon="8.272045587240589"><ele>146.66666666666666</ele><time>2026-04-26T09:34:20Z</time></trkpt><trkpt lat="45.25584210281534" lon="8.271845752217493"><ele>147.0</ele><time>2026-04-26T09:34:21Z</time></trkpt><trkpt lat="45.25589652568683" lon="8.271648493809266"><ele>147.0</ele><time>2026-04-26T09:34:22Z</time></trkpt><trkpt lat="45.25594781925669" lon="8.27145572577213"><ele>147.0</ele><time>2026-04-26T09:34:23Z</time></trkpt><trkpt lat="45.25599925254552" lon="8.27124383803881"><ele>147.0</ele><time>2026-04-26T09:34:24Z</time></trkpt><trkpt lat="45.25604978425196" lon="8.27104639509699"><ele>146.75</ele><time>2026-04-26T09:34:25Z</time></trkpt><trkpt lat="45.25610118742328" lon="8.27084880438114"><ele>146.5</ele><time>2026-04-26T09:34:26Z</time></trkpt><trkpt lat="45.25615355000964" lon="8.27065028521074"><ele>146.25</ele><time>2026-04-26T09:34:27Z</time></trkpt><trkpt lat="45.25620793050823" lon="8.270462080577941"><ele>146.0</ele><time>2026-04-26T09:34:28Z</time></trkpt><trkpt lat="45.256253573603566" lon="8.27026460190527"><ele>145.75</ele><time>2026-04-26T09:34:29.001Z</time></trkpt><trkpt lat="45.25630475480946" lon="8.270072340661455"><ele>145.5</ele><time>2026-04-26T09:34:30.001Z</time></trkpt><trkpt lat="45.256353771868085" lon="8.269872147955175"><ele>145.25</ele><time>2026-04-26T09:34:31.001Z</time></trkpt><trkpt lat="45.25640802882608" lon="8.269676946189607"><ele>145.0</ele><time>2026-04-26T09:34:32.001Z</time></trkpt><trkpt lat="45.25646189197296" lon="8.26947901077332"><ele>145.0</ele><time>2026-04-26T09:34:33.001Z</time></trkpt><trkpt lat="45.256520354435445" lon="8.269272216646305"><ele>145.0</ele><time>2026-04-26T09:34:34.001Z</time></trkpt><trkpt lat="45.25657339482786" lon="8.2690605657114"><ele>145.0</ele><time>2026-04-26T09:34:35.001Z</time></trkpt><trkpt lat="45.25663093759855" lon="8.268843403584128"><ele>145.0</ele><time>2026-04-26T09:34:36.001Z</time></trkpt><trkpt lat="45.25669117340158" lon="8.268622037201025"><ele>145.0</ele><time>2026-04-26T09:34:37.001Z</time></trkpt><trkpt lat="45.25675301477472" lon="8.268396027677735"><ele>145.0</ele><time>2026-04-26T09:34:38.001Z</time></trkpt><trkpt lat="45.25681246722516" lon="8.26816497139054"><ele>144.66666666666669</ele><time>2026-04-26T09:34:39.001Z</time></trkpt><trkpt lat="45.25687044751893" lon="8.267930929824209"><ele>144.33333333333334</ele><time>2026-04-26T09:34:40.001Z</time></trkpt><trkpt lat="45.25693610803857" lon="8.26769222453089"><ele>144.0</ele><time>2026-04-26T09:34:41.001Z</time></trkpt><trkpt lat="45.25699774098818" lon="8.267444480098328"><ele>144.0</ele><time>2026-04-26T09:34:42.001Z</time></trkpt><trkpt lat="45.25706233572996" lon="8.267190451590979"><ele>144.0</ele><time>2026-04-26T09:34:43.001Z</time></trkpt><trkpt lat="45.25712583391908" lon="8.266936367530276"><ele>144.0</ele><time>2026-04-26T09:34:44.001Z</time></trkpt><trkpt lat="45.257195495434225" lon="8.266684333580754"><ele>144.66666666666666</ele><time>2026-04-26T09:34:45.001Z</time></trkpt><trkpt lat="45.25726063154945" lon="8.266433086981419"><ele>145.33333333333331</ele><time>2026-04-26T09:34:46.001Z</time></trkpt><trkpt lat="45.257325661116035" lon="8.26617263056055"><ele>146.0</ele><time>2026-04-26T09:34:47.001Z</time></trkpt><trkpt lat="45.25739224908255" lon="8.265905941170656"><ele>146.0</ele><time>2026-04-26T09:34:48.001Z</time></trkpt><trkpt lat="45.25746413627553" lon="8.265640807366156"><ele>146.0</ele><time>2026-04-26T09:34:49.001Z</time></trkpt><trkpt lat="45.257537788811355" lon="8.265369416175915"><ele>146.0</ele><time>2026-04-26T09:34:50.001Z</time></trkpt><trkpt lat="45.257607024515615" lon="8.265091348622546"><ele>146.33333333333331</ele><time>2026-04-26T09:34:51.001Z</time></trkpt><trkpt lat="45.25768269397548" lon="8.264806283079585"><ele>146.66666666666666</ele><time>2026-04-26T09:34:52.001Z</time></trkpt><trkpt lat="45.257753817713315" lon="8.26452551066081"><ele>147.0</ele><time>2026-04-26T09:34:53.001Z</time></trkpt><trkpt lat="45.257826264042514" lon="8.264243575104304"><ele>147.0</ele><time>2026-04-26T09:34:54.001Z</time></trkpt><trkpt lat="45.25789783631225" lon="8.263961265565209"><ele>147.0</ele><time>2026-04-26T09:34:55.001Z</time></trkpt><trkpt lat="45.25797339108915" lon="8.26368865623378"><ele>147.0</ele><time>2026-04-26T09:34:56.001Z</time></trkpt><trkpt lat="45.25805560736584" lon="8.263423486890334"><ele>147.0</ele><time>2026-04-26T09:34:57.001Z</time></trkpt><trkpt lat="45.258177359321344" lon="8.263208403419377"><ele>147.0</ele><time>2026-04-26T09:34:58.001Z</time></trkpt><trkpt lat="45.25832688221534" lon="8.263013054514614"><ele>147.0</ele><time>2026-04-26T09:34:59.001Z</time></trkpt><trkpt lat="45.258494066527774" lon="8.262841951798656"><ele>147.0</ele><time>2026-04-26T09:35:00.001Z</time></trkpt><trkpt lat="45.258654628014085" lon="8.262658447128539"><ele>147.0</ele><time>2026-04-26T09:35:01.001Z</time></trkpt><trkpt lat="45.25883760712076" lon="8.262493291593382"><ele>147.0</ele><time>2026-04-26T09:35:02.001Z</time></trkpt><trkpt lat="45.259015144829945" lon="8.262315521322071"><ele>147.0</ele><time>2026-04-26T09:35:03.001Z</time></trkpt><trkpt lat="45.25919583068046" lon="8.262127083931816"><ele>147.0</ele><time>2026-04-26T09:35:04.001Z</time></trkpt><trkpt lat="45.25937857569012" lon="8.261940962116702"><ele>147.0</ele><time>2026-04-26T09:35:05.001Z</time></trkpt><trkpt lat="45.259565980353074" lon="8.261754007873918"><ele>147.0</ele><time>2026-04-26T09:35:06.001Z</time></trkpt><trkpt lat="45.25975748426942" lon="8.261561993740587"><ele>147.0</ele><time>2026-04-26T09:35:07.001Z</time></trkpt><trkpt lat="45.259962382306895" lon="8.261353115997208"><ele>146.5</ele><time>2026-04-26T09:35:08.001Z</time></trkpt><trkpt lat="45.26018048469415" lon="8.261127990524708"><ele>146.0</ele><time>2026-04-26T09:35:09.001Z</time></trkpt><trkpt lat="45.260394366577835" lon="8.260906820836558"><ele>146.0</ele><time>2026-04-26T09:35:10.001Z</time></trkpt><trkpt lat="45.26059725127769" lon="8.260704482005975"><ele>146.0</ele><time>2026-04-26T09:35:11.001Z</time></trkpt><trkpt lat="45.26080354262917" lon="8.260501834029625"><ele>146.0</ele><time>2026-04-26T09:35:12.001Z</time></trkpt><trkpt lat="45.26101637974614" lon="8.260294418452457"><ele>146.0</ele><time>2026-04-26T09:35:13.001Z</time></trkpt><trkpt lat="45.261222329134625" lon="8.260085153512863"><ele>146.0</ele><time>2026-04-26T09:35:14.001Z</time></trkpt><trkpt lat="45.261427660653055" lon="8.259875414061785"><ele>146.0</ele><time>2026-04-26T09:35:15.001Z</time></trkpt><trkpt lat="45.261634866016436" lon="8.259666273742893"><ele>147.5</ele><time>2026-04-26T09:35:16.001Z</time></trkpt><trkpt lat="45.261839324596785" lon="8.259453329151535"><ele>149.0</ele><time>2026-04-26T09:35:17.001Z</time></trkpt><trkpt lat="45.26204442753713" lon="8.259241887175632"><ele>149.0</ele><time>2026-04-26T09:35:18.001Z</time></trkpt><trkpt lat="45.262261202242485" lon="8.259051088891843"><ele>149.0</ele><time>2026-04-26T09:35:19.001Z</time></trkpt><trkpt lat="45.26247009724677" lon="8.258840795786126"><ele>149.0</ele><time>2026-04-26T09:35:20.001Z</time></trkpt><trkpt lat="45.26267521724346" lon="8.258634086106335"><ele>149.0</ele><time>2026-04-26T09:35:21.001Z</time></trkpt><trkpt lat="45.262886350224655" lon="8.258421623439542"><ele>149.0</ele><time>2026-04-26T09:35:22.001Z</time></trkpt><trkpt lat="45.263096495377525" lon="8.258210154836801"><ele>149.0</ele><time>2026-04-26T09:35:23.001Z</time></trkpt><trkpt lat="45.26330757307374" lon="8.257997747827968"><ele>149.0</ele><time>2026-04-26T09:35:24.001Z</time></trkpt><trkpt lat="45.26350952018559" lon="8.257766825052354"><ele>149.0</ele><time>2026-04-26T09:35:25.001Z</time></trkpt><trkpt lat="45.26372280126655" lon="8.257557103145096"><ele>149.0</ele><time>2026-04-26T09:35:26.001Z</time></trkpt><trkpt lat="45.26393481574383" lon="8.257344583615629"><ele>149.0</ele><time>2026-04-26T09:35:27.001Z</time></trkpt><trkpt lat="45.26414537976843" lon="8.25713171614449"><ele>149.5</ele><time>2026-04-26T09:35:28Z</time></trkpt><trkpt lat="45.26435867819847" lon="8.25692209588344"><ele>150.0</ele><time>2026-04-26T09:35:29Z</time></trkpt><trkpt lat="45.26455642730148" lon="8.256719312062383"><ele>150.0</ele><time>2026-04-26T09:35:30Z</time></trkpt><trkpt lat="45.26474179504468" lon="8.256530189456164"><ele>150.0</ele><time>2026-04-26T09:35:31Z</time></trkpt><trkpt lat="45.26491466414921" lon="8.256356882966353"><ele>150.0</ele><time>2026-04-26T09:35:32Z</time></trkpt><trkpt lat="45.26507630380953" lon="8.256191690970594"><ele>149.33333333333334</ele><time>2026-04-26T09:35:33Z</time></trkpt><trkpt lat="45.265238477051895" lon="8.256054617843974"><ele>148.66666666666669</ele><time>2026-04-26T09:35:34Z</time></trkpt><trkpt lat="45.26537454488473" lon="8.255891116911616"><ele>148.0</ele><time>2026-04-26T09:35:35Z</time></trkpt><trkpt lat="45.26552965142962" lon="8.255761002352822"><ele>148.5</ele><time>2026-04-26T09:35:36Z</time></trkpt><trkpt lat="45.265659565871424" lon="8.255629599863829"><ele>149.0</ele><time>2026-04-26T09:35:37Z</time></trkpt><trkpt lat="45.26577940411441" lon="8.255510747360809"><ele>149.5</ele><time>2026-04-26T09:35:38Z</time></trkpt><trkpt lat="45.26588020354298" lon="8.255388143722376"><ele>150.0</ele><time>2026-04-26T09:35:39Z</time></trkpt><trkpt lat="45.26598132763675" lon="8.255302754418294"><ele>150.0</ele><time>2026-04-26T09:35:40Z</time></trkpt><trkpt lat="45.266077615053185" lon="8.255244739992785"><ele>150.0</ele><time>2026-04-26T09:35:41Z</time></trkpt><trkpt lat="45.266168689421086" lon="8.255215841622894"><ele>150.0</ele><time>2026-04-26T09:35:42Z</time></trkpt><trkpt lat="45.26625983055914" lon="8.255162168296515"><ele>150.0</ele><time>2026-04-26T09:35:43Z</time></trkpt><trkpt lat="45.26635980470641" lon="8.255103655599623"><ele>150.0</ele><time>2026-04-26T09:35:44Z</time></trkpt><trkpt lat="45.266449816940614" lon="8.255014759203236"><ele>150.0</ele><time>2026-04-26T09:35:45Z</time></trkpt><trkpt lat="45.26650822708038" lon="8.254821119102267"><ele>150.0</ele><time>2026-04-26T09:35:46Z</time></trkpt><trkpt lat="45.266601418151595" lon="8.254633475656398"><ele>150.0</ele><time>2026-04-26T09:35:47Z</time></trkpt><trkpt lat="45.266735023636436" lon="8.254489537396132"><ele>149.66666666666666</ele><time>2026-04-26T09:35:48Z</time></trkpt><trkpt lat="45.26688480372716" lon="8.254364317050491"><ele>149.33333333333331</ele><time>2026-04-26T09:35:49Z</time></trkpt><trkpt lat="45.267040340430725" lon="8.25421728061034"><ele>149.0</ele><time>2026-04-26T09:35:50Z</time></trkpt><trkpt lat="45.26720503410916" lon="8.254047089633055"><ele>149.33333333333331</ele><time>2026-04-26T09:35:51Z</time></trkpt><trkpt lat="45.267367740413455" lon="8.253878071860656"><ele>149.66666666666666</ele><time>2026-04-26T09:35:52Z</time></trkpt><trkpt lat="45.2675275519929" lon="8.253717380962913"><ele>150.0</ele><time>2026-04-26T09:35:53Z</time></trkpt><trkpt lat="45.267690051926195" lon="8.253552134753626"><ele>150.0</ele><time>2026-04-26T09:35:54Z</time></trkpt><trkpt lat="45.26785519874667" lon="8.25338310903303"><ele>150.0</ele><time>2026-04-26T09:35:55Z</time></trkpt><trkpt lat="45.26802816417782" lon="8.253204528064197"><ele>150.0</ele><time>2026-04-26T09:35:56Z</time></trkpt><trkpt lat="45.268203202466815" lon="8.253024656249995"><ele>150.33333333333334</ele><time>2026-04-26T09:35:57Z</time></trkpt><trkpt lat="45.268375748714035" lon="8.252847312024425"><ele>150.66666666666669</ele><time>2026-04-26T09:35:58Z</time></trkpt><trkpt lat="45.26855820332761" lon="8.252669777674372"><ele>151.0</ele><time>2026-04-26T09:35:59Z</time></trkpt><trkpt lat="45.26875580482181" lon="8.252543062386179"><ele>150.66666666666669</ele><time>2026-04-26T09:36:00Z</time></trkpt><trkpt lat="45.26895587443629" lon="8.252489509412712"><ele>150.33333333333334</ele><time>2026-04-26T09:36:01Z</time></trkpt><trkpt lat="45.26916858133853" lon="8.252487974162838"><ele>150.0</ele><time>2026-04-26T09:36:02Z</time></trkpt><trkpt lat="45.26937030549109" lon="8.252575779288609"><ele>150.0</ele><time>2026-04-26T09:36:03Z</time></trkpt><trkpt lat="45.26956355777803" lon="8.252707895320421"><ele>150.0</ele><time>2026-04-26T09:36:04Z</time></trkpt><trkpt lat="45.269764115100706" lon="8.252859289878428"><ele>150.0</ele><time>2026-04-26T09:36:05Z</time></trkpt><trkpt lat="45.269971769537925" lon="8.25300863268941"><ele>149.5</ele><time>2026-04-26T09:36:06Z</time></trkpt><trkpt lat="45.27018320912645" lon="8.253152219832343"><ele>149.0</ele><time>2026-04-26T09:36:07Z</time></trkpt><trkpt lat="45.27039036784904" lon="8.2532909483369"><ele>149.0</ele><time>2026-04-26T09:36:08Z</time></trkpt><trkpt lat="45.27060003580282" lon="8.253429512502588"><ele>149.0</ele><time>2026-04-26T09:36:09Z</time></trkpt><trkpt lat="45.2708112868847" lon="8.25356839616083"><ele>148.5</ele><time>2026-04-26T09:36:10Z</time></trkpt><trkpt lat="45.271026305189814" lon="8.253710695871415"><ele>148.0</ele><time>2026-04-26T09:36:11Z</time></trkpt><trkpt lat="45.27124273224061" lon="8.253856592320318"><ele>147.0</ele><time>2026-04-26T09:36:12Z</time></trkpt><trkpt lat="45.27146158076221" lon="8.254003666255008"><ele>146.0</ele><time>2026-04-26T09:36:13Z</time></trkpt><trkpt lat="45.27168451626547" lon="8.254158818574307"><ele>146.0</ele><time>2026-04-26T09:36:14Z</time></trkpt><trkpt lat="45.271907257020125" lon="8.254304788612625"><ele>146.0</ele><time>2026-04-26T09:36:15Z</time></trkpt><trkpt lat="45.27212910938296" lon="8.254450082172756"><ele>146.5</ele><time>2026-04-26T09:36:16Z</time></trkpt><trkpt lat="45.27234298123251" lon="8.254591215923936"><ele>147.0</ele><time>2026-04-26T09:36:17Z</time></trkpt><trkpt lat="45.27255690044091" lon="8.254737715358521"><ele>147.0</ele><time>2026-04-26T09:36:18Z</time></trkpt><trkpt lat="45.27277262077273" lon="8.25487638582281"><ele>147.0</ele><time>2026-04-26T09:36:19Z</time></trkpt><trkpt lat="45.27299478159963" lon="8.255003664118838"><ele>147.0</ele><time>2026-04-26T09:36:20Z</time></trkpt><trkpt lat="45.27322232616298" lon="8.255112996722593"><ele>147.0</ele><time>2026-04-26T09:36:21Z</time></trkpt><trkpt lat="45.27345360258466" lon="8.255213672658195"><ele>147.0</ele><time>2026-04-26T09:36:22Z</time></trkpt><trkpt lat="45.27368617711231" lon="8.255310918711839"><ele>147.0</ele><time>2026-04-26T09:36:23Z</time></trkpt><trkpt lat="45.27391711678259" lon="8.255408120932957"><ele>147.5</ele><time>2026-04-26T09:36:24Z</time></trkpt><trkpt lat="45.27414168157275" lon="8.25550764542969"><ele>148.0</ele><time>2026-04-26T09:36:25Z</time></trkpt><trkpt lat="45.2743564371406" lon="8.255600911351111"><ele>148.0</ele><time>2026-04-26T09:36:26Z</time></trkpt><trkpt lat="45.27455813839117" lon="8.255686131587229"><ele>148.0</ele><time>2026-04-26T09:36:27Z</time></trkpt><trkpt lat="45.27475418907916" lon="8.255754233427329"><ele>148.0</ele><time>2026-04-26T09:36:28Z</time></trkpt><trkpt lat="45.274952168675796" lon="8.255793672701259"><ele>147.66666666666669</ele><time>2026-04-26T09:36:29Z</time></trkpt><trkpt lat="45.27515086726653" lon="8.255808279126152"><ele>147.33333333333334</ele><time>2026-04-26T09:36:30Z</time></trkpt><trkpt lat="45.2753505204837" lon="8.255817141768814"><ele>147.0</ele><time>2026-04-26T09:36:31Z</time></trkpt><trkpt lat="45.275547420157544" lon="8.25582369160097"><ele>147.66666666666666</ele><time>2026-04-26T09:36:32Z</time></trkpt><trkpt lat="45.27573488291333" lon="8.255837265264745"><ele>148.33333333333331</ele><time>2026-04-26T09:36:33Z</time></trkpt><trkpt lat="45.27591344511156" lon="8.255851217908537"><ele>149.0</ele><time>2026-04-26T09:36:34Z</time></trkpt><trkpt lat="45.27608542007542" lon="8.255864226161123"><ele>149.0</ele><time>2026-04-26T09:36:35Z</time></trkpt><trkpt lat="45.276243160676614" lon="8.255869324227325"><ele>149.0</ele><time>2026-04-26T09:36:36Z</time></trkpt><trkpt lat="45.27639103029287" lon="8.255857603321557"><ele>149.0</ele><time>2026-04-26T09:36:37Z</time></trkpt><trkpt lat="45.276526441256316" lon="8.255811948298227"><ele>149.0</ele><time>2026-04-26T09:36:38Z</time></trkpt><trkpt lat="45.27665266590418" lon="8.255704344636463"><ele>150.0</ele><time>2026-04-26T09:36:39Z</time></trkpt><trkpt lat="45.276759689302644" lon="8.255545398794434"><ele>151.0</ele><time>2026-04-26T09:36:40Z</time></trkpt><trkpt lat="45.27684761843096" lon="8.25535186236271"><ele>152.0</ele><time>2026-04-26T09:36:41Z</time></trkpt><trkpt lat="45.2769289072032" lon="8.255133876310673"><ele>152.0</ele><time>2026-04-26T09:36:42Z</time></trkpt><trkpt lat="45.27701256884037" lon="8.254896740943972"><ele>152.0</ele><time>2026-04-26T09:36:43Z</time></trkpt><trkpt lat="45.277106823198345" lon="8.254648794070341"><ele>152.0</ele><time>2026-04-26T09:36:44Z</time></trkpt><trkpt lat="45.27719765471894" lon="8.254405761720216"><ele>151.0</ele><time>2026-04-26T09:36:45Z</time></trkpt><trkpt lat="45.2772813267592" lon="8.254166566888019"><ele>150.0</ele><time>2026-04-26T09:36:46Z</time></trkpt><trkpt lat="45.277371950116176" lon="8.253908803631298"><ele>149.0</ele><time>2026-04-26T09:36:47Z</time></trkpt><trkpt lat="45.27746156691499" lon="8.25365228061654"><ele>149.0</ele><time>2026-04-26T09:36:48Z</time></trkpt><trkpt lat="45.27755850195066" lon="8.25338554072399"><ele>149.0</ele><time>2026-04-26T09:36:49Z</time></trkpt><trkpt lat="45.27765830730902" lon="8.2531113658582"><ele>149.0</ele><time>2026-04-26T09:36:50Z</time></trkpt><trkpt lat="45.277759662168144" lon="8.252834415028385"><ele>149.0</ele><time>2026-04-26T09:36:51Z</time></trkpt><trkpt lat="45.27786385709876" lon="8.252549710956494"><ele>149.0</ele><time>2026-04-26T09:36:52Z</time></trkpt><trkpt lat="45.277960409799995" lon="8.25227945427211"><ele>149.0</ele><time>2026-04-26T09:36:53Z</time></trkpt><trkpt lat="45.27806019746989" lon="8.252006975182686"><ele>149.0</ele><time>2026-04-26T09:36:54Z</time></trkpt><trkpt lat="45.2781779918806" lon="8.251735998253215"><ele>149.0</ele><time>2026-04-26T09:36:55Z</time></trkpt><trkpt lat="45.27828203764827" lon="8.251445517919922"><ele>149.0</ele><time>2026-04-26T09:36:56Z</time></trkpt><trkpt lat="45.278385685753896" lon="8.251155616805136"><ele>149.0</ele><time>2026-04-26T09:36:57Z</time></trkpt><trkpt lat="45.27849364431319" lon="8.250853578002719"><ele>149.0</ele><time>2026-04-26T09:36:58Z</time></trkpt><trkpt lat="45.27859958392838" lon="8.250557103257266"><ele>149.0</ele><time>2026-04-26T09:36:59.001Z</time></trkpt><trkpt lat="45.27870430683411" lon="8.250263983874987"><ele>149.0</ele><time>2026-04-26T09:37:00.001Z</time></trkpt><trkpt lat="45.27880993725841" lon="8.249968324391551"><ele>149.0</ele><time>2026-04-26T09:37:01.001Z</time></trkpt><trkpt lat="45.27891289525881" lon="8.249680145052254"><ele>149.0</ele><time>2026-04-26T09:37:02.001Z</time></trkpt><trkpt lat="45.27901422319648" lon="8.249396528162418"><ele>149.0</ele><time>2026-04-26T09:37:03.001Z</time></trkpt><trkpt lat="45.27911265949882" lon="8.24912009972226"><ele>149.0</ele><time>2026-04-26T09:37:04.001Z</time></trkpt><trkpt lat="45.27921232275241" lon="8.24883913776664"><ele>149.0</ele><time>2026-04-26T09:37:05.001Z</time></trkpt><trkpt lat="45.27931857807943" lon="8.24855272848614"><ele>149.0</ele><time>2026-04-26T09:37:06.001Z</time></trkpt><trkpt lat="45.27943540637479" lon="8.24828393736899"><ele>149.0</ele><time>2026-04-26T09:37:07.001Z</time></trkpt><trkpt lat="45.2795644291433" lon="8.248018762656871"><ele>149.0</ele><time>2026-04-26T09:37:08.001Z</time></trkpt><trkpt lat="45.27969781626404" lon="8.247758249102489"><ele>150.0</ele><time>2026-04-26T09:37:09.001Z</time></trkpt><trkpt lat="45.27983231083974" lon="8.247495468418427"><ele>151.0</ele><time>2026-04-26T09:37:10.001Z</time></trkpt><trkpt lat="45.27995511058664" lon="8.247215561758814"><ele>151.0</ele><time>2026-04-26T09:37:11.001Z</time></trkpt><trkpt lat="45.28009201264007" lon="8.246953056953528"><ele>151.0</ele><time>2026-04-26T09:37:12.001Z</time></trkpt><trkpt lat="45.280247245573264" lon="8.246703822080795"><ele>151.0</ele><time>2026-04-26T09:37:13.001Z</time></trkpt><trkpt lat="45.28039809195482" lon="8.246447572265104"><ele>151.0</ele><time>2026-04-26T09:37:14.001Z</time></trkpt><trkpt lat="45.280550594839745" lon="8.246190639698684"><ele>151.0</ele><time>2026-04-26T09:37:15.001Z</time></trkpt><trkpt lat="45.28070470623956" lon="8.245931158260262"><ele>151.0</ele><time>2026-04-26T09:37:16.001Z</time></trkpt><trkpt lat="45.28085974006768" lon="8.245670195527097"><ele>151.0</ele><time>2026-04-26T09:37:17.001Z</time></trkpt><trkpt lat="45.281004564134975" lon="8.245391437937277"><ele>151.0</ele><time>2026-04-26T09:37:18.001Z</time></trkpt><trkpt lat="45.2811620856275" lon="8.245126137571225"><ele>151.0</ele><time>2026-04-26T09:37:19.001Z</time></trkpt><trkpt lat="45.28133144722277" lon="8.244876188263468"><ele>151.0</ele><time>2026-04-26T09:37:20.001Z</time></trkpt><trkpt lat="45.28149022841729" lon="8.24460891773954"><ele>151.0</ele><time>2026-04-26T09:37:21.001Z</time></trkpt><trkpt lat="45.28164937302233" lon="8.244341035485347"><ele>151.0</ele><time>2026-04-26T09:37:22.001Z</time></trkpt><trkpt lat="45.28180959824955" lon="8.244071334265229"><ele>151.0</ele><time>2026-04-26T09:37:23.001Z</time></trkpt><trkpt lat="45.28197037845812" lon="8.24380070016575"><ele>151.0</ele><time>2026-04-26T09:37:24.001Z</time></trkpt><trkpt lat="45.28213232576081" lon="8.2435281002109"><ele>151.0</ele><time>2026-04-26T09:37:25.001Z</time></trkpt><trkpt lat="45.282298387216095" lon="8.243259524539043"><ele>151.0</ele><time>2026-04-26T09:37:26.001Z</time></trkpt><trkpt lat="45.28246606458315" lon="8.242990727704871"><ele>151.0</ele><time>2026-04-26T09:37:27.001Z</time></trkpt><trkpt lat="45.28263466974936" lon="8.242720654500417"><ele>151.0</ele><time>2026-04-26T09:37:28.001Z</time></trkpt><trkpt lat="45.2828064755447" lon="8.242452255871063"><ele>151.0</ele><time>2026-04-26T09:37:29.001Z</time></trkpt><trkpt lat="45.28297954683384" lon="8.242181880317426"><ele>151.0</ele><time>2026-04-26T09:37:30.001Z</time></trkpt><trkpt lat="45.283153444004256" lon="8.241910214518091"><ele>151.0</ele><time>2026-04-26T09:37:31.001Z</time></trkpt><trkpt lat="45.283326938992374" lon="8.241639177023393"><ele>151.0</ele><time>2026-04-26T09:37:32.001Z</time></trkpt><trkpt lat="45.283501205671335" lon="8.241366934294694"><ele>151.0</ele><time>2026-04-26T09:37:33.001Z</time></trkpt><trkpt lat="45.28367645135012" lon="8.241093907505725"><ele>151.0</ele><time>2026-04-26T09:37:34Z</time></trkpt><trkpt lat="45.2838503890394" lon="8.240822772213587"><ele>151.5</ele><time>2026-04-26T09:37:35Z</time></trkpt><trkpt lat="45.28402594549284" lon="8.240549113579258"><ele>152.0</ele><time>2026-04-26T09:37:36Z</time></trkpt><trkpt lat="45.284201241078584" lon="8.240275861577253"><ele>152.0</ele><time>2026-04-26T09:37:37Z</time></trkpt><trkpt lat="45.28437944931059" lon="8.239998069330936"><ele>152.0</ele><time>2026-04-26T09:37:38Z</time></trkpt><trkpt lat="45.28455582234203" lon="8.239723259162078"><ele>152.0</ele><time>2026-04-26T09:37:39Z</time></trkpt><trkpt lat="45.284731516358434" lon="8.239450242066535"><ele>152.0</ele><time>2026-04-26T09:37:40Z</time></trkpt><trkpt lat="45.28490715830004" lon="8.239177306018648"><ele>151.5</ele><time>2026-04-26T09:37:41Z</time></trkpt><trkpt lat="45.28508497824721" lon="8.238904463183147"><ele>151.0</ele><time>2026-04-26T09:37:42Z</time></trkpt><trkpt lat="45.28526081950628" lon="8.238630014317419"><ele>151.0</ele><time>2026-04-26T09:37:43Z</time></trkpt><trkpt lat="45.28543103993533" lon="8.238352823672534"><ele>151.0</ele><time>2026-04-26T09:37:44Z</time></trkpt><trkpt lat="45.2855988164523" lon="8.238069906074893"><ele>152.0</ele><time>2026-04-26T09:37:45Z</time></trkpt><trkpt lat="45.28576425137442" lon="8.237782400541798"><ele>153.0</ele><time>2026-04-26T09:37:46Z</time></trkpt><trkpt lat="45.28592824701202" lon="8.2374962458494"><ele>152.5</ele><time>2026-04-26T09:37:47Z</time></trkpt><trkpt lat="45.286091671634985" lon="8.23721108752314"><ele>152.0</ele><time>2026-04-26T09:37:48Z</time></trkpt><trkpt lat="45.2862561051286" lon="8.236924168828175"><ele>152.0</ele><time>2026-04-26T09:37:49Z</time></trkpt><trkpt lat="45.286419240756786" lon="8.236639514759329"><ele>152.0</ele><time>2026-04-26T09:37:50Z</time></trkpt><trkpt lat="45.286584755070756" lon="8.236351132569009"><ele>152.5</ele><time>2026-04-26T09:37:51Z</time></trkpt><trkpt lat="45.2867370528451" lon="8.236050265807538"><ele>153.0</ele><time>2026-04-26T09:37:52Z</time></trkpt><trkpt lat="45.286904393660045" lon="8.235767387367916"><ele>152.5</ele><time>2026-04-26T09:37:53Z</time></trkpt><trkpt lat="45.2870706187635" lon="8.235490771056053"><ele>152.0</ele><time>2026-04-26T09:37:54Z</time></trkpt><trkpt lat="45.28723688741447" lon="8.23520732579203"><ele>152.5</ele><time>2026-04-26T09:37:55Z</time></trkpt><trkpt lat="45.287397913426716" lon="8.234919472665469"><ele>153.0</ele><time>2026-04-26T09:37:56Z</time></trkpt><trkpt lat="45.28756720938449" lon="8.234622626715788"><ele>153.5</ele><time>2026-04-26T09:37:57Z</time></trkpt><trkpt lat="45.28773326544514" lon="8.234335079347288"><ele>154.0</ele><time>2026-04-26T09:37:58Z</time></trkpt><trkpt lat="45.28789999521604" lon="8.234046399694066"><ele>154.0</ele><time>2026-04-26T09:37:59Z</time></trkpt><trkpt lat="45.288060235901284" lon="8.233762999397525"><ele>154.0</ele><time>2026-04-26T09:38:00Z</time></trkpt><trkpt lat="45.288224285055996" lon="8.233475329177303"><ele>154.0</ele><time>2026-04-26T09:38:01Z</time></trkpt><trkpt lat="45.28839115899185" lon="8.233187356141919"><ele>154.0</ele><time>2026-04-26T09:38:02Z</time></trkpt><trkpt lat="45.28855548377954" lon="8.232900773287836"><ele>154.0</ele><time>2026-04-26T09:38:03Z</time></trkpt><trkpt lat="45.28871970593259" lon="8.232612080657608"><ele>154.0</ele><time>2026-04-26T09:38:04Z</time></trkpt><trkpt lat="45.28888296501807" lon="8.232318639110204"><ele>153.5</ele><time>2026-04-26T09:38:05Z</time></trkpt><trkpt lat="45.28905450036287" lon="8.232030760487762"><ele>153.0</ele><time>2026-04-26T09:38:06Z</time></trkpt><trkpt lat="45.289217961403025" lon="8.231738115721917"><ele>153.5</ele><time>2026-04-26T09:38:07Z</time></trkpt><trkpt lat="45.289386252485805" lon="8.231448875144222"><ele>154.0</ele><time>2026-04-26T09:38:08Z</time></trkpt><trkpt lat="45.289552418523584" lon="8.231158553457435"><ele>154.0</ele><time>2026-04-26T09:38:09Z</time></trkpt><trkpt lat="45.28973244989284" lon="8.230878103644567"><ele>154.0</ele><time>2026-04-26T09:38:10Z</time></trkpt><trkpt lat="45.28990083212108" lon="8.230586607894942"><ele>155.0</ele><time>2026-04-26T09:38:11Z</time></trkpt><trkpt lat="45.290066382494736" lon="8.23029964295459"><ele>156.0</ele><time>2026-04-26T09:38:12Z</time></trkpt><trkpt lat="45.29023148416069" lon="8.230012582743703"><ele>155.5</ele><time>2026-04-26T09:38:13Z</time></trkpt><trkpt lat="45.29039643953547" lon="8.22972577431362"><ele>155.0</ele><time>2026-04-26T09:38:14Z</time></trkpt><trkpt lat="45.29055164443598" lon="8.229426742399651"><ele>155.5</ele><time>2026-04-26T09:38:15Z</time></trkpt><trkpt lat="45.290727747044066" lon="8.229135459542219"><ele>156.0</ele><time>2026-04-26T09:38:16Z</time></trkpt><trkpt lat="45.29089108262798" lon="8.228848528767166"><ele>156.0</ele><time>2026-04-26T09:38:17Z</time></trkpt><trkpt lat="45.291054268860016" lon="8.228565361420948"><ele>156.0</ele><time>2026-04-26T09:38:18Z</time></trkpt><trkpt lat="45.29121789250284" lon="8.228285148742495"><ele>156.0</ele><time>2026-04-26T09:38:19Z</time></trkpt><trkpt lat="45.291380453912055" lon="8.228007852773146"><ele>156.0</ele><time>2026-04-26T09:38:20Z</time></trkpt><trkpt lat="45.2915422077037" lon="8.227727027840418"><ele>156.0</ele><time>2026-04-26T09:38:21Z</time></trkpt><trkpt lat="45.291703235211315" lon="8.227446152660402"><ele>156.0</ele><time>2026-04-26T09:38:22Z</time></trkpt><trkpt lat="45.29186252715841" lon="8.227167872401903"><ele>156.0</ele><time>2026-04-26T09:38:23Z</time></trkpt><trkpt lat="45.29201910918679" lon="8.226890226242409"><ele>156.0</ele><time>2026-04-26T09:38:24Z</time></trkpt><trkpt lat="45.29217629970136" lon="8.2266141215209"><ele>156.0</ele><time>2026-04-26T09:38:25Z</time></trkpt><trkpt lat="45.292334584046614" lon="8.22634213008358"><ele>156.0</ele><time>2026-04-26T09:38:26Z</time></trkpt><trkpt lat="45.292493152870364" lon="8.22607165055287"><ele>156.0</ele><time>2026-04-26T09:38:27Z</time></trkpt><trkpt lat="45.29264535994" lon="8.225792842271105"><ele>156.0</ele><time>2026-04-26T09:38:28Z</time></trkpt><trkpt lat="45.29280110001915" lon="8.225521861262227"><ele>156.0</ele><time>2026-04-26T09:38:29Z</time></trkpt><trkpt lat="45.2929493587689" lon="8.225273466560502"><ele>156.0</ele><time>2026-04-26T09:38:30Z</time></trkpt><trkpt lat="45.293103118581406" lon="8.225011741218525"><ele>156.5</ele><time>2026-04-26T09:38:31Z</time></trkpt><trkpt lat="45.29325499665773" lon="8.224743297249228"><ele>157.0</ele><time>2026-04-26T09:38:32Z</time></trkpt><trkpt lat="45.293407205212425" lon="8.224479359208473"><ele>157.0</ele><time>2026-04-26T09:38:33Z</time></trkpt><trkpt lat="45.293560551177166" lon="8.224212872231323"><ele>157.0</ele><time>2026-04-26T09:38:34Z</time></trkpt><trkpt lat="45.29371727348969" lon="8.223949814033066"><ele>157.0</ele><time>2026-04-26T09:38:35Z</time></trkpt><trkpt lat="45.29388057358496" lon="8.223699315648604"><ele>157.0</ele><time>2026-04-26T09:38:36Z</time></trkpt><trkpt lat="45.29404811494567" lon="8.22345063447307"><ele>157.0</ele><time>2026-04-26T09:38:37Z</time></trkpt><trkpt lat="45.29421793864322" lon="8.223215772784393"><ele>157.0</ele><time>2026-04-26T09:38:38Z</time></trkpt><trkpt lat="45.29438984960223" lon="8.222980933248998"><ele>157.0</ele><time>2026-04-26T09:38:39Z</time></trkpt><trkpt lat="45.29456985905913" lon="8.22273853217402"><ele>157.0</ele><time>2026-04-26T09:38:40Z</time></trkpt><trkpt lat="45.29474522108288" lon="8.222500859890252"><ele>157.0</ele><time>2026-04-26T09:38:41Z</time></trkpt><trkpt lat="45.29491566720058" lon="8.222268885115769"><ele>157.0</ele><time>2026-04-26T09:38:42Z</time></trkpt><trkpt lat="45.295088395327646" lon="8.222031206062887"><ele>157.0</ele><time>2026-04-26T09:38:43Z</time></trkpt><trkpt lat="45.29526317803357" lon="8.221795626620652"><ele>157.0</ele><time>2026-04-26T09:38:44Z</time></trkpt><trkpt lat="45.29543612351091" lon="8.221558630965227"><ele>157.0</ele><time>2026-04-26T09:38:45Z</time></trkpt><trkpt lat="45.29560783881922" lon="8.221319395996115"><ele>157.0</ele><time>2026-04-26T09:38:46Z</time></trkpt><trkpt lat="45.295782334440446" lon="8.221082421169587"><ele>157.0</ele><time>2026-04-26T09:38:47Z</time></trkpt><trkpt lat="45.295960104459766" lon="8.220846234993697"><ele>157.0</ele><time>2026-04-26T09:38:48Z</time></trkpt><trkpt lat="45.29613844214781" lon="8.220608979214857"><ele>157.5</ele><time>2026-04-26T09:38:49Z</time></trkpt><trkpt lat="45.29631657817001" lon="8.220368859047175"><ele>158.0</ele><time>2026-04-26T09:38:50Z</time></trkpt><trkpt lat="45.29649370092227" lon="8.220124459994162"><ele>158.0</ele><time>2026-04-26T09:38:51Z</time></trkpt><trkpt lat="45.296671018613864" lon="8.21988114184529"><ele>158.0</ele><time>2026-04-26T09:38:52Z</time></trkpt><trkpt lat="45.29685023760349" lon="8.219637776032313"><ele>158.5</ele><time>2026-04-26T09:38:53Z</time></trkpt><trkpt lat="45.297032122641234" lon="8.219393159314365"><ele>159.0</ele><time>2026-04-26T09:38:54Z</time></trkpt><trkpt lat="45.29721492025526" lon="8.21914797093442"><ele>158.5</ele><time>2026-04-26T09:38:55Z</time></trkpt><trkpt lat="45.29739932979388" lon="8.218901767903633"><ele>158.0</ele><time>2026-04-26T09:38:56Z</time></trkpt><trkpt lat="45.297581669288256" lon="8.218644543995614"><ele>158.0</ele><time>2026-04-26T09:38:57Z</time></trkpt><trkpt lat="45.29776634355858" lon="8.21838644443747"><ele>158.0</ele><time>2026-04-26T09:38:58Z</time></trkpt><trkpt lat="45.29795055982022" lon="8.218130676169753"><ele>159.0</ele><time>2026-04-26T09:38:59Z</time></trkpt><trkpt lat="45.29813520017392" lon="8.217879963896337"><ele>160.0</ele><time>2026-04-26T09:39:00Z</time></trkpt><trkpt lat="45.29832285330287" lon="8.217627896667654"><ele>160.0</ele><time>2026-04-26T09:39:01Z</time></trkpt><trkpt lat="45.29851295774161" lon="8.217378424218984"><ele>160.0</ele><time>2026-04-26T09:39:02Z</time></trkpt><trkpt lat="45.298703112167445" lon="8.217127496030978"><ele>159.5</ele><time>2026-04-26T09:39:03Z</time></trkpt><trkpt lat="45.298894557103694" lon="8.216875813705096"><ele>159.0</ele><time>2026-04-26T09:39:04Z</time></trkpt><trkpt lat="45.29908413564936" lon="8.216619474650617"><ele>160.0</ele><time>2026-04-26T09:39:05Z</time></trkpt><trkpt lat="45.29926947245468" lon="8.216359609364213"><ele>161.0</ele><time>2026-04-26T09:39:06Z</time></trkpt><trkpt lat="45.299454241617354" lon="8.216099134415645"><ele>161.0</ele><time>2026-04-26T09:39:07Z</time></trkpt><trkpt lat="45.29964410609788" lon="8.215839660823393"><ele>161.0</ele><time>2026-04-26T09:39:08Z</time></trkpt><trkpt lat="45.299832635431585" lon="8.215581382856323"><ele>160.0</ele><time>2026-04-26T09:39:09Z</time></trkpt><trkpt lat="45.300023231966925" lon="8.215318421071828"><ele>159.0</ele><time>2026-04-26T09:39:10.001Z</time></trkpt><trkpt lat="45.30021739646551" lon="8.215064889415862"><ele>159.0</ele><time>2026-04-26T09:39:11.001Z</time></trkpt><trkpt lat="45.300409639909596" lon="8.214808718821887"><ele>159.0</ele><time>2026-04-26T09:39:12.001Z</time></trkpt><trkpt lat="45.30060212657367" lon="8.214550731213276"><ele>160.0</ele><time>2026-04-26T09:39:13.001Z</time></trkpt><trkpt lat="45.30079499400761" lon="8.214289100471476"><ele>161.0</ele><time>2026-04-26T09:39:14.001Z</time></trkpt><trkpt lat="45.300986411451895" lon="8.214027975435856"><ele>161.0</ele><time>2026-04-26T09:39:15.001Z</time></trkpt><trkpt lat="45.30117776309545" lon="8.213765570128327"><ele>161.0</ele><time>2026-04-26T09:39:16.001Z</time></trkpt><trkpt lat="45.30136831480191" lon="8.213503086208023"><ele>161.0</ele><time>2026-04-26T09:39:17.001Z</time></trkpt><trkpt lat="45.301559824408024" lon="8.213241013530832"><ele>161.0</ele><time>2026-04-26T09:39:18.001Z</time></trkpt><trkpt lat="45.30175191328104" lon="8.212979093311302"><ele>161.5</ele><time>2026-04-26T09:39:19.001Z</time></trkpt><trkpt lat="45.30194666713818" lon="8.212719509095887"><ele>162.0</ele><time>2026-04-26T09:39:20.001Z</time></trkpt><trkpt lat="45.30214050811648" lon="8.212458257282503"><ele>161.5</ele><time>2026-04-26T09:39:21.001Z</time></trkpt><trkpt lat="45.30233380381836" lon="8.212196104887976"><ele>161.0</ele><time>2026-04-26T09:39:22.001Z</time></trkpt><trkpt lat="45.3025542135911" lon="8.211972098055352"><ele>161.0</ele><time>2026-04-26T09:39:23.001Z</time></trkpt><trkpt lat="45.30274849624156" lon="8.211708233178351"><ele>161.0</ele><time>2026-04-26T09:39:24.001Z</time></trkpt><trkpt lat="45.30294340646798" lon="8.211443515807124"><ele>160.5</ele><time>2026-04-26T09:39:25.001Z</time></trkpt><trkpt lat="45.30313785291014" lon="8.211178838948891"><ele>160.0</ele><time>2026-04-26T09:39:26.001Z</time></trkpt><trkpt lat="45.3033321885677" lon="8.210914238560848"><ele>160.0</ele><time>2026-04-26T09:39:27.001Z</time></trkpt><trkpt lat="45.303527275102944" lon="8.21064893212523"><ele>160.0</ele><time>2026-04-26T09:39:28.001Z</time></trkpt><trkpt lat="45.30372462499606" lon="8.210382512725253"><ele>160.0</ele><time>2026-04-26T09:39:29.001Z</time></trkpt><trkpt lat="45.303921827433605" lon="8.210116292790778"><ele>160.0</ele><time>2026-04-26T09:39:30.001Z</time></trkpt><trkpt lat="45.304118472768266" lon="8.209850825235062"><ele>160.0</ele><time>2026-04-26T09:39:31.001Z</time></trkpt><trkpt lat="45.304314296307844" lon="8.20958646625112"><ele>160.0</ele><time>2026-04-26T09:39:32.001Z</time></trkpt><trkpt lat="45.30451129470436" lon="8.209320521873906"><ele>160.0</ele><time>2026-04-26T09:39:33.001Z</time></trkpt><trkpt lat="45.304707982364555" lon="8.209054839838622"><ele>160.0</ele><time>2026-04-26T09:39:34.001Z</time></trkpt><trkpt lat="45.3049036102319" lon="8.208787894587513"><ele>161.0</ele><time>2026-04-26T09:39:35.001Z</time></trkpt><trkpt lat="45.30509929230356" lon="8.20852087516327"><ele>162.0</ele><time>2026-04-26T09:39:36.001Z</time></trkpt><trkpt lat="45.30529372551578" lon="8.208255559921959"><ele>161.5</ele><time>2026-04-26T09:39:37.001Z</time></trkpt><trkpt lat="45.305488182081845" lon="8.207992991057267"><ele>161.0</ele><time>2026-04-26T09:39:38.001Z</time></trkpt><trkpt lat="45.30568242250557" lon="8.207731333243983"><ele>161.0</ele><time>2026-04-26T09:39:39.001Z</time></trkpt><trkpt lat="45.3058766835779" lon="8.207469019281998"><ele>161.0</ele><time>2026-04-26T09:39:40Z</time></trkpt><trkpt lat="45.30606974871289" lon="8.207206924118989"><ele>161.5</ele><time>2026-04-26T09:39:41Z</time></trkpt><trkpt lat="45.306261841060476" lon="8.206944077472738"><ele>162.0</ele><time>2026-04-26T09:39:42Z</time></trkpt><trkpt lat="45.306454681895914" lon="8.206680650130616"><ele>161.5</ele><time>2026-04-26T09:39:43Z</time></trkpt><trkpt lat="45.306647510260625" lon="8.206417740615334"><ele>161.0</ele><time>2026-04-26T09:39:44Z</time></trkpt><trkpt lat="45.30684108789669" lon="8.206154093819682"><ele>161.0</ele><time>2026-04-26T09:39:45Z</time></trkpt><trkpt lat="45.30703595583332" lon="8.205891369837522"><ele>161.0</ele><time>2026-04-26T09:39:46Z</time></trkpt><trkpt lat="45.30723060410707" lon="8.205628942100901"><ele>161.5</ele><time>2026-04-26T09:39:47Z</time></trkpt><trkpt lat="45.30742585635037" lon="8.205365700043044"><ele>162.0</ele><time>2026-04-26T09:39:48Z</time></trkpt><trkpt lat="45.307620595978264" lon="8.205103149260893"><ele>162.0</ele><time>2026-04-26T09:39:49Z</time></trkpt><trkpt lat="45.30781391394351" lon="8.204840876585157"><ele>162.0</ele><time>2026-04-26T09:39:50Z</time></trkpt><trkpt lat="45.308007637704826" lon="8.204577631272402"><ele>162.5</ele><time>2026-04-26T09:39:51Z</time></trkpt><trkpt lat="45.30820040758351" lon="8.204315681886618"><ele>163.0</ele><time>2026-04-26T09:39:52Z</time></trkpt><trkpt lat="45.308392972468546" lon="8.204055243669623"><ele>163.0</ele><time>2026-04-26T09:39:53Z</time></trkpt><trkpt lat="45.30858692270136" lon="8.203795782065312"><ele>163.0</ele><time>2026-04-26T09:39:54Z</time></trkpt><trkpt lat="45.30878076585622" lon="8.203536916054952"><ele>163.5</ele><time>2026-04-26T09:39:55Z</time></trkpt><trkpt lat="45.30897424639576" lon="8.203278534290966"><ele>164.0</ele><time>2026-04-26T09:39:56Z</time></trkpt><trkpt lat="45.30916606983732" lon="8.203022365500665"><ele>164.0</ele><time>2026-04-26T09:39:57Z</time></trkpt><trkpt lat="45.30935726914146" lon="8.202769133676753"><ele>164.0</ele><time>2026-04-26T09:39:58Z</time></trkpt><trkpt lat="45.30956007255217" lon="8.202552578666797"><ele>164.0</ele><time>2026-04-26T09:39:59Z</time></trkpt><trkpt lat="45.309777212142926" lon="8.202363638924053"><ele>164.0</ele><time>2026-04-26T09:40:00Z</time></trkpt><trkpt lat="45.31000615230527" lon="8.202198507452312"><ele>164.0</ele><time>2026-04-26T09:40:01Z</time></trkpt><trkpt lat="45.31023984730363" lon="8.202047476532586"><ele>164.0</ele><time>2026-04-26T09:40:02Z</time></trkpt><trkpt lat="45.31047436788884" lon="8.201898717625689"><ele>163.5</ele><time>2026-04-26T09:40:03Z</time></trkpt><trkpt lat="45.310708608520024" lon="8.201748176809334"><ele>163.0</ele><time>2026-04-26T09:40:04Z</time></trkpt><trkpt lat="45.3109432303754" lon="8.201596315396054"><ele>163.5</ele><time>2026-04-26T09:40:05Z</time></trkpt><trkpt lat="45.31117973883021" lon="8.201443232765877"><ele>164.0</ele><time>2026-04-26T09:40:06Z</time></trkpt><trkpt lat="45.31141640364372" lon="8.201292261321347"><ele>164.0</ele><time>2026-04-26T09:40:07Z</time></trkpt><trkpt lat="45.31165505611158" lon="8.20114016535088"><ele>164.0</ele><time>2026-04-26T09:40:08Z</time></trkpt><trkpt lat="45.3118932202716" lon="8.200988090383218"><ele>164.0</ele><time>2026-04-26T09:40:09Z</time></trkpt><trkpt lat="45.31213142318263" lon="8.200834676642094"><ele>164.0</ele><time>2026-04-26T09:40:10Z</time></trkpt><trkpt lat="45.31236908088241" lon="8.200681614003978"><ele>164.5</ele><time>2026-04-26T09:40:11Z</time></trkpt><trkpt lat="45.31260601172392" lon="8.200529391819865"><ele>165.0</ele><time>2026-04-26T09:40:12Z</time></trkpt><trkpt lat="45.31284351241945" lon="8.200378951809366"><ele>165.0</ele><time>2026-04-26T09:40:13Z</time></trkpt><trkpt lat="45.31308111050512" lon="8.200227167026151"><ele>165.0</ele><time>2026-04-26T09:40:14Z</time></trkpt><trkpt lat="45.313318095030226" lon="8.200074698064247"><ele>165.0</ele><time>2026-04-26T09:40:15Z</time></trkpt><trkpt lat="45.313554807627376" lon="8.19992240372031"><ele>165.0</ele><time>2026-04-26T09:40:16Z</time></trkpt><trkpt lat="45.313793236436055" lon="8.199769001691685"><ele>165.0</ele><time>2026-04-26T09:40:17Z</time></trkpt><trkpt lat="45.31403072655316" lon="8.199616203605464"><ele>165.0</ele><time>2026-04-26T09:40:18Z</time></trkpt><trkpt lat="45.314268067528076" lon="8.199461493505064"><ele>165.0</ele><time>2026-04-26T09:40:19Z</time></trkpt><trkpt lat="45.31449584801286" lon="8.199276458443261"><ele>165.0</ele><time>2026-04-26T09:40:20Z</time></trkpt><trkpt lat="45.31473233820869" lon="8.19912312132199"><ele>165.5</ele><time>2026-04-26T09:40:21Z</time></trkpt><trkpt lat="45.31496859755235" lon="8.198967923650288"><ele>166.0</ele><time>2026-04-26T09:40:22Z</time></trkpt><trkpt lat="45.31520513793943" lon="8.198813129074948"><ele>166.0</ele><time>2026-04-26T09:40:23Z</time></trkpt><trkpt lat="45.31544182640456" lon="8.198658242043653"><ele>166.0</ele><time>2026-04-26T09:40:24Z</time></trkpt><trkpt lat="45.31567866554064" lon="8.198504641290377"><ele>166.0</ele><time>2026-04-26T09:40:25Z</time></trkpt><trkpt lat="45.31591599541431" lon="8.198352741876967"><ele>166.0</ele><time>2026-04-26T09:40:26Z</time></trkpt><trkpt lat="45.3161525817161" lon="8.198202682742396"><ele>166.0</ele><time>2026-04-26T09:40:27Z</time></trkpt><trkpt lat="45.31638992414542" lon="8.198051444860036"><ele>166.0</ele><time>2026-04-26T09:40:28Z</time></trkpt><trkpt lat="45.31662524031684" lon="8.197899279323055"><ele>166.0</ele><time>2026-04-26T09:40:29Z</time></trkpt><trkpt lat="45.31686057306854" lon="8.197744237561023"><ele>166.0</ele><time>2026-04-26T09:40:30Z</time></trkpt><trkpt lat="45.31709362144494" lon="8.197587406674666"><ele>166.5</ele><time>2026-04-26T09:40:31Z</time></trkpt><trkpt lat="45.317326520450756" lon="8.197430555194401"><ele>167.0</ele><time>2026-04-26T09:40:32Z</time></trkpt><trkpt lat="45.31756227235172" lon="8.197277715218327"><ele>167.0</ele><time>2026-04-26T09:40:33Z</time></trkpt><trkpt lat="45.31779938810819" lon="8.197126322871783"><ele>167.0</ele><time>2026-04-26T09:40:34Z</time></trkpt><trkpt lat="45.31803564882527" lon="8.19697389761573"><ele>166.5</ele><time>2026-04-26T09:40:35Z</time></trkpt><trkpt lat="45.31827273930969" lon="8.196822069620811"><ele>166.0</ele><time>2026-04-26T09:40:36Z</time></trkpt><trkpt lat="45.31850911229587" lon="8.196670657134803"><ele>166.0</ele><time>2026-04-26T09:40:37Z</time></trkpt><trkpt lat="45.3187460179872" lon="8.196518717811886"><ele>166.0</ele><time>2026-04-26T09:40:38Z</time></trkpt><trkpt lat="45.31898239130498" lon="8.196367180780978"><ele>166.0</ele><time>2026-04-26T09:40:39Z</time></trkpt><trkpt lat="45.319219688289174" lon="8.196214354066045"><ele>166.0</ele><time>2026-04-26T09:40:40Z</time></trkpt><trkpt lat="45.31945689175921" lon="8.196061474701027"><ele>166.0</ele><time>2026-04-26T09:40:41Z</time></trkpt><trkpt lat="45.31969322727839" lon="8.195910286078703"><ele>166.0</ele><time>2026-04-26T09:40:42Z</time></trkpt><trkpt lat="45.31992916025135" lon="8.195760318058865"><ele>165.5</ele><time>2026-04-26T09:40:43Z</time></trkpt><trkpt lat="45.320165254229" lon="8.195610376628007"><ele>165.0</ele><time>2026-04-26T09:40:44Z</time></trkpt><trkpt lat="45.32040149662776" lon="8.19545919321947"><ele>165.5</ele><time>2026-04-26T09:40:45Z</time></trkpt><trkpt lat="45.32063629327207" lon="8.195310424754926"><ele>166.0</ele><time>2026-04-26T09:40:46Z</time></trkpt><trkpt lat="45.3208695911535" lon="8.19516315894943"><ele>166.0</ele><time>2026-04-26T09:40:47Z</time></trkpt><trkpt lat="45.32109996863185" lon="8.195018344100353"><ele>166.0</ele><time>2026-04-26T09:40:48Z</time></trkpt><trkpt lat="45.321328475817424" lon="8.194872179986243"><ele>167.0</ele><time>2026-04-26T09:40:49Z</time></trkpt><trkpt lat="45.32155694131105" lon="8.194723804550453"><ele>168.0</ele><time>2026-04-26T09:40:50Z</time></trkpt><trkpt lat="45.321788401239814" lon="8.194570167278417"><ele>168.0</ele><time>2026-04-26T09:40:51Z</time></trkpt><trkpt lat="45.322019540525" lon="8.194420977527091"><ele>168.0</ele><time>2026-04-26T09:40:52Z</time></trkpt><trkpt lat="45.32224897234831" lon="8.194269828056687"><ele>168.5</ele><time>2026-04-26T09:40:53Z</time></trkpt><trkpt lat="45.322478798428484" lon="8.194118656249126"><ele>169.0</ele><time>2026-04-26T09:40:54Z</time></trkpt><trkpt lat="45.322710025296495" lon="8.193967421654833"><ele>169.0</ele><time>2026-04-26T09:40:55Z</time></trkpt><trkpt lat="45.322940871983974" lon="8.193818042969154"><ele>169.0</ele><time>2026-04-26T09:40:56Z</time></trkpt><trkpt lat="45.3231712309088" lon="8.19366807713168"><ele>169.0</ele><time>2026-04-26T09:40:57Z</time></trkpt><trkpt lat="45.32340261909472" lon="8.193518189601885"><ele>169.0</ele><time>2026-04-26T09:40:58Z</time></trkpt><trkpt lat="45.323634406916106" lon="8.19336939343089"><ele>169.0</ele><time>2026-04-26T09:40:59Z</time></trkpt><trkpt lat="45.32386634128328" lon="8.193219463628482"><ele>169.0</ele><time>2026-04-26T09:41:00Z</time></trkpt><trkpt lat="45.32409691303186" lon="8.19307082263492"><ele>169.0</ele><time>2026-04-26T09:41:01Z</time></trkpt><trkpt lat="45.3243255119569" lon="8.192923913718909"><ele>169.0</ele><time>2026-04-26T09:41:02Z</time></trkpt><trkpt lat="45.32455275944826" lon="8.19277326145766"><ele>169.0</ele><time>2026-04-26T09:41:03Z</time></trkpt><trkpt lat="45.32477456898641" lon="8.192614935960114"><ele>169.0</ele><time>2026-04-26T09:41:04Z</time></trkpt><trkpt lat="45.32498132138953" lon="8.192417015125864"><ele>169.5</ele><time>2026-04-26T09:41:05Z</time></trkpt><trkpt lat="45.325170903691614" lon="8.192189003146403"><ele>170.0</ele><time>2026-04-26T09:41:06Z</time></trkpt><trkpt lat="45.32534847931239" lon="8.191939820181544"><ele>170.0</ele><time>2026-04-26T09:41:07Z</time></trkpt><trkpt lat="45.32552531157883" lon="8.191688972894932"><ele>170.0</ele><time>2026-04-26T09:41:08Z</time></trkpt><trkpt lat="45.32571300205288" lon="8.191451901345179"><ele>171.0</ele><time>2026-04-26T09:41:09Z</time></trkpt><trkpt lat="45.32591937843071" lon="8.191246210387279"><ele>172.0</ele><time>2026-04-26T09:41:10Z</time></trkpt><trkpt lat="45.32613220900162" lon="8.191053240998935"><ele>172.0</ele><time>2026-04-26T09:41:11Z</time></trkpt><trkpt lat="45.32634616010049" lon="8.19086226708468"><ele>172.0</ele><time>2026-04-26T09:41:12Z</time></trkpt><trkpt lat="45.3265594195494" lon="8.19066769903065"><ele>171.0</ele><time>2026-04-26T09:41:13Z</time></trkpt><trkpt lat="45.32677198786779" lon="8.190469738149181"><ele>170.0</ele><time>2026-04-26T09:41:14Z</time></trkpt><trkpt lat="45.326985731790536" lon="8.190270064294793"><ele>170.0</ele><time>2026-04-26T09:41:15Z</time></trkpt><trkpt lat="45.32720074458072" lon="8.190070712378882"><ele>170.0</ele><time>2026-04-26T09:41:16Z</time></trkpt><trkpt lat="45.32741757917226" lon="8.189870166844953"><ele>170.0</ele><time>2026-04-26T09:41:17.001Z</time></trkpt><trkpt lat="45.327636619277314" lon="8.189668625697536"><ele>170.0</ele><time>2026-04-26T09:41:18.001Z</time></trkpt><trkpt lat="45.32785715575084" lon="8.189467713506067"><ele>170.5</ele><time>2026-04-26T09:41:19.001Z</time></trkpt><trkpt lat="45.32807748034728" lon="8.18926807692556"><ele>171.0</ele><time>2026-04-26T09:41:20.001Z</time></trkpt><trkpt lat="45.32829823155895" lon="8.18906851721258"><ele>171.0</ele><time>2026-04-26T09:41:21.001Z</time></trkpt><trkpt lat="45.32851851250847" lon="8.1888684691467"><ele>171.0</ele><time>2026-04-26T09:41:22.001Z</time></trkpt><trkpt lat="45.32873864868044" lon="8.188668109153483"><ele>171.5</ele><time>2026-04-26T09:41:23.001Z</time></trkpt><trkpt lat="45.32895893019271" lon="8.18846724610752"><ele>172.0</ele><time>2026-04-26T09:41:24.001Z</time></trkpt><trkpt lat="45.329202065409575" lon="8.188314728782325"><ele>171.5</ele><time>2026-04-26T09:41:25.001Z</time></trkpt><trkpt lat="45.329422663614054" lon="8.188111668836182"><ele>171.0</ele><time>2026-04-26T09:41:26.001Z</time></trkpt><trkpt lat="45.329643620627145" lon="8.187908521081352"><ele>171.0</ele><time>2026-04-26T09:41:27.001Z</time></trkpt><trkpt lat="45.32986679528725" lon="8.187707627400036"><ele>171.0</ele><time>2026-04-26T09:41:28.001Z</time></trkpt><trkpt lat="45.330090202919834" lon="8.187503959121514"><ele>171.0</ele><time>2026-04-26T09:41:29.001Z</time></trkpt><trkpt lat="45.33031275447458" lon="8.187299896108216"><ele>171.0</ele><time>2026-04-26T09:41:30.001Z</time></trkpt><trkpt lat="45.33053715875753" lon="8.187097585466972"><ele>172.5</ele><time>2026-04-26T09:41:31.001Z</time></trkpt><trkpt lat="45.330761635536156" lon="8.186893858367638"><ele>174.0</ele><time>2026-04-26T09:41:32.001Z</time></trkpt><trkpt lat="45.330985492808374" lon="8.186688248984854"><ele>173.5</ele><time>2026-04-26T09:41:33.001Z</time></trkpt><trkpt lat="45.33120943308477" lon="8.186481627905483"><ele>173.0</ele><time>2026-04-26T09:41:34.001Z</time></trkpt><trkpt lat="45.33143444921945" lon="8.186277662842256"><ele>173.0</ele><time>2026-04-26T09:41:35.001Z</time></trkpt><trkpt lat="45.33165946969532" lon="8.186074508524763"><ele>173.0</ele><time>2026-04-26T09:41:36.001Z</time></trkpt><trkpt lat="45.33188567523214" lon="8.185870768740203"><ele>172.5</ele><time>2026-04-26T09:41:37.001Z</time></trkpt><trkpt lat="45.33211011996781" lon="8.185665372937512"><ele>172.0</ele><time>2026-04-26T09:41:38.001Z</time></trkpt><trkpt lat="45.33233379369679" lon="8.1854606827108"><ele>172.0</ele><time>2026-04-26T09:41:39.001Z</time></trkpt><trkpt lat="45.332557650815644" lon="8.185255528342354"><ele>172.0</ele><time>2026-04-26T09:41:40.001Z</time></trkpt><trkpt lat="45.3327813582688" lon="8.185049504984747"><ele>172.0</ele><time>2026-04-26T09:41:41.001Z</time></trkpt><trkpt lat="45.33299663760048" lon="8.184854300263277"><ele>172.0</ele><time>2026-04-26T09:41:42.001Z</time></trkpt><trkpt lat="45.3332008447503" lon="8.18467379522816"><ele>172.33333333333334</ele><time>2026-04-26T09:41:43.001Z</time></trkpt><trkpt lat="45.333394254035426" lon="8.184497978400232"><ele>172.66666666666666</ele><time>2026-04-26T09:41:44.001Z</time></trkpt><trkpt lat="45.33357651566438" lon="8.184330496995168"><ele>173.0</ele><time>2026-04-26T09:41:45.001Z</time></trkpt><trkpt lat="45.33375264771146" lon="8.1841703268879"><ele>173.0</ele><time>2026-04-26T09:41:46Z</time></trkpt><trkpt lat="45.33391995003561" lon="8.184018658372002"><ele>173.0</ele><time>2026-04-26T09:41:47Z</time></trkpt><trkpt lat="45.3340780647338" lon="8.183874316601118"><ele>173.0</ele><time>2026-04-26T09:41:48Z</time></trkpt><trkpt lat="45.33422707531082" lon="8.183737998010852"><ele>173.33333333333331</ele><time>2026-04-26T09:41:49Z</time></trkpt><trkpt lat="45.33437037000308" lon="8.183607787319758"><ele>173.66666666666666</ele><time>2026-04-26T09:41:50Z</time></trkpt><trkpt lat="45.33450713360638" lon="8.18348332732367"><ele>174.0</ele><time>2026-04-26T09:41:51Z</time></trkpt><trkpt lat="45.33463925179601" lon="8.183363094823363"><ele>174.0</ele><time>2026-04-26T09:41:52Z</time></trkpt><trkpt lat="45.334769804704" lon="8.183244286832728"><ele>174.0</ele><time>2026-04-26T09:41:53Z</time></trkpt><trkpt lat="45.33490446733654" lon="8.183119914211261"><ele>174.0</ele><time>2026-04-26T09:41:54Z</time></trkpt><trkpt lat="45.33504197385507" lon="8.182992337856811"><ele>174.66666666666666</ele><time>2026-04-26T09:41:55Z</time></trkpt><trkpt lat="45.335182391135355" lon="8.18286400141129"><ele>175.33333333333331</ele><time>2026-04-26T09:41:56Z</time></trkpt><trkpt lat="45.33532554124683" lon="8.182733550389587"><ele>176.0</ele><time>2026-04-26T09:41:57Z</time></trkpt><trkpt lat="45.335473684116906" lon="8.182600176356635"><ele>175.66666666666666</ele><time>2026-04-26T09:41:58Z</time></trkpt><trkpt lat="45.33562550926243" lon="8.182466119647282"><ele>175.33333333333334</ele><time>2026-04-26T09:41:59Z</time></trkpt><trkpt lat="45.33578041229373" lon="8.18232934532378"><ele>175.0</ele><time>2026-04-26T09:42:00Z</time></trkpt><trkpt lat="45.335936117697685" lon="8.182188343535065"><ele>175.0</ele><time>2026-04-26T09:42:01Z</time></trkpt><trkpt lat="45.33609107590719" lon="8.182047556911632"><ele>175.0</ele><time>2026-04-26T09:42:02Z</time></trkpt><trkpt lat="45.33624599710723" lon="8.18190680231949"><ele>175.0</ele><time>2026-04-26T09:42:03Z</time></trkpt><trkpt lat="45.336400343041" lon="8.181766570386625"><ele>175.0</ele><time>2026-04-26T09:42:04Z</time></trkpt><trkpt lat="45.33655474618451" lon="8.181626285970015"><ele>175.0</ele><time>2026-04-26T09:42:05Z</time></trkpt><trkpt lat="45.33670757127709" lon="8.181486872240491"><ele>175.0</ele><time>2026-04-26T09:42:06Z</time></trkpt><trkpt lat="45.33686034628247" lon="8.181348331322702"><ele>174.66666666666669</ele><time>2026-04-26T09:42:07Z</time></trkpt><trkpt lat="45.33701028715512" lon="8.181212360532458"><ele>174.33333333333334</ele><time>2026-04-26T09:42:08Z</time></trkpt><trkpt lat="45.33715898895844" lon="8.181077513351292"><ele>174.0</ele><time>2026-04-26T09:42:09Z</time></trkpt><trkpt lat="45.33730573128897" lon="8.180944443077722"><ele>174.66666666666666</ele><time>2026-04-26T09:42:10Z</time></trkpt><trkpt lat="45.33745175084627" lon="8.180812028253644"><ele>175.33333333333331</ele><time>2026-04-26T09:42:11Z</time></trkpt><trkpt lat="45.33759662645736" lon="8.180680645993965"><ele>176.0</ele><time>2026-04-26T09:42:12Z</time></trkpt><trkpt lat="45.33773721947895" lon="8.180553113520208"><ele>176.0</ele><time>2026-04-26T09:42:13Z</time></trkpt><trkpt lat="45.33787229053814" lon="8.180430590058497"><ele>176.0</ele><time>2026-04-26T09:42:14Z</time></trkpt><trkpt lat="45.33800158951942" lon="8.180313302451099"><ele>176.0</ele><time>2026-04-26T09:42:15Z</time></trkpt><trkpt lat="45.33812275072481" lon="8.180203396653246"><ele>176.0</ele><time>2026-04-26T09:42:16Z</time></trkpt><trkpt lat="45.338237929540114" lon="8.180098917516046"><ele>176.0</ele><time>2026-04-26T09:42:17Z</time></trkpt><trkpt lat="45.33834904297667" lon="8.179998126113324"><ele>176.0</ele><time>2026-04-26T09:42:18Z</time></trkpt><trkpt lat="45.33845773353502" lon="8.179899532472565"><ele>176.0</ele><time>2026-04-26T09:42:19Z</time></trkpt><trkpt lat="45.33855580708103" lon="8.17981056955655"><ele>176.20000000000002</ele><time>2026-04-26T09:42:20Z</time></trkpt><trkpt lat="45.3386423987019" lon="8.179732022003193"><ele>176.4</ele><time>2026-04-26T09:42:21Z</time></trkpt><trkpt lat="45.33870862723574" lon="8.179658578261165"><ele>176.6</ele><time>2026-04-26T09:42:22Z</time></trkpt><trkpt lat="45.3387649066353" lon="8.179608317822163"><ele>176.8</ele><time>2026-04-26T09:42:23Z</time></trkpt><trkpt lat="45.338844224703294" lon="8.17952313514621"><ele>177.0</ele><time>2026-04-26T09:42:25Z</time></trkpt><trkpt lat="45.33877253827552" lon="8.179334178057939"><ele>177.0</ele><time>2026-04-26T09:42:27Z</time></trkpt><trkpt lat="45.33870052001603" lon="8.179243594477109"><ele>177.0</ele><time>2026-04-26T09:42:28Z</time></trkpt><trkpt lat="45.338629387242186" lon="8.179127683289462"><ele>177.0</ele><time>2026-04-26T09:42:29Z</time></trkpt><trkpt lat="45.33855136678417" lon="8.17898602268776"><ele>177.0</ele><time>2026-04-26T09:42:30Z</time></trkpt><trkpt lat="45.338474081236306" lon="8.178849039317143"><ele>177.0</ele><time>2026-04-26T09:42:31Z</time></trkpt><trkpt lat="45.33840044866787" lon="8.178704128333917"><ele>177.0</ele><time>2026-04-26T09:42:32Z</time></trkpt><trkpt lat="45.3383255724407" lon="8.178545580551818"><ele>177.0</ele><time>2026-04-26T09:42:33Z</time></trkpt><trkpt lat="45.338253121727476" lon="8.17837350396422"><ele>177.0</ele><time>2026-04-26T09:42:34Z</time></trkpt><trkpt lat="45.33818132448854" lon="8.178186194629593"><ele>177.33333333333334</ele><time>2026-04-26T09:42:35Z</time></trkpt><trkpt lat="45.3381081285914" lon="8.177986516383735"><ele>177.66666666666669</ele><time>2026-04-26T09:42:36Z</time></trkpt><trkpt lat="45.33805022610605" lon="8.177770827746667"><ele>178.0</ele><time>2026-04-26T09:42:37Z</time></trkpt><trkpt lat="45.337987580391506" lon="8.177569573465254"><ele>178.0</ele><time>2026-04-26T09:42:38Z</time></trkpt><trkpt lat="45.33791368984535" lon="8.177361544575529"><ele>178.0</ele><time>2026-04-26T09:42:39Z</time></trkpt><trkpt lat="45.33786057738148" lon="8.17713880248423"><ele>178.0</ele><time>2026-04-26T09:42:40Z</time></trkpt><trkpt lat="45.33780988836101" lon="8.176907543212572"><ele>177.66666666666669</ele><time>2026-04-26T09:42:41Z</time></trkpt><trkpt lat="45.337777636232616" lon="8.176677078839186"><ele>177.33333333333334</ele><time>2026-04-26T09:42:42Z</time></trkpt><trkpt lat="45.33773820985907" lon="8.176428352869351"><ele>177.0</ele><time>2026-04-26T09:42:43Z</time></trkpt><trkpt lat="45.337702842464125" lon="8.176172592816327"><ele>177.0</ele><time>2026-04-26T09:42:44Z</time></trkpt><trkpt lat="45.3376767181283" lon="8.175911257588346"><ele>177.0</ele><time>2026-04-26T09:42:45Z</time></trkpt><trkpt lat="45.33766024289765" lon="8.175649631621289"><ele>177.0</ele><time>2026-04-26T09:42:46Z</time></trkpt><trkpt lat="45.33765274484978" lon="8.175379861298333"><ele>177.0</ele><time>2026-04-26T09:42:47Z</time></trkpt><trkpt lat="45.33765238206733" lon="8.17510947330129"><ele>177.0</ele><time>2026-04-26T09:42:48Z</time></trkpt><trkpt lat="45.33765782269032" lon="8.174838679990284"><ele>177.0</ele><time>2026-04-26T09:42:49Z</time></trkpt><trkpt lat="45.33767175661605" lon="8.17456892682033"><ele>176.66666666666666</ele><time>2026-04-26T09:42:50Z</time></trkpt><trkpt lat="45.337692123450886" lon="8.174301064231965"><ele>176.33333333333331</ele><time>2026-04-26T09:42:51Z</time></trkpt><trkpt lat="45.33771982577419" lon="8.174034302318374"><ele>176.0</ele><time>2026-04-26T09:42:52Z</time></trkpt><trkpt lat="45.33775478349237" lon="8.173773712550405"><ele>176.0</ele><time>2026-04-26T09:42:53Z</time></trkpt><trkpt lat="45.337797578810694" lon="8.173516095979068"><ele>176.0</ele><time>2026-04-26T09:42:54Z</time></trkpt><trkpt lat="45.337849558839615" lon="8.173259151460648"><ele>176.0</ele><time>2026-04-26T09:42:55Z</time></trkpt><trkpt lat="45.33790908797608" lon="8.173005366930994"><ele>176.0</ele><time>2026-04-26T09:42:56Z</time></trkpt><trkpt lat="45.33797711615741" lon="8.17275607540512"><ele>176.0</ele><time>2026-04-26T09:42:57Z</time></trkpt><trkpt lat="45.33805528245311" lon="8.172506858245841"><ele>176.0</ele><time>2026-04-26T09:42:58Z</time></trkpt><trkpt lat="45.33813898223589" lon="8.172263080105347"><ele>176.0</ele><time>2026-04-26T09:42:59Z</time></trkpt><trkpt lat="45.33823011449524" lon="8.172020381968295"><ele>176.0</ele><time>2026-04-26T09:43:00Z</time></trkpt><trkpt lat="45.33832820064176" lon="8.171776404454125"><ele>176.0</ele><time>2026-04-26T09:43:01Z</time></trkpt><trkpt lat="45.33842939747517" lon="8.171530992029078"><ele>176.33333333333331</ele><time>2026-04-26T09:43:02Z</time></trkpt><trkpt lat="45.33853307059059" lon="8.171283148746351"><ele>176.66666666666666</ele><time>2026-04-26T09:43:03Z</time></trkpt><trkpt lat="45.33863612467632" lon="8.171036785520302"><ele>177.0</ele><time>2026-04-26T09:43:04Z</time></trkpt><trkpt lat="45.33874307157775" lon="8.170781115978732"><ele>177.0</ele><time>2026-04-26T09:43:05Z</time></trkpt><trkpt lat="45.33884517006149" lon="8.170537057970172"><ele>177.0</ele><time>2026-04-26T09:43:06Z</time></trkpt><trkpt lat="45.33894801088071" lon="8.17029132236929"><ele>177.0</ele><time>2026-04-26T09:43:07Z</time></trkpt><trkpt lat="45.339048767025496" lon="8.170050600405435"><ele>177.33333333333334</ele><time>2026-04-26T09:43:08Z</time></trkpt><trkpt lat="45.339150203862744" lon="8.169808252161733"><ele>177.66666666666669</ele><time>2026-04-26T09:43:09Z</time></trkpt><trkpt lat="45.33925113051269" lon="8.16956712284756"><ele>178.0</ele><time>2026-04-26T09:43:10Z</time></trkpt><trkpt lat="45.33935400205952" lon="8.1693213469432"><ele>178.0</ele><time>2026-04-26T09:43:11Z</time></trkpt><trkpt lat="45.33945533849077" lon="8.16907901785318"><ele>178.0</ele><time>2026-04-26T09:43:12Z</time></trkpt><trkpt lat="45.339541539117725" lon="8.168828338936162"><ele>178.0</ele><time>2026-04-26T09:43:13Z</time></trkpt><trkpt lat="45.33964031643182" lon="8.168591785894586"><ele>178.66666666666669</ele><time>2026-04-26T09:43:14Z</time></trkpt><trkpt lat="45.339753535983284" lon="8.168364843730686"><ele>179.33333333333334</ele><time>2026-04-26T09:43:15Z</time></trkpt><trkpt lat="45.33985282016851" lon="8.16812706101385"><ele>180.0</ele><time>2026-04-26T09:43:16Z</time></trkpt><trkpt lat="45.339951331010234" lon="8.16789293351413"><ele>180.33333333333334</ele><time>2026-04-26T09:43:17Z</time></trkpt><trkpt lat="45.34004970145855" lon="8.167660260044485"><ele>180.66666666666669</ele><time>2026-04-26T09:43:18Z</time></trkpt><trkpt lat="45.34014914838341" lon="8.167425040261609"><ele>181.0</ele><time>2026-04-26T09:43:19Z</time></trkpt><trkpt lat="45.340247836790546" lon="8.167189380696286"><ele>181.0</ele><time>2026-04-26T09:43:20Z</time></trkpt><trkpt lat="45.34034537108523" lon="8.166955282130505"><ele>181.0</ele><time>2026-04-26T09:43:21Z</time></trkpt><trkpt lat="45.34044201054949" lon="8.166723182788077"><ele>181.0</ele><time>2026-04-26T09:43:22.001Z</time></trkpt><trkpt lat="45.340525153365746" lon="8.166478668778312"><ele>182.0</ele><time>2026-04-26T09:43:23.001Z</time></trkpt><trkpt lat="45.340634966873" lon="8.16626165402683"><ele>183.0</ele><time>2026-04-26T09:43:24.001Z</time></trkpt><trkpt lat="45.34073112640501" lon="8.16603368777394"><ele>184.0</ele><time>2026-04-26T09:43:25.001Z</time></trkpt><trkpt lat="45.340827605678626" lon="8.165803670129423"><ele>183.33333333333334</ele><time>2026-04-26T09:43:26.001Z</time></trkpt><trkpt lat="45.34092052987316" lon="8.16557505917994"><ele>182.66666666666666</ele><time>2026-04-26T09:43:27.001Z</time></trkpt><trkpt lat="45.341011390865596" lon="8.165344021259964"><ele>182.0</ele><time>2026-04-26T09:43:28.001Z</time></trkpt><trkpt lat="45.34109639019472" lon="8.165100051900444"><ele>181.66666666666666</ele><time>2026-04-26T09:43:29.001Z</time></trkpt><trkpt lat="45.341167157305634" lon="8.164847088449545"><ele>181.33333333333334</ele><time>2026-04-26T09:43:30.001Z</time></trkpt><trkpt lat="45.34122601563905" lon="8.16457972246009"><ele>181.0</ele><time>2026-04-26T09:43:31.001Z</time></trkpt><trkpt lat="45.34126884810889" lon="8.164316944115674"><ele>181.0</ele><time>2026-04-26T09:43:32.001Z</time></trkpt><trkpt lat="45.34129800812788" lon="8.164053273032263"><ele>181.0</ele><time>2026-04-26T09:43:33.001Z</time></trkpt><trkpt lat="45.34131537524934" lon="8.163791727826554"><ele>181.0</ele><time>2026-04-26T09:43:34.001Z</time></trkpt><trkpt lat="45.34132036063611" lon="8.163533791313936"><ele>181.0</ele><time>2026-04-26T09:43:35.001Z</time></trkpt><trkpt lat="45.34131527329835" lon="8.163295671497613"><ele>181.0</ele><time>2026-04-26T09:43:36.001Z</time></trkpt><trkpt lat="45.34130080812655" lon="8.163062236551788"><ele>181.0</ele><time>2026-04-26T09:43:37.001Z</time></trkpt><trkpt lat="45.341279612355486" lon="8.162847179763208"><ele>181.0</ele><time>2026-04-26T09:43:38.001Z</time></trkpt><trkpt lat="45.34124907895875" lon="8.162660539909487"><ele>181.0</ele><time>2026-04-26T09:43:39.001Z</time></trkpt><trkpt lat="45.34121992337328" lon="8.162513208896618"><ele>181.0</ele><time>2026-04-26T09:43:40.001Z</time></trkpt><trkpt lat="45.34119663070579" lon="8.162406895495806"><ele>181.0</ele><time>2026-04-26T09:43:41.001Z</time></trkpt><trkpt lat="45.341171633299886" lon="8.162297379648866"><ele>181.0</ele><time>2026-04-26T09:43:42.001Z</time></trkpt><trkpt lat="45.3411342074855" lon="8.16218812289292"><ele>181.0</ele><time>2026-04-26T09:43:43.001Z</time></trkpt><trkpt lat="45.341196467930544" lon="8.162080024264792"><ele>181.0</ele><time>2026-04-26T09:43:44.001Z</time></trkpt><trkpt lat="45.34127869881408" lon="8.16201184292286"><ele>181.0</ele><time>2026-04-26T09:43:45.001Z</time></trkpt><trkpt lat="45.34136385248059" lon="8.161942397957711"><ele>181.0</ele><time>2026-04-26T09:43:46.001Z</time></trkpt><trkpt lat="45.34148202666812" lon="8.162010356107388"><ele>181.0</ele><time>2026-04-26T09:43:47.001Z</time></trkpt><trkpt lat="45.341554284942305" lon="8.162126917699085"><ele>181.0</ele><time>2026-04-26T09:43:48.001Z</time></trkpt><trkpt lat="45.34161969628289" lon="8.162278282930485"><ele>181.0</ele><time>2026-04-26T09:43:49.001Z</time></trkpt><trkpt lat="45.34169707126416" lon="8.162417672358945"><ele>181.0</ele><time>2026-04-26T09:43:50.001Z</time></trkpt><trkpt lat="45.34179598170506" lon="8.162560654119547"><ele>181.0</ele><time>2026-04-26T09:43:51.001Z</time></trkpt><trkpt lat="45.3419039945987" lon="8.162703767170767"><ele>181.0</ele><time>2026-04-26T09:43:52Z</time></trkpt><trkpt lat="45.342009807597584" lon="8.162841360157229"><ele>181.0</ele><time>2026-04-26T09:43:53Z</time></trkpt><trkpt lat="45.34212618579265" lon="8.162978312280412"><ele>181.0</ele><time>2026-04-26T09:43:54Z</time></trkpt><trkpt lat="45.34224812531025" lon="8.163106190450128"><ele>181.0</ele><time>2026-04-26T09:43:55Z</time></trkpt><trkpt lat="45.34236385005669" lon="8.163213913269454"><ele>181.20000000000002</ele><time>2026-04-26T09:43:56Z</time></trkpt><trkpt lat="45.34246590251399" lon="8.163304417880207"><ele>181.4</ele><time>2026-04-26T09:43:57Z</time></trkpt><trkpt lat="45.34256085533798" lon="8.163387980389315"><ele>181.6</ele><time>2026-04-26T09:43:58Z</time></trkpt><trkpt lat="45.342644661040055" lon="8.163465605029849"><ele>181.8</ele><time>2026-04-26T09:43:59Z</time></trkpt><trkpt lat="45.34271054675491" lon="8.163553424788734"><ele>182.0</ele><time>2026-04-26T09:44:00Z</time></trkpt><trkpt lat="45.34276649727404" lon="8.163663324113754"><ele>182.0</ele><time>2026-04-26T09:44:01Z</time></trkpt><trkpt lat="45.342811781615715" lon="8.163794406303492"><ele>182.0</ele><time>2026-04-26T09:44:02Z</time></trkpt><trkpt lat="45.342883468878384" lon="8.163891095236162"><ele>182.0</ele><time>2026-04-26T09:44:03Z</time></trkpt><trkpt lat="45.34299005405834" lon="8.163921420883636"><ele>182.0</ele><time>2026-04-26T09:44:04Z</time></trkpt><trkpt lat="45.34311548910089" lon="8.163939053682256"><ele>182.0</ele><time>2026-04-26T09:44:05Z</time></trkpt><trkpt lat="45.3432283088538" lon="8.16402859402888"><ele>181.33333333333331</ele><time>2026-04-26T09:44:06Z</time></trkpt><trkpt lat="45.34334590700647" lon="8.164162421776028"><ele>180.66666666666666</ele><time>2026-04-26T09:44:07Z</time></trkpt><trkpt lat="45.343475776424135" lon="8.164297401518361"><ele>180.0</ele><time>2026-04-26T09:44:08Z</time></trkpt><trkpt lat="45.34360616183819" lon="8.164424649585895"><ele>180.0</ele><time>2026-04-26T09:44:09Z</time></trkpt><trkpt lat="45.34374376068602" lon="8.164558534186325"><ele>180.0</ele><time>2026-04-26T09:44:10Z</time></trkpt><trkpt lat="45.34388860971766" lon="8.164701634721357"><ele>180.0</ele><time>2026-04-26T09:44:11Z</time></trkpt><trkpt lat="45.344040526675876" lon="8.164853071311498"><ele>180.33333333333334</ele><time>2026-04-26T09:44:12Z</time></trkpt><trkpt lat="45.34419770542069" lon="8.165002753757097"><ele>180.66666666666669</ele><time>2026-04-26T09:44:13Z</time></trkpt><trkpt lat="45.344350377149794" lon="8.165147560944144"><ele>181.0</ele><time>2026-04-26T09:44:14Z</time></trkpt><trkpt lat="45.344501031805976" lon="8.16528728106439"><ele>181.0</ele><time>2026-04-26T09:44:15Z</time></trkpt><trkpt lat="45.34465861277446" lon="8.165422802313094"><ele>181.0</ele><time>2026-04-26T09:44:16Z</time></trkpt><trkpt lat="45.344825547242124" lon="8.165556793189056"><ele>181.0</ele><time>2026-04-26T09:44:17Z</time></trkpt><trkpt lat="45.34499735382832" lon="8.165685985311523"><ele>181.66666666666669</ele><time>2026-04-26T09:44:18Z</time></trkpt><trkpt lat="45.34516515149036" lon="8.165805746359817"><ele>182.33333333333334</ele><time>2026-04-26T09:44:19Z</time></trkpt><trkpt lat="45.345340719090714" lon="8.165924954452631"><ele>183.0</ele><time>2026-04-26T09:44:20Z</time></trkpt><trkpt lat="45.34551715404244" lon="8.166039289206642"><ele>183.0</ele><time>2026-04-26T09:44:21Z</time></trkpt><trkpt lat="45.34568855044883" lon="8.166145422219694"><ele>183.0</ele><time>2026-04-26T09:44:22Z</time></trkpt><trkpt lat="45.34585376398417" lon="8.166245259839357"><ele>183.0</ele><time>2026-04-26T09:44:23Z</time></trkpt><trkpt lat="45.34601869584702" lon="8.16634368624852"><ele>183.0</ele><time>2026-04-26T09:44:24Z</time></trkpt><trkpt lat="45.34617982717268" lon="8.166439031389753"><ele>183.0</ele><time>2026-04-26T09:44:25Z</time></trkpt><trkpt lat="45.34633757823621" lon="8.166526919108351"><ele>183.0</ele><time>2026-04-26T09:44:26Z</time></trkpt><trkpt lat="45.34648714836086" lon="8.16660813958667"><ele>182.75</ele><time>2026-04-26T09:44:27Z</time></trkpt><trkpt lat="45.346630566656486" lon="8.166677861833161"><ele>182.5</ele><time>2026-04-26T09:44:28Z</time></trkpt><trkpt lat="45.346769254523096" lon="8.166744235643053"><ele>182.25</ele><time>2026-04-26T09:44:29Z</time></trkpt><trkpt lat="45.346893253938035" lon="8.166806489066047"><ele>182.0</ele><time>2026-04-26T09:44:30Z</time></trkpt><trkpt lat="45.34700861159339" lon="8.166870237809523"><ele>182.0</ele><time>2026-04-26T09:44:31Z</time></trkpt><trkpt lat="45.34712328766576" lon="8.166934308544915"><ele>182.0</ele><time>2026-04-26T09:44:32Z</time></trkpt><trkpt lat="45.3472260610378" lon="8.166986686875518"><ele>182.0</ele><time>2026-04-26T09:44:33Z</time></trkpt><trkpt lat="45.34731560783533" lon="8.167028325996473"><ele>182.0</ele><time>2026-04-26T09:44:34Z</time></trkpt><trkpt lat="45.347396097200615" lon="8.167069795455602"><ele>182.0</ele><time>2026-04-26T09:44:35Z</time></trkpt><trkpt lat="45.347458121246554" lon="8.167125971476944"><ele>181.66666666666666</ele><time>2026-04-26T09:44:36Z</time></trkpt><trkpt lat="45.34750602749474" lon="8.167210065962472"><ele>181.33333333333331</ele><time>2026-04-26T09:44:37Z</time></trkpt><trkpt lat="45.347556534364884" lon="8.16729760652567"><ele>181.0</ele><time>2026-04-26T09:44:38Z</time></trkpt><trkpt lat="45.347622318167105" lon="8.167346104364638"><ele>180.66666666666666</ele><time>2026-04-26T09:44:39Z</time></trkpt><trkpt lat="45.34769836977769" lon="8.167331113711978"><ele>180.33333333333334</ele><time>2026-04-26T09:44:40Z</time></trkpt><trkpt lat="45.3477597042006" lon="8.167253643973366"><ele>180.0</ele><time>2026-04-26T09:44:41Z</time></trkpt><trkpt lat="45.34778461323055" lon="8.1671305904211"><ele>180.0</ele><time>2026-04-26T09:44:42Z</time></trkpt><trkpt lat="45.34779575384154" lon="8.166993065303075"><ele>180.0</ele><time>2026-04-26T09:44:43Z</time></trkpt><trkpt lat="45.3478462700217" lon="8.166859827369418"><ele>180.0</ele><time>2026-04-26T09:44:44Z</time></trkpt><trkpt lat="45.347971160730935" lon="8.166784031306905"><ele>180.0</ele><time>2026-04-26T09:44:45Z</time></trkpt><trkpt lat="45.348069924198214" lon="8.166650021248014"><ele>180.66666666666666</ele><time>2026-04-26T09:44:46Z</time></trkpt><trkpt lat="45.34818431808582" lon="8.166494802605149"><ele>181.33333333333331</ele><time>2026-04-26T09:44:47Z</time></trkpt><trkpt lat="45.34831707239333" lon="8.166314671093314"><ele>182.0</ele><time>2026-04-26T09:44:48Z</time></trkpt><trkpt lat="45.34845873654344" lon="8.166122450001815"><ele>182.0</ele><time>2026-04-26T09:44:49Z</time></trkpt><trkpt lat="45.348601347555785" lon="8.16592894412632"><ele>182.0</ele><time>2026-04-26T09:44:50Z</time></trkpt><trkpt lat="45.34875305593587" lon="8.165715732386479"><ele>182.0</ele><time>2026-04-26T09:44:51Z</time></trkpt><trkpt lat="45.34890785608534" lon="8.165486601515244"><ele>182.5</ele><time>2026-04-26T09:44:52Z</time></trkpt><trkpt lat="45.34905707660624" lon="8.165239449039433"><ele>183.0</ele><time>2026-04-26T09:44:53Z</time></trkpt><trkpt lat="45.349190112545" lon="8.164978032230584"><ele>183.0</ele><time>2026-04-26T09:44:54Z</time></trkpt><trkpt lat="45.34931747693746" lon="8.164709569559859"><ele>183.0</ele><time>2026-04-26T09:44:55Z</time></trkpt><trkpt lat="45.34944550078423" lon="8.164432773572488"><ele>183.0</ele><time>2026-04-26T09:44:56Z</time></trkpt><trkpt lat="45.34957340766234" lon="8.16415403164647"><ele>183.0</ele><time>2026-04-26T09:44:57Z</time></trkpt><trkpt lat="45.34969740695933" lon="8.163880381997703"><ele>183.0</ele><time>2026-04-26T09:44:58Z</time></trkpt><trkpt lat="45.349816577798045" lon="8.163611529006197"><ele>183.0</ele><time>2026-04-26T09:44:59Z</time></trkpt><trkpt lat="45.3499310603675" lon="8.163339421844368"><ele>183.0</ele><time>2026-04-26T09:45:00Z</time></trkpt><trkpt lat="45.35004193945219" lon="8.163060768396884"><ele>183.0</ele><time>2026-04-26T09:45:01Z</time></trkpt><trkpt lat="45.35014827114028" lon="8.162776355792559"><ele>183.0</ele><time>2026-04-26T09:45:02Z</time></trkpt><trkpt lat="45.3502517135319" lon="8.162494375670844"><ele>183.0</ele><time>2026-04-26T09:45:03Z</time></trkpt><trkpt lat="45.35035506608566" lon="8.162212639967109"><ele>183.0</ele><time>2026-04-26T09:45:04Z</time></trkpt><trkpt lat="45.35045879481043" lon="8.161929879447063"><ele>183.0</ele><time>2026-04-26T09:45:05Z</time></trkpt><trkpt lat="45.35056223657028" lon="8.161651408045614"><ele>182.66666666666666</ele><time>2026-04-26T09:45:06Z</time></trkpt><trkpt lat="45.35066857185006" lon="8.161370977275046"><ele>182.33333333333331</ele><time>2026-04-26T09:45:07Z</time></trkpt><trkpt lat="45.35077517580532" lon="8.161089837953586"><ele>182.0</ele><time>2026-04-26T09:45:08Z</time></trkpt><trkpt lat="45.35088041417135" lon="8.160811319889548"><ele>182.33333333333331</ele><time>2026-04-26T09:45:09Z</time></trkpt><trkpt lat="45.35098502759605" lon="8.16053304153469"><ele>182.66666666666666</ele><time>2026-04-26T09:45:10Z</time></trkpt><trkpt lat="45.35108837809995" lon="8.160258122159041"><ele>183.0</ele><time>2026-04-26T09:45:11Z</time></trkpt><trkpt lat="45.3511861083514" lon="8.159998153339677"><ele>184.0</ele><time>2026-04-26T09:45:12Z</time></trkpt><trkpt lat="45.351271753713576" lon="8.159763789278838"><ele>185.0</ele><time>2026-04-26T09:45:13Z</time></trkpt><trkpt lat="45.35134426627204" lon="8.159566954950803"><ele>186.0</ele><time>2026-04-26T09:45:14Z</time></trkpt><trkpt lat="45.351403042803426" lon="8.159417610306923"><ele>186.0</ele><time>2026-04-26T09:45:15Z</time></trkpt><trkpt lat="45.35147322253483" lon="8.159283958950846"><ele>186.0</ele><time>2026-04-26T09:45:16Z</time></trkpt><trkpt lat="45.351569886720334" lon="8.159177522886173"><ele>186.0</ele><time>2026-04-26T09:45:17Z</time></trkpt><trkpt lat="45.351689250536104" lon="8.15908169652621"><ele>186.0</ele><time>2026-04-26T09:45:18Z</time></trkpt><trkpt lat="45.35184092559768" lon="8.159035626946158"><ele>186.0</ele><time>2026-04-26T09:45:19Z</time></trkpt><trkpt lat="45.35200794570525" lon="8.15900468646015"><ele>186.0</ele><time>2026-04-26T09:45:20Z</time></trkpt><trkpt lat="45.35218062299001" lon="8.159014603112738"><ele>186.0</ele><time>2026-04-26T09:45:21Z</time></trkpt><trkpt lat="45.35234944588309" lon="8.159066167716832"><ele>186.0</ele><time>2026-04-26T09:45:22Z</time></trkpt><trkpt lat="45.35250059576141" lon="8.159117697437596"><ele>186.0</ele><time>2026-04-26T09:45:23Z</time></trkpt><trkpt lat="45.35263513609888" lon="8.15915834940656"><ele>186.0</ele><time>2026-04-26T09:45:24Z</time></trkpt><trkpt lat="45.352796663190624" lon="8.159130992506926"><ele>185.66666666666666</ele><time>2026-04-26T09:45:25Z</time></trkpt><trkpt lat="45.35295987767278" lon="8.159020455938302"><ele>185.33333333333331</ele><time>2026-04-26T09:45:26Z</time></trkpt><trkpt lat="45.353115550854355" lon="8.15886394261148"><ele>185.0</ele><time>2026-04-26T09:45:27Z</time></trkpt><trkpt lat="45.35328009146346" lon="8.15869799993988"><ele>185.0</ele><time>2026-04-26T09:45:28Z</time></trkpt><trkpt lat="45.35346331005891" lon="8.158513220057056"><ele>185.0</ele><time>2026-04-26T09:45:29Z</time></trkpt><trkpt lat="45.353642283240745" lon="8.158334692857313"><ele>185.0</ele><time>2026-04-26T09:45:30Z</time></trkpt><trkpt lat="45.353853343723145" lon="8.1581248356965"><ele>185.0</ele><time>2026-04-26T09:45:31Z</time></trkpt><trkpt lat="45.354082385348356" lon="8.157889423667225"><ele>185.0</ele><time>2026-04-26T09:45:32Z</time></trkpt><trkpt lat="45.35428609367291" lon="8.157654054294266"><ele>185.0</ele><time>2026-04-26T09:45:33Z</time></trkpt><trkpt lat="45.35451984594437" lon="8.15733199652022"><ele>185.0</ele><time>2026-04-26T09:45:34Z</time></trkpt><trkpt lat="45.35472697386863" lon="8.157026410340503"><ele>185.0</ele><time>2026-04-26T09:45:35Z</time></trkpt><trkpt lat="45.35493138047937" lon="8.156723864072834"><ele>185.0</ele><time>2026-04-26T09:45:36Z</time></trkpt><trkpt lat="45.35514088884862" lon="8.156413578618086"><ele>185.5</ele><time>2026-04-26T09:45:37Z</time></trkpt><trkpt lat="45.35535837845404" lon="8.156090886368446"><ele>186.0</ele><time>2026-04-26T09:45:38.001Z</time></trkpt><trkpt lat="45.35558691014364" lon="8.155764451868425"><ele>186.5</ele><time>2026-04-26T09:45:39.001Z</time></trkpt><trkpt lat="45.35583298480985" lon="8.155435906521788"><ele>187.0</ele><time>2026-04-26T09:45:40.001Z</time></trkpt><trkpt lat="45.35608403112072" lon="8.155113745304428"><ele>187.0</ele><time>2026-04-26T09:45:41.001Z</time></trkpt><trkpt lat="45.356327647774144" lon="8.154803121629234"><ele>187.0</ele><time>2026-04-26T09:45:42.001Z</time></trkpt><trkpt lat="45.356581685395916" lon="8.154477262999825"><ele>187.5</ele><time>2026-04-26T09:45:43.001Z</time></trkpt><trkpt lat="45.35684566619271" lon="8.154140266217077"><ele>188.0</ele><time>2026-04-26T09:45:44.001Z</time></trkpt><trkpt lat="45.35708424139951" lon="8.153837043414478"><ele>187.5</ele><time>2026-04-26T09:45:45.001Z</time></trkpt><trkpt lat="45.35730135671021" lon="8.153558671121361"><ele>187.0</ele><time>2026-04-26T09:45:46.001Z</time></trkpt><trkpt lat="45.35750627819247" lon="8.153295567808122"><ele>187.0</ele><time>2026-04-26T09:45:47.001Z</time></trkpt><trkpt lat="45.35770184420108" lon="8.153044476632422"><ele>187.0</ele><time>2026-04-26T09:45:48.001Z</time></trkpt><trkpt lat="45.357888828280196" lon="8.152804398420177"><ele>188.5</ele><time>2026-04-26T09:45:49.001Z</time></trkpt><trkpt lat="45.3580610009086" lon="8.152583335343989"><ele>190.0</ele><time>2026-04-26T09:45:50.001Z</time></trkpt><trkpt lat="45.358222701160614" lon="8.152372401889956"><ele>190.33333333333334</ele><time>2026-04-26T09:45:51.001Z</time></trkpt><trkpt lat="45.3583579900881" lon="8.152134788982305"><ele>190.66666666666666</ele><time>2026-04-26T09:45:52.001Z</time></trkpt><trkpt lat="45.35850085379843" lon="8.151955413245272"><ele>191.0</ele><time>2026-04-26T09:45:53.001Z</time></trkpt><trkpt lat="45.358631934486844" lon="8.151787255057618"><ele>191.0</ele><time>2026-04-26T09:45:54.001Z</time></trkpt><trkpt lat="45.35875455910166" lon="8.15162362974914"><ele>191.0</ele><time>2026-04-26T09:45:55.001Z</time></trkpt><trkpt lat="45.35885578912106" lon="8.151483942292813"><ele>191.0</ele><time>2026-04-26T09:45:56.001Z</time></trkpt><trkpt lat="45.358941393926095" lon="8.151359024924878"><ele>191.0</ele><time>2026-04-26T09:45:57.001Z</time></trkpt><trkpt lat="45.35901087163013" lon="8.15124498870223"><ele>190.83333333333331</ele><time>2026-04-26T09:45:58Z</time></trkpt><trkpt lat="45.35906721263393" lon="8.151149572919593"><ele>190.66666666666666</ele><time>2026-04-26T09:45:59Z</time></trkpt><trkpt lat="45.359129175629555" lon="8.151081929666638"><ele>190.5</ele><time>2026-04-26T09:46:00Z</time></trkpt><trkpt lat="45.359201459820625" lon="8.15106257372437"><ele>190.33333333333334</ele><time>2026-04-26T09:46:01Z</time></trkpt><trkpt lat="45.35926950069496" lon="8.151105517679115"><ele>190.16666666666669</ele><time>2026-04-26T09:46:02Z</time></trkpt><trkpt lat="45.35934166917246" lon="8.151123710548402"><ele>190.0</ele><time>2026-04-26T09:46:03Z</time></trkpt><trkpt lat="45.359411522967015" lon="8.15107109888673"><ele>190.0</ele><time>2026-04-26T09:46:04Z</time></trkpt><trkpt lat="45.35946011567844" lon="8.150941952819343"><ele>190.0</ele><time>2026-04-26T09:46:05Z</time></trkpt><trkpt lat="45.35948423009047" lon="8.150746355806604"><ele>190.0</ele><time>2026-04-26T09:46:06Z</time></trkpt><trkpt lat="45.3594912043911" lon="8.15048617723976"><ele>190.0</ele><time>2026-04-26T09:46:07Z</time></trkpt><trkpt lat="45.35949434957934" lon="8.150175392747688"><ele>190.0</ele><time>2026-04-26T09:46:08Z</time></trkpt><trkpt lat="45.35950055969796" lon="8.149798419800119"><ele>190.0</ele><time>2026-04-26T09:46:09Z</time></trkpt><trkpt lat="45.35952282328369" lon="8.14945625564508"><ele>190.0</ele><time>2026-04-26T09:46:10Z</time></trkpt><trkpt lat="45.359548945469705" lon="8.149069237941955"><ele>190.0</ele><time>2026-04-26T09:46:11Z</time></trkpt><trkpt lat="45.359571435740364" lon="8.148679260038964"><ele>189.5</ele><time>2026-04-26T09:46:12Z</time></trkpt><trkpt lat="45.35959521049817" lon="8.148270858400899"><ele>189.0</ele><time>2026-04-26T09:46:13Z</time></trkpt><trkpt lat="45.359619242771196" lon="8.147823297239674"><ele>191.5</ele><time>2026-04-26T09:46:14Z</time></trkpt><trkpt lat="45.35964641923592" lon="8.147347682309022"><ele>194.0</ele><time>2026-04-26T09:46:15Z</time></trkpt><trkpt lat="45.35967515014849" lon="8.146871892869605"><ele>192.5</ele><time>2026-04-26T09:46:16Z</time></trkpt><trkpt lat="45.35970108445357" lon="8.146407594632464"><ele>191.0</ele><time>2026-04-26T09:46:17Z</time></trkpt><trkpt lat="45.35972749559111" lon="8.14596969729411"><ele>191.5</ele><time>2026-04-26T09:46:18Z</time></trkpt><trkpt lat="45.35975212274098" lon="8.145561424187807"><ele>192.0</ele><time>2026-04-26T09:46:19Z</time></trkpt><trkpt lat="45.35977660742991" lon="8.14517894634745"><ele>192.0</ele><time>2026-04-26T09:46:20Z</time></trkpt><trkpt lat="45.35979929988614" lon="8.144817418618468"><ele>192.0</ele><time>2026-04-26T09:46:21Z</time></trkpt><trkpt lat="45.35982294655027" lon="8.144471296543642"><ele>192.0</ele><time>2026-04-26T09:46:22Z</time></trkpt><trkpt lat="45.35984459423876" lon="8.14413361063774"><ele>192.0</ele><time>2026-04-26T09:46:23Z</time></trkpt><trkpt lat="45.359860705929805" lon="8.143823998049221"><ele>192.33333333333331</ele><time>2026-04-26T09:46:24Z</time></trkpt><trkpt lat="45.359874462978375" lon="8.143534382112117"><ele>192.66666666666666</ele><time>2026-04-26T09:46:25Z</time></trkpt><trkpt lat="45.35988915428426" lon="8.143266731223804"><ele>193.0</ele><time>2026-04-26T09:46:26Z</time></trkpt><trkpt lat="45.35991075396593" lon="8.143018869364068"><ele>193.33333333333331</ele><time>2026-04-26T09:46:27Z</time></trkpt><trkpt lat="45.35994442223378" lon="8.142791258439416"><ele>193.66666666666669</ele><time>2026-04-26T09:46:28Z</time></trkpt><trkpt lat="45.359996954824" lon="8.142577490866875"><ele>194.0</ele><time>2026-04-26T09:46:29Z</time></trkpt><trkpt lat="45.36007614531373" lon="8.142367968225393"><ele>193.33333333333334</ele><time>2026-04-26T09:46:30Z</time></trkpt><trkpt lat="45.36017515190676" lon="8.14216817014748"><ele>192.66666666666669</ele><time>2026-04-26T09:46:31Z</time></trkpt><trkpt lat="45.36027609969869" lon="8.14196679567252"><ele>192.0</ele><time>2026-04-26T09:46:32Z</time></trkpt><trkpt lat="45.36036177415119" lon="8.141752071277088"><ele>192.33333333333331</ele><time>2026-04-26T09:46:33Z</time></trkpt><trkpt lat="45.36041930407126" lon="8.141509486156194"><ele>192.66666666666666</ele><time>2026-04-26T09:46:34Z</time></trkpt><trkpt lat="45.36045559047056" lon="8.141242735902647"><ele>193.0</ele><time>2026-04-26T09:46:35Z</time></trkpt><trkpt lat="45.360489640048385" lon="8.14096999143158"><ele>193.33333333333331</ele><time>2026-04-26T09:46:36Z</time></trkpt><trkpt lat="45.360522452217864" lon="8.14070201502962"><ele>193.66666666666669</ele><time>2026-04-26T09:46:37Z</time></trkpt><trkpt lat="45.36055265433582" lon="8.140441996257255"><ele>194.0</ele><time>2026-04-26T09:46:38Z</time></trkpt><trkpt lat="45.360578856197925" lon="8.140189803576995"><ele>194.0</ele><time>2026-04-26T09:46:39Z</time></trkpt><trkpt lat="45.36059281147417" lon="8.139941900580547"><ele>194.0</ele><time>2026-04-26T09:46:40Z</time></trkpt><trkpt lat="45.36057790075951" lon="8.139683855993558"><ele>194.0</ele><time>2026-04-26T09:46:41Z</time></trkpt><trkpt lat="45.36052359127723" lon="8.139398515278259"><ele>194.33333333333334</ele><time>2026-04-26T09:46:42Z</time></trkpt><trkpt lat="45.36043417376197" lon="8.13910113971318"><ele>194.66666666666669</ele><time>2026-04-26T09:46:43Z</time></trkpt><trkpt lat="45.360331280697324" lon="8.138827719591848"><ele>195.0</ele><time>2026-04-26T09:46:44Z</time></trkpt><trkpt lat="45.360251763526996" lon="8.13858191801672"><ele>195.33333333333331</ele><time>2026-04-26T09:46:45Z</time></trkpt><trkpt lat="45.36020588840322" lon="8.138338971508928"><ele>195.66666666666666</ele><time>2026-04-26T09:46:46Z</time></trkpt><trkpt lat="45.360184191525995" lon="8.138062022349605"><ele>196.0</ele><time>2026-04-26T09:46:47Z</time></trkpt><trkpt lat="45.36018074531128" lon="8.13778850429054"><ele>196.0</ele><time>2026-04-26T09:46:48Z</time></trkpt><trkpt lat="45.36018705297982" lon="8.137506807843476"><ele>196.0</ele><time>2026-04-26T09:46:49Z</time></trkpt><trkpt lat="45.36020324130126" lon="8.137195252140064"><ele>196.0</ele><time>2026-04-26T09:46:50Z</time></trkpt><trkpt lat="45.36022542428417" lon="8.13685518972562"><ele>196.5</ele><time>2026-04-26T09:46:51Z</time></trkpt><trkpt lat="45.360245878390366" lon="8.136515023624407"><ele>197.0</ele><time>2026-04-26T09:46:52Z</time></trkpt><trkpt lat="45.360263426128085" lon="8.136179001741104"><ele>197.0</ele><time>2026-04-26T09:46:53Z</time></trkpt><trkpt lat="45.36027984290572" lon="8.135835377706794"><ele>197.0</ele><time>2026-04-26T09:46:54Z</time></trkpt><trkpt lat="45.36029885328346" lon="8.135480821616214"><ele>198.5</ele><time>2026-04-26T09:46:55Z</time></trkpt><trkpt lat="45.360349040777855" lon="8.135125721051098"><ele>200.0</ele><time>2026-04-26T09:46:56Z</time></trkpt><trkpt lat="45.360368478260824" lon="8.134767158666124"><ele>200.5</ele><time>2026-04-26T09:46:57Z</time></trkpt><trkpt lat="45.36038865375809" lon="8.134413055655536"><ele>201.0</ele><time>2026-04-26T09:46:58Z</time></trkpt><trkpt lat="45.360408780221746" lon="8.134061382144491"><ele>200.0</ele><time>2026-04-26T09:46:59Z</time></trkpt><trkpt lat="45.36042855019597" lon="8.13371593769516"><ele>199.0</ele><time>2026-04-26T09:47:00Z</time></trkpt><trkpt lat="45.36044761309035" lon="8.13338284845492"><ele>199.33333333333331</ele><time>2026-04-26T09:47:01Z</time></trkpt><trkpt lat="45.36046336692104" lon="8.133064077987127"><ele>199.66666666666669</ele><time>2026-04-26T09:47:02Z</time></trkpt><trkpt lat="45.36047721373353" lon="8.132757808528275"><ele>200.0</ele><time>2026-04-26T09:47:03Z</time></trkpt><trkpt lat="45.360491033352794" lon="8.132461764675032"><ele>200.33333333333334</ele><time>2026-04-26T09:47:04Z</time></trkpt><trkpt lat="45.36050760646144" lon="8.132163719218006"><ele>200.66666666666669</ele><time>2026-04-26T09:47:05Z</time></trkpt><trkpt lat="45.360524498058226" lon="8.131859946320652"><ele>201.0</ele><time>2026-04-26T09:47:06Z</time></trkpt><trkpt lat="45.3605415717695" lon="8.131554347546796"><ele>201.0</ele><time>2026-04-26T09:47:07Z</time></trkpt><trkpt lat="45.36055930114792" lon="8.131244752534057"><ele>201.0</ele><time>2026-04-26T09:47:08Z</time></trkpt><trkpt lat="45.36057709671105" lon="8.13093400165725"><ele>201.0</ele><time>2026-04-26T09:47:09Z</time></trkpt><trkpt lat="45.36059549550358" lon="8.13061925575645"><ele>200.5</ele><time>2026-04-26T09:47:10Z</time></trkpt><trkpt lat="45.36061435130432" lon="8.130298608068872"><ele>200.0</ele><time>2026-04-26T09:47:11Z</time></trkpt><trkpt lat="45.36063333595469" lon="8.129975770646798"><ele>200.33333333333334</ele><time>2026-04-26T09:47:12Z</time></trkpt><trkpt lat="45.3606520070273" lon="8.129664994941816"><ele>200.66666666666669</ele><time>2026-04-26T09:47:13Z</time></trkpt><trkpt lat="45.36066986801102" lon="8.12937028822435"><ele>201.0</ele><time>2026-04-26T09:47:14Z</time></trkpt><trkpt lat="45.36068717971415" lon="8.129084645148302"><ele>201.33333333333331</ele><time>2026-04-26T09:47:15Z</time></trkpt><trkpt lat="45.36070306282571" lon="8.128807720998946"><ele>201.66666666666666</ele><time>2026-04-26T09:47:16Z</time></trkpt><trkpt lat="45.36071783016559" lon="8.128539057584478"><ele>202.0</ele><time>2026-04-26T09:47:17Z</time></trkpt><trkpt lat="45.36073192860191" lon="8.128282562995512"><ele>202.0</ele><time>2026-04-26T09:47:18Z</time></trkpt><trkpt lat="45.36074529471706" lon="8.128039392325475"><ele>202.0</ele><time>2026-04-26T09:47:19Z</time></trkpt><trkpt lat="45.36075818476532" lon="8.127804882549652"><ele>202.0</ele><time>2026-04-26T09:47:20Z</time></trkpt><trkpt lat="45.36077152398549" lon="8.127562200868322"><ele>202.66666666666666</ele><time>2026-04-26T09:47:21Z</time></trkpt><trkpt lat="45.360786142974845" lon="8.127311852503514"><ele>203.33333333333331</ele><time>2026-04-26T09:47:22Z</time></trkpt><trkpt lat="45.36080196259749" lon="8.127055104462226"><ele>204.0</ele><time>2026-04-26T09:47:23Z</time></trkpt><trkpt lat="45.36081815723327" lon="8.126792269249666"><ele>204.33333333333331</ele><time>2026-04-26T09:47:24Z</time></trkpt><trkpt lat="45.36083433522682" lon="8.126529704169737"><ele>204.66666666666666</ele><time>2026-04-26T09:47:25Z</time></trkpt><trkpt lat="45.36085115008026" lon="8.126256803076004"><ele>205.0</ele><time>2026-04-26T09:47:26Z</time></trkpt><trkpt lat="45.360868231725" lon="8.12597957207082"><ele>204.66666666666666</ele><time>2026-04-26T09:47:27Z</time></trkpt><trkpt lat="45.36088748928648" lon="8.125697510314458"><ele>204.33333333333331</ele><time>2026-04-26T09:47:28Z</time></trkpt><trkpt lat="45.36090654313686" lon="8.125420693436737"><ele>204.0</ele><time>2026-04-26T09:47:29Z</time></trkpt><trkpt lat="45.36092533357499" lon="8.125147703451304"><ele>204.0</ele><time>2026-04-26T09:47:30Z</time></trkpt><trkpt lat="45.3609428193567" lon="8.124893667740345"><ele>204.0</ele><time>2026-04-26T09:47:31Z</time></trkpt><trkpt lat="45.36095787180928" lon="8.124667339039005"><ele>204.0</ele><time>2026-04-26T09:47:32Z</time></trkpt><trkpt lat="45.36097180339954" lon="8.124454395918995"><ele>204.0</ele><time>2026-04-26T09:47:33Z</time></trkpt><trkpt lat="45.36098479957298" lon="8.12425895288886"><ele>204.0</ele><time>2026-04-26T09:47:34Z</time></trkpt><trkpt lat="45.36099838691204" lon="8.124086366615307"><ele>204.0</ele><time>2026-04-26T09:47:35Z</time></trkpt><trkpt lat="45.36101601337195" lon="8.123944844739356"><ele>204.0</ele><time>2026-04-26T09:47:36Z</time></trkpt><trkpt lat="45.361037959921404" lon="8.1238382623158"><ele>204.0</ele><time>2026-04-26T09:47:37Z</time></trkpt><trkpt lat="45.36111667070049" lon="8.123720112789611"><ele>204.0</ele><time>2026-04-26T09:47:39Z</time></trkpt><trkpt lat="45.36120385080927" lon="8.123573869096848"><ele>204.0</ele><time>2026-04-26T09:47:41Z</time></trkpt><trkpt lat="45.36126349840518" lon="8.123488888771888"><ele>204.0</ele><time>2026-04-26T09:47:42Z</time></trkpt><trkpt lat="45.36126109654438" lon="8.123268724496501"><ele>204.0</ele><time>2026-04-26T09:47:43Z</time></trkpt><trkpt lat="45.36123365027549" lon="8.123054265044303"><ele>204.0</ele><time>2026-04-26T09:47:44Z</time></trkpt><trkpt lat="45.36122007264951" lon="8.122829569991094"><ele>204.0</ele><time>2026-04-26T09:47:45Z</time></trkpt><trkpt lat="45.36119538249309" lon="8.122600889389247"><ele>204.0</ele><time>2026-04-26T09:47:46Z</time></trkpt><trkpt lat="45.36119867420996" lon="8.122338075028608"><ele>204.33333333333331</ele><time>2026-04-26T09:47:47Z</time></trkpt><trkpt lat="45.3611937151773" lon="8.122049235847822"><ele>204.66666666666666</ele><time>2026-04-26T09:47:48Z</time></trkpt><trkpt lat="45.361194393195476" lon="8.121757313029486"><ele>205.0</ele><time>2026-04-26T09:47:49Z</time></trkpt><trkpt lat="45.36120394282588" lon="8.121464383943392"><ele>205.66666666666666</ele><time>2026-04-26T09:47:50Z</time></trkpt><trkpt lat="45.36122488485393" lon="8.121159091608424"><ele>206.33333333333331</ele><time>2026-04-26T09:47:51Z</time></trkpt><trkpt lat="45.36124816207376" lon="8.12084539388369"><ele>207.0</ele><time>2026-04-26T09:47:52Z</time></trkpt><trkpt lat="45.361272026353234" lon="8.120523784502746"><ele>207.0</ele><time>2026-04-26T09:47:53Z</time></trkpt><trkpt lat="45.361281162772904" lon="8.120201154808004"><ele>207.0</ele><time>2026-04-26T09:47:54Z</time></trkpt><trkpt lat="45.36130607773343" lon="8.11989150532382"><ele>207.0</ele><time>2026-04-26T09:47:55Z</time></trkpt><trkpt lat="45.36132826594248" lon="8.119577811028867"><ele>206.5</ele><time>2026-04-26T09:47:56Z</time></trkpt><trkpt lat="45.36136725502701" lon="8.119261644041822"><ele>206.0</ele><time>2026-04-26T09:47:57Z</time></trkpt><trkpt lat="45.36139329099233" lon="8.118937152267193"><ele>207.0</ele><time>2026-04-26T09:47:58.001Z</time></trkpt><trkpt lat="45.36140403050428" lon="8.118606240803969"><ele>208.0</ele><time>2026-04-26T09:47:59.001Z</time></trkpt><trkpt lat="45.36143901467589" lon="8.118276793487688"><ele>208.5</ele><time>2026-04-26T09:48:00.001Z</time></trkpt><trkpt lat="45.3614809116227" lon="8.117941834363052"><ele>209.0</ele><time>2026-04-26T09:48:01.001Z</time></trkpt><trkpt lat="45.361546583731105" lon="8.117608349193498"><ele>209.5</ele><time>2026-04-26T09:48:02.001Z</time></trkpt><trkpt lat="45.361581218010215" lon="8.117265623645451"><ele>210.0</ele><time>2026-04-26T09:48:03.001Z</time></trkpt><trkpt lat="45.3616313202805" lon="8.116926611566946"><ele>210.0</ele><time>2026-04-26T09:48:04Z</time></trkpt><trkpt lat="45.3616790677711" lon="8.11658719634496"><ele>210.0</ele><time>2026-04-26T09:48:05Z</time></trkpt><trkpt lat="45.3617290751536" lon="8.116254336711815"><ele>210.0</ele><time>2026-04-26T09:48:06Z</time></trkpt><trkpt lat="45.36180138789253" lon="8.115923928984854"><ele>210.0</ele><time>2026-04-26T09:48:07Z</time></trkpt><trkpt lat="45.36184408791673" lon="8.115565513230266"><ele>209.5</ele><time>2026-04-26T09:48:08Z</time></trkpt><trkpt lat="45.361876726414884" lon="8.115216915252583"><ele>209.0</ele><time>2026-04-26T09:48:09Z</time></trkpt><trkpt lat="45.36190815285052" lon="8.114868235934662"><ele>208.5</ele><time>2026-04-26T09:48:10Z</time></trkpt><trkpt lat="45.3619385853032" lon="8.114520723272022"><ele>208.0</ele><time>2026-04-26T09:48:11Z</time></trkpt><trkpt lat="45.36197141909807" lon="8.114174742824115"><ele>208.5</ele><time>2026-04-26T09:48:12Z</time></trkpt><trkpt lat="45.3620101143302" lon="8.113827614054266"><ele>209.0</ele><time>2026-04-26T09:48:13Z</time></trkpt><trkpt lat="45.36204963761809" lon="8.113478237692718"><ele>210.0</ele><time>2026-04-26T09:48:14Z</time></trkpt><trkpt lat="45.36208948610324" lon="8.113121844422347"><ele>211.0</ele><time>2026-04-26T09:48:15Z</time></trkpt><trkpt lat="45.36213123556604" lon="8.112744649565446"><ele>212.0</ele><time>2026-04-26T09:48:16Z</time></trkpt><trkpt lat="45.36217290338371" lon="8.112368892901202"><ele>213.0</ele><time>2026-04-26T09:48:17Z</time></trkpt><trkpt lat="45.36221573824157" lon="8.111989657992458"><ele>213.0</ele><time>2026-04-26T09:48:18Z</time></trkpt><trkpt lat="45.36225898205422" lon="8.111606802501152"><ele>213.0</ele><time>2026-04-26T09:48:19Z</time></trkpt><trkpt lat="45.36230170432684" lon="8.11122856438226"><ele>213.0</ele><time>2026-04-26T09:48:20Z</time></trkpt><trkpt lat="45.36234458892722" lon="8.110848889092619"><ele>213.0</ele><time>2026-04-26T09:48:21Z</time></trkpt><trkpt lat="45.3623871128694" lon="8.110472406882085"><ele>213.0</ele><time>2026-04-26T09:48:22Z</time></trkpt><trkpt lat="45.36242991074203" lon="8.110097918987396"><ele>213.0</ele><time>2026-04-26T09:48:23Z</time></trkpt><trkpt lat="45.36247268847671" lon="8.109724103311649"><ele>213.5</ele><time>2026-04-26T09:48:24Z</time></trkpt><trkpt lat="45.36251544649038" lon="8.109350459926087"><ele>214.0</ele><time>2026-04-26T09:48:25Z</time></trkpt><trkpt lat="45.36255770119584" lon="8.108981214745366"><ele>214.5</ele><time>2026-04-26T09:48:26Z</time></trkpt><trkpt lat="45.362600161423316" lon="8.108610173582276"><ele>215.0</ele><time>2026-04-26T09:48:27Z</time></trkpt><trkpt lat="45.3626422131513" lon="8.108242702150314"><ele>215.5</ele><time>2026-04-26T09:48:28Z</time></trkpt><trkpt lat="45.36268390021794" lon="8.107878416673708"><ele>216.0</ele><time>2026-04-26T09:48:29Z</time></trkpt><trkpt lat="45.36272553025982" lon="8.107514623745631"><ele>216.0</ele><time>2026-04-26T09:48:30Z</time></trkpt><trkpt lat="45.3627668148598" lon="8.107153849535045"><ele>216.0</ele><time>2026-04-26T09:48:31Z</time></trkpt><trkpt lat="45.36280621003228" lon="8.106798210814544"><ele>216.0</ele><time>2026-04-26T09:48:32Z</time></trkpt><trkpt lat="45.36282283897876" lon="8.106438794731465"><ele>216.0</ele><time>2026-04-26T09:48:33Z</time></trkpt><trkpt lat="45.36286295476108" lon="8.106090914595633"><ele>216.0</ele><time>2026-04-26T09:48:34Z</time></trkpt><trkpt lat="45.36290154169365" lon="8.105745596402517"><ele>216.0</ele><time>2026-04-26T09:48:35Z</time></trkpt><trkpt lat="45.362939008321966" lon="8.105404687623803"><ele>216.5</ele><time>2026-04-26T09:48:36Z</time></trkpt><trkpt lat="45.36297556844563" lon="8.10506882313893"><ele>217.0</ele><time>2026-04-26T09:48:37Z</time></trkpt><trkpt lat="45.36301305304927" lon="8.104738104413304"><ele>217.0</ele><time>2026-04-26T09:48:38Z</time></trkpt><trkpt lat="45.363053050147975" lon="8.104408216345556"><ele>217.0</ele><time>2026-04-26T09:48:39Z</time></trkpt><trkpt lat="45.363093927342845" lon="8.104077317529812"><ele>217.5</ele><time>2026-04-26T09:48:40Z</time></trkpt><trkpt lat="45.36313146285952" lon="8.103747417008194"><ele>218.0</ele><time>2026-04-26T09:48:41Z</time></trkpt><trkpt lat="45.363165338779105" lon="8.103427308909271"><ele>218.66666666666669</ele><time>2026-04-26T09:48:42Z</time></trkpt><trkpt lat="45.36319681291706" lon="8.103127360707166"><ele>219.33333333333331</ele><time>2026-04-26T09:48:43Z</time></trkpt><trkpt lat="45.36322851434125" lon="8.10284437730421"><ele>220.0</ele><time>2026-04-26T09:48:44Z</time></trkpt><trkpt lat="45.363256551889855" lon="8.1025969951335"><ele>220.5</ele><time>2026-04-26T09:48:45Z</time></trkpt><trkpt lat="45.36328088910336" lon="8.1023940909183"><ele>221.0</ele><time>2026-04-26T09:48:46Z</time></trkpt><trkpt lat="45.36330324119257" lon="8.102191307947443"><ele>221.5</ele><time>2026-04-26T09:48:47Z</time></trkpt><trkpt lat="45.363326061733765" lon="8.101985245015822"><ele>222.0</ele><time>2026-04-26T09:48:48Z</time></trkpt><trkpt lat="45.36334951561936" lon="8.101777094770995"><ele>222.0</ele><time>2026-04-26T09:48:49Z</time></trkpt><trkpt lat="45.36337321453883" lon="8.101566157908549"><ele>222.0</ele><time>2026-04-26T09:48:50Z</time></trkpt><trkpt lat="45.3633966257364" lon="8.101352803329949"><ele>222.0</ele><time>2026-04-26T09:48:51Z</time></trkpt><trkpt lat="45.3634197492963" lon="8.101137275174652"><ele>222.0</ele><time>2026-04-26T09:48:52Z</time></trkpt><trkpt lat="45.36344222155416" lon="8.100923423812576"><ele>222.0</ele><time>2026-04-26T09:48:53Z</time></trkpt><trkpt lat="45.363466544401234" lon="8.100714049474073"><ele>222.0</ele><time>2026-04-26T09:48:54Z</time></trkpt><trkpt lat="45.36348841305366" lon="8.10054117508349"><ele>222.0</ele><time>2026-04-26T09:48:55Z</time></trkpt><trkpt lat="45.363505540346715" lon="8.100389766362904"><ele>222.0</ele><time>2026-04-26T09:48:56Z</time></trkpt><trkpt lat="45.36352223867841" lon="8.10023874706773"><ele>222.0</ele><time>2026-04-26T09:48:57Z</time></trkpt><trkpt lat="45.36354001297602" lon="8.100088945709677"><ele>222.0</ele><time>2026-04-26T09:48:58Z</time></trkpt><trkpt lat="45.36355844080034" lon="8.099932756927478"><ele>222.0</ele><time>2026-04-26T09:48:59Z</time></trkpt><trkpt lat="45.363578114601076" lon="8.099766137179651"><ele>222.0</ele><time>2026-04-26T09:49:00Z</time></trkpt><trkpt lat="45.36359719811177" lon="8.099592022001767"><ele>222.0</ele><time>2026-04-26T09:49:01Z</time></trkpt><trkpt lat="45.363617579209226" lon="8.099411884911143"><ele>222.0</ele><time>2026-04-26T09:49:02Z</time></trkpt><trkpt lat="45.36363984310622" lon="8.099230737259957"><ele>222.0</ele><time>2026-04-26T09:49:03Z</time></trkpt><trkpt lat="45.3636661129676" lon="8.09904250858131"><ele>222.0</ele><time>2026-04-26T09:49:04Z</time></trkpt><trkpt lat="45.363691207985305" lon="8.098852215210659"><ele>222.75</ele><time>2026-04-26T09:49:05Z</time></trkpt><trkpt lat="45.36371634955392" lon="8.098663708701256"><ele>223.5</ele><time>2026-04-26T09:49:06Z</time></trkpt><trkpt lat="45.36374560182956" lon="8.098470599477096"><ele>224.25</ele><time>2026-04-26T09:49:07Z</time></trkpt><trkpt lat="45.36378039094302" lon="8.0982803792707"><ele>225.0</ele><time>2026-04-26T09:49:08Z</time></trkpt><trkpt lat="45.363816362550075" lon="8.098096880522633"><ele>225.5</ele><time>2026-04-26T09:49:09Z</time></trkpt><trkpt lat="45.36385492074894" lon="8.097909920053937"><ele>226.0</ele><time>2026-04-26T09:49:10Z</time></trkpt><trkpt lat="45.363894918098275" lon="8.097719814469148"><ele>226.5</ele><time>2026-04-26T09:49:11Z</time></trkpt><trkpt lat="45.36393810011379" lon="8.097527440244681"><ele>227.0</ele><time>2026-04-26T09:49:12Z</time></trkpt><trkpt lat="45.363980680868565" lon="8.09733035048425"><ele>227.0</ele><time>2026-04-26T09:49:13Z</time></trkpt><trkpt lat="45.364025579623195" lon="8.097130661847038"><ele>227.0</ele><time>2026-04-26T09:49:14Z</time></trkpt><trkpt lat="45.364068948649404" lon="8.096924732856316"><ele>227.0</ele><time>2026-04-26T09:49:15Z</time></trkpt><trkpt lat="45.36411181258185" lon="8.09671571529482"><ele>227.33333333333334</ele><time>2026-04-26T09:49:16Z</time></trkpt><trkpt lat="45.364156035542635" lon="8.096504915813913"><ele>227.66666666666669</ele><time>2026-04-26T09:49:17Z</time></trkpt><trkpt lat="45.36420387800575" lon="8.096291585658586"><ele>228.0</ele><time>2026-04-26T09:49:18Z</time></trkpt><trkpt lat="45.364252634681804" lon="8.09607718314692"><ele>228.0</ele><time>2026-04-26T09:49:19Z</time></trkpt><trkpt lat="45.36429972005967" lon="8.09585928211418"><ele>228.0</ele><time>2026-04-26T09:49:20Z</time></trkpt><trkpt lat="45.364347178375304" lon="8.095641505103504"><ele>228.0</ele><time>2026-04-26T09:49:21Z</time></trkpt><trkpt lat="45.36439015185898" lon="8.095420736401067"><ele>228.0</ele><time>2026-04-26T09:49:22Z</time></trkpt><trkpt lat="45.36443743858972" lon="8.095198395036384"><ele>228.0</ele><time>2026-04-26T09:49:23Z</time></trkpt><trkpt lat="45.36448485015896" lon="8.094973950185832"><ele>228.0</ele><time>2026-04-26T09:49:24Z</time></trkpt><trkpt lat="45.36453647591664" lon="8.094746692330316"><ele>228.0</ele><time>2026-04-26T09:49:25Z</time></trkpt><trkpt lat="45.36459068659689" lon="8.094513693787869"><ele>228.0</ele><time>2026-04-26T09:49:26Z</time></trkpt><trkpt lat="45.36464326183646" lon="8.094283819967382"><ele>228.0</ele><time>2026-04-26T09:49:27Z</time></trkpt><trkpt lat="45.36469657492139" lon="8.094054821358183"><ele>228.33333333333331</ele><time>2026-04-26T09:49:28Z</time></trkpt><trkpt lat="45.36474940602623" lon="8.093823656601511"><ele>228.66666666666666</ele><time>2026-04-26T09:49:29Z</time></trkpt><trkpt lat="45.36480277865658" lon="8.09359356350939"><ele>229.0</ele><time>2026-04-26T09:49:30Z</time></trkpt><trkpt lat="45.36485400969701" lon="8.09336050019245"><ele>229.33333333333331</ele><time>2026-04-26T09:49:31Z</time></trkpt><trkpt lat="45.36490585209099" lon="8.093127404531971"><ele>229.66666666666669</ele><time>2026-04-26T09:49:32Z</time></trkpt><trkpt lat="45.364957516582294" lon="8.092896406132873"><ele>230.0</ele><time>2026-04-26T09:49:33Z</time></trkpt><trkpt lat="45.365008203925754" lon="8.092668060660612"><ele>230.0</ele><time>2026-04-26T09:49:34Z</time></trkpt><trkpt lat="45.36505730562954" lon="8.09243677281499"><ele>230.0</ele><time>2026-04-26T09:49:35Z</time></trkpt><trkpt lat="45.365106572473536" lon="8.092205623525551"><ele>230.0</ele><time>2026-04-26T09:49:36Z</time></trkpt><trkpt lat="45.36515654288636" lon="8.091975042893484"><ele>230.33333333333334</ele><time>2026-04-26T09:49:37Z</time></trkpt><trkpt lat="45.36523284616483" lon="8.09176111887778"><ele>230.66666666666669</ele><time>2026-04-26T09:49:38Z</time></trkpt><trkpt lat="45.36527356943311" lon="8.091536729276179"><ele>231.0</ele><time>2026-04-26T09:49:39Z</time></trkpt><trkpt lat="45.36530823559545" lon="8.091313833513313"><ele>231.66666666666669</ele><time>2026-04-26T09:49:40Z</time></trkpt><trkpt lat="45.365335047357654" lon="8.091090404649766"><ele>232.33333333333334</ele><time>2026-04-26T09:49:41Z</time></trkpt><trkpt lat="45.365346273979775" lon="8.090857702644792"><ele>233.0</ele><time>2026-04-26T09:49:42Z</time></trkpt><trkpt lat="45.36534867388856" lon="8.090636902386033"><ele>233.25</ele><time>2026-04-26T09:49:43Z</time></trkpt><trkpt lat="45.36535061634991" lon="8.090426827327954"><ele>233.5</ele><time>2026-04-26T09:49:44Z</time></trkpt><trkpt lat="45.36535164523354" lon="8.09022069899914"><ele>233.75</ele><time>2026-04-26T09:49:45Z</time></trkpt><trkpt lat="45.36535164523313" lon="8.090013151965794"><ele>234.0</ele><time>2026-04-26T09:49:46Z</time></trkpt><trkpt lat="45.36535164523215" lon="8.089804648028306"><ele>234.33333333333331</ele><time>2026-04-26T09:49:47Z</time></trkpt><trkpt lat="45.36535164523215" lon="8.089588315309507"><ele>234.66666666666666</ele><time>2026-04-26T09:49:48Z</time></trkpt><trkpt lat="45.36535164523148" lon="8.08937000348914"><ele>235.0</ele><time>2026-04-26T09:49:49Z</time></trkpt><trkpt lat="45.365351645230966" lon="8.089147606042488"><ele>235.33333333333331</ele><time>2026-04-26T09:49:50Z</time></trkpt><trkpt lat="45.365347167265604" lon="8.08892121503104"><ele>235.66666666666669</ele><time>2026-04-26T09:49:51Z</time></trkpt><trkpt lat="45.365328350886706" lon="8.088689628537317"><ele>236.0</ele><time>2026-04-26T09:49:52Z</time></trkpt><trkpt lat="45.36528999121321" lon="8.08846919559246"><ele>236.33333333333334</ele><time>2026-04-26T09:49:53Z</time></trkpt><trkpt lat="45.36524594467866" lon="8.08825112336176"><ele>236.66666666666669</ele><time>2026-04-26T09:49:54Z</time></trkpt><trkpt lat="45.36520122124161" lon="8.08803380436116"><ele>237.0</ele><time>2026-04-26T09:49:55Z</time></trkpt><trkpt lat="45.36515469678222" lon="8.087812462089142"><ele>237.0</ele><time>2026-04-26T09:49:56Z</time></trkpt><trkpt lat="45.3651076761551" lon="8.087592322261473"><ele>237.0</ele><time>2026-04-26T09:49:57Z</time></trkpt><trkpt lat="45.36506118463493" lon="8.087370335578306"><ele>237.0</ele><time>2026-04-26T09:49:58Z</time></trkpt><trkpt lat="45.36502656360068" lon="8.087142236570418"><ele>237.0</ele><time>2026-04-26T09:49:59Z</time></trkpt><trkpt lat="45.365003967903434" lon="8.086908408339795"><ele>237.0</ele><time>2026-04-26T09:50:00Z</time></trkpt><trkpt lat="45.364992310655715" lon="8.086670018188249"><ele>237.0</ele><time>2026-04-26T09:50:01Z</time></trkpt><trkpt lat="45.364985977956366" lon="8.08643111053654"><ele>237.33333333333331</ele><time>2026-04-26T09:50:02Z</time></trkpt><trkpt lat="45.36498041537132" lon="8.086190613768103"><ele>237.66666666666666</ele><time>2026-04-26T09:50:03Z</time></trkpt><trkpt lat="45.364977748451324" lon="8.08595299073326"><ele>238.0</ele><time>2026-04-26T09:50:04.001Z</time></trkpt><trkpt lat="45.364974967997505" lon="8.085719865098548"><ele>238.33333333333331</ele><time>2026-04-26T09:50:05.001Z</time></trkpt><trkpt lat="45.364973013375874" lon="8.085491271651572"><ele>238.66666666666669</ele><time>2026-04-26T09:50:06.001Z</time></trkpt><trkpt lat="45.36497245666353" lon="8.085265277126439"><ele>239.0</ele><time>2026-04-26T09:50:07.001Z</time></trkpt><trkpt lat="45.364979649238215" lon="8.085043778322307"><ele>238.75</ele><time>2026-04-26T09:50:08.001Z</time></trkpt><trkpt lat="45.36499712443484" lon="8.084829509848307"><ele>238.5</ele><time>2026-04-26T09:50:09.001Z</time></trkpt><trkpt lat="45.36502684789452" lon="8.08462143974769"><ele>238.25</ele><time>2026-04-26T09:50:10Z</time></trkpt><trkpt lat="45.36506474094612" lon="8.08442012309129"><ele>238.0</ele><time>2026-04-26T09:50:11Z</time></trkpt><trkpt lat="45.3651036948808" lon="8.08422546236426"><ele>238.0</ele><time>2026-04-26T09:50:12Z</time></trkpt><trkpt lat="45.365140490935495" lon="8.08405034290116"><ele>238.0</ele><time>2026-04-26T09:50:13Z</time></trkpt><trkpt lat="45.365175068748954" lon="8.083887884766773"><ele>238.0</ele><time>2026-04-26T09:50:14Z</time></trkpt><trkpt lat="45.36520978553013" lon="8.083734468419697"><ele>238.0</ele><time>2026-04-26T09:50:15Z</time></trkpt><trkpt lat="45.36522437729105" lon="8.083603683377163"><ele>237.99999999999997</ele><time>2026-04-26T09:50:16Z</time></trkpt><trkpt lat="45.36527004119075" lon="8.083526045546533"><ele>238.0</ele><time>2026-04-26T09:50:17Z</time></trkpt><trkpt lat="45.36535005010672" lon="8.08344460609447"><ele>238.0</ele><time>2026-04-26T09:50:19Z</time></trkpt><trkpt lat="45.36541131726342" lon="8.083403472544465"><ele>238.0</ele><time>2026-04-26T09:50:20Z</time></trkpt><trkpt lat="45.36548845517954" lon="8.083348285955688"><ele>237.99999999999997</ele><time>2026-04-26T09:50:21Z</time></trkpt><trkpt lat="45.36558033980067" lon="8.083283658108455"><ele>238.0</ele><time>2026-04-26T09:50:22Z</time></trkpt><trkpt lat="45.36568107336732" lon="8.083237897180984"><ele>239.0</ele><time>2026-04-26T09:50:23Z</time></trkpt><trkpt lat="45.36578707604789" lon="8.083230752311698"><ele>240.0</ele><time>2026-04-26T09:50:24Z</time></trkpt><trkpt lat="45.365901734507986" lon="8.083227905144208"><ele>241.0</ele><time>2026-04-26T09:50:25Z</time></trkpt><trkpt lat="45.366024124041296" lon="8.083218573108688"><ele>242.0</ele><time>2026-04-26T09:50:26Z</time></trkpt><trkpt lat="45.36615348793996" lon="8.083202183002454"><ele>242.0</ele><time>2026-04-26T09:50:27Z</time></trkpt><trkpt lat="45.366288255934016" lon="8.083174382661488"><ele>242.0</ele><time>2026-04-26T09:50:28Z</time></trkpt><trkpt lat="45.366427999430115" lon="8.083136594427817"><ele>242.0</ele><time>2026-04-26T09:50:29Z</time></trkpt><trkpt lat="45.36657344288891" lon="8.08308901696017"><ele>242.0</ele><time>2026-04-26T09:50:30Z</time></trkpt><trkpt lat="45.366721781024864" lon="8.083032465770351"><ele>241.66666666666669</ele><time>2026-04-26T09:50:31Z</time></trkpt><trkpt lat="45.36687193063842" lon="8.082963705290956"><ele>241.33333333333331</ele><time>2026-04-26T09:50:32Z</time></trkpt><trkpt lat="45.36702123745824" lon="8.08287600069577"><ele>241.0</ele><time>2026-04-26T09:50:33Z</time></trkpt><trkpt lat="45.367169127494115" lon="8.082795271020004"><ele>241.0</ele><time>2026-04-26T09:50:34Z</time></trkpt><trkpt lat="45.36729789705721" lon="8.082679374830278"><ele>241.0</ele><time>2026-04-26T09:50:35Z</time></trkpt><trkpt lat="45.36741828023317" lon="8.082553824617557"><ele>241.0</ele><time>2026-04-26T09:50:36Z</time></trkpt><trkpt lat="45.36753485439899" lon="8.082421487494882"><ele>241.5</ele><time>2026-04-26T09:50:37Z</time></trkpt><trkpt lat="45.36764841312736" lon="8.08228387303794"><ele>242.0</ele><time>2026-04-26T09:50:38Z</time></trkpt><trkpt lat="45.3677598613809" lon="8.082145315955527"><ele>242.5</ele><time>2026-04-26T09:50:39Z</time></trkpt><trkpt lat="45.36787250884657" lon="8.082005885761959"><ele>243.0</ele><time>2026-04-26T09:50:40Z</time></trkpt><trkpt lat="45.367988878572554" lon="8.081861848241743"><ele>243.0</ele><time>2026-04-26T09:50:41Z</time></trkpt><trkpt lat="45.368110419978436" lon="8.081711409483141"><ele>243.0</ele><time>2026-04-26T09:50:42Z</time></trkpt><trkpt lat="45.36823469797729" lon="8.081557583498656"><ele>243.0</ele><time>2026-04-26T09:50:43Z</time></trkpt><trkpt lat="45.36835780287461" lon="8.081405209542856"><ele>243.0</ele><time>2026-04-26T09:50:44Z</time></trkpt><trkpt lat="45.36847537543696" lon="8.081259683283468"><ele>243.0</ele><time>2026-04-26T09:50:45Z</time></trkpt><trkpt lat="45.36858620755392" lon="8.081122500021692"><ele>243.0</ele><time>2026-04-26T09:50:46Z</time></trkpt><trkpt lat="45.36869240227211" lon="8.080991056741444"><ele>243.0</ele><time>2026-04-26T09:50:47Z</time></trkpt><trkpt lat="45.36879534482974" lon="8.08086363883732"><ele>244.0</ele><time>2026-04-26T09:50:48Z</time></trkpt><trkpt lat="45.36889607533379" lon="8.08073895785766"><ele>245.0</ele><time>2026-04-26T09:50:49Z</time></trkpt><trkpt lat="45.36899439849257" lon="8.080618767449966"><ele>246.0</ele><time>2026-04-26T09:50:50Z</time></trkpt><trkpt lat="45.36909236853211" lon="8.080498439378516"><ele>247.0</ele><time>2026-04-26T09:50:51Z</time></trkpt><trkpt lat="45.36918994707058" lon="8.080378818422036"><ele>247.0</ele><time>2026-04-26T09:50:52Z</time></trkpt><trkpt lat="45.369285293050694" lon="8.080262080340995"><ele>247.0</ele><time>2026-04-26T09:50:53Z</time></trkpt><trkpt lat="45.36938085558977" lon="8.08014507712035"><ele>247.0</ele><time>2026-04-26T09:50:54Z</time></trkpt><trkpt lat="45.3694737513283" lon="8.080031338771699"><ele>247.0</ele><time>2026-04-26T09:50:55Z</time></trkpt><trkpt lat="45.36955737027503" lon="8.079930375119206"><ele>247.0</ele><time>2026-04-26T09:50:56Z</time></trkpt><trkpt lat="45.369630228681935" lon="8.079846348274918"><ele>247.0</ele><time>2026-04-26T09:50:57Z</time></trkpt><trkpt lat="45.36969733216354" lon="8.079772857748962"><ele>247.0</ele><time>2026-04-26T09:50:58Z</time></trkpt><trkpt lat="45.36976530613428" lon="8.079702875838427"><ele>247.0</ele><time>2026-04-26T09:50:59Z</time></trkpt><trkpt lat="45.36977605491351" lon="8.079466248631748"><ele>247.0</ele><time>2026-04-26T09:51:00Z</time></trkpt><trkpt lat="45.369822187160445" lon="8.079303834772492"><ele>247.5</ele><time>2026-04-26T09:51:01Z</time></trkpt><trkpt lat="45.369870454046705" lon="8.079127322606853"><ele>248.0</ele><time>2026-04-26T09:51:02Z</time></trkpt><trkpt lat="45.36992284660743" lon="8.07893572293643"><ele>248.5</ele><time>2026-04-26T09:51:03Z</time></trkpt><trkpt lat="45.369975621546416" lon="8.078738079780491"><ele>249.0</ele><time>2026-04-26T09:51:04Z</time></trkpt><trkpt lat="45.37002377772729" lon="8.078542976693296"><ele>249.25</ele><time>2026-04-26T09:51:05Z</time></trkpt><trkpt lat="45.3700680941871" lon="8.078356136457916"><ele>249.5</ele><time>2026-04-26T09:51:06Z</time></trkpt><trkpt lat="45.3701111384659" lon="8.078175417578459"><ele>249.75</ele><time>2026-04-26T09:51:07Z</time></trkpt><trkpt lat="45.37015351221284" lon="8.077998335884567"><ele>250.0</ele><time>2026-04-26T09:51:08Z</time></trkpt><trkpt lat="45.37019509172619" lon="8.077826155273424"><ele>250.2</ele><time>2026-04-26T09:51:09Z</time></trkpt><trkpt lat="45.37023394879453" lon="8.077665489703719"><ele>250.4</ele><time>2026-04-26T09:51:10Z</time></trkpt><trkpt lat="45.37027123522714" lon="8.07751131880084"><ele>250.60000000000002</ele><time>2026-04-26T09:51:11Z</time></trkpt><trkpt lat="45.37030425125847" lon="8.07737237131201"><ele>250.8</ele><time>2026-04-26T09:51:12Z</time></trkpt><trkpt lat="45.37033281746715" lon="8.07724985054238"><ele>251.0</ele><time>2026-04-26T09:51:13Z</time></trkpt><trkpt lat="45.3703578066481" lon="8.077138658025538"><ele>251.00000000000003</ele><time>2026-04-26T09:51:14Z</time></trkpt><trkpt lat="45.370385496818045" lon="8.07701349500814"><ele>251.0</ele><time>2026-04-26T09:51:16Z</time></trkpt><trkpt lat="45.37040650296658" lon="8.07692545922048"><ele>251.0</ele><time>2026-04-26T09:51:18Z</time></trkpt><trkpt lat="45.37045832471288" lon="8.076798264408902"><ele>251.0</ele><time>2026-04-26T09:51:25Z</time></trkpt><trkpt lat="45.37049701427648" lon="8.07667945111392"><ele>251.00000000000003</ele><time>2026-04-26T09:51:26Z</time></trkpt><trkpt lat="45.37053029913876" lon="8.076561251530569"><ele>251.0</ele><time>2026-04-26T09:51:27Z</time></trkpt><trkpt lat="45.370565426716745" lon="8.076436690794104"><ele>251.75</ele><time>2026-04-26T09:51:28Z</time></trkpt><trkpt lat="45.37061063521305" lon="8.076282936230538"><ele>252.5</ele><time>2026-04-26T09:51:29Z</time></trkpt><trkpt lat="45.370660348938046" lon="8.076113859282772"><ele>253.25</ele><time>2026-04-26T09:51:30Z</time></trkpt><trkpt lat="45.37070868620594" lon="8.07594946324919"><ele>254.0</ele><time>2026-04-26T09:51:31Z</time></trkpt><trkpt lat="45.37075427224948" lon="8.075797240978728"><ele>254.2</ele><time>2026-04-26T09:51:32Z</time></trkpt><trkpt lat="45.370796146170406" lon="8.075656478213824"><ele>254.39999999999998</ele><time>2026-04-26T09:51:33Z</time></trkpt><trkpt lat="45.37083636466339" lon="8.075521280346049"><ele>254.6</ele><time>2026-04-26T09:51:34Z</time></trkpt><trkpt lat="45.37087605106344" lon="8.075384997776831"><ele>254.8</ele><time>2026-04-26T09:51:35Z</time></trkpt><trkpt lat="45.37091123384936" lon="8.075263263729159"><ele>255.0</ele><time>2026-04-26T09:51:36Z</time></trkpt><trkpt lat="45.370941250271336" lon="8.075159405431592"><ele>255.0</ele><time>2026-04-26T09:51:37Z</time></trkpt><trkpt lat="45.370966830201084" lon="8.075066767731732"><ele>255.0</ele><time>2026-04-26T09:51:38Z</time></trkpt><trkpt lat="45.371006764025424" lon="8.074912230760122"><ele>255.0</ele><time>2026-04-26T09:51:40Z</time></trkpt><trkpt lat="45.37101501975058" lon="8.074818828747116"><ele>255.0</ele><time>2026-04-26T09:51:42Z</time></trkpt><trkpt lat="45.371065225975045" lon="8.074752012106115"><ele>255.0</ele><time>2026-04-26T09:51:44Z</time></trkpt><trkpt lat="45.371139410101115" lon="8.074764866060551"><ele>255.0</ele><time>2026-04-26T09:51:45Z</time></trkpt><trkpt lat="45.37121770817222" lon="8.074725850922183"><ele>255.0</ele><time>2026-04-26T09:51:46Z</time></trkpt><trkpt lat="45.371315756022135" lon="8.074676171684386"><ele>255.0</ele><time>2026-04-26T09:51:47Z</time></trkpt><trkpt lat="45.37142243631501" lon="8.074622213417081"><ele>255.0</ele><time>2026-04-26T09:51:48Z</time></trkpt><trkpt lat="45.37152926545585" lon="8.074568179858359"><ele>255.0</ele><time>2026-04-26T09:51:49Z</time></trkpt><trkpt lat="45.37165527734922" lon="8.074504411134326"><ele>255.0</ele><time>2026-04-26T09:51:50Z</time></trkpt><trkpt lat="45.37179042516529" lon="8.074435597753101"><ele>255.0</ele><time>2026-04-26T09:51:51Z</time></trkpt><trkpt lat="45.37193750346542" lon="8.074360709723019"><ele>255.0</ele><time>2026-04-26T09:51:52Z</time></trkpt><trkpt lat="45.37208213992626" lon="8.0742870650054"><ele>255.33333333333331</ele><time>2026-04-26T09:51:53Z</time></trkpt><trkpt lat="45.372226279028666" lon="8.07421367353233"><ele>255.66666666666666</ele><time>2026-04-26T09:51:54Z</time></trkpt><trkpt lat="45.37237957151877" lon="8.074135621415104"><ele>256.0</ele><time>2026-04-26T09:51:55Z</time></trkpt><trkpt lat="45.372536601401954" lon="8.074055666326492"><ele>256.3333333333333</ele><time>2026-04-26T09:51:56Z</time></trkpt><trkpt lat="45.372693027012936" lon="8.073976275243334"><ele>256.6666666666667</ele><time>2026-04-26T09:51:57Z</time></trkpt><trkpt lat="45.37284322066178" lon="8.07390117841972"><ele>257.0</ele><time>2026-04-26T09:51:58Z</time></trkpt><trkpt lat="45.37298495372176" lon="8.073830311890502"><ele>257.5</ele><time>2026-04-26T09:51:59Z</time></trkpt><trkpt lat="45.373123374917284" lon="8.073761101068403"><ele>258.0</ele><time>2026-04-26T09:52:00Z</time></trkpt><trkpt lat="45.373258153085736" lon="8.073694163890448"><ele>258.5</ele><time>2026-04-26T09:52:01Z</time></trkpt><trkpt lat="45.37339434336954" lon="8.073623309551268"><ele>259.0</ele><time>2026-04-26T09:52:02Z</time></trkpt><trkpt lat="45.37353361479797" lon="8.073551953147213"><ele>259.0</ele><time>2026-04-26T09:52:03Z</time></trkpt><trkpt lat="45.37367851542381" lon="8.073477712595546"><ele>259.0</ele><time>2026-04-26T09:52:04Z</time></trkpt><trkpt lat="45.373827617351864" lon="8.073403207588564"><ele>259.0</ele><time>2026-04-26T09:52:05Z</time></trkpt><trkpt lat="45.373980505836705" lon="8.0733274951692"><ele>259.3333333333333</ele><time>2026-04-26T09:52:06.001Z</time></trkpt><trkpt lat="45.3741333072102" lon="8.073251825891132"><ele>259.6666666666667</ele><time>2026-04-26T09:52:07.001Z</time></trkpt><trkpt lat="45.374288367008056" lon="8.073175038206612"><ele>260.0</ele><time>2026-04-26T09:52:08.001Z</time></trkpt><trkpt lat="45.37444563510722" lon="8.07309715694246"><ele>260.0</ele><time>2026-04-26T09:52:09.001Z</time></trkpt><trkpt lat="45.374602094172076" lon="8.073019550951491"><ele>260.0</ele><time>2026-04-26T09:52:10.001Z</time></trkpt><trkpt lat="45.37475730782802" lon="8.0729425603098"><ele>260.0</ele><time>2026-04-26T09:52:11.001Z</time></trkpt><trkpt lat="45.37491143598911" lon="8.072866108105435"><ele>261.0</ele><time>2026-04-26T09:52:12.001Z</time></trkpt><trkpt lat="45.375065972164414" lon="8.072787864283992"><ele>262.0</ele><time>2026-04-26T09:52:13.001Z</time></trkpt><trkpt lat="45.375220371246684" lon="8.072709508867671"><ele>263.0</ele><time>2026-04-26T09:52:14.001Z</time></trkpt><trkpt lat="45.37537196463904" lon="8.072632784714607"><ele>263.33333333333337</ele><time>2026-04-26T09:52:15.001Z</time></trkpt><trkpt lat="45.37552633147299" lon="8.072554941608733"><ele>263.6666666666667</ele><time>2026-04-26T09:52:16Z</time></trkpt><trkpt lat="45.375681154575446" lon="8.07247686841918"><ele>264.0</ele><time>2026-04-26T09:52:17Z</time></trkpt><trkpt lat="45.37583294190762" lon="8.072400326088228"><ele>264.3333333333333</ele><time>2026-04-26T09:52:18Z</time></trkpt><trkpt lat="45.375976995204674" lon="8.072303543357386"><ele>264.66666666666663</ele><time>2026-04-26T09:52:19Z</time></trkpt><trkpt lat="45.37612363583341" lon="8.072233768495085"><ele>265.0</ele><time>2026-04-26T09:52:20Z</time></trkpt><trkpt lat="45.37627069643291" lon="8.072160679975225"><ele>265.3333333333333</ele><time>2026-04-26T09:52:21Z</time></trkpt><trkpt lat="45.37641812625275" lon="8.072085970622723"><ele>265.6666666666667</ele><time>2026-04-26T09:52:22Z</time></trkpt><trkpt lat="45.37656981597304" lon="8.072009897306927"><ele>266.0</ele><time>2026-04-26T09:52:23Z</time></trkpt><trkpt lat="45.376725157411755" lon="8.07193449443172"><ele>266.0</ele><time>2026-04-26T09:52:24Z</time></trkpt><trkpt lat="45.3768840344529" lon="8.071856016661389"><ele>266.0</ele><time>2026-04-26T09:52:25Z</time></trkpt><trkpt lat="45.377046244332774" lon="8.071776886619912"><ele>266.0</ele><time>2026-04-26T09:52:26Z</time></trkpt><trkpt lat="45.37720837993888" lon="8.071695652032176"><ele>266.33333333333337</ele><time>2026-04-26T09:52:27Z</time></trkpt><trkpt lat="45.377370912646995" lon="8.0716107444975"><ele>266.6666666666667</ele><time>2026-04-26T09:52:28Z</time></trkpt><trkpt lat="45.37753652886727" lon="8.071521896822802"><ele>267.0</ele><time>2026-04-26T09:52:29Z</time></trkpt><trkpt lat="45.37770393300759" lon="8.071436838774716"><ele>267.3333333333333</ele><time>2026-04-26T09:52:30Z</time></trkpt><trkpt lat="45.3778670277401" lon="8.071352238002733"><ele>267.66666666666663</ele><time>2026-04-26T09:52:31Z</time></trkpt><trkpt lat="45.378024662900465" lon="8.071257754778317"><ele>268.0</ele><time>2026-04-26T09:52:32Z</time></trkpt><trkpt lat="45.37817755425542" lon="8.071148586084663"><ele>268.3333333333333</ele><time>2026-04-26T09:52:33Z</time></trkpt><trkpt lat="45.378323101816434" lon="8.071025105379105"><ele>268.6666666666667</ele><time>2026-04-26T09:52:34Z</time></trkpt><trkpt lat="45.37847493948178" lon="8.070915465533206"><ele>269.0</ele><time>2026-04-26T09:52:35Z</time></trkpt><trkpt lat="45.37860732116762" lon="8.070773318413233"><ele>269.0</ele><time>2026-04-26T09:52:36Z</time></trkpt><trkpt lat="45.378738188010146" lon="8.070633426928993"><ele>269.0</ele><time>2026-04-26T09:52:37Z</time></trkpt><trkpt lat="45.37886479323467" lon="8.070501902522375"><ele>269.0</ele><time>2026-04-26T09:52:38Z</time></trkpt><trkpt lat="45.37899026099931" lon="8.070384740620975"><ele>269.75</ele><time>2026-04-26T09:52:39Z</time></trkpt><trkpt lat="45.37911891691683" lon="8.070291473969043"><ele>270.5</ele><time>2026-04-26T09:52:40Z</time></trkpt><trkpt lat="45.379247991643105" lon="8.07020038125968"><ele>271.25</ele><time>2026-04-26T09:52:41Z</time></trkpt><trkpt lat="45.37938870529789" lon="8.070156113920092"><ele>272.0</ele><time>2026-04-26T09:52:42Z</time></trkpt><trkpt lat="45.37952569273367" lon="8.070129719924255"><ele>272.0</ele><time>2026-04-26T09:52:43Z</time></trkpt><trkpt lat="45.37965531121145" lon="8.0701230804165"><ele>272.0</ele><time>2026-04-26T09:52:44Z</time></trkpt><trkpt lat="45.37977731829981" lon="8.070128887408607"><ele>272.0</ele><time>2026-04-26T09:52:45Z</time></trkpt><trkpt lat="45.379898523965224" lon="8.07014282283021"><ele>272.0</ele><time>2026-04-26T09:52:46Z</time></trkpt><trkpt lat="45.380017012756234" lon="8.07016196896999"><ele>272.5</ele><time>2026-04-26T09:52:47Z</time></trkpt><trkpt lat="45.380136633896" lon="8.070187961522606"><ele>273.0</ele><time>2026-04-26T09:52:48Z</time></trkpt><trkpt lat="45.38026010277016" lon="8.070206939324665"><ele>273.5</ele><time>2026-04-26T09:52:49Z</time></trkpt><trkpt lat="45.3803849288466" lon="8.070227230346635"><ele>274.0</ele><time>2026-04-26T09:52:50Z</time></trkpt><trkpt lat="45.38051362366213" lon="8.070247311560733"><ele>273.75</ele><time>2026-04-26T09:52:51Z</time></trkpt><trkpt lat="45.38064492216305" lon="8.070265589198115"><ele>273.5</ele><time>2026-04-26T09:52:52Z</time></trkpt><trkpt lat="45.38077973772189" lon="8.070273389190227"><ele>273.25</ele><time>2026-04-26T09:52:53Z</time></trkpt><trkpt lat="45.38091968053906" lon="8.070282864778711"><ele>273.0</ele><time>2026-04-26T09:52:54Z</time></trkpt><trkpt lat="45.38105913235581" lon="8.07025283122382"><ele>273.0</ele><time>2026-04-26T09:52:55Z</time></trkpt><trkpt lat="45.38119663618171" lon="8.070204865008433"><ele>273.0</ele><time>2026-04-26T09:52:56Z</time></trkpt><trkpt lat="45.38132802225427" lon="8.070134565552653"><ele>273.0</ele><time>2026-04-26T09:52:57Z</time></trkpt><trkpt lat="45.38145062706907" lon="8.070045238162436"><ele>273.0</ele><time>2026-04-26T09:52:58Z</time></trkpt><trkpt lat="45.38156639716685" lon="8.069941317327565"><ele>273.25</ele><time>2026-04-26T09:52:59Z</time></trkpt><trkpt lat="45.38168087033033" lon="8.069826603929595"><ele>273.5</ele><time>2026-04-26T09:53:00Z</time></trkpt><trkpt lat="45.38179480226574" lon="8.069700043205389"><ele>273.75</ele><time>2026-04-26T09:53:01Z</time></trkpt><trkpt lat="45.38190676485313" lon="8.069571132733634"><ele>274.0</ele><time>2026-04-26T09:53:02Z</time></trkpt><trkpt lat="45.38201596855508" lon="8.06944448292748"><ele>274.0</ele><time>2026-04-26T09:53:03Z</time></trkpt><trkpt lat="45.38212180715206" lon="8.069322959545993"><ele>274.0</ele><time>2026-04-26T09:53:04Z</time></trkpt><trkpt lat="45.38222435715734" lon="8.069205235296188"><ele>274.0</ele><time>2026-04-26T09:53:05Z</time></trkpt><trkpt lat="45.38232308688014" lon="8.06909189662387"><ele>274.0</ele><time>2026-04-26T09:53:06Z</time></trkpt><trkpt lat="45.38242061340879" lon="8.06897993919259"><ele>274.25</ele><time>2026-04-26T09:53:07Z</time></trkpt><trkpt lat="45.382520226933735" lon="8.068868810151187"><ele>274.5</ele><time>2026-04-26T09:53:08Z</time></trkpt><trkpt lat="45.38262158449509" lon="8.068757865203875"><ele>274.75</ele><time>2026-04-26T09:53:09Z</time></trkpt><trkpt lat="45.38272320797175" lon="8.06865047976808"><ele>275.0</ele><time>2026-04-26T09:53:10Z</time></trkpt><trkpt lat="45.38282693396754" lon="8.068548372242264"><ele>275.0</ele><time>2026-04-26T09:53:11Z</time></trkpt><trkpt lat="45.38293251369393" lon="8.06845088266797"><ele>275.0</ele><time>2026-04-26T09:53:12Z</time></trkpt><trkpt lat="45.3830410848567" lon="8.068355786515195"><ele>275.0</ele><time>2026-04-26T09:53:13Z</time></trkpt><trkpt lat="45.383150764173486" lon="8.068262319663265"><ele>275.0</ele><time>2026-04-26T09:53:14Z</time></trkpt><trkpt lat="45.383259857405285" lon="8.068167045649124"><ele>276.25</ele><time>2026-04-26T09:53:15Z</time></trkpt><trkpt lat="45.38337282378467" lon="8.068068790371337"><ele>277.5</ele><time>2026-04-26T09:53:16Z</time></trkpt><trkpt lat="45.38348471567737" lon="8.067971469654454"><ele>278.75</ele><time>2026-04-26T09:53:17Z</time></trkpt><trkpt lat="45.38360067271601" lon="8.067871569094114"><ele>280.0</ele><time>2026-04-26T09:53:18Z</time></trkpt><trkpt lat="45.38371941656575" lon="8.067769758682916"><ele>280.0</ele><time>2026-04-26T09:53:19Z</time></trkpt><trkpt lat="45.38384039868893" lon="8.067666029187151"><ele>280.0</ele><time>2026-04-26T09:53:20Z</time></trkpt><trkpt lat="45.38396329507622" lon="8.067560658410887"><ele>280.0</ele><time>2026-04-26T09:53:21Z</time></trkpt><trkpt lat="45.384084019921836" lon="8.067457149507181"><ele>280.0</ele><time>2026-04-26T09:53:22Z</time></trkpt><trkpt lat="45.3842019611962" lon="8.067356027091614"><ele>279.75</ele><time>2026-04-26T09:53:23Z</time></trkpt><trkpt lat="45.384319335367124" lon="8.067258149905086"><ele>279.5</ele><time>2026-04-26T09:53:24Z</time></trkpt><trkpt lat="45.38443622466278" lon="8.067159790472767"><ele>279.25</ele><time>2026-04-26T09:53:25Z</time></trkpt><trkpt lat="45.38455227102298" lon="8.067062140347646"><ele>279.0</ele><time>2026-04-26T09:53:26Z</time></trkpt><trkpt lat="45.38465859538298" lon="8.066972671038641"><ele>280.0</ele><time>2026-04-26T09:53:27Z</time></trkpt><trkpt lat="45.38476578588157" lon="8.066882472906649"><ele>281.0</ele><time>2026-04-26T09:53:28Z</time></trkpt><trkpt lat="45.38487577248729" lon="8.066792572781154"><ele>282.0</ele><time>2026-04-26T09:53:29Z</time></trkpt><trkpt lat="45.38498957447704" lon="8.066699726559179"><ele>283.0</ele><time>2026-04-26T09:53:30Z</time></trkpt><trkpt lat="45.385106438414496" lon="8.06660390656799"><ele>283.0</ele><time>2026-04-26T09:53:31Z</time></trkpt><trkpt lat="45.38522536317174" lon="8.066504633476695"><ele>283.0</ele><time>2026-04-26T09:53:32Z</time></trkpt><trkpt lat="45.38534427228421" lon="8.066405373442782"><ele>283.0</ele><time>2026-04-26T09:53:33Z</time></trkpt><trkpt lat="45.38545648478841" lon="8.066284645502824"><ele>283.0</ele><time>2026-04-26T09:53:34Z</time></trkpt><trkpt lat="45.38557831407363" lon="8.066209767792984"><ele>283.75</ele><time>2026-04-26T09:53:35Z</time></trkpt><trkpt lat="45.38568656249239" lon="8.06611782503237"><ele>284.5</ele><time>2026-04-26T09:53:36Z</time></trkpt><trkpt lat="45.38579099317808" lon="8.066029125079549"><ele>285.25</ele><time>2026-04-26T09:53:37Z</time></trkpt><trkpt lat="45.385894672076795" lon="8.065941063669783"><ele>286.0</ele><time>2026-04-26T09:53:38Z</time></trkpt><trkpt lat="45.385987897059884" lon="8.065836078516044"><ele>286.8</ele><time>2026-04-26T09:53:39Z</time></trkpt><trkpt lat="45.38608519828381" lon="8.065751209942619"><ele>287.6</ele><time>2026-04-26T09:53:40Z</time></trkpt><trkpt lat="45.38617814591536" lon="8.065670409243145"><ele>288.4</ele><time>2026-04-26T09:53:41Z</time></trkpt><trkpt lat="45.38626814551734" lon="8.065596852081779"><ele>289.2</ele><time>2026-04-26T09:53:42Z</time></trkpt><trkpt lat="45.38635021737869" lon="8.065533910285591"><ele>290.0</ele><time>2026-04-26T09:53:43Z</time></trkpt><trkpt lat="45.386435089850025" lon="8.065493899430884"><ele>290.2</ele><time>2026-04-26T09:53:44Z</time></trkpt><trkpt lat="45.38653010961435" lon="8.065481488845409"><ele>290.4</ele><time>2026-04-26T09:53:45Z</time></trkpt><trkpt lat="45.38663512432795" lon="8.06548730391024"><ele>290.6</ele><time>2026-04-26T09:53:46Z</time></trkpt><trkpt lat="45.386746478490466" lon="8.065498840027344"><ele>290.8</ele><time>2026-04-26T09:53:47Z</time></trkpt><trkpt lat="45.386864390395466" lon="8.065517377240106"><ele>291.0</ele><time>2026-04-26T09:53:48Z</time></trkpt><trkpt lat="45.38698192039519" lon="8.065533472531937"><ele>291.0</ele><time>2026-04-26T09:53:49Z</time></trkpt><trkpt lat="45.38709891272729" lon="8.065560850041678"><ele>291.0</ele><time>2026-04-26T09:53:50Z</time></trkpt><trkpt lat="45.38720819725514" lon="8.06557652079494"><ele>291.0</ele><time>2026-04-26T09:53:51Z</time></trkpt><trkpt lat="45.387308392461925" lon="8.06557923682935"><ele>291.0</ele><time>2026-04-26T09:53:52Z</time></trkpt><trkpt lat="45.387408076437" lon="8.065560453133045"><ele>291.0</ele><time>2026-04-26T09:53:53Z</time></trkpt><trkpt lat="45.38751091196677" lon="8.06552575833779"><ele>291.40000000000003</ele><time>2026-04-26T09:53:54Z</time></trkpt><trkpt lat="45.387613103610306" lon="8.065473830842855"><ele>291.8</ele><time>2026-04-26T09:53:55Z</time></trkpt><trkpt lat="45.38770661084124" lon="8.065400440256667"><ele>292.20000000000005</ele><time>2026-04-26T09:53:56Z</time></trkpt><trkpt lat="45.38778641433275" lon="8.065327042961616"><ele>292.6</ele><time>2026-04-26T09:53:57Z</time></trkpt><trkpt lat="45.38785824444663" lon="8.06524694166366"><ele>293.0</ele><time>2026-04-26T09:53:58Z</time></trkpt><trkpt lat="45.38793223996977" lon="8.065150972951143"><ele>293.0</ele><time>2026-04-26T09:53:59Z</time></trkpt><trkpt lat="45.3880152951312" lon="8.065051104556035"><ele>293.0</ele><time>2026-04-26T09:54:00Z</time></trkpt><trkpt lat="45.388108619674256" lon="8.064950926127167"><ele>293.0</ele><time>2026-04-26T09:54:01Z</time></trkpt><trkpt lat="45.388204931313865" lon="8.06485147256931"><ele>293.0</ele><time>2026-04-26T09:54:02Z</time></trkpt><trkpt lat="45.388299760187884" lon="8.064764651982706"><ele>293.8</ele><time>2026-04-26T09:54:03Z</time></trkpt><trkpt lat="45.38839673795876" lon="8.064694112212651"><ele>294.6</ele><time>2026-04-26T09:54:04Z</time></trkpt><trkpt lat="45.38849327920979" lon="8.064634489867522"><ele>295.4</ele><time>2026-04-26T09:54:05Z</time></trkpt><trkpt lat="45.388582097310824" lon="8.064579863161722"><ele>296.2</ele><time>2026-04-26T09:54:06Z</time></trkpt><trkpt lat="45.38866657568672" lon="8.06452773124058"><ele>297.0</ele><time>2026-04-26T09:54:07Z</time></trkpt><trkpt lat="45.388744602776214" lon="8.064473669393054"><ele>297.0</ele><time>2026-04-26T09:54:08Z</time></trkpt><trkpt lat="45.388827723054696" lon="8.064414104722191"><ele>297.0</ele><time>2026-04-26T09:54:09Z</time></trkpt><trkpt lat="45.38891334881996" lon="8.064355708327389"><ele>297.0</ele><time>2026-04-26T09:54:10Z</time></trkpt><trkpt lat="45.38899863730819" lon="8.064298453389952"><ele>297.0</ele><time>2026-04-26T09:54:11Z</time></trkpt><trkpt lat="45.389078404776654" lon="8.064244543956118"><ele>297.0</ele><time>2026-04-26T09:54:12Z</time></trkpt><trkpt lat="45.38915708437116" lon="8.064193247191573"><ele>297.3333333333333</ele><time>2026-04-26T09:54:13Z</time></trkpt><trkpt lat="45.389232425178" lon="8.064145119923364"><ele>297.6666666666667</ele><time>2026-04-26T09:54:14Z</time></trkpt><trkpt lat="45.38930675088003" lon="8.064097892956347"><ele>298.0</ele><time>2026-04-26T09:54:15Z</time></trkpt><trkpt lat="45.38938221466191" lon="8.064047638855543"><ele>298.33333333333337</ele><time>2026-04-26T09:54:16Z</time></trkpt><trkpt lat="45.38946109513945" lon="8.063998920049674"><ele>298.6666666666667</ele><time>2026-04-26T09:54:17Z</time></trkpt><trkpt lat="45.38953937362313" lon="8.063949244824938"><ele>299.0</ele><time>2026-04-26T09:54:18Z</time></trkpt><trkpt lat="45.38961521428006" lon="8.063899742173923"><ele>298.5</ele><time>2026-04-26T09:54:19Z</time></trkpt><trkpt lat="45.38968942926121" lon="8.063850473026143"><ele>298.0</ele><time>2026-04-26T09:54:20Z</time></trkpt><trkpt lat="45.38976235740319" lon="8.06379953074095"><ele>297.5</ele><time>2026-04-26T09:54:21Z</time></trkpt><trkpt lat="45.389833153925004" lon="8.063748940575502"><ele>297.0</ele><time>2026-04-26T09:54:21.999Z</time></trkpt><trkpt lat="45.38990857318021" lon="8.063702599915912"><ele>296.5</ele><time>2026-04-26T09:54:22.999Z</time></trkpt><trkpt lat="45.38998737424692" lon="8.06365227835314"><ele>296.0</ele><time>2026-04-26T09:54:23.999Z</time></trkpt><trkpt lat="45.39007686412682" lon="8.063609772327561"><ele>296.0</ele><time>2026-04-26T09:54:24.999Z</time></trkpt><trkpt lat="45.39017375767147" lon="8.063584394289514"><ele>296.0</ele><time>2026-04-26T09:54:25.999Z</time></trkpt><trkpt lat="45.390276845570064" lon="8.063573467468414"><ele>296.0</ele><time>2026-04-26T09:54:26.999Z</time></trkpt><trkpt lat="45.39038281028487" lon="8.063565707447973"><ele>296.0</ele><time>2026-04-26T09:54:27.999Z</time></trkpt><trkpt lat="45.3904907311657" lon="8.06355811077749"><ele>296.0</ele><time>2026-04-26T09:54:28.999Z</time></trkpt><trkpt lat="45.3905991117493" lon="8.063535194351251"><ele>296.2</ele><time>2026-04-26T09:54:29.999Z</time></trkpt><trkpt lat="45.39070954698233" lon="8.063494118624456"><ele>296.40000000000003</ele><time>2026-04-26T09:54:30.999Z</time></trkpt><trkpt lat="45.39081865474441" lon="8.063444799016644"><ele>296.6</ele><time>2026-04-26T09:54:31.999Z</time></trkpt><trkpt lat="45.39092030578222" lon="8.063401534254812"><ele>296.8</ele><time>2026-04-26T09:54:32.999Z</time></trkpt><trkpt lat="45.39101521596528" lon="8.063349605925755"><ele>297.0</ele><time>2026-04-26T09:54:33.999Z</time></trkpt><trkpt lat="45.39110529122327" lon="8.063282193215635"><ele>297.6</ele><time>2026-04-26T09:54:34.999Z</time></trkpt><trkpt lat="45.39119356903827" lon="8.063214200227005"><ele>298.2</ele><time>2026-04-26T09:54:35.999Z</time></trkpt><trkpt lat="45.39127847233678" lon="8.063144385257143"><ele>298.8</ele><time>2026-04-26T09:54:36.999Z</time></trkpt><trkpt lat="45.391356003960794" lon="8.063074876790786"><ele>299.4</ele><time>2026-04-26T09:54:37.999Z</time></trkpt><trkpt lat="45.39143099217534" lon="8.063009667392889"><ele>300.0</ele><time>2026-04-26T09:54:38.999Z</time></trkpt><trkpt lat="45.391503411287296" lon="8.06294940647399"><ele>300.8</ele><time>2026-04-26T09:54:39.999Z</time></trkpt><trkpt lat="45.39157592853605" lon="8.062877265767037"><ele>301.6</ele><time>2026-04-26T09:54:40.999Z</time></trkpt><trkpt lat="45.391648226384554" lon="8.062778049876636"><ele>302.4</ele><time>2026-04-26T09:54:41.999Z</time></trkpt><trkpt lat="45.391734197773154" lon="8.062672060903717"><ele>303.2</ele><time>2026-04-26T09:54:43Z</time></trkpt><trkpt lat="45.3918003332569" lon="8.062545267130231"><ele>304.0</ele><time>2026-04-26T09:54:44Z</time></trkpt><trkpt lat="45.391852229860774" lon="8.062411359032597"><ele>304.3333333333333</ele><time>2026-04-26T09:54:45Z</time></trkpt><trkpt lat="45.39188835605116" lon="8.062290043893123"><ele>304.66666666666663</ele><time>2026-04-26T09:54:46Z</time></trkpt><trkpt lat="45.391903211775784" lon="8.062159211839015"><ele>305.0</ele><time>2026-04-26T09:54:47Z</time></trkpt><trkpt lat="45.39193093183069" lon="8.062041868979954"><ele>305.3333333333333</ele><time>2026-04-26T09:54:48Z</time></trkpt><trkpt lat="45.391977412929215" lon="8.061933412585736"><ele>305.6666666666667</ele><time>2026-04-26T09:54:49Z</time></trkpt><trkpt lat="45.39199821012534" lon="8.061815182067253"><ele>306.0</ele><time>2026-04-26T09:54:50Z</time></trkpt><trkpt lat="45.39203709298152" lon="8.061703667931866"><ele>305.8</ele><time>2026-04-26T09:54:51Z</time></trkpt><trkpt lat="45.392075672680384" lon="8.061583907580058"><ele>305.6</ele><time>2026-04-26T09:54:52Z</time></trkpt><trkpt lat="45.39211647991808" lon="8.061463298199408"><ele>305.4</ele><time>2026-04-26T09:54:53Z</time></trkpt><trkpt lat="45.39216205737645" lon="8.06134364342184"><ele>305.2</ele><time>2026-04-26T09:54:54Z</time></trkpt><trkpt lat="45.392209288469175" lon="8.061231215150908"><ele>305.0</ele><time>2026-04-26T09:54:55Z</time></trkpt><trkpt lat="45.392257883551295" lon="8.061127182077207"><ele>305.0</ele><time>2026-04-26T09:54:56Z</time></trkpt><trkpt lat="45.39230693776984" lon="8.061032123916053"><ele>305.0</ele><time>2026-04-26T09:54:57Z</time></trkpt><trkpt lat="45.39235223791465" lon="8.06094391483392"><ele>305.0</ele><time>2026-04-26T09:54:58Z</time></trkpt><trkpt lat="45.3924010469976" lon="8.06085695949084"><ele>305.0</ele><time>2026-04-26T09:54:59Z</time></trkpt><trkpt lat="45.39245558412522" lon="8.06076064165744"><ele>305.0</ele><time>2026-04-26T09:55:00Z</time></trkpt><trkpt lat="45.39251788545822" lon="8.060658856701652"><ele>305.0</ele><time>2026-04-26T09:55:01Z</time></trkpt><trkpt lat="45.392587135207634" lon="8.060566837172017"><ele>304.8</ele><time>2026-04-26T09:55:02Z</time></trkpt><trkpt lat="45.392668055381904" lon="8.060503348299537"><ele>304.6</ele><time>2026-04-26T09:55:03Z</time></trkpt><trkpt lat="45.39275801885011" lon="8.060464519980473"><ele>304.4</ele><time>2026-04-26T09:55:04Z</time></trkpt><trkpt lat="45.39285152472191" lon="8.060445587450017"><ele>304.2</ele><time>2026-04-26T09:55:05Z</time></trkpt><trkpt lat="45.39294855923398" lon="8.060434287085428"><ele>304.0</ele><time>2026-04-26T09:55:06Z</time></trkpt><trkpt lat="45.39305152885245" lon="8.060430638520142"><ele>303.2</ele><time>2026-04-26T09:55:07Z</time></trkpt><trkpt lat="45.39315649298954" lon="8.060432292820447"><ele>302.4</ele><time>2026-04-26T09:55:08Z</time></trkpt><trkpt lat="45.39326065634842" lon="8.060433338244827"><ele>301.6</ele><time>2026-04-26T09:55:09Z</time></trkpt><trkpt lat="45.3933654043978" lon="8.060435025606585"><ele>300.8</ele><time>2026-04-26T09:55:10Z</time></trkpt><trkpt lat="45.393476076116734" lon="8.060432999314108"><ele>300.0</ele><time>2026-04-26T09:55:11Z</time></trkpt><trkpt lat="45.393578712923876" lon="8.060429782934369"><ele>300.0</ele><time>2026-04-26T09:55:12Z</time></trkpt><trkpt lat="45.39367376474348" lon="8.060432037927496"><ele>300.0</ele><time>2026-04-26T09:55:13Z</time></trkpt><trkpt lat="45.39376348765109" lon="8.060426721847751"><ele>300.0</ele><time>2026-04-26T09:55:14Z</time></trkpt><trkpt lat="45.3938545765395" lon="8.060419877360856"><ele>300.0</ele><time>2026-04-26T09:55:15Z</time></trkpt><trkpt lat="45.39394734749561" lon="8.060404170468269"><ele>300.0</ele><time>2026-04-26T09:55:16Z</time></trkpt><trkpt lat="45.39404278517762" lon="8.060374993011095"><ele>299.4</ele><time>2026-04-26T09:55:17Z</time></trkpt><trkpt lat="45.39413780575583" lon="8.060332906092814"><ele>298.8</ele><time>2026-04-26T09:55:18Z</time></trkpt><trkpt lat="45.394230603705225" lon="8.060282704411987"><ele>298.2</ele><time>2026-04-26T09:55:19Z</time></trkpt><trkpt lat="45.39432441279261" lon="8.060226112929826"><ele>297.6</ele><time>2026-04-26T09:55:20Z</time></trkpt><trkpt lat="45.39442357215336" lon="8.060172733189917"><ele>297.0</ele><time>2026-04-26T09:55:21Z</time></trkpt><trkpt lat="45.39453067534585" lon="8.060115218835843"><ele>297.0</ele><time>2026-04-26T09:55:22Z</time></trkpt><trkpt lat="45.39463385300115" lon="8.060047236666103"><ele>297.0</ele><time>2026-04-26T09:55:23Z</time></trkpt><trkpt lat="45.39473189405979" lon="8.059956445478386"><ele>297.0</ele><time>2026-04-26T09:55:24Z</time></trkpt><trkpt lat="45.39482489824663" lon="8.059853750682946"><ele>297.0</ele><time>2026-04-26T09:55:25Z</time></trkpt><trkpt lat="45.39491765296477" lon="8.059755802445872"><ele>296.2</ele><time>2026-04-26T09:55:26Z</time></trkpt><trkpt lat="45.395008182395124" lon="8.059660440802539"><ele>295.4</ele><time>2026-04-26T09:55:27Z</time></trkpt><trkpt lat="45.39509054970387" lon="8.05955182490964"><ele>294.6</ele><time>2026-04-26T09:55:28Z</time></trkpt><trkpt lat="45.395161283123194" lon="8.059433497902443"><ele>293.8</ele><time>2026-04-26T09:55:29Z</time></trkpt><trkpt lat="45.395225388512735" lon="8.059306116028194"><ele>293.0</ele><time>2026-04-26T09:55:30Z</time></trkpt><trkpt lat="45.395286765173616" lon="8.05916955340445"><ele>292.25</ele><time>2026-04-26T09:55:31Z</time></trkpt><trkpt lat="45.39534458462157" lon="8.059027185972733"><ele>291.5</ele><time>2026-04-26T09:55:32Z</time></trkpt><trkpt lat="45.39541162899317" lon="8.058886813251096"><ele>290.75</ele><time>2026-04-26T09:55:33Z</time></trkpt><trkpt lat="45.39548852532233" lon="8.058757337246364"><ele>290.0</ele><time>2026-04-26T09:55:34Z</time></trkpt><trkpt lat="45.39555122161834" lon="8.0586069839584"><ele>293.25</ele><time>2026-04-26T09:55:35Z</time></trkpt><trkpt lat="45.39561685081335" lon="8.058452557106392"><ele>296.5</ele><time>2026-04-26T09:55:36Z</time></trkpt><trkpt lat="45.39568241192492" lon="8.058294944566432"><ele>299.75</ele><time>2026-04-26T09:55:37Z</time></trkpt><trkpt lat="45.395748022485705" lon="8.058139206046846"><ele>303.0</ele><time>2026-04-26T09:55:38Z</time></trkpt><trkpt lat="45.395813405631166" lon="8.057985356449315"><ele>303.0</ele><time>2026-04-26T09:55:39Z</time></trkpt><trkpt lat="45.395876350357334" lon="8.057838604403676"><ele>303.0</ele><time>2026-04-26T09:55:40Z</time></trkpt><trkpt lat="45.39593477640853" lon="8.057698564773059"><ele>303.0</ele><time>2026-04-26T09:55:41Z</time></trkpt><trkpt lat="45.39599480245537" lon="8.057563530265272"><ele>303.0</ele><time>2026-04-26T09:55:42Z</time></trkpt><trkpt lat="45.39605254627803" lon="8.057431408117585"><ele>302.6</ele><time>2026-04-26T09:55:43Z</time></trkpt><trkpt lat="45.39610298522339" lon="8.05729603758197"><ele>302.20000000000005</ele><time>2026-04-26T09:55:44Z</time></trkpt><trkpt lat="45.396154871220716" lon="8.057159883440796"><ele>301.8</ele><time>2026-04-26T09:55:45Z</time></trkpt><trkpt lat="45.39621125940169" lon="8.057022889873862"><ele>301.40000000000003</ele><time>2026-04-26T09:55:46Z</time></trkpt><trkpt lat="45.39627689786872" lon="8.05688935374951"><ele>301.0</ele><time>2026-04-26T09:55:47Z</time></trkpt><trkpt lat="45.396340620300684" lon="8.056746265610132"><ele>300.0</ele><time>2026-04-26T09:55:48Z</time></trkpt><trkpt lat="45.396409044159626" lon="8.056595663931713"><ele>299.0</ele><time>2026-04-26T09:55:49Z</time></trkpt><trkpt lat="45.3964821600562" lon="8.056437011729493"><ele>298.0</ele><time>2026-04-26T09:55:50Z</time></trkpt><trkpt lat="45.396563676329286" lon="8.0562808475114"><ele>297.0</ele><time>2026-04-26T09:55:51Z</time></trkpt><trkpt lat="45.39664844931918" lon="8.056123694985105"><ele>297.0</ele><time>2026-04-26T09:55:52Z</time></trkpt><trkpt lat="45.39673556874098" lon="8.055963206944151"><ele>297.0</ele><time>2026-04-26T09:55:53Z</time></trkpt><trkpt lat="45.396830502528026" lon="8.055795487800141"><ele>297.0</ele><time>2026-04-26T09:55:54Z</time></trkpt><trkpt lat="45.39692656349542" lon="8.055617764595645"><ele>296.3333333333333</ele><time>2026-04-26T09:55:55Z</time></trkpt><trkpt lat="45.39702325065513" lon="8.055440282041957"><ele>295.66666666666663</ele><time>2026-04-26T09:55:56Z</time></trkpt><trkpt lat="45.39711636862587" lon="8.05526785679565"><ele>295.0</ele><time>2026-04-26T09:55:57Z</time></trkpt><trkpt lat="45.39721113719421" lon="8.055098597858878"><ele>293.75</ele><time>2026-04-26T09:55:58Z</time></trkpt><trkpt lat="45.39730132488053" lon="8.054949184171685"><ele>292.5</ele><time>2026-04-26T09:55:59Z</time></trkpt><trkpt lat="45.39737467309746" lon="8.054799347944947"><ele>291.25</ele><time>2026-04-26T09:56:00Z</time></trkpt><trkpt lat="45.39745704072561" lon="8.05467288107106"><ele>290.0</ele><time>2026-04-26T09:56:01Z</time></trkpt><trkpt lat="45.39751922212543" lon="8.054534227525803"><ele>290.0</ele><time>2026-04-26T09:56:02Z</time></trkpt><trkpt lat="45.397585456775694" lon="8.054411940126059"><ele>290.0</ele><time>2026-04-26T09:56:03Z</time></trkpt><trkpt lat="45.397658599465935" lon="8.05431020264087"><ele>290.0</ele><time>2026-04-26T09:56:04Z</time></trkpt><trkpt lat="45.39771920248006" lon="8.05420297468705"><ele>290.0</ele><time>2026-04-26T09:56:05Z</time></trkpt><trkpt lat="45.397777407345515" lon="8.05410508326896"><ele>290.0</ele><time>2026-04-26T09:56:06Z</time></trkpt><trkpt lat="45.39782816335096" lon="8.054020774427373"><ele>288.8</ele><time>2026-04-26T09:56:07Z</time></trkpt><trkpt lat="45.39786982010459" lon="8.053951580212948"><ele>287.6</ele><time>2026-04-26T09:56:08Z</time></trkpt><trkpt lat="45.397839938016936" lon="8.053748234360441"><ele>286.4</ele><time>2026-04-26T09:56:10Z</time></trkpt><trkpt lat="45.397804891270354" lon="8.053594138995967"><ele>285.2</ele><time>2026-04-26T09:56:12Z</time></trkpt><trkpt lat="45.39783071222931" lon="8.05342399342274"><ele>284.0</ele><time>2026-04-26T09:56:14Z</time></trkpt><trkpt lat="45.3978427199363" lon="8.053330448152805"><ele>283.59999999999997</ele><time>2026-04-26T09:56:15Z</time></trkpt><trkpt lat="45.39785647476254" lon="8.053239738724024"><ele>283.2</ele><time>2026-04-26T09:56:16Z</time></trkpt><trkpt lat="45.397881950631096" lon="8.053103718255427"><ele>282.79999999999995</ele><time>2026-04-26T09:56:18Z</time></trkpt><trkpt lat="45.39792153784998" lon="8.052989037714054"><ele>282.4</ele><time>2026-04-26T09:56:21Z</time></trkpt><trkpt lat="45.397857808767974" lon="8.05283481643185"><ele>282.0</ele><time>2026-04-26T09:56:23.001Z</time></trkpt><trkpt lat="45.397781050907334" lon="8.052725783043543"><ele>282.0</ele><time>2026-04-26T09:56:25.001Z</time></trkpt><trkpt lat="45.397741596867355" lon="8.052643773727077"><ele>282.0</ele><time>2026-04-26T09:56:26.001Z</time></trkpt><trkpt lat="45.397677092023976" lon="8.05254821305824"><ele>282.0</ele><time>2026-04-26T09:56:27.999Z</time></trkpt><trkpt lat="45.39759811358585" lon="8.052431210436342"><ele>282.0</ele><time>2026-04-26T09:56:46.999Z</time></trkpt><trkpt lat="45.397548358629734" lon="8.052356998857784"><ele>282.0</ele><time>2026-04-26T09:56:48Z</time></trkpt><trkpt lat="45.397499633889346" lon="8.052283046479074"><ele>282.0</ele><time>2026-04-26T09:56:49Z</time></trkpt><trkpt lat="45.397450815277736" lon="8.052205534654355"><ele>282.1666666666667</ele><time>2026-04-26T09:56:50Z</time></trkpt><trkpt lat="45.3974046486809" lon="8.052120958656776"><ele>282.3333333333333</ele><time>2026-04-26T09:56:51Z</time></trkpt><trkpt lat="45.39736893460797" lon="8.052027563657234"><ele>282.5</ele><time>2026-04-26T09:56:52Z</time></trkpt><trkpt lat="45.39734946067187" lon="8.051918954133459"><ele>282.66666666666663</ele><time>2026-04-26T09:56:53Z</time></trkpt><trkpt lat="45.397335768495765" lon="8.051791004011065"><ele>282.8333333333333</ele><time>2026-04-26T09:56:54Z</time></trkpt><trkpt lat="45.397326004473676" lon="8.051651447534923"><ele>283.0</ele><time>2026-04-26T09:56:55Z</time></trkpt><trkpt lat="45.39731727490368" lon="8.051509526703834"><ele>283.2</ele><time>2026-04-26T09:56:56Z</time></trkpt><trkpt lat="45.39731261648059" lon="8.051360079198293"><ele>283.4</ele><time>2026-04-26T09:56:57Z</time></trkpt><trkpt lat="45.39731081438201" lon="8.051209114067067"><ele>283.59999999999997</ele><time>2026-04-26T09:56:58Z</time></trkpt><trkpt lat="45.39730901163754" lon="8.051058094708502"><ele>283.8</ele><time>2026-04-26T09:56:59Z</time></trkpt><trkpt lat="45.39730729800749" lon="8.05091454060184"><ele>284.0</ele><time>2026-04-26T09:57:00Z</time></trkpt><trkpt lat="45.39730409547696" lon="8.050769669419692"><ele>284.0</ele><time>2026-04-26T09:57:01Z</time></trkpt><trkpt lat="45.39730189681546" lon="8.050629403904821"><ele>284.0</ele><time>2026-04-26T09:57:02Z</time></trkpt><trkpt lat="45.39730429813174" lon="8.05048868064672"><ele>284.0</ele><time>2026-04-26T09:57:03Z</time></trkpt><trkpt lat="45.3973095634018" lon="8.050352687667926"><ele>284.0</ele><time>2026-04-26T09:57:04Z</time></trkpt><trkpt lat="45.39731367018316" lon="8.050213904402337"><ele>284.0</ele><time>2026-04-26T09:57:05Z</time></trkpt><trkpt lat="45.39731123380045" lon="8.050071408857232"><ele>284.8</ele><time>2026-04-26T09:57:06Z</time></trkpt><trkpt lat="45.3973041733636" lon="8.049923380095196"><ele>285.59999999999997</ele><time>2026-04-26T09:57:07Z</time></trkpt><trkpt lat="45.397282387858674" lon="8.049776245861802"><ele>286.4</ele><time>2026-04-26T09:57:08Z</time></trkpt><trkpt lat="45.397297290078896" lon="8.049644698316083"><ele>287.2</ele><time>2026-04-26T09:57:09Z</time></trkpt><trkpt lat="45.397295687439374" lon="8.049519102106357"><ele>288.0</ele><time>2026-04-26T09:57:10Z</time></trkpt><trkpt lat="45.39727659783055" lon="8.049415538194086"><ele>288.0</ele><time>2026-04-26T09:57:11Z</time></trkpt><trkpt lat="45.3972691349273" lon="8.049272591921532"><ele>288.0</ele><time>2026-04-26T09:57:13Z</time></trkpt><trkpt lat="45.39728111347712" lon="8.049123242318881"><ele>288.0</ele><time>2026-04-26T09:57:15Z</time></trkpt><trkpt lat="45.39719619640487" lon="8.049018882120729"><ele>288.0</ele><time>2026-04-26T09:57:16Z</time></trkpt><trkpt lat="45.39713820543228" lon="8.048916569805403"><ele>288.0</ele><time>2026-04-26T09:57:17Z</time></trkpt><trkpt lat="45.39711814677634" lon="8.048787680419515"><ele>287.3333333333333</ele><time>2026-04-26T09:57:18Z</time></trkpt><trkpt lat="45.3970855505331" lon="8.04866730255813"><ele>286.6666666666667</ele><time>2026-04-26T09:57:19Z</time></trkpt><trkpt lat="45.397058850240214" lon="8.048555919023045"><ele>286.0</ele><time>2026-04-26T09:57:20Z</time></trkpt><trkpt lat="45.39703363392548" lon="8.04845232901091"><ele>285.33333333333337</ele><time>2026-04-26T09:57:21Z</time></trkpt><trkpt lat="45.39700663351289" lon="8.048341409774565"><ele>284.6666666666667</ele><time>2026-04-26T09:57:22Z</time></trkpt><trkpt lat="45.39697984965929" lon="8.048231380227502"><ele>284.0</ele><time>2026-04-26T09:57:23Z</time></trkpt><trkpt lat="45.39695215464865" lon="8.048117607565377"><ele>284.0</ele><time>2026-04-26T09:57:24Z</time></trkpt><trkpt lat="45.39692898745815" lon="8.04802184128033"><ele>284.0</ele><time>2026-04-26T09:57:25Z</time></trkpt><trkpt lat="45.396908604208285" lon="8.04793533554774"><ele>284.0</ele><time>2026-04-26T09:57:26Z</time></trkpt><trkpt lat="45.39687685696856" lon="8.047795072392649"><ele>284.0</ele><time>2026-04-26T09:57:28Z</time></trkpt><trkpt lat="45.39684522604994" lon="8.047649319801401"><ele>284.0</ele><time>2026-04-26T09:57:30Z</time></trkpt><trkpt lat="45.39681079404064" lon="8.047486795922879"><ele>283.8</ele><time>2026-04-26T09:57:32Z</time></trkpt><trkpt lat="45.39677975128096" lon="8.047326734087804"><ele>283.59999999999997</ele><time>2026-04-26T09:57:34Z</time></trkpt><trkpt lat="45.39675797596455" lon="8.047183509877257"><ele>283.4</ele><time>2026-04-26T09:57:36Z</time></trkpt><trkpt lat="45.39673140360906" lon="8.047020748772459"><ele>283.2</ele><time>2026-04-26T09:57:38Z</time></trkpt><trkpt lat="45.39673063824176" lon="8.046930096237705"><ele>283.0</ele><time>2026-04-26T09:57:39Z</time></trkpt><trkpt lat="45.39672620150125" lon="8.046754499761137"><ele>283.0</ele><time>2026-04-26T09:57:41Z</time></trkpt><trkpt lat="45.39672066690494" lon="8.046654052664188"><ele>283.0</ele><time>2026-04-26T09:57:42Z</time></trkpt><trkpt lat="45.396718431093646" lon="8.046545270652425"><ele>283.0</ele><time>2026-04-26T09:57:43Z</time></trkpt><trkpt lat="45.39671787805318" lon="8.046359505758023"><ele>283.0</ele><time>2026-04-26T09:57:45Z</time></trkpt><trkpt lat="45.39671424182504" lon="8.046265709968647"><ele>283.0</ele><time>2026-04-26T09:57:46Z</time></trkpt><trkpt lat="45.39670074155597" lon="8.046171653976305"><ele>283.0</ele><time>2026-04-26T09:57:47Z</time></trkpt><trkpt lat="45.39668965774484" lon="8.045992250017466"><ele>282.8</ele><time>2026-04-26T09:57:49Z</time></trkpt><trkpt lat="45.39667047614644" lon="8.045808538812402"><ele>282.6</ele><time>2026-04-26T09:57:51Z</time></trkpt><trkpt lat="45.39665698568471" lon="8.0457177317585"><ele>282.4</ele><time>2026-04-26T09:57:52Z</time></trkpt><trkpt lat="45.39662694174264" lon="8.04556720555401"><ele>282.2</ele><time>2026-04-26T09:57:54Z</time></trkpt><trkpt lat="45.396616574085435" lon="8.045416530681997"><ele>282.0</ele><time>2026-04-26T09:57:56Z</time></trkpt><trkpt lat="45.39662018726477" lon="8.045253138093978"><ele>281.4</ele><time>2026-04-26T09:57:58Z</time></trkpt><trkpt lat="45.39665776320243" lon="8.045099137273167"><ele>280.79999999999995</ele><time>2026-04-26T09:58:00Z</time></trkpt><trkpt lat="45.396693864944915" lon="8.044978203315248"><ele>280.2</ele><time>2026-04-26T09:58:02Z</time></trkpt><trkpt lat="45.396738555967396" lon="8.044867693602471"><ele>279.59999999999997</ele><time>2026-04-26T09:58:04Z</time></trkpt><trkpt lat="45.396771038450524" lon="8.044759236992801"><ele>279.0</ele><time>2026-04-26T09:58:06.001Z</time></trkpt><trkpt lat="45.39679240584583" lon="8.04464181294613"><ele>277.59999999999997</ele><time>2026-04-26T09:58:08.001Z</time></trkpt><trkpt lat="45.396801208888995" lon="8.04452067690442"><ele>276.2</ele><time>2026-04-26T09:58:10.001Z</time></trkpt><trkpt lat="45.39669647609053" lon="8.044459797777643"><ele>274.79999999999995</ele><time>2026-04-26T09:58:12.001Z</time></trkpt><trkpt lat="45.396633957198894" lon="8.04453691339112"><ele>273.4</ele><time>2026-04-26T09:58:13.001Z</time></trkpt><trkpt lat="45.39654101950512" lon="8.04463515035102"><ele>272.0</ele><time>2026-04-26T09:58:15.001Z</time></trkpt><trkpt lat="45.39645779409561" lon="8.04476792091172"><ele>272.0</ele><time>2026-04-26T09:58:17.001Z</time></trkpt><trkpt lat="45.39637913075329" lon="8.044900920719908"><ele>272.0</ele><time>2026-04-26T09:58:19.001Z</time></trkpt><trkpt lat="45.39634681473091" lon="8.044986794815228"><ele>272.0</ele><time>2026-04-26T09:58:20.001Z</time></trkpt><trkpt lat="45.39629586577705" lon="8.045057909540175"><ele>272.0</ele><time>2026-04-26T09:58:21.001Z</time></trkpt><trkpt lat="45.39624901901842" lon="8.045132500708098"><ele>272.0</ele><time>2026-04-26T09:58:22.001Z</time></trkpt><trkpt lat="45.39619983522305" lon="8.045218113741127"><ele>272.0</ele><time>2026-04-26T09:58:23.001Z</time></trkpt><trkpt lat="45.39616528096015" lon="8.045299010930323"><ele>270.2</ele><time>2026-04-26T09:58:24.001Z</time></trkpt><trkpt lat="45.396120874863826" lon="8.04542367100782"><ele>268.4</ele><time>2026-04-26T09:58:26.001Z</time></trkpt><trkpt lat="45.396074210875824" lon="8.045563618586746"><ele>266.6</ele><time>2026-04-26T09:58:28.001Z</time></trkpt><trkpt lat="45.39604429492218" lon="8.045714006876707"><ele>264.8</ele><time>2026-04-26T09:58:30.001Z</time></trkpt><trkpt lat="45.39601703011075" lon="8.045858839134612"><ele>263.0</ele><time>2026-04-26T09:58:32.001Z</time></trkpt><trkpt lat="45.39599575271896" lon="8.045960770967264"><ele>263.0</ele><time>2026-04-26T09:58:34Z</time></trkpt><trkpt lat="45.39592535571403" lon="8.04603467417486"><ele>263.0</ele><time>2026-04-26T09:58:36Z</time></trkpt><trkpt lat="45.395849455897114" lon="8.046024858871089"><ele>263.0</ele><time>2026-04-26T09:58:38Z</time></trkpt><trkpt lat="45.39577164902766" lon="8.04599687962906"><ele>263.0</ele><time>2026-04-26T09:58:40Z</time></trkpt><trkpt lat="45.39573347750204" lon="8.045883428194854"><ele>263.0</ele><time>2026-04-26T09:58:43Z</time></trkpt><trkpt lat="45.395729645074226" lon="8.04570807300689"><ele>262.7142857142857</ele><time>2026-04-26T09:58:45Z</time></trkpt><trkpt lat="45.395729503648354" lon="8.04560209307397"><ele>262.4285714285714</ele><time>2026-04-26T09:58:46Z</time></trkpt><trkpt lat="45.39572816908292" lon="8.045508020327873"><ele>262.1428571428571</ele><time>2026-04-26T09:58:47Z</time></trkpt><trkpt lat="45.395726806206135" lon="8.04541195192194"><ele>261.85714285714283</ele><time>2026-04-26T09:58:48Z</time></trkpt><trkpt lat="45.3957253640218" lon="8.045310293238584"><ele>261.57142857142856</ele><time>2026-04-26T09:58:49Z</time></trkpt><trkpt lat="45.39572349625675" lon="8.045208627493766"><ele>261.2857142857143</ele><time>2026-04-26T09:58:50Z</time></trkpt><trkpt lat="45.395721364329795" lon="8.045102628052025"><ele>261.0</ele><time>2026-04-26T09:58:51Z</time></trkpt><trkpt lat="45.39570403202253" lon="8.044995043098798"><ele>260.3333333333333</ele><time>2026-04-26T09:58:52Z</time></trkpt><trkpt lat="45.3957015399827" lon="8.044887674245231"><ele>259.6666666666667</ele><time>2026-04-26T09:58:53Z</time></trkpt><trkpt lat="45.395697821984854" lon="8.044784437025513"><ele>259.0</ele><time>2026-04-26T09:58:54Z</time></trkpt><trkpt lat="45.3956932008788" lon="8.044692964518402"><ele>258.33333333333337</ele><time>2026-04-26T09:58:55Z</time></trkpt><trkpt lat="45.395682400021755" lon="8.044510926194947"><ele>257.6666666666667</ele><time>2026-04-26T09:58:57Z</time></trkpt><trkpt lat="45.39566295296829" lon="8.044423724245908"><ele>257.0</ele><time>2026-04-26T09:58:58Z</time></trkpt><trkpt lat="45.39563908656122" lon="8.044338068771816"><ele>257.0</ele><time>2026-04-26T09:58:59Z</time></trkpt><trkpt lat="45.39561428946926" lon="8.044251003598346"><ele>257.0</ele><time>2026-04-26T09:59:00Z</time></trkpt><trkpt lat="45.39559452910938" lon="8.044091829546037"><ele>257.0</ele><time>2026-04-26T09:59:02Z</time></trkpt><trkpt lat="45.3955800885193" lon="8.043934988580006"><ele>257.0</ele><time>2026-04-26T09:59:04Z</time></trkpt><trkpt lat="45.39554893519104" lon="8.043784384398936"><ele>257.0</ele><time>2026-04-26T09:59:06Z</time></trkpt><trkpt lat="45.395510987354065" lon="8.043711673004614"><ele>256.1428571428571</ele><time>2026-04-26T09:59:07Z</time></trkpt><trkpt lat="45.395461116431335" lon="8.043639453646083"><ele>255.28571428571428</ele><time>2026-04-26T09:59:08Z</time></trkpt><trkpt lat="45.39541198038704" lon="8.043568503990098"><ele>254.42857142857142</ele><time>2026-04-26T09:59:09Z</time></trkpt><trkpt lat="45.3953657306744" lon="8.043489470931677"><ele>253.57142857142856</ele><time>2026-04-26T09:59:10Z</time></trkpt><trkpt lat="45.39532157362871" lon="8.043405737916068"><ele>252.71428571428572</ele><time>2026-04-26T09:59:11Z</time></trkpt><trkpt lat="45.39528248740028" lon="8.04331372470951"><ele>251.85714285714283</ele><time>2026-04-26T09:59:12Z</time></trkpt><trkpt lat="45.3952429013671" lon="8.04321447037842"><ele>250.99999999999997</ele><time>2026-04-26T09:59:13Z</time></trkpt><trkpt lat="45.39520237395642" lon="8.043108588969945"><ele>250.83333333333334</ele><time>2026-04-26T09:59:14Z</time></trkpt><trkpt lat="45.39516160520581" lon="8.043000896742976"><ele>250.66666666666669</ele><time>2026-04-26T09:59:15Z</time></trkpt><trkpt lat="45.39511985118194" lon="8.042890601914525"><ele>250.5</ele><time>2026-04-26T09:59:16Z</time></trkpt><trkpt lat="45.39507666955224" lon="8.042776213161597"><ele>250.33333333333331</ele><time>2026-04-26T09:59:17Z</time></trkpt><trkpt lat="45.395040877505856" lon="8.042680578025866"><ele>250.16666666666666</ele><time>2026-04-26T09:59:18Z</time></trkpt><trkpt lat="45.395009775835305" lon="8.042597475517269"><ele>250.0</ele><time>2026-04-26T09:59:19Z</time></trkpt><trkpt lat="45.3949456215591" lon="8.042426057634762"><ele>249.99999999999997</ele><time>2026-04-26T09:59:21Z</time></trkpt><trkpt lat="45.39490902010967" lon="8.042328083203014"><ele>250.0</ele><time>2026-04-26T09:59:22Z</time></trkpt><trkpt lat="45.394855015500276" lon="8.042228100668543"><ele>250.0</ele><time>2026-04-26T09:59:23Z</time></trkpt><trkpt lat="45.39483074270334" lon="8.042110656200402"><ele>250.0</ele><time>2026-04-26T09:59:24Z</time></trkpt><trkpt lat="45.39479373002013" lon="8.042006057390218"><ele>249.99999999999997</ele><time>2026-04-26T09:59:25Z</time></trkpt><trkpt lat="45.394759438043565" lon="8.041906096280607"><ele>250.0</ele><time>2026-04-26T09:59:26Z</time></trkpt><trkpt lat="45.39472703354927" lon="8.041810672841294"><ele>249.99999999999997</ele><time>2026-04-26T09:59:27Z</time></trkpt><trkpt lat="45.39469430481763" lon="8.041714294591348"><ele>250.0</ele><time>2026-04-26T09:59:28Z</time></trkpt><trkpt lat="45.394661961431055" lon="8.041619051120733"><ele>250.0</ele><time>2026-04-26T09:59:29Z</time></trkpt><trkpt lat="45.394617171194774" lon="8.041536937711054"><ele>250.0</ele><time>2026-04-26T09:59:30Z</time></trkpt><trkpt lat="45.39459097873462" lon="8.041449455172485"><ele>249.99999999999997</ele><time>2026-04-26T09:59:31Z</time></trkpt><trkpt lat="45.39455882121264" lon="8.041365501621126"><ele>250.0</ele><time>2026-04-26T09:59:32Z</time></trkpt><trkpt lat="45.39453887940368" lon="8.041185092696736"><ele>249.99999999999997</ele><time>2026-04-26T09:59:34Z</time></trkpt><trkpt lat="45.394538553585214" lon="8.041088390714297"><ele>250.0</ele><time>2026-04-26T09:59:35Z</time></trkpt><trkpt lat="45.39454280608285" lon="8.040979102281561"><ele>250.0</ele><time>2026-04-26T09:59:36Z</time></trkpt><trkpt lat="45.394548729880476" lon="8.0408585230902"><ele>250.0</ele><time>2026-04-26T09:59:37Z</time></trkpt><trkpt lat="45.394544805060505" lon="8.0407320295983"><ele>249.99999999999997</ele><time>2026-04-26T09:59:38Z</time></trkpt><trkpt lat="45.394556438182" lon="8.04060490303558"><ele>250.0</ele><time>2026-04-26T09:59:39Z</time></trkpt><trkpt lat="45.394560329401926" lon="8.040476347079"><ele>249.6</ele><time>2026-04-26T09:59:40Z</time></trkpt><trkpt lat="45.39457167336957" lon="8.040344007642352"><ele>249.2</ele><time>2026-04-26T09:59:41Z</time></trkpt><trkpt lat="45.39458745529399" lon="8.040213544255648"><ele>248.8</ele><time>2026-04-26T09:59:42Z</time></trkpt><trkpt lat="45.39460252166027" lon="8.040082068466587"><ele>248.4</ele><time>2026-04-26T09:59:43Z</time></trkpt><trkpt lat="45.39461283462456" lon="8.039951770813007"><ele>248.0</ele><time>2026-04-26T09:59:44Z</time></trkpt><trkpt lat="45.39464391078196" lon="8.0398240252397"><ele>247.8</ele><time>2026-04-26T09:59:45Z</time></trkpt><trkpt lat="45.39466129689749" lon="8.039695155411142"><ele>247.60000000000002</ele><time>2026-04-26T09:59:46Z</time></trkpt><trkpt lat="45.39468346427897" lon="8.039567660337795"><ele>247.39999999999998</ele><time>2026-04-26T09:59:47Z</time></trkpt><trkpt lat="45.39472103638244" lon="8.039436264996937"><ele>247.2</ele><time>2026-04-26T09:59:48.001Z</time></trkpt><trkpt lat="45.39474916257728" lon="8.039290497861742"><ele>247.0</ele><time>2026-04-26T09:59:49.001Z</time></trkpt><trkpt lat="45.39478085669639" lon="8.03913560842821"><ele>246.6</ele><time>2026-04-26T09:59:50.001Z</time></trkpt><trkpt lat="45.39481488057833" lon="8.038977943775995"><ele>246.2</ele><time>2026-04-26T09:59:51.001Z</time></trkpt><trkpt lat="45.39484775863807" lon="8.038826986384127"><ele>245.8</ele><time>2026-04-26T09:59:52.001Z</time></trkpt><trkpt lat="45.39487824970171" lon="8.038674574340908"><ele>245.4</ele><time>2026-04-26T09:59:53.001Z</time></trkpt><trkpt lat="45.3949089211177" lon="8.03852418213806"><ele>245.0</ele><time>2026-04-26T09:59:54.001Z</time></trkpt><trkpt lat="45.39495279426299" lon="8.038381928773925"><ele>244.8</ele><time>2026-04-26T09:59:55.001Z</time></trkpt><trkpt lat="45.3949647307626" lon="8.03823777160129"><ele>244.6</ele><time>2026-04-26T09:59:56.001Z</time></trkpt><trkpt lat="45.394993371056955" lon="8.038097519330792"><ele>244.39999999999998</ele><time>2026-04-26T09:59:57.001Z</time></trkpt><trkpt lat="45.39502262768363" lon="8.037963523780965"><ele>244.2</ele><time>2026-04-26T09:59:58.001Z</time></trkpt><trkpt lat="45.39505013286148" lon="8.037836657302753"><ele>244.0</ele><time>2026-04-26T09:59:59.001Z</time></trkpt><trkpt lat="45.395076017265026" lon="8.037708132048833"><ele>244.0</ele><time>2026-04-26T10:00:00.001Z</time></trkpt><trkpt lat="45.39509253944945" lon="8.037567943036255"><ele>243.99999999999997</ele><time>2026-04-26T10:00:01.001Z</time></trkpt><trkpt lat="45.39513284568042" lon="8.037434564631882"><ele>243.99999999999997</ele><time>2026-04-26T10:00:02.001Z</time></trkpt><trkpt lat="45.39515732613784" lon="8.03729894720091"><ele>244.0</ele><time>2026-04-26T10:00:03.001Z</time></trkpt><trkpt lat="45.39516728498732" lon="8.037159235147305"><ele>244.0</ele><time>2026-04-26T10:00:04.001Z</time></trkpt><trkpt lat="45.395191680612726" lon="8.03702818342202"><ele>244.6</ele><time>2026-04-26T10:00:05.001Z</time></trkpt><trkpt lat="45.395217651798404" lon="8.036896239324946"><ele>245.2</ele><time>2026-04-26T10:00:06.001Z</time></trkpt><trkpt lat="45.39525031349746" lon="8.03676267853845"><ele>245.79999999999998</ele><time>2026-04-26T10:00:07.001Z</time></trkpt><trkpt lat="45.39527931507526" lon="8.036620091011024"><ele>246.39999999999998</ele><time>2026-04-26T10:00:08.001Z</time></trkpt><trkpt lat="45.39530796348151" lon="8.036474391497242"><ele>247.0</ele><time>2026-04-26T10:00:09.001Z</time></trkpt><trkpt lat="45.39534279884834" lon="8.036330994683357"><ele>248.0</ele><time>2026-04-26T10:00:10.001Z</time></trkpt><trkpt lat="45.395372068944155" lon="8.03618208227401"><ele>249.0</ele><time>2026-04-26T10:00:11.001Z</time></trkpt><trkpt lat="45.39540491964734" lon="8.036035937945737"><ele>250.0</ele><time>2026-04-26T10:00:12.001Z</time></trkpt><trkpt lat="45.395431445092726" lon="8.035886661430897"><ele>251.0</ele><time>2026-04-26T10:00:13.001Z</time></trkpt><trkpt lat="45.395461549859206" lon="8.035736579862514"><ele>252.0</ele><time>2026-04-26T10:00:14.001Z</time></trkpt><trkpt lat="45.395492368520145" lon="8.035587045926285"><ele>250.6</ele><time>2026-04-26T10:00:15.001Z</time></trkpt><trkpt lat="45.395522855183295" lon="8.035436769040302"><ele>249.2</ele><time>2026-04-26T10:00:16.001Z</time></trkpt><trkpt lat="45.395553811590375" lon="8.035283655177839"><ele>247.8</ele><time>2026-04-26T10:00:17.001Z</time></trkpt><trkpt lat="45.39559070765405" lon="8.035136152288652"><ele>246.4</ele><time>2026-04-26T10:00:18.001Z</time></trkpt><trkpt lat="45.395619880230456" lon="8.034987900837866"><ele>245.0</ele><time>2026-04-26T10:00:19.001Z</time></trkpt><trkpt lat="45.395649668892" lon="8.03484103598549"><ele>245.0</ele><time>2026-04-26T10:00:20.001Z</time></trkpt><trkpt lat="45.39568465800289" lon="8.034693305659875"><ele>245.0</ele><time>2026-04-26T10:00:21.001Z</time></trkpt><trkpt lat="45.395720982387736" lon="8.034550564325682"><ele>245.0</ele><time>2026-04-26T10:00:22.001Z</time></trkpt><trkpt lat="45.395750835373505" lon="8.034400701747742"><ele>245.0</ele><time>2026-04-26T10:00:23.001Z</time></trkpt><trkpt lat="45.395786798292434" lon="8.034255116319008"><ele>245.0</ele><time>2026-04-26T10:00:24.001Z</time></trkpt><trkpt lat="45.39582019723433" lon="8.034110140192517"><ele>245.0</ele><time>2026-04-26T10:00:25.001Z</time></trkpt><trkpt lat="45.39584541324515" lon="8.033972916483256"><ele>245.0</ele><time>2026-04-26T10:00:26.001Z</time></trkpt><trkpt lat="45.3958677320772" lon="8.033836411888364"><ele>245.0</ele><time>2026-04-26T10:00:27.001Z</time></trkpt><trkpt lat="45.395886286705036" lon="8.033711197976146"><ele>245.0</ele><time>2026-04-26T10:00:28.001Z</time></trkpt><trkpt lat="45.39590420662325" lon="8.033591277530737"><ele>245.0</ele><time>2026-04-26T10:00:29.001Z</time></trkpt><trkpt lat="45.39594198724117" lon="8.033467641474951"><ele>245.0</ele><time>2026-04-26T10:00:30.001Z</time></trkpt><trkpt lat="45.395966018642234" lon="8.03333564232436"><ele>245.0</ele><time>2026-04-26T10:00:31.001Z</time></trkpt><trkpt lat="45.3959910542599" lon="8.033198127215194"><ele>245.0</ele><time>2026-04-26T10:00:32.001Z</time></trkpt><trkpt lat="45.39599952383383" lon="8.033057782853403"><ele>245.0</ele><time>2026-04-26T10:00:33.001Z</time></trkpt><trkpt lat="45.39603714746274" lon="8.032944519633643"><ele>245.0</ele><time>2026-04-26T10:00:34.001Z</time></trkpt><trkpt lat="45.39604409471351" lon="8.032817532972041"><ele>245.6</ele><time>2026-04-26T10:00:35.001Z</time></trkpt><trkpt lat="45.39607817982812" lon="8.032692572606067"><ele>246.2</ele><time>2026-04-26T10:00:36.001Z</time></trkpt><trkpt lat="45.39609598192935" lon="8.032563174972708"><ele>246.8</ele><time>2026-04-26T10:00:37.001Z</time></trkpt><trkpt lat="45.39611687893626" lon="8.03244402232392"><ele>247.4</ele><time>2026-04-26T10:00:38.001Z</time></trkpt><trkpt lat="45.39614482260062" lon="8.032324029008631"><ele>248.0</ele><time>2026-04-26T10:00:39.001Z</time></trkpt><trkpt lat="45.3961713039795" lon="8.032193014850442"><ele>248.33333333333334</ele><time>2026-04-26T10:00:40Z</time></trkpt><trkpt lat="45.39618067478014" lon="8.03207045793063"><ele>248.66666666666669</ele><time>2026-04-26T10:00:41Z</time></trkpt><trkpt lat="45.39620463046158" lon="8.03195763145203"><ele>249.0</ele><time>2026-04-26T10:00:42Z</time></trkpt><trkpt lat="45.39622945014712" lon="8.031831703039142"><ele>249.33333333333331</ele><time>2026-04-26T10:00:43Z</time></trkpt><trkpt lat="45.39624834137584" lon="8.031711629179295"><ele>249.66666666666666</ele><time>2026-04-26T10:00:44Z</time></trkpt><trkpt lat="45.396283817075116" lon="8.0315960228692"><ele>250.0</ele><time>2026-04-26T10:00:45Z</time></trkpt><trkpt lat="45.39630962443729" lon="8.031455639726403"><ele>250.8</ele><time>2026-04-26T10:00:46Z</time></trkpt><trkpt lat="45.39633545509061" lon="8.031315129865593"><ele>251.6</ele><time>2026-04-26T10:00:47Z</time></trkpt><trkpt lat="45.396361548062124" lon="8.031173193065898"><ele>252.39999999999998</ele><time>2026-04-26T10:00:48Z</time></trkpt><trkpt lat="45.39638601448302" lon="8.031040104174675"><ele>253.2</ele><time>2026-04-26T10:00:49Z</time></trkpt><trkpt lat="45.396406548169686" lon="8.03090575819276"><ele>254.0</ele><time>2026-04-26T10:00:50Z</time></trkpt><trkpt lat="45.39641280612901" lon="8.030767605164325"><ele>251.0</ele><time>2026-04-26T10:00:51Z</time></trkpt><trkpt lat="45.39644466511494" lon="8.03063558496199"><ele>247.99999999999997</ele><time>2026-04-26T10:00:52Z</time></trkpt><trkpt lat="45.396467133381684" lon="8.030509483457356"><ele>244.99999999999997</ele><time>2026-04-26T10:00:53Z</time></trkpt><trkpt lat="45.396488088100945" lon="8.030376999453821"><ele>242.0</ele><time>2026-04-26T10:00:54Z</time></trkpt><trkpt lat="45.39650586851494" lon="8.03025848448748"><ele>239.0</ele><time>2026-04-26T10:00:55Z</time></trkpt><trkpt lat="45.396521690283514" lon="8.030142357931611"><ele>239.00000000000003</ele><time>2026-04-26T10:00:56Z</time></trkpt><trkpt lat="45.39654374642559" lon="8.030031515434294"><ele>239.0</ele><time>2026-04-26T10:00:57Z</time></trkpt><trkpt lat="45.39655959219371" lon="8.029921062771686"><ele>239.0</ele><time>2026-04-26T10:00:58Z</time></trkpt><trkpt lat="45.39657905142975" lon="8.029813358346942"><ele>239.0</ele><time>2026-04-26T10:00:59Z</time></trkpt><trkpt lat="45.396603295204216" lon="8.02970410365339"><ele>239.00000000000003</ele><time>2026-04-26T10:01:00Z</time></trkpt><trkpt lat="45.396629729581676" lon="8.029587808196073"><ele>239.0</ele><time>2026-04-26T10:01:01Z</time></trkpt><trkpt lat="45.396655051227896" lon="8.02947314390517"><ele>239.83333333333334</ele><time>2026-04-26T10:01:02Z</time></trkpt><trkpt lat="45.39667626889021" lon="8.029363962389143"><ele>240.66666666666669</ele><time>2026-04-26T10:01:03Z</time></trkpt><trkpt lat="45.39668957302062" lon="8.029264041952242"><ele>241.5</ele><time>2026-04-26T10:01:04Z</time></trkpt><trkpt lat="45.39670241021247" lon="8.029150779209168"><ele>242.33333333333331</ele><time>2026-04-26T10:01:05Z</time></trkpt><trkpt lat="45.39674164393143" lon="8.029039093660641"><ele>243.16666666666666</ele><time>2026-04-26T10:01:06Z</time></trkpt><trkpt lat="45.396767076511914" lon="8.028929074281745"><ele>244.0</ele><time>2026-04-26T10:01:07Z</time></trkpt><trkpt lat="45.39679610960875" lon="8.028808058862937"><ele>244.83333333333331</ele><time>2026-04-26T10:01:08Z</time></trkpt><trkpt lat="45.3968248124135" lon="8.028691944459597"><ele>245.66666666666666</ele><time>2026-04-26T10:01:09Z</time></trkpt><trkpt lat="45.39685283872051" lon="8.02858019272245"><ele>246.5</ele><time>2026-04-26T10:01:10Z</time></trkpt><trkpt lat="45.39688306143489" lon="8.028463752712181"><ele>247.33333333333331</ele><time>2026-04-26T10:01:11Z</time></trkpt><trkpt lat="45.39690105890838" lon="8.02834381386855"><ele>248.16666666666666</ele><time>2026-04-26T10:01:12Z</time></trkpt><trkpt lat="45.396937437397035" lon="8.028237882777944"><ele>249.0</ele><time>2026-04-26T10:01:13Z</time></trkpt><trkpt lat="45.396970402782" lon="8.028122516746215"><ele>250.79999999999998</ele><time>2026-04-26T10:01:14Z</time></trkpt><trkpt lat="45.39700979285253" lon="8.028010132781837"><ele>252.59999999999997</ele><time>2026-04-26T10:01:15Z</time></trkpt><trkpt lat="45.39704880974058" lon="8.027890220070184"><ele>254.4</ele><time>2026-04-26T10:01:16Z</time></trkpt><trkpt lat="45.39708700147436" lon="8.027764614361224"><ele>256.2</ele><time>2026-04-26T10:01:17Z</time></trkpt><trkpt lat="45.39712472135928" lon="8.027639548109326"><ele>258.0</ele><time>2026-04-26T10:01:18Z</time></trkpt><trkpt lat="45.39716548961214" lon="8.027514826254553"><ele>256.3333333333333</ele><time>2026-04-26T10:01:19Z</time></trkpt><trkpt lat="45.39720408572651" lon="8.027396800828551"><ele>254.66666666666669</ele><time>2026-04-26T10:01:20Z</time></trkpt><trkpt lat="45.39723835140589" lon="8.027275890516554"><ele>253.0</ele><time>2026-04-26T10:01:21Z</time></trkpt><trkpt lat="45.39727437821989" lon="8.02716047418423"><ele>251.33333333333334</ele><time>2026-04-26T10:01:22Z</time></trkpt><trkpt lat="45.39731148329891" lon="8.02704562299035"><ele>249.66666666666669</ele><time>2026-04-26T10:01:23Z</time></trkpt><trkpt lat="45.39733695444707" lon="8.026945020625678"><ele>248.0</ele><time>2026-04-26T10:01:24Z</time></trkpt><trkpt lat="45.39737606093404" lon="8.026843998460762"><ele>248.00000000000003</ele><time>2026-04-26T10:01:25Z</time></trkpt><trkpt lat="45.397401396390514" lon="8.026730640560121"><ele>248.0</ele><time>2026-04-26T10:01:26Z</time></trkpt><trkpt lat="45.39744439069411" lon="8.026632942743454"><ele>248.0</ele><time>2026-04-26T10:01:27Z</time></trkpt><trkpt lat="45.39746733886878" lon="8.026530119604333"><ele>248.0</ele><time>2026-04-26T10:01:28Z</time></trkpt><trkpt lat="45.397485939095" lon="8.026440285989512"><ele>248.00000000000003</ele><time>2026-04-26T10:01:29Z</time></trkpt><trkpt lat="45.39753070686216" lon="8.026268007385116"><ele>248.0</ele><time>2026-04-26T10:01:31Z</time></trkpt><trkpt lat="45.397563613493794" lon="8.026176804973918"><ele>249.00000000000003</ele><time>2026-04-26T10:01:32Z</time></trkpt><trkpt lat="45.39760057373301" lon="8.026088938574361"><ele>250.0</ele><time>2026-04-26T10:01:33Z</time></trkpt><trkpt lat="45.397642865428324" lon="8.026003759433141"><ele>251.0</ele><time>2026-04-26T10:01:34Z</time></trkpt><trkpt lat="45.39769693739847" lon="8.025928539408879"><ele>252.0</ele><time>2026-04-26T10:01:35Z</time></trkpt><trkpt lat="45.39775208161047" lon="8.025860398602523"><ele>253.00000000000003</ele><time>2026-04-26T10:01:36Z</time></trkpt><trkpt lat="45.39784534581442" lon="8.025760586459437"><ele>254.0</ele><time>2026-04-26T10:01:38Z</time></trkpt><trkpt lat="45.3979233383726" lon="8.025674880917146"><ele>253.33333333333334</ele><time>2026-04-26T10:01:40Z</time></trkpt><trkpt lat="45.39800351812161" lon="8.025583167143637"><ele>252.66666666666669</ele><time>2026-04-26T10:01:42Z</time></trkpt><trkpt lat="45.398059772618694" lon="8.025532790676976"><ele>252.0</ele><time>2026-04-26T10:01:43Z</time></trkpt><trkpt lat="45.39810732579314" lon="8.025445431491224"><ele>251.33333333333331</ele><time>2026-04-26T10:01:44Z</time></trkpt><trkpt lat="45.398173675272055" lon="8.02536973885812"><ele>250.66666666666666</ele><time>2026-04-26T10:01:45Z</time></trkpt><trkpt lat="45.39825099746391" lon="8.025291366043172"><ele>250.0</ele><time>2026-04-26T10:01:46Z</time></trkpt><trkpt lat="45.39832272634257" lon="8.025198596863085"><ele>250.0</ele><time>2026-04-26T10:01:47.001Z</time></trkpt><trkpt lat="45.3983970766107" lon="8.025099186255925"><ele>250.0</ele><time>2026-04-26T10:01:48.001Z</time></trkpt><trkpt lat="45.39847774249652" lon="8.025000748384976"><ele>250.0</ele><time>2026-04-26T10:01:49.001Z</time></trkpt><trkpt lat="45.39855825659029" lon="8.024897079320302"><ele>250.0</ele><time>2026-04-26T10:01:50.001Z</time></trkpt><trkpt lat="45.39863967281928" lon="8.024794053487572"><ele>250.0</ele><time>2026-04-26T10:01:51.001Z</time></trkpt><trkpt lat="45.39872104826584" lon="8.02468677260984"><ele>249.25</ele><time>2026-04-26T10:01:52.001Z</time></trkpt><trkpt lat="45.39880433830013" lon="8.024581658875439"><ele>248.5</ele><time>2026-04-26T10:01:53.001Z</time></trkpt><trkpt lat="45.398892046419036" lon="8.024482013440306"><ele>247.75</ele><time>2026-04-26T10:01:54.001Z</time></trkpt><trkpt lat="45.39897978527915" lon="8.024374008287987"><ele>247.0</ele><time>2026-04-26T10:01:55.001Z</time></trkpt><trkpt lat="45.39906361949285" lon="8.024267799956666"><ele>247.0</ele><time>2026-04-26T10:01:56.001Z</time></trkpt><trkpt lat="45.39913880632593" lon="8.024164562979994"><ele>247.0</ele><time>2026-04-26T10:01:57.001Z</time></trkpt><trkpt lat="45.39921733210743" lon="8.024066869385729"><ele>247.0</ele><time>2026-04-26T10:01:58.001Z</time></trkpt><trkpt lat="45.39929424381474" lon="8.02397668491747"><ele>247.0</ele><time>2026-04-26T10:01:59.001Z</time></trkpt><trkpt lat="45.39936609271502" lon="8.02389350323835"><ele>247.0</ele><time>2026-04-26T10:02:00.001Z</time></trkpt><trkpt lat="45.399435868542035" lon="8.023820863688547"><ele>246.71428571428572</ele><time>2026-04-26T10:02:01.001Z</time></trkpt><trkpt lat="45.39950316578023" lon="8.023759350144521"><ele>246.42857142857142</ele><time>2026-04-26T10:02:02.001Z</time></trkpt><trkpt lat="45.399563638026756" lon="8.023704441396251"><ele>246.14285714285714</ele><time>2026-04-26T10:02:03.001Z</time></trkpt><trkpt lat="45.39962126465223" lon="8.023653263772502"><ele>245.85714285714286</ele><time>2026-04-26T10:02:04.001Z</time></trkpt><trkpt lat="45.399678987845846" lon="8.023607980459813"><ele>245.57142857142856</ele><time>2026-04-26T10:02:05.001Z</time></trkpt><trkpt lat="45.39973711631534" lon="8.023564827525483"><ele>245.28571428571428</ele><time>2026-04-26T10:02:06.001Z</time></trkpt><trkpt lat="45.3997990922892" lon="8.023521941012167"><ele>245.0</ele><time>2026-04-26T10:02:07.001Z</time></trkpt><trkpt lat="45.39987405815257" lon="8.023478858251758"><ele>245.0</ele><time>2026-04-26T10:02:08.001Z</time></trkpt><trkpt lat="45.39995700135863" lon="8.023432957785394"><ele>245.0</ele><time>2026-04-26T10:02:09.001Z</time></trkpt><trkpt lat="45.40004694670508" lon="8.023389820102475"><ele>245.0</ele><time>2026-04-26T10:02:10.001Z</time></trkpt><trkpt lat="45.400138132198286" lon="8.02335287954557"><ele>245.0</ele><time>2026-04-26T10:02:11.001Z</time></trkpt><trkpt lat="45.400227767146696" lon="8.02331023237163"><ele>245.0</ele><time>2026-04-26T10:02:12.001Z</time></trkpt><trkpt lat="45.40031847975592" lon="8.023278869311275"><ele>245.33333333333334</ele><time>2026-04-26T10:02:13.001Z</time></trkpt><trkpt lat="45.40040760667752" lon="8.02324748900991"><ele>245.66666666666669</ele><time>2026-04-26T10:02:14.001Z</time></trkpt><trkpt lat="45.40049154206279" lon="8.023212391292398"><ele>246.0</ele><time>2026-04-26T10:02:15.001Z</time></trkpt><trkpt lat="45.4005719103795" lon="8.023176311800476"><ele>246.33333333333331</ele><time>2026-04-26T10:02:16.001Z</time></trkpt><trkpt lat="45.4006480957038" lon="8.023142785859102"><ele>246.66666666666666</ele><time>2026-04-26T10:02:17.001Z</time></trkpt><trkpt lat="45.400716368160225" lon="8.023113774260255"><ele>247.0</ele><time>2026-04-26T10:02:18.001Z</time></trkpt><trkpt lat="45.4007868019435" lon="8.023076451627142"><ele>246.99999999999997</ele><time>2026-04-26T10:02:19.001Z</time></trkpt><trkpt lat="45.40086179183082" lon="8.02302862035388"><ele>247.0</ele><time>2026-04-26T10:02:20.001Z</time></trkpt><trkpt lat="45.400929778309234" lon="8.022962709551168"><ele>247.0</ele><time>2026-04-26T10:02:21.001Z</time></trkpt><trkpt lat="45.40099502371144" lon="8.022880653557866"><ele>247.0</ele><time>2026-04-26T10:02:22.001Z</time></trkpt><trkpt lat="45.401064249961365" lon="8.022792770273805"><ele>246.99999999999997</ele><time>2026-04-26T10:02:23.001Z</time></trkpt><trkpt lat="45.401143632972996" lon="8.022712220911556"><ele>247.0</ele><time>2026-04-26T10:02:24.001Z</time></trkpt><trkpt lat="45.401234370646044" lon="8.02265745022946"><ele>247.0</ele><time>2026-04-26T10:02:25.001Z</time></trkpt><trkpt lat="45.40132675353433" lon="8.022593775018867"><ele>247.0</ele><time>2026-04-26T10:02:26.001Z</time></trkpt><trkpt lat="45.40142157038246" lon="8.022519321454958"><ele>247.0</ele><time>2026-04-26T10:02:27.001Z</time></trkpt><trkpt lat="45.401510399895116" lon="8.022448489725464"><ele>247.0</ele><time>2026-04-26T10:02:28.001Z</time></trkpt><trkpt lat="45.40159920169841" lon="8.022377679967702"><ele>247.0</ele><time>2026-04-26T10:02:29.001Z</time></trkpt><trkpt lat="45.401687134710215" lon="8.022308560585172"><ele>247.2</ele><time>2026-04-26T10:02:30.001Z</time></trkpt><trkpt lat="45.4017744770824" lon="8.022240669064345"><ele>247.39999999999998</ele><time>2026-04-26T10:02:31.001Z</time></trkpt><trkpt lat="45.40185571968355" lon="8.022154131992275"><ele>247.60000000000002</ele><time>2026-04-26T10:02:32.001Z</time></trkpt><trkpt lat="45.40195724693442" lon="8.022112699741639"><ele>247.8</ele><time>2026-04-26T10:02:33.001Z</time></trkpt><trkpt lat="45.40205551969521" lon="8.022034077245097"><ele>248.0</ele><time>2026-04-26T10:02:34.001Z</time></trkpt><trkpt lat="45.40216651092983" lon="8.02198333739447"><ele>248.0</ele><time>2026-04-26T10:02:35.001Z</time></trkpt><trkpt lat="45.402291639385545" lon="8.021933916005635"><ele>248.0</ele><time>2026-04-26T10:02:36.001Z</time></trkpt><trkpt lat="45.40242337104003" lon="8.021890705207227"><ele>248.0</ele><time>2026-04-26T10:02:37.001Z</time></trkpt><trkpt lat="45.40252985593831" lon="8.021856796823746"><ele>248.0</ele><time>2026-04-26T10:02:38.001Z</time></trkpt><trkpt lat="45.402668732565324" lon="8.021827102987382"><ele>248.0</ele><time>2026-04-26T10:02:39.001Z</time></trkpt><trkpt lat="45.40277957173019" lon="8.021777182488792"><ele>248.0</ele><time>2026-04-26T10:02:41.001Z</time></trkpt><trkpt lat="45.40287026453612" lon="8.021754533084085"><ele>248.0</ele><time>2026-04-26T10:02:42.001Z</time></trkpt><trkpt lat="45.402957339623285" lon="8.021743125744285"><ele>248.0</ele><time>2026-04-26T10:02:43.001Z</time></trkpt><trkpt lat="45.40303540856823" lon="8.021719833043672"><ele>248.0</ele><time>2026-04-26T10:02:44.001Z</time></trkpt><trkpt lat="45.40310722779517" lon="8.021693830579922"><ele>247.50000000000003</ele><time>2026-04-26T10:02:45.001Z</time></trkpt><trkpt lat="45.40317945348806" lon="8.02166466165127"><ele>247.0</ele><time>2026-04-26T10:02:45.999Z</time></trkpt><trkpt lat="45.40326039750436" lon="8.021659383017521"><ele>246.5</ele><time>2026-04-26T10:02:46.999Z</time></trkpt><trkpt lat="45.40334437036446" lon="8.021621836058532"><ele>246.0</ele><time>2026-04-26T10:02:47.999Z</time></trkpt><trkpt lat="45.403435096531545" lon="8.021606331755521"><ele>245.50000000000003</ele><time>2026-04-26T10:02:48.999Z</time></trkpt><trkpt lat="45.40352819329505" lon="8.02155651612357"><ele>245.0</ele><time>2026-04-26T10:02:49.999Z</time></trkpt><trkpt lat="45.40363286623938" lon="8.021486747154894"><ele>245.8</ele><time>2026-04-26T10:02:50.999Z</time></trkpt><trkpt lat="45.40373363889939" lon="8.02137999478598"><ele>246.6</ele><time>2026-04-26T10:02:51.999Z</time></trkpt><trkpt lat="45.40384599827443" lon="8.021303727003817"><ele>247.39999999999998</ele><time>2026-04-26T10:02:52.999Z</time></trkpt><trkpt lat="45.40393747386477" lon="8.021221938310035"><ele>248.2</ele><time>2026-04-26T10:02:53.999Z</time></trkpt><trkpt lat="45.404012702680305" lon="8.021153120314754"><ele>249.0</ele><time>2026-04-26T10:02:54.999Z</time></trkpt><trkpt lat="45.40407812922378" lon="8.021092905679875"><ele>249.0</ele><time>2026-04-26T10:02:56Z</time></trkpt><trkpt lat="45.40413710493326" lon="8.021045812457253"><ele>248.99999999999997</ele><time>2026-04-26T10:02:57Z</time></trkpt><trkpt lat="45.40419279125504" lon="8.021000546718525"><ele>249.0</ele><time>2026-04-26T10:02:58Z</time></trkpt><trkpt lat="45.404250608537794" lon="8.020959824510681"><ele>249.0</ele><time>2026-04-26T10:02:59Z</time></trkpt><trkpt lat="45.404308638829846" lon="8.02091505648638"><ele>248.99999999999997</ele><time>2026-04-26T10:03:00Z</time></trkpt><trkpt lat="45.40436495361274" lon="8.020858002299665"><ele>249.0</ele><time>2026-04-26T10:03:01Z</time></trkpt><trkpt lat="45.40442959052016" lon="8.020816582056337"><ele>249.0</ele><time>2026-04-26T10:03:02Z</time></trkpt><trkpt lat="45.404505432542166" lon="8.020772959411365"><ele>249.5</ele><time>2026-04-26T10:03:03Z</time></trkpt><trkpt lat="45.40458630713688" lon="8.02072904584109"><ele>250.0</ele><time>2026-04-26T10:03:04Z</time></trkpt><trkpt lat="45.404669938659" lon="8.020687570083538"><ele>250.5</ele><time>2026-04-26T10:03:05Z</time></trkpt><trkpt lat="45.404757244218544" lon="8.020643559002588"><ele>251.0</ele><time>2026-04-26T10:03:06Z</time></trkpt><trkpt lat="45.404841286495284" lon="8.020597826016491"><ele>251.5</ele><time>2026-04-26T10:03:07Z</time></trkpt><trkpt lat="45.404928303570955" lon="8.020570185465791"><ele>252.0</ele><time>2026-04-26T10:03:08Z</time></trkpt><trkpt lat="45.405008104568786" lon="8.020515690782291"><ele>252.0</ele><time>2026-04-26T10:03:09Z</time></trkpt><trkpt lat="45.40508329843314" lon="8.020435493087616"><ele>252.0</ele><time>2026-04-26T10:03:10Z</time></trkpt><trkpt lat="45.40516527968792" lon="8.020380610193808"><ele>252.0</ele><time>2026-04-26T10:03:11Z</time></trkpt><trkpt lat="45.40524403935016" lon="8.020320001428942"><ele>252.0</ele><time>2026-04-26T10:03:12Z</time></trkpt><trkpt lat="45.40532570583628" lon="8.020250092368498"><ele>252.0</ele><time>2026-04-26T10:03:13Z</time></trkpt><trkpt lat="45.40540248000511" lon="8.020183846231964"><ele>252.0</ele><time>2026-04-26T10:03:14Z</time></trkpt><trkpt lat="45.40547928958783" lon="8.020108234102256"><ele>252.0</ele><time>2026-04-26T10:03:15Z</time></trkpt><trkpt lat="45.40556205559743" lon="8.020029726458015"><ele>252.0</ele><time>2026-04-26T10:03:16Z</time></trkpt><trkpt lat="45.40563972304317" lon="8.019946568529862"><ele>252.0</ele><time>2026-04-26T10:03:17Z</time></trkpt><trkpt lat="45.405705297798605" lon="8.019870734704392"><ele>252.0</ele><time>2026-04-26T10:03:18Z</time></trkpt><trkpt lat="45.40576684504133" lon="8.019814848991988"><ele>252.0</ele><time>2026-04-26T10:03:19Z</time></trkpt><trkpt lat="45.405834925682264" lon="8.019727293732954"><ele>253.39999999999998</ele><time>2026-04-26T10:03:20Z</time></trkpt><trkpt lat="45.405910847581765" lon="8.019645696654393"><ele>254.79999999999998</ele><time>2026-04-26T10:03:21Z</time></trkpt><trkpt lat="45.40598428035816" lon="8.019576963491033"><ele>256.2</ele><time>2026-04-26T10:03:22Z</time></trkpt><trkpt lat="45.40607007540829" lon="8.019499602602757"><ele>257.59999999999997</ele><time>2026-04-26T10:03:23Z</time></trkpt><trkpt lat="45.4061395458783" lon="8.019393198079396"><ele>259.0</ele><time>2026-04-26T10:03:24Z</time></trkpt><trkpt lat="45.40621929787197" lon="8.019285405551738"><ele>259.0</ele><time>2026-04-26T10:03:25Z</time></trkpt><trkpt lat="45.406304701680156" lon="8.01920019406328"><ele>259.0</ele><time>2026-04-26T10:03:26Z</time></trkpt><trkpt lat="45.406366141533915" lon="8.01907967441324"><ele>259.0</ele><time>2026-04-26T10:03:27Z</time></trkpt><trkpt lat="45.40643635089683" lon="8.01897503488916"><ele>259.0</ele><time>2026-04-26T10:03:28Z</time></trkpt><trkpt lat="45.40651182805313" lon="8.018882847659738"><ele>259.0</ele><time>2026-04-26T10:03:29Z</time></trkpt><trkpt lat="45.406566889870845" lon="8.018790389500039"><ele>259.0</ele><time>2026-04-26T10:03:30Z</time></trkpt><trkpt lat="45.406627567818475" lon="8.018698045026676"><ele>259.0</ele><time>2026-04-26T10:03:31Z</time></trkpt><trkpt lat="45.40669279494607" lon="8.018613611321697"><ele>259.0</ele><time>2026-04-26T10:03:32Z</time></trkpt><trkpt lat="45.40675660824013" lon="8.018525776644477"><ele>259.0</ele><time>2026-04-26T10:03:33Z</time></trkpt><trkpt lat="45.40682681914239" lon="8.018449707260705"><ele>259.0</ele><time>2026-04-26T10:03:34Z</time></trkpt><trkpt lat="45.406915453234255" lon="8.01837010762796"><ele>259.2</ele><time>2026-04-26T10:03:35Z</time></trkpt><trkpt lat="45.40700602442411" lon="8.018290702798879"><ele>259.4</ele><time>2026-04-26T10:03:36Z</time></trkpt><trkpt lat="45.4070886922574" lon="8.018222930504058"><ele>259.6</ele><time>2026-04-26T10:03:37Z</time></trkpt><trkpt lat="45.4071642068831" lon="8.018150798285609"><ele>259.8</ele><time>2026-04-26T10:03:38Z</time></trkpt><trkpt lat="45.40723729545002" lon="8.018085743102374"><ele>260.0</ele><time>2026-04-26T10:03:39Z</time></trkpt><trkpt lat="45.40729406803273" lon="8.018004797208532"><ele>260.0</ele><time>2026-04-26T10:03:40Z</time></trkpt><trkpt lat="45.407363227422984" lon="8.017928670526137"><ele>260.0</ele><time>2026-04-26T10:03:41Z</time></trkpt><trkpt lat="45.40744556831976" lon="8.01788149853419"><ele>260.0</ele><time>2026-04-26T10:03:42Z</time></trkpt><trkpt lat="45.40752602332848" lon="8.017827078007286"><ele>260.0</ele><time>2026-04-26T10:03:43Z</time></trkpt><trkpt lat="45.40760651447678" lon="8.017764976690124"><ele>260.0</ele><time>2026-04-26T10:03:44Z</time></trkpt><trkpt lat="45.40769136128359" lon="8.017743690202076"><ele>260.0</ele><time>2026-04-26T10:03:45Z</time></trkpt><trkpt lat="45.40778220522546" lon="8.017751661086493"><ele>260.0</ele><time>2026-04-26T10:03:46Z</time></trkpt><trkpt lat="45.40788932677515" lon="8.01774462062203"><ele>260.0</ele><time>2026-04-26T10:03:47Z</time></trkpt><trkpt lat="45.40799240527363" lon="8.017747441144579"><ele>260.0</ele><time>2026-04-26T10:03:48Z</time></trkpt><trkpt lat="45.40809203315131" lon="8.017731450237639"><ele>260.0</ele><time>2026-04-26T10:03:49Z</time></trkpt><trkpt lat="45.40817052900412" lon="8.017745793669043"><ele>260.0</ele><time>2026-04-26T10:03:50.001Z</time></trkpt><trkpt lat="45.40827708990054" lon="8.017768845186566"><ele>260.14285714285717</ele><time>2026-04-26T10:03:52.001Z</time></trkpt><trkpt lat="45.40834226093805" lon="8.017774198548087"><ele>260.2857142857143</ele><time>2026-04-26T10:03:53.001Z</time></trkpt><trkpt lat="45.40840587405513" lon="8.017785199967514"><ele>260.42857142857144</ele><time>2026-04-26T10:03:54.001Z</time></trkpt><trkpt lat="45.40847467303755" lon="8.017806412779718"><ele>260.57142857142856</ele><time>2026-04-26T10:03:55.001Z</time></trkpt><trkpt lat="45.40854445402209" lon="8.017824413349947"><ele>260.7142857142857</ele><time>2026-04-26T10:03:56.001Z</time></trkpt><trkpt lat="45.408617188433304" lon="8.01783821460684"><ele>260.8571428571429</ele><time>2026-04-26T10:03:57.001Z</time></trkpt><trkpt lat="45.40868782660993" lon="8.017852541553722"><ele>261.0</ele><time>2026-04-26T10:03:58.001Z</time></trkpt><trkpt lat="45.40875343781562" lon="8.017876332990973"><ele>262.42857142857144</ele><time>2026-04-26T10:03:59.001Z</time></trkpt><trkpt lat="45.40882923254428" lon="8.017898533270571"><ele>263.85714285714283</ele><time>2026-04-26T10:04:00.001Z</time></trkpt><trkpt lat="45.40889646505274" lon="8.017905992321568"><ele>265.2857142857143</ele><time>2026-04-26T10:04:01.001Z</time></trkpt><trkpt lat="45.408966049263505" lon="8.01791811024053"><ele>266.7142857142857</ele><time>2026-04-26T10:04:02.001Z</time></trkpt><trkpt lat="45.40903992632939" lon="8.017937683698994"><ele>268.14285714285717</ele><time>2026-04-26T10:04:03.001Z</time></trkpt><trkpt lat="45.409107478512816" lon="8.017971913969252"><ele>269.57142857142856</ele><time>2026-04-26T10:04:04.001Z</time></trkpt><trkpt lat="45.40918963695923" lon="8.01800758773954"><ele>271.0</ele><time>2026-04-26T10:04:05.001Z</time></trkpt><trkpt lat="45.40926857523816" lon="8.01804275300537"><ele>271.0</ele><time>2026-04-26T10:04:06.001Z</time></trkpt><trkpt lat="45.40934675159787" lon="8.018086596975401"><ele>271.0</ele><time>2026-04-26T10:04:07.001Z</time></trkpt><trkpt lat="45.409413185537936" lon="8.01816677033209"><ele>271.0</ele><time>2026-04-26T10:04:08.001Z</time></trkpt><trkpt lat="45.40948972777777" lon="8.018235930722634"><ele>271.0</ele><time>2026-04-26T10:04:09.001Z</time></trkpt><trkpt lat="45.40957163332338" lon="8.018312262309411"><ele>271.0</ele><time>2026-04-26T10:04:10.001Z</time></trkpt><trkpt lat="45.40965542925848" lon="8.018383010537606"><ele>270.5</ele><time>2026-04-26T10:04:11.001Z</time></trkpt><trkpt lat="45.409746690524194" lon="8.018433493411639"><ele>270.0</ele><time>2026-04-26T10:04:12.001Z</time></trkpt><trkpt lat="45.40982267130954" lon="8.018504397302644"><ele>269.5</ele><time>2026-04-26T10:04:13.001Z</time></trkpt><trkpt lat="45.409895580275794" lon="8.018563876077701"><ele>269.0</ele><time>2026-04-26T10:04:14.001Z</time></trkpt><trkpt lat="45.40996737098074" lon="8.018614766397413"><ele>268.5</ele><time>2026-04-26T10:04:15.001Z</time></trkpt><trkpt lat="45.41003715757199" lon="8.01866631538793"><ele>268.0</ele><time>2026-04-26T10:04:16.001Z</time></trkpt><trkpt lat="45.41011390641504" lon="8.018693537860822"><ele>268.0</ele><time>2026-04-26T10:04:17.001Z</time></trkpt><trkpt lat="45.410195019821316" lon="8.018706213144965"><ele>268.0</ele><time>2026-04-26T10:04:18.001Z</time></trkpt><trkpt lat="45.41027617806819" lon="8.018690514230222"><ele>268.0</ele><time>2026-04-26T10:04:19.001Z</time></trkpt><trkpt lat="45.41035716639379" lon="8.018649032424133"><ele>268.0</ele><time>2026-04-26T10:04:20.001Z</time></trkpt><trkpt lat="45.41044319319847" lon="8.018616132716103"><ele>268.0</ele><time>2026-04-26T10:04:21.001Z</time></trkpt><trkpt lat="45.410534069925944" lon="8.018576940121315"><ele>268.0</ele><time>2026-04-26T10:04:22.001Z</time></trkpt><trkpt lat="45.41062190349856" lon="8.01854145207085"><ele>268.2</ele><time>2026-04-26T10:04:23.001Z</time></trkpt><trkpt lat="45.41071235646803" lon="8.018504118736944"><ele>268.4</ele><time>2026-04-26T10:04:24.001Z</time></trkpt><trkpt lat="45.41080566272231" lon="8.018460808798581"><ele>268.59999999999997</ele><time>2026-04-26T10:04:25.001Z</time></trkpt><trkpt lat="45.410901425418615" lon="8.01842646491481"><ele>268.8</ele><time>2026-04-26T10:04:26.001Z</time></trkpt><trkpt lat="45.410987825537006" lon="8.018385568425268"><ele>269.0</ele><time>2026-04-26T10:04:27.001Z</time></trkpt><trkpt lat="45.41106801522836" lon="8.018330367017246"><ele>271.59999999999997</ele><time>2026-04-26T10:04:28.001Z</time></trkpt><trkpt lat="45.41114179707962" lon="8.018278692655041"><ele>274.2</ele><time>2026-04-26T10:04:29.001Z</time></trkpt><trkpt lat="45.41121725905416" lon="8.018218368448686"><ele>276.79999999999995</ele><time>2026-04-26T10:04:30.001Z</time></trkpt><trkpt lat="45.411307443219464" lon="8.01815183240497"><ele>279.4</ele><time>2026-04-26T10:04:31.001Z</time></trkpt><trkpt lat="45.41140870157999" lon="8.018099586572982"><ele>282.0</ele><time>2026-04-26T10:04:32.001Z</time></trkpt><trkpt lat="45.41152295541176" lon="8.018049464313417"><ele>282.0</ele><time>2026-04-26T10:04:33.001Z</time></trkpt><trkpt lat="45.4116368579133" lon="8.01803886318007"><ele>282.0</ele><time>2026-04-26T10:04:34.001Z</time></trkpt><trkpt lat="45.411739192280116" lon="8.018016607825691"><ele>282.0</ele><time>2026-04-26T10:04:35.001Z</time></trkpt><trkpt lat="45.411839344228135" lon="8.017975266910252"><ele>282.0</ele><time>2026-04-26T10:04:36.001Z</time></trkpt><trkpt lat="45.411942622712665" lon="8.017980300376022"><ele>282.0</ele><time>2026-04-26T10:04:37.001Z</time></trkpt><trkpt lat="45.4120433907655" lon="8.017948980360918"><ele>282.0</ele><time>2026-04-26T10:04:38.001Z</time></trkpt><trkpt lat="45.4121411974039" lon="8.017940100917976"><ele>282.0</ele><time>2026-04-26T10:04:39.001Z</time></trkpt><trkpt lat="45.412234167013615" lon="8.017935105152727"><ele>282.0</ele><time>2026-04-26T10:04:40.001Z</time></trkpt><trkpt lat="45.41232063688826" lon="8.017923882177799"><ele>282.0</ele><time>2026-04-26T10:04:41.001Z</time></trkpt><trkpt lat="45.4124026129169" lon="8.017904304303173"><ele>282.0</ele><time>2026-04-26T10:04:42.001Z</time></trkpt><trkpt lat="45.41248492821079" lon="8.017880340014912"><ele>282.0</ele><time>2026-04-26T10:04:43.001Z</time></trkpt><trkpt lat="45.41256518134305" lon="8.017851037999181"><ele>282.4</ele><time>2026-04-26T10:04:44.001Z</time></trkpt><trkpt lat="45.41264505768031" lon="8.01780674778385"><ele>282.79999999999995</ele><time>2026-04-26T10:04:45.001Z</time></trkpt><trkpt lat="45.41273940391241" lon="8.017748172303683"><ele>283.2</ele><time>2026-04-26T10:04:46.001Z</time></trkpt><trkpt lat="45.41282229422171" lon="8.017667299255113"><ele>283.59999999999997</ele><time>2026-04-26T10:04:47.001Z</time></trkpt><trkpt lat="45.41289961301335" lon="8.01756724538338"><ele>284.0</ele><time>2026-04-26T10:04:48.001Z</time></trkpt><trkpt lat="45.41298450410073" lon="8.017458201992195"><ele>281.0</ele><time>2026-04-26T10:04:49.001Z</time></trkpt><trkpt lat="45.41306184408522" lon="8.017354919896805"><ele>278.0</ele><time>2026-04-26T10:04:50.001Z</time></trkpt><trkpt lat="45.41313989231174" lon="8.017256132331012"><ele>275.0</ele><time>2026-04-26T10:04:51.001Z</time></trkpt><trkpt lat="45.413194021881665" lon="8.017139376956889"><ele>272.0</ele><time>2026-04-26T10:04:52Z</time></trkpt><trkpt lat="45.41325677119887" lon="8.017046979851568"><ele>269.0</ele><time>2026-04-26T10:04:53Z</time></trkpt><trkpt lat="45.413323212671465" lon="8.016945088627251"><ele>269.0</ele><time>2026-04-26T10:04:54Z</time></trkpt><trkpt lat="45.41337782094172" lon="8.01684465244688"><ele>269.0</ele><time>2026-04-26T10:04:55Z</time></trkpt><trkpt lat="45.413435471423405" lon="8.016756474901095"><ele>269.0</ele><time>2026-04-26T10:04:56Z</time></trkpt><trkpt lat="45.41349239813859" lon="8.016677791572492"><ele>269.0</ele><time>2026-04-26T10:04:57Z</time></trkpt><trkpt lat="45.41355597736545" lon="8.01660129970383"><ele>269.0</ele><time>2026-04-26T10:04:58Z</time></trkpt><trkpt lat="45.41361712281213" lon="8.016539696332805"><ele>269.0</ele><time>2026-04-26T10:04:59Z</time></trkpt><trkpt lat="45.41367380130501" lon="8.016477093434775"><ele>268.0</ele><time>2026-04-26T10:05:00Z</time></trkpt><trkpt lat="45.41372570537987" lon="8.016420055540245"><ele>267.0</ele><time>2026-04-26T10:05:01Z</time></trkpt><trkpt lat="45.41378660038199" lon="8.016360544210428"><ele>266.0</ele><time>2026-04-26T10:05:02Z</time></trkpt><trkpt lat="45.41384759275807" lon="8.016297517930209"><ele>265.0</ele><time>2026-04-26T10:05:03Z</time></trkpt><trkpt lat="45.413914703451105" lon="8.016230193929967"><ele>264.0</ele><time>2026-04-26T10:05:04Z</time></trkpt><trkpt lat="45.41399711905812" lon="8.01618805230934"><ele>263.0</ele><time>2026-04-26T10:05:05Z</time></trkpt><trkpt lat="45.41408009055907" lon="8.016119265927067"><ele>263.0</ele><time>2026-04-26T10:05:06Z</time></trkpt><trkpt lat="45.4141658858176" lon="8.016091863469459"><ele>263.0</ele><time>2026-04-26T10:05:07Z</time></trkpt><trkpt lat="45.41426398455129" lon="8.016059506993598"><ele>263.0</ele><time>2026-04-26T10:05:08Z</time></trkpt><trkpt lat="45.41435355629187" lon="8.016018944131744"><ele>263.0</ele><time>2026-04-26T10:05:09Z</time></trkpt><trkpt lat="45.41443979238988" lon="8.015960872059923"><ele>263.0</ele><time>2026-04-26T10:05:10Z</time></trkpt><trkpt lat="45.41453156541847" lon="8.015929161499201"><ele>263.0</ele><time>2026-04-26T10:05:11Z</time></trkpt><trkpt lat="45.41460861374995" lon="8.015881427228033"><ele>263.0</ele><time>2026-04-26T10:05:12Z</time></trkpt><trkpt lat="45.41468045374764" lon="8.015827207261486"><ele>263.0</ele><time>2026-04-26T10:05:13Z</time></trkpt><trkpt lat="45.41474031185656" lon="8.015765548434484"><ele>263.0</ele><time>2026-04-26T10:05:14Z</time></trkpt><trkpt lat="45.41479583469292" lon="8.015689747944931"><ele>263.0</ele><time>2026-04-26T10:05:15Z</time></trkpt><trkpt lat="45.4148534497454" lon="8.01560727417129"><ele>263.0</ele><time>2026-04-26T10:05:16Z</time></trkpt><trkpt lat="45.41491605697562" lon="8.015513469841553"><ele>263.2</ele><time>2026-04-26T10:05:17Z</time></trkpt><trkpt lat="45.41497526578899" lon="8.015414335639747"><ele>263.4</ele><time>2026-04-26T10:05:18Z</time></trkpt><trkpt lat="45.41503612466137" lon="8.015302340983597"><ele>263.59999999999997</ele><time>2026-04-26T10:05:19Z</time></trkpt><trkpt lat="45.4150962791723" lon="8.015184824597114"><ele>263.8</ele><time>2026-04-26T10:05:20Z</time></trkpt><trkpt lat="45.41515639940369" lon="8.015064007870881"><ele>264.0</ele><time>2026-04-26T10:05:21Z</time></trkpt><trkpt lat="45.41521822627451" lon="8.014928416096286"><ele>264.59999999999997</ele><time>2026-04-26T10:05:22Z</time></trkpt><trkpt lat="45.41527445240202" lon="8.014798248339758"><ele>265.2</ele><time>2026-04-26T10:05:23Z</time></trkpt><trkpt lat="45.41532633937818" lon="8.014660770451714"><ele>265.79999999999995</ele><time>2026-04-26T10:05:24Z</time></trkpt><trkpt lat="45.415378277417496" lon="8.014522919861186"><ele>266.4</ele><time>2026-04-26T10:05:25Z</time></trkpt><trkpt lat="45.415423499929965" lon="8.014368898587364"><ele>267.0</ele><time>2026-04-26T10:05:26Z</time></trkpt><trkpt lat="45.41548929217025" lon="8.014223501815977"><ele>264.75</ele><time>2026-04-26T10:05:27Z</time></trkpt><trkpt lat="45.41556288760659" lon="8.01407377499315"><ele>262.5</ele><time>2026-04-26T10:05:28Z</time></trkpt><trkpt lat="45.41563761438892" lon="8.013910618318674"><ele>260.25</ele><time>2026-04-26T10:05:29Z</time></trkpt><trkpt lat="45.415723474535824" lon="8.013757513072486"><ele>258.0</ele><time>2026-04-26T10:05:30Z</time></trkpt><trkpt lat="45.41578574342201" lon="8.013573260559076"><ele>258.0</ele><time>2026-04-26T10:05:31Z</time></trkpt><trkpt lat="45.415863477102334" lon="8.013407362515482"><ele>258.0</ele><time>2026-04-26T10:05:32Z</time></trkpt><trkpt lat="45.415934349826806" lon="8.013239716322472"><ele>258.0</ele><time>2026-04-26T10:05:33Z</time></trkpt><trkpt lat="45.41600948650271" lon="8.013081072585829"><ele>258.0</ele><time>2026-04-26T10:05:34Z</time></trkpt><trkpt lat="45.41609185992407" lon="8.012929090139586"><ele>258.0</ele><time>2026-04-26T10:05:35Z</time></trkpt><trkpt lat="45.41618360389764" lon="8.012784397761786"><ele>258.0</ele><time>2026-04-26T10:05:36Z</time></trkpt><trkpt lat="45.41628129301778" lon="8.012646620644361"><ele>258.0</ele><time>2026-04-26T10:05:37Z</time></trkpt><trkpt lat="45.41637720182957" lon="8.012498058911458"><ele>258.0</ele><time>2026-04-26T10:05:38Z</time></trkpt><trkpt lat="45.416470795146324" lon="8.012330503982364"><ele>256.3333333333333</ele><time>2026-04-26T10:05:39Z</time></trkpt><trkpt lat="45.41656306496794" lon="8.012161611049157"><ele>254.66666666666666</ele><time>2026-04-26T10:05:40Z</time></trkpt><trkpt lat="45.416674858944106" lon="8.012001700420381"><ele>253.0</ele><time>2026-04-26T10:05:41.001Z</time></trkpt><trkpt lat="45.41677411704768" lon="8.01182118370974"><ele>254.0</ele><time>2026-04-26T10:05:42.001Z</time></trkpt><trkpt lat="45.41685982153929" lon="8.011624733535035"><ele>255.0</ele><time>2026-04-26T10:05:43.001Z</time></trkpt><trkpt lat="45.41696021537715" lon="8.01143906005005"><ele>256.0</ele><time>2026-04-26T10:05:44.001Z</time></trkpt><trkpt lat="45.41706668075913" lon="8.011275458726425"><ele>255.0</ele><time>2026-04-26T10:05:45.001Z</time></trkpt><trkpt lat="45.41715525535277" lon="8.011108352304134"><ele>254.0</ele><time>2026-04-26T10:05:46.001Z</time></trkpt><trkpt lat="45.41724006677815" lon="8.01094720169514"><ele>253.0</ele><time>2026-04-26T10:05:47.001Z</time></trkpt><trkpt lat="45.41731554422984" lon="8.010803786579228"><ele>252.0</ele><time>2026-04-26T10:05:48.001Z</time></trkpt><trkpt lat="45.41738476728174" lon="8.010670297004518"><ele>252.0</ele><time>2026-04-26T10:05:49.001Z</time></trkpt><trkpt lat="45.41744789200218" lon="8.010548556637277"><ele>252.0</ele><time>2026-04-26T10:05:50.001Z</time></trkpt><trkpt lat="45.417494932277165" lon="8.010419631811851"><ele>252.0</ele><time>2026-04-26T10:05:51.001Z</time></trkpt><trkpt lat="45.417563547220624" lon="8.01032550707733"><ele>252.0</ele><time>2026-04-26T10:05:52.001Z</time></trkpt><trkpt lat="45.41761666893585" lon="8.01022305799043"><ele>252.0</ele><time>2026-04-26T10:05:53.001Z</time></trkpt><trkpt lat="45.417665451687014" lon="8.010130081511349"><ele>252.0</ele><time>2026-04-26T10:05:54.001Z</time></trkpt><trkpt lat="45.41771283854197" lon="8.010040595762808"><ele>252.0</ele><time>2026-04-26T10:05:55.001Z</time></trkpt><trkpt lat="45.41775932672277" lon="8.00995312722436"><ele>252.0</ele><time>2026-04-26T10:05:56.001Z</time></trkpt><trkpt lat="45.41780562659096" lon="8.009866202594175"><ele>252.0</ele><time>2026-04-26T10:05:57.001Z</time></trkpt><trkpt lat="45.41785147515225" lon="8.009775984324358"><ele>252.0</ele><time>2026-04-26T10:05:58.001Z</time></trkpt><trkpt lat="45.41789406436538" lon="8.009686834742814"><ele>252.0</ele><time>2026-04-26T10:05:59.001Z</time></trkpt><trkpt lat="45.4179413170471" lon="8.009586343604717"><ele>250.8</ele><time>2026-04-26T10:06:00.001Z</time></trkpt><trkpt lat="45.41799375534782" lon="8.009472199747881"><ele>249.6</ele><time>2026-04-26T10:06:01.001Z</time></trkpt><trkpt lat="45.41805034155306" lon="8.009344525374505"><ele>248.40000000000003</ele><time>2026-04-26T10:06:02.001Z</time></trkpt><trkpt lat="45.41811035956719" lon="8.009205568020251"><ele>247.20000000000002</ele><time>2026-04-26T10:06:03.001Z</time></trkpt><trkpt lat="45.41815953773279" lon="8.009055233619364"><ele>246.0</ele><time>2026-04-26T10:06:04.001Z</time></trkpt><trkpt lat="45.418218577601394" lon="8.008899108255127"><ele>246.0</ele><time>2026-04-26T10:06:05.001Z</time></trkpt><trkpt lat="45.41828054292206" lon="8.008729649070704"><ele>246.0</ele><time>2026-04-26T10:06:06.001Z</time></trkpt><trkpt lat="45.41834142698" lon="8.008553211908058"><ele>246.0</ele><time>2026-04-26T10:06:07.001Z</time></trkpt><trkpt lat="45.41841699436326" lon="8.008389408007293"><ele>246.0</ele><time>2026-04-26T10:06:08.001Z</time></trkpt><trkpt lat="45.41846283993195" lon="8.008208492420014"><ele>245.75</ele><time>2026-04-26T10:06:09.001Z</time></trkpt><trkpt lat="45.41853883331499" lon="8.008051089927786"><ele>245.5</ele><time>2026-04-26T10:06:10.001Z</time></trkpt><trkpt lat="45.418600088123846" lon="8.007886406453853"><ele>245.25</ele><time>2026-04-26T10:06:11.001Z</time></trkpt><trkpt lat="45.41866176084326" lon="8.007726343870429"><ele>245.0</ele><time>2026-04-26T10:06:12.001Z</time></trkpt><trkpt lat="45.41872814507542" lon="8.0075629717629"><ele>244.5</ele><time>2026-04-26T10:06:13.001Z</time></trkpt><trkpt lat="45.41879989864114" lon="8.007403463374219"><ele>244.0</ele><time>2026-04-26T10:06:14.001Z</time></trkpt><trkpt lat="45.418877535388795" lon="8.007241090675675"><ele>243.5</ele><time>2026-04-26T10:06:15.001Z</time></trkpt><trkpt lat="45.41895471121399" lon="8.007078815654253"><ele>243.0</ele><time>2026-04-26T10:06:16.001Z</time></trkpt><trkpt lat="45.41903520541264" lon="8.006905729030237"><ele>242.33333333333331</ele><time>2026-04-26T10:06:17.001Z</time></trkpt><trkpt lat="45.419117746668" lon="8.006728240459996"><ele>241.66666666666666</ele><time>2026-04-26T10:06:18.001Z</time></trkpt><trkpt lat="45.419203101586845" lon="8.006544701738502"><ele>241.0</ele><time>2026-04-26T10:06:19.001Z</time></trkpt><trkpt lat="45.41929015503485" lon="8.00635717115152"><ele>240.66666666666666</ele><time>2026-04-26T10:06:20.001Z</time></trkpt><trkpt lat="45.41937991101712" lon="8.006160274647476"><ele>240.33333333333331</ele><time>2026-04-26T10:06:21.001Z</time></trkpt><trkpt lat="45.41945857506126" lon="8.005946245462784"><ele>240.0</ele><time>2026-04-26T10:06:22.001Z</time></trkpt><trkpt lat="45.419551178728995" lon="8.005741431378294"><ele>240.0</ele><time>2026-04-26T10:06:23.001Z</time></trkpt><trkpt lat="45.41964312512874" lon="8.005538041708048"><ele>240.0</ele><time>2026-04-26T10:06:24.001Z</time></trkpt><trkpt lat="45.419730560584476" lon="8.005338849415326"><ele>240.0</ele><time>2026-04-26T10:06:25.001Z</time></trkpt><trkpt lat="45.419829428067835" lon="8.005162967340226"><ele>239.5</ele><time>2026-04-26T10:06:26.001Z</time></trkpt><trkpt lat="45.41991310253874" lon="8.00498222086743"><ele>239.0</ele><time>2026-04-26T10:06:27.001Z</time></trkpt><trkpt lat="45.41999100369922" lon="8.004815764319265"><ele>238.5</ele><time>2026-04-26T10:06:28.001Z</time></trkpt><trkpt lat="45.42006423216235" lon="8.004665360205955"><ele>238.0</ele><time>2026-04-26T10:06:29.001Z</time></trkpt><trkpt lat="45.42013318907565" lon="8.004525110740264"><ele>238.0</ele><time>2026-04-26T10:06:30.001Z</time></trkpt><trkpt lat="45.42020418097841" lon="8.004403815941167"><ele>238.0</ele><time>2026-04-26T10:06:31.001Z</time></trkpt><trkpt lat="45.42029419026255" lon="8.004297232397631"><ele>238.0</ele><time>2026-04-26T10:06:32.001Z</time></trkpt><trkpt lat="45.420403415083136" lon="8.004220409846257"><ele>238.0</ele><time>2026-04-26T10:06:33.001Z</time></trkpt><trkpt lat="45.42051240921094" lon="8.004140260288704"><ele>238.0</ele><time>2026-04-26T10:06:34.001Z</time></trkpt><trkpt lat="45.420618979630405" lon="8.004062860732244"><ele>238.0</ele><time>2026-04-26T10:06:35.001Z</time></trkpt><trkpt lat="45.42071553386415" lon="8.003967652920972"><ele>238.0</ele><time>2026-04-26T10:06:36.001Z</time></trkpt><trkpt lat="45.42080268716417" lon="8.003848439140981"><ele>238.0</ele><time>2026-04-26T10:06:37.001Z</time></trkpt><trkpt lat="45.420876403546615" lon="8.00371142029278"><ele>238.0</ele><time>2026-04-26T10:06:38.001Z</time></trkpt><trkpt lat="45.42090907963626" lon="8.003524497747733"><ele>238.0</ele><time>2026-04-26T10:06:39.001Z</time></trkpt><trkpt lat="45.420945477861395" lon="8.003340664028048"><ele>238.0</ele><time>2026-04-26T10:06:40.001Z</time></trkpt><trkpt lat="45.42098792394023" lon="8.003155145560898"><ele>238.0</ele><time>2026-04-26T10:06:41.001Z</time></trkpt><trkpt lat="45.421018148397756" lon="8.002974743254128"><ele>238.2</ele><time>2026-04-26T10:06:42.001Z</time></trkpt><trkpt lat="45.42104610652935" lon="8.002806818354987"><ele>238.4</ele><time>2026-04-26T10:06:43.001Z</time></trkpt><trkpt lat="45.42107003333733" lon="8.002648828033582"><ele>238.59999999999997</ele><time>2026-04-26T10:06:44.001Z</time></trkpt><trkpt lat="45.421085384614784" lon="8.00249829316692"><ele>238.79999999999998</ele><time>2026-04-26T10:06:45.001Z</time></trkpt><trkpt lat="45.421084943822535" lon="8.002344399198602"><ele>239.0</ele><time>2026-04-26T10:06:46.001Z</time></trkpt><trkpt lat="45.42107798424922" lon="8.002190552507281"><ele>239.16666666666669</ele><time>2026-04-26T10:06:47.001Z</time></trkpt><trkpt lat="45.42107284782227" lon="8.002054275906055"><ele>239.33333333333334</ele><time>2026-04-26T10:06:48.001Z</time></trkpt><trkpt lat="45.42107113034223" lon="8.001954842893152"><ele>239.5</ele><time>2026-04-26T10:06:49.001Z</time></trkpt><trkpt lat="45.42104433785549" lon="8.001806057502574"><ele>239.66666666666669</ele><time>2026-04-26T10:06:51.001Z</time></trkpt><trkpt lat="45.42107494606972" lon="8.001672380756064"><ele>239.83333333333334</ele><time>2026-04-26T10:06:54.002Z</time></trkpt><trkpt lat="45.42115008609079" lon="8.001657170630114"><ele>240.0</ele><time>2026-04-26T10:06:55.002Z</time></trkpt><trkpt lat="45.42122418412799" lon="8.001586364868022"><ele>239.25</ele><time>2026-04-26T10:06:56.002Z</time></trkpt><trkpt lat="45.42132065621949" lon="8.00153006423031"><ele>238.5</ele><time>2026-04-26T10:06:57.002Z</time></trkpt><trkpt lat="45.421419620110235" lon="8.001478938062913"><ele>237.75</ele><time>2026-04-26T10:06:58Z</time></trkpt><trkpt lat="45.42152338858032" lon="8.001397253840732"><ele>237.0</ele><time>2026-04-26T10:06:59Z</time></trkpt><trkpt lat="45.42162061007129" lon="8.001282798866429"><ele>237.0</ele><time>2026-04-26T10:07:00Z</time></trkpt><trkpt lat="45.42173983692318" lon="8.001192282470166"><ele>237.0</ele><time>2026-04-26T10:07:01Z</time></trkpt><trkpt lat="45.421853929864525" lon="8.00107167645764"><ele>237.0</ele><time>2026-04-26T10:07:02Z</time></trkpt><trkpt lat="45.42196222323273" lon="8.000951183148763"><ele>237.0</ele><time>2026-04-26T10:07:03Z</time></trkpt><trkpt lat="45.422062001798814" lon="8.000837990223951"><ele>236.6</ele><time>2026-04-26T10:07:04Z</time></trkpt><trkpt lat="45.422156371194056" lon="8.000732965647975"><ele>236.2</ele><time>2026-04-26T10:07:05Z</time></trkpt><trkpt lat="45.4222397946378" lon="8.000642938682555"><ele>235.8</ele><time>2026-04-26T10:07:06Z</time></trkpt><trkpt lat="45.42231673711931" lon="8.00055576247303"><ele>235.4</ele><time>2026-04-26T10:07:07Z</time></trkpt><trkpt lat="45.422414652307076" lon="8.000516279793752"><ele>235.0</ele><time>2026-04-26T10:07:08Z</time></trkpt><trkpt lat="45.4225220609926" lon="8.000491795713321"><ele>235.0</ele><time>2026-04-26T10:07:09Z</time></trkpt><trkpt lat="45.42263340288646" lon="8.00045464784544"><ele>235.0</ele><time>2026-04-26T10:07:10Z</time></trkpt><trkpt lat="45.422746601686455" lon="8.00040221192589"><ele>235.0</ele><time>2026-04-26T10:07:11Z</time></trkpt><trkpt lat="45.422860329835856" lon="8.000343604965765"><ele>235.0</ele><time>2026-04-26T10:07:12Z</time></trkpt><trkpt lat="45.422972081353436" lon="8.000273990516904"><ele>234.75</ele><time>2026-04-26T10:07:13Z</time></trkpt><trkpt lat="45.4230808055626" lon="8.000192089923521"><ele>234.5</ele><time>2026-04-26T10:07:14Z</time></trkpt><trkpt lat="45.42318656911089" lon="8.000102323397414"><ele>234.25</ele><time>2026-04-26T10:07:15Z</time></trkpt><trkpt lat="45.42329196805124" lon="8.000008036891328"><ele>234.0</ele><time>2026-04-26T10:07:16Z</time></trkpt><trkpt lat="45.42339607706434" lon="7.999904051339649"><ele>234.0</ele><time>2026-04-26T10:07:17Z</time></trkpt><trkpt lat="45.423508413564804" lon="7.9998124976865945"><ele>234.0</ele><time>2026-04-26T10:07:18Z</time></trkpt><trkpt lat="45.42360918328584" lon="7.999691363684831"><ele>234.0</ele><time>2026-04-26T10:07:19Z</time></trkpt><trkpt lat="45.42370461069937" lon="7.999557464961322"><ele>234.0</ele><time>2026-04-26T10:07:20Z</time></trkpt><trkpt lat="45.42380014628367" lon="7.999411753742854"><ele>234.0</ele><time>2026-04-26T10:07:21Z</time></trkpt><trkpt lat="45.423889164169864" lon="7.9992716033237485"><ele>234.0</ele><time>2026-04-26T10:07:22Z</time></trkpt><trkpt lat="45.42396752743862" lon="7.999140984407079"><ele>234.0</ele><time>2026-04-26T10:07:23Z</time></trkpt><trkpt lat="45.42404190386082" lon="7.99901701094403"><ele>234.0</ele><time>2026-04-26T10:07:24Z</time></trkpt><trkpt lat="45.42410554772324" lon="7.9989109287313855"><ele>234.83333333333334</ele><time>2026-04-26T10:07:25Z</time></trkpt><trkpt lat="45.424157260832615" lon="7.998835215069366"><ele>235.66666666666669</ele><time>2026-04-26T10:07:26Z</time></trkpt><trkpt lat="45.42422644934453" lon="7.998734520244141"><ele>236.5</ele><time>2026-04-26T10:07:28Z</time></trkpt><trkpt lat="45.424285108517516" lon="7.9986551054423725"><ele>237.33333333333334</ele><time>2026-04-26T10:08:51.001Z</time></trkpt><trkpt lat="45.42434240221982" lon="7.998582158217913"><ele>238.16666666666669</ele><time>2026-04-26T10:08:53.002Z</time></trkpt><trkpt lat="45.42443274770988" lon="7.998639800666104"><ele>239.0</ele><time>2026-04-26T10:08:56.002Z</time></trkpt><trkpt lat="45.4244846476417" lon="7.99871199712314"><ele>239.0</ele><time>2026-04-26T10:08:57.002Z</time></trkpt><trkpt lat="45.42454139729971" lon="7.998780072444981"><ele>238.99999999999997</ele><time>2026-04-26T10:08:58.002Z</time></trkpt><trkpt lat="45.42460586518733" lon="7.998849634830374"><ele>238.99999999999997</ele><time>2026-04-26T10:08:59.002Z</time></trkpt><trkpt lat="45.424687413547716" lon="7.998928404291361"><ele>239.0</ele><time>2026-04-26T10:09:00.002Z</time></trkpt><trkpt lat="45.42477549714824" lon="7.999004536248454"><ele>239.0</ele><time>2026-04-26T10:09:01.002Z</time></trkpt><trkpt lat="45.424868238231454" lon="7.99907870290829"><ele>238.75</ele><time>2026-04-26T10:09:02.002Z</time></trkpt><trkpt lat="45.424966152068585" lon="7.999135235007719"><ele>238.5</ele><time>2026-04-26T10:09:03.002Z</time></trkpt><trkpt lat="45.42507080689307" lon="7.999183618036517"><ele>238.25</ele><time>2026-04-26T10:09:04.001Z</time></trkpt><trkpt lat="45.42518939096446" lon="7.999219895528835"><ele>238.0</ele><time>2026-04-26T10:09:05.001Z</time></trkpt><trkpt lat="45.425316789210875" lon="7.999240846763864"><ele>236.75</ele><time>2026-04-26T10:09:06.001Z</time></trkpt><trkpt lat="45.42545009628225" lon="7.999242836617379"><ele>235.5</ele><time>2026-04-26T10:09:07.001Z</time></trkpt><trkpt lat="45.42558907615656" lon="7.999240880394723"><ele>234.25</ele><time>2026-04-26T10:09:08.001Z</time></trkpt><trkpt lat="45.42572808604067" lon="7.999240129178678"><ele>233.0</ele><time>2026-04-26T10:09:09.001Z</time></trkpt><trkpt lat="45.42587100662749" lon="7.999240891674947"><ele>233.0</ele><time>2026-04-26T10:09:10.001Z</time></trkpt><trkpt lat="45.42601360257628" lon="7.999238830757046"><ele>233.0</ele><time>2026-04-26T10:09:11.001Z</time></trkpt><trkpt lat="45.426158150819916" lon="7.999230382155404"><ele>233.0</ele><time>2026-04-26T10:09:12.001Z</time></trkpt><trkpt lat="45.426295016214425" lon="7.999229440758526"><ele>233.0</ele><time>2026-04-26T10:09:13.001Z</time></trkpt><trkpt lat="45.4264215957403" lon="7.99923026261804"><ele>233.60000000000002</ele><time>2026-04-26T10:09:14.001Z</time></trkpt><trkpt lat="45.42654071472705" lon="7.999228776618805"><ele>234.20000000000002</ele><time>2026-04-26T10:09:15.001Z</time></trkpt><trkpt lat="45.42666012699869" lon="7.999213616165289"><ele>234.8</ele><time>2026-04-26T10:09:16.001Z</time></trkpt><trkpt lat="45.42676360572936" lon="7.999208374330339"><ele>235.4</ele><time>2026-04-26T10:09:17.001Z</time></trkpt><trkpt lat="45.42685823694141" lon="7.999204305068424"><ele>236.0</ele><time>2026-04-26T10:09:18.001Z</time></trkpt><trkpt lat="45.426959128182624" lon="7.9992026649928025"><ele>236.0</ele><time>2026-04-26T10:09:19.001Z</time></trkpt><trkpt lat="45.427074706199456" lon="7.999199794479533"><ele>236.0</ele><time>2026-04-26T10:09:20.001Z</time></trkpt><trkpt lat="45.42719939011821" lon="7.999200662634886"><ele>236.0</ele><time>2026-04-26T10:09:21.001Z</time></trkpt><trkpt lat="45.42733315961531" lon="7.999201763909056"><ele>236.0</ele><time>2026-04-26T10:09:22.001Z</time></trkpt><trkpt lat="45.42747939603738" lon="7.9991950403119585"><ele>235.33333333333334</ele><time>2026-04-26T10:09:23.001Z</time></trkpt><trkpt lat="45.42763278958345" lon="7.999185736984807"><ele>234.66666666666669</ele><time>2026-04-26T10:09:24.001Z</time></trkpt><trkpt lat="45.42779237609307" lon="7.999179751998635"><ele>234.0</ele><time>2026-04-26T10:09:25.001Z</time></trkpt><trkpt lat="45.42795919024742" lon="7.999174055274991"><ele>234.0</ele><time>2026-04-26T10:09:26.001Z</time></trkpt><trkpt lat="45.42812819706895" lon="7.999170040098914"><ele>234.0</ele><time>2026-04-26T10:09:27.001Z</time></trkpt><trkpt lat="45.428296337377986" lon="7.999164817551782"><ele>234.0</ele><time>2026-04-26T10:09:28.001Z</time></trkpt><trkpt lat="45.42847478570905" lon="7.999163753416176"><ele>234.0</ele><time>2026-04-26T10:09:29.001Z</time></trkpt><trkpt lat="45.42865737048027" lon="7.999159077072308"><ele>234.0</ele><time>2026-04-26T10:09:30.001Z</time></trkpt><trkpt lat="45.42884579190023" lon="7.99914733394753"><ele>234.0</ele><time>2026-04-26T10:09:31.001Z</time></trkpt><trkpt lat="45.42904020071424" lon="7.99913289816666"><ele>233.33333333333331</ele><time>2026-04-26T10:09:32.001Z</time></trkpt><trkpt lat="45.42923898826138" lon="7.999111672430617"><ele>232.66666666666666</ele><time>2026-04-26T10:09:33.001Z</time></trkpt><trkpt lat="45.42944296412027" lon="7.999078427312624"><ele>232.0</ele><time>2026-04-26T10:09:34.001Z</time></trkpt><trkpt lat="45.429651406770894" lon="7.999036901116183"><ele>232.0</ele><time>2026-04-26T10:09:35.001Z</time></trkpt><trkpt lat="45.429865489821644" lon="7.998989032701204"><ele>232.0</ele><time>2026-04-26T10:09:36.001Z</time></trkpt><trkpt lat="45.43008333219401" lon="7.998934283074495"><ele>232.0</ele><time>2026-04-26T10:09:37.001Z</time></trkpt><trkpt lat="45.43030353135929" lon="7.998876960396447"><ele>232.33333333333331</ele><time>2026-04-26T10:09:38.001Z</time></trkpt><trkpt lat="45.430530890129845" lon="7.998819213364888"><ele>232.66666666666669</ele><time>2026-04-26T10:09:39.001Z</time></trkpt><trkpt lat="45.43074520340941" lon="7.998762169933603"><ele>233.0</ele><time>2026-04-26T10:09:40.001Z</time></trkpt><trkpt lat="45.43096144235145" lon="7.998712387428086"><ele>233.0</ele><time>2026-04-26T10:09:41.001Z</time></trkpt><trkpt lat="45.43118314990039" lon="7.998658490029465"><ele>233.0</ele><time>2026-04-26T10:09:42.001Z</time></trkpt><trkpt lat="45.43140602487204" lon="7.998603242045629"><ele>233.0</ele><time>2026-04-26T10:09:43.001Z</time></trkpt><trkpt lat="45.43163016148791" lon="7.998552792003696"><ele>233.0</ele><time>2026-04-26T10:09:44.001Z</time></trkpt><trkpt lat="45.43185695721999" lon="7.998491864050653"><ele>233.0</ele><time>2026-04-26T10:09:45.001Z</time></trkpt><trkpt lat="45.43208600093533" lon="7.998436912395948"><ele>233.0</ele><time>2026-04-26T10:09:46.001Z</time></trkpt><trkpt lat="45.43231573127156" lon="7.998383655162395"><ele>232.5</ele><time>2026-04-26T10:09:47.001Z</time></trkpt><trkpt lat="45.432551662996076" lon="7.998324559086372"><ele>232.0</ele><time>2026-04-26T10:09:48.001Z</time></trkpt><trkpt lat="45.432787799341746" lon="7.998267995416187"><ele>233.0</ele><time>2026-04-26T10:09:49.001Z</time></trkpt><trkpt lat="45.433027410499314" lon="7.998213070225124"><ele>234.0</ele><time>2026-04-26T10:09:50.001Z</time></trkpt><trkpt lat="45.43326887952283" lon="7.998166488367871"><ele>234.0</ele><time>2026-04-26T10:09:51.001Z</time></trkpt><trkpt lat="45.43351391584029" lon="7.998129090737426"><ele>234.0</ele><time>2026-04-26T10:09:52.001Z</time></trkpt><trkpt lat="45.433756306417685" lon="7.998091767926247"><ele>233.5</ele><time>2026-04-26T10:09:53.001Z</time></trkpt><trkpt lat="45.43400826458912" lon="7.9980568020540055"><ele>233.0</ele><time>2026-04-26T10:09:54.001Z</time></trkpt><trkpt lat="45.43425726560641" lon="7.998022696604563"><ele>233.0</ele><time>2026-04-26T10:09:55.001Z</time></trkpt><trkpt lat="45.4345110962379" lon="7.997990846785242"><ele>233.0</ele><time>2026-04-26T10:09:56.001Z</time></trkpt><trkpt lat="45.43475982535166" lon="7.997953357213105"><ele>233.0</ele><time>2026-04-26T10:09:57.001Z</time></trkpt><trkpt lat="45.43500326546732" lon="7.997919633863869"><ele>233.0</ele><time>2026-04-26T10:09:58.001Z</time></trkpt><trkpt lat="45.43524268822093" lon="7.997886927014826"><ele>233.0</ele><time>2026-04-26T10:09:59.001Z</time></trkpt><trkpt lat="45.435480080957404" lon="7.9978546031188715"><ele>233.0</ele><time>2026-04-26T10:10:00.001Z</time></trkpt><trkpt lat="45.435706508976395" lon="7.9978253145556675"><ele>233.0</ele><time>2026-04-26T10:10:01.001Z</time></trkpt><trkpt lat="45.43592066597232" lon="7.997797952773695"><ele>233.0</ele><time>2026-04-26T10:10:02.001Z</time></trkpt><trkpt lat="45.43612936817734" lon="7.997777468274374"><ele>233.0</ele><time>2026-04-26T10:10:03.001Z</time></trkpt><trkpt lat="45.436339518814" lon="7.997767579684519"><ele>233.0</ele><time>2026-04-26T10:10:04.001Z</time></trkpt><trkpt lat="45.43655199546679" lon="7.997780225979907"><ele>233.0</ele><time>2026-04-26T10:10:05.001Z</time></trkpt><trkpt lat="45.436768876933876" lon="7.997812172084035"><ele>233.0</ele><time>2026-04-26T10:10:06.001Z</time></trkpt><trkpt lat="45.43698138050116" lon="7.997866054607232"><ele>233.33333333333334</ele><time>2026-04-26T10:10:07.001Z</time></trkpt><trkpt lat="45.437196943302425" lon="7.997939704933402"><ele>233.66666666666669</ele><time>2026-04-26T10:10:08.001Z</time></trkpt><trkpt lat="45.437407896427935" lon="7.998035447459168"><ele>234.0</ele><time>2026-04-26T10:10:09.001Z</time></trkpt><trkpt lat="45.437621603442345" lon="7.9981455852808905"><ele>234.0</ele><time>2026-04-26T10:10:10.001Z</time></trkpt><trkpt lat="45.43783068321631" lon="7.9982691728503825"><ele>234.0</ele><time>2026-04-26T10:10:11.001Z</time></trkpt><trkpt lat="45.4380410194707" lon="7.998397065035857"><ele>233.0</ele><time>2026-04-26T10:10:12.001Z</time></trkpt><trkpt lat="45.438252557272556" lon="7.99852212267162"><ele>232.0</ele><time>2026-04-26T10:10:13.001Z</time></trkpt><trkpt lat="45.4384631361587" lon="7.998644911839951"><ele>232.0</ele><time>2026-04-26T10:10:14.001Z</time></trkpt><trkpt lat="45.43867419442833" lon="7.998768724434733"><ele>232.0</ele><time>2026-04-26T10:10:15.001Z</time></trkpt><trkpt lat="45.43888649363835" lon="7.998893856200868"><ele>232.33333333333331</ele><time>2026-04-26T10:10:16.001Z</time></trkpt><trkpt lat="45.43909785014558" lon="7.999012868807141"><ele>232.66666666666669</ele><time>2026-04-26T10:10:17.001Z</time></trkpt><trkpt lat="45.43929739992983" lon="7.999132756262714"><ele>233.0</ele><time>2026-04-26T10:10:18.001Z</time></trkpt><trkpt lat="45.43948748875597" lon="7.999243993533734"><ele>233.0</ele><time>2026-04-26T10:10:19.001Z</time></trkpt><trkpt lat="45.43967729632788" lon="7.999354857214557"><ele>233.0</ele><time>2026-04-26T10:10:20.001Z</time></trkpt><trkpt lat="45.439863967437205" lon="7.999463957375911"><ele>233.0</ele><time>2026-04-26T10:10:21.001Z</time></trkpt><trkpt lat="45.4400491726876" lon="7.999572984112095"><ele>233.0</ele><time>2026-04-26T10:10:22.001Z</time></trkpt><trkpt lat="45.44023260591832" lon="7.999679399348856"><ele>233.0</ele><time>2026-04-26T10:10:23.001Z</time></trkpt><trkpt lat="45.44041622586822" lon="7.99978576749824"><ele>233.0</ele><time>2026-04-26T10:10:24.001Z</time></trkpt><trkpt lat="45.44059395707371" lon="7.999890094719338"><ele>233.33333333333334</ele><time>2026-04-26T10:10:25.001Z</time></trkpt><trkpt lat="45.44077608088475" lon="7.999995090207144"><ele>233.66666666666669</ele><time>2026-04-26T10:10:26.001Z</time></trkpt><trkpt lat="45.440951102796426" lon="8.000096917007113"><ele>234.0</ele><time>2026-04-26T10:10:27.001Z</time></trkpt><trkpt lat="45.44112531112321" lon="8.000199202805653"><ele>234.0</ele><time>2026-04-26T10:10:28.001Z</time></trkpt><trkpt lat="45.441290733231384" lon="8.000297235236577"><ele>234.0</ele><time>2026-04-26T10:10:29.001Z</time></trkpt><trkpt lat="45.44145068345453" lon="8.000388969894747"><ele>234.0</ele><time>2026-04-26T10:10:30.001Z</time></trkpt><trkpt lat="45.4416048163491" lon="8.000475602507588"><ele>234.33333333333331</ele><time>2026-04-26T10:10:31.001Z</time></trkpt><trkpt lat="45.44175894916762" lon="8.000561480624475"><ele>234.66666666666666</ele><time>2026-04-26T10:10:32.001Z</time></trkpt><trkpt lat="45.441913536295424" lon="8.00065735777717"><ele>235.0</ele><time>2026-04-26T10:10:33.001Z</time></trkpt><trkpt lat="45.442064596632996" lon="8.00075597764743"><ele>234.66666666666666</ele><time>2026-04-26T10:10:34.001Z</time></trkpt><trkpt lat="45.442214519339004" lon="8.000858005193805"><ele>234.33333333333331</ele><time>2026-04-26T10:10:35.001Z</time></trkpt><trkpt lat="45.4423624834806" lon="8.00096055869467"><ele>234.0</ele><time>2026-04-26T10:10:36.001Z</time></trkpt><trkpt lat="45.44250637814278" lon="8.001061871133198"><ele>234.0</ele><time>2026-04-26T10:10:37.001Z</time></trkpt><trkpt lat="45.44264091226896" lon="8.001155797870476"><ele>234.0</ele><time>2026-04-26T10:10:38.001Z</time></trkpt><trkpt lat="45.44276632513592" lon="8.001253545706199"><ele>234.0</ele><time>2026-04-26T10:10:39.001Z</time></trkpt><trkpt lat="45.442887855945735" lon="8.001341053988597"><ele>234.0</ele><time>2026-04-26T10:10:40.001Z</time></trkpt><trkpt lat="45.443001195026994" lon="8.001420327123641"><ele>234.2</ele><time>2026-04-26T10:10:41.001Z</time></trkpt><trkpt lat="45.44310365197082" lon="8.001491101820367"><ele>234.39999999999998</ele><time>2026-04-26T10:10:42.001Z</time></trkpt><trkpt lat="45.44320283323865" lon="8.001557491017774"><ele>234.6</ele><time>2026-04-26T10:10:43.001Z</time></trkpt><trkpt lat="45.4432948985856" lon="8.00161862261746"><ele>234.8</ele><time>2026-04-26T10:10:44.001Z</time></trkpt><trkpt lat="45.44337034794959" lon="8.001686743439505"><ele>235.0</ele><time>2026-04-26T10:10:45.001Z</time></trkpt><trkpt lat="45.4434478311089" lon="8.001742525455981"><ele>235.16666666666666</ele><time>2026-04-26T10:10:46.001Z</time></trkpt><trkpt lat="45.443511610757255" lon="8.001778491468711"><ele>235.33333333333331</ele><time>2026-04-26T10:10:47.001Z</time></trkpt><trkpt lat="45.44359172821996" lon="8.001844527594907"><ele>235.5</ele><time>2026-04-26T10:10:49.001Z</time></trkpt><trkpt lat="45.44364955268322" lon="8.001880162714587"><ele>235.66666666666669</ele><time>2026-04-26T10:10:52.001Z</time></trkpt><trkpt lat="45.443750820189315" lon="8.001923880584512"><ele>235.83333333333334</ele><time>2026-04-26T10:11:20.001Z</time></trkpt><trkpt lat="45.4437980240333" lon="8.001984672799267"><ele>236.0</ele><time>2026-04-26T10:11:22.001Z</time></trkpt><trkpt lat="45.443874830231096" lon="8.002016008635895"><ele>236.0</ele><time>2026-04-26T10:11:24.001Z</time></trkpt><trkpt lat="45.44397127431434" lon="8.001800479321409"><ele>236.00000000000003</ele><time>2026-04-26T10:11:25.001Z</time></trkpt><trkpt lat="45.44402655411919" lon="8.001696748044216"><ele>236.00000000000003</ele><time>2026-04-26T10:11:26.001Z</time></trkpt><trkpt lat="45.44406662145937" lon="8.001597735672293"><ele>236.0</ele><time>2026-04-26T10:11:27.001Z</time></trkpt><trkpt lat="45.44410501482849" lon="8.00150012043995"><ele>236.0</ele><time>2026-04-26T10:11:28.001Z</time></trkpt><trkpt lat="45.4441632141632" lon="8.001411799209015"><ele>236.0</ele><time>2026-04-26T10:11:29.001Z</time></trkpt><trkpt lat="45.44421140620303" lon="8.001285741307047"><ele>236.0</ele><time>2026-04-26T10:11:30.001Z</time></trkpt><trkpt lat="45.444288345172644" lon="8.001133323456612"><ele>236.0</ele><time>2026-04-26T10:11:31.001Z</time></trkpt><trkpt lat="45.44437754094373" lon="8.000973499925"><ele>236.0</ele><time>2026-04-26T10:11:32.001Z</time></trkpt><trkpt lat="45.44446765835164" lon="8.000810442339466"><ele>235.33333333333334</ele><time>2026-04-26T10:11:33.001Z</time></trkpt><trkpt lat="45.44456683384064" lon="8.000634594178713"><ele>234.66666666666669</ele><time>2026-04-26T10:11:34.001Z</time></trkpt><trkpt lat="45.44467225790737" lon="8.000445204206457"><ele>234.0</ele><time>2026-04-26T10:11:35.001Z</time></trkpt><trkpt lat="45.44477642278254" lon="8.000241427598201"><ele>234.0</ele><time>2026-04-26T10:11:36.001Z</time></trkpt><trkpt lat="45.444878864725865" lon="8.000034936777169"><ele>234.0</ele><time>2026-04-26T10:11:37.001Z</time></trkpt><trkpt lat="45.44498206367011" lon="7.9998280610401595"><ele>234.0</ele><time>2026-04-26T10:11:38.001Z</time></trkpt><trkpt lat="45.44509047835095" lon="7.999610183336824"><ele>234.0</ele><time>2026-04-26T10:11:39.001Z</time></trkpt><trkpt lat="45.44520395089476" lon="7.9993870684113615"><ele>234.0</ele><time>2026-04-26T10:11:40.001Z</time></trkpt><trkpt lat="45.44532277691352" lon="7.999160227764311"><ele>234.0</ele><time>2026-04-26T10:11:41.001Z</time></trkpt><trkpt lat="45.44543959383725" lon="7.998931380943729"><ele>233.66666666666669</ele><time>2026-04-26T10:11:42.001Z</time></trkpt><trkpt lat="45.4455554649078" lon="7.998703476862014"><ele>233.33333333333334</ele><time>2026-04-26T10:11:43.001Z</time></trkpt><trkpt lat="45.44567055672514" lon="7.998473466178038"><ele>233.0</ele><time>2026-04-26T10:11:44.001Z</time></trkpt><trkpt lat="45.445786270569485" lon="7.998238857633577"><ele>233.0</ele><time>2026-04-26T10:11:45.001Z</time></trkpt><trkpt lat="45.44590486728685" lon="7.998003153380845"><ele>233.0</ele><time>2026-04-26T10:11:46.001Z</time></trkpt><trkpt lat="45.44602038621264" lon="7.997763720830082"><ele>233.0</ele><time>2026-04-26T10:11:47.001Z</time></trkpt><trkpt lat="45.446144042269424" lon="7.997518741090337"><ele>233.0</ele><time>2026-04-26T10:11:48.001Z</time></trkpt><trkpt lat="45.446268198048095" lon="7.997271451687104"><ele>233.0</ele><time>2026-04-26T10:11:49.001Z</time></trkpt><trkpt lat="45.44639173545638" lon="7.997023930163498"><ele>233.0</ele><time>2026-04-26T10:11:50.001Z</time></trkpt><trkpt lat="45.44651811791613" lon="7.996769742448905"><ele>233.33333333333334</ele><time>2026-04-26T10:11:51.001Z</time></trkpt><trkpt lat="45.446645907369565" lon="7.9965139587748935"><ele>233.66666666666669</ele><time>2026-04-26T10:11:52.001Z</time></trkpt><trkpt lat="45.44677457452137" lon="7.996254438746474"><ele>234.0</ele><time>2026-04-26T10:11:53.001Z</time></trkpt><trkpt lat="45.446906430283114" lon="7.995993869791664"><ele>234.0</ele><time>2026-04-26T10:11:54.001Z</time></trkpt><trkpt lat="45.44703517334524" lon="7.995737320094607"><ele>234.0</ele><time>2026-04-26T10:11:55.001Z</time></trkpt><trkpt lat="45.44716480008271" lon="7.995477879577151"><ele>234.0</ele><time>2026-04-26T10:11:56.001Z</time></trkpt><trkpt lat="45.44729482736698" lon="7.995217510984265"><ele>234.0</ele><time>2026-04-26T10:11:57.001Z</time></trkpt><trkpt lat="45.44742658142857" lon="7.994956647167357"><ele>234.0</ele><time>2026-04-26T10:11:58.001Z</time></trkpt><trkpt lat="45.4475571146777" lon="7.994690992933843"><ele>234.0</ele><time>2026-04-26T10:11:59.001Z</time></trkpt><trkpt lat="45.447692180123106" lon="7.994425133996518"><ele>234.0</ele><time>2026-04-26T10:12:00.001Z</time></trkpt><trkpt lat="45.447827785550494" lon="7.994157630104603"><ele>234.0</ele><time>2026-04-26T10:12:01.001Z</time></trkpt><trkpt lat="45.44796722841795" lon="7.993885660356618"><ele>234.0</ele><time>2026-04-26T10:12:02.001Z</time></trkpt><trkpt lat="45.44810576779562" lon="7.993611474242044"><ele>234.0</ele><time>2026-04-26T10:12:03.001Z</time></trkpt><trkpt lat="45.44824421978129" lon="7.993334883212506"><ele>234.0</ele><time>2026-04-26T10:12:04.001Z</time></trkpt><trkpt lat="45.44837858572914" lon="7.993066480304052"><ele>234.0</ele><time>2026-04-26T10:12:05.001Z</time></trkpt><trkpt lat="45.44851274063123" lon="7.992802415374158"><ele>234.0</ele><time>2026-04-26T10:12:06.001Z</time></trkpt><trkpt lat="45.44864888114392" lon="7.992534412623478"><ele>234.0</ele><time>2026-04-26T10:12:07.001Z</time></trkpt><trkpt lat="45.448782086781854" lon="7.992263688494174"><ele>234.0</ele><time>2026-04-26T10:12:08.001Z</time></trkpt><trkpt lat="45.44891810083128" lon="7.991992254616438"><ele>234.0</ele><time>2026-04-26T10:12:09.001Z</time></trkpt><trkpt lat="45.44905335046519" lon="7.9917202001659575"><ele>234.0</ele><time>2026-04-26T10:12:10.001Z</time></trkpt><trkpt lat="45.44919196930938" lon="7.991447433425942"><ele>233.5</ele><time>2026-04-26T10:12:11.001Z</time></trkpt><trkpt lat="45.449330208866044" lon="7.991172861635184"><ele>233.0</ele><time>2026-04-26T10:12:12.001Z</time></trkpt><trkpt lat="45.44946768075114" lon="7.9908941139028515"><ele>233.5</ele><time>2026-04-26T10:12:13.001Z</time></trkpt><trkpt lat="45.449607685855085" lon="7.990609800265648"><ele>234.0</ele><time>2026-04-26T10:12:14.001Z</time></trkpt><trkpt lat="45.44975116492484" lon="7.990324459897474"><ele>234.0</ele><time>2026-04-26T10:12:15.001Z</time></trkpt><trkpt lat="45.4498961711138" lon="7.990042689044058"><ele>234.0</ele><time>2026-04-26T10:12:16.001Z</time></trkpt><trkpt lat="45.45004122184661" lon="7.9897599579233844"><ele>234.0</ele><time>2026-04-26T10:12:17.001Z</time></trkpt><trkpt lat="45.45018645642197" lon="7.989476850865555"><ele>234.0</ele><time>2026-04-26T10:12:18.001Z</time></trkpt><trkpt lat="45.4503303213736" lon="7.989186661475855"><ele>234.0</ele><time>2026-04-26T10:12:19.001Z</time></trkpt><trkpt lat="45.45047355232347" lon="7.988895566058185"><ele>234.0</ele><time>2026-04-26T10:12:20.001Z</time></trkpt><trkpt lat="45.450615660854986" lon="7.988603075441005"><ele>234.5</ele><time>2026-04-26T10:12:21.001Z</time></trkpt><trkpt lat="45.45075915302854" lon="7.98831161349495"><ele>235.0</ele><time>2026-04-26T10:12:22.001Z</time></trkpt><trkpt lat="45.45090602656094" lon="7.9880202791773405"><ele>235.0</ele><time>2026-04-26T10:12:23.001Z</time></trkpt><trkpt lat="45.4510524137675" lon="7.987729490937436"><ele>235.0</ele><time>2026-04-26T10:12:24.001Z</time></trkpt><trkpt lat="45.4511985537355" lon="7.9874382544430045"><ele>235.5</ele><time>2026-04-26T10:12:25.001Z</time></trkpt><trkpt lat="45.45134521465525" lon="7.9871485491167675"><ele>236.0</ele><time>2026-04-26T10:12:26.001Z</time></trkpt><trkpt lat="45.45149233583292" lon="7.9868548728699675"><ele>236.0</ele><time>2026-04-26T10:12:27.001Z</time></trkpt><trkpt lat="45.451638125880585" lon="7.986563705192455"><ele>236.0</ele><time>2026-04-26T10:12:28.001Z</time></trkpt><trkpt lat="45.45178508645767" lon="7.9862697848885595"><ele>236.0</ele><time>2026-04-26T10:12:29.001Z</time></trkpt><trkpt lat="45.451928930315404" lon="7.985974859813877"><ele>236.0</ele><time>2026-04-26T10:12:30.001Z</time></trkpt><trkpt lat="45.45207302163664" lon="7.985679639585237"><ele>235.0</ele><time>2026-04-26T10:12:31.001Z</time></trkpt><trkpt lat="45.45221955751501" lon="7.985383258761749"><ele>234.0</ele><time>2026-04-26T10:12:32.001Z</time></trkpt><trkpt lat="45.45236647595675" lon="7.985093837824565"><ele>234.0</ele><time>2026-04-26T10:12:33.001Z</time></trkpt><trkpt lat="45.45251529604951" lon="7.984810482713325"><ele>234.0</ele><time>2026-04-26T10:12:34.001Z</time></trkpt><trkpt lat="45.452656522480666" lon="7.984527683597891"><ele>234.0</ele><time>2026-04-26T10:12:35.001Z</time></trkpt><trkpt lat="45.45279883504181" lon="7.984247264174327"><ele>234.0</ele><time>2026-04-26T10:12:36.001Z</time></trkpt><trkpt lat="45.45293911472515" lon="7.983968445241507"><ele>234.0</ele><time>2026-04-26T10:12:37.001Z</time></trkpt><trkpt lat="45.453081037400196" lon="7.983691709513474"><ele>234.0</ele><time>2026-04-26T10:12:38.001Z</time></trkpt><trkpt lat="45.45321945074849" lon="7.983420482217808"><ele>234.0</ele><time>2026-04-26T10:12:39.001Z</time></trkpt><trkpt lat="45.45335391180789" lon="7.983147948388524"><ele>234.0</ele><time>2026-04-26T10:12:40.001Z</time></trkpt><trkpt lat="45.453485375957634" lon="7.982878611253121"><ele>234.0</ele><time>2026-04-26T10:12:41.001Z</time></trkpt><trkpt lat="45.45361816838892" lon="7.982611265747949"><ele>234.0</ele><time>2026-04-26T10:12:42.001Z</time></trkpt><trkpt lat="45.45375169883194" lon="7.982346606568888"><ele>234.0</ele><time>2026-04-26T10:12:43.001Z</time></trkpt><trkpt lat="45.45388637697854" lon="7.982085151134192"><ele>234.0</ele><time>2026-04-26T10:12:44.001Z</time></trkpt><trkpt lat="45.454016203674264" lon="7.981826197644327"><ele>234.0</ele><time>2026-04-26T10:12:45.001Z</time></trkpt><trkpt lat="45.45414357186509" lon="7.981563702106684"><ele>234.0</ele><time>2026-04-26T10:12:46.001Z</time></trkpt><trkpt lat="45.45427174167762" lon="7.981300487110329"><ele>234.0</ele><time>2026-04-26T10:12:47.001Z</time></trkpt><trkpt lat="45.45440403796427" lon="7.981038533084777"><ele>234.0</ele><time>2026-04-26T10:12:48.001Z</time></trkpt><trkpt lat="45.4545280209318" lon="7.980790152932623"><ele>234.0</ele><time>2026-04-26T10:12:49.001Z</time></trkpt><trkpt lat="45.45464638444688" lon="7.980554474668907"><ele>234.0</ele><time>2026-04-26T10:12:50.001Z</time></trkpt><trkpt lat="45.45475855783144" lon="7.9803323095645595"><ele>234.33333333333331</ele><time>2026-04-26T10:12:51.001Z</time></trkpt><trkpt lat="45.45486713046673" lon="7.980116418017255"><ele>234.66666666666666</ele><time>2026-04-26T10:12:52.001Z</time></trkpt><trkpt lat="45.454967228495306" lon="7.979919234970919"><ele>235.0</ele><time>2026-04-26T10:12:53.001Z</time></trkpt><trkpt lat="45.45505574404993" lon="7.979745413594902"><ele>235.2</ele><time>2026-04-26T10:12:54.001Z</time></trkpt><trkpt lat="45.45513099043149" lon="7.979593203563117"><ele>235.4</ele><time>2026-04-26T10:12:55.001Z</time></trkpt><trkpt lat="45.45519605603594" lon="7.979460334262779"><ele>235.60000000000002</ele><time>2026-04-26T10:12:56.001Z</time></trkpt><trkpt lat="45.455255493244856" lon="7.979335545312155"><ele>235.8</ele><time>2026-04-26T10:12:57.001Z</time></trkpt><trkpt lat="45.455307681122186" lon="7.9792288845872665"><ele>236.0</ele><time>2026-04-26T10:12:58.001Z</time></trkpt><trkpt lat="45.45535557216294" lon="7.979132748880762"><ele>236.00000000000003</ele><time>2026-04-26T10:12:59.001Z</time></trkpt><trkpt lat="45.455399617882" lon="7.979042056288987"><ele>236.0</ele><time>2026-04-26T10:13:00.001Z</time></trkpt><trkpt lat="45.45543960841791" lon="7.978962433520087"><ele>236.0</ele><time>2026-04-26T10:13:01.001Z</time></trkpt><trkpt lat="45.45547764028866" lon="7.978890097322803"><ele>236.0</ele><time>2026-04-26T10:13:02.001Z</time></trkpt><trkpt lat="45.45553491794125" lon="7.97877567379103"><ele>236.00000000000003</ele><time>2026-04-26T10:13:04.001Z</time></trkpt><trkpt lat="45.455577984226814" lon="7.978684319259451"><ele>236.0</ele><time>2026-04-26T10:13:06.001Z</time></trkpt><trkpt lat="45.45561948915278" lon="7.978604249476094"><ele>236.00000000000003</ele><time>2026-04-26T10:13:09.001Z</time></trkpt><trkpt lat="45.45567188661416" lon="7.978490776059942"><ele>236.0</ele><time>2026-04-26T10:13:26.001Z</time></trkpt><trkpt lat="45.45571102557899" lon="7.978414894542397"><ele>236.0</ele><time>2026-04-26T10:13:27.001Z</time></trkpt><trkpt lat="45.455756201479076" lon="7.978316860348242"><ele>236.0</ele><time>2026-04-26T10:13:28.001Z</time></trkpt><trkpt lat="45.455811836573446" lon="7.978205147952976"><ele>236.00000000000003</ele><time>2026-04-26T10:13:29.001Z</time></trkpt><trkpt lat="45.455867511858195" lon="7.978094551923428"><ele>236.0</ele><time>2026-04-26T10:13:30.001Z</time></trkpt><trkpt lat="45.45593023751238" lon="7.977961804521162"><ele>236.25</ele><time>2026-04-26T10:13:31.001Z</time></trkpt><trkpt lat="45.45599819523555" lon="7.977814936471537"><ele>236.5</ele><time>2026-04-26T10:13:32.001Z</time></trkpt><trkpt lat="45.45607122768893" lon="7.977667996010103"><ele>236.75</ele><time>2026-04-26T10:13:33.001Z</time></trkpt><trkpt lat="45.456144866402994" lon="7.977524910891564"><ele>237.0</ele><time>2026-04-26T10:13:34.001Z</time></trkpt><trkpt lat="45.45622092992244" lon="7.977372673306116"><ele>237.0</ele><time>2026-04-26T10:13:35.001Z</time></trkpt><trkpt lat="45.456297760568496" lon="7.977223064138931"><ele>237.0</ele><time>2026-04-26T10:13:36.001Z</time></trkpt><trkpt lat="45.456370786473435" lon="7.977066887808633"><ele>237.0</ele><time>2026-04-26T10:13:37.001Z</time></trkpt><trkpt lat="45.456448004117526" lon="7.976914744436427"><ele>237.0</ele><time>2026-04-26T10:13:38.001Z</time></trkpt><trkpt lat="45.456523769906276" lon="7.9767617080211695"><ele>236.75</ele><time>2026-04-26T10:13:39.001Z</time></trkpt><trkpt lat="45.4565997749771" lon="7.976608316195148"><ele>236.5</ele><time>2026-04-26T10:13:40.001Z</time></trkpt><trkpt lat="45.456675165337224" lon="7.9764511144369346"><ele>236.25</ele><time>2026-04-26T10:13:41.001Z</time></trkpt><trkpt lat="45.456754428574435" lon="7.976296535309885"><ele>236.0</ele><time>2026-04-26T10:13:42.001Z</time></trkpt><trkpt lat="45.45683592749734" lon="7.9761395525890135"><ele>236.0</ele><time>2026-04-26T10:13:43.001Z</time></trkpt><trkpt lat="45.456917913018216" lon="7.975981032725702"><ele>236.0</ele><time>2026-04-26T10:13:44.001Z</time></trkpt><trkpt lat="45.45699806114828" lon="7.975820132287891"><ele>236.0</ele><time>2026-04-26T10:13:45.001Z</time></trkpt><trkpt lat="45.457076638366885" lon="7.975659636686961"><ele>236.0</ele><time>2026-04-26T10:13:46.001Z</time></trkpt><trkpt lat="45.4571517250119" lon="7.975503927563428"><ele>236.0</ele><time>2026-04-26T10:13:47.001Z</time></trkpt><trkpt lat="45.45722314049877" lon="7.975355682379194"><ele>236.00000000000003</ele><time>2026-04-26T10:13:48.001Z</time></trkpt><trkpt lat="45.45728601091614" lon="7.975221049582201"><ele>236.00000000000003</ele><time>2026-04-26T10:13:49.001Z</time></trkpt><trkpt lat="45.45734668688584" lon="7.975094211867787"><ele>236.0</ele><time>2026-04-26T10:13:50.001Z</time></trkpt><trkpt lat="45.45739800734982" lon="7.974978118351567"><ele>236.0</ele><time>2026-04-26T10:13:51.001Z</time></trkpt><trkpt lat="45.45744171158568" lon="7.9748832100029485"><ele>235.60000000000002</ele><time>2026-04-26T10:13:52.001Z</time></trkpt><trkpt lat="45.45749166683972" lon="7.974800106206085"><ele>235.20000000000002</ele><time>2026-04-26T10:13:53.001Z</time></trkpt><trkpt lat="45.45755646813464" lon="7.974728787792753"><ele>234.79999999999998</ele><time>2026-04-26T10:13:54.001Z</time></trkpt><trkpt lat="45.457622601324324" lon="7.974654737651952"><ele>234.39999999999998</ele><time>2026-04-26T10:13:55.001Z</time></trkpt><trkpt lat="45.45767484051123" lon="7.974543390863099"><ele>234.0</ele><time>2026-04-26T10:13:56.001Z</time></trkpt><trkpt lat="45.45771622018759" lon="7.974393384108652"><ele>234.0</ele><time>2026-04-26T10:13:57.001Z</time></trkpt><trkpt lat="45.4577729350456" lon="7.9742371632327504"><ele>234.0</ele><time>2026-04-26T10:13:58.001Z</time></trkpt><trkpt lat="45.45785390778115" lon="7.974072671329511"><ele>234.0</ele><time>2026-04-26T10:13:59.001Z</time></trkpt><trkpt lat="45.457949186886694" lon="7.973893672263522"><ele>234.0</ele><time>2026-04-26T10:14:00.001Z</time></trkpt><trkpt lat="45.45804443246886" lon="7.97371593046473"><ele>234.0</ele><time>2026-04-26T10:14:01.001Z</time></trkpt><trkpt lat="45.45813855613977" lon="7.973532967732626"><ele>234.0</ele><time>2026-04-26T10:14:02.001Z</time></trkpt><trkpt lat="45.458234736268395" lon="7.973337892910024"><ele>234.0</ele><time>2026-04-26T10:14:03.001Z</time></trkpt><trkpt lat="45.45833328440196" lon="7.973135760109046"><ele>234.0</ele><time>2026-04-26T10:14:04.001Z</time></trkpt><trkpt lat="45.458437123326526" lon="7.972925397222152"><ele>234.0</ele><time>2026-04-26T10:14:05.001Z</time></trkpt><trkpt lat="45.45854585427906" lon="7.972711654720145"><ele>234.0</ele><time>2026-04-26T10:14:06.001Z</time></trkpt><trkpt lat="45.45864949618383" lon="7.972505931355401"><ele>234.33333333333331</ele><time>2026-04-26T10:14:07.001Z</time></trkpt><trkpt lat="45.4587596888985" lon="7.972286045486988"><ele>234.66666666666666</ele><time>2026-04-26T10:14:08.001Z</time></trkpt><trkpt lat="45.45887161972846" lon="7.972060006085798"><ele>235.0</ele><time>2026-04-26T10:14:09.001Z</time></trkpt><trkpt lat="45.458986250153515" lon="7.971825196361157"><ele>235.0</ele><time>2026-04-26T10:14:10.001Z</time></trkpt><trkpt lat="45.45910602286451" lon="7.971584872214866"><ele>235.0</ele><time>2026-04-26T10:14:11.001Z</time></trkpt><trkpt lat="45.459227169376284" lon="7.971339371271424"><ele>235.0</ele><time>2026-04-26T10:14:12.001Z</time></trkpt><trkpt lat="45.45934615956612" lon="7.971098390131701"><ele>235.0</ele><time>2026-04-26T10:14:13.001Z</time></trkpt><trkpt lat="45.45946981666373" lon="7.970858519996118"><ele>235.0</ele><time>2026-04-26T10:14:14.001Z</time></trkpt><trkpt lat="45.45959770696776" lon="7.970610928893273"><ele>235.0</ele><time>2026-04-26T10:14:15.001Z</time></trkpt><trkpt lat="45.45972504328434" lon="7.970359383318789"><ele>235.0</ele><time>2026-04-26T10:14:16.001Z</time></trkpt><trkpt lat="45.459850346557225" lon="7.970099526737801"><ele>235.0</ele><time>2026-04-26T10:14:17.001Z</time></trkpt><trkpt lat="45.45997765514766" lon="7.96983460113485"><ele>235.0</ele><time>2026-04-26T10:14:18.001Z</time></trkpt><trkpt lat="45.46011018653272" lon="7.969569477352428"><ele>235.0</ele><time>2026-04-26T10:14:19.001Z</time></trkpt><trkpt lat="45.46024459844524" lon="7.9693046539297345"><ele>235.0</ele><time>2026-04-26T10:14:20.001Z</time></trkpt><trkpt lat="45.46038250896091" lon="7.969035470370667"><ele>236.0</ele><time>2026-04-26T10:14:21.001Z</time></trkpt><trkpt lat="45.46052085172279" lon="7.968766078569793"><ele>237.0</ele><time>2026-04-26T10:14:22.001Z</time></trkpt><trkpt lat="45.46065916854412" lon="7.968491878353427"><ele>237.0</ele><time>2026-04-26T10:14:23.001Z</time></trkpt><trkpt lat="45.46079486476813" lon="7.968216751012476"><ele>237.0</ele><time>2026-04-26T10:14:24.001Z</time></trkpt><trkpt lat="45.46093035097061" lon="7.967939987742295"><ele>237.0</ele><time>2026-04-26T10:14:25.001Z</time></trkpt><trkpt lat="45.46106722855883" lon="7.967664008597022"><ele>237.0</ele><time>2026-04-26T10:14:26.001Z</time></trkpt><trkpt lat="45.46120404179095" lon="7.967386612438641"><ele>236.0</ele><time>2026-04-26T10:14:27.001Z</time></trkpt><trkpt lat="45.46134385245525" lon="7.967110814114812"><ele>235.0</ele><time>2026-04-26T10:14:28.001Z</time></trkpt><trkpt lat="45.461482394776745" lon="7.966832736772509"><ele>235.5</ele><time>2026-04-26T10:14:29.001Z</time></trkpt><trkpt lat="45.46161952206953" lon="7.966554873097065"><ele>236.0</ele><time>2026-04-26T10:14:30.001Z</time></trkpt><trkpt lat="45.46175805216105" lon="7.966281713804932"><ele>236.0</ele><time>2026-04-26T10:14:31.001Z</time></trkpt><trkpt lat="45.46189499322788" lon="7.966004580149191"><ele>236.0</ele><time>2026-04-26T10:14:32.001Z</time></trkpt><trkpt lat="45.462031920936866" lon="7.965727856113582"><ele>235.5</ele><time>2026-04-26T10:14:33.001Z</time></trkpt><trkpt lat="45.46216898943588" lon="7.965455152209506"><ele>235.0</ele><time>2026-04-26T10:14:34.001Z</time></trkpt><trkpt lat="45.46230965454272" lon="7.965181720502154"><ele>235.5</ele><time>2026-04-26T10:14:35.001Z</time></trkpt><trkpt lat="45.46245194569486" lon="7.964908010589528"><ele>236.0</ele><time>2026-04-26T10:14:36.001Z</time></trkpt><trkpt lat="45.46259450939892" lon="7.96463240464693"><ele>236.0</ele><time>2026-04-26T10:14:37.001Z</time></trkpt><trkpt lat="45.46273750745825" lon="7.964353863891703"><ele>236.0</ele><time>2026-04-26T10:14:38.001Z</time></trkpt><trkpt lat="45.46287505041415" lon="7.964073280898256"><ele>236.5</ele><time>2026-04-26T10:14:39.001Z</time></trkpt><trkpt lat="45.463014201263114" lon="7.963791480912429"><ele>237.0</ele><time>2026-04-26T10:14:40.001Z</time></trkpt><trkpt lat="45.463154511074464" lon="7.963509951632589"><ele>237.0</ele><time>2026-04-26T10:14:41.001Z</time></trkpt><trkpt lat="45.46329385423603" lon="7.963228685132771"><ele>237.0</ele><time>2026-04-26T10:14:42.001Z</time></trkpt><trkpt lat="45.463430329027126" lon="7.962953095388839"><ele>237.0</ele><time>2026-04-26T10:14:43.001Z</time></trkpt><trkpt lat="45.463563415984616" lon="7.962685997638193"><ele>237.0</ele><time>2026-04-26T10:14:44.001Z</time></trkpt><trkpt lat="45.46369416734992" lon="7.9624240754951465"><ele>237.0</ele><time>2026-04-26T10:14:45.001Z</time></trkpt><trkpt lat="45.46382534648842" lon="7.962165312277927"><ele>237.0</ele><time>2026-04-26T10:14:46.001Z</time></trkpt><trkpt lat="45.46395624843612" lon="7.961905762649882"><ele>237.0</ele><time>2026-04-26T10:14:47.001Z</time></trkpt><trkpt lat="45.46408674169952" lon="7.961646535064964"><ele>237.0</ele><time>2026-04-26T10:14:48.001Z</time></trkpt><trkpt lat="45.464215883579485" lon="7.961391614705616"><ele>237.0</ele><time>2026-04-26T10:14:49.001Z</time></trkpt><trkpt lat="45.46434683202939" lon="7.96113118545002"><ele>237.0</ele><time>2026-04-26T10:14:50.001Z</time></trkpt><trkpt lat="45.46447749273515" lon="7.960872429206695"><ele>237.0</ele><time>2026-04-26T10:14:51.001Z</time></trkpt><trkpt lat="45.46460936637973" lon="7.9606144936425665"><ele>237.0</ele><time>2026-04-26T10:14:52.001Z</time></trkpt><trkpt lat="45.464740689975066" lon="7.960352083217902"><ele>238.5</ele><time>2026-04-26T10:14:53.001Z</time></trkpt><trkpt lat="45.46487093052013" lon="7.960088076669824"><ele>240.0</ele><time>2026-04-26T10:14:54.001Z</time></trkpt><trkpt lat="45.465002397945845" lon="7.959821237106546"><ele>240.0</ele><time>2026-04-26T10:14:55.001Z</time></trkpt><trkpt lat="45.46513367349214" lon="7.959555499526623"><ele>240.0</ele><time>2026-04-26T10:14:56.001Z</time></trkpt><trkpt lat="45.46526895979115" lon="7.959289503985959"><ele>239.5</ele><time>2026-04-26T10:14:57.001Z</time></trkpt><trkpt lat="45.46540461896538" lon="7.959022670453811"><ele>239.0</ele><time>2026-04-26T10:14:58.001Z</time></trkpt><trkpt lat="45.46554142389338" lon="7.95875210587677"><ele>239.5</ele><time>2026-04-26T10:14:59.001Z</time></trkpt><trkpt lat="45.465678955306515" lon="7.958481872749422"><ele>240.0</ele><time>2026-04-26T10:15:00.001Z</time></trkpt><trkpt lat="45.46581666803773" lon="7.958211344440719"><ele>240.0</ele><time>2026-04-26T10:15:01.001Z</time></trkpt><trkpt lat="45.465955078318956" lon="7.957935940878132"><ele>240.0</ele><time>2026-04-26T10:15:02.001Z</time></trkpt><trkpt lat="45.46609375384634" lon="7.957657925548257"><ele>240.5</ele><time>2026-04-26T10:15:03.001Z</time></trkpt><trkpt lat="45.46623112189475" lon="7.9573793053392015"><ele>241.0</ele><time>2026-04-26T10:15:04.001Z</time></trkpt><trkpt lat="45.4663700442693" lon="7.957094486080766"><ele>241.0</ele><time>2026-04-26T10:15:05.001Z</time></trkpt><trkpt lat="45.466509173465155" lon="7.956811867182206"><ele>241.0</ele><time>2026-04-26T10:15:06.001Z</time></trkpt><trkpt lat="45.46664920349739" lon="7.956534124511359"><ele>241.0</ele><time>2026-04-26T10:15:07.001Z</time></trkpt><trkpt lat="45.466789275031" lon="7.956257092919035"><ele>241.0</ele><time>2026-04-26T10:15:08.001Z</time></trkpt><trkpt lat="45.46693129082204" lon="7.955984974174285"><ele>239.5</ele><time>2026-04-26T10:15:09.001Z</time></trkpt><trkpt lat="45.46706985452975" lon="7.9557098056062046"><ele>238.0</ele><time>2026-04-26T10:15:10.001Z</time></trkpt><trkpt lat="45.467205877085014" lon="7.95543546241844"><ele>238.0</ele><time>2026-04-26T10:15:11.001Z</time></trkpt><trkpt lat="45.467340502486955" lon="7.955162481246732"><ele>238.0</ele><time>2026-04-26T10:15:12.001Z</time></trkpt><trkpt lat="45.467474226335085" lon="7.95489241029001"><ele>237.0</ele><time>2026-04-26T10:15:13.001Z</time></trkpt><trkpt lat="45.467608257059446" lon="7.954626793737366"><ele>236.0</ele><time>2026-04-26T10:15:14.001Z</time></trkpt><trkpt lat="45.46774179867254" lon="7.954363712276606"><ele>236.5</ele><time>2026-04-26T10:15:15.001Z</time></trkpt><trkpt lat="45.4678740044924" lon="7.954101796078918"><ele>237.0</ele><time>2026-04-26T10:15:16.001Z</time></trkpt><trkpt lat="45.4680040400361" lon="7.953841168590191"><ele>237.33333333333331</ele><time>2026-04-26T10:15:17.001Z</time></trkpt><trkpt lat="45.46813015424401" lon="7.953584011427589"><ele>237.66666666666666</ele><time>2026-04-26T10:15:18.001Z</time></trkpt><trkpt lat="45.46825645940365" lon="7.953329920817753"><ele>238.0</ele><time>2026-04-26T10:15:19.001Z</time></trkpt><trkpt lat="45.468384057219545" lon="7.953079928287962"><ele>238.33333333333331</ele><time>2026-04-26T10:15:20.001Z</time></trkpt><trkpt lat="45.46850677747634" lon="7.952840767057337"><ele>238.66666666666669</ele><time>2026-04-26T10:15:21.001Z</time></trkpt><trkpt lat="45.46862361173626" lon="7.952610421445283"><ele>239.0</ele><time>2026-04-26T10:15:22.001Z</time></trkpt><trkpt lat="45.46873555671546" lon="7.95238659282447"><ele>239.66666666666669</ele><time>2026-04-26T10:15:23.001Z</time></trkpt><trkpt lat="45.468843943205435" lon="7.952167005616661"><ele>240.33333333333331</ele><time>2026-04-26T10:15:24.001Z</time></trkpt><trkpt lat="45.46894917147461" lon="7.951949766504143"><ele>241.0</ele><time>2026-04-26T10:15:25.001Z</time></trkpt><trkpt lat="45.46904950651132" lon="7.951729368708159"><ele>241.33333333333331</ele><time>2026-04-26T10:15:26.001Z</time></trkpt><trkpt lat="45.46913750718223" lon="7.95150316041556"><ele>241.66666666666669</ele><time>2026-04-26T10:15:27.001Z</time></trkpt><trkpt lat="45.46921315704668" lon="7.951269967031727"><ele>242.0</ele><time>2026-04-26T10:15:28Z</time></trkpt><trkpt lat="45.46927490091461" lon="7.951039014979982"><ele>241.33333333333334</ele><time>2026-04-26T10:15:29Z</time></trkpt><trkpt lat="45.469329678713365" lon="7.9508152821947276"><ele>240.66666666666669</ele><time>2026-04-26T10:15:30Z</time></trkpt><trkpt lat="45.4693774395808" lon="7.950599140131701"><ele>240.0</ele><time>2026-04-26T10:15:31Z</time></trkpt><trkpt lat="45.46941720233139" lon="7.950400633873389"><ele>240.0</ele><time>2026-04-26T10:15:32Z</time></trkpt><trkpt lat="45.46944766645682" lon="7.9502285936729775"><ele>240.0</ele><time>2026-04-26T10:15:33Z</time></trkpt><trkpt lat="45.469471226704016" lon="7.950076836557736"><ele>240.0</ele><time>2026-04-26T10:15:34Z</time></trkpt><trkpt lat="45.469488589305385" lon="7.949947585428814"><ele>240.0</ele><time>2026-04-26T10:15:35Z</time></trkpt><trkpt lat="45.46950139095816" lon="7.949842272041595"><ele>240.0</ele><time>2026-04-26T10:15:36Z</time></trkpt><trkpt lat="45.46952305470576" lon="7.9497413437203654"><ele>240.0</ele><time>2026-04-26T10:15:37Z</time></trkpt><trkpt lat="45.46957143126305" lon="7.9496498451784525"><ele>240.0</ele><time>2026-04-26T10:15:38Z</time></trkpt><trkpt lat="45.4696410607816" lon="7.949576107459731"><ele>240.0</ele><time>2026-04-26T10:15:39Z</time></trkpt><trkpt lat="45.46973770969358" lon="7.949549932870997"><ele>240.0</ele><time>2026-04-26T10:15:40Z</time></trkpt><trkpt lat="45.4698427507819" lon="7.9495742915627545"><ele>240.0</ele><time>2026-04-26T10:15:41Z</time></trkpt><trkpt lat="45.46994727029275" lon="7.949652773789484"><ele>240.0</ele><time>2026-04-26T10:15:42Z</time></trkpt><trkpt lat="45.47005314861141" lon="7.949761577377895"><ele>240.0</ele><time>2026-04-26T10:15:43Z</time></trkpt><trkpt lat="45.470163542917" lon="7.949889890551761"><ele>240.0</ele><time>2026-04-26T10:15:44Z</time></trkpt><trkpt lat="45.47026326440098" lon="7.950017570877552"><ele>240.0</ele><time>2026-04-26T10:15:45Z</time></trkpt><trkpt lat="45.470371794225976" lon="7.950156147306499"><ele>240.66666666666669</ele><time>2026-04-26T10:15:46Z</time></trkpt><trkpt lat="45.470487398734036" lon="7.9503022194204735"><ele>241.33333333333334</ele><time>2026-04-26T10:15:47Z</time></trkpt><trkpt lat="45.47060846319701" lon="7.950452527055217"><ele>242.0</ele><time>2026-04-26T10:15:48Z</time></trkpt><trkpt lat="45.47073231668882" lon="7.950609546370683"><ele>242.0</ele><time>2026-04-26T10:15:49Z</time></trkpt><trkpt lat="45.47085559878382" lon="7.950769247093641"><ele>242.0</ele><time>2026-04-26T10:15:50Z</time></trkpt><trkpt lat="45.47097116617024" lon="7.95091728246235"><ele>242.0</ele><time>2026-04-26T10:15:51Z</time></trkpt><trkpt lat="45.471074101838134" lon="7.951050506127984"><ele>242.0</ele><time>2026-04-26T10:15:52Z</time></trkpt><trkpt lat="45.4711625069223" lon="7.951199305264962"><ele>242.0</ele><time>2026-04-26T10:15:53Z</time></trkpt><trkpt lat="45.47123953221633" lon="7.951380572591819"><ele>242.0</ele><time>2026-04-26T10:15:54Z</time></trkpt><trkpt lat="45.47130084982879" lon="7.951571554370729"><ele>242.0</ele><time>2026-04-26T10:15:55Z</time></trkpt><trkpt lat="45.4713505455902" lon="7.951745663767358"><ele>243.8</ele><time>2026-04-26T10:15:56Z</time></trkpt><trkpt lat="45.47139714788063" lon="7.951888940674546"><ele>245.6</ele><time>2026-04-26T10:15:57Z</time></trkpt><trkpt lat="45.47143965765202" lon="7.952019665817594"><ele>247.40000000000003</ele><time>2026-04-26T10:15:58Z</time></trkpt><trkpt lat="45.471476461127565" lon="7.952152127107852"><ele>249.20000000000002</ele><time>2026-04-26T10:15:59Z</time></trkpt><trkpt lat="45.47150251627369" lon="7.952297010780149"><ele>251.0</ele><time>2026-04-26T10:16:00Z</time></trkpt><trkpt lat="45.4715114600672" lon="7.952450504722961"><ele>252.5</ele><time>2026-04-26T10:16:01Z</time></trkpt><trkpt lat="45.471512625059226" lon="7.95261437636715"><ele>254.0</ele><time>2026-04-26T10:16:02Z</time></trkpt><trkpt lat="45.47151826297847" lon="7.952787544276362"><ele>255.5</ele><time>2026-04-26T10:16:03Z</time></trkpt><trkpt lat="45.47152234252523" lon="7.952959239483187"><ele>257.0</ele><time>2026-04-26T10:16:04Z</time></trkpt><trkpt lat="45.471514716575754" lon="7.953131578443283"><ele>257.0</ele><time>2026-04-26T10:16:05Z</time></trkpt><trkpt lat="45.47150099551043" lon="7.953304765714001"><ele>257.0</ele><time>2026-04-26T10:16:06Z</time></trkpt><trkpt lat="45.47148947412159" lon="7.953477730179936"><ele>257.0</ele><time>2026-04-26T10:16:07Z</time></trkpt><trkpt lat="45.47148500858489" lon="7.953651493922996"><ele>257.0</ele><time>2026-04-26T10:16:08Z</time></trkpt><trkpt lat="45.4714925519132" lon="7.953828931008441"><ele>258.5</ele><time>2026-04-26T10:16:09Z</time></trkpt><trkpt lat="45.471514446010225" lon="7.954019776629049"><ele>260.0</ele><time>2026-04-26T10:16:10Z</time></trkpt><trkpt lat="45.47153969965501" lon="7.954223784030115"><ele>261.5</ele><time>2026-04-26T10:16:11Z</time></trkpt><trkpt lat="45.47155393700205" lon="7.954427962289937"><ele>263.0</ele><time>2026-04-26T10:16:12Z</time></trkpt><trkpt lat="45.47156380094614" lon="7.95462127166091"><ele>263.75</ele><time>2026-04-26T10:16:13Z</time></trkpt><trkpt lat="45.471566491158704" lon="7.954800438950671"><ele>264.5</ele><time>2026-04-26T10:16:14Z</time></trkpt><trkpt lat="45.47153697795643" lon="7.954958044897536"><ele>265.25</ele><time>2026-04-26T10:16:15Z</time></trkpt><trkpt lat="45.471497239786196" lon="7.9551107713777025"><ele>266.0</ele><time>2026-04-26T10:16:16Z</time></trkpt><trkpt lat="45.471485049445754" lon="7.9552748990973186"><ele>266.0</ele><time>2026-04-26T10:16:17Z</time></trkpt><trkpt lat="45.47150628301204" lon="7.955453926571497"><ele>266.0</ele><time>2026-04-26T10:16:18Z</time></trkpt><trkpt lat="45.47155508257898" lon="7.955644352835123"><ele>266.0</ele><time>2026-04-26T10:16:19Z</time></trkpt><trkpt lat="45.47161249218428" lon="7.955852970430829"><ele>266.0</ele><time>2026-04-26T10:16:20Z</time></trkpt><trkpt lat="45.47167207707193" lon="7.956083924737771"><ele>266.33333333333337</ele><time>2026-04-26T10:16:21Z</time></trkpt><trkpt lat="45.47173552321658" lon="7.956330107095064"><ele>266.6666666666667</ele><time>2026-04-26T10:16:22Z</time></trkpt><trkpt lat="45.47179718242771" lon="7.956560043768552"><ele>267.0</ele><time>2026-04-26T10:16:23Z</time></trkpt><trkpt lat="45.47186201830122" lon="7.956796584313929"><ele>268.3333333333333</ele><time>2026-04-26T10:16:24Z</time></trkpt><trkpt lat="45.47192837807052" lon="7.957034030677627"><ele>269.66666666666663</ele><time>2026-04-26T10:16:25Z</time></trkpt><trkpt lat="45.47199553123102" lon="7.957269625109255"><ele>271.0</ele><time>2026-04-26T10:16:26.001Z</time></trkpt><trkpt lat="45.47205983367461" lon="7.9575042992134755"><ele>276.0</ele><time>2026-04-26T10:16:27.001Z</time></trkpt><trkpt lat="45.47212172454172" lon="7.957727390194712"><ele>281.0</ele><time>2026-04-26T10:16:28.001Z</time></trkpt><trkpt lat="45.47218092631079" lon="7.9579396870098"><ele>286.0</ele><time>2026-04-26T10:16:29.001Z</time></trkpt><trkpt lat="45.47221830530208" lon="7.958136276243797"><ele>286.0</ele><time>2026-04-26T10:16:30.001Z</time></trkpt><trkpt lat="45.47226450927075" lon="7.958308594029131"><ele>286.0</ele><time>2026-04-26T10:16:31.001Z</time></trkpt><trkpt lat="45.4723049309978" lon="7.958471338309362"><ele>286.0</ele><time>2026-04-26T10:16:32.001Z</time></trkpt><trkpt lat="45.47233155066537" lon="7.95862523044946"><ele>286.0</ele><time>2026-04-26T10:16:33.001Z</time></trkpt><trkpt lat="45.472316041258985" lon="7.958799019619965"><ele>287.0</ele><time>2026-04-26T10:16:34.001Z</time></trkpt><trkpt lat="45.47228888735502" lon="7.958978948700906"><ele>288.0</ele><time>2026-04-26T10:16:35.001Z</time></trkpt><trkpt lat="45.47225770905394" lon="7.9591671631781775"><ele>289.0</ele><time>2026-04-26T10:16:36.001Z</time></trkpt><trkpt lat="45.472260673278655" lon="7.959358460390499"><ele>290.0</ele><time>2026-04-26T10:16:37.001Z</time></trkpt><trkpt lat="45.47230161651589" lon="7.959546307388699"><ele>290.0</ele><time>2026-04-26T10:16:38.001Z</time></trkpt><trkpt lat="45.47237082796401" lon="7.959727747156757"><ele>290.0</ele><time>2026-04-26T10:16:39.001Z</time></trkpt><trkpt lat="45.47244528258213" lon="7.959905359503992"><ele>290.0</ele><time>2026-04-26T10:16:40.001Z</time></trkpt><trkpt lat="45.47250837940866" lon="7.960080610349909"><ele>290.0</ele><time>2026-04-26T10:16:41.001Z</time></trkpt><trkpt lat="45.47254797809758" lon="7.960269702221253"><ele>291.0</ele><time>2026-04-26T10:16:42.001Z</time></trkpt><trkpt lat="45.472562402658696" lon="7.960468360339614"><ele>292.0</ele><time>2026-04-26T10:16:43.001Z</time></trkpt><trkpt lat="45.472553502972794" lon="7.9606710127916696"><ele>293.0</ele><time>2026-04-26T10:16:44.001Z</time></trkpt><trkpt lat="45.472530137556696" lon="7.960875313262021"><ele>294.0</ele><time>2026-04-26T10:16:45.001Z</time></trkpt><trkpt lat="45.47248084916594" lon="7.961072309053675"><ele>300.6666666666667</ele><time>2026-04-26T10:16:46.001Z</time></trkpt><trkpt lat="45.47238853327389" lon="7.961243859937781"><ele>307.33333333333337</ele><time>2026-04-26T10:16:47.001Z</time></trkpt><trkpt lat="45.47229542348192" lon="7.961434609471646"><ele>314.0</ele><time>2026-04-26T10:16:48.001Z</time></trkpt><trkpt lat="45.47218818690172" lon="7.961637530269783"><ele>312.6666666666667</ele><time>2026-04-26T10:16:49.001Z</time></trkpt><trkpt lat="45.4720817404414" lon="7.961837005076325"><ele>311.3333333333333</ele><time>2026-04-26T10:16:50.001Z</time></trkpt><trkpt lat="45.471994465254774" lon="7.962025071870831"><ele>310.0</ele><time>2026-04-26T10:16:51.001Z</time></trkpt><trkpt lat="45.471883681383616" lon="7.962160098200827"><ele>310.0</ele><time>2026-04-26T10:16:52.001Z</time></trkpt><trkpt lat="45.47175650283773" lon="7.962231547304051"><ele>310.0</ele><time>2026-04-26T10:16:53.001Z</time></trkpt><trkpt lat="45.47163036489063" lon="7.962306707269408"><ele>310.0</ele><time>2026-04-26T10:16:54.001Z</time></trkpt><trkpt lat="45.47151103520664" lon="7.962433726308735"><ele>310.0</ele><time>2026-04-26T10:16:55.001Z</time></trkpt><trkpt lat="45.471394927833785" lon="7.962598353333504"><ele>311.0</ele><time>2026-04-26T10:16:56.001Z</time></trkpt><trkpt lat="45.471268972265875" lon="7.962767604911073"><ele>312.0</ele><time>2026-04-26T10:16:57.001Z</time></trkpt><trkpt lat="45.47113609829832" lon="7.962918122902837"><ele>313.0</ele><time>2026-04-26T10:16:58.001Z</time></trkpt><trkpt lat="45.471011810588934" lon="7.963071125025076"><ele>313.0</ele><time>2026-04-26T10:16:59.001Z</time></trkpt><trkpt lat="45.47090399831015" lon="7.963229111775866"><ele>313.0</ele><time>2026-04-26T10:17:00.001Z</time></trkpt><trkpt lat="45.47078994232967" lon="7.963378402637027"><ele>313.0</ele><time>2026-04-26T10:17:01.001Z</time></trkpt><trkpt lat="45.47066935885608" lon="7.9635103332855515"><ele>316.66666666666663</ele><time>2026-04-26T10:17:02.001Z</time></trkpt><trkpt lat="45.47052867707572" lon="7.963608920825234"><ele>320.3333333333333</ele><time>2026-04-26T10:17:03.001Z</time></trkpt><trkpt lat="45.47037665131232" lon="7.9637157822400155"><ele>324.0</ele><time>2026-04-26T10:17:04.001Z</time></trkpt><trkpt lat="45.4702119017969" lon="7.963828850401446"><ele>324.0</ele><time>2026-04-26T10:17:05.001Z</time></trkpt><trkpt lat="45.470047619069504" lon="7.963940871559872"><ele>324.0</ele><time>2026-04-26T10:17:06.001Z</time></trkpt><trkpt lat="45.469896776374625" lon="7.964042518900944"><ele>324.0</ele><time>2026-04-26T10:17:07.001Z</time></trkpt><trkpt lat="45.4697582487636" lon="7.964134870644186"><ele>329.0</ele><time>2026-04-26T10:17:08.001Z</time></trkpt><trkpt lat="45.469632217487685" lon="7.964218491305315"><ele>334.0</ele><time>2026-04-26T10:17:09.001Z</time></trkpt><trkpt lat="45.469504412132174" lon="7.964274271862484"><ele>339.0</ele><time>2026-04-26T10:17:10.001Z</time></trkpt><trkpt lat="45.46936857294685" lon="7.964279542991722"><ele>344.0</ele><time>2026-04-26T10:17:11.001Z</time></trkpt><trkpt lat="45.469225285196565" lon="7.964253805019965"><ele>344.0</ele><time>2026-04-26T10:17:12.001Z</time></trkpt><trkpt lat="45.46906913042992" lon="7.964254697863331"><ele>344.0</ele><time>2026-04-26T10:17:13.001Z</time></trkpt><trkpt lat="45.46890911707906" lon="7.964238772342251"><ele>344.0</ele><time>2026-04-26T10:17:14.001Z</time></trkpt><trkpt lat="45.46875699248698" lon="7.964214529055454"><ele>340.5</ele><time>2026-04-26T10:17:15.001Z</time></trkpt><trkpt lat="45.468621453134766" lon="7.964268241277742"><ele>337.0</ele><time>2026-04-26T10:17:16.001Z</time></trkpt><trkpt lat="45.46850215817252" lon="7.964308147793857"><ele>333.5</ele><time>2026-04-26T10:17:17.001Z</time></trkpt><trkpt lat="45.46839626999579" lon="7.964355829388085"><ele>330.0</ele><time>2026-04-26T10:17:18.001Z</time></trkpt><trkpt lat="45.46829227129797" lon="7.964402866423765"><ele>330.0</ele><time>2026-04-26T10:17:19.001Z</time></trkpt><trkpt lat="45.46822055727273" lon="7.964549780104256"><ele>330.0</ele><time>2026-04-26T10:17:20.001Z</time></trkpt><trkpt lat="45.46815553367031" lon="7.964717959400743"><ele>330.0</ele><time>2026-04-26T10:17:21.001Z</time></trkpt><trkpt lat="45.46807639372129" lon="7.964898453957458"><ele>330.0</ele><time>2026-04-26T10:17:22.001Z</time></trkpt><trkpt lat="45.46800899498915" lon="7.965102051211608"><ele>328.0</ele><time>2026-04-26T10:17:23.001Z</time></trkpt><trkpt lat="45.46794630526964" lon="7.965310768192059"><ele>326.0</ele><time>2026-04-26T10:17:24.001Z</time></trkpt><trkpt lat="45.46788821931918" lon="7.9655073651642345"><ele>324.0</ele><time>2026-04-26T10:17:25.001Z</time></trkpt><trkpt lat="45.46779017545155" lon="7.96564920636409"><ele>322.0</ele><time>2026-04-26T10:17:26.001Z</time></trkpt><trkpt lat="45.46770555519672" lon="7.965783556713922"><ele>323.5</ele><time>2026-04-26T10:17:27.001Z</time></trkpt><trkpt lat="45.46765094390034" lon="7.965958066326098"><ele>325.0</ele><time>2026-04-26T10:17:28Z</time></trkpt><trkpt lat="45.46761989796366" lon="7.966160847317498"><ele>326.5</ele><time>2026-04-26T10:17:29Z</time></trkpt><trkpt lat="45.467585494346075" lon="7.966383894335142"><ele>328.0</ele><time>2026-04-26T10:17:30Z</time></trkpt><trkpt lat="45.46754557363631" lon="7.966619066597764"><ele>330.0</ele><time>2026-04-26T10:17:31Z</time></trkpt><trkpt lat="45.46751095170995" lon="7.966840292895317"><ele>332.0</ele><time>2026-04-26T10:17:32Z</time></trkpt><trkpt lat="45.467493666026385" lon="7.967045515880718"><ele>334.0</ele><time>2026-04-26T10:17:33Z</time></trkpt><trkpt lat="45.46748215520999" lon="7.967226802425628"><ele>336.0</ele><time>2026-04-26T10:17:34Z</time></trkpt><trkpt lat="45.46750989298819" lon="7.967401061966164"><ele>338.75</ele><time>2026-04-26T10:17:35Z</time></trkpt><trkpt lat="45.467514760230316" lon="7.9675678477468095"><ele>341.5</ele><time>2026-04-26T10:17:36Z</time></trkpt><trkpt lat="45.46745997412075" lon="7.967724008035528"><ele>344.25</ele><time>2026-04-26T10:17:37Z</time></trkpt><trkpt lat="45.467368690267676" lon="7.9678731845008395"><ele>347.0</ele><time>2026-04-26T10:17:38Z</time></trkpt><trkpt lat="45.46728196468411" lon="7.968050063103447"><ele>347.0</ele><time>2026-04-26T10:17:39Z</time></trkpt><trkpt lat="45.46717484733914" lon="7.968194216460121"><ele>347.0</ele><time>2026-04-26T10:17:40Z</time></trkpt><trkpt lat="45.467060524979544" lon="7.9683137796476"><ele>347.0</ele><time>2026-04-26T10:17:41Z</time></trkpt><trkpt lat="45.46694238843867" lon="7.968403918549442"><ele>347.0</ele><time>2026-04-26T10:17:42Z</time></trkpt><trkpt lat="45.46683570786923" lon="7.9684855888694175"><ele>347.0</ele><time>2026-04-26T10:17:43Z</time></trkpt><trkpt lat="45.466750339425104" lon="7.968552904767023"><ele>347.0</ele><time>2026-04-26T10:17:44Z</time></trkpt><trkpt lat="45.46667197708349" lon="7.968594327238242"><ele>347.0</ele><time>2026-04-26T10:17:45Z</time></trkpt><trkpt lat="45.46659531385341" lon="7.96866399467435"><ele>347.0</ele><time>2026-04-26T10:17:46Z</time></trkpt><trkpt lat="45.466439901618166" lon="7.968962806318971"><ele>347.0</ele><time>2026-04-26T10:17:47Z</time></trkpt><trkpt lat="45.46644510520049" lon="7.969141694248839"><ele>347.0</ele><time>2026-04-26T10:17:48Z</time></trkpt><trkpt lat="45.46642771255071" lon="7.969327434953893"><ele>347.0</ele><time>2026-04-26T10:17:49Z</time></trkpt><trkpt lat="45.46640922324385" lon="7.969522297344429"><ele>347.0</ele><time>2026-04-26T10:17:50Z</time></trkpt><trkpt lat="45.46633413342565" lon="7.96969916727863"><ele>347.25</ele><time>2026-04-26T10:17:51Z</time></trkpt><trkpt lat="45.4662630245915" lon="7.969883278057098"><ele>347.5</ele><time>2026-04-26T10:17:52Z</time></trkpt><trkpt lat="45.466212462308604" lon="7.97008710906966"><ele>347.75</ele><time>2026-04-26T10:17:53Z</time></trkpt><trkpt lat="45.46616598115137" lon="7.970279827267721"><ele>348.0</ele><time>2026-04-26T10:17:54Z</time></trkpt><trkpt lat="45.466130963649846" lon="7.970448477194054"><ele>348.0</ele><time>2026-04-26T10:17:55Z</time></trkpt><trkpt lat="45.46610373687996" lon="7.970584215550183"><ele>348.0</ele><time>2026-04-26T10:17:56Z</time></trkpt><trkpt lat="45.46607989275417" lon="7.970703272889557"><ele>348.0</ele><time>2026-04-26T10:17:57Z</time></trkpt><trkpt lat="45.46606347842155" lon="7.97080534979223"><ele>348.0</ele><time>2026-04-26T10:17:58Z</time></trkpt><trkpt lat="45.46608899168038" lon="7.970902092316273"><ele>348.0</ele><time>2026-04-26T10:17:59Z</time></trkpt><trkpt lat="45.46616733293975" lon="7.97095563990441"><ele>348.0</ele><time>2026-04-26T10:18:00Z</time></trkpt><trkpt lat="45.466257677984736" lon="7.970929688053744"><ele>350.75</ele><time>2026-04-26T10:18:01Z</time></trkpt><trkpt lat="45.46633069685688" lon="7.970833025203185"><ele>353.5</ele><time>2026-04-26T10:18:02Z</time></trkpt><trkpt lat="45.46639266016812" lon="7.970692165007727"><ele>356.25</ele><time>2026-04-26T10:18:03Z</time></trkpt><trkpt lat="45.466469912538045" lon="7.970540079828588"><ele>359.0</ele><time>2026-04-26T10:18:04Z</time></trkpt><trkpt lat="45.46655679483165" lon="7.9703784733505625"><ele>359.0</ele><time>2026-04-26T10:18:05Z</time></trkpt><trkpt lat="45.46665370150062" lon="7.97021555015704"><ele>359.0</ele><time>2026-04-26T10:18:06Z</time></trkpt><trkpt lat="45.46675374965704" lon="7.970044660608198"><ele>359.0</ele><time>2026-04-26T10:18:07Z</time></trkpt><trkpt lat="45.466857908580025" lon="7.969866649652143"><ele>357.6666666666667</ele><time>2026-04-26T10:18:08Z</time></trkpt><trkpt lat="45.466971829817865" lon="7.969694721923697"><ele>356.3333333333333</ele><time>2026-04-26T10:18:09Z</time></trkpt><trkpt lat="45.467096801447795" lon="7.969568840339826"><ele>355.0</ele><time>2026-04-26T10:18:10Z</time></trkpt><trkpt lat="45.467210074186305" lon="7.969473221590401"><ele>358.0</ele><time>2026-04-26T10:18:11Z</time></trkpt><trkpt lat="45.46733103380493" lon="7.9694404877617995"><ele>361.0</ele><time>2026-04-26T10:18:12Z</time></trkpt><trkpt lat="45.46745506436513" lon="7.969402649895748"><ele>364.0</ele><time>2026-04-26T10:18:13Z</time></trkpt><trkpt lat="45.467583573923584" lon="7.969406323736346"><ele>367.0</ele><time>2026-04-26T10:18:14Z</time></trkpt><trkpt lat="45.467712013220094" lon="7.96940395346055"><ele>367.0</ele><time>2026-04-26T10:18:15Z</time></trkpt><trkpt lat="45.46783235476594" lon="7.969367261164825"><ele>367.0</ele><time>2026-04-26T10:18:16Z</time></trkpt><trkpt lat="45.46795067631637" lon="7.9692784687664115"><ele>367.0</ele><time>2026-04-26T10:18:17Z</time></trkpt><trkpt lat="45.46806838197996" lon="7.9691555557612785"><ele>367.0</ele><time>2026-04-26T10:18:18Z</time></trkpt><trkpt lat="45.46819390968292" lon="7.9690073335332645"><ele>369.3333333333333</ele><time>2026-04-26T10:18:19Z</time></trkpt><trkpt lat="45.46832325388547" lon="7.968844214961981"><ele>371.6666666666667</ele><time>2026-04-26T10:18:20Z</time></trkpt><trkpt lat="45.46846125335099" lon="7.968686023049011"><ele>374.0</ele><time>2026-04-26T10:18:21Z</time></trkpt><trkpt lat="45.46859416080736" lon="7.96853925426342"><ele>374.0</ele><time>2026-04-26T10:18:22Z</time></trkpt><trkpt lat="45.46873087991949" lon="7.968407138072342"><ele>374.0</ele><time>2026-04-26T10:18:23Z</time></trkpt><trkpt lat="45.468864382919485" lon="7.968300940472798"><ele>374.0</ele><time>2026-04-26T10:18:24Z</time></trkpt><trkpt lat="45.468989768639794" lon="7.968181921089313"><ele>378.6666666666667</ele><time>2026-04-26T10:18:25Z</time></trkpt><trkpt lat="45.46909981552927" lon="7.968025293153325"><ele>383.33333333333337</ele><time>2026-04-26T10:18:26Z</time></trkpt><trkpt lat="45.469207946998935" lon="7.967853480745306"><ele>388.0</ele><time>2026-04-26T10:18:27Z</time></trkpt><trkpt lat="45.46931918258952" lon="7.967671310733427"><ele>392.0</ele><time>2026-04-26T10:18:28Z</time></trkpt><trkpt lat="45.46943241296297" lon="7.96748503177477"><ele>396.0</ele><time>2026-04-26T10:18:29Z</time></trkpt><trkpt lat="45.469551771774924" lon="7.967289467794132"><ele>400.0</ele><time>2026-04-26T10:18:30Z</time></trkpt><trkpt lat="45.469661638079366" lon="7.967101274197885"><ele>400.0</ele><time>2026-04-26T10:18:31Z</time></trkpt><trkpt lat="45.46976893150875" lon="7.96691419912053"><ele>400.0</ele><time>2026-04-26T10:18:32Z</time></trkpt><trkpt lat="45.46986991944951" lon="7.966724782713216"><ele>400.0</ele><time>2026-04-26T10:18:33Z</time></trkpt><trkpt lat="45.46997053271067" lon="7.966532529595995"><ele>396.5</ele><time>2026-04-26T10:18:34Z</time></trkpt><trkpt lat="45.47005461536152" lon="7.966362386613806"><ele>393.0</ele><time>2026-04-26T10:18:35Z</time></trkpt><trkpt lat="45.470138388596126" lon="7.966205990055628"><ele>389.5</ele><time>2026-04-26T10:18:36Z</time></trkpt><trkpt lat="45.47021656973221" lon="7.966084996215902"><ele>386.0</ele><time>2026-04-26T10:18:37Z</time></trkpt><trkpt lat="45.47030416262548" lon="7.965975655311776"><ele>386.0</ele><time>2026-04-26T10:18:38Z</time></trkpt><trkpt lat="45.47041527916234" lon="7.965886660941505"><ele>386.0</ele><time>2026-04-26T10:18:39Z</time></trkpt><trkpt lat="45.47053882264433" lon="7.965829406300953"><ele>386.0</ele><time>2026-04-26T10:18:40Z</time></trkpt><trkpt lat="45.47067424729494" lon="7.9657978861483825"><ele>386.0</ele><time>2026-04-26T10:18:41Z</time></trkpt><trkpt lat="45.4708189151583" lon="7.965760860336835"><ele>389.0</ele><time>2026-04-26T10:18:42Z</time></trkpt><trkpt lat="45.47096803666534" lon="7.965697880749752"><ele>392.0</ele><time>2026-04-26T10:18:43Z</time></trkpt><trkpt lat="45.47111430971823" lon="7.9656284705406915"><ele>395.0</ele><time>2026-04-26T10:18:44Z</time></trkpt><trkpt lat="45.471255235942785" lon="7.965564822906328"><ele>399.25</ele><time>2026-04-26T10:18:45Z</time></trkpt><trkpt lat="45.47138646220556" lon="7.965497684877631"><ele>403.5</ele><time>2026-04-26T10:18:46Z</time></trkpt><trkpt lat="45.47150936486591" lon="7.965426740287232"><ele>407.75</ele><time>2026-04-26T10:18:47Z</time></trkpt><trkpt lat="45.47162232247649" lon="7.965364286965291"><ele>412.0</ele><time>2026-04-26T10:18:48Z</time></trkpt><trkpt lat="45.47172098000866" lon="7.965315199809534"><ele>412.00000000000006</ele><time>2026-04-26T10:18:49Z</time></trkpt><trkpt lat="45.47179744926975" lon="7.965271226455088"><ele>412.0</ele><time>2026-04-26T10:18:50Z</time></trkpt><trkpt lat="45.471858421688665" lon="7.96524692832199"><ele>412.0</ele><time>2026-04-26T10:18:51Z</time></trkpt><trkpt lat="45.471946156085124" lon="7.965369773638744"><ele>412.0</ele><time>2026-04-26T10:18:53Z</time></trkpt><trkpt lat="45.47193289320605" lon="7.965483388921044"><ele>412.00000000000006</ele><time>2026-04-26T10:18:54.001Z</time></trkpt><trkpt lat="45.47186479438101" lon="7.965560610900138"><ele>412.0</ele><time>2026-04-26T10:18:55.001Z</time></trkpt><trkpt lat="45.47175508970175" lon="7.96552782800663"><ele>412.0</ele><time>2026-04-26T10:18:56.001Z</time></trkpt><trkpt lat="45.471649802477856" lon="7.965590815754891"><ele>412.0</ele><time>2026-04-26T10:18:57.001Z</time></trkpt><trkpt lat="45.47152291091792" lon="7.965625137986264"><ele>412.0</ele><time>2026-04-26T10:18:58.001Z</time></trkpt><trkpt lat="45.47138529967303" lon="7.965698597730378"><ele>412.0</ele><time>2026-04-26T10:18:59.001Z</time></trkpt><trkpt lat="45.471238419178555" lon="7.965800249225752"><ele>415.0</ele><time>2026-04-26T10:19:00.001Z</time></trkpt><trkpt lat="45.47108750803061" lon="7.965905587090748"><ele>418.0</ele><time>2026-04-26T10:19:01.001Z</time></trkpt><trkpt lat="45.47095064971144" lon="7.96600240888357"><ele>421.0</ele><time>2026-04-26T10:19:02.001Z</time></trkpt><trkpt lat="45.47082790048483" lon="7.966103235642885"><ele>421.0</ele><time>2026-04-26T10:19:03.001Z</time></trkpt><trkpt lat="45.47072857131859" lon="7.966224112955219"><ele>421.0</ele><time>2026-04-26T10:19:04.001Z</time></trkpt><trkpt lat="45.47063636453024" lon="7.966380016159357"><ele>421.0</ele><time>2026-04-26T10:19:05.001Z</time></trkpt><trkpt lat="45.4705729983084" lon="7.966559998667165"><ele>421.0</ele><time>2026-04-26T10:19:06.001Z</time></trkpt><trkpt lat="45.470535176416256" lon="7.966765535605941"><ele>424.33333333333337</ele><time>2026-04-26T10:19:07.001Z</time></trkpt><trkpt lat="45.470494017666454" lon="7.967002212709298"><ele>427.66666666666663</ele><time>2026-04-26T10:19:08.001Z</time></trkpt><trkpt lat="45.470451333722636" lon="7.967242404437263"><ele>431.0</ele><time>2026-04-26T10:19:09.001Z</time></trkpt><trkpt lat="45.47040153340764" lon="7.96747236234672"><ele>426.5</ele><time>2026-04-26T10:19:10.001Z</time></trkpt><trkpt lat="45.47036449615936" lon="7.967694772327383"><ele>422.0</ele><time>2026-04-26T10:19:11.001Z</time></trkpt><trkpt lat="45.47033109629123" lon="7.967887243030268"><ele>417.5</ele><time>2026-04-26T10:19:12.001Z</time></trkpt><trkpt lat="45.470276047677785" lon="7.968064753033099"><ele>413.0</ele><time>2026-04-26T10:19:13.001Z</time></trkpt><trkpt lat="45.470210351099766" lon="7.968226643685919"><ele>420.0</ele><time>2026-04-26T10:19:14.001Z</time></trkpt><trkpt lat="45.47012350472362" lon="7.968390067176996"><ele>427.0</ele><time>2026-04-26T10:19:15.001Z</time></trkpt><trkpt lat="45.470042138289614" lon="7.968587047846097"><ele>434.0</ele><time>2026-04-26T10:19:16.001Z</time></trkpt><trkpt lat="45.469952171638425" lon="7.968792768651731"><ele>434.0</ele><time>2026-04-26T10:19:17.001Z</time></trkpt><trkpt lat="45.46986853775548" lon="7.969044782757226"><ele>434.0</ele><time>2026-04-26T10:19:18.001Z</time></trkpt><trkpt lat="45.469794303927934" lon="7.969301714671212"><ele>434.0</ele><time>2026-04-26T10:19:19.001Z</time></trkpt><trkpt lat="45.4697187856279" lon="7.969546813187232"><ele>433.0</ele><time>2026-04-26T10:19:20.001Z</time></trkpt><trkpt lat="45.469636395272644" lon="7.969800384706822"><ele>432.0</ele><time>2026-04-26T10:19:21.001Z</time></trkpt><trkpt lat="45.46954170644938" lon="7.970014940846184"><ele>431.0</ele><time>2026-04-26T10:19:22.001Z</time></trkpt><trkpt lat="45.469448632230154" lon="7.9702097279734465"><ele>431.0</ele><time>2026-04-26T10:19:23.001Z</time></trkpt><trkpt lat="45.469347610924046" lon="7.9703893800559324"><ele>431.0</ele><time>2026-04-26T10:19:24.001Z</time></trkpt><trkpt lat="45.469251625239345" lon="7.970548589720077"><ele>431.0</ele><time>2026-04-26T10:19:25.001Z</time></trkpt><trkpt lat="45.469159850560935" lon="7.970693946558727"><ele>431.0</ele><time>2026-04-26T10:19:26.001Z</time></trkpt><trkpt lat="45.46909244052801" lon="7.970834772492274"><ele>434.8333333333333</ele><time>2026-04-26T10:19:27.001Z</time></trkpt><trkpt lat="45.469028411226155" lon="7.970940213568344"><ele>438.66666666666663</ele><time>2026-04-26T10:19:28.001Z</time></trkpt><trkpt lat="45.46898171656086" lon="7.97102139070688"><ele>442.5</ele><time>2026-04-26T10:19:29.001Z</time></trkpt><trkpt lat="45.46896515692573" lon="7.971108157365685"><ele>446.33333333333337</ele><time>2026-04-26T10:19:30.001Z</time></trkpt><trkpt lat="45.46900168673694" lon="7.9711951665626435"><ele>450.1666666666667</ele><time>2026-04-26T10:19:31.001Z</time></trkpt><trkpt lat="45.46908114942259" lon="7.9712362143398225"><ele>454.0</ele><time>2026-04-26T10:19:32.001Z</time></trkpt><trkpt lat="45.469168465287964" lon="7.971197791464792"><ele>454.0</ele><time>2026-04-26T10:19:33.001Z</time></trkpt><trkpt lat="45.4692206094849" lon="7.971021635609444"><ele>454.0</ele><time>2026-04-26T10:19:34Z</time></trkpt><trkpt lat="45.46932781977205" lon="7.97088198763555"><ele>454.0</ele><time>2026-04-26T10:19:35Z</time></trkpt><trkpt lat="45.469422592088456" lon="7.970691749302761"><ele>454.0</ele><time>2026-04-26T10:19:36Z</time></trkpt><trkpt lat="45.469541473449944" lon="7.9704963066698005"><ele>452.6666666666667</ele><time>2026-04-26T10:19:37Z</time></trkpt><trkpt lat="45.46967301017237" lon="7.970289437411975"><ele>451.33333333333337</ele><time>2026-04-26T10:19:38Z</time></trkpt><trkpt lat="45.469800687064364" lon="7.97007890595232"><ele>450.0</ele><time>2026-04-26T10:19:39Z</time></trkpt><trkpt lat="45.469935417107706" lon="7.969858272497921"><ele>450.0</ele><time>2026-04-26T10:19:40Z</time></trkpt><trkpt lat="45.470070399850535" lon="7.969626385324988"><ele>450.0</ele><time>2026-04-26T10:19:41Z</time></trkpt><trkpt lat="45.470221107485195" lon="7.969412964552026"><ele>450.0</ele><time>2026-04-26T10:19:42Z</time></trkpt><trkpt lat="45.47038353887983" lon="7.969213148181947"><ele>453.33333333333337</ele><time>2026-04-26T10:19:43Z</time></trkpt><trkpt lat="45.47055937166151" lon="7.969031584375942"><ele>456.6666666666667</ele><time>2026-04-26T10:19:44Z</time></trkpt><trkpt lat="45.47074466408398" lon="7.9688542275264656"><ele>460.0</ele><time>2026-04-26T10:19:45Z</time></trkpt><trkpt lat="45.47092893025124" lon="7.968665397932097"><ele>460.0</ele><time>2026-04-26T10:19:46Z</time></trkpt><trkpt lat="45.47110467798027" lon="7.968464741810006"><ele>460.0</ele><time>2026-04-26T10:19:47Z</time></trkpt><trkpt lat="45.471276347310784" lon="7.968262200925873"><ele>460.0</ele><time>2026-04-26T10:19:48Z</time></trkpt><trkpt lat="45.471435517255586" lon="7.968078275416511"><ele>462.6666666666667</ele><time>2026-04-26T10:19:49Z</time></trkpt><trkpt lat="45.471584614872754" lon="7.967906261835557"><ele>465.33333333333337</ele><time>2026-04-26T10:19:50Z</time></trkpt><trkpt lat="45.471716120414655" lon="7.96775505263739"><ele>468.0</ele><time>2026-04-26T10:19:51Z</time></trkpt><trkpt lat="45.47183447783723" lon="7.967610489342593"><ele>467.75</ele><time>2026-04-26T10:19:52Z</time></trkpt><trkpt lat="45.47195555305376" lon="7.967485959169694"><ele>467.5</ele><time>2026-04-26T10:19:53Z</time></trkpt><trkpt lat="45.472082564207405" lon="7.967408367086853"><ele>467.25</ele><time>2026-04-26T10:19:54Z</time></trkpt><trkpt lat="45.472198817601665" lon="7.967325809289536"><ele>467.0</ele><time>2026-04-26T10:19:55Z</time></trkpt><trkpt lat="45.472322146564764" lon="7.967261190331579"><ele>467.0</ele><time>2026-04-26T10:19:56Z</time></trkpt><trkpt lat="45.47245963092448" lon="7.967252794277529"><ele>467.0</ele><time>2026-04-26T10:19:57Z</time></trkpt><trkpt lat="45.472608758122036" lon="7.967279416671557"><ele>467.0</ele><time>2026-04-26T10:19:58Z</time></trkpt><trkpt lat="45.4727741901347" lon="7.967308995409421"><ele>467.0</ele><time>2026-04-26T10:19:59Z</time></trkpt><trkpt lat="45.472928155634925" lon="7.967282989683667"><ele>467.0</ele><time>2026-04-26T10:20:00Z</time></trkpt><trkpt lat="45.47310607138961" lon="7.967222942593362"><ele>467.0</ele><time>2026-04-26T10:20:01Z</time></trkpt><trkpt lat="45.473284306391186" lon="7.9671788976000135"><ele>470.3333333333333</ele><time>2026-04-26T10:20:02Z</time></trkpt><trkpt lat="45.47346426807209" lon="7.967168401100415"><ele>473.66666666666663</ele><time>2026-04-26T10:20:03Z</time></trkpt><trkpt lat="45.47363022520057" lon="7.96717745370562"><ele>477.0</ele><time>2026-04-26T10:20:04Z</time></trkpt><trkpt lat="45.47378048812195" lon="7.967192268855198"><ele>478.5</ele><time>2026-04-26T10:20:05Z</time></trkpt><trkpt lat="45.47391498547419" lon="7.967195981758404"><ele>480.0</ele><time>2026-04-26T10:20:06Z</time></trkpt><trkpt lat="45.474034276951144" lon="7.967172256741089"><ele>481.5</ele><time>2026-04-26T10:20:07Z</time></trkpt><trkpt lat="45.474142664277124" lon="7.967132533438958"><ele>483.0</ele><time>2026-04-26T10:20:08Z</time></trkpt><trkpt lat="45.474237095536346" lon="7.9670849890955235"><ele>483.0</ele><time>2026-04-26T10:20:09Z</time></trkpt><trkpt lat="45.474312370516884" lon="7.967061499012178"><ele>483.0</ele><time>2026-04-26T10:20:10Z</time></trkpt><trkpt lat="45.47437337555598" lon="7.967084996019686"><ele>483.0</ele><time>2026-04-26T10:20:11Z</time></trkpt><trkpt lat="45.474406572429785" lon="7.967171148224919"><ele>483.0</ele><time>2026-04-26T10:20:12Z</time></trkpt><trkpt lat="45.47438453070371" lon="7.967280861060565"><ele>483.0</ele><time>2026-04-26T10:20:13Z</time></trkpt><trkpt lat="45.47431614995844" lon="7.967351494649178"><ele>483.0</ele><time>2026-04-26T10:20:14Z</time></trkpt><trkpt lat="45.4742105005325" lon="7.9673681897053"><ele>483.0</ele><time>2026-04-26T10:20:15Z</time></trkpt><trkpt lat="45.474102414589545" lon="7.9674588403292095"><ele>483.0</ele><time>2026-04-26T10:20:16Z</time></trkpt><trkpt lat="45.4739627433248" lon="7.967533016621551"><ele>483.0</ele><time>2026-04-26T10:20:17Z</time></trkpt><trkpt lat="45.47380850908875" lon="7.9676082188766975"><ele>483.0</ele><time>2026-04-26T10:20:18Z</time></trkpt><trkpt lat="45.47365687101273" lon="7.9676497766929"><ele>488.25</ele><time>2026-04-26T10:20:19Z</time></trkpt><trkpt lat="45.473510975571266" lon="7.967596686300776"><ele>493.5</ele><time>2026-04-26T10:20:20Z</time></trkpt><trkpt lat="45.47338241138036" lon="7.9676045097060895"><ele>498.75</ele><time>2026-04-26T10:20:21Z</time></trkpt><trkpt lat="45.47326229139872" lon="7.96760840049441"><ele>504.0</ele><time>2026-04-26T10:20:22Z</time></trkpt><trkpt lat="45.47313220763737" lon="7.967693793793546"><ele>504.0</ele><time>2026-04-26T10:20:23Z</time></trkpt><trkpt lat="45.472991023679306" lon="7.9677744266612365"><ele>504.0</ele><time>2026-04-26T10:20:24Z</time></trkpt><trkpt lat="45.4728446614702" lon="7.967823844919433"><ele>504.0</ele><time>2026-04-26T10:20:25Z</time></trkpt><trkpt lat="45.472698978745335" lon="7.967860856461872"><ele>499.0</ele><time>2026-04-26T10:20:26Z</time></trkpt><trkpt lat="45.47256135998931" lon="7.967934415426512"><ele>494.0</ele><time>2026-04-26T10:20:27Z</time></trkpt><trkpt lat="45.4724325034409" lon="7.968062527793574"><ele>489.0</ele><time>2026-04-26T10:20:28Z</time></trkpt><trkpt lat="45.47231633077602" lon="7.968201828265574"><ele>489.0</ele><time>2026-04-26T10:20:29Z</time></trkpt><trkpt lat="45.47220651214302" lon="7.9683416351864915"><ele>489.0</ele><time>2026-04-26T10:20:30Z</time></trkpt><trkpt lat="45.47212181260121" lon="7.968511791550127"><ele>489.0</ele><time>2026-04-26T10:20:31Z</time></trkpt><trkpt lat="45.472056448623505" lon="7.968703831940526"><ele>489.0</ele><time>2026-04-26T10:20:32Z</time></trkpt><trkpt lat="45.47199432617891" lon="7.968893134061839"><ele>487.5</ele><time>2026-04-26T10:20:33Z</time></trkpt><trkpt lat="45.47192893378364" lon="7.969070629830508"><ele>486.0</ele><time>2026-04-26T10:20:34Z</time></trkpt><trkpt lat="45.47185592863502" lon="7.969231384165842"><ele>484.5</ele><time>2026-04-26T10:20:35Z</time></trkpt><trkpt lat="45.471769564209104" lon="7.969371304277204"><ele>483.0</ele><time>2026-04-26T10:20:36Z</time></trkpt><trkpt lat="45.47167764319764" lon="7.969488312740954"><ele>481.79999999999995</ele><time>2026-04-26T10:20:37Z</time></trkpt><trkpt lat="45.47159203518481" lon="7.9695942430610875"><ele>480.59999999999997</ele><time>2026-04-26T10:20:38Z</time></trkpt><trkpt lat="45.4715153171023" lon="7.96969696298459"><ele>479.40000000000003</ele><time>2026-04-26T10:20:39Z</time></trkpt><trkpt lat="45.47143680659995" lon="7.969797019107404"><ele>478.20000000000005</ele><time>2026-04-26T10:20:40Z</time></trkpt><trkpt lat="45.47135569183203" lon="7.969896170238856"><ele>477.0</ele><time>2026-04-26T10:20:41Z</time></trkpt><trkpt lat="45.47127240833437" lon="7.96999297865567"><ele>480.1666666666667</ele><time>2026-04-26T10:20:42Z</time></trkpt><trkpt lat="45.47119083866576" lon="7.970082538381023"><ele>483.33333333333337</ele><time>2026-04-26T10:20:43Z</time></trkpt><trkpt lat="45.47112353309725" lon="7.970157968976881"><ele>486.5</ele><time>2026-04-26T10:20:44Z</time></trkpt><trkpt lat="45.47107149136879" lon="7.970225024697792"><ele>489.6666666666667</ele><time>2026-04-26T10:20:45Z</time></trkpt><trkpt lat="45.471034416573886" lon="7.9703808644893455"><ele>492.83333333333337</ele><time>2026-04-26T10:20:47Z</time></trkpt><trkpt lat="45.47107689523972" lon="7.970457653131855"><ele>496.0</ele><time>2026-04-26T10:20:48Z</time></trkpt><trkpt lat="45.47113949167528" lon="7.970476801758419"><ele>496.0</ele><time>2026-04-26T10:20:49Z</time></trkpt><trkpt lat="45.47121665500073" lon="7.970425335832376"><ele>496.0</ele><time>2026-04-26T10:20:50Z</time></trkpt><trkpt lat="45.471290355972826" lon="7.970302176381984"><ele>496.0</ele><time>2026-04-26T10:20:51Z</time></trkpt><trkpt lat="45.47141469321493" lon="7.970177871886654"><ele>496.0</ele><time>2026-04-26T10:20:52Z</time></trkpt><trkpt lat="45.47156110056758" lon="7.970026482476604"><ele>498.0</ele><time>2026-04-26T10:20:53Z</time></trkpt><trkpt lat="45.47172443886445" lon="7.96986165378774"><ele>500.0</ele><time>2026-04-26T10:20:54Z</time></trkpt><trkpt lat="45.47189492908874" lon="7.969716804257895"><ele>502.0</ele><time>2026-04-26T10:20:55Z</time></trkpt><trkpt lat="45.472079167682914" lon="7.969553810264866"><ele>503.6666666666667</ele><time>2026-04-26T10:20:56Z</time></trkpt><trkpt lat="45.47226273751323" lon="7.969387387516332"><ele>505.33333333333337</ele><time>2026-04-26T10:20:57Z</time></trkpt><trkpt lat="45.47243259211216" lon="7.969234265443281"><ele>507.0</ele><time>2026-04-26T10:20:58Z</time></trkpt><trkpt lat="45.47258733590619" lon="7.9691007411056045"><ele>507.0</ele><time>2026-04-26T10:20:59Z</time></trkpt><trkpt lat="45.47272525477798" lon="7.96898367507433"><ele>507.0</ele><time>2026-04-26T10:21:00Z</time></trkpt><trkpt lat="45.47285385210634" lon="7.968881536856567"><ele>507.0</ele><time>2026-04-26T10:21:01Z</time></trkpt><trkpt lat="45.472978272936686" lon="7.968812574257798"><ele>507.0</ele><time>2026-04-26T10:21:02Z</time></trkpt><trkpt lat="45.473118327793884" lon="7.968780537866495"><ele>513.0</ele><time>2026-04-26T10:21:03Z</time></trkpt><trkpt lat="45.47326936597736" lon="7.968782223721468"><ele>519.0</ele><time>2026-04-26T10:21:04Z</time></trkpt><trkpt lat="45.47342830934809" lon="7.968777110389656"><ele>525.0</ele><time>2026-04-26T10:21:05Z</time></trkpt><trkpt lat="45.47359202904614" lon="7.968750567828195"><ele>525.0</ele><time>2026-04-26T10:21:06Z</time></trkpt><trkpt lat="45.47375745914836" lon="7.968718204273529"><ele>525.0</ele><time>2026-04-26T10:21:07Z</time></trkpt><trkpt lat="45.4739212458573" lon="7.968691778640501"><ele>525.0</ele><time>2026-04-26T10:21:08Z</time></trkpt><trkpt lat="45.474082787565955" lon="7.968677777294679"><ele>525.25</ele><time>2026-04-26T10:21:09Z</time></trkpt><trkpt lat="45.47423494341202" lon="7.968674068261526"><ele>525.5</ele><time>2026-04-26T10:21:10Z</time></trkpt><trkpt lat="45.47437780862568" lon="7.968668525639202"><ele>525.75</ele><time>2026-04-26T10:21:11Z</time></trkpt><trkpt lat="45.47450655815916" lon="7.968652903455031"><ele>526.0</ele><time>2026-04-26T10:21:12Z</time></trkpt><trkpt lat="45.47461990481107" lon="7.968643109217429"><ele>525.5</ele><time>2026-04-26T10:21:13Z</time></trkpt><trkpt lat="45.47472002496073" lon="7.968633229519288"><ele>525.0</ele><time>2026-04-26T10:21:14Z</time></trkpt><trkpt lat="45.47480886865" lon="7.968629208116309"><ele>524.5</ele><time>2026-04-26T10:21:15Z</time></trkpt><trkpt lat="45.47488695995193" lon="7.968632118498767"><ele>524.0</ele><time>2026-04-26T10:21:16Z</time></trkpt><trkpt lat="45.47495470583393" lon="7.968669286693033"><ele>523.5</ele><time>2026-04-26T10:21:17Z</time></trkpt><trkpt lat="45.47500659889622" lon="7.96875780202122"><ele>523.0</ele><time>2026-04-26T10:21:18Z</time></trkpt><trkpt lat="45.475014657637416" lon="7.968883301484775"><ele>523.0</ele><time>2026-04-26T10:21:19Z</time></trkpt><trkpt lat="45.47496823300588" lon="7.9690123228074805"><ele>523.0</ele><time>2026-04-26T10:21:20.001Z</time></trkpt><trkpt lat="45.474890033697235" lon="7.969127703760497"><ele>523.0</ele><time>2026-04-26T10:21:21.001Z</time></trkpt><trkpt lat="45.474808077754226" lon="7.9692531338273485"><ele>523.0</ele><time>2026-04-26T10:21:22.001Z</time></trkpt><trkpt lat="45.47474147026412" lon="7.969406512975306"><ele>524.0</ele><time>2026-04-26T10:21:23.001Z</time></trkpt><trkpt lat="45.47469393671056" lon="7.969597710156472"><ele>525.0</ele><time>2026-04-26T10:21:24.001Z</time></trkpt><trkpt lat="45.474653700424426" lon="7.969802634323845"><ele>526.0</ele><time>2026-04-26T10:21:25.001Z</time></trkpt><trkpt lat="45.47460850497445" lon="7.970014219661429"><ele>527.0</ele><time>2026-04-26T10:21:26.001Z</time></trkpt><trkpt lat="45.47456682570938" lon="7.970227886519905"><ele>527.3333333333333</ele><time>2026-04-26T10:21:27.001Z</time></trkpt><trkpt lat="45.474518170215084" lon="7.970448985525841"><ele>527.6666666666666</ele><time>2026-04-26T10:21:28.001Z</time></trkpt><trkpt lat="45.47446987699832" lon="7.970675163436469"><ele>528.0</ele><time>2026-04-26T10:21:29.001Z</time></trkpt><trkpt lat="45.474402499960384" lon="7.9708935084102714"><ele>531.6666666666666</ele><time>2026-04-26T10:21:30.001Z</time></trkpt><trkpt lat="45.47433878321013" lon="7.971106173547655"><ele>535.3333333333333</ele><time>2026-04-26T10:21:31.001Z</time></trkpt><trkpt lat="45.47426653905828" lon="7.971306300590811"><ele>539.0</ele><time>2026-04-26T10:21:32.001Z</time></trkpt><trkpt lat="45.474168922754714" lon="7.971483150664581"><ele>539.0</ele><time>2026-04-26T10:21:33.001Z</time></trkpt><trkpt lat="45.47406504923722" lon="7.971674025900197"><ele>539.0</ele><time>2026-04-26T10:21:34.001Z</time></trkpt><trkpt lat="45.47396138777949" lon="7.97188295637783"><ele>539.0</ele><time>2026-04-26T10:21:35.001Z</time></trkpt><trkpt lat="45.47387446220221" lon="7.972122064818126"><ele>539.0</ele><time>2026-04-26T10:21:36.001Z</time></trkpt><trkpt lat="45.47375980433435" lon="7.9723507383160195"><ele>539.0</ele><time>2026-04-26T10:21:37.001Z</time></trkpt><trkpt lat="45.473654629347884" lon="7.972599842127725"><ele>539.0</ele><time>2026-04-26T10:21:38.001Z</time></trkpt><trkpt lat="45.47354246380759" lon="7.972866287170151"><ele>539.0</ele><time>2026-04-26T10:21:39.001Z</time></trkpt><trkpt lat="45.47343870042042" lon="7.973115259694946"><ele>539.0</ele><time>2026-04-26T10:21:40Z</time></trkpt><trkpt lat="45.4733467802721" lon="7.973356566299308"><ele>539.0</ele><time>2026-04-26T10:21:41Z</time></trkpt><trkpt lat="45.47322237579856" lon="7.973551910027788"><ele>542.0</ele><time>2026-04-26T10:21:42Z</time></trkpt><trkpt lat="45.473104266587804" lon="7.973742478243732"><ele>545.0</ele><time>2026-04-26T10:21:43Z</time></trkpt><trkpt lat="45.47299922337365" lon="7.973954619088344"><ele>548.0</ele><time>2026-04-26T10:21:44Z</time></trkpt><trkpt lat="45.47291571145094" lon="7.97419278092214"><ele>548.0</ele><time>2026-04-26T10:21:45Z</time></trkpt><trkpt lat="45.47282882728907" lon="7.974438745757255"><ele>548.0</ele><time>2026-04-26T10:21:46Z</time></trkpt><trkpt lat="45.47274817722585" lon="7.974695948763341"><ele>548.0</ele><time>2026-04-26T10:21:47Z</time></trkpt><trkpt lat="45.472659486744604" lon="7.974940771826453"><ele>552.3333333333333</ele><time>2026-04-26T10:21:48Z</time></trkpt><trkpt lat="45.47258274212379" lon="7.975182601448934"><ele>556.6666666666666</ele><time>2026-04-26T10:21:49Z</time></trkpt><trkpt lat="45.4724985327436" lon="7.975426395520221"><ele>561.0</ele><time>2026-04-26T10:21:50Z</time></trkpt><trkpt lat="45.47241174830678" lon="7.975688877371038"><ele>564.6666666666666</ele><time>2026-04-26T10:21:51Z</time></trkpt><trkpt lat="45.47232093878065" lon="7.975938111742797"><ele>568.3333333333333</ele><time>2026-04-26T10:21:52Z</time></trkpt><trkpt lat="45.47223913065178" lon="7.976200590321247"><ele>572.0</ele><time>2026-04-26T10:21:53Z</time></trkpt><trkpt lat="45.47215125646399" lon="7.9764553199373704"><ele>565.6666666666666</ele><time>2026-04-26T10:21:54Z</time></trkpt><trkpt lat="45.47204984506918" lon="7.976704197541149"><ele>559.3333333333334</ele><time>2026-04-26T10:21:55Z</time></trkpt><trkpt lat="45.47197304745643" lon="7.976965559937734"><ele>553.0</ele><time>2026-04-26T10:21:56Z</time></trkpt><trkpt lat="45.47185892409491" lon="7.977200500616338"><ele>553.0</ele><time>2026-04-26T10:21:57Z</time></trkpt><trkpt lat="45.471756313276764" lon="7.977452564249033"><ele>553.0</ele><time>2026-04-26T10:21:58Z</time></trkpt><trkpt lat="45.47167868474553" lon="7.977711675207538"><ele>553.0</ele><time>2026-04-26T10:21:59Z</time></trkpt><trkpt lat="45.47158443477421" lon="7.977965863725152"><ele>557.0</ele><time>2026-04-26T10:22:00Z</time></trkpt><trkpt lat="45.47150068737047" lon="7.978231105391543"><ele>561.0</ele><time>2026-04-26T10:22:01Z</time></trkpt><trkpt lat="45.471421584712736" lon="7.978489121414884"><ele>565.0</ele><time>2026-04-26T10:22:02Z</time></trkpt><trkpt lat="45.47133192062427" lon="7.978743934681936"><ele>566.3333333333334</ele><time>2026-04-26T10:22:03Z</time></trkpt><trkpt lat="45.47119767879946" lon="7.9789601755021"><ele>567.6666666666666</ele><time>2026-04-26T10:22:04Z</time></trkpt><trkpt lat="45.47108537230762" lon="7.979205060891271"><ele>569.0</ele><time>2026-04-26T10:22:05Z</time></trkpt><trkpt lat="45.47097196331627" lon="7.979449473132182"><ele>569.0</ele><time>2026-04-26T10:22:06Z</time></trkpt><trkpt lat="45.470878161103315" lon="7.979724241369392"><ele>569.0</ele><time>2026-04-26T10:22:07Z</time></trkpt><trkpt lat="45.47078871538733" lon="7.98000942684057"><ele>569.0</ele><time>2026-04-26T10:22:08Z</time></trkpt><trkpt lat="45.47066614135768" lon="7.98025832792328"><ele>569.6666666666666</ele><time>2026-04-26T10:22:09Z</time></trkpt><trkpt lat="45.47055673802594" lon="7.9805242238632035"><ele>570.3333333333334</ele><time>2026-04-26T10:22:10Z</time></trkpt><trkpt lat="45.47045454574246" lon="7.980799892826345"><ele>571.0</ele><time>2026-04-26T10:22:11Z</time></trkpt><trkpt lat="45.47035057274419" lon="7.981081231538338"><ele>571.0</ele><time>2026-04-26T10:22:12Z</time></trkpt><trkpt lat="45.47024778360522" lon="7.981354464720223"><ele>571.0</ele><time>2026-04-26T10:22:13Z</time></trkpt><trkpt lat="45.47015016106982" lon="7.981605707504772"><ele>571.0</ele><time>2026-04-26T10:22:14Z</time></trkpt><trkpt lat="45.470072929951066" lon="7.981848880367129"><ele>575.0</ele><time>2026-04-26T10:22:15Z</time></trkpt><trkpt lat="45.469985104446536" lon="7.982061653865009"><ele>579.0</ele><time>2026-04-26T10:22:16Z</time></trkpt><trkpt lat="45.46991654416474" lon="7.982256304108734"><ele>583.0</ele><time>2026-04-26T10:22:17Z</time></trkpt><trkpt lat="45.46985698110492" lon="7.982426493783053"><ele>583.75</ele><time>2026-04-26T10:22:18Z</time></trkpt><trkpt lat="45.46983482379351" lon="7.982585815545883"><ele>584.5</ele><time>2026-04-26T10:22:19Z</time></trkpt><trkpt lat="45.469860763687485" lon="7.982742560038901"><ele>585.25</ele><time>2026-04-26T10:22:20Z</time></trkpt><trkpt lat="45.46993164210475" lon="7.982907558639918"><ele>586.0</ele><time>2026-04-26T10:22:21Z</time></trkpt><trkpt lat="45.47001558234263" lon="7.983076496036872"><ele>586.0</ele><time>2026-04-26T10:22:22Z</time></trkpt><trkpt lat="45.47009442492217" lon="7.98325909441222"><ele>586.0</ele><time>2026-04-26T10:22:23Z</time></trkpt><trkpt lat="45.4701694412304" lon="7.983444454402507"><ele>586.0</ele><time>2026-04-26T10:22:24Z</time></trkpt><trkpt lat="45.4702663159136" lon="7.983611024090935"><ele>588.3333333333334</ele><time>2026-04-26T10:22:25Z</time></trkpt><trkpt lat="45.47038877072677" lon="7.983749457407522"><ele>590.6666666666666</ele><time>2026-04-26T10:22:26Z</time></trkpt><trkpt lat="45.470533973881935" lon="7.983836444889236"><ele>593.0</ele><time>2026-04-26T10:22:27Z</time></trkpt><trkpt lat="45.47068142573571" lon="7.983882750522283"><ele>593.0</ele><time>2026-04-26T10:22:28Z</time></trkpt><trkpt lat="45.47079602144276" lon="7.983942637347999"><ele>593.0</ele><time>2026-04-26T10:22:29Z</time></trkpt><trkpt lat="45.470890197627526" lon="7.984020761794062"><ele>593.0</ele><time>2026-04-26T10:22:30Z</time></trkpt><trkpt lat="45.47107047482127" lon="7.983783916651544"><ele>593.0</ele><time>2026-04-26T10:22:31Z</time></trkpt><trkpt lat="45.47118816330436" lon="7.9836408299721855"><ele>593.0</ele><time>2026-04-26T10:22:32Z</time></trkpt><trkpt lat="45.471300704650886" lon="7.983471168295484"><ele>593.0</ele><time>2026-04-26T10:22:33Z</time></trkpt><trkpt lat="45.471436540174935" lon="7.98334809065321"><ele>591.0</ele><time>2026-04-26T10:22:34Z</time></trkpt><trkpt lat="45.471585737889896" lon="7.983234605736078"><ele>589.0</ele><time>2026-04-26T10:22:35Z</time></trkpt><trkpt lat="45.47173856648727" lon="7.983103692798314"><ele>587.0</ele><time>2026-04-26T10:22:36Z</time></trkpt><trkpt lat="45.47189906460088" lon="7.982997532137417"><ele>587.0</ele><time>2026-04-26T10:22:37Z</time></trkpt><trkpt lat="45.47205463869234" lon="7.98286406345438"><ele>587.0</ele><time>2026-04-26T10:22:38Z</time></trkpt><trkpt lat="45.47219568306785" lon="7.982709291433967"><ele>587.0</ele><time>2026-04-26T10:22:39Z</time></trkpt><trkpt lat="45.472319793616464" lon="7.982541105103687"><ele>585.6666666666666</ele><time>2026-04-26T10:22:40Z</time></trkpt><trkpt lat="45.472429997666545" lon="7.982380114032289"><ele>584.3333333333334</ele><time>2026-04-26T10:22:41Z</time></trkpt><trkpt lat="45.47253929931011" lon="7.982210314545768"><ele>583.0</ele><time>2026-04-26T10:22:42Z</time></trkpt><trkpt lat="45.47262485003482" lon="7.982020826306105"><ele>583.0</ele><time>2026-04-26T10:22:43Z</time></trkpt><trkpt lat="45.472702751184045" lon="7.9818116955194895"><ele>583.0</ele><time>2026-04-26T10:22:44Z</time></trkpt><trkpt lat="45.472809121941765" lon="7.981627345210641"><ele>583.0</ele><time>2026-04-26T10:22:45Z</time></trkpt><trkpt lat="45.472910644572835" lon="7.981456813265168"><ele>581.25</ele><time>2026-04-26T10:22:46Z</time></trkpt><trkpt lat="45.47300526135626" lon="7.981296913895681"><ele>579.5</ele><time>2026-04-26T10:22:47Z</time></trkpt><trkpt lat="45.4730957147303" lon="7.981171945348209"><ele>577.75</ele><time>2026-04-26T10:22:48Z</time></trkpt><trkpt lat="45.47319369862833" lon="7.981073748164576"><ele>576.0</ele><time>2026-04-26T10:22:49Z</time></trkpt><trkpt lat="45.473303334935146" lon="7.981021624847039"><ele>576.0</ele><time>2026-04-26T10:22:50Z</time></trkpt><trkpt lat="45.47343149932095" lon="7.9810218089598"><ele>576.0</ele><time>2026-04-26T10:22:51Z</time></trkpt><trkpt lat="45.47356557529992" lon="7.981107409132124"><ele>576.0</ele><time>2026-04-26T10:22:52Z</time></trkpt><trkpt lat="45.47369614593242" lon="7.98122420848515"><ele>576.0</ele><time>2026-04-26T10:22:53Z</time></trkpt><trkpt lat="45.47381886394814" lon="7.981367985547459"><ele>576.3333333333334</ele><time>2026-04-26T10:22:54Z</time></trkpt><trkpt lat="45.473949432367576" lon="7.981516914727697"><ele>576.6666666666667</ele><time>2026-04-26T10:22:55Z</time></trkpt><trkpt lat="45.47407828435219" lon="7.981657613589587"><ele>577.0</ele><time>2026-04-26T10:22:56Z</time></trkpt><trkpt lat="45.47420541241363" lon="7.9818005778884995"><ele>577.0</ele><time>2026-04-26T10:22:57Z</time></trkpt><trkpt lat="45.47431975469964" lon="7.981932673665608"><ele>577.0</ele><time>2026-04-26T10:22:58Z</time></trkpt><trkpt lat="45.474425738668856" lon="7.982059333529397"><ele>577.0</ele><time>2026-04-26T10:22:59Z</time></trkpt><trkpt lat="45.47452215108446" lon="7.982165502627907"><ele>577.0</ele><time>2026-04-26T10:23:00Z</time></trkpt><trkpt lat="45.47461120502658" lon="7.982248586354805"><ele>575.5</ele><time>2026-04-26T10:23:01Z</time></trkpt><trkpt lat="45.474710588574894" lon="7.982289780569437"><ele>574.0</ele><time>2026-04-26T10:23:02Z</time></trkpt><trkpt lat="45.47482325380562" lon="7.982279523520385"><ele>572.5</ele><time>2026-04-26T10:23:03Z</time></trkpt><trkpt lat="45.474922226907566" lon="7.982153946128578"><ele>571.0</ele><time>2026-04-26T10:23:04Z</time></trkpt><trkpt lat="45.47500585297941" lon="7.9820048730273765"><ele>571.0</ele><time>2026-04-26T10:23:05Z</time></trkpt><trkpt lat="45.47510833565294" lon="7.98184957372916"><ele>571.0</ele><time>2026-04-26T10:23:06Z</time></trkpt><trkpt lat="45.47521021622898" lon="7.981669560532149"><ele>571.0</ele><time>2026-04-26T10:23:07Z</time></trkpt><trkpt lat="45.47531492720527" lon="7.981482494757921"><ele>570.0</ele><time>2026-04-26T10:23:08Z</time></trkpt><trkpt lat="45.47542248461091" lon="7.981288867048283"><ele>569.0</ele><time>2026-04-26T10:23:09Z</time></trkpt><trkpt lat="45.475543655734505" lon="7.981090044311772"><ele>568.0</ele><time>2026-04-26T10:23:10Z</time></trkpt><trkpt lat="45.47567645656034" lon="7.980899844309106"><ele>571.3333333333334</ele><time>2026-04-26T10:23:11Z</time></trkpt><trkpt lat="45.47581564053852" lon="7.980707685970273"><ele>574.6666666666666</ele><time>2026-04-26T10:23:12Z</time></trkpt><trkpt lat="45.47596143041036" lon="7.980509511722484"><ele>578.0</ele><time>2026-04-26T10:23:13Z</time></trkpt><trkpt lat="45.476106532706424" lon="7.980316714303589"><ele>578.0</ele><time>2026-04-26T10:23:14Z</time></trkpt><trkpt lat="45.47625039700213" lon="7.980124858827348"><ele>578.0</ele><time>2026-04-26T10:23:15Z</time></trkpt><trkpt lat="45.476394958098986" lon="7.979929113375643"><ele>578.0</ele><time>2026-04-26T10:23:16Z</time></trkpt><trkpt lat="45.47654113618349" lon="7.97973462909086"><ele>578.0</ele><time>2026-04-26T10:23:17Z</time></trkpt><trkpt lat="45.476683687317006" lon="7.979538433384999"><ele>578.0</ele><time>2026-04-26T10:23:18Z</time></trkpt><trkpt lat="45.47681621113503" lon="7.979343943086017"><ele>578.0</ele><time>2026-04-26T10:23:19Z</time></trkpt><trkpt lat="45.47694097498118" lon="7.979152693438183"><ele>577.0</ele><time>2026-04-26T10:23:20Z</time></trkpt><trkpt lat="45.47705480361736" lon="7.978973611261597"><ele>576.0</ele><time>2026-04-26T10:23:21Z</time></trkpt><trkpt lat="45.47717843300146" lon="7.978829508052454"><ele>575.0</ele><time>2026-04-26T10:23:22Z</time></trkpt><trkpt lat="45.47728661246236" lon="7.978668556206365"><ele>575.0</ele><time>2026-04-26T10:23:23Z</time></trkpt><trkpt lat="45.47740019956437" lon="7.978499558237105"><ele>575.0</ele><time>2026-04-26T10:23:24Z</time></trkpt><trkpt lat="45.477504371768546" lon="7.978312864778281"><ele>575.0</ele><time>2026-04-26T10:23:25Z</time></trkpt><trkpt lat="45.47762677700445" lon="7.97815167196301"><ele>574.0</ele><time>2026-04-26T10:23:26Z</time></trkpt><trkpt lat="45.477753325504125" lon="7.9779871514454"><ele>573.0</ele><time>2026-04-26T10:23:27Z</time></trkpt><trkpt lat="45.47788616139714" lon="7.977823435686133"><ele>572.0</ele><time>2026-04-26T10:23:28Z</time></trkpt><trkpt lat="45.478026976459795" lon="7.977672925184416"><ele>572.0</ele><time>2026-04-26T10:23:29Z</time></trkpt><trkpt lat="45.478174096700464" lon="7.977543284813206"><ele>572.0</ele><time>2026-04-26T10:23:30Z</time></trkpt><trkpt lat="45.47831835805917" lon="7.977427316310308"><ele>572.0</ele><time>2026-04-26T10:23:31Z</time></trkpt><trkpt lat="45.47844676836059" lon="7.977309977966248"><ele>573.3333333333333</ele><time>2026-04-26T10:23:32Z</time></trkpt><trkpt lat="45.478560865068076" lon="7.977183931573105"><ele>574.6666666666666</ele><time>2026-04-26T10:23:33Z</time></trkpt><trkpt lat="45.47866234467737" lon="7.977030727444612"><ele>576.0</ele><time>2026-04-26T10:23:34Z</time></trkpt><trkpt lat="45.47874752384179" lon="7.9768408876159125"><ele>572.3333333333334</ele><time>2026-04-26T10:23:35Z</time></trkpt><trkpt lat="45.47883161125173" lon="7.976626965158468"><ele>568.6666666666667</ele><time>2026-04-26T10:23:36Z</time></trkpt><trkpt lat="45.47891531033577" lon="7.976410996366456"><ele>565.0</ele><time>2026-04-26T10:23:37Z</time></trkpt><trkpt lat="45.47900232042878" lon="7.97618406272845"><ele>565.0</ele><time>2026-04-26T10:23:38Z</time></trkpt><trkpt lat="45.47908677150525" lon="7.975955531924541"><ele>565.0</ele><time>2026-04-26T10:23:39Z</time></trkpt><trkpt lat="45.47916816253607" lon="7.975732744271228"><ele>565.0</ele><time>2026-04-26T10:23:40Z</time></trkpt><trkpt lat="45.47926000682576" lon="7.975535451835414"><ele>567.6666666666667</ele><time>2026-04-26T10:23:41Z</time></trkpt><trkpt lat="45.4793697478729" lon="7.975349150965166"><ele>570.3333333333334</ele><time>2026-04-26T10:23:42.001Z</time></trkpt><trkpt lat="45.479500134187745" lon="7.975171827568925"><ele>573.0</ele><time>2026-04-26T10:23:43.001Z</time></trkpt><trkpt lat="45.479655748978864" lon="7.9750250700669225"><ele>570.6666666666666</ele><time>2026-04-26T10:23:44.001Z</time></trkpt><trkpt lat="45.47980839778486" lon="7.974861875838813"><ele>568.3333333333333</ele><time>2026-04-26T10:23:45.001Z</time></trkpt><trkpt lat="45.47996672621826" lon="7.974699611957991"><ele>566.0</ele><time>2026-04-26T10:23:46Z</time></trkpt><trkpt lat="45.48012345004015" lon="7.974544799266913"><ele>566.0</ele><time>2026-04-26T10:23:47Z</time></trkpt><trkpt lat="45.48028263646046" lon="7.97439871464852"><ele>566.0</ele><time>2026-04-26T10:23:48Z</time></trkpt><trkpt lat="45.480442952174606" lon="7.974264297360742"><ele>566.0</ele><time>2026-04-26T10:23:49Z</time></trkpt><trkpt lat="45.48061496568997" lon="7.974123634992776"><ele>565.3333333333333</ele><time>2026-04-26T10:23:50Z</time></trkpt><trkpt lat="45.48080469639114" lon="7.974028051191589"><ele>564.6666666666666</ele><time>2026-04-26T10:23:51Z</time></trkpt><trkpt lat="45.48097640050354" lon="7.973923333574896"><ele>564.0</ele><time>2026-04-26T10:23:52Z</time></trkpt><trkpt lat="45.48113502485777" lon="7.973823292649989"><ele>563.6666666666666</ele><time>2026-04-26T10:23:53Z</time></trkpt><trkpt lat="45.481291909734374" lon="7.973732440755358"><ele>563.3333333333333</ele><time>2026-04-26T10:23:54Z</time></trkpt><trkpt lat="45.4814527690263" lon="7.973670882403497"><ele>563.0</ele><time>2026-04-26T10:23:55Z</time></trkpt><trkpt lat="45.4816232573164" lon="7.973647874061967"><ele>563.0</ele><time>2026-04-26T10:23:56Z</time></trkpt><trkpt lat="45.4817936892867" lon="7.973658716402955"><ele>563.0</ele><time>2026-04-26T10:23:57Z</time></trkpt><trkpt lat="45.48195237833516" lon="7.973663458509569"><ele>563.0</ele><time>2026-04-26T10:23:58Z</time></trkpt><trkpt lat="45.48209567365509" lon="7.973659771326523"><ele>561.25</ele><time>2026-04-26T10:23:59Z</time></trkpt><trkpt lat="45.48221803487938" lon="7.973643763301633"><ele>559.5</ele><time>2026-04-26T10:24:00Z</time></trkpt><trkpt lat="45.48232840259819" lon="7.97359024588174"><ele>557.75</ele><time>2026-04-26T10:24:01Z</time></trkpt><trkpt lat="45.48244222078366" lon="7.973488971651303"><ele>556.0</ele><time>2026-04-26T10:24:02Z</time></trkpt><trkpt lat="45.482557567640846" lon="7.9733614578948835"><ele>558.6666666666667</ele><time>2026-04-26T10:24:03Z</time></trkpt><trkpt lat="45.48267858359521" lon="7.973238446619196"><ele>561.3333333333334</ele><time>2026-04-26T10:24:04Z</time></trkpt><trkpt lat="45.4827982597214" lon="7.973095829201434"><ele>564.0</ele><time>2026-04-26T10:24:05Z</time></trkpt><trkpt lat="45.48290973248215" lon="7.972928338747891"><ele>562.0</ele><time>2026-04-26T10:24:06Z</time></trkpt><trkpt lat="45.483011039169476" lon="7.972752318713547"><ele>560.0</ele><time>2026-04-26T10:24:07Z</time></trkpt><trkpt lat="45.48311324441243" lon="7.972571344892656"><ele>558.0</ele><time>2026-04-26T10:24:08Z</time></trkpt><trkpt lat="45.48322952047522" lon="7.972408704884427"><ele>558.0</ele><time>2026-04-26T10:24:09Z</time></trkpt><trkpt lat="45.48335381764582" lon="7.972267357240999"><ele>558.0</ele><time>2026-04-26T10:24:10Z</time></trkpt><trkpt lat="45.483496367173" lon="7.972157560658636"><ele>558.0</ele><time>2026-04-26T10:24:11Z</time></trkpt><trkpt lat="45.483640059822854" lon="7.972040462826422"><ele>557.0</ele><time>2026-04-26T10:24:12Z</time></trkpt><trkpt lat="45.48378741355733" lon="7.971934147545478"><ele>556.0</ele><time>2026-04-26T10:24:13Z</time></trkpt><trkpt lat="45.48392287702908" lon="7.971798744157507"><ele>555.0</ele><time>2026-04-26T10:24:14Z</time></trkpt><trkpt lat="45.48405082285864" lon="7.971646359508469"><ele>555.0</ele><time>2026-04-26T10:24:15Z</time></trkpt><trkpt lat="45.48417137105742" lon="7.971484727488365"><ele>555.0</ele><time>2026-04-26T10:24:16Z</time></trkpt><trkpt lat="45.4842814361777" lon="7.971337087174665"><ele>555.0</ele><time>2026-04-26T10:24:17Z</time></trkpt><trkpt lat="45.48438988899038" lon="7.971209823560636"><ele>555.0</ele><time>2026-04-26T10:24:18Z</time></trkpt><trkpt lat="45.48449257456928" lon="7.971103739123844"><ele>555.0</ele><time>2026-04-26T10:24:19Z</time></trkpt><trkpt lat="45.48461186102245" lon="7.971011132101153"><ele>555.0</ele><time>2026-04-26T10:24:20Z</time></trkpt><trkpt lat="45.484749562898536" lon="7.97094900959052"><ele>555.0</ele><time>2026-04-26T10:24:21Z</time></trkpt><trkpt lat="45.48489570066682" lon="7.970921748479435"><ele>552.6666666666666</ele><time>2026-04-26T10:24:22Z</time></trkpt><trkpt lat="45.485041840388774" lon="7.9708890174583695"><ele>550.3333333333333</ele><time>2026-04-26T10:24:23Z</time></trkpt><trkpt lat="45.48520211035174" lon="7.970843874649356"><ele>548.0</ele><time>2026-04-26T10:24:24Z</time></trkpt><trkpt lat="45.48536190233392" lon="7.970770363534906"><ele>545.3333333333333</ele><time>2026-04-26T10:24:25Z</time></trkpt><trkpt lat="45.485518402549346" lon="7.97067426617933"><ele>542.6666666666666</ele><time>2026-04-26T10:24:26Z</time></trkpt><trkpt lat="45.48566605442339" lon="7.970572771808912"><ele>540.0</ele><time>2026-04-26T10:24:27Z</time></trkpt><trkpt lat="45.485802057199294" lon="7.970472174656201"><ele>540.0</ele><time>2026-04-26T10:24:28Z</time></trkpt><trkpt lat="45.485928549246594" lon="7.970390053666367"><ele>540.0</ele><time>2026-04-26T10:24:29Z</time></trkpt><trkpt lat="45.48604276589446" lon="7.970326114375092"><ele>540.0</ele><time>2026-04-26T10:24:30Z</time></trkpt><trkpt lat="45.4861601722623" lon="7.970305003214306"><ele>540.0</ele><time>2026-04-26T10:24:31Z</time></trkpt><trkpt lat="45.48627571361846" lon="7.970326120409156"><ele>538.75</ele><time>2026-04-26T10:24:32Z</time></trkpt><trkpt lat="45.48638680848734" lon="7.9704144564253765"><ele>537.5</ele><time>2026-04-26T10:24:33Z</time></trkpt><trkpt lat="45.48648220151522" lon="7.970545557252536"><ele>536.25</ele><time>2026-04-26T10:24:34Z</time></trkpt><trkpt lat="45.48658976344097" lon="7.97067699592711"><ele>535.0</ele><time>2026-04-26T10:24:35Z</time></trkpt><trkpt lat="45.48671028132164" lon="7.97080958701395"><ele>535.3333333333334</ele><time>2026-04-26T10:24:36Z</time></trkpt><trkpt lat="45.4868361350003" lon="7.970950215821891"><ele>535.6666666666666</ele><time>2026-04-26T10:24:37Z</time></trkpt><trkpt lat="45.48696731604989" lon="7.971100702500119"><ele>536.0</ele><time>2026-04-26T10:24:38Z</time></trkpt><trkpt lat="45.487100048533456" lon="7.971256241688571"><ele>536.3333333333333</ele><time>2026-04-26T10:24:39Z</time></trkpt><trkpt lat="45.48723749320638" lon="7.9714153645195385"><ele>536.6666666666666</ele><time>2026-04-26T10:24:40Z</time></trkpt><trkpt lat="45.487376262666636" lon="7.9715749230742"><ele>537.0</ele><time>2026-04-26T10:24:41Z</time></trkpt><trkpt lat="45.487510410665294" lon="7.971729620309281"><ele>537.0</ele><time>2026-04-26T10:24:42Z</time></trkpt><trkpt lat="45.48763163375065" lon="7.971873411145835"><ele>537.0</ele><time>2026-04-26T10:24:43Z</time></trkpt><trkpt lat="45.48773693154574" lon="7.971999760634135"><ele>537.0</ele><time>2026-04-26T10:24:44Z</time></trkpt><trkpt lat="45.48783751896903" lon="7.9721385773821165"><ele>537.0</ele><time>2026-04-26T10:24:45Z</time></trkpt><trkpt lat="45.48791137237719" lon="7.972309053559832"><ele>536.75</ele><time>2026-04-26T10:24:46Z</time></trkpt><trkpt lat="45.48795225329704" lon="7.972506148974515"><ele>536.5</ele><time>2026-04-26T10:24:47Z</time></trkpt><trkpt lat="45.48796490547653" lon="7.972717236310762"><ele>536.25</ele><time>2026-04-26T10:24:48Z</time></trkpt><trkpt lat="45.487950102358" lon="7.972935214195749"><ele>536.0</ele><time>2026-04-26T10:24:49Z</time></trkpt><trkpt lat="45.48791886012733" lon="7.97316611542676"><ele>537.0</ele><time>2026-04-26T10:24:50Z</time></trkpt><trkpt lat="45.487884059487584" lon="7.973409774103956"><ele>538.0</ele><time>2026-04-26T10:24:51Z</time></trkpt><trkpt lat="45.48785310226972" lon="7.973662727928212"><ele>539.0</ele><time>2026-04-26T10:24:52Z</time></trkpt><trkpt lat="45.48782388088529" lon="7.973930322791262"><ele>539.0</ele><time>2026-04-26T10:24:53Z</time></trkpt><trkpt lat="45.487790218794714" lon="7.974197359042295"><ele>539.0</ele><time>2026-04-26T10:24:54Z</time></trkpt><trkpt lat="45.4877629943317" lon="7.9744508091028266"><ele>539.0</ele><time>2026-04-26T10:24:55Z</time></trkpt><trkpt lat="45.48774086825747" lon="7.974705215540414"><ele>539.0</ele><time>2026-04-26T10:24:56Z</time></trkpt><trkpt lat="45.48770398497747" lon="7.9749654718438725"><ele>539.0</ele><time>2026-04-26T10:24:57Z</time></trkpt><trkpt lat="45.48767336028904" lon="7.975231188706601"><ele>539.0</ele><time>2026-04-26T10:24:58Z</time></trkpt><trkpt lat="45.48764515825241" lon="7.975475885142196"><ele>540.6666666666666</ele><time>2026-04-26T10:24:59Z</time></trkpt><trkpt lat="45.48761220042922" lon="7.975836409376538"><ele>542.3333333333334</ele><time>2026-04-26T10:25:00Z</time></trkpt><trkpt lat="45.487578663515684" lon="7.976106791629943"><ele>544.0</ele><time>2026-04-26T10:25:01Z</time></trkpt><trkpt lat="45.487514801971926" lon="7.976365914218882"><ele>546.3333333333334</ele><time>2026-04-26T10:25:02Z</time></trkpt><trkpt lat="45.48744396956832" lon="7.9766255624978335"><ele>548.6666666666666</ele><time>2026-04-26T10:25:03Z</time></trkpt><trkpt lat="45.48737532851396" lon="7.976865413717216"><ele>551.0</ele><time>2026-04-26T10:25:04Z</time></trkpt><trkpt lat="45.48732719208079" lon="7.977089255733463"><ele>551.0</ele><time>2026-04-26T10:25:05Z</time></trkpt><trkpt lat="45.487273521148985" lon="7.977271308787161"><ele>551.0</ele><time>2026-04-26T10:25:06Z</time></trkpt><trkpt lat="45.48724299771923" lon="7.977435605702757"><ele>551.0</ele><time>2026-04-26T10:25:07Z</time></trkpt><trkpt lat="45.48724033193561" lon="7.977603942089349"><ele>551.0</ele><time>2026-04-26T10:25:08Z</time></trkpt><trkpt lat="45.487274273380365" lon="7.9777806847026635"><ele>551.0</ele><time>2026-04-26T10:25:09Z</time></trkpt><trkpt lat="45.48737639263109" lon="7.977916501599948"><ele>551.0</ele><time>2026-04-26T10:25:10Z</time></trkpt><trkpt lat="45.48746229264293" lon="7.9780929818983175"><ele>551.0</ele><time>2026-04-26T10:25:11Z</time></trkpt><trkpt lat="45.487573853981885" lon="7.978257834707977"><ele>552.3333333333333</ele><time>2026-04-26T10:25:12Z</time></trkpt><trkpt lat="45.48767477140683" lon="7.978436254644658"><ele>553.6666666666666</ele><time>2026-04-26T10:25:13Z</time></trkpt><trkpt lat="45.487730820022186" lon="7.978638470871411"><ele>555.0</ele><time>2026-04-26T10:25:14Z</time></trkpt><trkpt lat="45.48774024045615" lon="7.978840949685093"><ele>555.0</ele><time>2026-04-26T10:25:15Z</time></trkpt><trkpt lat="45.48770156678497" lon="7.979028889086062"><ele>555.0</ele><time>2026-04-26T10:25:16Z</time></trkpt><trkpt lat="45.48762912689756" lon="7.979197936576601"><ele>555.0</ele><time>2026-04-26T10:25:17Z</time></trkpt><trkpt lat="45.4875390170858" lon="7.979381620565539"><ele>555.0</ele><time>2026-04-26T10:25:18Z</time></trkpt><trkpt lat="45.48743268608802" lon="7.979575238594344"><ele>557.3333333333334</ele><time>2026-04-26T10:25:19Z</time></trkpt><trkpt lat="45.48732176201065" lon="7.97977937453316"><ele>559.6666666666667</ele><time>2026-04-26T10:25:20Z</time></trkpt><trkpt lat="45.48721674466973" lon="7.979976200833674"><ele>562.0</ele><time>2026-04-26T10:25:21Z</time></trkpt><trkpt lat="45.4871001397366" lon="7.9801990124921875"><ele>559.3333333333334</ele><time>2026-04-26T10:25:22Z</time></trkpt><trkpt lat="45.48699138896275" lon="7.9804018179098035"><ele>556.6666666666666</ele><time>2026-04-26T10:25:23Z</time></trkpt><trkpt lat="45.48688054828166" lon="7.9806040310909045"><ele>554.0</ele><time>2026-04-26T10:25:24Z</time></trkpt><trkpt lat="45.486771953739485" lon="7.980809588433587"><ele>555.75</ele><time>2026-04-26T10:25:25Z</time></trkpt><trkpt lat="45.486675651296196" lon="7.9809934881521505"><ele>557.5</ele><time>2026-04-26T10:25:26Z</time></trkpt><trkpt lat="45.48659325013051" lon="7.981148448628639"><ele>559.25</ele><time>2026-04-26T10:25:27Z</time></trkpt><trkpt lat="45.48651668223901" lon="7.9812850708589655"><ele>561.0</ele><time>2026-04-26T10:25:28Z</time></trkpt><trkpt lat="45.48645023367946" lon="7.981407445882288"><ele>561.0</ele><time>2026-04-26T10:25:29Z</time></trkpt><trkpt lat="45.48640467587737" lon="7.981554229763193"><ele>561.0</ele><time>2026-04-26T10:25:30Z</time></trkpt><trkpt lat="45.486386520592134" lon="7.981718863093601"><ele>561.0</ele><time>2026-04-26T10:25:31Z</time></trkpt><trkpt lat="45.486394077093344" lon="7.981891617930753"><ele>561.0</ele><time>2026-04-26T10:25:32Z</time></trkpt><trkpt lat="45.486440742812185" lon="7.982063249714334"><ele>561.0</ele><time>2026-04-26T10:25:33Z</time></trkpt><trkpt lat="45.486503985204195" lon="7.982228212314272"><ele>561.0</ele><time>2026-04-26T10:25:34Z</time></trkpt><trkpt lat="45.486585190284764" lon="7.98238244270375"><ele>561.0</ele><time>2026-04-26T10:25:35Z</time></trkpt><trkpt lat="45.4866694511654" lon="7.982545925602192"><ele>561.0</ele><time>2026-04-26T10:25:36Z</time></trkpt><trkpt lat="45.486746218783814" lon="7.9827227677157"><ele>559.3333333333334</ele><time>2026-04-26T10:25:37Z</time></trkpt><trkpt lat="45.486828109818774" lon="7.982917356897859"><ele>557.6666666666667</ele><time>2026-04-26T10:25:38Z</time></trkpt><trkpt lat="45.48691094392502" lon="7.983113133143491"><ele>556.0</ele><time>2026-04-26T10:25:39Z</time></trkpt><trkpt lat="45.486990168339055" lon="7.983307772187127"><ele>554.75</ele><time>2026-04-26T10:25:40Z</time></trkpt><trkpt lat="45.48704750785078" lon="7.983500797600568"><ele>553.5</ele><time>2026-04-26T10:25:41Z</time></trkpt><trkpt lat="45.4870521383091" lon="7.983700578340661"><ele>552.25</ele><time>2026-04-26T10:25:42Z</time></trkpt><trkpt lat="45.487035483767414" lon="7.983893430738151"><ele>551.0</ele><time>2026-04-26T10:25:43Z</time></trkpt><trkpt lat="45.48697839125362" lon="7.984067971677783"><ele>550.0</ele><time>2026-04-26T10:25:44Z</time></trkpt><trkpt lat="45.48689477146343" lon="7.984230113201353"><ele>549.0</ele><time>2026-04-26T10:25:45Z</time></trkpt><trkpt lat="45.486789591320345" lon="7.984382067606446"><ele>548.0</ele><time>2026-04-26T10:25:46Z</time></trkpt><trkpt lat="45.486681412877246" lon="7.984535171535089"><ele>547.0</ele><time>2026-04-26T10:25:47Z</time></trkpt><trkpt lat="45.48656691489029" lon="7.984682966974299"><ele>547.0</ele><time>2026-04-26T10:25:48Z</time></trkpt><trkpt lat="45.48647449763947" lon="7.9848434913898565"><ele>547.0</ele><time>2026-04-26T10:25:49Z</time></trkpt><trkpt lat="45.48641156068229" lon="7.985024245080553"><ele>547.0</ele><time>2026-04-26T10:25:50Z</time></trkpt><trkpt lat="45.48638060657608" lon="7.985229087198925"><ele>547.0</ele><time>2026-04-26T10:25:51Z</time></trkpt><trkpt lat="45.48636979091198" lon="7.985442307602428"><ele>546.8000000000001</ele><time>2026-04-26T10:25:52Z</time></trkpt><trkpt lat="45.48636645275548" lon="7.985620422795347"><ele>546.6</ele><time>2026-04-26T10:25:53Z</time></trkpt><trkpt lat="45.486361646650636" lon="7.985750453973034"><ele>546.4000000000001</ele><time>2026-04-26T10:25:54Z</time></trkpt><trkpt lat="45.48635335317764" lon="7.985847796614507"><ele>546.2</ele><time>2026-04-26T10:25:55Z</time></trkpt><trkpt lat="45.486358246181005" lon="7.9860786634538306"><ele>546.0</ele><time>2026-04-26T10:26:08Z</time></trkpt><trkpt lat="45.486351515929094" lon="7.986212200729542"><ele>546.0</ele><time>2026-04-26T10:26:09Z</time></trkpt><trkpt lat="45.486340593907364" lon="7.986363439016621"><ele>546.0</ele><time>2026-04-26T10:26:10Z</time></trkpt><trkpt lat="45.486335333620524" lon="7.986525082424226"><ele>546.0</ele><time>2026-04-26T10:26:11Z</time></trkpt><trkpt lat="45.486346120814986" lon="7.986662156622543"><ele>546.0</ele><time>2026-04-26T10:26:12Z</time></trkpt><trkpt lat="45.48637325485197" lon="7.986768204185824"><ele>546.0</ele><time>2026-04-26T10:26:13Z</time></trkpt><trkpt lat="45.48643068245752" lon="7.986887074944824"><ele>545.25</ele><time>2026-04-26T10:26:15Z</time></trkpt><trkpt lat="45.48639957610944" lon="7.98706719728534"><ele>544.5</ele><time>2026-04-26T10:29:20Z</time></trkpt><trkpt lat="45.486416063844985" lon="7.987224165245543"><ele>543.75</ele><time>2026-04-26T10:29:22Z</time></trkpt><trkpt lat="45.486407579818014" lon="7.98740094871176"><ele>543.0</ele><time>2026-04-26T10:29:24Z</time></trkpt><trkpt lat="45.486387982853856" lon="7.987547410982942"><ele>542.1666666666666</ele><time>2026-04-26T10:29:26Z</time></trkpt><trkpt lat="45.486329840975664" lon="7.987692932875806"><ele>541.3333333333334</ele><time>2026-04-26T10:29:28Z</time></trkpt><trkpt lat="45.48624554996681" lon="7.987688702334232"><ele>540.5</ele><time>2026-04-26T10:29:29Z</time></trkpt><trkpt lat="45.48619043550561" lon="7.987743391531071"><ele>539.6666666666667</ele><time>2026-04-26T10:29:30Z</time></trkpt><trkpt lat="45.48613738178634" lon="7.987801332204353"><ele>538.8333333333334</ele><time>2026-04-26T10:29:31Z</time></trkpt><trkpt lat="45.48607290256673" lon="7.987934848787754"><ele>538.0</ele><time>2026-04-26T10:29:33Z</time></trkpt><trkpt lat="45.48606715285098" lon="7.988033284579451"><ele>538.0</ele><time>2026-04-26T10:29:34Z</time></trkpt><trkpt lat="45.486064293435994" lon="7.988123007262443"><ele>538.0</ele><time>2026-04-26T10:29:35Z</time></trkpt><trkpt lat="45.486063421637915" lon="7.9882148191290785"><ele>538.0</ele><time>2026-04-26T10:29:36Z</time></trkpt><trkpt lat="45.48606656579676" lon="7.988370427033458"><ele>538.0</ele><time>2026-04-26T10:29:38Z</time></trkpt><trkpt lat="45.48607950697816" lon="7.988525481954403"><ele>538.0</ele><time>2026-04-26T10:29:40Z</time></trkpt><trkpt lat="45.486091123050095" lon="7.988701217808156"><ele>537.3333333333334</ele><time>2026-04-26T10:29:42Z</time></trkpt><trkpt lat="45.486120400516825" lon="7.988807578644089"><ele>536.6666666666667</ele><time>2026-04-26T10:29:43Z</time></trkpt><trkpt lat="45.48615026930363" lon="7.988898915369625"><ele>536.0</ele><time>2026-04-26T10:29:44Z</time></trkpt><trkpt lat="45.48616711525223" lon="7.989006967496122"><ele>535.3333333333334</ele><time>2026-04-26T10:29:45Z</time></trkpt><trkpt lat="45.48618213385795" lon="7.989106479059497"><ele>534.6666666666666</ele><time>2026-04-26T10:29:46Z</time></trkpt><trkpt lat="45.4862055482016" lon="7.989217711622929"><ele>534.0</ele><time>2026-04-26T10:29:47Z</time></trkpt><trkpt lat="45.48623162438723" lon="7.989333623452844"><ele>533.8333333333334</ele><time>2026-04-26T10:29:48Z</time></trkpt><trkpt lat="45.486251890764116" lon="7.989437461545537"><ele>533.6666666666666</ele><time>2026-04-26T10:29:49Z</time></trkpt><trkpt lat="45.486268763531406" lon="7.9895298607503635"><ele>533.5</ele><time>2026-04-26T10:29:50Z</time></trkpt><trkpt lat="45.48628440900256" lon="7.989629139799325"><ele>533.3333333333333</ele><time>2026-04-26T10:29:51Z</time></trkpt><trkpt lat="45.486291129893914" lon="7.98971861861429"><ele>533.1666666666666</ele><time>2026-04-26T10:29:52Z</time></trkpt><trkpt lat="45.486276933670716" lon="7.989903792941117"><ele>533.0</ele><time>2026-04-26T10:29:54Z</time></trkpt><trkpt lat="45.4862630685591" lon="7.989997717498539"><ele>533.3333333333333</ele><time>2026-04-26T10:29:55Z</time></trkpt><trkpt lat="45.48623351003745" lon="7.990091045594674"><ele>533.6666666666666</ele><time>2026-04-26T10:29:56Z</time></trkpt><trkpt lat="45.48619159429704" lon="7.990186095927981"><ele>534.0</ele><time>2026-04-26T10:29:57Z</time></trkpt><trkpt lat="45.48614270612118" lon="7.990281330756147"><ele>534.3333333333334</ele><time>2026-04-26T10:29:58Z</time></trkpt><trkpt lat="45.48610812918549" lon="7.9903925214192215"><ele>534.6666666666667</ele><time>2026-04-26T10:29:59Z</time></trkpt><trkpt lat="45.486071091483545" lon="7.990489381903878"><ele>535.0</ele><time>2026-04-26T10:30:00Z</time></trkpt><trkpt lat="45.486015134024" lon="7.990579512399245"><ele>535.0</ele><time>2026-04-26T10:30:01Z</time></trkpt><trkpt lat="45.48598720798198" lon="7.990692678003208"><ele>535.0</ele><time>2026-04-26T10:30:02Z</time></trkpt><trkpt lat="45.48594747847534" lon="7.990777890566868"><ele>535.0</ele><time>2026-04-26T10:30:03Z</time></trkpt><trkpt lat="45.4859109589846" lon="7.9908615922826725"><ele>535.0</ele><time>2026-04-26T10:30:04Z</time></trkpt><trkpt lat="45.48587800332458" lon="7.9909406217207595"><ele>535.0</ele><time>2026-04-26T10:30:05Z</time></trkpt><trkpt lat="45.48583975383675" lon="7.991049402190285"><ele>535.0</ele><time>2026-04-26T10:30:07Z</time></trkpt><trkpt lat="45.48577727831877" lon="7.991169987073586"><ele>535.2</ele><time>2026-04-26T10:30:09Z</time></trkpt><trkpt lat="45.48570709265365" lon="7.9912951862786"><ele>535.4</ele><time>2026-04-26T10:30:11Z</time></trkpt><trkpt lat="45.48563975515132" lon="7.991417313351791"><ele>535.6</ele><time>2026-04-26T10:30:13Z</time></trkpt><trkpt lat="45.48557402992678" lon="7.991546377701188"><ele>535.8</ele><time>2026-04-26T10:30:15Z</time></trkpt><trkpt lat="45.48552324025988" lon="7.991642125275831"><ele>536.0</ele><time>2026-04-26T10:30:17Z</time></trkpt><trkpt lat="45.485464338929475" lon="7.99169171278637"><ele>536.1666666666666</ele><time>2026-04-26T10:30:42Z</time></trkpt><trkpt lat="45.48541047309178" lon="7.991762334224054"><ele>536.3333333333333</ele><time>2026-04-26T10:30:44Z</time></trkpt><trkpt lat="45.48535113673953" lon="7.991845681709855"><ele>536.5</ele><time>2026-04-26T10:30:47Z</time></trkpt><trkpt lat="45.48528885491952" lon="7.991901285404793"><ele>536.6666666666666</ele><time>2026-04-26T10:30:49Z</time></trkpt><trkpt lat="45.48520505176361" lon="7.991952763821931"><ele>536.8333333333334</ele><time>2026-04-26T10:30:51Z</time></trkpt><trkpt lat="45.48511255588684" lon="7.9920229821698685"><ele>537.0</ele><time>2026-04-26T10:30:53Z</time></trkpt><trkpt lat="45.485030039079554" lon="7.9921052064163405"><ele>537.0</ele><time>2026-04-26T10:30:55Z</time></trkpt><trkpt lat="45.48496480281669" lon="7.992172194613527"><ele>537.0</ele><time>2026-04-26T10:30:57Z</time></trkpt><trkpt lat="45.48489307327214" lon="7.9922790833753705"><ele>537.0</ele><time>2026-04-26T10:30:59Z</time></trkpt><trkpt lat="45.48482532944459" lon="7.992375697485316"><ele>537.0</ele><time>2026-04-26T10:31:01Z</time></trkpt><trkpt lat="45.48477568108736" lon="7.9925105893315305"><ele>537.0</ele><time>2026-04-26T10:31:03Z</time></trkpt><trkpt lat="45.48474447807163" lon="7.992615831046359"><ele>535.8333333333334</ele><time>2026-04-26T10:31:05Z</time></trkpt><trkpt lat="45.48470280397478" lon="7.992754500901111"><ele>534.6666666666666</ele><time>2026-04-26T10:31:07Z</time></trkpt><trkpt lat="45.48467685712938" lon="7.992891646365508"><ele>533.5</ele><time>2026-04-26T10:31:09Z</time></trkpt><trkpt lat="45.484651460629635" lon="7.99300475734773"><ele>532.3333333333333</ele><time>2026-04-26T10:31:11Z</time></trkpt><trkpt lat="45.48461815114875" lon="7.993123867029782"><ele>531.1666666666666</ele><time>2026-04-26T10:31:13Z</time></trkpt><trkpt lat="45.48459588665736" lon="7.993213721321257"><ele>530.0</ele><time>2026-04-26T10:31:14Z</time></trkpt><trkpt lat="45.48455886759118" lon="7.993381009204153"><ele>529.5</ele><time>2026-04-26T10:31:16Z</time></trkpt><trkpt lat="45.48453584722183" lon="7.993471948059742"><ele>529.0</ele><time>2026-04-26T10:31:17Z</time></trkpt><trkpt lat="45.484500204867366" lon="7.993636536796377"><ele>528.5</ele><time>2026-04-26T10:31:19Z</time></trkpt><trkpt lat="45.484468078378704" lon="7.993728137313902"><ele>528.0</ele><time>2026-04-26T10:31:20Z</time></trkpt><trkpt lat="45.48442722276521" lon="7.993817603896494"><ele>527.5</ele><time>2026-04-26T10:31:21Z</time></trkpt><trkpt lat="45.48438568090033" lon="7.993894103677758"><ele>527.0</ele><time>2026-04-26T10:31:22Z</time></trkpt><trkpt lat="45.48434635304481" lon="7.993986389897071"><ele>527.0</ele><time>2026-04-26T10:31:23Z</time></trkpt><trkpt lat="45.48428862020958" lon="7.994141800223288"><ele>527.0</ele><time>2026-04-26T10:31:25Z</time></trkpt><trkpt lat="45.4842421248883" lon="7.99426756393239"><ele>527.0</ele><time>2026-04-26T10:31:27Z</time></trkpt><trkpt lat="45.48420433152466" lon="7.99436398300573"><ele>527.0</ele><time>2026-04-26T10:31:29Z</time></trkpt><trkpt lat="45.484154021650056" lon="7.99442838663274"><ele>527.0</ele><time>2026-04-26T10:31:31Z</time></trkpt><trkpt lat="45.4840746047913" lon="7.994454527089784"><ele>527.4</ele><time>2026-04-26T10:31:33Z</time></trkpt><trkpt lat="45.48398294525762" lon="7.994501444255985"><ele>527.8000000000001</ele><time>2026-04-26T10:31:35Z</time></trkpt><trkpt lat="45.483895170521535" lon="7.994556219372524"><ele>528.2</ele><time>2026-04-26T10:31:37Z</time></trkpt><trkpt lat="45.483828154436836" lon="7.994612446025365"><ele>528.6</ele><time>2026-04-26T10:31:39Z</time></trkpt><trkpt lat="45.483755249996115" lon="7.994681455447798"><ele>529.0</ele><time>2026-04-26T10:31:41Z</time></trkpt><trkpt lat="45.483674624571194" lon="7.994747238096158"><ele>528.0</ele><time>2026-04-26T10:31:43Z</time></trkpt><trkpt lat="45.48361082345729" lon="7.99483495958644"><ele>527.0</ele><time>2026-04-26T10:31:45Z</time></trkpt><trkpt lat="45.48356300061389" lon="7.994953601725989"><ele>526.0</ele><time>2026-04-26T10:31:47Z</time></trkpt><trkpt lat="45.48349705007415" lon="7.995100761734122"><ele>525.0</ele><time>2026-04-26T10:31:49Z</time></trkpt><trkpt lat="45.48345310960274" lon="7.995266768642523"><ele>524.0</ele><time>2026-04-26T10:31:51Z</time></trkpt><trkpt lat="45.4834192030278" lon="7.995434746096954"><ele>524.0</ele><time>2026-04-26T10:31:53Z</time></trkpt><trkpt lat="45.4833904226481" lon="7.9955273380254805"><ele>524.0</ele><time>2026-04-26T10:31:54Z</time></trkpt><trkpt lat="45.48336887109313" lon="7.995621877180618"><ele>524.0</ele><time>2026-04-26T10:31:55Z</time></trkpt><trkpt lat="45.48334351782639" lon="7.995719533921182"><ele>524.0</ele><time>2026-04-26T10:31:56Z</time></trkpt><trkpt lat="45.483312542093906" lon="7.995800838019459"><ele>524.0</ele><time>2026-04-26T10:31:57Z</time></trkpt><trkpt lat="45.48327946833574" lon="7.99588722886166"><ele>524.0</ele><time>2026-04-26T10:31:58Z</time></trkpt><trkpt lat="45.48324413362641" lon="7.995983880962676"><ele>524.0</ele><time>2026-04-26T10:31:59Z</time></trkpt><trkpt lat="45.483212402534754" lon="7.99607940561903"><ele>523.6666666666666</ele><time>2026-04-26T10:32:00Z</time></trkpt><trkpt lat="45.48317377501063" lon="7.9961803275092285"><ele>523.3333333333333</ele><time>2026-04-26T10:32:01Z</time></trkpt><trkpt lat="45.48314068490331" lon="7.996281578277904"><ele>523.0</ele><time>2026-04-26T10:32:02Z</time></trkpt><trkpt lat="45.48311180617559" lon="7.996375353132573"><ele>522.6666666666666</ele><time>2026-04-26T10:32:03Z</time></trkpt><trkpt lat="45.48306657350456" lon="7.996543194369427"><ele>522.3333333333334</ele><time>2026-04-26T10:32:05Z</time></trkpt><trkpt lat="45.483032059767154" lon="7.9966497792902995"><ele>522.0</ele><time>2026-04-26T10:32:07Z</time></trkpt><trkpt lat="45.483020742145484" lon="7.99673957372938"><ele>521.0</ele><time>2026-04-26T10:32:09Z</time></trkpt><trkpt lat="45.48299713211711" lon="7.996858681846596"><ele>520.0</ele><time>2026-04-26T10:32:10.999Z</time></trkpt><trkpt lat="45.48295398035945" lon="7.996974150602757"><ele>519.0</ele><time>2026-04-26T10:32:12.999Z</time></trkpt><trkpt lat="45.482894843290445" lon="7.9970749615529755"><ele>518.0</ele><time>2026-04-26T10:32:14.999Z</time></trkpt><trkpt lat="45.48284806534796" lon="7.9971708968986785"><ele>517.0</ele><time>2026-04-26T10:32:16.999Z</time></trkpt><trkpt lat="45.482796295765965" lon="7.997259333639911"><ele>516.0</ele><time>2026-04-26T10:32:18.999Z</time></trkpt><trkpt lat="45.48274933871636" lon="7.997362860106423"><ele>516.5</ele><time>2026-04-26T10:32:20.999Z</time></trkpt><trkpt lat="45.48270466180033" lon="7.997455451436051"><ele>517.0</ele><time>2026-04-26T10:32:22.999Z</time></trkpt><trkpt lat="45.482658196064875" lon="7.997582509609034"><ele>517.5</ele><time>2026-04-26T10:32:25Z</time></trkpt><trkpt lat="45.48260528305307" lon="7.997674532383629"><ele>518.0</ele><time>2026-04-26T10:32:27Z</time></trkpt><trkpt lat="45.48256776040627" lon="7.997795706126701"><ele>518.5</ele><time>2026-04-26T10:32:29Z</time></trkpt><trkpt lat="45.482555196505224" lon="7.997898489878268"><ele>519.0</ele><time>2026-04-26T10:32:31Z</time></trkpt><trkpt lat="45.482534266424665" lon="7.998005351194399"><ele>519.0</ele><time>2026-04-26T10:32:33Z</time></trkpt><trkpt lat="45.48252287314639" lon="7.998106291955923"><ele>519.0</ele><time>2026-04-26T10:32:35Z</time></trkpt><trkpt lat="45.48250708589901" lon="7.998212867558146"><ele>519.0</ele><time>2026-04-26T10:32:37Z</time></trkpt><trkpt lat="45.48248986855521" lon="7.998326197219426"><ele>519.0</ele><time>2026-04-26T10:32:39Z</time></trkpt><trkpt lat="45.482499158160856" lon="7.998458525593554"><ele>519.0</ele><time>2026-04-26T10:32:41Z</time></trkpt><trkpt lat="45.48248769686071" lon="7.998579080761291"><ele>519.0</ele><time>2026-04-26T10:32:43Z</time></trkpt><trkpt lat="45.48249211547346" lon="7.998701672444073"><ele>518.0</ele><time>2026-04-26T10:32:45Z</time></trkpt><trkpt lat="45.48250412476583" lon="7.998834162467514"><ele>517.0</ele><time>2026-04-26T10:32:47Z</time></trkpt><trkpt lat="45.482541932221864" lon="7.998943419492954"><ele>516.0</ele><time>2026-04-26T10:32:49Z</time></trkpt><trkpt lat="45.48258582773024" lon="7.999044128298449"><ele>515.0</ele><time>2026-04-26T10:32:51Z</time></trkpt><trkpt lat="45.482617904699794" lon="7.999140180129758"><ele>514.0</ele><time>2026-04-26T10:32:53Z</time></trkpt><trkpt lat="45.48267145457609" lon="7.999238962512122"><ele>513.0</ele><time>2026-04-26T10:32:55Z</time></trkpt><trkpt lat="45.48269776711192" lon="7.999348830998185"><ele>512.6666666666666</ele><time>2026-04-26T10:32:57Z</time></trkpt><trkpt lat="45.482705251572696" lon="7.999465303494688"><ele>512.3333333333334</ele><time>2026-04-26T10:32:59Z</time></trkpt><trkpt lat="45.48272292591552" lon="7.999587626035533"><ele>512.0</ele><time>2026-04-26T10:33:01Z</time></trkpt><trkpt lat="45.482723800958794" lon="7.9997018301539145"><ele>511.6666666666667</ele><time>2026-04-26T10:33:03Z</time></trkpt><trkpt lat="45.4827257464487" lon="7.999806550255759"><ele>511.33333333333337</ele><time>2026-04-26T10:33:05Z</time></trkpt><trkpt lat="45.482719223741704" lon="7.999914113886022"><ele>511.0</ele><time>2026-04-26T10:33:08Z</time></trkpt><trkpt lat="45.48271604573377" lon="8.0000288918667"><ele>511.0</ele><time>2026-04-26T10:33:12Z</time></trkpt><trkpt lat="45.48269084248362" lon="8.000120465907024"><ele>511.0</ele><time>2026-04-26T10:33:37Z</time></trkpt><trkpt lat="45.48270232402685" lon="8.00023343823152"><ele>511.0</ele><time>2026-04-26T10:33:39Z</time></trkpt><trkpt lat="45.48269842304112" lon="8.000392476655295"><ele>511.0</ele><time>2026-04-26T10:33:41Z</time></trkpt><trkpt lat="45.48269246689702" lon="8.000557269619462"><ele>511.0</ele><time>2026-04-26T10:33:43Z</time></trkpt><trkpt lat="45.48268956809911" lon="8.000693971438777"><ele>511.0</ele><time>2026-04-26T10:33:45Z</time></trkpt><trkpt lat="45.482696407437906" lon="8.000792669272624"><ele>511.0</ele><time>2026-04-26T10:33:47Z</time></trkpt><trkpt lat="45.48268105973316" lon="8.000694835930318"><ele>511.0</ele><time>2026-04-26T10:34:32Z</time></trkpt><trkpt lat="45.482686963638784" lon="8.000577007133064"><ele>511.0</ele><time>2026-04-26T10:34:34Z</time></trkpt><trkpt lat="45.48268764796962" lon="8.000474537457222"><ele>511.0</ele><time>2026-04-26T10:34:36Z</time></trkpt><trkpt lat="45.48269403923898" lon="8.00036335614519"><ele>511.0</ele><time>2026-04-26T10:34:39Z</time></trkpt><trkpt lat="45.48269143669428" lon="8.000259893424019"><ele>511.0</ele><time>2026-04-26T10:34:42Z</time></trkpt><trkpt lat="45.48270563201496" lon="8.000160606032289"><ele>511.00000000000006</ele><time>2026-04-26T10:34:56Z</time></trkpt><trkpt lat="45.48270179216777" lon="8.000048874949952"><ele>511.0</ele><time>2026-04-26T10:34:58Z</time></trkpt><trkpt lat="45.482706858547935" lon="7.999931259096983"><ele>511.0</ele><time>2026-04-26T10:35:00Z</time></trkpt><trkpt lat="45.482724025754045" lon="7.999813427583532"><ele>511.0</ele><time>2026-04-26T10:35:02Z</time></trkpt><trkpt lat="45.482755950110004" lon="7.999695391537039"><ele>511.00000000000006</ele><time>2026-04-26T10:35:04Z</time></trkpt><trkpt lat="45.482791095303504" lon="7.999588877012324"><ele>511.0</ele><time>2026-04-26T10:35:05Z</time></trkpt><trkpt lat="45.48281756986973" lon="7.999474306988017"><ele>511.00000000000006</ele><time>2026-04-26T10:35:06Z</time></trkpt><trkpt lat="45.482843815342584" lon="7.999374914906601"><ele>511.0</ele><time>2026-04-26T10:35:07Z</time></trkpt><trkpt lat="45.48287624891208" lon="7.999268577101221"><ele>511.0</ele><time>2026-04-26T10:35:08Z</time></trkpt><trkpt lat="45.48290945140454" lon="7.999160154081125"><ele>511.0</ele><time>2026-04-26T10:35:09Z</time></trkpt><trkpt lat="45.482944542636204" lon="7.99903642727332"><ele>511.00000000000006</ele><time>2026-04-26T10:35:10Z</time></trkpt><trkpt lat="45.48298040346694" lon="7.998921500569597"><ele>511.0</ele><time>2026-04-26T10:35:11Z</time></trkpt><trkpt lat="45.483014286760586" lon="7.998803664041517"><ele>509.6666666666667</ele><time>2026-04-26T10:35:12Z</time></trkpt><trkpt lat="45.48305404516568" lon="7.998685659184015"><ele>508.33333333333337</ele><time>2026-04-26T10:35:13Z</time></trkpt><trkpt lat="45.483091487320664" lon="7.998573287167845"><ele>507.0</ele><time>2026-04-26T10:35:14Z</time></trkpt><trkpt lat="45.4831191255104" lon="7.998439838734613"><ele>505.66666666666663</ele><time>2026-04-26T10:35:15Z</time></trkpt><trkpt lat="45.483162141099776" lon="7.998333679824244"><ele>504.3333333333333</ele><time>2026-04-26T10:35:16Z</time></trkpt><trkpt lat="45.48319147839614" lon="7.998234349255829"><ele>503.0</ele><time>2026-04-26T10:35:17Z</time></trkpt><trkpt lat="45.48321556279447" lon="7.998139787952597"><ele>502.99999999999994</ele><time>2026-04-26T10:35:18Z</time></trkpt><trkpt lat="45.48325657629208" lon="7.998059358472142"><ele>503.0</ele><time>2026-04-26T10:35:19Z</time></trkpt><trkpt lat="45.48330989101449" lon="7.997986460770024"><ele>503.0</ele><time>2026-04-26T10:35:20Z</time></trkpt><trkpt lat="45.4833788559657" lon="7.9979357778377596"><ele>503.0</ele><time>2026-04-26T10:35:21Z</time></trkpt><trkpt lat="45.48346078910797" lon="7.997913877637682"><ele>502.99999999999994</ele><time>2026-04-26T10:35:22Z</time></trkpt><trkpt lat="45.48355471443411" lon="7.997899641008229"><ele>503.0</ele><time>2026-04-26T10:35:23Z</time></trkpt><trkpt lat="45.48365702728677" lon="7.997883203247694"><ele>501.4</ele><time>2026-04-26T10:35:24Z</time></trkpt><trkpt lat="45.483772801822326" lon="7.997864632178989"><ele>499.79999999999995</ele><time>2026-04-26T10:35:25Z</time></trkpt><trkpt lat="45.48388481340444" lon="7.997852326996318"><ele>498.2</ele><time>2026-04-26T10:35:26Z</time></trkpt><trkpt lat="45.48399503422879" lon="7.997875622997342"><ele>496.6</ele><time>2026-04-26T10:35:27Z</time></trkpt><trkpt lat="45.48409820127786" lon="7.997884389377063"><ele>495.0</ele><time>2026-04-26T10:35:28Z</time></trkpt><trkpt lat="45.48419525534049" lon="7.997896389469355"><ele>494.99999999999994</ele><time>2026-04-26T10:35:29Z</time></trkpt><trkpt lat="45.484280456453625" lon="7.997909185670245"><ele>495.0</ele><time>2026-04-26T10:35:30Z</time></trkpt><trkpt lat="45.48435120343428" lon="7.997930739483508"><ele>494.99999999999994</ele><time>2026-04-26T10:35:31Z</time></trkpt><trkpt lat="45.484415134355665" lon="7.997953897945675"><ele>494.99999999999994</ele><time>2026-04-26T10:35:32Z</time></trkpt><trkpt lat="45.48447807643215" lon="7.99798259078066"><ele>495.0</ele><time>2026-04-26T10:35:33Z</time></trkpt><trkpt lat="45.48454842284181" lon="7.998020408939896"><ele>494.99999999999994</ele><time>2026-04-26T10:35:34Z</time></trkpt><trkpt lat="45.4846181118629" lon="7.998076680985319"><ele>494.99999999999994</ele><time>2026-04-26T10:35:35Z</time></trkpt><trkpt lat="45.484700225396345" lon="7.9981377200397885"><ele>495.8</ele><time>2026-04-26T10:35:36Z</time></trkpt><trkpt lat="45.48478507879389" lon="7.998177583116162"><ele>496.6</ele><time>2026-04-26T10:35:37Z</time></trkpt><trkpt lat="45.48488186480355" lon="7.998204387710728"><ele>497.4</ele><time>2026-04-26T10:35:38Z</time></trkpt><trkpt lat="45.48497521893385" lon="7.9982186213165285"><ele>498.2</ele><time>2026-04-26T10:35:39Z</time></trkpt><trkpt lat="45.48507110735782" lon="7.99821376145959"><ele>499.0</ele><time>2026-04-26T10:35:40Z</time></trkpt><trkpt lat="45.48517070674202" lon="7.998168043599154"><ele>499.0</ele><time>2026-04-26T10:35:41Z</time></trkpt><trkpt lat="45.485258595319465" lon="7.998100051189421"><ele>499.0</ele><time>2026-04-26T10:35:42Z</time></trkpt><trkpt lat="45.48532222786378" lon="7.99797626565668"><ele>499.0</ele><time>2026-04-26T10:35:43Z</time></trkpt><trkpt lat="45.485383844516704" lon="7.9978707281245285"><ele>499.0</ele><time>2026-04-26T10:35:44Z</time></trkpt><trkpt lat="45.48544450148803" lon="7.997755729924921"><ele>499.0</ele><time>2026-04-26T10:35:45Z</time></trkpt><trkpt lat="45.48549650368078" lon="7.997647881849822"><ele>497.2</ele><time>2026-04-26T10:35:46Z</time></trkpt><trkpt lat="45.48553571712769" lon="7.997536776259984"><ele>495.4</ele><time>2026-04-26T10:35:47Z</time></trkpt><trkpt lat="45.48554016263641" lon="7.997410804422312"><ele>493.6</ele><time>2026-04-26T10:35:48Z</time></trkpt><trkpt lat="45.485545355639076" lon="7.997275200005523"><ele>491.8</ele><time>2026-04-26T10:35:49Z</time></trkpt><trkpt lat="45.48556218941948" lon="7.997138180976351"><ele>490.0</ele><time>2026-04-26T10:35:50Z</time></trkpt><trkpt lat="45.48558928739397" lon="7.997002249117"><ele>490.0</ele><time>2026-04-26T10:35:51Z</time></trkpt><trkpt lat="45.48562155456479" lon="7.996859903875482"><ele>490.0</ele><time>2026-04-26T10:35:52Z</time></trkpt><trkpt lat="45.485657898668805" lon="7.996721024585188"><ele>490.0</ele><time>2026-04-26T10:35:53Z</time></trkpt><trkpt lat="45.485699157781866" lon="7.9965955765706"><ele>490.0</ele><time>2026-04-26T10:35:54Z</time></trkpt><trkpt lat="45.485744831106075" lon="7.996475718900902"><ele>490.0</ele><time>2026-04-26T10:35:55Z</time></trkpt><trkpt lat="45.48579558840058" lon="7.996369342288045"><ele>490.8</ele><time>2026-04-26T10:35:56Z</time></trkpt><trkpt lat="45.485851399412596" lon="7.996289326826369"><ele>491.6</ele><time>2026-04-26T10:35:57Z</time></trkpt><trkpt lat="45.48591774921344" lon="7.996233883044767"><ele>492.4</ele><time>2026-04-26T10:35:58Z</time></trkpt><trkpt lat="45.48599436127099" lon="7.996220988721914"><ele>493.2</ele><time>2026-04-26T10:35:59Z</time></trkpt><trkpt lat="45.48609774292381" lon="7.996196444985522"><ele>494.0</ele><time>2026-04-26T10:36:00Z</time></trkpt><trkpt lat="45.486222557938994" lon="7.99616721573453"><ele>491.25</ele><time>2026-04-26T10:36:01Z</time></trkpt><trkpt lat="45.486353834202745" lon="7.996140504725537"><ele>488.5</ele><time>2026-04-26T10:36:02Z</time></trkpt><trkpt lat="45.48648195671457" lon="7.996116437644634"><ele>485.75</ele><time>2026-04-26T10:36:03Z</time></trkpt><trkpt lat="45.48662180095416" lon="7.996092703590265"><ele>483.0</ele><time>2026-04-26T10:36:04Z</time></trkpt><trkpt lat="45.486766873216695" lon="7.996074665565195"><ele>483.0</ele><time>2026-04-26T10:36:05Z</time></trkpt><trkpt lat="45.48691120195667" lon="7.996061418280361"><ele>483.0</ele><time>2026-04-26T10:36:06Z</time></trkpt><trkpt lat="45.487053679284706" lon="7.996049545145336"><ele>483.0</ele><time>2026-04-26T10:36:07Z</time></trkpt><trkpt lat="45.48718849333162" lon="7.996043278086726"><ele>483.0</ele><time>2026-04-26T10:36:08Z</time></trkpt><trkpt lat="45.48731728441854" lon="7.9960374239373175"><ele>484.75</ele><time>2026-04-26T10:36:09Z</time></trkpt><trkpt lat="45.4874433185843" lon="7.996024580106594"><ele>486.5</ele><time>2026-04-26T10:36:10Z</time></trkpt><trkpt lat="45.48756449407389" lon="7.996007313463647"><ele>488.25</ele><time>2026-04-26T10:36:11Z</time></trkpt><trkpt lat="45.48768201687757" lon="7.995984378268966"><ele>490.0</ele><time>2026-04-26T10:36:12Z</time></trkpt><trkpt lat="45.48779778074848" lon="7.995933718353223"><ele>490.0</ele><time>2026-04-26T10:36:13Z</time></trkpt><trkpt lat="45.4879150848859" lon="7.995904225445298"><ele>490.0</ele><time>2026-04-26T10:36:14Z</time></trkpt><trkpt lat="45.488038258475186" lon="7.9958576595134785"><ele>490.0</ele><time>2026-04-26T10:36:15Z</time></trkpt><trkpt lat="45.4881542580344" lon="7.995790032987847"><ele>490.0</ele><time>2026-04-26T10:36:16Z</time></trkpt><trkpt lat="45.48826116509929" lon="7.9957204262892505"><ele>490.50000000000006</ele><time>2026-04-26T10:36:17Z</time></trkpt><trkpt lat="45.488344644120716" lon="7.99565999515686"><ele>491.0</ele><time>2026-04-26T10:36:18Z</time></trkpt><trkpt lat="45.48841197720679" lon="7.9956017133784405"><ele>491.5</ele><time>2026-04-26T10:36:19Z</time></trkpt><trkpt lat="45.48846354961519" lon="7.99554877136783"><ele>492.0</ele><time>2026-04-26T10:36:20Z</time></trkpt><trkpt lat="45.48851408056653" lon="7.995469473662687"><ele>492.50000000000006</ele><time>2026-04-26T10:36:21Z</time></trkpt><trkpt lat="45.48856188852696" lon="7.995369647725139"><ele>493.0</ele><time>2026-04-26T10:36:22Z</time></trkpt><trkpt lat="45.48860004203334" lon="7.995252802373349"><ele>493.0</ele><time>2026-04-26T10:36:23Z</time></trkpt><trkpt lat="45.488640484341886" lon="7.995132881538409"><ele>492.99999999999994</ele><time>2026-04-26T10:36:24Z</time></trkpt><trkpt lat="45.48868403934606" lon="7.994999270593155"><ele>492.99999999999994</ele><time>2026-04-26T10:36:25Z</time></trkpt><trkpt lat="45.488726502966195" lon="7.994856056263071"><ele>493.0</ele><time>2026-04-26T10:36:26Z</time></trkpt><trkpt lat="45.48876179294941" lon="7.994682876442714"><ele>493.0</ele><time>2026-04-26T10:36:27Z</time></trkpt><trkpt lat="45.48882114893247" lon="7.994503382504652"><ele>491.25</ele><time>2026-04-26T10:36:28Z</time></trkpt><trkpt lat="45.48886694555621" lon="7.994333068398723"><ele>489.5</ele><time>2026-04-26T10:36:29Z</time></trkpt><trkpt lat="45.48892325970375" lon="7.994155156431805"><ele>487.75</ele><time>2026-04-26T10:36:30Z</time></trkpt><trkpt lat="45.48896265963557" lon="7.993978711324395"><ele>486.0</ele><time>2026-04-26T10:36:31Z</time></trkpt><trkpt lat="45.488990581976964" lon="7.993809387796508"><ele>486.0</ele><time>2026-04-26T10:36:32Z</time></trkpt><trkpt lat="45.4890026000019" lon="7.993644658119591"><ele>486.0</ele><time>2026-04-26T10:36:33Z</time></trkpt><trkpt lat="45.489022981101996" lon="7.993520049210204"><ele>486.0</ele><time>2026-04-26T10:36:34Z</time></trkpt><trkpt lat="45.48905978852541" lon="7.993428802824043"><ele>486.0</ele><time>2026-04-26T10:36:35Z</time></trkpt><trkpt lat="45.48909448801483" lon="7.993341490223935"><ele>486.0</ele><time>2026-04-26T10:36:36Z</time></trkpt><trkpt lat="45.48917201314466" lon="7.993342876620924"><ele>486.0</ele><time>2026-04-26T10:36:38Z</time></trkpt><trkpt lat="45.48916695579808" lon="7.993542707347824"><ele>486.0</ele><time>2026-04-26T10:36:40Z</time></trkpt><trkpt lat="45.48912776579953" lon="7.993632746177811"><ele>486.0</ele><time>2026-04-26T10:36:41Z</time></trkpt><trkpt lat="45.489107182413406" lon="7.993756133374048"><ele>486.0</ele><time>2026-04-26T10:36:42Z</time></trkpt><trkpt lat="45.4890848273408" lon="7.993909200335394"><ele>486.0</ele><time>2026-04-26T10:36:43Z</time></trkpt><trkpt lat="45.48908209569877" lon="7.9940850534285754"><ele>486.0</ele><time>2026-04-26T10:36:44Z</time></trkpt><trkpt lat="45.48909552825169" lon="7.994280060870979"><ele>486.0</ele><time>2026-04-26T10:36:45Z</time></trkpt><trkpt lat="45.48909477235949" lon="7.994460859489176"><ele>486.0</ele><time>2026-04-26T10:36:46Z</time></trkpt><trkpt lat="45.48909081035002" lon="7.994633102351296"><ele>486.0</ele><time>2026-04-26T10:36:47Z</time></trkpt><trkpt lat="45.48908595841623" lon="7.9947913461483875"><ele>486.0</ele><time>2026-04-26T10:36:48Z</time></trkpt><trkpt lat="45.4890854472985" lon="7.994925697176166"><ele>487.20000000000005</ele><time>2026-04-26T10:36:49Z</time></trkpt><trkpt lat="45.48908697909157" lon="7.9950347372706085"><ele>488.40000000000003</ele><time>2026-04-26T10:36:50Z</time></trkpt><trkpt lat="45.48910472038273" lon="7.995133783475642"><ele>489.6</ele><time>2026-04-26T10:36:51Z</time></trkpt><trkpt lat="45.48920573368212" lon="7.995244276531969"><ele>490.8</ele><time>2026-04-26T10:36:53Z</time></trkpt><trkpt lat="45.489292293001455" lon="7.995202699185134"><ele>492.0</ele><time>2026-04-26T10:36:54Z</time></trkpt><trkpt lat="45.4893182996938" lon="7.99505332866386"><ele>490.5</ele><time>2026-04-26T10:36:55Z</time></trkpt><trkpt lat="45.48932258068005" lon="7.9949134436546245"><ele>489.0</ele><time>2026-04-26T10:36:56Z</time></trkpt><trkpt lat="45.489321808669565" lon="7.994750559392736"><ele>487.5</ele><time>2026-04-26T10:36:57Z</time></trkpt><trkpt lat="45.489345113349955" lon="7.994575511983059"><ele>486.0</ele><time>2026-04-26T10:36:58Z</time></trkpt><trkpt lat="45.48936121575453" lon="7.994394162962229"><ele>486.0</ele><time>2026-04-26T10:36:59Z</time></trkpt><trkpt lat="45.48938075220724" lon="7.9942214096865305"><ele>486.0</ele><time>2026-04-26T10:37:00Z</time></trkpt><trkpt lat="45.48940834297595" lon="7.9940695120987195"><ele>486.0</ele><time>2026-04-26T10:37:01Z</time></trkpt><trkpt lat="45.4894362290847" lon="7.993939497898923"><ele>486.0</ele><time>2026-04-26T10:37:02Z</time></trkpt><trkpt lat="45.489506551221524" lon="7.993856445191245"><ele>486.0</ele><time>2026-04-26T10:37:03Z</time></trkpt><trkpt lat="45.48958652641664" lon="7.993802605569514"><ele>482.20000000000005</ele><time>2026-04-26T10:37:04Z</time></trkpt><trkpt lat="45.48967823412519" lon="7.993785323573642"><ele>478.40000000000003</ele><time>2026-04-26T10:37:05Z</time></trkpt><trkpt lat="45.48977634433766" lon="7.993738524758402"><ele>474.6</ele><time>2026-04-26T10:37:06Z</time></trkpt><trkpt lat="45.489877013542696" lon="7.993692739165547"><ele>470.8</ele><time>2026-04-26T10:37:07Z</time></trkpt><trkpt lat="45.48998310074657" lon="7.99362834841487"><ele>467.0</ele><time>2026-04-26T10:37:08Z</time></trkpt><trkpt lat="45.49008772407012" lon="7.99358273705805"><ele>467.0</ele><time>2026-04-26T10:37:09Z</time></trkpt><trkpt lat="45.49018340097172" lon="7.993543154586248"><ele>467.00000000000006</ele><time>2026-04-26T10:37:10Z</time></trkpt><trkpt lat="45.4902687408476" lon="7.993532642975134"><ele>467.00000000000006</ele><time>2026-04-26T10:37:11Z</time></trkpt><trkpt lat="45.49035320165398" lon="7.993570101952677"><ele>467.0</ele><time>2026-04-26T10:37:12Z</time></trkpt><trkpt lat="45.49040042253255" lon="7.993682302398625"><ele>467.0</ele><time>2026-04-26T10:37:13Z</time></trkpt><trkpt lat="45.49042850642233" lon="7.993830333712698"><ele>470.75</ele><time>2026-04-26T10:37:14Z</time></trkpt><trkpt lat="45.49044419273404" lon="7.9939959273939705"><ele>474.5</ele><time>2026-04-26T10:37:15Z</time></trkpt><trkpt lat="45.490466150464385" lon="7.994180392181672"><ele>478.25</ele><time>2026-04-26T10:37:16Z</time></trkpt><trkpt lat="45.49049984939868" lon="7.994375105116799"><ele>482.0</ele><time>2026-04-26T10:37:17Z</time></trkpt><trkpt lat="45.49053565847369" lon="7.994582727836308"><ele>482.0</ele><time>2026-04-26T10:37:18Z</time></trkpt><trkpt lat="45.490579143677266" lon="7.994782353445542"><ele>482.0</ele><time>2026-04-26T10:37:19Z</time></trkpt><trkpt lat="45.490628782611005" lon="7.994974774330036"><ele>482.0</ele><time>2026-04-26T10:37:20Z</time></trkpt><trkpt lat="45.49064941562928" lon="7.995172684301849"><ele>482.0</ele><time>2026-04-26T10:37:21Z</time></trkpt><trkpt lat="45.49067712626293" lon="7.995344313446787"><ele>481.6</ele><time>2026-04-26T10:37:22Z</time></trkpt><trkpt lat="45.49071283647391" lon="7.995496125652822"><ele>481.20000000000005</ele><time>2026-04-26T10:37:23Z</time></trkpt><trkpt lat="45.49073020400132" lon="7.995632196978605"><ele>480.8</ele><time>2026-04-26T10:37:24Z</time></trkpt><trkpt lat="45.49074804109636" lon="7.995737902025464"><ele>480.4</ele><time>2026-04-26T10:37:25Z</time></trkpt><trkpt lat="45.49078167585946" lon="7.995931437847056"><ele>480.0</ele><time>2026-04-26T10:37:27Z</time></trkpt><trkpt lat="45.49083306787957" lon="7.996016504708197"><ele>479.8333333333333</ele><time>2026-04-26T10:37:28Z</time></trkpt><trkpt lat="45.49092463073023" lon="7.996053210841692"><ele>479.66666666666663</ele><time>2026-04-26T10:37:29Z</time></trkpt><trkpt lat="45.49102888688772" lon="7.996040003014469"><ele>479.5</ele><time>2026-04-26T10:37:30Z</time></trkpt><trkpt lat="45.491114073981976" lon="7.996031292619513"><ele>479.3333333333333</ele><time>2026-04-26T10:37:31Z</time></trkpt><trkpt lat="45.49118264209238" lon="7.996021844260355"><ele>479.16666666666663</ele><time>2026-04-26T10:37:32Z</time></trkpt><trkpt lat="45.4912464812881" lon="7.996013047402765"><ele>479.0</ele><time>2026-04-26T10:37:33Z</time></trkpt><trkpt lat="45.49137276815909" lon="7.995999892145533"><ele>480.49999999999994</ele><time>2026-04-26T10:37:35Z</time></trkpt><trkpt lat="45.49144887773822" lon="7.995991372725493"><ele>482.0</ele><time>2026-04-26T10:37:36Z</time></trkpt><trkpt lat="45.491530878459116" lon="7.995982193898759"><ele>483.5</ele><time>2026-04-26T10:37:37Z</time></trkpt><trkpt lat="45.49161538408437" lon="7.995972734682515"><ele>485.0</ele><time>2026-04-26T10:37:38Z</time></trkpt><trkpt lat="45.49170118025295" lon="7.995943325507333"><ele>486.49999999999994</ele><time>2026-04-26T10:37:39Z</time></trkpt><trkpt lat="45.49179608425713" lon="7.995931880619604"><ele>488.0</ele><time>2026-04-26T10:37:40Z</time></trkpt><trkpt lat="45.49188411720682" lon="7.995947723830121"><ele>487.99999999999994</ele><time>2026-04-26T10:37:41Z</time></trkpt><trkpt lat="45.491961875295516" lon="7.995924721371785"><ele>488.0</ele><time>2026-04-26T10:37:42Z</time></trkpt><trkpt lat="45.4920259510867" lon="7.995927816391354"><ele>488.0</ele><time>2026-04-26T10:37:43Z</time></trkpt><trkpt lat="45.492160404913925" lon="7.99592643045356"><ele>488.0</ele><time>2026-04-26T10:37:45Z</time></trkpt><trkpt lat="45.492236404386524" lon="7.995939966081301"><ele>487.99999999999994</ele><time>2026-04-26T10:37:46Z</time></trkpt><trkpt lat="45.4923141511554" lon="7.995935282289275"><ele>488.0</ele><time>2026-04-26T10:37:47Z</time></trkpt><trkpt lat="45.492401756800405" lon="7.995932167920703"><ele>488.99999999999994</ele><time>2026-04-26T10:37:48Z</time></trkpt><trkpt lat="45.49248782471602" lon="7.99590137048016"><ele>490.0</ele><time>2026-04-26T10:37:49Z</time></trkpt><trkpt lat="45.492563338824304" lon="7.995870678998314"><ele>491.0</ele><time>2026-04-26T10:37:50Z</time></trkpt><trkpt lat="45.49263937499947" lon="7.995851249039679"><ele>492.0</ele><time>2026-04-26T10:37:51Z</time></trkpt><trkpt lat="45.492707335916904" lon="7.995840775368403"><ele>492.99999999999994</ele><time>2026-04-26T10:37:52Z</time></trkpt><trkpt lat="45.492795230472" lon="7.995799602723841"><ele>494.0</ele><time>2026-04-26T10:37:54Z</time></trkpt><trkpt lat="45.49288911453061" lon="7.995805141471427"><ele>494.0</ele><time>2026-04-26T10:38:09Z</time></trkpt><trkpt lat="45.492893651732345" lon="7.996039055570993"><ele>494.0</ele><time>2026-04-26T10:38:10.001Z</time></trkpt><trkpt lat="45.492907868420374" lon="7.996175506084734"><ele>494.0</ele><time>2026-04-26T10:38:11.001Z</time></trkpt><trkpt lat="45.49291776623978" lon="7.996309972814933"><ele>494.0</ele><time>2026-04-26T10:38:12.001Z</time></trkpt><trkpt lat="45.492922840112385" lon="7.996420397868694"><ele>494.0</ele><time>2026-04-26T10:38:13.001Z</time></trkpt><trkpt lat="45.49292708489398" lon="7.996529409076974"><ele>493.8333333333333</ele><time>2026-04-26T10:38:14.001Z</time></trkpt><trkpt lat="45.49292705582226" lon="7.996622759975824"><ele>493.66666666666663</ele><time>2026-04-26T10:38:15.001Z</time></trkpt><trkpt lat="45.49294736004158" lon="7.996801292263697"><ele>493.5</ele><time>2026-04-26T10:38:17.001Z</time></trkpt><trkpt lat="45.49294303402885" lon="7.996892059491254"><ele>493.33333333333337</ele><time>2026-04-26T10:38:18.001Z</time></trkpt><trkpt lat="45.49294050290212" lon="7.996996519622636"><ele>493.1666666666667</ele><time>2026-04-26T10:38:19.001Z</time></trkpt><trkpt lat="45.49294051982256" lon="7.997116714835965"><ele>493.0</ele><time>2026-04-26T10:38:20.001Z</time></trkpt><trkpt lat="45.49291812049631" lon="7.997231662177992"><ele>493.33333333333337</ele><time>2026-04-26T10:38:21.001Z</time></trkpt><trkpt lat="45.49291110118178" lon="7.997331729193436"><ele>493.6666666666667</ele><time>2026-04-26T10:38:22.001Z</time></trkpt><trkpt lat="45.492907300979006" lon="7.997432718523867"><ele>494.0</ele><time>2026-04-26T10:38:23.001Z</time></trkpt><trkpt lat="45.4929028985311" lon="7.997541734811576"><ele>494.33333333333337</ele><time>2026-04-26T10:38:24.001Z</time></trkpt><trkpt lat="45.492898929265294" lon="7.997675799905693"><ele>494.6666666666667</ele><time>2026-04-26T10:38:25.001Z</time></trkpt><trkpt lat="45.49291414262607" lon="7.9978060867570555"><ele>495.0</ele><time>2026-04-26T10:38:26.001Z</time></trkpt><trkpt lat="45.49291766890469" lon="7.997937068366787"><ele>493.6</ele><time>2026-04-26T10:38:27.001Z</time></trkpt><trkpt lat="45.49293355266621" lon="7.998057627990924"><ele>492.2</ele><time>2026-04-26T10:38:28Z</time></trkpt><trkpt lat="45.49294693106647" lon="7.998183952894662"><ele>490.79999999999995</ele><time>2026-04-26T10:38:29Z</time></trkpt><trkpt lat="45.49296026950074" lon="7.998317148171768"><ele>489.4</ele><time>2026-04-26T10:38:30Z</time></trkpt><trkpt lat="45.49297158676962" lon="7.998439446934511"><ele>488.0</ele><time>2026-04-26T10:38:31Z</time></trkpt><trkpt lat="45.49298951152833" lon="7.998571321385307"><ele>487.16666666666663</ele><time>2026-04-26T10:38:32Z</time></trkpt><trkpt lat="45.4930212948255" lon="7.998672330419693"><ele>486.3333333333333</ele><time>2026-04-26T10:38:33Z</time></trkpt><trkpt lat="45.49306843633028" lon="7.998769784042611"><ele>485.5</ele><time>2026-04-26T10:38:34Z</time></trkpt><trkpt lat="45.493125413179385" lon="7.998850205526685"><ele>484.66666666666663</ele><time>2026-04-26T10:38:35Z</time></trkpt><trkpt lat="45.493204360246914" lon="7.998901736747612"><ele>483.8333333333333</ele><time>2026-04-26T10:38:36Z</time></trkpt><trkpt lat="45.49329831600032" lon="7.998913293420269"><ele>483.0</ele><time>2026-04-26T10:38:37Z</time></trkpt><trkpt lat="45.493384586069" lon="7.998914239240294"><ele>483.0</ele><time>2026-04-26T10:38:38Z</time></trkpt><trkpt lat="45.49346526904397" lon="7.998859806533819"><ele>482.99999999999994</ele><time>2026-04-26T10:38:39Z</time></trkpt><trkpt lat="45.49352347433194" lon="7.998767749020862"><ele>482.99999999999994</ele><time>2026-04-26T10:38:40Z</time></trkpt><trkpt lat="45.49359626723406" lon="7.998687502701794"><ele>483.0</ele><time>2026-04-26T10:38:41Z</time></trkpt><trkpt lat="45.49365471541474" lon="7.998558679088082"><ele>483.0</ele><time>2026-04-26T10:38:42Z</time></trkpt><trkpt lat="45.49371643313901" lon="7.998378031344298"><ele>480.0</ele><time>2026-04-26T10:38:43Z</time></trkpt><trkpt lat="45.49378123794036" lon="7.998147402853031"><ele>477.0</ele><time>2026-04-26T10:38:44Z</time></trkpt><trkpt lat="45.49385216110859" lon="7.997896171561747"><ele>474.0</ele><time>2026-04-26T10:38:45Z</time></trkpt><trkpt lat="45.493918007066064" lon="7.99766416173164"><ele>475.66666666666663</ele><time>2026-04-26T10:38:46Z</time></trkpt><trkpt lat="45.493983604264685" lon="7.997440661323814"><ele>477.3333333333333</ele><time>2026-04-26T10:38:47Z</time></trkpt><trkpt lat="45.49403001110501" lon="7.997227242846236"><ele>479.0</ele><time>2026-04-26T10:38:48Z</time></trkpt><trkpt lat="45.49408616269674" lon="7.997038371273063"><ele>479.0</ele><time>2026-04-26T10:38:49Z</time></trkpt><trkpt lat="45.49415509627745" lon="7.9968563600315115"><ele>479.0</ele><time>2026-04-26T10:38:50Z</time></trkpt><trkpt lat="45.494205760055664" lon="7.996680517282901"><ele>479.0</ele><time>2026-04-26T10:38:51Z</time></trkpt><trkpt lat="45.494232988397385" lon="7.996524486314199"><ele>479.0</ele><time>2026-04-26T10:38:52Z</time></trkpt><trkpt lat="45.49427638936523" lon="7.996393769524502"><ele>479.2</ele><time>2026-04-26T10:38:53Z</time></trkpt><trkpt lat="45.49428885773979" lon="7.996257017015854"><ele>479.4</ele><time>2026-04-26T10:38:54Z</time></trkpt><trkpt lat="45.494296118422255" lon="7.996113097422525"><ele>479.6</ele><time>2026-04-26T10:38:55Z</time></trkpt><trkpt lat="45.4942948471868" lon="7.995963168252153"><ele>479.8</ele><time>2026-04-26T10:38:56Z</time></trkpt><trkpt lat="45.494288872327374" lon="7.995800916596104"><ele>480.0</ele><time>2026-04-26T10:38:57Z</time></trkpt><trkpt lat="45.49426715171529" lon="7.995635781679152"><ele>479.8</ele><time>2026-04-26T10:38:58Z</time></trkpt><trkpt lat="45.4942636229076" lon="7.995475387449414"><ele>479.6</ele><time>2026-04-26T10:38:59Z</time></trkpt><trkpt lat="45.49425770553554" lon="7.995314325431266"><ele>479.4</ele><time>2026-04-26T10:39:00Z</time></trkpt><trkpt lat="45.49424531783205" lon="7.995163182250644"><ele>479.2</ele><time>2026-04-26T10:39:01Z</time></trkpt><trkpt lat="45.49422003058489" lon="7.995030058760522"><ele>479.0</ele><time>2026-04-26T10:39:02Z</time></trkpt><trkpt lat="45.494180833204645" lon="7.994911137090296"><ele>479.0</ele><time>2026-04-26T10:39:03Z</time></trkpt><trkpt lat="45.49412924899363" lon="7.994800748902982"><ele>479.0</ele><time>2026-04-26T10:39:04Z</time></trkpt><trkpt lat="45.49409664494331" lon="7.994670533641775"><ele>479.0</ele><time>2026-04-26T10:39:05Z</time></trkpt><trkpt lat="45.4940538842876" lon="7.994545014931037"><ele>479.0</ele><time>2026-04-26T10:39:06Z</time></trkpt><trkpt lat="45.494029423939494" lon="7.994421754205497"><ele>479.0</ele><time>2026-04-26T10:39:07Z</time></trkpt><trkpt lat="45.49405092048224" lon="7.994295803534969"><ele>479.0</ele><time>2026-04-26T10:39:08Z</time></trkpt><trkpt lat="45.49410602882363" lon="7.99418936356908"><ele>479.0</ele><time>2026-04-26T10:39:09Z</time></trkpt><trkpt lat="45.49417895489823" lon="7.994092526071328"><ele>479.0</ele><time>2026-04-26T10:39:10Z</time></trkpt><trkpt lat="45.494261656503525" lon="7.993992832625784"><ele>479.0</ele><time>2026-04-26T10:39:11Z</time></trkpt><trkpt lat="45.494341329172435" lon="7.993887660462707"><ele>479.0</ele><time>2026-04-26T10:39:12Z</time></trkpt><trkpt lat="45.49442166453651" lon="7.993770897916463"><ele>478.25</ele><time>2026-04-26T10:39:13Z</time></trkpt><trkpt lat="45.494501200763885" lon="7.993648850933296"><ele>477.5</ele><time>2026-04-26T10:39:14Z</time></trkpt><trkpt lat="45.49458288606599" lon="7.993500544776192"><ele>476.75</ele><time>2026-04-26T10:39:15Z</time></trkpt><trkpt lat="45.49469907108652" lon="7.993312919313775"><ele>476.0</ele><time>2026-04-26T10:39:16Z</time></trkpt><trkpt lat="45.494811961008295" lon="7.993056380800299"><ele>473.0</ele><time>2026-04-26T10:39:17Z</time></trkpt><trkpt lat="45.49491334814884" lon="7.992815741465067"><ele>470.0</ele><time>2026-04-26T10:39:18Z</time></trkpt><trkpt lat="45.495004865873995" lon="7.992599762412298"><ele>467.0</ele><time>2026-04-26T10:39:19Z</time></trkpt><trkpt lat="45.49507788791017" lon="7.99240463112263"><ele>467.0</ele><time>2026-04-26T10:39:20Z</time></trkpt><trkpt lat="45.49515745397453" lon="7.992265678692583"><ele>467.0</ele><time>2026-04-26T10:39:21Z</time></trkpt><trkpt lat="45.49522802409512" lon="7.992143715831239"><ele>467.0</ele><time>2026-04-26T10:39:22Z</time></trkpt><trkpt lat="45.49532138897559" lon="7.992059790732554"><ele>467.0</ele><time>2026-04-26T10:39:23Z</time></trkpt><trkpt lat="45.495451540331125" lon="7.99206158501939"><ele>464.0</ele><time>2026-04-26T10:39:24Z</time></trkpt><trkpt lat="45.49559741851159" lon="7.992086621586706"><ele>461.0</ele><time>2026-04-26T10:39:25Z</time></trkpt><trkpt lat="45.495747975229975" lon="7.992110751128509"><ele>458.0</ele><time>2026-04-26T10:39:26Z</time></trkpt><trkpt lat="45.49588878711075" lon="7.992126715390771"><ele>455.0</ele><time>2026-04-26T10:39:27Z</time></trkpt><trkpt lat="45.496022905702276" lon="7.992137692577489"><ele>455.0</ele><time>2026-04-26T10:39:28Z</time></trkpt><trkpt lat="45.49615275464454" lon="7.992140116274105"><ele>455.0</ele><time>2026-04-26T10:39:29Z</time></trkpt><trkpt lat="45.49626867053914" lon="7.992111517232583"><ele>455.0</ele><time>2026-04-26T10:39:30Z</time></trkpt><trkpt lat="45.496380996809464" lon="7.992044842846329"><ele>455.0</ele><time>2026-04-26T10:39:31Z</time></trkpt><trkpt lat="45.49647923832059" lon="7.991917759558777"><ele>454.3333333333333</ele><time>2026-04-26T10:39:32Z</time></trkpt><trkpt lat="45.49659012124012" lon="7.991759065042469"><ele>453.66666666666663</ele><time>2026-04-26T10:39:33Z</time></trkpt><trkpt lat="45.49671564982028" lon="7.991577320580823"><ele>453.0</ele><time>2026-04-26T10:39:34Z</time></trkpt><trkpt lat="45.49682467709471" lon="7.991390124370578"><ele>453.0</ele><time>2026-04-26T10:39:35Z</time></trkpt><trkpt lat="45.49694017464889" lon="7.991241140763841"><ele>453.0</ele><time>2026-04-26T10:39:36Z</time></trkpt><trkpt lat="45.49704113802463" lon="7.99109503248238"><ele>453.0</ele><time>2026-04-26T10:39:37Z</time></trkpt><trkpt lat="45.49712771850541" lon="7.990938514033943"><ele>453.0</ele><time>2026-04-26T10:39:38Z</time></trkpt><trkpt lat="45.49718694101874" lon="7.990758424291391"><ele>453.5</ele><time>2026-04-26T10:39:39Z</time></trkpt><trkpt lat="45.497209763379104" lon="7.990561066519566"><ele>454.0</ele><time>2026-04-26T10:39:40Z</time></trkpt><trkpt lat="45.49719418534841" lon="7.990368011007806"><ele>454.5</ele><time>2026-04-26T10:39:41Z</time></trkpt><trkpt lat="45.49714081481434" lon="7.990198367409849"><ele>455.0</ele><time>2026-04-26T10:39:42Z</time></trkpt><trkpt lat="45.49707513343071" lon="7.990058412455962"><ele>455.4</ele><time>2026-04-26T10:39:43Z</time></trkpt><trkpt lat="45.49703687988611" lon="7.989919138414941"><ele>455.8</ele><time>2026-04-26T10:39:44Z</time></trkpt><trkpt lat="45.49703313806764" lon="7.98977435837643"><ele>456.20000000000005</ele><time>2026-04-26T10:39:45Z</time></trkpt><trkpt lat="45.49707439787143" lon="7.98963737859164"><ele>456.6</ele><time>2026-04-26T10:39:46Z</time></trkpt><trkpt lat="45.49715573607129" lon="7.989538998286941"><ele>457.0</ele><time>2026-04-26T10:39:47Z</time></trkpt><trkpt lat="45.49727554568545" lon="7.989501804474926"><ele>453.6666666666667</ele><time>2026-04-26T10:39:48Z</time></trkpt><trkpt lat="45.497431910422655" lon="7.9894806814255395"><ele>450.33333333333337</ele><time>2026-04-26T10:39:49Z</time></trkpt><trkpt lat="45.49759852043932" lon="7.989430220183613"><ele>447.0</ele><time>2026-04-26T10:39:50Z</time></trkpt><trkpt lat="45.497757725050064" lon="7.989405404063263"><ele>447.0</ele><time>2026-04-26T10:39:51Z</time></trkpt><trkpt lat="45.49791297348018" lon="7.989369042963855"><ele>447.0</ele><time>2026-04-26T10:39:52Z</time></trkpt><trkpt lat="45.49805624630638" lon="7.9893523872469"><ele>447.0</ele><time>2026-04-26T10:39:53Z</time></trkpt><trkpt lat="45.498180336232494" lon="7.989391596831204"><ele>447.0</ele><time>2026-04-26T10:39:54Z</time></trkpt><trkpt lat="45.49827620944949" lon="7.98948200532541"><ele>444.25</ele><time>2026-04-26T10:39:55Z</time></trkpt><trkpt lat="45.49832640683185" lon="7.98963007902294"><ele>441.5</ele><time>2026-04-26T10:39:56Z</time></trkpt><trkpt lat="45.49839269768192" lon="7.989771353536275"><ele>438.75</ele><time>2026-04-26T10:39:57Z</time></trkpt><trkpt lat="45.49845505771076" lon="7.9899191869246176"><ele>436.0</ele><time>2026-04-26T10:39:58Z</time></trkpt><trkpt lat="45.49854273200476" lon="7.990033498534285"><ele>435.25</ele><time>2026-04-26T10:39:59Z</time></trkpt><trkpt lat="45.49866028642856" lon="7.990111140367071"><ele>434.5</ele><time>2026-04-26T10:40:00Z</time></trkpt><trkpt lat="45.49879812469097" lon="7.990140662792584"><ele>433.75</ele><time>2026-04-26T10:40:01Z</time></trkpt><trkpt lat="45.49895097779021" lon="7.990114113319098"><ele>433.0</ele><time>2026-04-26T10:40:02Z</time></trkpt><trkpt lat="45.499116119569265" lon="7.99004274842271"><ele>432.33333333333337</ele><time>2026-04-26T10:40:03Z</time></trkpt><trkpt lat="45.4992657730853" lon="7.989957521589729"><ele>431.66666666666663</ele><time>2026-04-26T10:40:04Z</time></trkpt><trkpt lat="45.499410178777396" lon="7.98988357222293"><ele>431.0</ele><time>2026-04-26T10:40:05.001Z</time></trkpt><trkpt lat="45.49954487770974" lon="7.989819591132636"><ele>430.5</ele><time>2026-04-26T10:40:06.001Z</time></trkpt><trkpt lat="45.49966906668706" lon="7.989769537770649"><ele>430.0</ele><time>2026-04-26T10:40:07.001Z</time></trkpt><trkpt lat="45.499792546679785" lon="7.989746362737661"><ele>429.5</ele><time>2026-04-26T10:40:08.001Z</time></trkpt><trkpt lat="45.49991298721712" lon="7.989764939440808"><ele>429.0</ele><time>2026-04-26T10:40:09.001Z</time></trkpt><trkpt lat="45.50002861773294" lon="7.989833197181483"><ele>429.0</ele><time>2026-04-26T10:40:10.001Z</time></trkpt><trkpt lat="45.50014569040178" lon="7.989926199139292"><ele>429.0</ele><time>2026-04-26T10:40:11.001Z</time></trkpt><trkpt lat="45.50026545950626" lon="7.9900342967776465"><ele>429.0</ele><time>2026-04-26T10:40:12.001Z</time></trkpt><trkpt lat="45.50039548263391" lon="7.990153065047293"><ele>429.0</ele><time>2026-04-26T10:40:13.001Z</time></trkpt><trkpt lat="45.5005302097689" lon="7.990272580890621"><ele>427.5</ele><time>2026-04-26T10:40:14.001Z</time></trkpt><trkpt lat="45.500654918676226" lon="7.990386499121993"><ele>426.0</ele><time>2026-04-26T10:40:15.001Z</time></trkpt><trkpt lat="45.50077641768259" lon="7.990494545510251"><ele>424.5</ele><time>2026-04-26T10:40:16.001Z</time></trkpt><trkpt lat="45.50089273465952" lon="7.990602515278654"><ele>423.0</ele><time>2026-04-26T10:40:17.001Z</time></trkpt><trkpt lat="45.50100292608383" lon="7.9907080537295485"><ele>423.0</ele><time>2026-04-26T10:40:18.001Z</time></trkpt><trkpt lat="45.501106459694974" lon="7.990811910822679"><ele>423.0</ele><time>2026-04-26T10:40:19.001Z</time></trkpt><trkpt lat="45.50120332364025" lon="7.990926249556464"><ele>423.0</ele><time>2026-04-26T10:40:20.001Z</time></trkpt><trkpt lat="45.50129380446388" lon="7.991070907879002"><ele>423.0</ele><time>2026-04-26T10:40:21.001Z</time></trkpt><trkpt lat="45.501364071553226" lon="7.991246814506182"><ele>422.25</ele><time>2026-04-26T10:40:22.001Z</time></trkpt><trkpt lat="45.501406995860386" lon="7.991448248414897"><ele>421.5</ele><time>2026-04-26T10:40:23.001Z</time></trkpt><trkpt lat="45.501433024695565" lon="7.991657082907279"><ele>420.75</ele><time>2026-04-26T10:40:24.001Z</time></trkpt><trkpt lat="45.501445615558126" lon="7.991871023675358"><ele>420.0</ele><time>2026-04-26T10:40:25.001Z</time></trkpt><trkpt lat="45.50146227520474" lon="7.992087846568846"><ele>418.66666666666663</ele><time>2026-04-26T10:40:26.001Z</time></trkpt><trkpt lat="45.50148473772173" lon="7.992307245978825"><ele>417.3333333333333</ele><time>2026-04-26T10:40:27.001Z</time></trkpt><trkpt lat="45.50150732013283" lon="7.992524748889625"><ele>416.0</ele><time>2026-04-26T10:40:28.001Z</time></trkpt><trkpt lat="45.501526589018546" lon="7.992730880603705"><ele>415.5</ele><time>2026-04-26T10:40:29.001Z</time></trkpt><trkpt lat="45.5015428082412" lon="7.992926131090627"><ele>415.0</ele><time>2026-04-26T10:40:30.001Z</time></trkpt><trkpt lat="45.50155957725772" lon="7.993120228222951"><ele>414.5</ele><time>2026-04-26T10:40:31.001Z</time></trkpt><trkpt lat="45.50157901679121" lon="7.993323406197652"><ele>414.0</ele><time>2026-04-26T10:40:32.001Z</time></trkpt><trkpt lat="45.501604146337115" lon="7.993529960202833"><ele>412.33333333333337</ele><time>2026-04-26T10:40:33.001Z</time></trkpt><trkpt lat="45.50163660307362" lon="7.993740199070702"><ele>410.6666666666667</ele><time>2026-04-26T10:40:34Z</time></trkpt><trkpt lat="45.50167784191426" lon="7.993946315276725"><ele>409.0</ele><time>2026-04-26T10:40:35Z</time></trkpt><trkpt lat="45.50173060710509" lon="7.994151969945377"><ele>407.6666666666667</ele><time>2026-04-26T10:40:36Z</time></trkpt><trkpt lat="45.50178857491298" lon="7.994357637917641"><ele>406.33333333333337</ele><time>2026-04-26T10:40:37Z</time></trkpt><trkpt lat="45.501850661080084" lon="7.994567468450674"><ele>405.0</ele><time>2026-04-26T10:40:38Z</time></trkpt><trkpt lat="45.501912521043735" lon="7.9947755756538506"><ele>405.0</ele><time>2026-04-26T10:40:39Z</time></trkpt><trkpt lat="45.50197246980199" lon="7.994979822977111"><ele>405.0</ele><time>2026-04-26T10:40:40Z</time></trkpt><trkpt lat="45.50202371059726" lon="7.995180693880599"><ele>405.0</ele><time>2026-04-26T10:40:41Z</time></trkpt><trkpt lat="45.50206210262992" lon="7.9953852984440035"><ele>404.25</ele><time>2026-04-26T10:40:42Z</time></trkpt><trkpt lat="45.502094129012185" lon="7.995576761249519"><ele>403.5</ele><time>2026-04-26T10:40:43Z</time></trkpt><trkpt lat="45.50211813824096" lon="7.995767580513653"><ele>402.75</ele><time>2026-04-26T10:40:44Z</time></trkpt><trkpt lat="45.50213062043242" lon="7.995956690533855"><ele>402.0</ele><time>2026-04-26T10:40:45Z</time></trkpt><trkpt lat="45.50213012274193" lon="7.996143213807555"><ele>401.0</ele><time>2026-04-26T10:40:46Z</time></trkpt><trkpt lat="45.50213078995423" lon="7.996323986155567"><ele>400.0</ele><time>2026-04-26T10:40:47Z</time></trkpt><trkpt lat="45.50215174127497" lon="7.996485381798893"><ele>399.0</ele><time>2026-04-26T10:40:48Z</time></trkpt><trkpt lat="45.50219832089068" lon="7.996621229832859"><ele>398.0</ele><time>2026-04-26T10:40:49Z</time></trkpt><trkpt lat="45.50227111669946" lon="7.996718641936152"><ele>397.0</ele><time>2026-04-26T10:40:50Z</time></trkpt><trkpt lat="45.50235367260002" lon="7.996753941026405"><ele>397.0</ele><time>2026-04-26T10:40:51Z</time></trkpt><trkpt lat="45.5024397402498" lon="7.9967256078410776"><ele>397.0</ele><time>2026-04-26T10:40:52Z</time></trkpt><trkpt lat="45.50251185180363" lon="7.99663329993672"><ele>397.0</ele><time>2026-04-26T10:40:53Z</time></trkpt><trkpt lat="45.50255738958296" lon="7.996489044379757"><ele>397.0</ele><time>2026-04-26T10:40:54Z</time></trkpt><trkpt lat="45.50257671084785" lon="7.996301451812703"><ele>397.0</ele><time>2026-04-26T10:40:55Z</time></trkpt><trkpt lat="45.50258855545486" lon="7.996098192424831"><ele>397.0</ele><time>2026-04-26T10:40:56Z</time></trkpt><trkpt lat="45.50260014373645" lon="7.995885159025299"><ele>397.0</ele><time>2026-04-26T10:40:57Z</time></trkpt><trkpt lat="45.50261577518303" lon="7.995670370806655"><ele>397.0</ele><time>2026-04-26T10:40:58Z</time></trkpt><trkpt lat="45.50265726030526" lon="7.995450331322672"><ele>398.25</ele><time>2026-04-26T10:40:59Z</time></trkpt><trkpt lat="45.502718756709776" lon="7.995238477577767"><ele>399.5</ele><time>2026-04-26T10:41:00Z</time></trkpt><trkpt lat="45.502785229049074" lon="7.995048983329927"><ele>400.75</ele><time>2026-04-26T10:41:01Z</time></trkpt><trkpt lat="45.502846495130946" lon="7.994869865233923"><ele>402.0</ele><time>2026-04-26T10:41:02Z</time></trkpt><trkpt lat="45.50289937377638" lon="7.99471759783105"><ele>399.8</ele><time>2026-04-26T10:41:03Z</time></trkpt><trkpt lat="45.50296544663067" lon="7.994602371481018"><ele>397.6</ele><time>2026-04-26T10:41:04Z</time></trkpt><trkpt lat="45.50302777489681" lon="7.994480344273277"><ele>395.40000000000003</ele><time>2026-04-26T10:41:05Z</time></trkpt><trkpt lat="45.50312979923972" lon="7.994424258834091"><ele>393.20000000000005</ele><time>2026-04-26T10:41:06Z</time></trkpt><trkpt lat="45.50324798901021" lon="7.994426593244343"><ele>391.0</ele><time>2026-04-26T10:41:07Z</time></trkpt><trkpt lat="45.50336856755861" lon="7.994498495803251"><ele>391.0</ele><time>2026-04-26T10:41:08Z</time></trkpt><trkpt lat="45.50349940736749" lon="7.994594853144815"><ele>391.0</ele><time>2026-04-26T10:41:09Z</time></trkpt><trkpt lat="45.503630786490106" lon="7.994686855690327"><ele>391.0</ele><time>2026-04-26T10:41:10Z</time></trkpt><trkpt lat="45.50375087716182" lon="7.994775399615923"><ele>391.0</ele><time>2026-04-26T10:41:11Z</time></trkpt><trkpt lat="45.503863459334816" lon="7.994863676686097"><ele>391.0</ele><time>2026-04-26T10:41:12Z</time></trkpt><trkpt lat="45.50395936667821" lon="7.994958227961681"><ele>391.0</ele><time>2026-04-26T10:41:13Z</time></trkpt><trkpt lat="45.504029078486" lon="7.99507579959849"><ele>391.0</ele><time>2026-04-26T10:41:14Z</time></trkpt><trkpt lat="45.504048282476724" lon="7.995217563509221"><ele>391.0</ele><time>2026-04-26T10:41:15Z</time></trkpt><trkpt lat="45.50402471825816" lon="7.995374538607889"><ele>391.0</ele><time>2026-04-26T10:41:16Z</time></trkpt><trkpt lat="45.50397677184222" lon="7.995533940393425"><ele>390.6</ele><time>2026-04-26T10:41:17Z</time></trkpt><trkpt lat="45.50393184379164" lon="7.99569185825769"><ele>390.20000000000005</ele><time>2026-04-26T10:41:18Z</time></trkpt><trkpt lat="45.50388934007078" lon="7.995837322335984"><ele>389.79999999999995</ele><time>2026-04-26T10:41:19Z</time></trkpt><trkpt lat="45.50387148352413" lon="7.995966244438631"><ele>389.4</ele><time>2026-04-26T10:41:20Z</time></trkpt><trkpt lat="45.503877926679976" lon="7.996094118503656"><ele>389.0</ele><time>2026-04-26T10:41:21Z</time></trkpt><trkpt lat="45.50392385245929" lon="7.996211629822357"><ele>387.79999999999995</ele><time>2026-04-26T10:41:22Z</time></trkpt><trkpt lat="45.50398803159233" lon="7.996319676903712"><ele>386.59999999999997</ele><time>2026-04-26T10:41:23Z</time></trkpt><trkpt lat="45.504060834606435" lon="7.996435404759433"><ele>385.4</ele><time>2026-04-26T10:41:24Z</time></trkpt><trkpt lat="45.50414135361636" lon="7.99655822317498"><ele>384.2</ele><time>2026-04-26T10:41:25Z</time></trkpt><trkpt lat="45.504234492048326" lon="7.996673668815443"><ele>383.0</ele><time>2026-04-26T10:41:26Z</time></trkpt><trkpt lat="45.50432332411256" lon="7.996793087403302"><ele>382.75</ele><time>2026-04-26T10:41:27Z</time></trkpt><trkpt lat="45.504408312383745" lon="7.996909998751588"><ele>382.5</ele><time>2026-04-26T10:41:28Z</time></trkpt><trkpt lat="45.50449056750779" lon="7.99703095470276"><ele>382.25</ele><time>2026-04-26T10:41:29Z</time></trkpt><trkpt lat="45.50457860998834" lon="7.9971546691609925"><ele>382.0</ele><time>2026-04-26T10:41:30Z</time></trkpt><trkpt lat="45.50467059132538" lon="7.9972814068902744"><ele>383.0</ele><time>2026-04-26T10:41:31Z</time></trkpt><trkpt lat="45.504764354743344" lon="7.997408097844705"><ele>384.0</ele><time>2026-04-26T10:41:32Z</time></trkpt><trkpt lat="45.50485149595341" lon="7.997534771558992"><ele>385.0</ele><time>2026-04-26T10:41:33Z</time></trkpt><trkpt lat="45.50493378407319" lon="7.9976611884957824"><ele>386.0</ele><time>2026-04-26T10:41:34Z</time></trkpt><trkpt lat="45.50501227242487" lon="7.997791621507604"><ele>386.25</ele><time>2026-04-26T10:41:35Z</time></trkpt><trkpt lat="45.50508834465739" lon="7.997931162914894"><ele>386.5</ele><time>2026-04-26T10:41:36Z</time></trkpt><trkpt lat="45.505157400050614" lon="7.998084995117854"><ele>386.75</ele><time>2026-04-26T10:41:37Z</time></trkpt><trkpt lat="45.50522452649839" lon="7.998253543476345"><ele>387.0</ele><time>2026-04-26T10:41:38Z</time></trkpt><trkpt lat="45.50528978330636" lon="7.998435609587386"><ele>387.0</ele><time>2026-04-26T10:41:39Z</time></trkpt><trkpt lat="45.50535640104798" lon="7.998623769791161"><ele>387.0</ele><time>2026-04-26T10:41:40Z</time></trkpt><trkpt lat="45.50542375467805" lon="7.998815232990876"><ele>387.0</ele><time>2026-04-26T10:41:41Z</time></trkpt><trkpt lat="45.50548808846449" lon="7.999001509636893"><ele>387.0</ele><time>2026-04-26T10:41:42Z</time></trkpt><trkpt lat="45.505547599720316" lon="7.999181472972014"><ele>384.75</ele><time>2026-04-26T10:41:43Z</time></trkpt><trkpt lat="45.50560446142477" lon="7.999350994197009"><ele>382.5</ele><time>2026-04-26T10:41:44Z</time></trkpt><trkpt lat="45.50565731736909" lon="7.999514199380879"><ele>380.25</ele><time>2026-04-26T10:41:45Z</time></trkpt><trkpt lat="45.50570735999001" lon="7.99967498947304"><ele>378.0</ele><time>2026-04-26T10:41:46Z</time></trkpt><trkpt lat="45.50575727806605" lon="7.999826813580041"><ele>378.0</ele><time>2026-04-26T10:41:47Z</time></trkpt><trkpt lat="45.50580713435432" lon="7.999970708809166"><ele>378.0</ele><time>2026-04-26T10:41:48Z</time></trkpt><trkpt lat="45.50585380674814" lon="8.00011035368672"><ele>378.0</ele><time>2026-04-26T10:41:49Z</time></trkpt><trkpt lat="45.50590053748858" lon="8.00023935891179"><ele>378.0</ele><time>2026-04-26T10:41:50Z</time></trkpt><trkpt lat="45.50594636929355" lon="8.00036067049511"><ele>378.0</ele><time>2026-04-26T10:41:51Z</time></trkpt><trkpt lat="45.505984964983234" lon="8.000477891934157"><ele>378.0</ele><time>2026-04-26T10:41:52Z</time></trkpt><trkpt lat="45.50604003727978" lon="8.000590703719324"><ele>378.0</ele><time>2026-04-26T10:41:53Z</time></trkpt><trkpt lat="45.50612567370585" lon="8.000678648452611"><ele>378.0</ele><time>2026-04-26T10:41:54Z</time></trkpt><trkpt lat="45.50623419270642" lon="8.000734053440372"><ele>378.0</ele><time>2026-04-26T10:41:55Z</time></trkpt><trkpt lat="45.50635666463626" lon="8.000761214906781"><ele>378.0</ele><time>2026-04-26T10:41:56Z</time></trkpt><trkpt lat="45.506479904543546" lon="8.000789035178695"><ele>377.5</ele><time>2026-04-26T10:41:57Z</time></trkpt><trkpt lat="45.50660071113783" lon="8.000825472028902"><ele>377.0</ele><time>2026-04-26T10:41:58Z</time></trkpt><trkpt lat="45.506723631533426" lon="8.000867001722202"><ele>376.5</ele><time>2026-04-26T10:41:59Z</time></trkpt><trkpt lat="45.506854553324686" lon="8.000914258596916"><ele>376.0</ele><time>2026-04-26T10:42:00Z</time></trkpt><trkpt lat="45.506992587281516" lon="8.000961035254385"><ele>375.66666666666663</ele><time>2026-04-26T10:42:01Z</time></trkpt><trkpt lat="45.507136096059526" lon="8.001008046381855"><ele>375.3333333333333</ele><time>2026-04-26T10:42:02Z</time></trkpt><trkpt lat="45.50728513417626" lon="8.00105606326851"><ele>375.0</ele><time>2026-04-26T10:42:03Z</time></trkpt><trkpt lat="45.507438680489244" lon="8.00110475190596"><ele>375.0</ele><time>2026-04-26T10:42:04Z</time></trkpt><trkpt lat="45.507600631330135" lon="8.001151689431625"><ele>375.0</ele><time>2026-04-26T10:42:05Z</time></trkpt><trkpt lat="45.50775952643577" lon="8.001200228258334"><ele>375.0</ele><time>2026-04-26T10:42:06Z</time></trkpt><trkpt lat="45.507918331395395" lon="8.001250499359353"><ele>374.3333333333333</ele><time>2026-04-26T10:42:07Z</time></trkpt><trkpt lat="45.50807302648109" lon="8.001304683555592"><ele>373.66666666666663</ele><time>2026-04-26T10:42:08Z</time></trkpt><trkpt lat="45.508218909780545" lon="8.001354883773852"><ele>373.0</ele><time>2026-04-26T10:42:09Z</time></trkpt><trkpt lat="45.50835684534142" lon="8.001399065917195"><ele>373.0</ele><time>2026-04-26T10:42:10Z</time></trkpt><trkpt lat="45.50848875144414" lon="8.001439719567818"><ele>373.0</ele><time>2026-04-26T10:42:11Z</time></trkpt><trkpt lat="45.50861416765269" lon="8.001480598458954"><ele>373.0</ele><time>2026-04-26T10:42:12Z</time></trkpt><trkpt lat="45.508734008140735" lon="8.001520715661373"><ele>373.0</ele><time>2026-04-26T10:42:13.001Z</time></trkpt><trkpt lat="45.50885208856197" lon="8.001558864303874"><ele>372.0</ele><time>2026-04-26T10:42:14.001Z</time></trkpt><trkpt lat="45.508973517696376" lon="8.001596632863807"><ele>371.0</ele><time>2026-04-26T10:42:15.001Z</time></trkpt><trkpt lat="45.509096097446886" lon="8.001636952981412"><ele>370.0</ele><time>2026-04-26T10:42:16.001Z</time></trkpt><trkpt lat="45.50921965552121" lon="8.001679177319753"><ele>369.0</ele><time>2026-04-26T10:42:17.001Z</time></trkpt><trkpt lat="45.509345137726314" lon="8.001719977486117"><ele>367.5</ele><time>2026-04-26T10:42:18.001Z</time></trkpt><trkpt lat="45.50947004650265" lon="8.001758235142017"><ele>366.0</ele><time>2026-04-26T10:42:19.001Z</time></trkpt><trkpt lat="45.509593989844184" lon="8.001798686010867"><ele>364.5</ele><time>2026-04-26T10:42:20.001Z</time></trkpt><trkpt lat="45.509712276412706" lon="8.00183913994437"><ele>363.0</ele><time>2026-04-26T10:42:21.001Z</time></trkpt><trkpt lat="45.509828763360616" lon="8.001876694583327"><ele>362.0</ele><time>2026-04-26T10:42:22.001Z</time></trkpt><trkpt lat="45.50995471678372" lon="8.001912312480382"><ele>361.0</ele><time>2026-04-26T10:42:23.001Z</time></trkpt><trkpt lat="45.51009130536624" lon="8.001953615026679"><ele>360.0</ele><time>2026-04-26T10:42:24.001Z</time></trkpt><trkpt lat="45.51022879931868" lon="8.002022275098426"><ele>359.0</ele><time>2026-04-26T10:42:25.001Z</time></trkpt><trkpt lat="45.5103798752864" lon="8.00204182285115"><ele>357.6666666666667</ele><time>2026-04-26T10:42:26.001Z</time></trkpt><trkpt lat="45.51052768857634" lon="8.002093416340253"><ele>356.3333333333333</ele><time>2026-04-26T10:42:27.001Z</time></trkpt><trkpt lat="45.510676103166865" lon="8.002146563095247"><ele>355.0</ele><time>2026-04-26T10:42:28.001Z</time></trkpt><trkpt lat="45.51082224086089" lon="8.00219776195122"><ele>355.0</ele><time>2026-04-26T10:42:29.001Z</time></trkpt><trkpt lat="45.51096321628687" lon="8.00224628255207"><ele>355.0</ele><time>2026-04-26T10:42:30.001Z</time></trkpt><trkpt lat="45.511089171082325" lon="8.00228825665719"><ele>355.0</ele><time>2026-04-26T10:42:31.001Z</time></trkpt><trkpt lat="45.5112071422712" lon="8.002326358863078"><ele>355.0</ele><time>2026-04-26T10:42:32.001Z</time></trkpt><trkpt lat="45.51131276943862" lon="8.002361635720629"><ele>354.4</ele><time>2026-04-26T10:42:33.001Z</time></trkpt><trkpt lat="45.51141608811991" lon="8.002395711448168"><ele>353.8</ele><time>2026-04-26T10:42:34.001Z</time></trkpt><trkpt lat="45.511518160783154" lon="8.00242744397652"><ele>353.20000000000005</ele><time>2026-04-26T10:42:35.001Z</time></trkpt><trkpt lat="45.51162103486036" lon="8.002459414732254"><ele>352.6</ele><time>2026-04-26T10:42:36.001Z</time></trkpt><trkpt lat="45.51172086370922" lon="8.0024932338486"><ele>352.0</ele><time>2026-04-26T10:42:37.001Z</time></trkpt><trkpt lat="45.511813045382816" lon="8.002525512979865"><ele>351.8333333333333</ele><time>2026-04-26T10:42:38.001Z</time></trkpt><trkpt lat="45.51189564832443" lon="8.00255518579304"><ele>351.66666666666663</ele><time>2026-04-26T10:42:39.001Z</time></trkpt><trkpt lat="45.511958116173844" lon="8.0025788431543"><ele>351.5</ele><time>2026-04-26T10:42:40Z</time></trkpt><trkpt lat="45.51207050657597" lon="8.002615667229643"><ele>351.3333333333333</ele><time>2026-04-26T10:42:42Z</time></trkpt><trkpt lat="45.512134789736216" lon="8.002654289445033"><ele>351.1666666666667</ele><time>2026-04-26T10:42:43Z</time></trkpt><trkpt lat="45.51220452236832" lon="8.002695942149945"><ele>351.0</ele><time>2026-04-26T10:42:44Z</time></trkpt><trkpt lat="45.512285340444315" lon="8.002720253232772"><ele>350.6</ele><time>2026-04-26T10:42:45Z</time></trkpt><trkpt lat="45.512378027341256" lon="8.002741194669545"><ele>350.20000000000005</ele><time>2026-04-26T10:42:46Z</time></trkpt><trkpt lat="45.51247355566248" lon="8.002765706780895"><ele>349.79999999999995</ele><time>2026-04-26T10:42:47Z</time></trkpt><trkpt lat="45.512566050867015" lon="8.00279784456349"><ele>349.4</ele><time>2026-04-26T10:42:48Z</time></trkpt><trkpt lat="45.512652042919804" lon="8.002840518295566"><ele>349.0</ele><time>2026-04-26T10:42:49Z</time></trkpt><trkpt lat="45.51273749437138" lon="8.002901326334324"><ele>349.0</ele><time>2026-04-26T10:42:50Z</time></trkpt><trkpt lat="45.512827378743026" lon="8.002987757308768"><ele>349.0</ele><time>2026-04-26T10:42:51Z</time></trkpt><trkpt lat="45.51292034230085" lon="8.0030989571378"><ele>349.0</ele><time>2026-04-26T10:42:52Z</time></trkpt><trkpt lat="45.51301010255625" lon="8.003227150247469"><ele>349.0</ele><time>2026-04-26T10:42:53Z</time></trkpt><trkpt lat="45.51310535513051" lon="8.003371225327166"><ele>348.0</ele><time>2026-04-26T10:42:54Z</time></trkpt><trkpt lat="45.51320707607951" lon="8.003521358761615"><ele>347.0</ele><time>2026-04-26T10:42:55Z</time></trkpt><trkpt lat="45.51331800110684" lon="8.003695248705425"><ele>346.0</ele><time>2026-04-26T10:42:56Z</time></trkpt><trkpt lat="45.51342977478348" lon="8.00388182811746"><ele>346.0</ele><time>2026-04-26T10:42:57Z</time></trkpt><trkpt lat="45.51353423331231" lon="8.004056167561563"><ele>346.0</ele><time>2026-04-26T10:42:58Z</time></trkpt><trkpt lat="45.51363084450624" lon="8.004210191644018"><ele>346.0</ele><time>2026-04-26T10:42:59Z</time></trkpt><trkpt lat="45.51371758876483" lon="8.004362917517975"><ele>346.0</ele><time>2026-04-26T10:43:00Z</time></trkpt><trkpt lat="45.513801415597506" lon="8.004501781262329"><ele>344.25</ele><time>2026-04-26T10:43:01Z</time></trkpt><trkpt lat="45.51388829352541" lon="8.004637748004878"><ele>342.5</ele><time>2026-04-26T10:43:02Z</time></trkpt><trkpt lat="45.513989607042696" lon="8.004785522187879"><ele>340.75</ele><time>2026-04-26T10:43:03Z</time></trkpt><trkpt lat="45.51409029025649" lon="8.004945207969318"><ele>339.0</ele><time>2026-04-26T10:43:04Z</time></trkpt><trkpt lat="45.51418134576715" lon="8.005098909923092"><ele>338.5</ele><time>2026-04-26T10:43:05Z</time></trkpt><trkpt lat="45.51427661800904" lon="8.00523744860918"><ele>338.0</ele><time>2026-04-26T10:43:06Z</time></trkpt><trkpt lat="45.51438617124059" lon="8.00534753787625"><ele>337.5</ele><time>2026-04-26T10:43:07Z</time></trkpt><trkpt lat="45.514509843184975" lon="8.005427582894628"><ele>337.0</ele><time>2026-04-26T10:43:08Z</time></trkpt><trkpt lat="45.51464124826341" lon="8.005471639084401"><ele>335.75</ele><time>2026-04-26T10:43:09Z</time></trkpt><trkpt lat="45.514770999908905" lon="8.005509856996172"><ele>334.5</ele><time>2026-04-26T10:43:10Z</time></trkpt><trkpt lat="45.51489463265414" lon="8.005548277833583"><ele>333.25</ele><time>2026-04-26T10:43:11Z</time></trkpt><trkpt lat="45.51500827117328" lon="8.00557875308943"><ele>332.0</ele><time>2026-04-26T10:43:12Z</time></trkpt><trkpt lat="45.515110316148856" lon="8.005603954846471"><ele>332.0</ele><time>2026-04-26T10:43:13Z</time></trkpt><trkpt lat="45.51519009089845" lon="8.005636420696636"><ele>332.0</ele><time>2026-04-26T10:43:14Z</time></trkpt><trkpt lat="45.51525191694472" lon="8.005682830379367"><ele>332.0</ele><time>2026-04-26T10:43:15Z</time></trkpt><trkpt lat="45.515308453190634" lon="8.005761571000592"><ele>332.0</ele><time>2026-04-26T10:43:16Z</time></trkpt><trkpt lat="45.51535968982633" lon="8.005861492711958"><ele>332.0</ele><time>2026-04-26T10:43:17Z</time></trkpt><trkpt lat="45.5153963912424" lon="8.005948131162592"><ele>332.0</ele><time>2026-04-26T10:43:18Z</time></trkpt><trkpt lat="45.51543104572064" lon="8.00602985107883"><ele>331.20000000000005</ele><time>2026-04-26T10:43:19Z</time></trkpt><trkpt lat="45.51547105101639" lon="8.006126712754314"><ele>330.4</ele><time>2026-04-26T10:43:20Z</time></trkpt><trkpt lat="45.5155100549999" lon="8.006242011234619"><ele>329.6</ele><time>2026-04-26T10:43:21Z</time></trkpt><trkpt lat="45.51554494425765" lon="8.006365134393281"><ele>328.79999999999995</ele><time>2026-04-26T10:43:22Z</time></trkpt><trkpt lat="45.51557378360474" lon="8.006498722224062"><ele>328.0</ele><time>2026-04-26T10:43:23Z</time></trkpt><trkpt lat="45.51560287687679" lon="8.006657457809007"><ele>327.3333333333333</ele><time>2026-04-26T10:43:24Z</time></trkpt><trkpt lat="45.51563495868559" lon="8.006848546277217"><ele>326.6666666666667</ele><time>2026-04-26T10:43:25Z</time></trkpt><trkpt lat="45.51566651839271" lon="8.007058961372756"><ele>326.0</ele><time>2026-04-26T10:43:26Z</time></trkpt><trkpt lat="45.51569976200802" lon="8.007286247455516"><ele>325.6666666666667</ele><time>2026-04-26T10:43:27Z</time></trkpt><trkpt lat="45.515730401008604" lon="8.00751224897229"><ele>325.3333333333333</ele><time>2026-04-26T10:43:28Z</time></trkpt><trkpt lat="45.51576057806584" lon="8.00775576201146"><ele>325.0</ele><time>2026-04-26T10:43:29Z</time></trkpt><trkpt lat="45.51578954819109" lon="8.008000209884635"><ele>325.0</ele><time>2026-04-26T10:43:30Z</time></trkpt><trkpt lat="45.515819985715176" lon="8.008239460236997"><ele>325.0</ele><time>2026-04-26T10:43:31Z</time></trkpt><trkpt lat="45.51584843582962" lon="8.008458728602562"><ele>325.0</ele><time>2026-04-26T10:43:32Z</time></trkpt><trkpt lat="45.51587294898936" lon="8.00866257729011"><ele>324.5</ele><time>2026-04-26T10:43:33Z</time></trkpt><trkpt lat="45.515901670542405" lon="8.00886039469128"><ele>324.0</ele><time>2026-04-26T10:43:34Z</time></trkpt><trkpt lat="45.51594487494484" lon="8.009065565814842"><ele>323.5</ele><time>2026-04-26T10:43:35Z</time></trkpt><trkpt lat="45.516004615390486" lon="8.009268464132541"><ele>323.0</ele><time>2026-04-26T10:43:36Z</time></trkpt><trkpt lat="45.516073719550974" lon="8.009475983664561"><ele>322.6666666666667</ele><time>2026-04-26T10:43:37Z</time></trkpt><trkpt lat="45.5161435435652" lon="8.009688868147444"><ele>322.3333333333333</ele><time>2026-04-26T10:43:38Z</time></trkpt><trkpt lat="45.516209712319856" lon="8.009891876753212"><ele>322.0</ele><time>2026-04-26T10:43:39Z</time></trkpt><trkpt lat="45.51627374611945" lon="8.01008220235473"><ele>321.5</ele><time>2026-04-26T10:43:40Z</time></trkpt><trkpt lat="45.51634064069646" lon="8.01025667256203"><ele>321.0</ele><time>2026-04-26T10:43:41Z</time></trkpt><trkpt lat="45.51641646109522" lon="8.01040472755096"><ele>320.5</ele><time>2026-04-26T10:43:42Z</time></trkpt><trkpt lat="45.516499271140646" lon="8.01052925141295"><ele>320.0</ele><time>2026-04-26T10:43:43Z</time></trkpt><trkpt lat="45.51658079940981" lon="8.010641099788403"><ele>320.0</ele><time>2026-04-26T10:43:44Z</time></trkpt><trkpt lat="45.516665913144486" lon="8.010762037372734"><ele>320.0</ele><time>2026-04-26T10:43:45Z</time></trkpt><trkpt lat="45.51675187741349" lon="8.01089752071584"><ele>320.0</ele><time>2026-04-26T10:43:46Z</time></trkpt><trkpt lat="45.51684014780825" lon="8.011052638716226"><ele>320.0</ele><time>2026-04-26T10:43:47Z</time></trkpt><trkpt lat="45.51692594809057" lon="8.011228626922723"><ele>319.6666666666667</ele><time>2026-04-26T10:43:48Z</time></trkpt><trkpt lat="45.51700690258192" lon="8.011430013755971"><ele>319.3333333333333</ele><time>2026-04-26T10:43:49Z</time></trkpt><trkpt lat="45.5170811470867" lon="8.01164269384231"><ele>319.0</ele><time>2026-04-26T10:43:50Z</time></trkpt><trkpt lat="45.517141537867914" lon="8.011870444125355"><ele>318.66666666666663</ele><time>2026-04-26T10:43:51Z</time></trkpt><trkpt lat="45.517190009665676" lon="8.012117475562867"><ele>318.3333333333333</ele><time>2026-04-26T10:43:52Z</time></trkpt><trkpt lat="45.51723431489309" lon="8.012376738395554"><ele>318.0</ele><time>2026-04-26T10:43:53Z</time></trkpt><trkpt lat="45.51727934454774" lon="8.012643988092428"><ele>318.0</ele><time>2026-04-26T10:43:54Z</time></trkpt><trkpt lat="45.51732322568191" lon="8.012920614249797"><ele>318.0</ele><time>2026-04-26T10:43:55Z</time></trkpt><trkpt lat="45.517361090965466" lon="8.013196065644241"><ele>318.0</ele><time>2026-04-26T10:43:56Z</time></trkpt><trkpt lat="45.51739452899867" lon="8.013460565101807"><ele>318.0</ele><time>2026-04-26T10:43:57Z</time></trkpt><trkpt lat="45.51742602935578" lon="8.013711900694023"><ele>318.0</ele><time>2026-04-26T10:43:58Z</time></trkpt><trkpt lat="45.51747360319456" lon="8.014191359126054"><ele>317.6666666666667</ele><time>2026-04-26T10:44:00Z</time></trkpt><trkpt lat="45.517496612620185" lon="8.014426727844235"><ele>317.33333333333337</ele><time>2026-04-26T10:44:01Z</time></trkpt><trkpt lat="45.51752187398703" lon="8.014654595575497"><ele>317.0</ele><time>2026-04-26T10:44:02Z</time></trkpt><trkpt lat="45.51754803052317" lon="8.014864025374589"><ele>316.75</ele><time>2026-04-26T10:44:03Z</time></trkpt><trkpt lat="45.51757758870433" lon="8.015055847690428"><ele>316.5</ele><time>2026-04-26T10:44:04Z</time></trkpt><trkpt lat="45.517617607201935" lon="8.015240513021972"><ele>316.25</ele><time>2026-04-26T10:44:05Z</time></trkpt><trkpt lat="45.517683204159106" lon="8.015416193752522"><ele>316.0</ele><time>2026-04-26T10:44:06Z</time></trkpt><trkpt lat="45.51777924693198" lon="8.015575155040635"><ele>316.0</ele><time>2026-04-26T10:44:07Z</time></trkpt><trkpt lat="45.517895761680506" lon="8.01570497441008"><ele>316.0</ele><time>2026-04-26T10:44:08Z</time></trkpt><trkpt lat="45.51802976001684" lon="8.015794177637881"><ele>316.0</ele><time>2026-04-26T10:44:09Z</time></trkpt><trkpt lat="45.518183414840834" lon="8.015843512132127"><ele>317.0</ele><time>2026-04-26T10:44:10Z</time></trkpt><trkpt lat="45.518350709052505" lon="8.015877002075504"><ele>318.0</ele><time>2026-04-26T10:44:11Z</time></trkpt><trkpt lat="45.51853444453642" lon="8.015913693970957"><ele>319.0</ele><time>2026-04-26T10:44:12Z</time></trkpt><trkpt lat="45.51872660398809" lon="8.015953109319845"><ele>320.3333333333333</ele><time>2026-04-26T10:44:13Z</time></trkpt><trkpt lat="45.518911977196765" lon="8.01598614262844"><ele>321.6666666666667</ele><time>2026-04-26T10:44:14Z</time></trkpt><trkpt lat="45.519100398435555" lon="8.016019668995735"><ele>323.0</ele><time>2026-04-26T10:44:15Z</time></trkpt><trkpt lat="45.51927615317634" lon="8.016049212607168"><ele>323.0</ele><time>2026-04-26T10:44:16Z</time></trkpt><trkpt lat="45.51944370003641" lon="8.016066805367549"><ele>323.0</ele><time>2026-04-26T10:44:17Z</time></trkpt><trkpt lat="45.51960432075109" lon="8.016062679007087"><ele>323.0</ele><time>2026-04-26T10:44:18Z</time></trkpt><trkpt lat="45.519757444893415" lon="8.016049556485665"><ele>322.75</ele><time>2026-04-26T10:44:19Z</time></trkpt><trkpt lat="45.51990762504029" lon="8.016047109475865"><ele>322.5</ele><time>2026-04-26T10:44:20Z</time></trkpt><trkpt lat="45.52005395294147" lon="8.016062572354066"><ele>322.25</ele><time>2026-04-26T10:44:21Z</time></trkpt><trkpt lat="45.5201919446905" lon="8.016088880631075"><ele>322.0</ele><time>2026-04-26T10:44:22Z</time></trkpt><trkpt lat="45.52030962058092" lon="8.016112608528736"><ele>322.40000000000003</ele><time>2026-04-26T10:44:23Z</time></trkpt><trkpt lat="45.520405367646944" lon="8.016131172114152"><ele>322.8</ele><time>2026-04-26T10:44:24Z</time></trkpt><trkpt lat="45.52049141036662" lon="8.0161598868092"><ele>323.2</ele><time>2026-04-26T10:44:25Z</time></trkpt><trkpt lat="45.52057164603251" lon="8.01622047515946"><ele>323.6</ele><time>2026-04-26T10:44:26.001Z</time></trkpt><trkpt lat="45.52065363013885" lon="8.016286634559862"><ele>324.0</ele><time>2026-04-26T10:44:27.001Z</time></trkpt><trkpt lat="45.52075439156235" lon="8.016312353387475"><ele>324.0</ele><time>2026-04-26T10:44:28.001Z</time></trkpt><trkpt lat="45.520867252196986" lon="8.016277395492315"><ele>324.0</ele><time>2026-04-26T10:44:29.001Z</time></trkpt><trkpt lat="45.52099789735228" lon="8.01621679775267"><ele>324.0</ele><time>2026-04-26T10:44:30.001Z</time></trkpt><trkpt lat="45.521150284204396" lon="8.016260270970259"><ele>324.0</ele><time>2026-04-26T10:44:31.001Z</time></trkpt><trkpt lat="45.521323282192945" lon="8.016301775406141"><ele>325.0</ele><time>2026-04-26T10:44:32.001Z</time></trkpt><trkpt lat="45.52149035453395" lon="8.016339564176402"><ele>326.0</ele><time>2026-04-26T10:44:33.001Z</time></trkpt><trkpt lat="45.52166216366017" lon="8.016376859679067"><ele>327.0</ele><time>2026-04-26T10:44:34.001Z</time></trkpt><trkpt lat="45.521842462629266" lon="8.016414650043677"><ele>327.0</ele><time>2026-04-26T10:44:35.001Z</time></trkpt><trkpt lat="45.5220308531402" lon="8.016456620631375"><ele>327.0</ele><time>2026-04-26T10:44:36.001Z</time></trkpt><trkpt lat="45.52222405919148" lon="8.016500963894945"><ele>327.0</ele><time>2026-04-26T10:44:37.001Z</time></trkpt><trkpt lat="45.522418517513096" lon="8.016544162808126"><ele>327.3333333333333</ele><time>2026-04-26T10:44:38.001Z</time></trkpt><trkpt lat="45.52261441512661" lon="8.016585645872329"><ele>327.66666666666663</ele><time>2026-04-26T10:44:39.001Z</time></trkpt><trkpt lat="45.52280883411338" lon="8.016626069995015"><ele>328.0</ele><time>2026-04-26T10:44:40.001Z</time></trkpt><trkpt lat="45.523002486955015" lon="8.016670200278726"><ele>328.3333333333333</ele><time>2026-04-26T10:44:41.001Z</time></trkpt><trkpt lat="45.523196518268385" lon="8.016718491818459"><ele>328.6666666666667</ele><time>2026-04-26T10:44:42.001Z</time></trkpt><trkpt lat="45.52339142244072" lon="8.01676741803883"><ele>329.0</ele><time>2026-04-26T10:44:43.001Z</time></trkpt><trkpt lat="45.52358588656095" lon="8.016819112535803"><ele>330.33333333333337</ele><time>2026-04-26T10:44:44.001Z</time></trkpt><trkpt lat="45.52378318876569" lon="8.016876061884814"><ele>331.6666666666667</ele><time>2026-04-26T10:44:45.001Z</time></trkpt><trkpt lat="45.52398014592736" lon="8.016941090987993"><ele>333.0</ele><time>2026-04-26T10:44:46Z</time></trkpt><trkpt lat="45.52416930837058" lon="8.017017322107227"><ele>333.0</ele><time>2026-04-26T10:44:47Z</time></trkpt><trkpt lat="45.52436335315551" lon="8.017100391733688"><ele>333.0</ele><time>2026-04-26T10:44:48Z</time></trkpt><trkpt lat="45.5245639444399" lon="8.017176614482242"><ele>333.0</ele><time>2026-04-26T10:44:49Z</time></trkpt><trkpt lat="45.524766639547465" lon="8.017246192223956"><ele>333.3333333333333</ele><time>2026-04-26T10:44:50Z</time></trkpt><trkpt lat="45.52497132508055" lon="8.017318258810679"><ele>333.66666666666663</ele><time>2026-04-26T10:44:51Z</time></trkpt><trkpt lat="45.52517296980894" lon="8.017394370857765"><ele>334.0</ele><time>2026-04-26T10:44:52Z</time></trkpt><trkpt lat="45.52536580166027" lon="8.017471100088393"><ele>333.66666666666663</ele><time>2026-04-26T10:44:53Z</time></trkpt><trkpt lat="45.52554453337627" lon="8.017541513433295"><ele>333.3333333333333</ele><time>2026-04-26T10:44:54Z</time></trkpt><trkpt lat="45.5257161404967" lon="8.017610746048936"><ele>333.0</ele><time>2026-04-26T10:44:55Z</time></trkpt><trkpt lat="45.52587523912989" lon="8.017674708914344"><ele>333.0</ele><time>2026-04-26T10:44:56Z</time></trkpt><trkpt lat="45.5260243535822" lon="8.017733960522502"><ele>333.0</ele><time>2026-04-26T10:44:57Z</time></trkpt><trkpt lat="45.52616324107428" lon="8.017794335343586"><ele>333.0</ele><time>2026-04-26T10:44:58Z</time></trkpt><trkpt lat="45.52629927362861" lon="8.017871806418142"><ele>333.0</ele><time>2026-04-26T10:44:59Z</time></trkpt><trkpt lat="45.526428138292545" lon="8.017977710588804"><ele>333.5</ele><time>2026-04-26T10:45:00Z</time></trkpt><trkpt lat="45.526536480198544" lon="8.018115554610224"><ele>334.0</ele><time>2026-04-26T10:45:01Z</time></trkpt><trkpt lat="45.52661834003538" lon="8.018266747745391"><ele>334.5</ele><time>2026-04-26T10:45:02Z</time></trkpt><trkpt lat="45.526674945186784" lon="8.018395795712195"><ele>335.0</ele><time>2026-04-26T10:45:03Z</time></trkpt><trkpt lat="45.52671136787103" lon="8.018500184979372"><ele>335.0</ele><time>2026-04-26T10:45:04Z</time></trkpt><trkpt lat="45.52672612666453" lon="8.018598787594991"><ele>335.0</ele><time>2026-04-26T10:45:05Z</time></trkpt><trkpt lat="45.526715647639406" lon="8.01869856436465"><ele>335.0</ele><time>2026-04-26T10:45:06Z</time></trkpt><trkpt lat="45.52667915361617" lon="8.018803956939776"><ele>335.0</ele><time>2026-04-26T10:45:07Z</time></trkpt><trkpt lat="45.526646327053186" lon="8.018919272444787"><ele>335.0</ele><time>2026-04-26T10:45:08Z</time></trkpt><trkpt lat="45.52664634116362" lon="8.019050327241345"><ele>335.0</ele><time>2026-04-26T10:45:09Z</time></trkpt><trkpt lat="45.52668600606732" lon="8.019178211034383"><ele>334.75</ele><time>2026-04-26T10:45:10Z</time></trkpt><trkpt lat="45.526763597491914" lon="8.019298835928907"><ele>334.5</ele><time>2026-04-26T10:45:11Z</time></trkpt><trkpt lat="45.52685415273203" lon="8.019432193793724"><ele>334.25</ele><time>2026-04-26T10:45:12Z</time></trkpt><trkpt lat="45.526967615489845" lon="8.01957217805757"><ele>334.0</ele><time>2026-04-26T10:45:13Z</time></trkpt><trkpt lat="45.527058665342196" lon="8.019781940971043"><ele>334.66666666666663</ele><time>2026-04-26T10:45:14Z</time></trkpt><trkpt lat="45.52715457129698" lon="8.020007354327007"><ele>335.3333333333333</ele><time>2026-04-26T10:45:15Z</time></trkpt><trkpt lat="45.52723669431758" lon="8.020258748401865"><ele>336.0</ele><time>2026-04-26T10:45:16Z</time></trkpt><trkpt lat="45.52728338489069" lon="8.020526433229964"><ele>336.0</ele><time>2026-04-26T10:45:17Z</time></trkpt><trkpt lat="45.5273255968645" lon="8.020790119671682"><ele>336.0</ele><time>2026-04-26T10:45:18Z</time></trkpt><trkpt lat="45.52738133434395" lon="8.021038581816466"><ele>336.0</ele><time>2026-04-26T10:45:19Z</time></trkpt><trkpt lat="45.52744764765793" lon="8.021285705919192"><ele>336.0</ele><time>2026-04-26T10:45:20Z</time></trkpt><trkpt lat="45.52751924365605" lon="8.021535005939908"><ele>336.0</ele><time>2026-04-26T10:45:21Z</time></trkpt><trkpt lat="45.527587918551845" lon="8.021788633146356"><ele>336.0</ele><time>2026-04-26T10:45:22Z</time></trkpt><trkpt lat="45.52765563085853" lon="8.02204788709964"><ele>335.6666666666667</ele><time>2026-04-26T10:45:23Z</time></trkpt><trkpt lat="45.52772415519176" lon="8.022311925853145"><ele>335.33333333333337</ele><time>2026-04-26T10:45:24Z</time></trkpt><trkpt lat="45.527796249350686" lon="8.022579418206007"><ele>335.0</ele><time>2026-04-26T10:45:25Z</time></trkpt><trkpt lat="45.52787013437676" lon="8.022846558683765"><ele>334.6666666666667</ele><time>2026-04-26T10:45:26Z</time></trkpt><trkpt lat="45.52794523848596" lon="8.023116716809803"><ele>334.3333333333333</ele><time>2026-04-26T10:45:27Z</time></trkpt><trkpt lat="45.528021465335044" lon="8.023390707439555"><ele>334.0</ele><time>2026-04-26T10:45:28Z</time></trkpt><trkpt lat="45.52809668859259" lon="8.023661988224534"><ele>335.0</ele><time>2026-04-26T10:45:29Z</time></trkpt><trkpt lat="45.52817210159128" lon="8.023932729206514"><ele>336.0</ele><time>2026-04-26T10:45:30Z</time></trkpt><trkpt lat="45.528246276390426" lon="8.02420133143098"><ele>337.0</ele><time>2026-04-26T10:45:31Z</time></trkpt><trkpt lat="45.52832088440083" lon="8.024465977211662"><ele>337.3333333333333</ele><time>2026-04-26T10:45:32Z</time></trkpt><trkpt lat="45.52839299565061" lon="8.024728975270792"><ele>337.6666666666667</ele><time>2026-04-26T10:45:33Z</time></trkpt><trkpt lat="45.52846102456207" lon="8.0249889921839"><ele>338.0</ele><time>2026-04-26T10:45:34Z</time></trkpt><trkpt lat="45.528522658360465" lon="8.025248045089427"><ele>338.0</ele><time>2026-04-26T10:45:35Z</time></trkpt><trkpt lat="45.528577153245315" lon="8.025511518807464"><ele>338.0</ele><time>2026-04-26T10:45:36Z</time></trkpt><trkpt lat="45.52862735057767" lon="8.025777506010527"><ele>338.0</ele><time>2026-04-26T10:45:37Z</time></trkpt><trkpt lat="45.528672689990515" lon="8.026040747037738"><ele>337.6666666666667</ele><time>2026-04-26T10:45:38Z</time></trkpt><trkpt lat="45.528712292104146" lon="8.026297819379527"><ele>337.3333333333333</ele><time>2026-04-26T10:45:39Z</time></trkpt><trkpt lat="45.5287430245764" lon="8.026549534594578"><ele>337.0</ele><time>2026-04-26T10:45:40Z</time></trkpt><trkpt lat="45.528766787940484" lon="8.026794299241267"><ele>337.75</ele><time>2026-04-26T10:45:41Z</time></trkpt><trkpt lat="45.52878564278626" lon="8.027015342020391"><ele>338.5</ele><time>2026-04-26T10:45:42Z</time></trkpt><trkpt lat="45.52879913931709" lon="8.027208103323675"><ele>339.25</ele><time>2026-04-26T10:45:43Z</time></trkpt><trkpt lat="45.52880980556444" lon="8.027362821770312"><ele>340.0</ele><time>2026-04-26T10:45:44Z</time></trkpt><trkpt lat="45.52881768310387" lon="8.027491364091798"><ele>340.0</ele><time>2026-04-26T10:45:45Z</time></trkpt><trkpt lat="45.52881995568851" lon="8.027603355252948"><ele>340.0</ele><time>2026-04-26T10:45:46Z</time></trkpt><trkpt lat="45.52882074854784" lon="8.027720335175799"><ele>340.0</ele><time>2026-04-26T10:45:47Z</time></trkpt><trkpt lat="45.52882816745652" lon="8.027849860835596"><ele>340.0</ele><time>2026-04-26T10:45:48Z</time></trkpt><trkpt lat="45.528857149003315" lon="8.02799364648563"><ele>340.0</ele><time>2026-04-26T10:45:49Z</time></trkpt><trkpt lat="45.528887404822" lon="8.028151932376707"><ele>340.0</ele><time>2026-04-26T10:45:50Z</time></trkpt><trkpt lat="45.528908623413535" lon="8.028327742084523"><ele>340.0</ele><time>2026-04-26T10:45:51Z</time></trkpt><trkpt lat="45.5289089054596" lon="8.02851276701938"><ele>340.0</ele><time>2026-04-26T10:45:52Z</time></trkpt><trkpt lat="45.52888214849649" lon="8.02870209158444"><ele>340.0</ele><time>2026-04-26T10:45:53Z</time></trkpt><trkpt lat="45.52882659253739" lon="8.0288789500142"><ele>340.0</ele><time>2026-04-26T10:45:54Z</time></trkpt><trkpt lat="45.52875464402531" lon="8.029045254532505"><ele>340.0</ele><time>2026-04-26T10:45:55Z</time></trkpt><trkpt lat="45.52865416968562" lon="8.02920203209631"><ele>340.0</ele><time>2026-04-26T10:45:56Z</time></trkpt><trkpt lat="45.528543448747975" lon="8.029335561658105"><ele>340.0</ele><time>2026-04-26T10:45:57Z</time></trkpt><trkpt lat="45.52842446605246" lon="8.029477058596324"><ele>339.66666666666663</ele><time>2026-04-26T10:45:58Z</time></trkpt><trkpt lat="45.52829795540162" lon="8.029637763553149"><ele>339.3333333333333</ele><time>2026-04-26T10:45:59Z</time></trkpt><trkpt lat="45.52817109738903" lon="8.029813132928382"><ele>339.0</ele><time>2026-04-26T10:46:00Z</time></trkpt><trkpt lat="45.52804674155692" lon="8.030005956197934"><ele>339.0</ele><time>2026-04-26T10:46:01Z</time></trkpt><trkpt lat="45.52792689965185" lon="8.030211533309203"><ele>339.0</ele><time>2026-04-26T10:46:02Z</time></trkpt><trkpt lat="45.52780596884111" lon="8.030419901572271"><ele>339.0</ele><time>2026-04-26T10:46:03Z</time></trkpt><trkpt lat="45.52768437664597" lon="8.030622969156399"><ele>338.0</ele><time>2026-04-26T10:46:04Z</time></trkpt><trkpt lat="45.52757307788264" lon="8.030809689164874"><ele>337.0</ele><time>2026-04-26T10:46:05Z</time></trkpt><trkpt lat="45.52746815391722" lon="8.030983300276942"><ele>336.0</ele><time>2026-04-26T10:46:06Z</time></trkpt><trkpt lat="45.52737013077305" lon="8.03114623240966"><ele>336.0</ele><time>2026-04-26T10:46:07Z</time></trkpt><trkpt lat="45.52728224228125" lon="8.031303139031497"><ele>336.0</ele><time>2026-04-26T10:46:08Z</time></trkpt><trkpt lat="45.527210138729735" lon="8.031472949873308"><ele>336.0</ele><time>2026-04-26T10:46:09Z</time></trkpt><trkpt lat="45.527159390146906" lon="8.031669713716761"><ele>336.0</ele><time>2026-04-26T10:46:10Z</time></trkpt><trkpt lat="45.52712657092655" lon="8.031876399793454"><ele>336.3333333333333</ele><time>2026-04-26T10:46:11Z</time></trkpt><trkpt lat="45.52710990874466" lon="8.032096924366206"><ele>336.66666666666663</ele><time>2026-04-26T10:46:12Z</time></trkpt><trkpt lat="45.527118878649276" lon="8.032329958097188"><ele>337.0</ele><time>2026-04-26T10:46:13Z</time></trkpt><trkpt lat="45.52713636079689" lon="8.032577355945383"><ele>337.3333333333333</ele><time>2026-04-26T10:46:14Z</time></trkpt><trkpt lat="45.52715217491562" lon="8.032839832346284"><ele>337.6666666666667</ele><time>2026-04-26T10:46:15Z</time></trkpt><trkpt lat="45.52716197123335" lon="8.0331124697434"><ele>338.0</ele><time>2026-04-26T10:46:16Z</time></trkpt><trkpt lat="45.52717255652183" lon="8.033383369693327"><ele>338.0</ele><time>2026-04-26T10:46:17Z</time></trkpt><trkpt lat="45.52718829110115" lon="8.033667866654708"><ele>338.0</ele><time>2026-04-26T10:46:18Z</time></trkpt><trkpt lat="45.52720934537188" lon="8.033960408968753"><ele>338.0</ele><time>2026-04-26T10:46:19Z</time></trkpt><trkpt lat="45.52722954973488" lon="8.03425974077905"><ele>337.6666666666667</ele><time>2026-04-26T10:46:20Z</time></trkpt><trkpt lat="45.52724739666407" lon="8.034562653287622"><ele>337.3333333333333</ele><time>2026-04-26T10:46:21Z</time></trkpt><trkpt lat="45.52726964557091" lon="8.034870595056082"><ele>337.0</ele><time>2026-04-26T10:46:22Z</time></trkpt><trkpt lat="45.52729506508845" lon="8.035177849094298"><ele>336.66666666666663</ele><time>2026-04-26T10:46:23Z</time></trkpt><trkpt lat="45.527323108385836" lon="8.03548003099543"><ele>336.3333333333333</ele><time>2026-04-26T10:46:24Z</time></trkpt><trkpt lat="45.52735597710665" lon="8.035787655109791"><ele>336.0</ele><time>2026-04-26T10:46:25Z</time></trkpt><trkpt lat="45.527386828507225" lon="8.036090073442143"><ele>335.6666666666667</ele><time>2026-04-26T10:46:26Z</time></trkpt><trkpt lat="45.527421741358175" lon="8.036383155301172"><ele>335.33333333333337</ele><time>2026-04-26T10:46:27Z</time></trkpt><trkpt lat="45.5274657116346" lon="8.036667429028029"><ele>335.0</ele><time>2026-04-26T10:46:28Z</time></trkpt><trkpt lat="45.52752035100064" lon="8.036944285233819"><ele>335.0</ele><time>2026-04-26T10:46:29Z</time></trkpt><trkpt lat="45.52759622034174" lon="8.037203663089482"><ele>335.0</ele><time>2026-04-26T10:46:30Z</time></trkpt><trkpt lat="45.527677675906304" lon="8.037449603025992"><ele>335.0</ele><time>2026-04-26T10:46:31Z</time></trkpt><trkpt lat="45.52774576433738" lon="8.037702831953297"><ele>335.0</ele><time>2026-04-26T10:46:32Z</time></trkpt><trkpt lat="45.52779239284975" lon="8.037965225223608"><ele>335.0</ele><time>2026-04-26T10:46:33Z</time></trkpt><trkpt lat="45.527822676664265" lon="8.03823440214463"><ele>335.0</ele><time>2026-04-26T10:46:34Z</time></trkpt><trkpt lat="45.52783513859899" lon="8.038512844980641"><ele>335.0</ele><time>2026-04-26T10:46:35Z</time></trkpt><trkpt lat="45.52783205043463" lon="8.03879199734834"><ele>335.0</ele><time>2026-04-26T10:46:36Z</time></trkpt><trkpt lat="45.52783289525111" lon="8.039054875460096"><ele>335.0</ele><time>2026-04-26T10:46:37Z</time></trkpt><trkpt lat="45.52783615820901" lon="8.039302914815337"><ele>334.6666666666667</ele><time>2026-04-26T10:46:38Z</time></trkpt><trkpt lat="45.527841082056504" lon="8.039543020139252"><ele>334.3333333333333</ele><time>2026-04-26T10:46:39Z</time></trkpt><trkpt lat="45.527844595405604" lon="8.039770655356131"><ele>334.0</ele><time>2026-04-26T10:46:40Z</time></trkpt><trkpt lat="45.52784595261259" lon="8.03998946648908"><ele>335.3333333333333</ele><time>2026-04-26T10:46:41Z</time></trkpt><trkpt lat="45.52784894778981" lon="8.040199063551718"><ele>336.6666666666667</ele><time>2026-04-26T10:46:42Z</time></trkpt><trkpt lat="45.52786666314666" lon="8.040415835470831"><ele>338.0</ele><time>2026-04-26T10:46:43Z</time></trkpt><trkpt lat="45.52791220551008" lon="8.04063086837479"><ele>339.33333333333337</ele><time>2026-04-26T10:46:44Z</time></trkpt><trkpt lat="45.52798643787414" lon="8.040837856120833"><ele>340.6666666666667</ele><time>2026-04-26T10:46:45Z</time></trkpt><trkpt lat="45.5280854011267" lon="8.04103180318018"><ele>342.0</ele><time>2026-04-26T10:46:46Z</time></trkpt><trkpt lat="45.528199115877285" lon="8.041202497086378"><ele>342.0</ele><time>2026-04-26T10:46:47Z</time></trkpt><trkpt lat="45.52829647404715" lon="8.041360971936918"><ele>342.0</ele><time>2026-04-26T10:46:48Z</time></trkpt><trkpt lat="45.528360588763995" lon="8.041495116040837"><ele>342.0</ele><time>2026-04-26T10:46:49Z</time></trkpt><trkpt lat="45.52841043315814" lon="8.041597578285382"><ele>342.0</ele><time>2026-04-26T10:46:50Z</time></trkpt><trkpt lat="45.52841003697107" lon="8.041708823394986"><ele>342.0</ele><time>2026-04-26T10:46:51Z</time></trkpt><trkpt lat="45.52839922960153" lon="8.041820983311677"><ele>342.0</ele><time>2026-04-26T10:46:52Z</time></trkpt><trkpt lat="45.52835230360707" lon="8.041933769555435"><ele>342.0</ele><time>2026-04-26T10:46:53Z</time></trkpt><trkpt lat="45.52827675722635" lon="8.042039792894531"><ele>342.0</ele><time>2026-04-26T10:46:54Z</time></trkpt><trkpt lat="45.5282102989409" lon="8.042168588835036"><ele>342.0</ele><time>2026-04-26T10:46:55Z</time></trkpt><trkpt lat="45.52816717965912" lon="8.042329828929736"><ele>342.0</ele><time>2026-04-26T10:46:56Z</time></trkpt><trkpt lat="45.52816287825317" lon="8.042502233414803"><ele>341.75</ele><time>2026-04-26T10:46:57Z</time></trkpt><trkpt lat="45.52820004379042" lon="8.042659933031151"><ele>341.5</ele><time>2026-04-26T10:46:58Z</time></trkpt><trkpt lat="45.52825911819951" lon="8.042801861967856"><ele>341.25</ele><time>2026-04-26T10:46:59Z</time></trkpt><trkpt lat="45.52833833539842" lon="8.042920667849176"><ele>341.0</ele><time>2026-04-26T10:47:00Z</time></trkpt><trkpt lat="45.52843717956627" lon="8.043003733302466"><ele>341.0</ele><time>2026-04-26T10:47:01Z</time></trkpt><trkpt lat="45.52855165917677" lon="8.043048883997235"><ele>341.0</ele><time>2026-04-26T10:47:02Z</time></trkpt><trkpt lat="45.528678276140525" lon="8.043052681284701"><ele>341.0</ele><time>2026-04-26T10:47:03Z</time></trkpt><trkpt lat="45.52880288971605" lon="8.042999068073113"><ele>341.0</ele><time>2026-04-26T10:47:04Z</time></trkpt><trkpt lat="45.52891798777881" lon="8.042889215550941"><ele>341.25</ele><time>2026-04-26T10:47:05Z</time></trkpt><trkpt lat="45.52900365653683" lon="8.042732019394409"><ele>341.5</ele><time>2026-04-26T10:47:06Z</time></trkpt><trkpt lat="45.529068535706024" lon="8.042568449163175"><ele>341.75</ele><time>2026-04-26T10:47:07Z</time></trkpt><trkpt lat="45.52915421965141" lon="8.042431278188674"><ele>342.0</ele><time>2026-04-26T10:47:08Z</time></trkpt><trkpt lat="45.52928364373909" lon="8.042330096332872"><ele>342.3333333333333</ele><time>2026-04-26T10:47:09Z</time></trkpt><trkpt lat="45.529430868179304" lon="8.042214940542596"><ele>342.66666666666663</ele><time>2026-04-26T10:47:10Z</time></trkpt><trkpt lat="45.529621631582756" lon="8.042203087949298"><ele>343.0</ele><time>2026-04-26T10:47:11Z</time></trkpt><trkpt lat="45.529807018955616" lon="8.042155516742367"><ele>343.0</ele><time>2026-04-26T10:47:12Z</time></trkpt><trkpt lat="45.53000782028426" lon="8.042108260436187"><ele>343.0</ele><time>2026-04-26T10:47:13Z</time></trkpt><trkpt lat="45.530208429518275" lon="8.042063881096698"><ele>343.0</ele><time>2026-04-26T10:47:14Z</time></trkpt><trkpt lat="45.53041045314984" lon="8.04201673547229"><ele>343.66666666666663</ele><time>2026-04-26T10:47:15Z</time></trkpt><trkpt lat="45.5306173152164" lon="8.041974266182756"><ele>344.3333333333333</ele><time>2026-04-26T10:47:16Z</time></trkpt><trkpt lat="45.53082147553701" lon="8.041931941302343"><ele>345.0</ele><time>2026-04-26T10:47:17Z</time></trkpt><trkpt lat="45.5310190169123" lon="8.041887911187777"><ele>345.0</ele><time>2026-04-26T10:47:18Z</time></trkpt><trkpt lat="45.5312067505525" lon="8.041843371300907"><ele>345.0</ele><time>2026-04-26T10:47:19Z</time></trkpt><trkpt lat="45.53138289897197" lon="8.041824402200234"><ele>345.0</ele><time>2026-04-26T10:47:20Z</time></trkpt><trkpt lat="45.531543642202195" lon="8.041752195391215"><ele>345.25</ele><time>2026-04-26T10:47:21Z</time></trkpt><trkpt lat="45.53169297895851" lon="8.041710954329993"><ele>345.5</ele><time>2026-04-26T10:47:22Z</time></trkpt><trkpt lat="45.531834468457454" lon="8.041667996612658"><ele>345.75</ele><time>2026-04-26T10:47:23Z</time></trkpt><trkpt lat="45.53198037300724" lon="8.041613204720845"><ele>346.0</ele><time>2026-04-26T10:47:24Z</time></trkpt><trkpt lat="45.53214834612556" lon="8.04161594087672"><ele>346.66666666666663</ele><time>2026-04-26T10:47:25Z</time></trkpt><trkpt lat="45.5323184237955" lon="8.04155598516926"><ele>347.3333333333333</ele><time>2026-04-26T10:47:26Z</time></trkpt><trkpt lat="45.53248501141979" lon="8.04149725977653"><ele>348.0</ele><time>2026-04-26T10:47:27Z</time></trkpt><trkpt lat="45.53263156979811" lon="8.041443729089927"><ele>348.0</ele><time>2026-04-26T10:47:28Z</time></trkpt><trkpt lat="45.53275832271771" lon="8.041395357035897"><ele>348.0</ele><time>2026-04-26T10:47:29Z</time></trkpt><trkpt lat="45.53287810284308" lon="8.04134602072343"><ele>348.0</ele><time>2026-04-26T10:47:30Z</time></trkpt><trkpt lat="45.533013667912556" lon="8.041288188572594"><ele>348.0</ele><time>2026-04-26T10:47:31Z</time></trkpt><trkpt lat="45.533160636456195" lon="8.041223131689167"><ele>346.3333333333333</ele><time>2026-04-26T10:47:32Z</time></trkpt><trkpt lat="45.53332758055811" lon="8.041145795360222"><ele>344.66666666666663</ele><time>2026-04-26T10:47:33Z</time></trkpt><trkpt lat="45.53351296872185" lon="8.04105809189967"><ele>343.0</ele><time>2026-04-26T10:47:34Z</time></trkpt><trkpt lat="45.533717806194204" lon="8.040961077477002"><ele>344.5</ele><time>2026-04-26T10:47:35Z</time></trkpt><trkpt lat="45.533938811728554" lon="8.040855505121872"><ele>346.0</ele><time>2026-04-26T10:47:36Z</time></trkpt><trkpt lat="45.53417180229479" lon="8.040744207628105"><ele>346.0</ele><time>2026-04-26T10:47:37Z</time></trkpt><trkpt lat="45.534395185802396" lon="8.04063749934302"><ele>346.0</ele><time>2026-04-26T10:47:38Z</time></trkpt><trkpt lat="45.5346173492216" lon="8.040516721545808"><ele>346.5</ele><time>2026-04-26T10:47:39Z</time></trkpt><trkpt lat="45.53485009818593" lon="8.040431147232834"><ele>347.0</ele><time>2026-04-26T10:47:40Z</time></trkpt><trkpt lat="45.53507693420275" lon="8.040301923028878"><ele>347.0</ele><time>2026-04-26T10:47:41Z</time></trkpt><trkpt lat="45.5353078078246" lon="8.040189847658034"><ele>347.0</ele><time>2026-04-26T10:47:42Z</time></trkpt><trkpt lat="45.53553989893598" lon="8.040107660579238"><ele>349.0</ele><time>2026-04-26T10:47:43Z</time></trkpt><trkpt lat="45.53575894681992" lon="8.039999996924077"><ele>351.0</ele><time>2026-04-26T10:47:44Z</time></trkpt><trkpt lat="45.53597164067768" lon="8.039878941561861"><ele>351.0</ele><time>2026-04-26T10:47:45Z</time></trkpt><trkpt lat="45.536188736517694" lon="8.039784935724397"><ele>351.0</ele><time>2026-04-26T10:47:46Z</time></trkpt><trkpt lat="45.53640660617168" lon="8.039692760462081"><ele>351.0</ele><time>2026-04-26T10:47:47Z</time></trkpt><trkpt lat="45.536622872063305" lon="8.039598608744319"><ele>351.0</ele><time>2026-04-26T10:47:48Z</time></trkpt><trkpt lat="45.53683678503614" lon="8.039504289992957"><ele>351.0</ele><time>2026-04-26T10:47:49Z</time></trkpt><trkpt lat="45.537046571095026" lon="8.039415952145609"><ele>351.0</ele><time>2026-04-26T10:47:50Z</time></trkpt><trkpt lat="45.537251399784054" lon="8.039334908541381"><ele>351.0</ele><time>2026-04-26T10:47:51Z</time></trkpt><trkpt lat="45.53745357323984" lon="8.039259647221858"><ele>351.6666666666667</ele><time>2026-04-26T10:47:52Z</time></trkpt><trkpt lat="45.53765308267323" lon="8.039188374605706"><ele>352.33333333333337</ele><time>2026-04-26T10:47:53Z</time></trkpt><trkpt lat="45.53784841315511" lon="8.039113487422817"><ele>353.0</ele><time>2026-04-26T10:47:54Z</time></trkpt><trkpt lat="45.53804035251929" lon="8.039040410793932"><ele>355.0</ele><time>2026-04-26T10:47:55Z</time></trkpt><trkpt lat="45.53822823252326" lon="8.038969728385718"><ele>357.0</ele><time>2026-04-26T10:47:56Z</time></trkpt><trkpt lat="45.5384104740647" lon="8.038902731208841"><ele>359.0</ele><time>2026-04-26T10:47:57Z</time></trkpt><trkpt lat="45.538582778574415" lon="8.038840608405097"><ele>358.6666666666667</ele><time>2026-04-26T10:47:58Z</time></trkpt><trkpt lat="45.53874711831945" lon="8.038784066296348"><ele>358.3333333333333</ele><time>2026-04-26T10:47:59Z</time></trkpt><trkpt lat="45.53889921022037" lon="8.038740177745526"><ele>358.0</ele><time>2026-04-26T10:48:00Z</time></trkpt><trkpt lat="45.5390446581517" lon="8.038718202970227"><ele>358.0</ele><time>2026-04-26T10:48:01Z</time></trkpt><trkpt lat="45.53918607398216" lon="8.038719679838126"><ele>358.0</ele><time>2026-04-26T10:48:02Z</time></trkpt><trkpt lat="45.53932563064264" lon="8.038740662235618"><ele>358.0</ele><time>2026-04-26T10:48:03Z</time></trkpt><trkpt lat="45.53946248613206" lon="8.038782761009507"><ele>358.0</ele><time>2026-04-26T10:48:04Z</time></trkpt><trkpt lat="45.53959073050912" lon="8.038836927883926"><ele>359.0</ele><time>2026-04-26T10:48:05Z</time></trkpt><trkpt lat="45.539720959930015" lon="8.038909112040223"><ele>360.0</ele><time>2026-04-26T10:48:06Z</time></trkpt><trkpt lat="45.53985314124621" lon="8.039014766961383"><ele>361.0</ele><time>2026-04-26T10:48:07Z</time></trkpt><trkpt lat="45.5399889127918" lon="8.039147066879272"><ele>361.0</ele><time>2026-04-26T10:48:08Z</time></trkpt><trkpt lat="45.5401322039334" lon="8.039287866485878"><ele>361.0</ele><time>2026-04-26T10:48:09Z</time></trkpt><trkpt lat="45.54028101247415" lon="8.039441383882375"><ele>361.0</ele><time>2026-04-26T10:48:10Z</time></trkpt><trkpt lat="45.540424330560576" lon="8.039611684722304"><ele>361.66666666666663</ele><time>2026-04-26T10:48:11Z</time></trkpt><trkpt lat="45.54056006611932" lon="8.039786191579372"><ele>362.3333333333333</ele><time>2026-04-26T10:48:12Z</time></trkpt><trkpt lat="45.54069944426572" lon="8.039970795186866"><ele>363.0</ele><time>2026-04-26T10:48:13Z</time></trkpt><trkpt lat="45.540841997067645" lon="8.040163895766431"><ele>363.0</ele><time>2026-04-26T10:48:14Z</time></trkpt><trkpt lat="45.54098410451661" lon="8.040369238666266"><ele>363.0</ele><time>2026-04-26T10:48:15Z</time></trkpt><trkpt lat="45.5411249001733" lon="8.040588110173587"><ele>363.0</ele><time>2026-04-26T10:48:16Z</time></trkpt><trkpt lat="45.541258866718174" lon="8.040826663517391"><ele>363.6666666666667</ele><time>2026-04-26T10:48:17Z</time></trkpt><trkpt lat="45.54138637030236" lon="8.041084424630341"><ele>364.33333333333337</ele><time>2026-04-26T10:48:18Z</time></trkpt><trkpt lat="45.541502568768486" lon="8.041338344135252"><ele>365.0</ele><time>2026-04-26T10:48:19Z</time></trkpt><trkpt lat="45.54161490195983" lon="8.041600317791582"><ele>364.6666666666667</ele><time>2026-04-26T10:48:20Z</time></trkpt><trkpt lat="45.54171945860165" lon="8.041868959073145"><ele>364.3333333333333</ele><time>2026-04-26T10:48:21Z</time></trkpt><trkpt lat="45.54181748204579" lon="8.042144880103766"><ele>364.0</ele><time>2026-04-26T10:48:22Z</time></trkpt><trkpt lat="45.5419082322149" lon="8.042428061100608"><ele>365.3333333333333</ele><time>2026-04-26T10:48:23Z</time></trkpt><trkpt lat="45.541990912198294" lon="8.042714742250464"><ele>366.6666666666667</ele><time>2026-04-26T10:48:24Z</time></trkpt><trkpt lat="45.54206447045392" lon="8.043011858401966"><ele>368.0</ele><time>2026-04-26T10:48:25Z</time></trkpt><trkpt lat="45.54212946621482" lon="8.043316716019598"><ele>368.5</ele><time>2026-04-26T10:48:26Z</time></trkpt><trkpt lat="45.542183147049926" lon="8.04362919555004"><ele>369.0</ele><time>2026-04-26T10:48:27Z</time></trkpt><trkpt lat="45.54222996835758" lon="8.04394699192263"><ele>369.5</ele><time>2026-04-26T10:48:28Z</time></trkpt><trkpt lat="45.542276704103784" lon="8.044264856862666"><ele>370.0</ele><time>2026-04-26T10:48:29Z</time></trkpt><trkpt lat="45.54232674187437" lon="8.04457911810575"><ele>370.0</ele><time>2026-04-26T10:48:30Z</time></trkpt><trkpt lat="45.54237959149641" lon="8.044888930572364"><ele>370.0</ele><time>2026-04-26T10:48:31Z</time></trkpt><trkpt lat="45.54243719539169" lon="8.045192926340164"><ele>370.0</ele><time>2026-04-26T10:48:32Z</time></trkpt><trkpt lat="45.542495559692256" lon="8.045494122178615"><ele>370.0</ele><time>2026-04-26T10:48:33Z</time></trkpt><trkpt lat="45.54255307909913" lon="8.045792504682147"><ele>370.0</ele><time>2026-04-26T10:48:34Z</time></trkpt><trkpt lat="45.54261375435638" lon="8.046085187318523"><ele>370.0</ele><time>2026-04-26T10:48:35Z</time></trkpt><trkpt lat="45.5426825339315" lon="8.046367329900567"><ele>369.66666666666663</ele><time>2026-04-26T10:48:36Z</time></trkpt><trkpt lat="45.54275542199012" lon="8.046642325665541"><ele>369.3333333333333</ele><time>2026-04-26T10:48:37Z</time></trkpt><trkpt lat="45.54283246552656" lon="8.046910867963641"><ele>369.0</ele><time>2026-04-26T10:48:38Z</time></trkpt><trkpt lat="45.54291348970759" lon="8.04716980702439"><ele>369.6666666666667</ele><time>2026-04-26T10:48:39Z</time></trkpt><trkpt lat="45.542997738995886" lon="8.047416704797547"><ele>370.33333333333337</ele><time>2026-04-26T10:48:40Z</time></trkpt><trkpt lat="45.54308146091169" lon="8.047656384356982"><ele>371.0</ele><time>2026-04-26T10:48:41Z</time></trkpt><trkpt lat="45.543163317214336" lon="8.047890075354937"><ele>371.0</ele><time>2026-04-26T10:48:42Z</time></trkpt><trkpt lat="45.5432494897714" lon="8.04812422362784"><ele>371.0</ele><time>2026-04-26T10:48:43Z</time></trkpt><trkpt lat="45.543337949638214" lon="8.048359512444193"><ele>371.0</ele><time>2026-04-26T10:48:44Z</time></trkpt><trkpt lat="45.54342807940201" lon="8.048597440769937"><ele>371.0</ele><time>2026-04-26T10:48:45Z</time></trkpt><trkpt lat="45.543521181986996" lon="8.048838492511173"><ele>371.0</ele><time>2026-04-26T10:48:46Z</time></trkpt><trkpt lat="45.543612570153364" lon="8.049082455397686"><ele>371.0</ele><time>2026-04-26T10:48:47Z</time></trkpt><trkpt lat="45.54370512459912" lon="8.049333984018263"><ele>371.0</ele><time>2026-04-26T10:48:48Z</time></trkpt><trkpt lat="45.543797103475704" lon="8.04958790807797"><ele>371.0</ele><time>2026-04-26T10:48:49Z</time></trkpt><trkpt lat="45.54388758207574" lon="8.049838959471362"><ele>371.0</ele><time>2026-04-26T10:48:50Z</time></trkpt><trkpt lat="45.54397813073405" lon="8.050088268420355"><ele>371.33333333333337</ele><time>2026-04-26T10:48:51Z</time></trkpt><trkpt lat="45.544071799031855" lon="8.050332308515758"><ele>371.6666666666667</ele><time>2026-04-26T10:48:52Z</time></trkpt><trkpt lat="45.544167383184075" lon="8.050575902878954"><ele>372.0</ele><time>2026-04-26T10:48:53Z</time></trkpt><trkpt lat="45.54426329887998" lon="8.050819046910258"><ele>371.3333333333333</ele><time>2026-04-26T10:48:54Z</time></trkpt><trkpt lat="45.54435777511154" lon="8.05106537117079"><ele>370.66666666666663</ele><time>2026-04-26T10:48:55Z</time></trkpt><trkpt lat="45.54445184764663" lon="8.051313865063749"><ele>370.0</ele><time>2026-04-26T10:48:56Z</time></trkpt><trkpt lat="45.54454492672416" lon="8.051566152159467"><ele>371.66666666666663</ele><time>2026-04-26T10:48:57Z</time></trkpt><trkpt lat="45.5446316107323" lon="8.05183140249505"><ele>373.3333333333333</ele><time>2026-04-26T10:48:58.018Z</time></trkpt><trkpt lat="45.544710999598536" lon="8.052100833314853"><ele>375.0</ele><time>2026-04-26T10:48:59.02Z</time></trkpt><trkpt lat="45.544791255005464" lon="8.052374748288006"><ele>374.6666666666667</ele><time>2026-04-26T10:49:00.019Z</time></trkpt><trkpt lat="45.544877892372355" lon="8.052649882639873"><ele>374.33333333333337</ele><time>2026-04-26T10:49:01.02Z</time></trkpt><trkpt lat="45.54496754846912" lon="8.052924921010725"><ele>374.0</ele><time>2026-04-26T10:49:02.015Z</time></trkpt><trkpt lat="45.54505863836509" lon="8.05320665248676"><ele>374.0</ele><time>2026-04-26T10:49:03.02Z</time></trkpt><trkpt lat="45.54515080814222" lon="8.053489636198487"><ele>374.0</ele><time>2026-04-26T10:49:04.021Z</time></trkpt><trkpt lat="45.54523986192315" lon="8.05377488109447"><ele>374.0</ele><time>2026-04-26T10:49:05.02Z</time></trkpt><trkpt lat="45.54732226770888" lon="8.061202084653136"><ele>374.0</ele><time>2026-04-26T10:49:31.001Z</time></trkpt><trkpt lat="45.547383738492336" lon="8.061437446826679"><ele>374.0</ele><time>2026-04-26T10:49:32.001Z</time></trkpt><trkpt lat="45.5474453031326" lon="8.061644885375154"><ele>374.0</ele><time>2026-04-26T10:49:33.001Z</time></trkpt><trkpt lat="45.5475164595151" lon="8.061864343991857"><ele>373.33333333333337</ele><time>2026-04-26T10:49:34.001Z</time></trkpt><trkpt lat="45.547583823349" lon="8.062092304324347"><ele>372.6666666666667</ele><time>2026-04-26T10:49:35.001Z</time></trkpt><trkpt lat="45.547651061079854" lon="8.062317466913258"><ele>372.0</ele><time>2026-04-26T10:49:36.001Z</time></trkpt><trkpt lat="45.547719382284576" lon="8.062534560465465"><ele>371.6666666666667</ele><time>2026-04-26T10:49:37.001Z</time></trkpt><trkpt lat="45.547787420487616" lon="8.062745507785342"><ele>371.33333333333337</ele><time>2026-04-26T10:49:38.001Z</time></trkpt><trkpt lat="45.5478544965683" lon="8.062945631137238"><ele>371.0</ele><time>2026-04-26T10:49:39.001Z</time></trkpt><trkpt lat="45.547916696425204" lon="8.063137058905838"><ele>372.5</ele><time>2026-04-26T10:49:40.001Z</time></trkpt><trkpt lat="45.5479776994962" lon="8.063323836901311"><ele>374.0</ele><time>2026-04-26T10:49:41.001Z</time></trkpt><trkpt lat="45.548034523251694" lon="8.06350487431235"><ele>375.5</ele><time>2026-04-26T10:49:42.001Z</time></trkpt><trkpt lat="45.54808891414232" lon="8.063677153178139"><ele>377.0</ele><time>2026-04-26T10:49:43.001Z</time></trkpt><trkpt lat="45.54813548553018" lon="8.063832749062435"><ele>377.0</ele><time>2026-04-26T10:49:44.001Z</time></trkpt><trkpt lat="45.54817563505561" lon="8.063971795467664"><ele>377.0</ele><time>2026-04-26T10:49:45.001Z</time></trkpt><trkpt lat="45.5482280091833" lon="8.064110151004847"><ele>377.0</ele><time>2026-04-26T10:49:46.001Z</time></trkpt><trkpt lat="45.548294900388015" lon="8.064247810436466"><ele>377.0</ele><time>2026-04-26T10:49:47.001Z</time></trkpt><trkpt lat="45.54836379996106" lon="8.064393306426519"><ele>376.5</ele><time>2026-04-26T10:49:48.001Z</time></trkpt><trkpt lat="45.54843006965908" lon="8.064557675259456"><ele>376.0</ele><time>2026-04-26T10:49:49.001Z</time></trkpt><trkpt lat="45.54848785239186" lon="8.064743343259016"><ele>375.5</ele><time>2026-04-26T10:49:50.001Z</time></trkpt><trkpt lat="45.5485399415416" lon="8.064943450870112"><ele>375.0</ele><time>2026-04-26T10:49:51.001Z</time></trkpt><trkpt lat="45.54859918860549" lon="8.065149853142723"><ele>377.0</ele><time>2026-04-26T10:49:52.001Z</time></trkpt><trkpt lat="45.54866336614381" lon="8.065357577133378"><ele>379.0</ele><time>2026-04-26T10:49:53.001Z</time></trkpt><trkpt lat="45.548725387403984" lon="8.065563315991533"><ele>381.0</ele><time>2026-04-26T10:49:54.001Z</time></trkpt><trkpt lat="45.54878368906474" lon="8.06576062456537"><ele>381.0</ele><time>2026-04-26T10:49:55.001Z</time></trkpt><trkpt lat="45.54883753499436" lon="8.065951354174345"><ele>381.0</ele><time>2026-04-26T10:49:56.001Z</time></trkpt><trkpt lat="45.54888701251761" lon="8.066125679062464"><ele>381.0</ele><time>2026-04-26T10:49:57.001Z</time></trkpt><trkpt lat="45.54893310402468" lon="8.066279601513138"><ele>381.0</ele><time>2026-04-26T10:49:58.001Z</time></trkpt><trkpt lat="45.548974593465374" lon="8.066416461407707"><ele>381.0</ele><time>2026-04-26T10:49:59.001Z</time></trkpt><trkpt lat="45.54900713935029" lon="8.066526533476013"><ele>381.0</ele><time>2026-04-26T10:50:00.001Z</time></trkpt><trkpt lat="45.54903266458135" lon="8.066626981795633"><ele>381.0</ele><time>2026-04-26T10:50:01.001Z</time></trkpt><trkpt lat="45.54905421440679" lon="8.066735129734127"><ele>381.0</ele><time>2026-04-26T10:50:02.001Z</time></trkpt><trkpt lat="45.549067240027235" lon="8.06684854113853"><ele>381.0</ele><time>2026-04-26T10:50:03.001Z</time></trkpt><trkpt lat="45.54906912712977" lon="8.06694570424053"><ele>381.0</ele><time>2026-04-26T10:50:04.001Z</time></trkpt><trkpt lat="45.549086385750805" lon="8.067040177967424"><ele>381.0</ele><time>2026-04-26T10:50:05.001Z</time></trkpt><trkpt lat="45.54912956617623" lon="8.06712776631028"><ele>381.0</ele><time>2026-04-26T10:50:06.001Z</time></trkpt><trkpt lat="45.54918744916122" lon="8.067220581388225"><ele>381.0</ele><time>2026-04-26T10:50:07.001Z</time></trkpt><trkpt lat="45.54924135596466" lon="8.067332092429915"><ele>381.0</ele><time>2026-04-26T10:50:08.001Z</time></trkpt><trkpt lat="45.54930210086367" lon="8.06747542831437"><ele>381.0</ele><time>2026-04-26T10:50:09.001Z</time></trkpt><trkpt lat="45.549368046302874" lon="8.067643039402975"><ele>381.3333333333333</ele><time>2026-04-26T10:50:10.001Z</time></trkpt><trkpt lat="45.549436522943964" lon="8.067816934966428"><ele>381.66666666666663</ele><time>2026-04-26T10:50:11.001Z</time></trkpt><trkpt lat="45.54951614162633" lon="8.068011667591826"><ele>382.0</ele><time>2026-04-26T10:50:12.001Z</time></trkpt><trkpt lat="45.54959490765623" lon="8.068224545593049"><ele>382.0</ele><time>2026-04-26T10:50:13.001Z</time></trkpt><trkpt lat="45.54967669054134" lon="8.068460059684652"><ele>382.0</ele><time>2026-04-26T10:50:14.001Z</time></trkpt><trkpt lat="45.549765594079105" lon="8.068703933471468"><ele>382.0</ele><time>2026-04-26T10:50:15.001Z</time></trkpt><trkpt lat="45.54986066288085" lon="8.068940940327305"><ele>381.0</ele><time>2026-04-26T10:50:16.001Z</time></trkpt><trkpt lat="45.54995497164987" lon="8.069194596663676"><ele>380.0</ele><time>2026-04-26T10:50:17.001Z</time></trkpt><trkpt lat="45.55004441948433" lon="8.069436340495423"><ele>379.0</ele><time>2026-04-26T10:50:18.001Z</time></trkpt><trkpt lat="45.550128572607825" lon="8.069669531373648"><ele>379.0</ele><time>2026-04-26T10:50:19.001Z</time></trkpt><trkpt lat="45.55020987247317" lon="8.069884225292581"><ele>379.0</ele><time>2026-04-26T10:50:20.001Z</time></trkpt><trkpt lat="45.55026262770855" lon="8.070098745810474"><ele>379.0</ele><time>2026-04-26T10:50:21.001Z</time></trkpt><trkpt lat="45.55031173911205" lon="8.070291611341355"><ele>379.0</ele><time>2026-04-26T10:50:22.001Z</time></trkpt><trkpt lat="45.55035681436563" lon="8.070478332373307"><ele>379.0</ele><time>2026-04-26T10:50:23.001Z</time></trkpt><trkpt lat="45.550396834127724" lon="8.070647159323123"><ele>379.0</ele><time>2026-04-26T10:50:24.001Z</time></trkpt><trkpt lat="45.55042427486865" lon="8.070775302019292"><ele>379.0</ele><time>2026-04-26T10:50:25.001Z</time></trkpt><trkpt lat="45.55043942208781" lon="8.070880882675716"><ele>379.0</ele><time>2026-04-26T10:50:26.001Z</time></trkpt><trkpt lat="45.55044809924937" lon="8.070982331483807"><ele>379.0</ele><time>2026-04-26T10:50:27.001Z</time></trkpt><trkpt lat="45.55044722708607" lon="8.071088156218233"><ele>379.0</ele><time>2026-04-26T10:50:28.001Z</time></trkpt><trkpt lat="45.550421236004546" lon="8.071244401990404"><ele>379.0</ele><time>2026-04-26T10:50:30.001Z</time></trkpt><trkpt lat="45.55087448382695" lon="8.071396866975038"><ele>379.0</ele><time>2026-04-26T10:50:32.001Z</time></trkpt><trkpt lat="45.55095144612507" lon="8.071367404158375"><ele>379.0</ele><time>2026-04-26T10:50:33.001Z</time></trkpt><trkpt lat="45.55100817834366" lon="8.071297290997475"><ele>379.0</ele><time>2026-04-26T10:50:34.001Z</time></trkpt><trkpt lat="45.55104871242468" lon="8.071200104053997"><ele>379.0</ele><time>2026-04-26T10:50:35.001Z</time></trkpt><trkpt lat="45.55109589716641" lon="8.071093458378657"><ele>379.0</ele><time>2026-04-26T10:50:36.001Z</time></trkpt><trkpt lat="45.55116163815653" lon="8.070987269259508"><ele>379.0</ele><time>2026-04-26T10:50:37.001Z</time></trkpt><trkpt lat="45.55124879806995" lon="8.07089460889922"><ele>379.75</ele><time>2026-04-26T10:50:38.001Z</time></trkpt><trkpt lat="45.551346810168575" lon="8.070803974532376"><ele>380.5</ele><time>2026-04-26T10:50:39.001Z</time></trkpt><trkpt lat="45.55146225959441" lon="8.070705026339917"><ele>381.25</ele><time>2026-04-26T10:50:40.001Z</time></trkpt><trkpt lat="45.55159275183045" lon="8.070596121879468"><ele>382.0</ele><time>2026-04-26T10:50:41.001Z</time></trkpt><trkpt lat="45.55171646315041" lon="8.070491735565808"><ele>382.0</ele><time>2026-04-26T10:50:42.001Z</time></trkpt><trkpt lat="45.55185212562728" lon="8.07037941140671"><ele>382.0</ele><time>2026-04-26T10:50:43.001Z</time></trkpt><trkpt lat="45.55199773389749" lon="8.070269796865007"><ele>382.0</ele><time>2026-04-26T10:50:44.001Z</time></trkpt><trkpt lat="45.552134819411485" lon="8.07016254392608"><ele>383.0</ele><time>2026-04-26T10:50:45.001Z</time></trkpt><trkpt lat="45.55226021596027" lon="8.07006841949244"><ele>384.0</ele><time>2026-04-26T10:50:46.001Z</time></trkpt><trkpt lat="45.552380093341085" lon="8.06997575872038"><ele>385.0</ele><time>2026-04-26T10:50:47.001Z</time></trkpt><trkpt lat="45.5525039047907" lon="8.069882057306081"><ele>386.0</ele><time>2026-04-26T10:50:48.001Z</time></trkpt><trkpt lat="45.55263137631414" lon="8.069784808113091"><ele>386.0</ele><time>2026-04-26T10:50:49.001Z</time></trkpt><trkpt lat="45.5527640137648" lon="8.06968831581678"><ele>386.0</ele><time>2026-04-26T10:50:50.001Z</time></trkpt><trkpt lat="45.552897715383246" lon="8.069591721842805"><ele>386.0</ele><time>2026-04-26T10:50:51.001Z</time></trkpt><trkpt lat="45.55302856328582" lon="8.069490408042299"><ele>386.0</ele><time>2026-04-26T10:50:52.001Z</time></trkpt><trkpt lat="45.55315513241349" lon="8.069390117727579"><ele>386.0</ele><time>2026-04-26T10:50:53.001Z</time></trkpt><trkpt lat="45.553270884115854" lon="8.069289813240978"><ele>386.0</ele><time>2026-04-26T10:50:54.001Z</time></trkpt><trkpt lat="45.55337742371039" lon="8.069198775325601"><ele>386.0</ele><time>2026-04-26T10:50:55.001Z</time></trkpt><trkpt lat="45.55347630793151" lon="8.069111908558549"><ele>386.0</ele><time>2026-04-26T10:50:56.001Z</time></trkpt><trkpt lat="45.5535701111829" lon="8.069030280710477"><ele>386.20000000000005</ele><time>2026-04-26T10:50:57.001Z</time></trkpt><trkpt lat="45.55366411003378" lon="8.068950156761352"><ele>386.40000000000003</ele><time>2026-04-26T10:50:58.001Z</time></trkpt><trkpt lat="45.553755964830025" lon="8.06887344529767"><ele>386.6</ele><time>2026-04-26T10:50:59.001Z</time></trkpt><trkpt lat="45.55384187655966" lon="8.068800959517409"><ele>386.8</ele><time>2026-04-26T10:51:00.001Z</time></trkpt><trkpt lat="45.55391791119823" lon="8.068739575539665"><ele>387.0</ele><time>2026-04-26T10:51:01.001Z</time></trkpt><trkpt lat="45.55398675692342" lon="8.068689848181492"><ele>387.3333333333333</ele><time>2026-04-26T10:51:02.001Z</time></trkpt><trkpt lat="45.55404716033612" lon="8.06865249279964"><ele>387.66666666666663</ele><time>2026-04-26T10:51:03.001Z</time></trkpt><trkpt lat="45.55416667787043" lon="8.068606737446556"><ele>388.0</ele><time>2026-04-26T10:51:05Z</time></trkpt><trkpt lat="45.5542386491261" lon="8.06857649511524"><ele>388.3333333333333</ele><time>2026-04-26T10:51:06Z</time></trkpt><trkpt lat="45.5543100717052" lon="8.068546845614643"><ele>388.66666666666663</ele><time>2026-04-26T10:51:07Z</time></trkpt><trkpt lat="45.55439043690949" lon="8.068488670406786"><ele>389.0</ele><time>2026-04-26T10:51:08Z</time></trkpt><trkpt lat="45.554477270247176" lon="8.06841086901273"><ele>389.5</ele><time>2026-04-26T10:51:09Z</time></trkpt><trkpt lat="45.55457359273653" lon="8.068318815696381"><ele>390.0</ele><time>2026-04-26T10:51:10Z</time></trkpt><trkpt lat="45.5546745564139" lon="8.06822255439031"><ele>390.5</ele><time>2026-04-26T10:51:11Z</time></trkpt><trkpt lat="45.55478244682081" lon="8.068123238183587"><ele>391.0</ele><time>2026-04-26T10:51:12Z</time></trkpt><trkpt lat="45.55489682390451" lon="8.068015830632271"><ele>391.33333333333337</ele><time>2026-04-26T10:51:13Z</time></trkpt><trkpt lat="45.55501929024003" lon="8.067907128241949"><ele>391.66666666666663</ele><time>2026-04-26T10:51:14Z</time></trkpt><trkpt lat="45.55514483056402" lon="8.067794912612543"><ele>392.0</ele><time>2026-04-26T10:51:15Z</time></trkpt><trkpt lat="45.55528253841284" lon="8.067675560719588"><ele>392.0</ele><time>2026-04-26T10:51:16Z</time></trkpt><trkpt lat="45.5554264729048" lon="8.067553229499374"><ele>392.0</ele><time>2026-04-26T10:51:17Z</time></trkpt><trkpt lat="45.5555756874001" lon="8.067423812407604"><ele>392.0</ele><time>2026-04-26T10:51:18Z</time></trkpt><trkpt lat="45.55568558644539" lon="8.06732727048043"><ele>392.75</ele><time>2026-04-26T10:51:19Z</time></trkpt><trkpt lat="45.555788374611545" lon="8.067237975917486"><ele>393.5</ele><time>2026-04-26T10:51:20Z</time></trkpt><trkpt lat="45.55589490813846" lon="8.067144709931362"><ele>394.25</ele><time>2026-04-26T10:51:21Z</time></trkpt><trkpt lat="45.55599404787665" lon="8.067053794488277"><ele>395.0</ele><time>2026-04-26T10:51:22Z</time></trkpt><trkpt lat="45.55608681339705" lon="8.066961499421332"><ele>395.0</ele><time>2026-04-26T10:51:23Z</time></trkpt><trkpt lat="45.556169951274704" lon="8.066863852782252"><ele>395.0</ele><time>2026-04-26T10:51:24Z</time></trkpt><trkpt lat="45.55624944734334" lon="8.066766238415752"><ele>395.0</ele><time>2026-04-26T10:51:25Z</time></trkpt><trkpt lat="45.55633145405368" lon="8.066674610252589"><ele>395.0</ele><time>2026-04-26T10:51:26Z</time></trkpt><trkpt lat="45.55641431972534" lon="8.06660037548261"><ele>395.0</ele><time>2026-04-26T10:51:27Z</time></trkpt><trkpt lat="45.55649233446228" lon="8.066542616189285"><ele>395.49999999999994</ele><time>2026-04-26T10:51:28Z</time></trkpt><trkpt lat="45.55656417805836" lon="8.066498229435878"><ele>396.0</ele><time>2026-04-26T10:51:29Z</time></trkpt><trkpt lat="45.556649000904194" lon="8.066462602559398"><ele>396.5</ele><time>2026-04-26T10:51:30Z</time></trkpt><trkpt lat="45.55672988457556" lon="8.06642457509521"><ele>397.0</ele><time>2026-04-26T10:51:31Z</time></trkpt><trkpt lat="45.55680946006965" lon="8.066400559566343"><ele>397.49999999999994</ele><time>2026-04-26T10:51:32Z</time></trkpt><trkpt lat="45.55685280278334" lon="8.066306722158153"><ele>398.0</ele><time>2026-04-26T10:51:33Z</time></trkpt><trkpt lat="45.55690060643574" lon="8.066223306156806"><ele>398.0</ele><time>2026-04-26T10:51:34Z</time></trkpt><trkpt lat="45.55694483806418" lon="8.06614644649825"><ele>398.0</ele><time>2026-04-26T10:51:35Z</time></trkpt><trkpt lat="45.55700253737798" lon="8.066041013332839"><ele>398.0</ele><time>2026-04-26T10:51:37Z</time></trkpt><trkpt lat="45.55711728088146" lon="8.06594597342464"><ele>398.0</ele><time>2026-04-26T10:51:39Z</time></trkpt><trkpt lat="45.55719969856116" lon="8.06588322908055"><ele>398.0</ele><time>2026-04-26T10:51:40Z</time></trkpt><trkpt lat="45.55729994174437" lon="8.06583272045561"><ele>398.3333333333333</ele><time>2026-04-26T10:51:41Z</time></trkpt><trkpt lat="45.55741860235075" lon="8.065750104310714"><ele>398.66666666666663</ele><time>2026-04-26T10:51:42Z</time></trkpt><trkpt lat="45.55755705473934" lon="8.065655605710917"><ele>399.0</ele><time>2026-04-26T10:51:43Z</time></trkpt><trkpt lat="45.55771920812875" lon="8.06554822784009"><ele>399.33333333333337</ele><time>2026-04-26T10:51:44Z</time></trkpt><trkpt lat="45.557886971404734" lon="8.06545786553074"><ele>399.6666666666667</ele><time>2026-04-26T10:51:45Z</time></trkpt><trkpt lat="45.55806649107439" lon="8.065338289336632"><ele>400.0</ele><time>2026-04-26T10:51:46Z</time></trkpt><trkpt lat="45.55823283510006" lon="8.065237920787528"><ele>400.0</ele><time>2026-04-26T10:51:47Z</time></trkpt><trkpt lat="45.55839397382852" lon="8.065152386196283"><ele>400.0</ele><time>2026-04-26T10:51:48Z</time></trkpt><trkpt lat="45.558551160504116" lon="8.065086814274677"><ele>400.0</ele><time>2026-04-26T10:51:49Z</time></trkpt><trkpt lat="45.55867773384435" lon="8.065013786547658"><ele>401.25</ele><time>2026-04-26T10:51:50Z</time></trkpt><trkpt lat="45.55877689471093" lon="8.064933108804299"><ele>402.5</ele><time>2026-04-26T10:51:51Z</time></trkpt><trkpt lat="45.55887879341482" lon="8.064890949111488"><ele>403.75</ele><time>2026-04-26T10:51:52Z</time></trkpt><trkpt lat="45.55899772111756" lon="8.064864910539626"><ele>405.0</ele><time>2026-04-26T10:51:53Z</time></trkpt><trkpt lat="45.55910526372522" lon="8.064765753499223"><ele>405.0</ele><time>2026-04-26T10:51:54Z</time></trkpt><trkpt lat="45.55922579645492" lon="8.06467670463391"><ele>405.0</ele><time>2026-04-26T10:51:55Z</time></trkpt><trkpt lat="45.559352718684046" lon="8.064582385560815"><ele>405.0</ele><time>2026-04-26T10:51:56Z</time></trkpt><trkpt lat="45.559488178165935" lon="8.06448172281514"><ele>405.0</ele><time>2026-04-26T10:51:57Z</time></trkpt><trkpt lat="45.55962900504732" lon="8.064387381265647"><ele>405.66666666666663</ele><time>2026-04-26T10:51:58Z</time></trkpt><trkpt lat="45.55977760861196" lon="8.064283914666836"><ele>406.3333333333333</ele><time>2026-04-26T10:51:59Z</time></trkpt><trkpt lat="45.55994869235833" lon="8.064208761514122"><ele>407.0</ele><time>2026-04-26T10:52:00Z</time></trkpt><trkpt lat="45.560100032639525" lon="8.064103780927534"><ele>407.0</ele><time>2026-04-26T10:52:01Z</time></trkpt><trkpt lat="45.56024330593799" lon="8.064005276867999"><ele>407.0</ele><time>2026-04-26T10:52:02Z</time></trkpt><trkpt lat="45.56037508032509" lon="8.063895698505315"><ele>407.0</ele><time>2026-04-26T10:52:03Z</time></trkpt><trkpt lat="45.5605100741637" lon="8.063806167178852"><ele>406.75</ele><time>2026-04-26T10:52:04Z</time></trkpt><trkpt lat="45.56063994333458" lon="8.063710980108894"><ele>406.5</ele><time>2026-04-26T10:52:05Z</time></trkpt><trkpt lat="45.56077075532876" lon="8.063612003726105"><ele>406.25</ele><time>2026-04-26T10:52:06Z</time></trkpt><trkpt lat="45.56090597794682" lon="8.063513384883708"><ele>406.0</ele><time>2026-04-26T10:52:07Z</time></trkpt><trkpt lat="45.561041876960886" lon="8.063412230786211"><ele>406.0</ele><time>2026-04-26T10:52:08Z</time></trkpt><trkpt lat="45.561170312040126" lon="8.063317053923608"><ele>406.0</ele><time>2026-04-26T10:52:09Z</time></trkpt><trkpt lat="45.56128348950512" lon="8.063225950052221"><ele>406.0</ele><time>2026-04-26T10:52:10Z</time></trkpt><trkpt lat="45.5613887605703" lon="8.063145993389751"><ele>406.0</ele><time>2026-04-26T10:52:11Z</time></trkpt><trkpt lat="45.561479946890046" lon="8.063092458987757"><ele>407.0</ele><time>2026-04-26T10:52:12Z</time></trkpt><trkpt lat="45.56157213292891" lon="8.063047116203949"><ele>408.0</ele><time>2026-04-26T10:52:13Z</time></trkpt><trkpt lat="45.56166178484813" lon="8.062973210143907"><ele>409.0</ele><time>2026-04-26T10:52:14Z</time></trkpt><trkpt lat="45.5617575664718" lon="8.062869729332565"><ele>410.0</ele><time>2026-04-26T10:52:15Z</time></trkpt><trkpt lat="45.56186955909833" lon="8.062751657116092"><ele>410.0</ele><time>2026-04-26T10:52:16Z</time></trkpt><trkpt lat="45.56200920082187" lon="8.062641441080308"><ele>410.0</ele><time>2026-04-26T10:52:17Z</time></trkpt><trkpt lat="45.56213964841974" lon="8.062511719420078"><ele>410.0</ele><time>2026-04-26T10:52:18Z</time></trkpt><trkpt lat="45.56227368263936" lon="8.062378431098052"><ele>411.0</ele><time>2026-04-26T10:52:19Z</time></trkpt><trkpt lat="45.562411177368325" lon="8.062241701525"><ele>412.0</ele><time>2026-04-26T10:52:20Z</time></trkpt><trkpt lat="45.56254904345604" lon="8.062104602658561"><ele>413.0</ele><time>2026-04-26T10:52:21Z</time></trkpt><trkpt lat="45.562683840985024" lon="8.061970555272977"><ele>413.0</ele><time>2026-04-26T10:52:22Z</time></trkpt><trkpt lat="45.562814944602394" lon="8.061840181248712"><ele>413.0</ele><time>2026-04-26T10:52:23Z</time></trkpt><trkpt lat="45.56293969582098" lon="8.061716124264413"><ele>413.0</ele><time>2026-04-26T10:52:24Z</time></trkpt><trkpt lat="45.56305824469724" lon="8.061595908340202"><ele>413.25</ele><time>2026-04-26T10:52:25Z</time></trkpt><trkpt lat="45.56317071328165" lon="8.061481288629162"><ele>413.5</ele><time>2026-04-26T10:52:26Z</time></trkpt><trkpt lat="45.563274561484235" lon="8.061375454194712"><ele>413.75</ele><time>2026-04-26T10:52:27Z</time></trkpt><trkpt lat="45.56334333683802" lon="8.06124925782158"><ele>414.0</ele><time>2026-04-26T10:52:28Z</time></trkpt><trkpt lat="45.56342196331696" lon="8.061173979818818"><ele>414.0</ele><time>2026-04-26T10:52:29Z</time></trkpt><trkpt lat="45.563503205752646" lon="8.061126792708292"><ele>414.0</ele><time>2026-04-26T10:52:30Z</time></trkpt><trkpt lat="45.56359260298271" lon="8.061088251434883"><ele>414.0</ele><time>2026-04-26T10:52:31Z</time></trkpt><trkpt lat="45.563692553058466" lon="8.061078468447013"><ele>414.0</ele><time>2026-04-26T10:52:32Z</time></trkpt><trkpt lat="45.56379335245727" lon="8.061085747384872"><ele>414.0</ele><time>2026-04-26T10:52:33Z</time></trkpt><trkpt lat="45.56390522345025" lon="8.061129287184421"><ele>413.75</ele><time>2026-04-26T10:52:34Z</time></trkpt><trkpt lat="45.56403301454248" lon="8.061187643067566"><ele>413.5</ele><time>2026-04-26T10:52:35Z</time></trkpt><trkpt lat="45.5641767071591" lon="8.061257707435505"><ele>413.25</ele><time>2026-04-26T10:52:36Z</time></trkpt><trkpt lat="45.56432857012279" lon="8.061331230263828"><ele>413.0</ele><time>2026-04-26T10:52:37Z</time></trkpt><trkpt lat="45.564481435288805" lon="8.061397912511298"><ele>413.5</ele><time>2026-04-26T10:52:38Z</time></trkpt><trkpt lat="45.56462070511931" lon="8.061478443644337"><ele>414.0</ele><time>2026-04-26T10:52:39Z</time></trkpt><trkpt lat="45.56475697391853" lon="8.061519461818953"><ele>414.5</ele><time>2026-04-26T10:52:40Z</time></trkpt><trkpt lat="45.56487546426467" lon="8.06154548910788"><ele>415.0</ele><time>2026-04-26T10:52:41Z</time></trkpt><trkpt lat="45.564984451503506" lon="8.061545043543283"><ele>415.00000000000006</ele><time>2026-04-26T10:52:42Z</time></trkpt><trkpt lat="45.56508280165978" lon="8.061569244871283"><ele>415.0</ele><time>2026-04-26T10:52:43Z</time></trkpt><trkpt lat="45.5651702332292" lon="8.061589858767912"><ele>415.0</ele><time>2026-04-26T10:52:44Z</time></trkpt><trkpt lat="45.565262550101416" lon="8.061618799208748"><ele>415.0</ele><time>2026-04-26T10:52:45Z</time></trkpt><trkpt lat="45.565349317439086" lon="8.061630067666197"><ele>415.00000000000006</ele><time>2026-04-26T10:52:46Z</time></trkpt><trkpt lat="45.56542528998145" lon="8.061624672053513"><ele>415.0</ele><time>2026-04-26T10:52:47Z</time></trkpt><trkpt lat="45.56550266244167" lon="8.06163048314952"><ele>414.4</ele><time>2026-04-26T10:52:48Z</time></trkpt><trkpt lat="45.56559224565181" lon="8.061634280947612"><ele>413.8</ele><time>2026-04-26T10:52:49Z</time></trkpt><trkpt lat="45.56569023252666" lon="8.061644890698746"><ele>413.20000000000005</ele><time>2026-04-26T10:52:50Z</time></trkpt><trkpt lat="45.56579406102037" lon="8.061668574985388"><ele>412.6</ele><time>2026-04-26T10:52:51Z</time></trkpt><trkpt lat="45.565904353542365" lon="8.061702251861833"><ele>412.0</ele><time>2026-04-26T10:52:52Z</time></trkpt><trkpt lat="45.56601509929119" lon="8.061717382859051"><ele>412.0</ele><time>2026-04-26T10:52:53Z</time></trkpt><trkpt lat="45.56611897471001" lon="8.061708369811036"><ele>412.0</ele><time>2026-04-26T10:52:54Z</time></trkpt><trkpt lat="45.56621568420904" lon="8.061678857635906"><ele>412.0</ele><time>2026-04-26T10:52:55Z</time></trkpt><trkpt lat="45.566314150280256" lon="8.061656096363638"><ele>412.0</ele><time>2026-04-26T10:52:56Z</time></trkpt><trkpt lat="45.566416585436045" lon="8.061591529991233"><ele>412.0</ele><time>2026-04-26T10:52:57Z</time></trkpt><trkpt lat="45.5665185703469" lon="8.061491169954076"><ele>413.75</ele><time>2026-04-26T10:52:58Z</time></trkpt><trkpt lat="45.56662906721868" lon="8.061379170588008"><ele>415.5</ele><time>2026-04-26T10:52:59Z</time></trkpt><trkpt lat="45.56674929026786" lon="8.061252982466288"><ele>417.25</ele><time>2026-04-26T10:53:00Z</time></trkpt><trkpt lat="45.5668715856633" lon="8.061125626509492"><ele>419.0</ele><time>2026-04-26T10:53:01Z</time></trkpt><trkpt lat="45.56699138747385" lon="8.061004011399861"><ele>421.0</ele><time>2026-04-26T10:53:02Z</time></trkpt><trkpt lat="45.567102143061234" lon="8.060883609592532"><ele>423.0</ele><time>2026-04-26T10:53:03Z</time></trkpt><trkpt lat="45.567219017720454" lon="8.060775935970252"><ele>425.0</ele><time>2026-04-26T10:53:04Z</time></trkpt><trkpt lat="45.567338447758814" lon="8.060686285150807"><ele>427.0</ele><time>2026-04-26T10:53:05Z</time></trkpt><trkpt lat="45.56746083395537" lon="8.06060995691017"><ele>427.0</ele><time>2026-04-26T10:53:06Z</time></trkpt><trkpt lat="45.56758125349088" lon="8.060536827074564"><ele>427.0</ele><time>2026-04-26T10:53:07Z</time></trkpt><trkpt lat="45.56771281480115" lon="8.060499204346629"><ele>427.0</ele><time>2026-04-26T10:53:08Z</time></trkpt><trkpt lat="45.567842092932345" lon="8.060431467213053"><ele>427.0</ele><time>2026-04-26T10:53:09Z</time></trkpt><trkpt lat="45.56798224889433" lon="8.060399650523083"><ele>423.0</ele><time>2026-04-26T10:53:10Z</time></trkpt><trkpt lat="45.56812788649135" lon="8.060374147848613"><ele>419.0</ele><time>2026-04-26T10:53:11Z</time></trkpt><trkpt lat="45.56828157955801" lon="8.060353012284484"><ele>415.0</ele><time>2026-04-26T10:53:12Z</time></trkpt><trkpt lat="45.5684484152894" lon="8.060335651399068"><ele>415.0</ele><time>2026-04-26T10:53:13Z</time></trkpt><trkpt lat="45.56860866251097" lon="8.06032205431091"><ele>415.0</ele><time>2026-04-26T10:53:14Z</time></trkpt><trkpt lat="45.568772754029595" lon="8.060304864118267"><ele>415.0</ele><time>2026-04-26T10:53:15Z</time></trkpt><trkpt lat="45.568926345996175" lon="8.060291980081498"><ele>413.5</ele><time>2026-04-26T10:53:16Z</time></trkpt><trkpt lat="45.56907252493679" lon="8.060278328628753"><ele>412.0</ele><time>2026-04-26T10:53:17Z</time></trkpt><trkpt lat="45.56921298154976" lon="8.060252313806084"><ele>410.5</ele><time>2026-04-26T10:53:18Z</time></trkpt><trkpt lat="45.56934717668363" lon="8.060231446076537"><ele>409.0</ele><time>2026-04-26T10:53:19Z</time></trkpt><trkpt lat="45.56948268789822" lon="8.060218405518997"><ele>407.75</ele><time>2026-04-26T10:53:20Z</time></trkpt><trkpt lat="45.56961070931016" lon="8.060205833400122"><ele>406.5</ele><time>2026-04-26T10:53:21Z</time></trkpt><trkpt lat="45.569729219605144" lon="8.060199389612817"><ele>405.25</ele><time>2026-04-26T10:53:22Z</time></trkpt><trkpt lat="45.569846595591024" lon="8.060173039734051"><ele>404.0</ele><time>2026-04-26T10:53:23Z</time></trkpt><trkpt lat="45.56996089239934" lon="8.060161661747062"><ele>404.0</ele><time>2026-04-26T10:53:24Z</time></trkpt><trkpt lat="45.57006793138454" lon="8.060147237619256"><ele>404.0</ele><time>2026-04-26T10:53:25Z</time></trkpt><trkpt lat="45.57017342793316" lon="8.060137877220082"><ele>404.0</ele><time>2026-04-26T10:53:26Z</time></trkpt><trkpt lat="45.57026954024915" lon="8.06013358601192"><ele>404.0</ele><time>2026-04-26T10:53:27Z</time></trkpt><trkpt lat="45.57035409147961" lon="8.060137699786093"><ele>404.0</ele><time>2026-04-26T10:53:28Z</time></trkpt><trkpt lat="45.57044822146311" lon="8.060150489542622"><ele>401.4</ele><time>2026-04-26T10:53:29Z</time></trkpt><trkpt lat="45.570551015340925" lon="8.060163335109385"><ele>398.79999999999995</ele><time>2026-04-26T10:53:30Z</time></trkpt><trkpt lat="45.570642084523335" lon="8.060260426877292"><ele>396.20000000000005</ele><time>2026-04-26T10:53:31Z</time></trkpt><trkpt lat="45.570743787278886" lon="8.060330297314007"><ele>393.6</ele><time>2026-04-26T10:53:32Z</time></trkpt><trkpt lat="45.5708446393875" lon="8.060396586444565"><ele>391.0</ele><time>2026-04-26T10:53:33Z</time></trkpt><trkpt lat="45.57093576362222" lon="8.060460727892"><ele>391.00000000000006</ele><time>2026-04-26T10:53:34Z</time></trkpt><trkpt lat="45.571016139888094" lon="8.060507547640292"><ele>391.0</ele><time>2026-04-26T10:53:35Z</time></trkpt><trkpt lat="45.57109031732464" lon="8.060551285996077"><ele>391.0</ele><time>2026-04-26T10:53:36Z</time></trkpt><trkpt lat="45.57116546864536" lon="8.060612425663066"><ele>391.0</ele><time>2026-04-26T10:53:37Z</time></trkpt><trkpt lat="45.57123133308711" lon="8.060683856299605"><ele>391.00000000000006</ele><time>2026-04-26T10:53:38Z</time></trkpt><trkpt lat="45.57128704882954" lon="8.060761900764655"><ele>391.0</ele><time>2026-04-26T10:53:39Z</time></trkpt><trkpt lat="45.57133882698003" lon="8.060839862446954"><ele>391.00000000000006</ele><time>2026-04-26T10:53:40Z</time></trkpt><trkpt lat="45.57139157229643" lon="8.06090184862917"><ele>391.0</ele><time>2026-04-26T10:53:41Z</time></trkpt><trkpt lat="45.57145516703187" lon="8.060916283655002"><ele>391.0</ele><time>2026-04-26T10:53:42Z</time></trkpt><trkpt lat="45.57152343855986" lon="8.06088036063157"><ele>391.0</ele><time>2026-04-26T10:53:43Z</time></trkpt><trkpt lat="45.571583893085794" lon="8.06079190771157"><ele>391.00000000000006</ele><time>2026-04-26T10:53:44Z</time></trkpt><trkpt lat="45.57165091150274" lon="8.06071523102676"><ele>391.0</ele><time>2026-04-26T10:53:45Z</time></trkpt><trkpt lat="45.57170225735784" lon="8.060608926657801"><ele>391.0</ele><time>2026-04-26T10:53:46Z</time></trkpt><trkpt lat="45.57175053109204" lon="8.060520151660715"><ele>391.0</ele><time>2026-04-26T10:53:47Z</time></trkpt><trkpt lat="45.57176592980681" lon="8.060349431394362"><ele>391.0</ele><time>2026-04-26T10:53:48Z</time></trkpt><trkpt lat="45.57179277595198" lon="8.060173417986265"><ele>391.0</ele><time>2026-04-26T10:53:49Z</time></trkpt><trkpt lat="45.57182622215285" lon="8.059983588844206"><ele>391.0</ele><time>2026-04-26T10:53:50Z</time></trkpt><trkpt lat="45.57186344651778" lon="8.059807133139163"><ele>391.0</ele><time>2026-04-26T10:53:51Z</time></trkpt><trkpt lat="45.57189643356222" lon="8.059650418231133"><ele>391.0</ele><time>2026-04-26T10:53:52Z</time></trkpt><trkpt lat="45.57192008387002" lon="8.059506982551925"><ele>391.0</ele><time>2026-04-26T10:53:53Z</time></trkpt><trkpt lat="45.571935816709306" lon="8.059368761033586"><ele>391.0</ele><time>2026-04-26T10:53:54Z</time></trkpt><trkpt lat="45.57195562137952" lon="8.059241008616405"><ele>391.5</ele><time>2026-04-26T10:53:55Z</time></trkpt><trkpt lat="45.571971961415215" lon="8.05909468424268"><ele>392.0</ele><time>2026-04-26T10:53:56Z</time></trkpt><trkpt lat="45.57199891593757" lon="8.058924964467263"><ele>392.5</ele><time>2026-04-26T10:53:57Z</time></trkpt><trkpt lat="45.57204268398742" lon="8.058737859574514"><ele>393.0</ele><time>2026-04-26T10:53:58Z</time></trkpt><trkpt lat="45.57212746317621" lon="8.05853287728007"><ele>396.66666666666663</ele><time>2026-04-26T10:53:59Z</time></trkpt><trkpt lat="45.57217032399466" lon="8.058260238962303"><ele>400.3333333333333</ele><time>2026-04-26T10:54:00Z</time></trkpt><trkpt lat="45.572233070291844" lon="8.058024939773906"><ele>404.0</ele><time>2026-04-26T10:54:01Z</time></trkpt><trkpt lat="45.57230744749232" lon="8.057814595164832"><ele>404.0</ele><time>2026-04-26T10:54:02Z</time></trkpt><trkpt lat="45.57242336577268" lon="8.057624362232472"><ele>404.0</ele><time>2026-04-26T10:54:03Z</time></trkpt><trkpt lat="45.57255282098976" lon="8.057427033731033"><ele>404.0</ele><time>2026-04-26T10:54:04Z</time></trkpt><trkpt lat="45.57269667479629" lon="8.057201850978604"><ele>403.0</ele><time>2026-04-26T10:54:05Z</time></trkpt><trkpt lat="45.57282891348115" lon="8.057011913197787"><ele>402.0</ele><time>2026-04-26T10:54:06Z</time></trkpt><trkpt lat="45.572946309508765" lon="8.05681644506132"><ele>401.0</ele><time>2026-04-26T10:54:07Z</time></trkpt><trkpt lat="45.57306019316904" lon="8.056611071373075"><ele>401.0</ele><time>2026-04-26T10:54:08Z</time></trkpt><trkpt lat="45.573184875987074" lon="8.056426607254542"><ele>401.0</ele><time>2026-04-26T10:54:09Z</time></trkpt><trkpt lat="45.573313191407486" lon="8.056231429789873"><ele>401.0</ele><time>2026-04-26T10:54:10Z</time></trkpt><trkpt lat="45.573449918551795" lon="8.056031744208008"><ele>401.0</ele><time>2026-04-26T10:54:11Z</time></trkpt><trkpt lat="45.573574949424184" lon="8.05583078524102"><ele>401.0</ele><time>2026-04-26T10:54:12Z</time></trkpt><trkpt lat="45.57368957864995" lon="8.055631173871248"><ele>401.0</ele><time>2026-04-26T10:54:13Z</time></trkpt><trkpt lat="45.57380381285752" lon="8.055442290792078"><ele>402.3333333333333</ele><time>2026-04-26T10:54:14Z</time></trkpt><trkpt lat="45.57391660215946" lon="8.055258845674183"><ele>403.66666666666663</ele><time>2026-04-26T10:54:15Z</time></trkpt><trkpt lat="45.574024738042326" lon="8.055076571717894"><ele>405.0</ele><time>2026-04-26T10:54:16Z</time></trkpt><trkpt lat="45.574127028712304" lon="8.054891362878843"><ele>405.0</ele><time>2026-04-26T10:54:17Z</time></trkpt><trkpt lat="45.5742261701132" lon="8.054703859089637"><ele>405.0</ele><time>2026-04-26T10:54:18Z</time></trkpt><trkpt lat="45.574322499049075" lon="8.054515370975496"><ele>405.0</ele><time>2026-04-26T10:54:19Z</time></trkpt><trkpt lat="45.57442242702901" lon="8.05434353042481"><ele>405.0</ele><time>2026-04-26T10:54:20Z</time></trkpt><trkpt lat="45.57451480725073" lon="8.054193683797743"><ele>405.0</ele><time>2026-04-26T10:54:21Z</time></trkpt><trkpt lat="45.57459831710582" lon="8.054048345644352"><ele>405.0</ele><time>2026-04-26T10:54:22Z</time></trkpt><trkpt lat="45.574675990693954" lon="8.053928016430431"><ele>405.0</ele><time>2026-04-26T10:54:23Z</time></trkpt><trkpt lat="45.57475016406123" lon="8.053814821751423"><ele>407.0</ele><time>2026-04-26T10:54:24Z</time></trkpt><trkpt lat="45.57483361224028" lon="8.053699694523269"><ele>409.0</ele><time>2026-04-26T10:54:25Z</time></trkpt><trkpt lat="45.574930907460086" lon="8.053591500600014"><ele>411.0</ele><time>2026-04-26T10:54:26Z</time></trkpt><trkpt lat="45.57504209856386" lon="8.053496530856396"><ele>413.0</ele><time>2026-04-26T10:54:27Z</time></trkpt><trkpt lat="45.57516887357621" lon="8.053422761040963"><ele>413.0</ele><time>2026-04-26T10:54:28Z</time></trkpt><trkpt lat="45.57530445483209" lon="8.053373750548083"><ele>413.0</ele><time>2026-04-26T10:54:29Z</time></trkpt><trkpt lat="45.575443286330284" lon="8.053313930206562"><ele>413.0</ele><time>2026-04-26T10:54:30Z</time></trkpt><trkpt lat="45.57559302826451" lon="8.05325276593672"><ele>413.0</ele><time>2026-04-26T10:54:31Z</time></trkpt><trkpt lat="45.57574075344187" lon="8.053175549425623"><ele>412.3333333333333</ele><time>2026-04-26T10:54:32Z</time></trkpt><trkpt lat="45.57589702456412" lon="8.053100335640424"><ele>411.66666666666663</ele><time>2026-04-26T10:54:33Z</time></trkpt><trkpt lat="45.5760546214328" lon="8.053027068099931"><ele>411.0</ele><time>2026-04-26T10:54:34Z</time></trkpt><trkpt lat="45.57621617551508" lon="8.052955026733017"><ele>413.0</ele><time>2026-04-26T10:54:35Z</time></trkpt><trkpt lat="45.57637422286425" lon="8.052885516379938"><ele>415.0</ele><time>2026-04-26T10:54:36Z</time></trkpt><trkpt lat="45.576532271203384" lon="8.052826827006726"><ele>417.0</ele><time>2026-04-26T10:54:37Z</time></trkpt><trkpt lat="45.57667529323308" lon="8.052760048359776"><ele>417.0</ele><time>2026-04-26T10:54:38Z</time></trkpt><trkpt lat="45.57681665877491" lon="8.052707294362794"><ele>417.0</ele><time>2026-04-26T10:54:39Z</time></trkpt><trkpt lat="45.57696392183834" lon="8.052663337542535"><ele>417.0</ele><time>2026-04-26T10:54:40Z</time></trkpt><trkpt lat="45.57710946125094" lon="8.052647981544474"><ele>417.0</ele><time>2026-04-26T10:54:41Z</time></trkpt><trkpt lat="45.57726069593308" lon="8.05266269845915"><ele>417.66666666666663</ele><time>2026-04-26T10:54:42Z</time></trkpt><trkpt lat="45.57740706523609" lon="8.052706823211633"><ele>418.3333333333333</ele><time>2026-04-26T10:54:43Z</time></trkpt><trkpt lat="45.5775607266863" lon="8.052784413990329"><ele>419.0</ele><time>2026-04-26T10:54:44Z</time></trkpt><trkpt lat="45.577717960234914" lon="8.052862948686629"><ele>418.66666666666663</ele><time>2026-04-26T10:54:45Z</time></trkpt><trkpt lat="45.57785871002153" lon="8.052975087284816"><ele>418.33333333333337</ele><time>2026-04-26T10:54:46Z</time></trkpt><trkpt lat="45.57799208916029" lon="8.053119878393614"><ele>418.0</ele><time>2026-04-26T10:54:47Z</time></trkpt><trkpt lat="45.57810915971095" lon="8.053263183089824"><ele>420.6666666666667</ele><time>2026-04-26T10:54:48Z</time></trkpt><trkpt lat="45.57821169650145" lon="8.053439470119633"><ele>423.33333333333337</ele><time>2026-04-26T10:54:49Z</time></trkpt><trkpt lat="45.57830193880833" lon="8.05361161899474"><ele>426.0</ele><time>2026-04-26T10:54:50Z</time></trkpt><trkpt lat="45.57838699955482" lon="8.053803154209593"><ele>426.0</ele><time>2026-04-26T10:54:51Z</time></trkpt><trkpt lat="45.57847860187027" lon="8.053990804598397"><ele>426.0</ele><time>2026-04-26T10:54:52Z</time></trkpt><trkpt lat="45.57856199155945" lon="8.054176117576771"><ele>426.0</ele><time>2026-04-26T10:54:53Z</time></trkpt><trkpt lat="45.578651552083066" lon="8.054375469812786"><ele>425.0</ele><time>2026-04-26T10:54:54Z</time></trkpt><trkpt lat="45.57874276294733" lon="8.054570651667516"><ele>424.0</ele><time>2026-04-26T10:54:55Z</time></trkpt><trkpt lat="45.57882847529264" lon="8.054753307550861"><ele>423.0</ele><time>2026-04-26T10:54:56Z</time></trkpt><trkpt lat="45.578911041511056" lon="8.054940414859262"><ele>425.66666666666663</ele><time>2026-04-26T10:54:57Z</time></trkpt><trkpt lat="45.578988274217" lon="8.05514210283074"><ele>428.3333333333333</ele><time>2026-04-26T10:54:58Z</time></trkpt><trkpt lat="45.579057593519586" lon="8.055348363570214"><ele>431.0</ele><time>2026-04-26T10:54:59Z</time></trkpt><trkpt lat="45.579115615351995" lon="8.055561957320304"><ele>431.0</ele><time>2026-04-26T10:55:00Z</time></trkpt><trkpt lat="45.579181512640574" lon="8.055766415700358"><ele>431.0</ele><time>2026-04-26T10:55:01Z</time></trkpt><trkpt lat="45.57925682489205" lon="8.055974019631483"><ele>431.0</ele><time>2026-04-26T10:55:02Z</time></trkpt><trkpt lat="45.57934506023203" lon="8.056173478743533"><ele>431.66666666666663</ele><time>2026-04-26T10:55:03Z</time></trkpt><trkpt lat="45.5794418006245" lon="8.056356534496969"><ele>432.33333333333337</ele><time>2026-04-26T10:55:04Z</time></trkpt><trkpt lat="45.579548294565335" lon="8.056536971006903"><ele>433.0</ele><time>2026-04-26T10:55:05Z</time></trkpt><trkpt lat="45.57966885254375" lon="8.056687098613597"><ele>433.0</ele><time>2026-04-26T10:55:06Z</time></trkpt><trkpt lat="45.57979781273399" lon="8.056847066604508"><ele>433.0</ele><time>2026-04-26T10:55:07Z</time></trkpt><trkpt lat="45.579942698652985" lon="8.056993873106848"><ele>433.0</ele><time>2026-04-26T10:55:08Z</time></trkpt><trkpt lat="45.580108955280394" lon="8.057127155929038"><ele>433.0</ele><time>2026-04-26T10:55:09Z</time></trkpt><trkpt lat="45.58027057697414" lon="8.05725488751966"><ele>433.0</ele><time>2026-04-26T10:55:10Z</time></trkpt><trkpt lat="45.58042554753247" lon="8.057361971109026"><ele>433.0</ele><time>2026-04-26T10:55:11Z</time></trkpt><trkpt lat="45.58057238166912" lon="8.057485959600287"><ele>436.6666666666667</ele><time>2026-04-26T10:55:12Z</time></trkpt><trkpt lat="45.580717733097785" lon="8.057603329798738"><ele>440.33333333333337</ele><time>2026-04-26T10:55:13Z</time></trkpt><trkpt lat="45.580859847431476" lon="8.05772150540712"><ele>444.0</ele><time>2026-04-26T10:55:14Z</time></trkpt><trkpt lat="45.5809997312234" lon="8.057824525823497"><ele>444.0</ele><time>2026-04-26T10:55:15Z</time></trkpt><trkpt lat="45.58112630449641" lon="8.057927918204246"><ele>444.0</ele><time>2026-04-26T10:55:16Z</time></trkpt><trkpt lat="45.58125538319869" lon="8.058020245083657"><ele>444.0</ele><time>2026-04-26T10:55:17Z</time></trkpt><trkpt lat="45.581378878508765" lon="8.058116776632911"><ele>444.0</ele><time>2026-04-26T10:55:18Z</time></trkpt><trkpt lat="45.58150969125657" lon="8.058209581308013"><ele>442.25</ele><time>2026-04-26T10:55:19Z</time></trkpt><trkpt lat="45.58163941246027" lon="8.058282600893905"><ele>440.5</ele><time>2026-04-26T10:55:20Z</time></trkpt><trkpt lat="45.58175492872336" lon="8.058345923233833"><ele>438.75</ele><time>2026-04-26T10:55:21Z</time></trkpt><trkpt lat="45.58186608699985" lon="8.058396281304082"><ele>437.0</ele><time>2026-04-26T10:55:22Z</time></trkpt><trkpt lat="45.581974112973185" lon="8.058446036198882"><ele>441.75</ele><time>2026-04-26T10:55:23Z</time></trkpt><trkpt lat="45.5820861371682" lon="8.05849501272357"><ele>446.5</ele><time>2026-04-26T10:55:24Z</time></trkpt><trkpt lat="45.58219577490831" lon="8.058536040616096"><ele>451.25</ele><time>2026-04-26T10:55:25Z</time></trkpt><trkpt lat="45.58231161793496" lon="8.058576706035423"><ele>456.0</ele><time>2026-04-26T10:55:26Z</time></trkpt><trkpt lat="45.582422728807074" lon="8.058602975911711"><ele>456.0</ele><time>2026-04-26T10:55:27Z</time></trkpt><trkpt lat="45.582530984977964" lon="8.05864280681053"><ele>456.0</ele><time>2026-04-26T10:55:28Z</time></trkpt><trkpt lat="45.582624508535815" lon="8.058651232418192"><ele>456.0</ele><time>2026-04-26T10:55:29Z</time></trkpt><trkpt lat="45.5826943677687" lon="8.058696893185544"><ele>456.0</ele><time>2026-04-26T10:55:30Z</time></trkpt><trkpt lat="45.582756512673086" lon="8.058738413666875"><ele>456.0</ele><time>2026-04-26T10:55:31Z</time></trkpt><trkpt lat="45.58283196815595" lon="8.058767561659584"><ele>456.0</ele><time>2026-04-26T10:55:32Z</time></trkpt><trkpt lat="45.582921964834945" lon="8.058769991796725"><ele>455.6</ele><time>2026-04-26T10:55:33Z</time></trkpt><trkpt lat="45.58301895282667" lon="8.058761500265234"><ele>455.20000000000005</ele><time>2026-04-26T10:55:34Z</time></trkpt><trkpt lat="45.583116482392036" lon="8.058789276068914"><ele>454.79999999999995</ele><time>2026-04-26T10:55:35Z</time></trkpt><trkpt lat="45.58322527538769" lon="8.058818099720598"><ele>454.4</ele><time>2026-04-26T10:55:36Z</time></trkpt><trkpt lat="45.583334552083244" lon="8.058850628577344"><ele>454.0</ele><time>2026-04-26T10:55:37Z</time></trkpt><trkpt lat="45.58344914239735" lon="8.058881927247386"><ele>454.0</ele><time>2026-04-26T10:55:38Z</time></trkpt><trkpt lat="45.583566354448166" lon="8.058912627152939"><ele>454.0</ele><time>2026-04-26T10:55:39Z</time></trkpt><trkpt lat="45.58368334942267" lon="8.058944374003412"><ele>454.0</ele><time>2026-04-26T10:55:40Z</time></trkpt><trkpt lat="45.58380090156012" lon="8.058978626753515"><ele>454.0</ele><time>2026-04-26T10:55:41Z</time></trkpt><trkpt lat="45.58391477336351" lon="8.059010425040436"><ele>453.2</ele><time>2026-04-26T10:55:42Z</time></trkpt><trkpt lat="45.58402146737003" lon="8.05904136363146"><ele>452.4</ele><time>2026-04-26T10:55:43Z</time></trkpt><trkpt lat="45.5841289349099" lon="8.059090718725793"><ele>451.6</ele><time>2026-04-26T10:55:44Z</time></trkpt><trkpt lat="45.58423682821477" lon="8.059110065514934"><ele>450.8</ele><time>2026-04-26T10:55:45Z</time></trkpt><trkpt lat="45.58434402928231" lon="8.05913968847349"><ele>450.0</ele><time>2026-04-26T10:55:46Z</time></trkpt><trkpt lat="45.584447623776946" lon="8.059168490534724"><ele>453.4</ele><time>2026-04-26T10:55:47Z</time></trkpt><trkpt lat="45.58454706754251" lon="8.059192585515696"><ele>456.8</ele><time>2026-04-26T10:55:48Z</time></trkpt><trkpt lat="45.58464366038965" lon="8.05922442771997"><ele>460.20000000000005</ele><time>2026-04-26T10:55:49Z</time></trkpt><trkpt lat="45.58475433577972" lon="8.059258558950198"><ele>463.6</ele><time>2026-04-26T10:55:50Z</time></trkpt><trkpt lat="45.58486111757235" lon="8.059285114867562"><ele>467.0</ele><time>2026-04-26T10:55:51Z</time></trkpt><trkpt lat="45.584961656386874" lon="8.059309586072292"><ele>467.0</ele><time>2026-04-26T10:55:52Z</time></trkpt><trkpt lat="45.58506014180427" lon="8.05933745292476"><ele>467.00000000000006</ele><time>2026-04-26T10:55:53Z</time></trkpt><trkpt lat="45.58516351805461" lon="8.059365685268126"><ele>467.00000000000006</ele><time>2026-04-26T10:55:54Z</time></trkpt><trkpt lat="45.58526467642252" lon="8.059389470910258"><ele>467.0</ele><time>2026-04-26T10:55:55Z</time></trkpt><trkpt lat="45.58536679013673" lon="8.05943657638524"><ele>467.0</ele><time>2026-04-26T10:55:56Z</time></trkpt><trkpt lat="45.5854626519571" lon="8.059455928898812"><ele>467.6</ele><time>2026-04-26T10:55:57Z</time></trkpt><trkpt lat="45.58556716781225" lon="8.059490846546028"><ele>468.20000000000005</ele><time>2026-04-26T10:55:58Z</time></trkpt><trkpt lat="45.58566054777505" lon="8.059526458390108"><ele>468.8</ele><time>2026-04-26T10:55:59Z</time></trkpt><trkpt lat="45.58576604263045" lon="8.05955472722941"><ele>469.4</ele><time>2026-04-26T10:56:00Z</time></trkpt><trkpt lat="45.58587388758151" lon="8.059579750456143"><ele>470.0</ele><time>2026-04-26T10:56:01Z</time></trkpt><trkpt lat="45.58597814351775" lon="8.059605957467479"><ele>470.0</ele><time>2026-04-26T10:56:02Z</time></trkpt><trkpt lat="45.586076897321476" lon="8.059621318936607"><ele>470.0</ele><time>2026-04-26T10:56:03Z</time></trkpt><trkpt lat="45.586172205951435" lon="8.059622929838293"><ele>470.0</ele><time>2026-04-26T10:56:04Z</time></trkpt><trkpt lat="45.586273560561224" lon="8.059586374962503"><ele>470.0</ele><time>2026-04-26T10:56:05Z</time></trkpt><trkpt lat="45.586380616193914" lon="8.059525734686115"><ele>470.0</ele><time>2026-04-26T10:56:06Z</time></trkpt><trkpt lat="45.58647560371937" lon="8.059449589010041"><ele>470.6</ele><time>2026-04-26T10:56:07Z</time></trkpt><trkpt lat="45.58657802419003" lon="8.059392864359921"><ele>471.2</ele><time>2026-04-26T10:56:08Z</time></trkpt><trkpt lat="45.586677560062164" lon="8.059332826322082"><ele>471.79999999999995</ele><time>2026-04-26T10:56:09Z</time></trkpt><trkpt lat="45.58678991358099" lon="8.05926725688191"><ele>472.4</ele><time>2026-04-26T10:56:10Z</time></trkpt><trkpt lat="45.586885678241266" lon="8.059198687336393"><ele>473.0</ele><time>2026-04-26T10:56:11Z</time></trkpt><trkpt lat="45.586978241154526" lon="8.059143871915568"><ele>473.7142857142857</ele><time>2026-04-26T10:56:12Z</time></trkpt><trkpt lat="45.58705873169866" lon="8.059093874358547"><ele>474.42857142857144</ele><time>2026-04-26T10:56:13Z</time></trkpt><trkpt lat="45.58713230801106" lon="8.059049979567789"><ele>475.14285714285717</ele><time>2026-04-26T10:56:14Z</time></trkpt><trkpt lat="45.58719787791287" lon="8.059016309711911"><ele>475.8571428571429</ele><time>2026-04-26T10:56:15Z</time></trkpt><trkpt lat="45.58725557761015" lon="8.058979329663355"><ele>476.57142857142856</ele><time>2026-04-26T10:56:16Z</time></trkpt><trkpt lat="45.587314607869196" lon="8.058943863391855"><ele>477.28571428571433</ele><time>2026-04-26T10:56:17Z</time></trkpt><trkpt lat="45.58738534459499" lon="8.058896527819988"><ele>478.00000000000006</ele><time>2026-04-26T10:56:18Z</time></trkpt><trkpt lat="45.58746260211047" lon="8.058848366376195"><ele>478.0</ele><time>2026-04-26T10:56:19Z</time></trkpt><trkpt lat="45.58754677329533" lon="8.058799337593284"><ele>477.99999999999994</ele><time>2026-04-26T10:56:20Z</time></trkpt><trkpt lat="45.58763154931083" lon="8.058741070574387"><ele>477.99999999999994</ele><time>2026-04-26T10:56:21Z</time></trkpt><trkpt lat="45.587723970201736" lon="8.058678587987364"><ele>478.0</ele><time>2026-04-26T10:56:22Z</time></trkpt><trkpt lat="45.587817078707054" lon="8.058621354727567"><ele>478.0</ele><time>2026-04-26T10:56:23Z</time></trkpt><trkpt lat="45.58791119633746" lon="8.058563546447953"><ele>477.2</ele><time>2026-04-26T10:56:24Z</time></trkpt><trkpt lat="45.588003876040176" lon="8.058506674072547"><ele>476.4</ele><time>2026-04-26T10:56:25Z</time></trkpt><trkpt lat="45.588100444260164" lon="8.058446942934177"><ele>475.59999999999997</ele><time>2026-04-26T10:56:26Z</time></trkpt><trkpt lat="45.58819660713403" lon="8.058385843570269"><ele>474.79999999999995</ele><time>2026-04-26T10:56:27Z</time></trkpt><trkpt lat="45.588292473912745" lon="8.058328670233593"><ele>474.0</ele><time>2026-04-26T10:56:28Z</time></trkpt><trkpt lat="45.58838830940569" lon="8.058273965265043"><ele>474.0</ele><time>2026-04-26T10:56:29Z</time></trkpt><trkpt lat="45.5884817601097" lon="8.058212989856477"><ele>474.0</ele><time>2026-04-26T10:56:30Z</time></trkpt><trkpt lat="45.58857518816346" lon="8.058152004286976"><ele>474.0</ele><time>2026-04-26T10:56:31Z</time></trkpt><trkpt lat="45.58867088201149" lon="8.058097926736867"><ele>474.0</ele><time>2026-04-26T10:56:32Z</time></trkpt><trkpt lat="45.58876672489863" lon="8.058044830654332"><ele>474.0</ele><time>2026-04-26T10:56:33Z</time></trkpt><trkpt lat="45.58886524503495" lon="8.057987222662902"><ele>474.5</ele><time>2026-04-26T10:56:34Z</time></trkpt><trkpt lat="45.58896943550583" lon="8.057927100153147"><ele>475.0</ele><time>2026-04-26T10:56:35Z</time></trkpt><trkpt lat="45.58908349897827" lon="8.05786308303846"><ele>475.5</ele><time>2026-04-26T10:56:36Z</time></trkpt><trkpt lat="45.589207446833534" lon="8.057796928381098"><ele>476.0</ele><time>2026-04-26T10:56:37Z</time></trkpt><trkpt lat="45.58934101076743" lon="8.057738171891925"><ele>476.0</ele><time>2026-04-26T10:56:38Z</time></trkpt><trkpt lat="45.58948257801141" lon="8.05770011511697"><ele>476.0</ele><time>2026-04-26T10:56:39Z</time></trkpt><trkpt lat="45.58963248745489" lon="8.057698936833733"><ele>476.0</ele><time>2026-04-26T10:56:40Z</time></trkpt><trkpt lat="45.5897856264333" lon="8.05771798909613"><ele>476.0</ele><time>2026-04-26T10:56:41Z</time></trkpt><trkpt lat="45.58994819584136" lon="8.057769917244345"><ele>476.3333333333333</ele><time>2026-04-26T10:56:42Z</time></trkpt><trkpt lat="45.59012010450005" lon="8.05781048729578"><ele>476.66666666666663</ele><time>2026-04-26T10:56:43Z</time></trkpt><trkpt lat="45.59029482118079" lon="8.05787429548186"><ele>477.0</ele><time>2026-04-26T10:56:44Z</time></trkpt><trkpt lat="45.59046481155785" lon="8.057952605614231"><ele>475.66666666666663</ele><time>2026-04-26T10:56:45Z</time></trkpt><trkpt lat="45.59062542568904" lon="8.058037740319653"><ele>474.3333333333333</ele><time>2026-04-26T10:56:46Z</time></trkpt><trkpt lat="45.59076847030204" lon="8.058119777494749"><ele>473.0</ele><time>2026-04-26T10:56:47Z</time></trkpt><trkpt lat="45.590910749568934" lon="8.058180469577211"><ele>473.0</ele><time>2026-04-26T10:56:48Z</time></trkpt><trkpt lat="45.59106245374834" lon="8.058200619668153"><ele>473.0</ele><time>2026-04-26T10:56:49Z</time></trkpt><trkpt lat="45.591228507989264" lon="8.058197123208965"><ele>473.0</ele><time>2026-04-26T10:56:50Z</time></trkpt><trkpt lat="45.59139791996059" lon="8.058199235465414"><ele>471.66666666666663</ele><time>2026-04-26T10:56:51Z</time></trkpt><trkpt lat="45.59157822577812" lon="8.058213548909398"><ele>470.33333333333337</ele><time>2026-04-26T10:56:52Z</time></trkpt><trkpt lat="45.59175532373859" lon="8.058211478953305"><ele>469.0</ele><time>2026-04-26T10:56:53Z</time></trkpt><trkpt lat="45.59192324382323" lon="8.058194872612347"><ele>470.33333333333337</ele><time>2026-04-26T10:56:54Z</time></trkpt><trkpt lat="45.59208049899341" lon="8.058155655624038"><ele>471.66666666666663</ele><time>2026-04-26T10:56:55Z</time></trkpt><trkpt lat="45.59223472547335" lon="8.058102626110866"><ele>473.0</ele><time>2026-04-26T10:56:56Z</time></trkpt><trkpt lat="45.59238757982812" lon="8.058064085320739"><ele>473.0</ele><time>2026-04-26T10:56:57Z</time></trkpt><trkpt lat="45.59252363509822" lon="8.058048926950661"><ele>473.0</ele><time>2026-04-26T10:56:58Z</time></trkpt><trkpt lat="45.592656784620516" lon="8.058052904355128"><ele>473.0</ele><time>2026-04-26T10:56:59Z</time></trkpt><trkpt lat="45.59279293588344" lon="8.058116471982023"><ele>473.0</ele><time>2026-04-26T10:57:00Z</time></trkpt><trkpt lat="45.59292490540315" lon="8.058187693652142"><ele>473.75</ele><time>2026-04-26T10:57:01Z</time></trkpt><trkpt lat="45.59307105314242" lon="8.058211358970924"><ele>474.5</ele><time>2026-04-26T10:57:02Z</time></trkpt><trkpt lat="45.59322344327316" lon="8.058212801294625"><ele>475.25</ele><time>2026-04-26T10:57:03Z</time></trkpt><trkpt lat="45.593366473093994" lon="8.058220339132541"><ele>476.0</ele><time>2026-04-26T10:57:04Z</time></trkpt><trkpt lat="45.593493099242394" lon="8.058234171105118"><ele>476.0</ele><time>2026-04-26T10:57:05Z</time></trkpt><trkpt lat="45.59361171926686" lon="8.058235206279434"><ele>476.0</ele><time>2026-04-26T10:57:06Z</time></trkpt><trkpt lat="45.59373027383735" lon="8.058186070347247"><ele>476.0</ele><time>2026-04-26T10:57:07Z</time></trkpt><trkpt lat="45.59382955277213" lon="8.058066710678242"><ele>476.0</ele><time>2026-04-26T10:57:08Z</time></trkpt><trkpt lat="45.59389863210703" lon="8.057892684151534"><ele>475.5</ele><time>2026-04-26T10:57:09Z</time></trkpt><trkpt lat="45.59396662653978" lon="8.057713496670885"><ele>475.0</ele><time>2026-04-26T10:57:10Z</time></trkpt><trkpt lat="45.5940648123412" lon="8.057550824335129"><ele>474.5</ele><time>2026-04-26T10:57:11Z</time></trkpt><trkpt lat="45.594177307384065" lon="8.057406518246054"><ele>474.0</ele><time>2026-04-26T10:57:12Z</time></trkpt><trkpt lat="45.59429056402755" lon="8.05730326005226"><ele>474.0</ele><time>2026-04-26T10:57:13Z</time></trkpt><trkpt lat="45.59441324980082" lon="8.057245202806804"><ele>474.0</ele><time>2026-04-26T10:57:14Z</time></trkpt><trkpt lat="45.59455308354778" lon="8.057227703211579"><ele>474.0</ele><time>2026-04-26T10:57:15Z</time></trkpt><trkpt lat="45.59470214629233" lon="8.057220485801054"><ele>474.0</ele><time>2026-04-26T10:57:16Z</time></trkpt><trkpt lat="45.594860319889044" lon="8.057204281402496"><ele>478.0</ele><time>2026-04-26T10:57:17Z</time></trkpt><trkpt lat="45.5950221362418" lon="8.057171581824312"><ele>482.0</ele><time>2026-04-26T10:57:18Z</time></trkpt><trkpt lat="45.5951846770918" lon="8.057142078249097"><ele>486.0</ele><time>2026-04-26T10:57:19Z</time></trkpt><trkpt lat="45.59535384020411" lon="8.057142970744897"><ele>487.66666666666663</ele><time>2026-04-26T10:57:20Z</time></trkpt><trkpt lat="45.595526062134965" lon="8.057178488316268"><ele>489.3333333333333</ele><time>2026-04-26T10:57:21Z</time></trkpt><trkpt lat="45.59570938477074" lon="8.057229281502346"><ele>491.0</ele><time>2026-04-26T10:57:22Z</time></trkpt><trkpt lat="45.59590465492939" lon="8.057280853901"><ele>491.0</ele><time>2026-04-26T10:57:23Z</time></trkpt><trkpt lat="45.59610091898911" lon="8.057339921736576"><ele>491.0</ele><time>2026-04-26T10:57:24Z</time></trkpt><trkpt lat="45.596298032467125" lon="8.057395475231324"><ele>491.0</ele><time>2026-04-26T10:57:25Z</time></trkpt><trkpt lat="45.59650218839133" lon="8.057457851905"><ele>500.0</ele><time>2026-04-26T10:57:26Z</time></trkpt><trkpt lat="45.59670307904385" lon="8.057505945111531"><ele>509.0</ele><time>2026-04-26T10:57:27Z</time></trkpt><trkpt lat="45.596896492193885" lon="8.057547886157607"><ele>518.0</ele><time>2026-04-26T10:57:28Z</time></trkpt><trkpt lat="45.59708012053224" lon="8.057586686545273"><ele>518.0</ele><time>2026-04-26T10:57:29Z</time></trkpt><trkpt lat="45.59725027373603" lon="8.057620069466488"><ele>518.0</ele><time>2026-04-26T10:57:30Z</time></trkpt><trkpt lat="45.59740958631918" lon="8.057646071695094"><ele>518.0</ele><time>2026-04-26T10:57:31Z</time></trkpt><trkpt lat="45.597567157881564" lon="8.057652907848185"><ele>518.0</ele><time>2026-04-26T10:57:32Z</time></trkpt><trkpt lat="45.59772459534484" lon="8.05762888760837"><ele>518.0</ele><time>2026-04-26T10:57:33Z</time></trkpt><trkpt lat="45.59788962534612" lon="8.05759041312355"><ele>518.0</ele><time>2026-04-26T10:57:34Z</time></trkpt><trkpt lat="45.5980597475839" lon="8.057537210202135"><ele>519.3333333333333</ele><time>2026-04-26T10:57:35Z</time></trkpt><trkpt lat="45.5982344912393" lon="8.057488409817308"><ele>520.6666666666666</ele><time>2026-04-26T10:57:36Z</time></trkpt><trkpt lat="45.59840769625145" lon="8.057442046539812"><ele>522.0</ele><time>2026-04-26T10:57:37Z</time></trkpt><trkpt lat="45.5985819050967" lon="8.057390635645437"><ele>517.0</ele><time>2026-04-26T10:57:38Z</time></trkpt><trkpt lat="45.598749298510555" lon="8.057336021331304"><ele>512.0</ele><time>2026-04-26T10:57:39Z</time></trkpt><trkpt lat="45.598916178909676" lon="8.057277610507159"><ele>507.0</ele><time>2026-04-26T10:57:40Z</time></trkpt><trkpt lat="45.59908297383264" lon="8.05721535501755"><ele>507.0</ele><time>2026-04-26T10:57:41Z</time></trkpt><trkpt lat="45.59924894772064" lon="8.057155433799224"><ele>507.0</ele><time>2026-04-26T10:57:42Z</time></trkpt><trkpt lat="45.599410365795094" lon="8.057103375762896"><ele>507.0</ele><time>2026-04-26T10:57:43Z</time></trkpt><trkpt lat="45.59957293376157" lon="8.057059871499556"><ele>509.33333333333337</ele><time>2026-04-26T10:57:44Z</time></trkpt><trkpt lat="45.59973090206805" lon="8.057010433297343"><ele>511.6666666666667</ele><time>2026-04-26T10:57:45Z</time></trkpt><trkpt lat="45.59988550226218" lon="8.05696076709138"><ele>514.0</ele><time>2026-04-26T10:57:46Z</time></trkpt><trkpt lat="45.60003474179567" lon="8.05690903944087"><ele>514.0</ele><time>2026-04-26T10:57:47Z</time></trkpt><trkpt lat="45.60017184837579" lon="8.056860503683998"><ele>514.0</ele><time>2026-04-26T10:57:48Z</time></trkpt><trkpt lat="45.600302744429456" lon="8.056813289622838"><ele>514.0</ele><time>2026-04-26T10:57:49Z</time></trkpt><trkpt lat="45.60042947461478" lon="8.056772607224694"><ele>514.0</ele><time>2026-04-26T10:57:50Z</time></trkpt><trkpt lat="45.600559068060264" lon="8.056738047181854"><ele>514.6666666666667</ele><time>2026-04-26T10:57:51Z</time></trkpt><trkpt lat="45.6007015786719" lon="8.056727109775787"><ele>515.3333333333334</ele><time>2026-04-26T10:57:52Z</time></trkpt><trkpt lat="45.60085130028921" lon="8.056722649667769"><ele>516.0</ele><time>2026-04-26T10:57:53Z</time></trkpt><trkpt lat="45.60100916047974" lon="8.056729849853498"><ele>517.0</ele><time>2026-04-26T10:57:54Z</time></trkpt><trkpt lat="45.60117536139751" lon="8.056746463149908"><ele>518.0</ele><time>2026-04-26T10:57:55Z</time></trkpt><trkpt lat="45.601346453665556" lon="8.05676685092335"><ele>519.0</ele><time>2026-04-26T10:57:56Z</time></trkpt><trkpt lat="45.60151801164796" lon="8.05678182337642"><ele>519.0</ele><time>2026-04-26T10:57:57Z</time></trkpt><trkpt lat="45.601682465622" lon="8.056782320084451"><ele>519.0</ele><time>2026-04-26T10:57:58Z</time></trkpt><trkpt lat="45.60183336913248" lon="8.056769336405592"><ele>519.0</ele><time>2026-04-26T10:57:59Z</time></trkpt><trkpt lat="45.601971688634755" lon="8.05674828163277"><ele>517.75</ele><time>2026-04-26T10:58:00Z</time></trkpt><trkpt lat="45.60210193311519" lon="8.056711842278872"><ele>516.5</ele><time>2026-04-26T10:58:01Z</time></trkpt><trkpt lat="45.602226943403245" lon="8.056650721243129"><ele>515.25</ele><time>2026-04-26T10:58:02Z</time></trkpt><trkpt lat="45.60234017344152" lon="8.056545967844633"><ele>514.0</ele><time>2026-04-26T10:58:03Z</time></trkpt><trkpt lat="45.60244759766511" lon="8.056416671268384"><ele>514.0</ele><time>2026-04-26T10:58:04Z</time></trkpt><trkpt lat="45.6025508086127" lon="8.056289036682166"><ele>514.0</ele><time>2026-04-26T10:58:05Z</time></trkpt><trkpt lat="45.60264632024913" lon="8.056164200469045"><ele>514.0</ele><time>2026-04-26T10:58:06Z</time></trkpt><trkpt lat="45.602736227443486" lon="8.056053342687594"><ele>514.0</ele><time>2026-04-26T10:58:07Z</time></trkpt><trkpt lat="45.60281536574999" lon="8.055957391458112"><ele>514.3333333333334</ele><time>2026-04-26T10:58:08Z</time></trkpt><trkpt lat="45.60288387953823" lon="8.055877077372507"><ele>514.6666666666667</ele><time>2026-04-26T10:58:09Z</time></trkpt><trkpt lat="45.60295276280548" lon="8.05580703720835"><ele>515.0</ele><time>2026-04-26T10:58:10Z</time></trkpt><trkpt lat="45.60302855333576" lon="8.055754869844284"><ele>515.3333333333334</ele><time>2026-04-26T10:58:11Z</time></trkpt><trkpt lat="45.603097956731354" lon="8.05572076936374"><ele>515.6666666666666</ele><time>2026-04-26T10:58:12Z</time></trkpt><trkpt lat="45.60317822936704" lon="8.055614635558793"><ele>516.0</ele><time>2026-04-26T10:58:14Z</time></trkpt><trkpt lat="45.60308796898223" lon="8.055486102711496"><ele>516.4</ele><time>2026-04-26T10:58:16Z</time></trkpt><trkpt lat="45.603007296844424" lon="8.055502801432887"><ele>516.8</ele><time>2026-04-26T10:58:17Z</time></trkpt><trkpt lat="45.60293306618089" lon="8.055558660620106"><ele>517.1999999999999</ele><time>2026-04-26T10:58:18Z</time></trkpt><trkpt lat="45.60284158951546" lon="8.055570471919983"><ele>517.6</ele><time>2026-04-26T10:58:19Z</time></trkpt><trkpt lat="45.602729100761174" lon="8.055545354107847"><ele>518.0</ele><time>2026-04-26T10:58:20Z</time></trkpt><trkpt lat="45.60260039237448" lon="8.055516916483038"><ele>518.0</ele><time>2026-04-26T10:58:21Z</time></trkpt><trkpt lat="45.60246177184635" lon="8.055484720238132"><ele>518.0</ele><time>2026-04-26T10:58:22Z</time></trkpt><trkpt lat="45.602324947311295" lon="8.055458341384252"><ele>518.0</ele><time>2026-04-26T10:58:23Z</time></trkpt><trkpt lat="45.60217529019341" lon="8.055434692447646"><ele>518.0</ele><time>2026-04-26T10:58:24Z</time></trkpt><trkpt lat="45.60201834529224" lon="8.055406495670772"><ele>516.3333333333333</ele><time>2026-04-26T10:58:25Z</time></trkpt><trkpt lat="45.6018572674892" lon="8.055378657108587"><ele>514.6666666666666</ele><time>2026-04-26T10:58:26Z</time></trkpt><trkpt lat="45.60169513076247" lon="8.055350423717584"><ele>513.0</ele><time>2026-04-26T10:58:27Z</time></trkpt><trkpt lat="45.60153472545909" lon="8.055307314311353"><ele>513.0</ele><time>2026-04-26T10:58:28Z</time></trkpt><trkpt lat="45.60136956520543" lon="8.055291013201789"><ele>513.0</ele><time>2026-04-26T10:58:29Z</time></trkpt><trkpt lat="45.60120839004059" lon="8.055263314094704"><ele>513.0</ele><time>2026-04-26T10:58:30Z</time></trkpt><trkpt lat="45.601048103965624" lon="8.05523876391195"><ele>510.66666666666663</ele><time>2026-04-26T10:58:31Z</time></trkpt><trkpt lat="45.600888290875695" lon="8.055209982602724"><ele>508.3333333333333</ele><time>2026-04-26T10:58:32Z</time></trkpt><trkpt lat="45.60072992311445" lon="8.055180661145119"><ele>506.0</ele><time>2026-04-26T10:58:33Z</time></trkpt><trkpt lat="45.60057467330887" lon="8.05515013508812"><ele>506.0</ele><time>2026-04-26T10:58:34Z</time></trkpt><trkpt lat="45.6004216489329" lon="8.055121220130186"><ele>506.0</ele><time>2026-04-26T10:58:35Z</time></trkpt><trkpt lat="45.600271796631844" lon="8.05509359093922"><ele>506.0</ele><time>2026-04-26T10:58:36Z</time></trkpt><trkpt lat="45.60012722881761" lon="8.05506907271678"><ele>505.4</ele><time>2026-04-26T10:58:37Z</time></trkpt><trkpt lat="45.59999661571066" lon="8.055047604888776"><ele>504.8</ele><time>2026-04-26T10:58:38Z</time></trkpt><trkpt lat="45.59987676858278" lon="8.055026525723203"><ele>504.19999999999993</ele><time>2026-04-26T10:58:39Z</time></trkpt><trkpt lat="45.59977453552711" lon="8.055010673299565"><ele>503.59999999999997</ele><time>2026-04-26T10:58:40Z</time></trkpt><trkpt lat="45.5996912111938" lon="8.054996140011287"><ele>503.0</ele><time>2026-04-26T10:58:41Z</time></trkpt><trkpt lat="45.59961340241944" lon="8.054969937694453"><ele>501.66666666666663</ele><time>2026-04-26T10:58:42Z</time></trkpt><trkpt lat="45.59955370898359" lon="8.054903975651532"><ele>500.3333333333333</ele><time>2026-04-26T10:58:43Z</time></trkpt><trkpt lat="45.599543025980395" lon="8.054804158727833"><ele>499.0</ele><time>2026-04-26T10:58:44Z</time></trkpt><trkpt lat="45.59958491907086" lon="8.054714570149558"><ele>497.66666666666663</ele><time>2026-04-26T10:58:45Z</time></trkpt><trkpt lat="45.59967153793176" lon="8.05464738546738"><ele>496.3333333333333</ele><time>2026-04-26T10:58:46Z</time></trkpt><trkpt lat="45.59975848836052" lon="8.054597233843598"><ele>495.0</ele><time>2026-04-26T10:58:47Z</time></trkpt><trkpt lat="45.59986519042929" lon="8.054534511690962"><ele>495.0</ele><time>2026-04-26T10:58:48Z</time></trkpt><trkpt lat="45.59998507280044" lon="8.054466459246125"><ele>495.0</ele><time>2026-04-26T10:58:49Z</time></trkpt><trkpt lat="45.60009521738231" lon="8.054396434771073"><ele>495.0</ele><time>2026-04-26T10:58:50Z</time></trkpt><trkpt lat="45.600192785635286" lon="8.054330496164411"><ele>495.0</ele><time>2026-04-26T10:58:51Z</time></trkpt><trkpt lat="45.60026958367523" lon="8.054282676127555"><ele>495.0</ele><time>2026-04-26T10:58:52Z</time></trkpt><trkpt lat="45.60033352989337" lon="8.054234120115435"><ele>495.3333333333333</ele><time>2026-04-26T10:58:53Z</time></trkpt><trkpt lat="45.60037230943363" lon="8.054156851966153"><ele>495.66666666666663</ele><time>2026-04-26T10:58:54Z</time></trkpt><trkpt lat="45.60039760116258" lon="8.054070843081622"><ele>496.0</ele><time>2026-04-26T10:58:55Z</time></trkpt><trkpt lat="45.600367069266156" lon="8.053973926146302"><ele>496.3333333333333</ele><time>2026-04-26T10:58:56Z</time></trkpt><trkpt lat="45.60030061527336" lon="8.053908823094845"><ele>496.66666666666663</ele><time>2026-04-26T10:58:57Z</time></trkpt><trkpt lat="45.60018792219659" lon="8.053968039271616"><ele>497.0</ele><time>2026-04-26T10:58:58Z</time></trkpt><trkpt lat="45.60008575880911" lon="8.054033021874814"><ele>496.5</ele><time>2026-04-26T10:58:59Z</time></trkpt><trkpt lat="45.599969412304326" lon="8.054106666346536"><ele>496.0</ele><time>2026-04-26T10:59:00Z</time></trkpt><trkpt lat="45.59983848325578" lon="8.054178375048384"><ele>495.5</ele><time>2026-04-26T10:59:01Z</time></trkpt><trkpt lat="45.59970388339819" lon="8.054250516332312"><ele>495.0</ele><time>2026-04-26T10:59:02Z</time></trkpt><trkpt lat="45.599574511910674" lon="8.054316133100984"><ele>493.2</ele><time>2026-04-26T10:59:03Z</time></trkpt><trkpt lat="45.59945597039006" lon="8.05436910523423"><ele>491.4</ele><time>2026-04-26T10:59:04Z</time></trkpt><trkpt lat="45.599345386037115" lon="8.054406428210354"><ele>489.6</ele><time>2026-04-26T10:59:05Z</time></trkpt><trkpt lat="45.59923750161334" lon="8.054406349338006"><ele>487.8</ele><time>2026-04-26T10:59:06Z</time></trkpt><trkpt lat="45.59913820947498" lon="8.054377746538607"><ele>486.0</ele><time>2026-04-26T10:59:07Z</time></trkpt><trkpt lat="45.599043310414245" lon="8.054339697790988"><ele>486.0</ele><time>2026-04-26T10:59:08Z</time></trkpt><trkpt lat="45.59894365108052" lon="8.054299431430927"><ele>486.0</ele><time>2026-04-26T10:59:09Z</time></trkpt><trkpt lat="45.59884270860815" lon="8.054262739830042"><ele>486.0</ele><time>2026-04-26T10:59:10Z</time></trkpt><trkpt lat="45.598753089103816" lon="8.054183012375892"><ele>486.0</ele><time>2026-04-26T10:59:11Z</time></trkpt><trkpt lat="45.59866929801501" lon="8.05411899608493"><ele>486.0</ele><time>2026-04-26T10:59:12Z</time></trkpt><trkpt lat="45.598611730969225" lon="8.053999486735728"><ele>484.0</ele><time>2026-04-26T10:59:13Z</time></trkpt><trkpt lat="45.59854532480639" lon="8.053871240671015"><ele>482.0</ele><time>2026-04-26T10:59:14Z</time></trkpt><trkpt lat="45.598495033933666" lon="8.053723527111208"><ele>480.0</ele><time>2026-04-26T10:59:15Z</time></trkpt><trkpt lat="45.598438723910206" lon="8.053578132464043"><ele>478.0</ele><time>2026-04-26T10:59:16Z</time></trkpt><trkpt lat="45.59837334615861" lon="8.053454599475193"><ele>478.0</ele><time>2026-04-26T10:59:17Z</time></trkpt><trkpt lat="45.59829178541906" lon="8.053360579618388"><ele>477.99999999999994</ele><time>2026-04-26T10:59:18Z</time></trkpt><trkpt lat="45.59819405532447" lon="8.053308256135848"><ele>477.99999999999994</ele><time>2026-04-26T10:59:19Z</time></trkpt><trkpt lat="45.59809069873017" lon="8.053300970453485"><ele>478.0</ele><time>2026-04-26T10:59:20Z</time></trkpt><trkpt lat="45.597978759574175" lon="8.053326495409504"><ele>478.0</ele><time>2026-04-26T10:59:21Z</time></trkpt><trkpt lat="45.5978576301036" lon="8.053381320339742"><ele>481.0</ele><time>2026-04-26T10:59:22Z</time></trkpt><trkpt lat="45.59772802978372" lon="8.05345152139402"><ele>484.0</ele><time>2026-04-26T10:59:23Z</time></trkpt><trkpt lat="45.59758850900038" lon="8.053528236399444"><ele>487.0</ele><time>2026-04-26T10:59:24Z</time></trkpt><trkpt lat="45.59744574086791" lon="8.053602611041853"><ele>490.0</ele><time>2026-04-26T10:59:25Z</time></trkpt><trkpt lat="45.597300761303046" lon="8.05367941777062"><ele>490.0</ele><time>2026-04-26T10:59:26Z</time></trkpt><trkpt lat="45.59715075881033" lon="8.053763161321392"><ele>490.0</ele><time>2026-04-26T10:59:27Z</time></trkpt><trkpt lat="45.597000957696885" lon="8.053849003434765"><ele>490.0</ele><time>2026-04-26T10:59:28Z</time></trkpt><trkpt lat="45.59684768774952" lon="8.053936520467392"><ele>490.6666666666667</ele><time>2026-04-26T10:59:29Z</time></trkpt><trkpt lat="45.596694882775346" lon="8.054023902232439"><ele>491.33333333333337</ele><time>2026-04-26T10:59:30Z</time></trkpt><trkpt lat="45.59654522653356" lon="8.054108819755898"><ele>492.0</ele><time>2026-04-26T10:59:31Z</time></trkpt><trkpt lat="45.59639879008545" lon="8.054198700326234"><ele>492.0</ele><time>2026-04-26T10:59:32Z</time></trkpt><trkpt lat="45.59625689539778" lon="8.054275924724053"><ele>492.0</ele><time>2026-04-26T10:59:33Z</time></trkpt><trkpt lat="45.596121322750044" lon="8.054340701565836"><ele>492.0</ele><time>2026-04-26T10:59:34Z</time></trkpt><trkpt lat="45.59599380865089" lon="8.054399503550483"><ele>492.0</ele><time>2026-04-26T10:59:35Z</time></trkpt><trkpt lat="45.59587181610575" lon="8.054447879615646"><ele>494.5</ele><time>2026-04-26T10:59:36Z</time></trkpt><trkpt lat="45.5957494614657" lon="8.054481014068239"><ele>497.0</ele><time>2026-04-26T10:59:37Z</time></trkpt><trkpt lat="45.59562153567099" lon="8.054501122538015"><ele>499.5</ele><time>2026-04-26T10:59:38Z</time></trkpt><trkpt lat="45.59549796348056" lon="8.054503592858376"><ele>502.0</ele><time>2026-04-26T10:59:39Z</time></trkpt><trkpt lat="45.59538421092718" lon="8.054483000994578"><ele>500.75</ele><time>2026-04-26T10:59:40Z</time></trkpt><trkpt lat="45.5952757947584" lon="8.054456246520129"><ele>499.5</ele><time>2026-04-26T10:59:41Z</time></trkpt><trkpt lat="45.595167984212374" lon="8.054442830719635"><ele>498.25</ele><time>2026-04-26T10:59:42Z</time></trkpt><trkpt lat="45.59505352523533" lon="8.054448736578024"><ele>497.0</ele><time>2026-04-26T10:59:43Z</time></trkpt><trkpt lat="45.594930479172184" lon="8.054462316651353"><ele>497.0</ele><time>2026-04-26T10:59:44Z</time></trkpt><trkpt lat="45.59480040407398" lon="8.054485119248497"><ele>497.0</ele><time>2026-04-26T10:59:45Z</time></trkpt><trkpt lat="45.59466564779339" lon="8.054525512425947"><ele>497.0</ele><time>2026-04-26T10:59:46Z</time></trkpt><trkpt lat="45.594533109769515" lon="8.054575987432935"><ele>497.0</ele><time>2026-04-26T10:59:47Z</time></trkpt><trkpt lat="45.594400848102474" lon="8.054622502033927"><ele>496.5</ele><time>2026-04-26T10:59:48Z</time></trkpt><trkpt lat="45.59426957323596" lon="8.054656191432874"><ele>496.0</ele><time>2026-04-26T10:59:49Z</time></trkpt><trkpt lat="45.59413283478317" lon="8.054683418596548"><ele>495.5</ele><time>2026-04-26T10:59:50Z</time></trkpt><trkpt lat="45.59399264912624" lon="8.054705861522631"><ele>495.0</ele><time>2026-04-26T10:59:51Z</time></trkpt><trkpt lat="45.59385247688665" lon="8.054722184948067"><ele>495.0</ele><time>2026-04-26T10:59:52Z</time></trkpt><trkpt lat="45.59371485999498" lon="8.05473398812867"><ele>495.0</ele><time>2026-04-26T10:59:53Z</time></trkpt><trkpt lat="45.59358250020282" lon="8.05474551107188"><ele>495.0</ele><time>2026-04-26T10:59:54Z</time></trkpt><trkpt lat="45.59345557196054" lon="8.054755945574925"><ele>495.0</ele><time>2026-04-26T10:59:55Z</time></trkpt><trkpt lat="45.59333377952894" lon="8.054765003871326"><ele>494.5</ele><time>2026-04-26T10:59:56Z</time></trkpt><trkpt lat="45.59321500829272" lon="8.05477316536741"><ele>494.0</ele><time>2026-04-26T10:59:57Z</time></trkpt><trkpt lat="45.593093892299606" lon="8.054780779940952"><ele>493.5</ele><time>2026-04-26T10:59:58Z</time></trkpt><trkpt lat="45.592972277886666" lon="8.05479210112649"><ele>493.0</ele><time>2026-04-26T10:59:59Z</time></trkpt><trkpt lat="45.59285366191323" lon="8.054805600531454"><ele>492.4</ele><time>2026-04-26T11:00:00Z</time></trkpt><trkpt lat="45.59273845278866" lon="8.054816976366315"><ele>491.79999999999995</ele><time>2026-04-26T11:00:01Z</time></trkpt><trkpt lat="45.59263119689175" lon="8.05482581852054"><ele>491.2</ele><time>2026-04-26T11:00:02Z</time></trkpt><trkpt lat="45.59252516418458" lon="8.054817063233353"><ele>490.6</ele><time>2026-04-26T11:00:03Z</time></trkpt><trkpt lat="45.592421836481975" lon="8.054777363662684"><ele>490.0</ele><time>2026-04-26T11:00:04Z</time></trkpt><trkpt lat="45.59232798634119" lon="8.054699956537329"><ele>490.0</ele><time>2026-04-26T11:00:05Z</time></trkpt><trkpt lat="45.592243108838105" lon="8.054584396390311"><ele>490.0</ele><time>2026-04-26T11:00:06Z</time></trkpt><trkpt lat="45.59217164111295" lon="8.05445213667327"><ele>490.0</ele><time>2026-04-26T11:00:07Z</time></trkpt><trkpt lat="45.5921334184128" lon="8.054297135869875"><ele>490.0</ele><time>2026-04-26T11:00:08Z</time></trkpt><trkpt lat="45.59208173623282" lon="8.054157366910411"><ele>490.0</ele><time>2026-04-26T11:00:09Z</time></trkpt><trkpt lat="45.59204581008268" lon="8.05400253225645"><ele>490.0</ele><time>2026-04-26T11:00:10Z</time></trkpt><trkpt lat="45.592011623508576" lon="8.053850243722497"><ele>490.0</ele><time>2026-04-26T11:00:11Z</time></trkpt><trkpt lat="45.591975392023826" lon="8.053700419887653"><ele>490.0</ele><time>2026-04-26T11:00:12Z</time></trkpt><trkpt lat="45.59193564512797" lon="8.053551253775098"><ele>490.0</ele><time>2026-04-26T11:00:13Z</time></trkpt><trkpt lat="45.59189746396453" lon="8.053399999684963"><ele>490.2</ele><time>2026-04-26T11:00:14Z</time></trkpt><trkpt lat="45.591859148947854" lon="8.05324724539834"><ele>490.4</ele><time>2026-04-26T11:00:15Z</time></trkpt><trkpt lat="45.591821426230894" lon="8.05309619739416"><ele>490.6</ele><time>2026-04-26T11:00:16Z</time></trkpt><trkpt lat="45.591782810489754" lon="8.052947444582594"><ele>490.8</ele><time>2026-04-26T11:00:17Z</time></trkpt><trkpt lat="45.591746472110934" lon="8.052806312629382"><ele>491.0</ele><time>2026-04-26T11:00:18Z</time></trkpt><trkpt lat="45.591713636221" lon="8.052674822071129"><ele>490.99999999999994</ele><time>2026-04-26T11:00:19Z</time></trkpt><trkpt lat="45.59168441480268" lon="8.052564490974655"><ele>491.0</ele><time>2026-04-26T11:00:20Z</time></trkpt><trkpt lat="45.59165826591048" lon="8.052466478545375"><ele>491.0</ele><time>2026-04-26T11:00:21Z</time></trkpt><trkpt lat="45.59164878469108" lon="8.052376406809518"><ele>491.0</ele><time>2026-04-26T11:00:22Z</time></trkpt><trkpt lat="45.591611159336274" lon="8.052236934540284"><ele>490.99999999999994</ele><time>2026-04-26T11:00:24Z</time></trkpt><trkpt lat="45.59158531448437" lon="8.052116154594183"><ele>491.0</ele><time>2026-04-26T11:00:26Z</time></trkpt><trkpt lat="45.591603627458" lon="8.051950097369392"><ele>490.8333333333333</ele><time>2026-04-26T11:00:28Z</time></trkpt><trkpt lat="45.59156420641939" lon="8.051875800238127"><ele>490.66666666666663</ele><time>2026-04-26T11:00:29Z</time></trkpt><trkpt lat="45.59150250503676" lon="8.051829352253785"><ele>490.5</ele><time>2026-04-26T11:00:30Z</time></trkpt><trkpt lat="45.59143789657613" lon="8.051785897767617"><ele>490.33333333333337</ele><time>2026-04-26T11:00:31Z</time></trkpt><trkpt lat="45.59137176349784" lon="8.051733450781851"><ele>490.1666666666667</ele><time>2026-04-26T11:00:32Z</time></trkpt><trkpt lat="45.59129573239182" lon="8.05168920971533"><ele>490.0</ele><time>2026-04-26T11:00:33Z</time></trkpt><trkpt lat="45.59121666958638" lon="8.051622290973286"><ele>489.0</ele><time>2026-04-26T11:00:34Z</time></trkpt><trkpt lat="45.591127348467126" lon="8.051592786957597"><ele>488.0</ele><time>2026-04-26T11:00:35Z</time></trkpt><trkpt lat="45.59104583859204" lon="8.051541180064085"><ele>487.0</ele><time>2026-04-26T11:00:36Z</time></trkpt><trkpt lat="45.5909624402474" lon="8.051492084341067"><ele>486.0</ele><time>2026-04-26T11:00:37Z</time></trkpt><trkpt lat="45.590876217723704" lon="8.051448720472257"><ele>485.0</ele><time>2026-04-26T11:00:38Z</time></trkpt><trkpt lat="45.5907870865902" lon="8.051401254607402"><ele>485.0</ele><time>2026-04-26T11:00:39Z</time></trkpt><trkpt lat="45.59069114144902" lon="8.051354561093738"><ele>485.0</ele><time>2026-04-26T11:00:40Z</time></trkpt><trkpt lat="45.59059581723928" lon="8.051303812174647"><ele>485.0</ele><time>2026-04-26T11:00:41Z</time></trkpt><trkpt lat="45.59050608997085" lon="8.05126332310874"><ele>485.0</ele><time>2026-04-26T11:00:42Z</time></trkpt><trkpt lat="45.5904209249742" lon="8.051218729463265"><ele>485.0</ele><time>2026-04-26T11:00:43Z</time></trkpt><trkpt lat="45.59033430149865" lon="8.051165554701097"><ele>484.8333333333333</ele><time>2026-04-26T11:00:44Z</time></trkpt><trkpt lat="45.59024067910146" lon="8.051119639202412"><ele>484.66666666666663</ele><time>2026-04-26T11:00:45Z</time></trkpt><trkpt lat="45.59016103870524" lon="8.05105921824588"><ele>484.5</ele><time>2026-04-26T11:00:46Z</time></trkpt><trkpt lat="45.59008322806192" lon="8.051016700832852"><ele>484.33333333333337</ele><time>2026-04-26T11:00:47Z</time></trkpt><trkpt lat="45.589999247492784" lon="8.050995259811112"><ele>484.1666666666667</ele><time>2026-04-26T11:00:48Z</time></trkpt><trkpt lat="45.58992681013578" lon="8.05095686748234"><ele>484.0</ele><time>2026-04-26T11:00:49Z</time></trkpt><trkpt lat="45.58986044972248" lon="8.050897424337473"><ele>484.0</ele><time>2026-04-26T11:00:50Z</time></trkpt><trkpt lat="45.589793028727144" lon="8.050861691412807"><ele>484.0</ele><time>2026-04-26T11:00:51Z</time></trkpt><trkpt lat="45.58972828551824" lon="8.0508489210994"><ele>484.0</ele><time>2026-04-26T11:00:52Z</time></trkpt><trkpt lat="45.58962214897689" lon="8.050787754755376"><ele>484.0</ele><time>2026-04-26T11:00:54Z</time></trkpt><trkpt lat="45.589518127166855" lon="8.050728190800386"><ele>484.0</ele><time>2026-04-26T11:00:56Z</time></trkpt><trkpt lat="45.589434798023674" lon="8.050659392865636"><ele>483.79999999999995</ele><time>2026-04-26T11:00:58Z</time></trkpt><trkpt lat="45.58939818995152" lon="8.050577888612658"><ele>483.59999999999997</ele><time>2026-04-26T11:01:00Z</time></trkpt><trkpt lat="45.589474496151354" lon="8.050384138647711"><ele>483.4</ele><time>2026-04-26T11:01:01Z</time></trkpt><trkpt lat="45.589516495576824" lon="8.050252931606448"><ele>483.2</ele><time>2026-04-26T11:01:02Z</time></trkpt><trkpt lat="45.58956177489318" lon="8.050095235823582"><ele>483.0</ele><time>2026-04-26T11:01:03Z</time></trkpt><trkpt lat="45.58959243514606" lon="8.049929873705082"><ele>482.75</ele><time>2026-04-26T11:01:04Z</time></trkpt><trkpt lat="45.58963132952224" lon="8.049760369422652"><ele>482.5</ele><time>2026-04-26T11:01:05Z</time></trkpt><trkpt lat="45.58967180545446" lon="8.049580638050038"><ele>482.25</ele><time>2026-04-26T11:01:06Z</time></trkpt><trkpt lat="45.5897147744927" lon="8.049393300259178"><ele>482.0</ele><time>2026-04-26T11:01:07Z</time></trkpt><trkpt lat="45.58975351953407" lon="8.04919623708776"><ele>482.0</ele><time>2026-04-26T11:01:08Z</time></trkpt><trkpt lat="45.58978238001111" lon="8.048990174201853"><ele>482.0</ele><time>2026-04-26T11:01:09Z</time></trkpt><trkpt lat="45.58981421917716" lon="8.048781615045016"><ele>482.0</ele><time>2026-04-26T11:01:10Z</time></trkpt><trkpt lat="45.58984724961103" lon="8.048577956948463"><ele>482.0</ele><time>2026-04-26T11:01:11Z</time></trkpt><trkpt lat="45.589882962790966" lon="8.048384242414391"><ele>482.0</ele><time>2026-04-26T11:01:12Z</time></trkpt><trkpt lat="45.58992633875904" lon="8.048195318615337"><ele>482.0</ele><time>2026-04-26T11:01:13Z</time></trkpt><trkpt lat="45.58997670278852" lon="8.048012577585236"><ele>482.0</ele><time>2026-04-26T11:01:14Z</time></trkpt><trkpt lat="45.59003013669872" lon="8.047836661122396"><ele>482.0</ele><time>2026-04-26T11:01:15Z</time></trkpt><trkpt lat="45.5900902661273" lon="8.047668077474526"><ele>482.0</ele><time>2026-04-26T11:01:16Z</time></trkpt><trkpt lat="45.590151683250966" lon="8.0475016132994"><ele>482.0</ele><time>2026-04-26T11:01:17Z</time></trkpt><trkpt lat="45.590215237605904" lon="8.047343666324599"><ele>482.0</ele><time>2026-04-26T11:01:18Z</time></trkpt><trkpt lat="45.59028653564083" lon="8.047203799998002"><ele>482.0</ele><time>2026-04-26T11:01:19Z</time></trkpt><trkpt lat="45.590365303971986" lon="8.047083322052469"><ele>484.25</ele><time>2026-04-26T11:01:20Z</time></trkpt><trkpt lat="45.59045038105062" lon="8.046985725270707"><ele>486.5</ele><time>2026-04-26T11:01:21Z</time></trkpt><trkpt lat="45.59054595352001" lon="8.046901648997713"><ele>488.75</ele><time>2026-04-26T11:01:22Z</time></trkpt><trkpt lat="45.59065075430214" lon="8.046820998499232"><ele>491.0</ele><time>2026-04-26T11:01:23Z</time></trkpt><trkpt lat="45.590759146115346" lon="8.046741614210145"><ele>491.0</ele><time>2026-04-26T11:01:24Z</time></trkpt><trkpt lat="45.590870644024676" lon="8.046649939570049"><ele>491.0</ele><time>2026-04-26T11:01:25Z</time></trkpt><trkpt lat="45.590981701291064" lon="8.046536203298475"><ele>491.0</ele><time>2026-04-26T11:01:26Z</time></trkpt><trkpt lat="45.59108851404032" lon="8.046403156776025"><ele>491.0</ele><time>2026-04-26T11:01:27Z</time></trkpt><trkpt lat="45.59119417265023" lon="8.046256018180062"><ele>492.75</ele><time>2026-04-26T11:01:28Z</time></trkpt><trkpt lat="45.59129001095304" lon="8.04610836931537"><ele>494.5</ele><time>2026-04-26T11:01:29Z</time></trkpt><trkpt lat="45.591372715929076" lon="8.045961251182845"><ele>496.25</ele><time>2026-04-26T11:01:30Z</time></trkpt><trkpt lat="45.59144629813318" lon="8.045821258842878"><ele>498.0</ele><time>2026-04-26T11:01:31Z</time></trkpt><trkpt lat="45.59152288104438" lon="8.045697096377612"><ele>498.0</ele><time>2026-04-26T11:01:32Z</time></trkpt><trkpt lat="45.59160879643068" lon="8.045589712263276"><ele>498.0</ele><time>2026-04-26T11:01:33Z</time></trkpt><trkpt lat="45.5916810796573" lon="8.045464059847413"><ele>498.0</ele><time>2026-04-26T11:01:34Z</time></trkpt><trkpt lat="45.59172933986768" lon="8.045318698989478"><ele>498.0</ele><time>2026-04-26T11:01:35Z</time></trkpt><trkpt lat="45.591757275099326" lon="8.04515905330087"><ele>498.0</ele><time>2026-04-26T11:01:36Z</time></trkpt><trkpt lat="45.59176038524673" lon="8.044997415386801"><ele>498.0</ele><time>2026-04-26T11:01:37Z</time></trkpt><trkpt lat="45.59173301089983" lon="8.044832937332773"><ele>498.0</ele><time>2026-04-26T11:01:38Z</time></trkpt><trkpt lat="45.59168901450416" lon="8.044673628338863"><ele>498.0</ele><time>2026-04-26T11:01:39Z</time></trkpt><trkpt lat="45.59165040268085" lon="8.044527287881786"><ele>500.2</ele><time>2026-04-26T11:01:40Z</time></trkpt><trkpt lat="45.59159329249246" lon="8.044412443085756"><ele>502.4</ele><time>2026-04-26T11:01:41Z</time></trkpt><trkpt lat="45.59153312474337" lon="8.044321096935592"><ele>504.59999999999997</ele><time>2026-04-26T11:01:42Z</time></trkpt><trkpt lat="45.59145399027064" lon="8.044254888538335"><ele>506.79999999999995</ele><time>2026-04-26T11:01:43Z</time></trkpt><trkpt lat="45.59136425985921" lon="8.044193219256623"><ele>509.0</ele><time>2026-04-26T11:01:44Z</time></trkpt><trkpt lat="45.5912669230227" lon="8.044142122620046"><ele>509.2</ele><time>2026-04-26T11:01:45Z</time></trkpt><trkpt lat="45.59116215379423" lon="8.044115582806402"><ele>509.4</ele><time>2026-04-26T11:01:46Z</time></trkpt><trkpt lat="45.59105221205029" lon="8.044137204171225"><ele>509.6</ele><time>2026-04-26T11:01:47Z</time></trkpt><trkpt lat="45.59095185913234" lon="8.044222805998283"><ele>509.8</ele><time>2026-04-26T11:01:48Z</time></trkpt><trkpt lat="45.590855612545305" lon="8.044296634044944"><ele>510.0</ele><time>2026-04-26T11:01:49Z</time></trkpt><trkpt lat="45.59076685050078" lon="8.044361256130264"><ele>510.0</ele><time>2026-04-26T11:01:50Z</time></trkpt><trkpt lat="45.59068238516614" lon="8.04439850343418"><ele>510.0</ele><time>2026-04-26T11:01:51Z</time></trkpt><trkpt lat="45.590611994277786" lon="8.04442693366669"><ele>510.0</ele><time>2026-04-26T11:01:52Z</time></trkpt><trkpt lat="45.590545284901395" lon="8.044385155676158"><ele>510.0</ele><time>2026-04-26T11:01:53Z</time></trkpt><trkpt lat="45.59050833651529" lon="8.04428445407303"><ele>510.0</ele><time>2026-04-26T11:01:54Z</time></trkpt><trkpt lat="45.590440430938145" lon="8.0441957820489"><ele>510.0</ele><time>2026-04-26T11:01:55Z</time></trkpt><trkpt lat="45.590375772268004" lon="8.044094082240232"><ele>510.25</ele><time>2026-04-26T11:01:56Z</time></trkpt><trkpt lat="45.59029274007366" lon="8.04400882828436"><ele>510.5</ele><time>2026-04-26T11:01:57Z</time></trkpt><trkpt lat="45.590177811591325" lon="8.044040573704324"><ele>510.75</ele><time>2026-04-26T11:01:58Z</time></trkpt><trkpt lat="45.590072465624615" lon="8.044115124612775"><ele>511.0</ele><time>2026-04-26T11:01:59Z</time></trkpt><trkpt lat="45.58995943446417" lon="8.044185657195246"><ele>511.0</ele><time>2026-04-26T11:02:00Z</time></trkpt><trkpt lat="45.58984728679546" lon="8.04427820716399"><ele>511.0</ele><time>2026-04-26T11:02:01Z</time></trkpt><trkpt lat="45.589733914867075" lon="8.044401018944868"><ele>511.0</ele><time>2026-04-26T11:02:02Z</time></trkpt><trkpt lat="45.589625262193564" lon="8.044537693118881"><ele>511.0</ele><time>2026-04-26T11:02:03Z</time></trkpt><trkpt lat="45.5895157214583" lon="8.044674468252646"><ele>513.25</ele><time>2026-04-26T11:02:04Z</time></trkpt><trkpt lat="45.58940532784021" lon="8.044803933560834"><ele>515.5</ele><time>2026-04-26T11:02:05Z</time></trkpt><trkpt lat="45.58928728238242" lon="8.044913825070058"><ele>517.75</ele><time>2026-04-26T11:02:06Z</time></trkpt><trkpt lat="45.58916706497005" lon="8.045009444282778"><ele>520.0</ele><time>2026-04-26T11:02:07Z</time></trkpt><trkpt lat="45.58905171049359" lon="8.04509141138803"><ele>520.0</ele><time>2026-04-26T11:02:08Z</time></trkpt><trkpt lat="45.58894356471604" lon="8.045159774002567"><ele>520.0</ele><time>2026-04-26T11:02:09Z</time></trkpt><trkpt lat="45.58883948491799" lon="8.045216786865561"><ele>520.0</ele><time>2026-04-26T11:02:10Z</time></trkpt><trkpt lat="45.58874717873376" lon="8.045256510208"><ele>520.0</ele><time>2026-04-26T11:02:11Z</time></trkpt><trkpt lat="45.588676015794924" lon="8.045279240428078"><ele>520.0</ele><time>2026-04-26T11:02:12Z</time></trkpt><trkpt lat="45.58861159905823" lon="8.045293150666762"><ele>520.0</ele><time>2026-04-26T11:02:13Z</time></trkpt><trkpt lat="45.588501882756646" lon="8.045268500059317"><ele>520.0</ele><time>2026-04-26T11:02:15Z</time></trkpt><trkpt lat="45.588505693494135" lon="8.045149806621628"><ele>520.0</ele><time>2026-04-26T11:02:17Z</time></trkpt><trkpt lat="45.58860803621451" lon="8.045111339456552"><ele>520.0</ele><time>2026-04-26T11:02:19Z</time></trkpt><trkpt lat="45.58867834082011" lon="8.045120007031722"><ele>520.0</ele><time>2026-04-26T11:02:20Z</time></trkpt><trkpt lat="45.58875291151472" lon="8.045090329108053"><ele>520.0</ele><time>2026-04-26T11:02:21Z</time></trkpt><trkpt lat="45.588836950229734" lon="8.045042943738952"><ele>520.0</ele><time>2026-04-26T11:02:22Z</time></trkpt><trkpt lat="45.58892224273724" lon="8.044968505703856"><ele>520.0</ele><time>2026-04-26T11:02:23Z</time></trkpt><trkpt lat="45.58900115638635" lon="8.044862506333885"><ele>520.0</ele><time>2026-04-26T11:02:24Z</time></trkpt><trkpt lat="45.58908050828709" lon="8.04475093901515"><ele>520.0</ele><time>2026-04-26T11:02:25Z</time></trkpt><trkpt lat="45.58915766279305" lon="8.044641253215032"><ele>520.0</ele><time>2026-04-26T11:02:26Z</time></trkpt><trkpt lat="45.58921919904638" lon="8.04452749006744"><ele>521.6</ele><time>2026-04-26T11:02:27Z</time></trkpt><trkpt lat="45.58926383068841" lon="8.044394172256707"><ele>523.2</ele><time>2026-04-26T11:02:28Z</time></trkpt><trkpt lat="45.589296012149944" lon="8.044244962726337"><ele>524.8</ele><time>2026-04-26T11:02:29Z</time></trkpt><trkpt lat="45.58932993201011" lon="8.044092092184439"><ele>526.4</ele><time>2026-04-26T11:02:30Z</time></trkpt><trkpt lat="45.58935785223337" lon="8.043938663458174"><ele>528.0</ele><time>2026-04-26T11:02:31Z</time></trkpt><trkpt lat="45.589377772380686" lon="8.043790046822355"><ele>529.1666666666666</ele><time>2026-04-26T11:02:32Z</time></trkpt><trkpt lat="45.5894062095079" lon="8.043655124713927"><ele>530.3333333333334</ele><time>2026-04-26T11:02:33Z</time></trkpt><trkpt lat="45.58941881219995" lon="8.04352926433941"><ele>531.5</ele><time>2026-04-26T11:02:34Z</time></trkpt><trkpt lat="45.5894450144677" lon="8.0434188930289"><ele>532.6666666666667</ele><time>2026-04-26T11:02:35Z</time></trkpt><trkpt lat="45.589469261440165" lon="8.043303422992297"><ele>533.8333333333334</ele><time>2026-04-26T11:02:36Z</time></trkpt><trkpt lat="45.58950675332457" lon="8.043201186022605"><ele>535.0</ele><time>2026-04-26T11:02:37Z</time></trkpt><trkpt lat="45.58953316545587" lon="8.043088002391192"><ele>535.0</ele><time>2026-04-26T11:02:38Z</time></trkpt><trkpt lat="45.589586882838276" lon="8.042983822997629"><ele>535.0</ele><time>2026-04-26T11:02:39Z</time></trkpt><trkpt lat="45.589623601807" lon="8.04288539210471"><ele>535.0</ele><time>2026-04-26T11:02:40Z</time></trkpt><trkpt lat="45.589673704184605" lon="8.04280782662175"><ele>535.0</ele><time>2026-04-26T11:02:41Z</time></trkpt><trkpt lat="45.58971733596043" lon="8.04272065501766"><ele>535.0</ele><time>2026-04-26T11:02:42Z</time></trkpt><trkpt lat="45.589745107319615" lon="8.042606770277619"><ele>535.0</ele><time>2026-04-26T11:02:43Z</time></trkpt><trkpt lat="45.58977238620785" lon="8.042471178315546"><ele>536.2</ele><time>2026-04-26T11:02:44Z</time></trkpt><trkpt lat="45.58978824382847" lon="8.042328864784231"><ele>537.4</ele><time>2026-04-26T11:02:45Z</time></trkpt><trkpt lat="45.58980763731327" lon="8.042198993511201"><ele>538.6</ele><time>2026-04-26T11:02:46Z</time></trkpt><trkpt lat="45.58982840954799" lon="8.042075246224245"><ele>539.8</ele><time>2026-04-26T11:02:47Z</time></trkpt><trkpt lat="45.58984892610643" lon="8.04195220172935"><ele>541.0</ele><time>2026-04-26T11:02:48Z</time></trkpt><trkpt lat="45.589905016351935" lon="8.041849615920018"><ele>541.0</ele><time>2026-04-26T11:02:49Z</time></trkpt><trkpt lat="45.58997814258573" lon="8.04174834538512"><ele>541.0</ele><time>2026-04-26T11:02:50Z</time></trkpt><trkpt lat="45.59005994549782" lon="8.041633818790281"><ele>541.0</ele><time>2026-04-26T11:02:51Z</time></trkpt><trkpt lat="45.590147090144114" lon="8.041504084323664"><ele>541.0</ele><time>2026-04-26T11:02:52Z</time></trkpt><trkpt lat="45.59025928263376" lon="8.041387573311091"><ele>542.25</ele><time>2026-04-26T11:02:53Z</time></trkpt><trkpt lat="45.590362157181815" lon="8.041241695659593"><ele>543.5</ele><time>2026-04-26T11:02:54Z</time></trkpt><trkpt lat="45.59046508701741" lon="8.041094604544192"><ele>544.75</ele><time>2026-04-26T11:02:55Z</time></trkpt><trkpt lat="45.5905689805955" lon="8.040946136426179"><ele>546.0</ele><time>2026-04-26T11:02:56Z</time></trkpt><trkpt lat="45.59067071394034" lon="8.040800755149458"><ele>546.5</ele><time>2026-04-26T11:02:57Z</time></trkpt><trkpt lat="45.59075849714989" lon="8.040643530663077"><ele>547.0</ele><time>2026-04-26T11:02:58Z</time></trkpt><trkpt lat="45.59086822913596" lon="8.04051897714006"><ele>547.5</ele><time>2026-04-26T11:02:59Z</time></trkpt><trkpt lat="45.59095579489637" lon="8.040366767882999"><ele>548.0</ele><time>2026-04-26T11:03:00Z</time></trkpt><trkpt lat="45.59105338641153" lon="8.040228407470792"><ele>548.0</ele><time>2026-04-26T11:03:01Z</time></trkpt><trkpt lat="45.59114883096997" lon="8.040089895298912"><ele>548.0</ele><time>2026-04-26T11:03:02Z</time></trkpt><trkpt lat="45.59125306582897" lon="8.039965769549472"><ele>548.0</ele><time>2026-04-26T11:03:03Z</time></trkpt><trkpt lat="45.591340300268755" lon="8.039837705273415"><ele>548.0</ele><time>2026-04-26T11:03:04Z</time></trkpt><trkpt lat="45.59141547389616" lon="8.039725033181591"><ele>548.6666666666666</ele><time>2026-04-26T11:03:05Z</time></trkpt><trkpt lat="45.591481780992304" lon="8.039625215155773"><ele>549.3333333333333</ele><time>2026-04-26T11:03:06Z</time></trkpt><trkpt lat="45.59154158255351" lon="8.0395338377668"><ele>550.0</ele><time>2026-04-26T11:03:07Z</time></trkpt><trkpt lat="45.591579510401495" lon="8.039445928081674"><ele>550.6666666666666</ele><time>2026-04-26T11:03:08Z</time></trkpt><trkpt lat="45.591640134705976" lon="8.039358961488887"><ele>551.3333333333334</ele><time>2026-04-26T11:03:10Z</time></trkpt><trkpt lat="45.5916913994972" lon="8.039301596009617"><ele>552.0</ele><time>2026-04-26T11:03:17Z</time></trkpt><trkpt lat="45.59160959611114" lon="8.039180766582954"><ele>552.0</ele><time>2026-04-26T11:03:19Z</time></trkpt><trkpt lat="45.59154884210058" lon="8.039143285750995"><ele>552.0</ele><time>2026-04-26T11:03:20Z</time></trkpt><trkpt lat="45.59150014894896" lon="8.039063753250431"><ele>552.0</ele><time>2026-04-26T11:03:21Z</time></trkpt><trkpt lat="45.591422029193495" lon="8.039005546477672"><ele>552.0</ele><time>2026-04-26T11:03:22Z</time></trkpt><trkpt lat="45.591352438565806" lon="8.038930470256597"><ele>552.0</ele><time>2026-04-26T11:03:23Z</time></trkpt><trkpt lat="45.59127816041123" lon="8.038851172564842"><ele>552.0</ele><time>2026-04-26T11:03:24Z</time></trkpt><trkpt lat="45.59119694232334" lon="8.038766262066694"><ele>552.0</ele><time>2026-04-26T11:03:25Z</time></trkpt><trkpt lat="45.59110817570034" lon="8.03867593085866"><ele>552.0</ele><time>2026-04-26T11:03:26Z</time></trkpt><trkpt lat="45.5910241381703" lon="8.03857514497261"><ele>552.0</ele><time>2026-04-26T11:03:27Z</time></trkpt><trkpt lat="45.590957229857" lon="8.03846809546021"><ele>552.0</ele><time>2026-04-26T11:03:28Z</time></trkpt><trkpt lat="45.59088252083372" lon="8.038400561028256"><ele>552.0</ele><time>2026-04-26T11:03:29Z</time></trkpt><trkpt lat="45.59082224547245" lon="8.038319612181807"><ele>552.6</ele><time>2026-04-26T11:03:30Z</time></trkpt><trkpt lat="45.5907476053734" lon="8.038240818349236"><ele>553.2</ele><time>2026-04-26T11:03:31Z</time></trkpt><trkpt lat="45.590673779193835" lon="8.038157251387638"><ele>553.8</ele><time>2026-04-26T11:03:32Z</time></trkpt><trkpt lat="45.59059712635761" lon="8.038072596059394"><ele>554.4</ele><time>2026-04-26T11:03:33Z</time></trkpt><trkpt lat="45.59052071797367" lon="8.037994324679355"><ele>555.0</ele><time>2026-04-26T11:03:34Z</time></trkpt><trkpt lat="45.59045125019557" lon="8.037926527547508"><ele>555.0</ele><time>2026-04-26T11:03:35Z</time></trkpt><trkpt lat="45.59041727682125" lon="8.037838668164794"><ele>555.0</ele><time>2026-04-26T11:03:36Z</time></trkpt><trkpt lat="45.590345955762444" lon="8.037748072132093"><ele>555.0</ele><time>2026-04-26T11:03:38Z</time></trkpt><trkpt lat="45.590462164259534" lon="8.037535066298963"><ele>555.0</ele><time>2026-04-26T11:03:41Z</time></trkpt><trkpt lat="45.59049981586456" lon="8.03744890345164"><ele>555.0</ele><time>2026-04-26T11:03:42Z</time></trkpt><trkpt lat="45.590578650895125" lon="8.037360353614003"><ele>555.3333333333334</ele><time>2026-04-26T11:03:44Z</time></trkpt><trkpt lat="45.59063292299344" lon="8.037272873578987"><ele>555.6666666666666</ele><time>2026-04-26T11:03:46Z</time></trkpt><trkpt lat="45.59067089034274" lon="8.037193400330734"><ele>556.0</ele><time>2026-04-26T11:03:47Z</time></trkpt><trkpt lat="45.59072734284379" lon="8.037116656236808"><ele>556.3333333333333</ele><time>2026-04-26T11:03:48Z</time></trkpt><trkpt lat="45.59078616371683" lon="8.037023638065454"><ele>556.6666666666666</ele><time>2026-04-26T11:03:49Z</time></trkpt><trkpt lat="45.59085070666651" lon="8.03692831624946"><ele>557.0</ele><time>2026-04-26T11:03:50Z</time></trkpt><trkpt lat="45.59091403673964" lon="8.036841756501206"><ele>557.0</ele><time>2026-04-26T11:03:51Z</time></trkpt><trkpt lat="45.59098461812828" lon="8.036768140295166"><ele>557.0</ele><time>2026-04-26T11:03:52Z</time></trkpt><trkpt lat="45.591058686150355" lon="8.036689233727007"><ele>557.0</ele><time>2026-04-26T11:03:53Z</time></trkpt><trkpt lat="45.591130420316375" lon="8.036598914539567"><ele>557.0</ele><time>2026-04-26T11:03:54Z</time></trkpt><trkpt lat="45.59120867557578" lon="8.03650880484746"><ele>557.0</ele><time>2026-04-26T11:03:55Z</time></trkpt><trkpt lat="45.59129861425057" lon="8.0364208088305"><ele>557.8000000000001</ele><time>2026-04-26T11:03:56Z</time></trkpt><trkpt lat="45.591381800052396" lon="8.03634242434392"><ele>558.6</ele><time>2026-04-26T11:03:57Z</time></trkpt><trkpt lat="45.591461246688866" lon="8.036272980348025"><ele>559.4000000000001</ele><time>2026-04-26T11:03:58Z</time></trkpt><trkpt lat="45.59153606366436" lon="8.036206773147937"><ele>560.2</ele><time>2026-04-26T11:03:59Z</time></trkpt><trkpt lat="45.591617468288725" lon="8.036144766843629"><ele>561.0</ele><time>2026-04-26T11:04:00Z</time></trkpt><trkpt lat="45.59169591291291" lon="8.036081393929214"><ele>561.0</ele><time>2026-04-26T11:04:01Z</time></trkpt><trkpt lat="45.59177254545846" lon="8.036016879842226"><ele>561.0</ele><time>2026-04-26T11:04:02Z</time></trkpt><trkpt lat="45.59185501667756" lon="8.035931812851862"><ele>561.0</ele><time>2026-04-26T11:04:03Z</time></trkpt><trkpt lat="45.59193326110001" lon="8.035846611724157"><ele>561.0</ele><time>2026-04-26T11:04:04Z</time></trkpt><trkpt lat="45.592017312927396" lon="8.035775613827862"><ele>561.0</ele><time>2026-04-26T11:04:05Z</time></trkpt><trkpt lat="45.59209377850781" lon="8.035683696032908"><ele>562.2</ele><time>2026-04-26T11:04:06Z</time></trkpt><trkpt lat="45.59217324923505" lon="8.035600438596154"><ele>563.4000000000001</ele><time>2026-04-26T11:04:07Z</time></trkpt><trkpt lat="45.59225353033301" lon="8.035511092831616"><ele>564.6</ele><time>2026-04-26T11:04:08Z</time></trkpt><trkpt lat="45.59233269671516" lon="8.035428557236633"><ele>565.8000000000001</ele><time>2026-04-26T11:04:09Z</time></trkpt><trkpt lat="45.59242240534221" lon="8.035366116905905"><ele>567.0</ele><time>2026-04-26T11:04:10Z</time></trkpt><trkpt lat="45.592516504127474" lon="8.035295183475489"><ele>567.0</ele><time>2026-04-26T11:04:11Z</time></trkpt><trkpt lat="45.592621461981565" lon="8.03523617082528"><ele>567.0</ele><time>2026-04-26T11:04:12Z</time></trkpt><trkpt lat="45.59272262193491" lon="8.035157362113946"><ele>567.0</ele><time>2026-04-26T11:04:13Z</time></trkpt><trkpt lat="45.59281648219193" lon="8.035087935701554"><ele>567.0</ele><time>2026-04-26T11:04:14Z</time></trkpt><trkpt lat="45.59290728111752" lon="8.034998025662478"><ele>567.0</ele><time>2026-04-26T11:04:15Z</time></trkpt><trkpt lat="45.593011064587024" lon="8.034932002441565"><ele>567.4</ele><time>2026-04-26T11:04:16Z</time></trkpt><trkpt lat="45.59311014911484" lon="8.034854931237474"><ele>567.8000000000001</ele><time>2026-04-26T11:04:17Z</time></trkpt><trkpt lat="45.593204641857085" lon="8.034792070160977"><ele>568.2</ele><time>2026-04-26T11:04:18Z</time></trkpt><trkpt lat="45.59329823020475" lon="8.034719097941306"><ele>568.6</ele><time>2026-04-26T11:04:19Z</time></trkpt><trkpt lat="45.59339167629025" lon="8.034650058149909"><ele>569.0</ele><time>2026-04-26T11:04:20Z</time></trkpt><trkpt lat="45.5934886473171" lon="8.034581655693481"><ele>569.0</ele><time>2026-04-26T11:04:21Z</time></trkpt><trkpt lat="45.59357899479164" lon="8.034519876226463"><ele>569.0</ele><time>2026-04-26T11:04:22Z</time></trkpt><trkpt lat="45.59365731714595" lon="8.034462742522265"><ele>569.0</ele><time>2026-04-26T11:04:23Z</time></trkpt><trkpt lat="45.593726026776885" lon="8.034417242670882"><ele>569.0</ele><time>2026-04-26T11:04:24Z</time></trkpt><trkpt lat="45.59378766276841" lon="8.034381484375517"><ele>569.0</ele><time>2026-04-26T11:04:25Z</time></trkpt><trkpt lat="45.59388141992984" lon="8.034288171244118"><ele>569.0</ele><time>2026-04-26T11:04:27Z</time></trkpt><trkpt lat="45.593982360721945" lon="8.034248083434758"><ele>571.0</ele><time>2026-04-26T11:04:29Z</time></trkpt><trkpt lat="45.59407684880187" lon="8.034356105289312"><ele>573.0</ele><time>2026-04-26T11:04:31Z</time></trkpt><trkpt lat="45.59414666349749" lon="8.034462371988312"><ele>575.0</ele><time>2026-04-26T11:04:33Z</time></trkpt><trkpt lat="45.5943119507158" lon="8.034302355615027"><ele>577.0</ele><time>2026-04-26T11:04:36Z</time></trkpt><trkpt lat="45.594357375020614" lon="8.034199078612085"><ele>577.8000000000001</ele><time>2026-04-26T11:04:37Z</time></trkpt><trkpt lat="45.59440592473165" lon="8.034090095025928"><ele>578.6</ele><time>2026-04-26T11:04:38Z</time></trkpt><trkpt lat="45.59445762212121" lon="8.033976386029208"><ele>579.4000000000001</ele><time>2026-04-26T11:04:39Z</time></trkpt><trkpt lat="45.59451238009807" lon="8.03387439967969"><ele>580.2</ele><time>2026-04-26T11:04:40Z</time></trkpt><trkpt lat="45.59459081316221" lon="8.033805507340368"><ele>581.0</ele><time>2026-04-26T11:04:41Z</time></trkpt><trkpt lat="45.59468888425471" lon="8.033731289570078"><ele>581.0</ele><time>2026-04-26T11:04:42Z</time></trkpt><trkpt lat="45.59479696209741" lon="8.033659886814895"><ele>581.0</ele><time>2026-04-26T11:04:43Z</time></trkpt><trkpt lat="45.594916765593354" lon="8.033590184960062"><ele>581.0</ele><time>2026-04-26T11:04:44Z</time></trkpt><trkpt lat="45.595042070248155" lon="8.033512085309889"><ele>581.0</ele><time>2026-04-26T11:04:45Z</time></trkpt><trkpt lat="45.595166616258645" lon="8.033396201435774"><ele>581.0</ele><time>2026-04-26T11:04:46Z</time></trkpt><trkpt lat="45.595265855186504" lon="8.033250126955142"><ele>581.0</ele><time>2026-04-26T11:04:47Z</time></trkpt><trkpt lat="45.59534490718311" lon="8.033093868906334"><ele>581.0</ele><time>2026-04-26T11:04:48Z</time></trkpt><trkpt lat="45.59541090184899" lon="8.032942734697022"><ele>581.0</ele><time>2026-04-26T11:04:49Z</time></trkpt><trkpt lat="45.59546356324696" lon="8.032797825065732"><ele>581.4</ele><time>2026-04-26T11:04:50Z</time></trkpt><trkpt lat="45.59549908796733" lon="8.032640283544099"><ele>581.8</ele><time>2026-04-26T11:04:51Z</time></trkpt><trkpt lat="45.59551768230074" lon="8.032489648726266"><ele>582.1999999999999</ele><time>2026-04-26T11:04:52Z</time></trkpt><trkpt lat="45.595534068839925" lon="8.032343418126025"><ele>582.6</ele><time>2026-04-26T11:04:53Z</time></trkpt><trkpt lat="45.59556842924888" lon="8.032216728191992"><ele>583.0</ele><time>2026-04-26T11:04:54Z</time></trkpt><trkpt lat="45.59561510911555" lon="8.032105372235822"><ele>583.0</ele><time>2026-04-26T11:04:55Z</time></trkpt><trkpt lat="45.59566824242217" lon="8.0320060643807"><ele>583.0</ele><time>2026-04-26T11:04:56Z</time></trkpt><trkpt lat="45.59572773931145" lon="8.031903241223771"><ele>583.0</ele><time>2026-04-26T11:04:57Z</time></trkpt><trkpt lat="45.59579566198182" lon="8.031791248212254"><ele>583.0</ele><time>2026-04-26T11:04:58Z</time></trkpt><trkpt lat="45.595871669927284" lon="8.031671114056293"><ele>583.0</ele><time>2026-04-26T11:04:59Z</time></trkpt><trkpt lat="45.595956650141176" lon="8.031540732547507"><ele>585.0</ele><time>2026-04-26T11:05:00Z</time></trkpt><trkpt lat="45.59605100692052" lon="8.031401914837783"><ele>587.0</ele><time>2026-04-26T11:05:01Z</time></trkpt><trkpt lat="45.596154755618244" lon="8.031261484599552"><ele>589.0</ele><time>2026-04-26T11:05:02Z</time></trkpt><trkpt lat="45.596251152914114" lon="8.031110267118823"><ele>591.0</ele><time>2026-04-26T11:05:03Z</time></trkpt><trkpt lat="45.59634346815424" lon="8.030977943997389"><ele>591.0</ele><time>2026-04-26T11:05:04Z</time></trkpt><trkpt lat="45.59643373346129" lon="8.030868989222114"><ele>591.0</ele><time>2026-04-26T11:05:05Z</time></trkpt><trkpt lat="45.5964936411535" lon="8.030743878927282"><ele>591.0</ele><time>2026-04-26T11:05:06Z</time></trkpt><trkpt lat="45.5965677726932" lon="8.030639125489502"><ele>591.0</ele><time>2026-04-26T11:05:07Z</time></trkpt><trkpt lat="45.596655344060366" lon="8.030545795258396"><ele>591.0</ele><time>2026-04-26T11:05:08Z</time></trkpt><trkpt lat="45.59676311818645" lon="8.030466447425082"><ele>592.5</ele><time>2026-04-26T11:05:09Z</time></trkpt><trkpt lat="45.596880908418825" lon="8.030407287970705"><ele>594.0</ele><time>2026-04-26T11:05:10Z</time></trkpt><trkpt lat="45.59697810464948" lon="8.030330694574673"><ele>595.5</ele><time>2026-04-26T11:05:11Z</time></trkpt><trkpt lat="45.597060172766994" lon="8.030216733373802"><ele>597.0</ele><time>2026-04-26T11:05:12Z</time></trkpt><trkpt lat="45.597124923330256" lon="8.030070216957492"><ele>592.2</ele><time>2026-04-26T11:05:13Z</time></trkpt><trkpt lat="45.59717499586463" lon="8.029918757431679"><ele>587.4000000000001</ele><time>2026-04-26T11:05:14Z</time></trkpt><trkpt lat="45.59721622734514" lon="8.029779764932764"><ele>582.5999999999999</ele><time>2026-04-26T11:05:15Z</time></trkpt><trkpt lat="45.59726659691958" lon="8.029662386084697"><ele>577.8</ele><time>2026-04-26T11:05:16Z</time></trkpt><trkpt lat="45.59733570492114" lon="8.029569099322702"><ele>573.0</ele><time>2026-04-26T11:05:17Z</time></trkpt><trkpt lat="45.59742764626513" lon="8.029496540844185"><ele>573.0</ele><time>2026-04-26T11:05:18Z</time></trkpt><trkpt lat="45.597533920133245" lon="8.02942668699438"><ele>573.0</ele><time>2026-04-26T11:05:19Z</time></trkpt><trkpt lat="45.59764037338433" lon="8.029354860718522"><ele>573.0</ele><time>2026-04-26T11:05:20Z</time></trkpt><trkpt lat="45.59774554524312" lon="8.02929266795361"><ele>573.0</ele><time>2026-04-26T11:05:21Z</time></trkpt><trkpt lat="45.59785964751094" lon="8.029246991294283"><ele>570.25</ele><time>2026-04-26T11:05:22Z</time></trkpt><trkpt lat="45.5979841388974" lon="8.0292125543233"><ele>567.5</ele><time>2026-04-26T11:05:23Z</time></trkpt><trkpt lat="45.59811323726015" lon="8.029179840106444"><ele>564.75</ele><time>2026-04-26T11:05:24Z</time></trkpt><trkpt lat="45.598244004777996" lon="8.029145338125138"><ele>562.0</ele><time>2026-04-26T11:05:25Z</time></trkpt><trkpt lat="45.598370344758486" lon="8.029107112179307"><ele>562.0</ele><time>2026-04-26T11:05:26Z</time></trkpt><trkpt lat="45.59849767799891" lon="8.02906578982307"><ele>562.0</ele><time>2026-04-26T11:05:27Z</time></trkpt><trkpt lat="45.598629064699516" lon="8.029028161960603"><ele>562.0</ele><time>2026-04-26T11:05:28Z</time></trkpt><trkpt lat="45.59875623467778" lon="8.028980197328693"><ele>562.0</ele><time>2026-04-26T11:05:29Z</time></trkpt><trkpt lat="45.59888640391147" lon="8.028936160044289"><ele>563.25</ele><time>2026-04-26T11:05:30Z</time></trkpt><trkpt lat="45.59901511432096" lon="8.02887737815183"><ele>564.5</ele><time>2026-04-26T11:05:31Z</time></trkpt><trkpt lat="45.599145074967666" lon="8.028845736637695"><ele>565.75</ele><time>2026-04-26T11:05:32Z</time></trkpt><trkpt lat="45.599267738226146" lon="8.028815556546295"><ele>567.0</ele><time>2026-04-26T11:05:33Z</time></trkpt><trkpt lat="45.59938911549996" lon="8.028786769936243"><ele>567.0</ele><time>2026-04-26T11:05:34Z</time></trkpt><trkpt lat="45.59949895342278" lon="8.028702294662894"><ele>567.0</ele><time>2026-04-26T11:05:35Z</time></trkpt><trkpt lat="45.59960598670255" lon="8.028626342038896"><ele>567.0</ele><time>2026-04-26T11:05:36Z</time></trkpt><trkpt lat="45.59971218970067" lon="8.02854529026222"><ele>567.0</ele><time>2026-04-26T11:05:37Z</time></trkpt><trkpt lat="45.599810243638785" lon="8.02841734747391"><ele>567.5</ele><time>2026-04-26T11:05:38Z</time></trkpt><trkpt lat="45.59989083726864" lon="8.028251205945768"><ele>568.0</ele><time>2026-04-26T11:05:39Z</time></trkpt><trkpt lat="45.599960663606836" lon="8.028075251021962"><ele>568.5</ele><time>2026-04-26T11:05:40Z</time></trkpt><trkpt lat="45.600036374671106" lon="8.027908489906434"><ele>569.0</ele><time>2026-04-26T11:05:41Z</time></trkpt><trkpt lat="45.600123484293526" lon="8.027758924793227"><ele>569.0</ele><time>2026-04-26T11:05:42Z</time></trkpt><trkpt lat="45.60022030867989" lon="8.027621296502375"><ele>569.0</ele><time>2026-04-26T11:05:43Z</time></trkpt><trkpt lat="45.60032076460541" lon="8.027490289855812"><ele>569.0</ele><time>2026-04-26T11:05:44Z</time></trkpt><trkpt lat="45.60042526035122" lon="8.027367206441973"><ele>569.0</ele><time>2026-04-26T11:05:45Z</time></trkpt><trkpt lat="45.60054876901988" lon="8.0272404923128"><ele>571.6666666666666</ele><time>2026-04-26T11:05:46Z</time></trkpt><trkpt lat="45.600684653846635" lon="8.027112459719143"><ele>574.3333333333334</ele><time>2026-04-26T11:05:47Z</time></trkpt><trkpt lat="45.600819531689275" lon="8.026993708989634"><ele>577.0</ele><time>2026-04-26T11:05:48Z</time></trkpt><trkpt lat="45.60095378545055" lon="8.026871406326965"><ele>577.0</ele><time>2026-04-26T11:05:49Z</time></trkpt><trkpt lat="45.601086696040014" lon="8.026744839288495"><ele>577.0</ele><time>2026-04-26T11:05:50Z</time></trkpt><trkpt lat="45.60122861589917" lon="8.02660331774621"><ele>577.0</ele><time>2026-04-26T11:05:51Z</time></trkpt><trkpt lat="45.60136362155012" lon="8.02645760058324"><ele>578.0</ele><time>2026-04-26T11:05:52Z</time></trkpt><trkpt lat="45.601495928054995" lon="8.026321404829337"><ele>579.0</ele><time>2026-04-26T11:05:53Z</time></trkpt><trkpt lat="45.601619065709855" lon="8.026201559358835"><ele>580.0</ele><time>2026-04-26T11:05:54Z</time></trkpt><trkpt lat="45.601735669702066" lon="8.026088240282476"><ele>580.0</ele><time>2026-04-26T11:05:55Z</time></trkpt><trkpt lat="45.60184953928759" lon="8.025992115429037"><ele>580.0</ele><time>2026-04-26T11:05:56Z</time></trkpt><trkpt lat="45.60195508518378" lon="8.02592248459086"><ele>580.0</ele><time>2026-04-26T11:05:57Z</time></trkpt><trkpt lat="45.602048039869324" lon="8.02586773611206"><ele>580.0</ele><time>2026-04-26T11:05:58Z</time></trkpt><trkpt lat="45.602134041031896" lon="8.02581780096145"><ele>580.0</ele><time>2026-04-26T11:05:59Z</time></trkpt><trkpt lat="45.60221753485603" lon="8.025751189467206"><ele>581.0</ele><time>2026-04-26T11:06:00Z</time></trkpt><trkpt lat="45.60230807413017" lon="8.025682558012994"><ele>582.0</ele><time>2026-04-26T11:06:01Z</time></trkpt><trkpt lat="45.60236114200859" lon="8.025513521470259"><ele>583.0</ele><time>2026-04-26T11:06:02Z</time></trkpt><trkpt lat="45.60243175725847" lon="8.025388959061203"><ele>584.0</ele><time>2026-04-26T11:06:03Z</time></trkpt><trkpt lat="45.602507142431556" lon="8.025284772231425"><ele>585.0</ele><time>2026-04-26T11:06:04Z</time></trkpt><trkpt lat="45.60258120907149" lon="8.025162683260808"><ele>585.0</ele><time>2026-04-26T11:06:05Z</time></trkpt><trkpt lat="45.602637913007044" lon="8.025016136450484"><ele>585.0</ele><time>2026-04-26T11:06:06Z</time></trkpt><trkpt lat="45.60269283098057" lon="8.024862102357195"><ele>585.0</ele><time>2026-04-26T11:06:07Z</time></trkpt><trkpt lat="45.602697852473916" lon="8.02468688585795"><ele>585.0</ele><time>2026-04-26T11:06:08Z</time></trkpt><trkpt lat="45.602745764924755" lon="8.024539320767552"><ele>584.8</ele><time>2026-04-26T11:06:09Z</time></trkpt><trkpt lat="45.60279489690382" lon="8.024393323152461"><ele>584.6</ele><time>2026-04-26T11:06:10Z</time></trkpt><trkpt lat="45.60285315842298" lon="8.02426541070628"><ele>584.4</ele><time>2026-04-26T11:06:11Z</time></trkpt><trkpt lat="45.60291307617141" lon="8.02414336486062"><ele>584.2</ele><time>2026-04-26T11:06:12Z</time></trkpt><trkpt lat="45.60299683415361" lon="8.024071600981031"><ele>584.0</ele><time>2026-04-26T11:06:13Z</time></trkpt><trkpt lat="45.603073139583586" lon="8.024007643872746"><ele>586.0</ele><time>2026-04-26T11:06:14Z</time></trkpt><trkpt lat="45.60315117189766" lon="8.023933624330525"><ele>588.0</ele><time>2026-04-26T11:06:15Z</time></trkpt><trkpt lat="45.60320590162919" lon="8.0237901722842"><ele>590.0</ele><time>2026-04-26T11:06:16Z</time></trkpt><trkpt lat="45.603217730967835" lon="8.023631621941613"><ele>592.0</ele><time>2026-04-26T11:06:17Z</time></trkpt><trkpt lat="45.60325461282731" lon="8.023478927144865"><ele>594.0</ele><time>2026-04-26T11:06:18Z</time></trkpt><trkpt lat="45.60330574949396" lon="8.023327963576772"><ele>596.25</ele><time>2026-04-26T11:06:19Z</time></trkpt><trkpt lat="45.603359128134855" lon="8.023170477261418"><ele>598.5</ele><time>2026-04-26T11:06:20Z</time></trkpt><trkpt lat="45.6034119357703" lon="8.022999871692651"><ele>600.75</ele><time>2026-04-26T11:06:21Z</time></trkpt><trkpt lat="45.603447904658005" lon="8.02281889325837"><ele>603.0</ele><time>2026-04-26T11:06:22Z</time></trkpt><trkpt lat="45.603473788011534" lon="8.022648537147663"><ele>603.0</ele><time>2026-04-26T11:06:23Z</time></trkpt><trkpt lat="45.603492337252" lon="8.02248793238863"><ele>603.0</ele><time>2026-04-26T11:06:24Z</time></trkpt><trkpt lat="45.603492938694025" lon="8.022325706416757"><ele>603.0</ele><time>2026-04-26T11:06:25Z</time></trkpt><trkpt lat="45.60348390098392" lon="8.022152220478656"><ele>603.0</ele><time>2026-04-26T11:06:26Z</time></trkpt><trkpt lat="45.603473447037814" lon="8.021973794400958"><ele>604.25</ele><time>2026-04-26T11:06:27Z</time></trkpt><trkpt lat="45.60346436125964" lon="8.021781757210778"><ele>605.5</ele><time>2026-04-26T11:06:28Z</time></trkpt><trkpt lat="45.603464784148414" lon="8.021577375946292"><ele>606.75</ele><time>2026-04-26T11:06:29Z</time></trkpt><trkpt lat="45.60347233352991" lon="8.02136462791796"><ele>608.0</ele><time>2026-04-26T11:06:30Z</time></trkpt><trkpt lat="45.603479527152636" lon="8.021161905373322"><ele>608.25</ele><time>2026-04-26T11:06:31Z</time></trkpt><trkpt lat="45.60348314901132" lon="8.020975163894901"><ele>608.5</ele><time>2026-04-26T11:06:32Z</time></trkpt><trkpt lat="45.60347439233476" lon="8.020800885766175"><ele>608.75</ele><time>2026-04-26T11:06:33Z</time></trkpt><trkpt lat="45.60349922950612" lon="8.020634072531731"><ele>609.0</ele><time>2026-04-26T11:06:34Z</time></trkpt><trkpt lat="45.603540993082945" lon="8.020464013057664"><ele>607.75</ele><time>2026-04-26T11:06:35Z</time></trkpt><trkpt lat="45.60358664260743" lon="8.020292415119144"><ele>606.5</ele><time>2026-04-26T11:06:36Z</time></trkpt><trkpt lat="45.60362480569454" lon="8.020125821543"><ele>605.25</ele><time>2026-04-26T11:06:37Z</time></trkpt><trkpt lat="45.60368508447415" lon="8.019977904040054"><ele>604.0</ele><time>2026-04-26T11:06:38Z</time></trkpt><trkpt lat="45.60371564444739" lon="8.019821211054186"><ele>608.6</ele><time>2026-04-26T11:06:39Z</time></trkpt><trkpt lat="45.603762229252304" lon="8.01968245835559"><ele>613.2</ele><time>2026-04-26T11:06:40Z</time></trkpt><trkpt lat="45.603807078704776" lon="8.01957270527908"><ele>617.8000000000001</ele><time>2026-04-26T11:06:41Z</time></trkpt><trkpt lat="45.60380554708943" lon="8.019439093669481"><ele>622.4</ele><time>2026-04-26T11:06:42Z</time></trkpt><trkpt lat="45.60379742508454" lon="8.019290189107828"><ele>627.0</ele><time>2026-04-26T11:06:43Z</time></trkpt><trkpt lat="45.603774387930855" lon="8.01913090746081"><ele>627.0</ele><time>2026-04-26T11:06:44Z</time></trkpt><trkpt lat="45.60375061500796" lon="8.018958713904057"><ele>627.0</ele><time>2026-04-26T11:06:45Z</time></trkpt><trkpt lat="45.60372642668385" lon="8.018776894996154"><ele>627.0</ele><time>2026-04-26T11:06:46Z</time></trkpt><trkpt lat="45.6037025416653" lon="8.018602207170371"><ele>627.0</ele><time>2026-04-26T11:06:47Z</time></trkpt><trkpt lat="45.603676833487945" lon="8.018441469913714"><ele>624.75</ele><time>2026-04-26T11:06:48Z</time></trkpt><trkpt lat="45.60364858208345" lon="8.018287136703295"><ele>622.5</ele><time>2026-04-26T11:06:49Z</time></trkpt><trkpt lat="45.60362468396613" lon="8.018123502293939"><ele>620.25</ele><time>2026-04-26T11:06:50Z</time></trkpt><trkpt lat="45.60361104939768" lon="8.01795480498573"><ele>618.0</ele><time>2026-04-26T11:06:51Z</time></trkpt><trkpt lat="45.60361164890931" lon="8.017793754466668"><ele>618.0</ele><time>2026-04-26T11:06:52Z</time></trkpt><trkpt lat="45.60362154861322" lon="8.017621168425489"><ele>618.0</ele><time>2026-04-26T11:06:53Z</time></trkpt><trkpt lat="45.60364030653215" lon="8.017440508549607"><ele>618.0</ele><time>2026-04-26T11:06:54Z</time></trkpt><trkpt lat="45.60366643690603" lon="8.017250122340716"><ele>618.0</ele><time>2026-04-26T11:06:55Z</time></trkpt><trkpt lat="45.603693370121306" lon="8.017041833892078"><ele>623.75</ele><time>2026-04-26T11:06:56Z</time></trkpt><trkpt lat="45.60371663369705" lon="8.016831866551845"><ele>629.5</ele><time>2026-04-26T11:06:57Z</time></trkpt><trkpt lat="45.60375434282709" lon="8.016653489133118"><ele>635.25</ele><time>2026-04-26T11:06:58Z</time></trkpt><trkpt lat="45.60376274872186" lon="8.016499459973177"><ele>641.0</ele><time>2026-04-26T11:06:59Z</time></trkpt><trkpt lat="45.60378686744926" lon="8.016368955419388"><ele>641.75</ele><time>2026-04-26T11:07:00Z</time></trkpt><trkpt lat="45.603848785590756" lon="8.016247066661897"><ele>642.5</ele><time>2026-04-26T11:07:01Z</time></trkpt><trkpt lat="45.60388222888357" lon="8.016079041772144"><ele>643.25</ele><time>2026-04-26T11:07:02Z</time></trkpt><trkpt lat="45.603942093916835" lon="8.015910177759226"><ele>644.0</ele><time>2026-04-26T11:07:03Z</time></trkpt><trkpt lat="45.60401354133859" lon="8.015714178586185"><ele>641.6666666666666</ele><time>2026-04-26T11:07:04Z</time></trkpt><trkpt lat="45.604101074970444" lon="8.01547919681184"><ele>639.3333333333334</ele><time>2026-04-26T11:07:05Z</time></trkpt><trkpt lat="45.60417598593399" lon="8.01528437090784"><ele>637.0</ele><time>2026-04-26T11:07:06Z</time></trkpt><trkpt lat="45.60424135284942" lon="8.015116523830951"><ele>637.0</ele><time>2026-04-26T11:07:07Z</time></trkpt><trkpt lat="45.60430585019447" lon="8.014963075410844"><ele>637.0</ele><time>2026-04-26T11:07:08Z</time></trkpt><trkpt lat="45.6043846529458" lon="8.01483934226453"><ele>637.0</ele><time>2026-04-26T11:07:09Z</time></trkpt><trkpt lat="45.604469732185315" lon="8.014734742230113"><ele>637.0</ele><time>2026-04-26T11:07:10Z</time></trkpt><trkpt lat="45.604559731984295" lon="8.014654359074507"><ele>638.8</ele><time>2026-04-26T11:07:11Z</time></trkpt><trkpt lat="45.60462182088224" lon="8.01458032074393"><ele>640.6</ele><time>2026-04-26T11:07:12Z</time></trkpt><trkpt lat="45.6046822038084" lon="8.014500307764841"><ele>642.4</ele><time>2026-04-26T11:07:13Z</time></trkpt><trkpt lat="45.60467693010114" lon="8.014369553772152"><ele>644.1999999999999</ele><time>2026-04-26T11:07:14Z</time></trkpt><trkpt lat="45.60466540920843" lon="8.014228740670577"><ele>646.0</ele><time>2026-04-26T11:07:15Z</time></trkpt><trkpt lat="45.604639563142584" lon="8.014072230287256"><ele>646.25</ele><time>2026-04-26T11:07:16Z</time></trkpt><trkpt lat="45.60459382333916" lon="8.013933751581577"><ele>646.5</ele><time>2026-04-26T11:07:17Z</time></trkpt><trkpt lat="45.604600946869716" lon="8.013776169823343"><ele>646.75</ele><time>2026-04-26T11:07:18Z</time></trkpt><trkpt lat="45.604630291709526" lon="8.013607244818026"><ele>647.0</ele><time>2026-04-26T11:07:19Z</time></trkpt><trkpt lat="45.604670649836585" lon="8.01342688100018"><ele>647.0</ele><time>2026-04-26T11:07:20Z</time></trkpt><trkpt lat="45.60471544803477" lon="8.013238275711975"><ele>647.0</ele><time>2026-04-26T11:07:21Z</time></trkpt><trkpt lat="45.60476050748459" lon="8.013056507755772"><ele>647.0</ele><time>2026-04-26T11:07:22Z</time></trkpt><trkpt lat="45.60479829403613" lon="8.012893021406772"><ele>647.0</ele><time>2026-04-26T11:07:23Z</time></trkpt><trkpt lat="45.604829283000264" lon="8.012756381656612"><ele>647.0</ele><time>2026-04-26T11:07:24Z</time></trkpt><trkpt lat="45.604866169636274" lon="8.01264692228143"><ele>647.0</ele><time>2026-04-26T11:07:25Z</time></trkpt><trkpt lat="45.60492601246763" lon="8.01255329752991"><ele>647.0</ele><time>2026-04-26T11:07:26Z</time></trkpt><trkpt lat="45.6050074262936" lon="8.012467019213917"><ele>647.0</ele><time>2026-04-26T11:07:27Z</time></trkpt><trkpt lat="45.60509869860965" lon="8.012371435620476"><ele>647.0</ele><time>2026-04-26T11:07:28Z</time></trkpt><trkpt lat="45.60517274227627" lon="8.012252695994967"><ele>646.25</ele><time>2026-04-26T11:07:29Z</time></trkpt><trkpt lat="45.605217691041915" lon="8.01210889374543"><ele>645.5</ele><time>2026-04-26T11:07:30Z</time></trkpt><trkpt lat="45.60524484518465" lon="8.011960767286768"><ele>644.75</ele><time>2026-04-26T11:07:31Z</time></trkpt><trkpt lat="45.605266801166934" lon="8.01179216826718"><ele>644.0</ele><time>2026-04-26T11:07:32Z</time></trkpt><trkpt lat="45.6052914263257" lon="8.011616842615343"><ele>646.5</ele><time>2026-04-26T11:07:33Z</time></trkpt><trkpt lat="45.60531672196509" lon="8.011445823179058"><ele>649.0</ele><time>2026-04-26T11:07:34Z</time></trkpt><trkpt lat="45.60532992528682" lon="8.011286296308116"><ele>651.5</ele><time>2026-04-26T11:07:35Z</time></trkpt><trkpt lat="45.60534849003546" lon="8.011131739889887"><ele>654.0</ele><time>2026-04-26T11:07:36Z</time></trkpt><trkpt lat="45.605321530204144" lon="8.01095679571191"><ele>655.4000000000001</ele><time>2026-04-26T11:07:37Z</time></trkpt><trkpt lat="45.60527652591117" lon="8.010795792762712"><ele>656.8</ele><time>2026-04-26T11:07:38Z</time></trkpt><trkpt lat="45.60522847268058" lon="8.010640568190276"><ele>658.2</ele><time>2026-04-26T11:07:39Z</time></trkpt><trkpt lat="45.60518302584157" lon="8.010493762425108"><ele>659.5999999999999</ele><time>2026-04-26T11:07:40Z</time></trkpt><trkpt lat="45.605156347548565" lon="8.010367457960951"><ele>661.0</ele><time>2026-04-26T11:07:41Z</time></trkpt><trkpt lat="45.605136526812885" lon="8.01025890292197"><ele>661.0</ele><time>2026-04-26T11:07:42Z</time></trkpt><trkpt lat="45.60511705528062" lon="8.010154223660631"><ele>661.0</ele><time>2026-04-26T11:07:43Z</time></trkpt><trkpt lat="45.60515227832615" lon="8.010039064804031"><ele>661.0</ele><time>2026-04-26T11:07:44Z</time></trkpt><trkpt lat="45.60513980006742" lon="8.009905553950036"><ele>661.0</ele><time>2026-04-26T11:07:45Z</time></trkpt><trkpt lat="45.605159661534536" lon="8.00976388906662"><ele>661.0</ele><time>2026-04-26T11:07:46Z</time></trkpt><trkpt lat="45.605168696339334" lon="8.009605924542276"><ele>661.25</ele><time>2026-04-26T11:07:47Z</time></trkpt><trkpt lat="45.60516713577409" lon="8.009433022682032"><ele>661.5</ele><time>2026-04-26T11:07:48Z</time></trkpt><trkpt lat="45.60518374121431" lon="8.00925059482069"><ele>661.75</ele><time>2026-04-26T11:07:49Z</time></trkpt><trkpt lat="45.605195369526406" lon="8.009062065538334"><ele>662.0</ele><time>2026-04-26T11:07:50Z</time></trkpt><trkpt lat="45.60522762758146" lon="8.008886204328746"><ele>662.0</ele><time>2026-04-26T11:07:51Z</time></trkpt><trkpt lat="45.60524846207678" lon="8.008713754547859"><ele>662.0</ele><time>2026-04-26T11:07:52Z</time></trkpt><trkpt lat="45.60526568897937" lon="8.008550179536662"><ele>662.0</ele><time>2026-04-26T11:07:53Z</time></trkpt><trkpt lat="45.605268733206856" lon="8.008424496342224"><ele>662.0</ele><time>2026-04-26T11:07:54Z</time></trkpt><trkpt lat="45.60528883616118" lon="8.008326784663064"><ele>662.0</ele><time>2026-04-26T11:07:55Z</time></trkpt><trkpt lat="45.60530119541992" lon="8.008234555980973"><ele>662.6</ele><time>2026-04-26T11:07:56Z</time></trkpt><trkpt lat="45.60531003388296" lon="8.00812626404775"><ele>663.2</ele><time>2026-04-26T11:07:57Z</time></trkpt><trkpt lat="45.60534065643032" lon="8.007999756482144"><ele>663.8</ele><time>2026-04-26T11:07:58Z</time></trkpt><trkpt lat="45.60534153488248" lon="8.007842835931447"><ele>664.4</ele><time>2026-04-26T11:07:59Z</time></trkpt><trkpt lat="45.60536326671429" lon="8.00767811314818"><ele>665.0</ele><time>2026-04-26T11:08:00Z</time></trkpt><trkpt lat="45.605382919600565" lon="8.00751101188081"><ele>668.5</ele><time>2026-04-26T11:08:01Z</time></trkpt><trkpt lat="45.60540132933641" lon="8.007343234632286"><ele>672.0</ele><time>2026-04-26T11:08:02Z</time></trkpt><trkpt lat="45.60544377227109" lon="8.0071852422886"><ele>675.5</ele><time>2026-04-26T11:08:03Z</time></trkpt><trkpt lat="45.60546210127016" lon="8.007029528118426"><ele>679.0</ele><time>2026-04-26T11:08:04Z</time></trkpt><trkpt lat="45.60545933301099" lon="8.006875042984149"><ele>679.0</ele><time>2026-04-26T11:08:05Z</time></trkpt><trkpt lat="45.60547006928011" lon="8.006733884767364"><ele>679.0</ele><time>2026-04-26T11:08:06Z</time></trkpt><trkpt lat="45.6054739123568" lon="8.006605164048295"><ele>679.0</ele><time>2026-04-26T11:08:07Z</time></trkpt><trkpt lat="45.605467619657915" lon="8.006485870900184"><ele>679.0</ele><time>2026-04-26T11:08:08Z</time></trkpt><trkpt lat="45.605450885040234" lon="8.006364445577207"><ele>679.0</ele><time>2026-04-26T11:08:09Z</time></trkpt><trkpt lat="45.60545845977792" lon="8.006223296908997"><ele>681.25</ele><time>2026-04-26T11:08:10Z</time></trkpt><trkpt lat="45.60545064805814" lon="8.0060643724726"><ele>683.5</ele><time>2026-04-26T11:08:11Z</time></trkpt><trkpt lat="45.60544353282867" lon="8.005893918043713"><ele>685.75</ele><time>2026-04-26T11:08:12Z</time></trkpt><trkpt lat="45.60543743699499" lon="8.00572212214211"><ele>688.0</ele><time>2026-04-26T11:08:13Z</time></trkpt><trkpt lat="45.60543504337722" lon="8.005567142099514"><ele>688.5999999999999</ele><time>2026-04-26T11:08:14Z</time></trkpt><trkpt lat="45.605436089677376" lon="8.005440268369025"><ele>689.1999999999999</ele><time>2026-04-26T11:08:15Z</time></trkpt><trkpt lat="45.60542602763826" lon="8.005331574477154"><ele>689.8</ele><time>2026-04-26T11:08:16Z</time></trkpt><trkpt lat="45.60544029954193" lon="8.0052430537151"><ele>690.4</ele><time>2026-04-26T11:08:17Z</time></trkpt><trkpt lat="45.605435782511876" lon="8.005102955656994"><ele>691.0</ele><time>2026-04-26T11:08:19Z</time></trkpt><trkpt lat="45.60526263377254" lon="8.005034053065797"><ele>688.1999999999999</ele><time>2026-04-26T11:08:21Z</time></trkpt><trkpt lat="45.60517066495894" lon="8.005028840970041"><ele>685.4</ele><time>2026-04-26T11:08:22Z</time></trkpt><trkpt lat="45.60506973851977" lon="8.005032535686695"><ele>682.6</ele><time>2026-04-26T11:08:23Z</time></trkpt><trkpt lat="45.60495594516533" lon="8.005045925688878"><ele>679.8</ele><time>2026-04-26T11:08:24Z</time></trkpt><trkpt lat="45.60483692073402" lon="8.005078442342137"><ele>677.0</ele><time>2026-04-26T11:08:25Z</time></trkpt><trkpt lat="45.60471368692578" lon="8.005082950909728"><ele>677.0</ele><time>2026-04-26T11:08:26Z</time></trkpt><trkpt lat="45.60459255976057" lon="8.005098897400975"><ele>677.0</ele><time>2026-04-26T11:08:27Z</time></trkpt><trkpt lat="45.60447634385786" lon="8.005135904000012"><ele>677.0</ele><time>2026-04-26T11:08:28Z</time></trkpt><trkpt lat="45.60437070336026" lon="8.005237537354251"><ele>677.0</ele><time>2026-04-26T11:08:29Z</time></trkpt><trkpt lat="45.60426314359941" lon="8.005331934217548"><ele>678.6</ele><time>2026-04-26T11:08:30Z</time></trkpt><trkpt lat="45.60416136389905" lon="8.005424057684213"><ele>680.2</ele><time>2026-04-26T11:08:31Z</time></trkpt><trkpt lat="45.60405986004788" lon="8.005481756994952"><ele>681.8</ele><time>2026-04-26T11:08:32Z</time></trkpt><trkpt lat="45.60397739521138" lon="8.005562589242022"><ele>683.4</ele><time>2026-04-26T11:08:33Z</time></trkpt><trkpt lat="45.603889706846935" lon="8.005609166137804"><ele>685.0</ele><time>2026-04-26T11:08:34Z</time></trkpt><trkpt lat="45.603809740458075" lon="8.005638842733267"><ele>685.0</ele><time>2026-04-26T11:08:35Z</time></trkpt><trkpt lat="45.603736131634996" lon="8.005631100883512"><ele>685.0</ele><time>2026-04-26T11:08:36Z</time></trkpt><trkpt lat="45.60365636070268" lon="8.005598341189808"><ele>685.0</ele><time>2026-04-26T11:08:37Z</time></trkpt><trkpt lat="45.60356950882123" lon="8.00555686967738"><ele>685.0</ele><time>2026-04-26T11:08:38Z</time></trkpt><trkpt lat="45.603483212915286" lon="8.005488699505342"><ele>685.0</ele><time>2026-04-26T11:08:39Z</time></trkpt><trkpt lat="45.60338290355074" lon="8.005451900288207"><ele>687.1666666666667</ele><time>2026-04-26T11:08:40Z</time></trkpt><trkpt lat="45.6032964602428" lon="8.00540045061187"><ele>689.3333333333334</ele><time>2026-04-26T11:08:41Z</time></trkpt><trkpt lat="45.603221565059854" lon="8.005359683531665"><ele>691.5</ele><time>2026-04-26T11:08:42Z</time></trkpt><trkpt lat="45.60315748906433" lon="8.00534226695248"><ele>693.6666666666666</ele><time>2026-04-26T11:08:43Z</time></trkpt><trkpt lat="45.60308468543658" lon="8.005346795701596"><ele>695.8333333333333</ele><time>2026-04-26T11:08:44Z</time></trkpt><trkpt lat="45.603016828275656" lon="8.00538073446732"><ele>698.0</ele><time>2026-04-26T11:08:45Z</time></trkpt><trkpt lat="45.6029740870222" lon="8.005462550598814"><ele>697.9999999999999</ele><time>2026-04-26T11:08:46Z</time></trkpt><trkpt lat="45.60296860494034" lon="8.005556941642705"><ele>698.0</ele><time>2026-04-26T11:08:47Z</time></trkpt><trkpt lat="45.602969834864524" lon="8.005653567199916"><ele>698.0</ele><time>2026-04-26T11:08:48Z</time></trkpt><trkpt lat="45.60302823353445" lon="8.00572586349318"><ele>698.0</ele><time>2026-04-26T11:08:49Z</time></trkpt><trkpt lat="45.60304802848773" lon="8.005820281255524"><ele>698.0</ele><time>2026-04-26T11:08:50Z</time></trkpt><trkpt lat="45.60303311732943" lon="8.00592661027576"><ele>697.9999999999999</ele><time>2026-04-26T11:08:51Z</time></trkpt><trkpt lat="45.60299985093767" lon="8.006025353073838"><ele>698.0</ele><time>2026-04-26T11:08:52Z</time></trkpt><trkpt lat="45.602952101841524" lon="8.006104248966526"><ele>696.4285714285713</ele><time>2026-04-26T11:08:53Z</time></trkpt><trkpt lat="45.60288505148149" lon="8.006141562391"><ele>694.8571428571429</ele><time>2026-04-26T11:08:54Z</time></trkpt><trkpt lat="45.602786804208144" lon="8.006111444723267"><ele>693.2857142857142</ele><time>2026-04-26T11:08:56Z</time></trkpt><trkpt lat="45.60271897940116" lon="8.00611971147236"><ele>691.7142857142857</ele><time>2026-04-26T11:08:57Z</time></trkpt><trkpt lat="45.60265542859403" lon="8.006122354690158"><ele>690.1428571428571</ele><time>2026-04-26T11:08:58Z</time></trkpt><trkpt lat="45.60260188124452" lon="8.006176827683015"><ele>688.5714285714286</ele><time>2026-04-26T11:08:59Z</time></trkpt><trkpt lat="45.60257726412321" lon="8.006280855886725"><ele>687.0</ele><time>2026-04-26T11:09:00Z</time></trkpt><trkpt lat="45.602572416848645" lon="8.006394907598299"><ele>690.8</ele><time>2026-04-26T11:09:01Z</time></trkpt><trkpt lat="45.602570060671944" lon="8.00652294681091"><ele>694.6</ele><time>2026-04-26T11:09:02Z</time></trkpt><trkpt lat="45.602556529183225" lon="8.006642422216348"><ele>698.4</ele><time>2026-04-26T11:09:03Z</time></trkpt><trkpt lat="45.60251563769014" lon="8.00675842783792"><ele>702.1999999999999</ele><time>2026-04-26T11:09:04Z</time></trkpt><trkpt lat="45.60246769500807" lon="8.006886003428999"><ele>706.0</ele><time>2026-04-26T11:09:05Z</time></trkpt><trkpt lat="45.60242700035952" lon="8.006992735951053"><ele>706.0</ele><time>2026-04-26T11:09:06Z</time></trkpt><trkpt lat="45.60238310728816" lon="8.007078995183758"><ele>706.0</ele><time>2026-04-26T11:09:07Z</time></trkpt><trkpt lat="45.60231211097403" lon="8.007107587442762"><ele>706.0</ele><time>2026-04-26T11:09:08Z</time></trkpt><trkpt lat="45.60224620749412" lon="8.00712434625753"><ele>706.0</ele><time>2026-04-26T11:09:09Z</time></trkpt><trkpt lat="45.60214315691273" lon="8.007062161395625"><ele>706.0</ele><time>2026-04-26T11:09:11Z</time></trkpt><trkpt lat="45.60208712564696" lon="8.007002414721947"><ele>706.0</ele><time>2026-04-26T11:09:12Z</time></trkpt><trkpt lat="45.60205409993713" lon="8.006897411616235"><ele>706.8</ele><time>2026-04-26T11:09:13Z</time></trkpt><trkpt lat="45.601984592460106" lon="8.00680410276465"><ele>707.5999999999999</ele><time>2026-04-26T11:09:14Z</time></trkpt><trkpt lat="45.60190640283265" lon="8.006720865022046"><ele>708.4</ele><time>2026-04-26T11:09:15Z</time></trkpt><trkpt lat="45.60182364977405" lon="8.006662880193124"><ele>709.2</ele><time>2026-04-26T11:09:16Z</time></trkpt><trkpt lat="45.60172006553937" lon="8.006656861758481"><ele>710.0</ele><time>2026-04-26T11:09:17Z</time></trkpt><trkpt lat="45.60161100637629" lon="8.00666119164339"><ele>712.4</ele><time>2026-04-26T11:09:18Z</time></trkpt><trkpt lat="45.60151279026854" lon="8.006634997390584"><ele>714.8</ele><time>2026-04-26T11:09:19Z</time></trkpt><trkpt lat="45.601416820240345" lon="8.006606959646767"><ele>717.2</ele><time>2026-04-26T11:09:20Z</time></trkpt><trkpt lat="45.60132290965687" lon="8.006570720384502"><ele>719.6</ele><time>2026-04-26T11:09:21Z</time></trkpt><trkpt lat="45.60123332860283" lon="8.006523767550691"><ele>722.0</ele><time>2026-04-26T11:09:22Z</time></trkpt><trkpt lat="45.60116110873259" lon="8.006451029498917"><ele>722.4000000000001</ele><time>2026-04-26T11:09:23Z</time></trkpt><trkpt lat="45.601090253819955" lon="8.006361314205142"><ele>722.8000000000001</ele><time>2026-04-26T11:09:24Z</time></trkpt><trkpt lat="45.60101633314987" lon="8.00626014608871"><ele>723.2</ele><time>2026-04-26T11:09:25Z</time></trkpt><trkpt lat="45.60094623305314" lon="8.006148148653526"><ele>723.6</ele><time>2026-04-26T11:09:26Z</time></trkpt><trkpt lat="45.60087749011087" lon="8.006030460035594"><ele>724.0</ele><time>2026-04-26T11:09:27Z</time></trkpt><trkpt lat="45.60081026440118" lon="8.005927291934091"><ele>724.0</ele><time>2026-04-26T11:09:28Z</time></trkpt><trkpt lat="45.60073514526325" lon="8.005850342333781"><ele>724.0</ele><time>2026-04-26T11:09:29Z</time></trkpt><trkpt lat="45.6006584575159" lon="8.005786446188221"><ele>724.0</ele><time>2026-04-26T11:09:30Z</time></trkpt><trkpt lat="45.600578724972955" lon="8.005738686259173"><ele>724.0</ele><time>2026-04-26T11:09:31Z</time></trkpt><trkpt lat="45.60049623390259" lon="8.00572054148053"><ele>724.0</ele><time>2026-04-26T11:09:32Z</time></trkpt><trkpt lat="45.60041267955355" lon="8.005745873153998"><ele>724.0</ele><time>2026-04-26T11:09:33Z</time></trkpt><trkpt lat="45.600330351556146" lon="8.005825256128366"><ele>725.0</ele><time>2026-04-26T11:09:34Z</time></trkpt><trkpt lat="45.60025314251603" lon="8.00593388997993"><ele>726.0</ele><time>2026-04-26T11:09:35Z</time></trkpt><trkpt lat="45.600179486888784" lon="8.00606113844652"><ele>727.0</ele><time>2026-04-26T11:09:36Z</time></trkpt><trkpt lat="45.60010447804584" lon="8.006187073498385"><ele>728.0</ele><time>2026-04-26T11:09:37Z</time></trkpt><trkpt lat="45.6000368322741" lon="8.006285474654808"><ele>729.0</ele><time>2026-04-26T11:09:38Z</time></trkpt><trkpt lat="45.59997495436403" lon="8.006359328521864"><ele>729.0</ele><time>2026-04-26T11:09:39Z</time></trkpt><trkpt lat="45.599918259604415" lon="8.006407260648864"><ele>729.0</ele><time>2026-04-26T11:09:40Z</time></trkpt><trkpt lat="45.59980960104242" lon="8.006374598348064"><ele>729.0</ele><time>2026-04-26T11:09:42Z</time></trkpt><trkpt lat="45.599781255554724" lon="8.006276643543508"><ele>729.0</ele><time>2026-04-26T11:09:43Z</time></trkpt><trkpt lat="45.59975014295637" lon="8.006190684775074"><ele>729.0</ele><time>2026-04-26T11:09:44Z</time></trkpt><trkpt lat="45.599760458172575" lon="8.006005415819333"><ele>729.0</ele><time>2026-04-26T11:09:46Z</time></trkpt><trkpt lat="45.59976770484759" lon="8.005914483471974"><ele>731.8000000000001</ele><time>2026-04-26T11:09:47Z</time></trkpt><trkpt lat="45.599712046378386" lon="8.005813575421845"><ele>734.6</ele><time>2026-04-26T11:09:48Z</time></trkpt><trkpt lat="45.59965287249294" lon="8.005706741626968"><ele>737.4</ele><time>2026-04-26T11:09:49Z</time></trkpt><trkpt lat="45.59958886449645" lon="8.005596036986642"><ele>740.2</ele><time>2026-04-26T11:09:50Z</time></trkpt><trkpt lat="45.59952806848263" lon="8.00549142906636"><ele>743.0</ele><time>2026-04-26T11:09:51Z</time></trkpt><trkpt lat="45.59945872774834" lon="8.00540317492738"><ele>744.0</ele><time>2026-04-26T11:09:52Z</time></trkpt><trkpt lat="45.599393988069004" lon="8.00532058052241"><ele>745.0</ele><time>2026-04-26T11:09:53Z</time></trkpt><trkpt lat="45.599338151533594" lon="8.005249344656667"><ele>746.0</ele><time>2026-04-26T11:09:54Z</time></trkpt><trkpt lat="45.59929313330794" lon="8.005104645968169"><ele>747.0</ele><time>2026-04-26T11:09:56Z</time></trkpt><trkpt lat="45.599360554445845" lon="8.005009814070098"><ele>748.0</ele><time>2026-04-26T11:09:58Z</time></trkpt><trkpt lat="45.59942210471265" lon="8.004987303719467"><ele>749.0</ele><time>2026-04-26T11:09:59Z</time></trkpt><trkpt lat="45.59947110700748" lon="8.004894761750764"><ele>749.0</ele><time>2026-04-26T11:10:01Z</time></trkpt><trkpt lat="45.59938523604688" lon="8.004824872747587"><ele>749.0</ele><time>2026-04-26T11:10:14Z</time></trkpt><trkpt lat="45.59927684199113" lon="8.004880013928247"><ele>749.0</ele><time>2026-04-26T11:10:16Z</time></trkpt><trkpt lat="45.59921338716831" lon="8.00492597840112"><ele>749.0</ele><time>2026-04-26T11:10:17Z</time></trkpt><trkpt lat="45.59914934112753" lon="8.004993364146955"><ele>749.0</ele><time>2026-04-26T11:10:18Z</time></trkpt><trkpt lat="45.599094422788376" lon="8.005088883511334"><ele>749.0</ele><time>2026-04-26T11:10:19Z</time></trkpt><trkpt lat="45.599056058497816" lon="8.005185366797999"><ele>749.0</ele><time>2026-04-26T11:10:20Z</time></trkpt><trkpt lat="45.599012851044506" lon="8.00527520386774"><ele>749.0</ele><time>2026-04-26T11:10:21Z</time></trkpt><trkpt lat="45.59897311755855" lon="8.005360222464581"><ele>749.0</ele><time>2026-04-26T11:10:22Z</time></trkpt><trkpt lat="45.59893626216821" lon="8.005526146756075"><ele>749.0</ele><time>2026-04-26T11:10:24Z</time></trkpt><trkpt lat="45.59895528529427" lon="8.005631709698468"><ele>749.0</ele><time>2026-04-26T11:10:25Z</time></trkpt><trkpt lat="45.59900465043102" lon="8.005734928542877"><ele>748.6666666666666</ele><time>2026-04-26T11:10:26Z</time></trkpt><trkpt lat="45.59906132429454" lon="8.005831115535871"><ele>748.3333333333333</ele><time>2026-04-26T11:10:27Z</time></trkpt><trkpt lat="45.59910839929447" lon="8.00591805861888"><ele>748.0</ele><time>2026-04-26T11:10:28Z</time></trkpt><trkpt lat="45.59912477661179" lon="8.006014503302522"><ele>747.6666666666666</ele><time>2026-04-26T11:10:29Z</time></trkpt><trkpt lat="45.59911409911379" lon="8.006116465165135"><ele>747.3333333333334</ele><time>2026-04-26T11:10:30Z</time></trkpt><trkpt lat="45.59909206221544" lon="8.006221388777389"><ele>747.0</ele><time>2026-04-26T11:10:31Z</time></trkpt><trkpt lat="45.599070457335436" lon="8.006330374768952"><ele>747.0</ele><time>2026-04-26T11:10:32Z</time></trkpt><trkpt lat="45.599046965606824" lon="8.00644823625426"><ele>747.0</ele><time>2026-04-26T11:10:33Z</time></trkpt><trkpt lat="45.59903033109081" lon="8.006571131534077"><ele>747.0</ele><time>2026-04-26T11:10:34Z</time></trkpt><trkpt lat="45.59901798715771" lon="8.006675002256909"><ele>747.0</ele><time>2026-04-26T11:10:35Z</time></trkpt><trkpt lat="45.59901359728411" lon="8.006792123482075"><ele>747.0</ele><time>2026-04-26T11:10:36Z</time></trkpt><trkpt lat="45.59896652610177" lon="8.006924529890913"><ele>747.0</ele><time>2026-04-26T11:10:38Z</time></trkpt><trkpt lat="45.5988842999323" lon="8.007063800560843"><ele>747.3333333333334</ele><time>2026-04-26T11:10:40Z</time></trkpt><trkpt lat="45.598827676375485" lon="8.007147035775626"><ele>747.6666666666666</ele><time>2026-04-26T11:10:41Z</time></trkpt><trkpt lat="45.5987685796353" lon="8.00723442433676"><ele>748.0</ele><time>2026-04-26T11:10:42Z</time></trkpt><trkpt lat="45.598709210398354" lon="8.007310484022293"><ele>748.3333333333333</ele><time>2026-04-26T11:10:43Z</time></trkpt><trkpt lat="45.598639935014006" lon="8.007377380809485"><ele>748.6666666666666</ele><time>2026-04-26T11:10:44Z</time></trkpt><trkpt lat="45.598573520547234" lon="8.007443747602462"><ele>749.0</ele><time>2026-04-26T11:10:45Z</time></trkpt><trkpt lat="45.59850943643436" lon="8.007517090269062"><ele>751.3333333333333</ele><time>2026-04-26T11:10:46Z</time></trkpt><trkpt lat="45.5984548441142" lon="8.007568363010483"><ele>753.6666666666666</ele><time>2026-04-26T11:10:47Z</time></trkpt><trkpt lat="45.5983928792737" lon="8.007644029314216"><ele>756.0</ele><time>2026-04-26T11:10:49Z</time></trkpt><trkpt lat="45.598346270441496" lon="8.007716740269945"><ele>758.3333333333334</ele><time>2026-04-26T11:10:51Z</time></trkpt><trkpt lat="45.5982504270018" lon="8.007667711624523"><ele>760.6666666666667</ele><time>2026-04-26T11:10:52Z</time></trkpt><trkpt lat="45.598190191771614" lon="8.007755472801799"><ele>763.0</ele><time>2026-04-26T11:11:00Z</time></trkpt><trkpt lat="45.59814852587323" lon="8.007828169867485"><ele>763.0</ele><time>2026-04-26T11:11:01Z</time></trkpt><trkpt lat="45.59811815128195" lon="8.007907131757168"><ele>763.0</ele><time>2026-04-26T11:11:02Z</time></trkpt><trkpt lat="45.59806890149714" lon="8.00803414182353"><ele>763.0</ele><time>2026-04-26T11:11:04Z</time></trkpt><trkpt lat="45.598023594938056" lon="8.008147374630944"><ele>763.0</ele><time>2026-04-26T11:11:06Z</time></trkpt><trkpt lat="45.59797682255148" lon="8.008257884378427"><ele>763.0</ele><time>2026-04-26T11:11:25Z</time></trkpt><trkpt lat="45.59803236273705" lon="8.008126658895002"><ele>763.0</ele><time>2026-04-26T11:11:39Z</time></trkpt><trkpt lat="45.59809455949689" lon="8.007967971627558"><ele>763.0</ele><time>2026-04-26T11:11:41Z</time></trkpt><trkpt lat="45.598131062628205" lon="8.007873833742671"><ele>763.0</ele><time>2026-04-26T11:11:42Z</time></trkpt><trkpt lat="45.598166600178764" lon="8.007782185658261"><ele>763.0</ele><time>2026-04-26T11:11:43Z</time></trkpt><trkpt lat="45.598206228966234" lon="8.007679986534587"><ele>763.0</ele><time>2026-04-26T11:11:44Z</time></trkpt><trkpt lat="45.59829972788372" lon="8.007627164311028"><ele>764.2</ele><time>2026-04-26T11:11:45Z</time></trkpt><trkpt lat="45.59837893866532" lon="8.007468810454059"><ele>765.4</ele><time>2026-04-26T11:11:46Z</time></trkpt><trkpt lat="45.598434182336" lon="8.007363307295595"><ele>766.6</ele><time>2026-04-26T11:11:47Z</time></trkpt><trkpt lat="45.598489357677664" lon="8.007278821707816"><ele>767.8000000000001</ele><time>2026-04-26T11:11:48Z</time></trkpt><trkpt lat="45.5985375503817" lon="8.007201117372977"><ele>769.0</ele><time>2026-04-26T11:11:49Z</time></trkpt><trkpt lat="45.59858175239537" lon="8.007124306444576"><ele>769.0</ele><time>2026-04-26T11:11:50Z</time></trkpt><trkpt lat="45.59862483240443" lon="8.007053122040372"><ele>769.0</ele><time>2026-04-26T11:11:51Z</time></trkpt><trkpt lat="45.59867033455287" lon="8.00698643196839"><ele>769.0</ele><time>2026-04-26T11:11:52Z</time></trkpt><trkpt lat="45.59870880239811" lon="8.00690549724734"><ele>769.0</ele><time>2026-04-26T11:11:53Z</time></trkpt><trkpt lat="45.59874295028034" lon="8.006809732390456"><ele>769.0</ele><time>2026-04-26T11:11:54Z</time></trkpt><trkpt lat="45.59877535767745" lon="8.006712782683842"><ele>769.0</ele><time>2026-04-26T11:11:55Z</time></trkpt><trkpt lat="45.5988076160966" lon="8.006604180697652"><ele>769.0</ele><time>2026-04-26T11:11:56Z</time></trkpt><trkpt lat="45.598842581851876" lon="8.006499160349648"><ele>765.6666666666666</ele><time>2026-04-26T11:11:57Z</time></trkpt><trkpt lat="45.59886808303944" lon="8.006385905728502"><ele>762.3333333333333</ele><time>2026-04-26T11:11:58Z</time></trkpt><trkpt lat="45.59888148353056" lon="8.006272711997811"><ele>759.0</ele><time>2026-04-26T11:11:59Z</time></trkpt><trkpt lat="45.59888305548634" lon="8.006159737967941"><ele>755.6666666666666</ele><time>2026-04-26T11:12:00Z</time></trkpt><trkpt lat="45.59886517270546" lon="8.006041827426797"><ele>752.3333333333333</ele><time>2026-04-26T11:12:01Z</time></trkpt><trkpt lat="45.598831356406066" lon="8.005923660824765"><ele>749.0</ele><time>2026-04-26T11:12:02Z</time></trkpt><trkpt lat="45.59878749951034" lon="8.005805030095946"><ele>749.0</ele><time>2026-04-26T11:12:03Z</time></trkpt><trkpt lat="45.59873712897409" lon="8.005675799587324"><ele>749.0</ele><time>2026-04-26T11:12:04Z</time></trkpt><trkpt lat="45.59868414036231" lon="8.005545304206318"><ele>749.0</ele><time>2026-04-26T11:12:05Z</time></trkpt><trkpt lat="45.59863275814263" lon="8.005404244995509"><ele>749.0</ele><time>2026-04-26T11:12:06Z</time></trkpt><trkpt lat="45.59858709369854" lon="8.005261509688413"><ele>749.0</ele><time>2026-04-26T11:12:07Z</time></trkpt><trkpt lat="45.598557756161625" lon="8.005118816362623"><ele>752.4000000000001</ele><time>2026-04-26T11:12:08Z</time></trkpt><trkpt lat="45.59852864635171" lon="8.004980033715977"><ele>755.8</ele><time>2026-04-26T11:12:09Z</time></trkpt><trkpt lat="45.59849575243238" lon="8.004847577852075"><ele>759.2</ele><time>2026-04-26T11:12:10Z</time></trkpt><trkpt lat="45.59845295251476" lon="8.004724622810837"><ele>762.5999999999999</ele><time>2026-04-26T11:12:11Z</time></trkpt><trkpt lat="45.59840093366329" lon="8.004605718638322"><ele>766.0</ele><time>2026-04-26T11:12:12Z</time></trkpt><trkpt lat="45.59833597526372" lon="8.004496821946404"><ele>766.0</ele><time>2026-04-26T11:12:13Z</time></trkpt><trkpt lat="45.5982621490731" lon="8.004406205249783"><ele>766.0</ele><time>2026-04-26T11:12:14Z</time></trkpt><trkpt lat="45.59820449032319" lon="8.004307232766829"><ele>766.0</ele><time>2026-04-26T11:12:15Z</time></trkpt><trkpt lat="45.59815281625606" lon="8.004219645784309"><ele>766.0</ele><time>2026-04-26T11:12:16Z</time></trkpt><trkpt lat="45.59812506754672" lon="8.004073289993972"><ele>766.0</ele><time>2026-04-26T11:12:18Z</time></trkpt><trkpt lat="45.59813651488988" lon="8.003890369884564"><ele>766.8</ele><time>2026-04-26T11:12:20Z</time></trkpt><trkpt lat="45.59820805370274" lon="8.003810516412118"><ele>767.5999999999999</ele><time>2026-04-26T11:12:21Z</time></trkpt><trkpt lat="45.59826366280388" lon="8.003715183526202"><ele>768.4</ele><time>2026-04-26T11:12:22Z</time></trkpt><trkpt lat="45.59832628446589" lon="8.003637113440655"><ele>769.2</ele><time>2026-04-26T11:12:23Z</time></trkpt><trkpt lat="45.5984167329825" lon="8.003610970664548"><ele>770.0</ele><time>2026-04-26T11:12:24Z</time></trkpt><trkpt lat="45.59851724119013" lon="8.003622250541635"><ele>770.0</ele><time>2026-04-26T11:12:25Z</time></trkpt><trkpt lat="45.59863730930343" lon="8.00361639093905"><ele>770.0</ele><time>2026-04-26T11:12:26Z</time></trkpt><trkpt lat="45.59877411955071" lon="8.003599233498983"><ele>770.0</ele><time>2026-04-26T11:12:27Z</time></trkpt><trkpt lat="45.59892481530115" lon="8.003554361311249"><ele>770.0</ele><time>2026-04-26T11:12:28Z</time></trkpt><trkpt lat="45.59906856446305" lon="8.003526826343538"><ele>771.8</ele><time>2026-04-26T11:12:29Z</time></trkpt><trkpt lat="45.59920573444658" lon="8.003498649434578"><ele>773.6</ele><time>2026-04-26T11:12:30Z</time></trkpt><trkpt lat="45.599322402660896" lon="8.003472473477862"><ele>775.4000000000001</ele><time>2026-04-26T11:12:31Z</time></trkpt><trkpt lat="45.599423393185" lon="8.003450265416607"><ele>777.2</ele><time>2026-04-26T11:12:32Z</time></trkpt><trkpt lat="45.59951198075081" lon="8.003458630676512"><ele>779.0</ele><time>2026-04-26T11:12:33Z</time></trkpt><trkpt lat="45.59958307497582" lon="8.00352569188302"><ele>781.0</ele><time>2026-04-26T11:12:34Z</time></trkpt><trkpt lat="45.59962866263935" lon="8.003627692232106"><ele>783.0</ele><time>2026-04-26T11:12:35Z</time></trkpt><trkpt lat="45.59967054749218" lon="8.003743726791011"><ele>785.0</ele><time>2026-04-26T11:12:36Z</time></trkpt><trkpt lat="45.59973734978384" lon="8.00384150362078"><ele>787.0</ele><time>2026-04-26T11:12:37Z</time></trkpt><trkpt lat="45.599828722845125" lon="8.003910391831125"><ele>789.0</ele><time>2026-04-26T11:12:38Z</time></trkpt><trkpt lat="45.59992893056089" lon="8.003942008389416"><ele>789.0</ele><time>2026-04-26T11:12:39Z</time></trkpt><trkpt lat="45.60003357328018" lon="8.00394530257154"><ele>789.0</ele><time>2026-04-26T11:12:40Z</time></trkpt><trkpt lat="45.60013846652098" lon="8.003911770670292"><ele>789.0</ele><time>2026-04-26T11:12:41Z</time></trkpt><trkpt lat="45.600225255145524" lon="8.003828286162681"><ele>789.0</ele><time>2026-04-26T11:12:42Z</time></trkpt><trkpt lat="45.60030146805657" lon="8.00372172715821"><ele>789.0</ele><time>2026-04-26T11:12:43Z</time></trkpt><trkpt lat="45.600313730574214" lon="8.003556860941215"><ele>791.0</ele><time>2026-04-26T11:12:44Z</time></trkpt><trkpt lat="45.60033584306787" lon="8.003398069564211"><ele>793.0</ele><time>2026-04-26T11:12:45Z</time></trkpt><trkpt lat="45.600322081527125" lon="8.003237948075963"><ele>795.0</ele><time>2026-04-26T11:12:46Z</time></trkpt><trkpt lat="45.600267321147484" lon="8.003090604695089"><ele>797.0</ele><time>2026-04-26T11:12:47Z</time></trkpt><trkpt lat="45.60017303430948" lon="8.00299006041161"><ele>797.0</ele><time>2026-04-26T11:12:48Z</time></trkpt><trkpt lat="45.600120709900175" lon="8.002862379247993"><ele>797.0</ele><time>2026-04-26T11:12:49Z</time></trkpt><trkpt lat="45.600103858650606" lon="8.00273377803826"><ele>797.0</ele><time>2026-04-26T11:12:50Z</time></trkpt><trkpt lat="45.600086990514285" lon="8.002578558551493"><ele>797.0</ele><time>2026-04-26T11:12:51Z</time></trkpt><trkpt lat="45.600095251616075" lon="8.002400083957832"><ele>797.0</ele><time>2026-04-26T11:12:52Z</time></trkpt><trkpt lat="45.600092226471" lon="8.002215232883973"><ele>799.5</ele><time>2026-04-26T11:12:53Z</time></trkpt><trkpt lat="45.60007198860156" lon="8.002022680307853"><ele>802.0</ele><time>2026-04-26T11:12:54Z</time></trkpt><trkpt lat="45.600029679908" lon="8.001834952568498"><ele>804.5</ele><time>2026-04-26T11:12:55Z</time></trkpt><trkpt lat="45.599989662559935" lon="8.001648950091877"><ele>807.0</ele><time>2026-04-26T11:12:56Z</time></trkpt><trkpt lat="45.59993730351483" lon="8.001490829902453"><ele>810.0</ele><time>2026-04-26T11:12:57Z</time></trkpt><trkpt lat="45.59988159662077" lon="8.00135833466133"><ele>813.0</ele><time>2026-04-26T11:12:58Z</time></trkpt><trkpt lat="45.599850224388135" lon="8.001230910785429"><ele>816.0</ele><time>2026-04-26T11:12:59Z</time></trkpt><trkpt lat="45.59982737179728" lon="8.001115451430037"><ele>819.0</ele><time>2026-04-26T11:13:00Z</time></trkpt><trkpt lat="45.59981442162123" lon="8.000997368783489"><ele>822.0</ele><time>2026-04-26T11:13:01Z</time></trkpt><trkpt lat="45.59981045767784" lon="8.0008789396296"><ele>825.4000000000001</ele><time>2026-04-26T11:13:02Z</time></trkpt><trkpt lat="45.59983158362189" lon="8.000758854261516"><ele>828.8000000000001</ele><time>2026-04-26T11:13:03Z</time></trkpt><trkpt lat="45.599874895522646" lon="8.00063041268033"><ele>832.2</ele><time>2026-04-26T11:13:04Z</time></trkpt><trkpt lat="45.599924922204366" lon="8.000489606942967"><ele>835.6</ele><time>2026-04-26T11:13:05Z</time></trkpt><trkpt lat="45.59996871284844" lon="8.00033439737139"><ele>839.0</ele><time>2026-04-26T11:13:06Z</time></trkpt><trkpt lat="45.5999927040991" lon="8.000168815176865"><ele>839.0</ele><time>2026-04-26T11:13:07Z</time></trkpt><trkpt lat="45.60001752141548" lon="8.000007624384935"><ele>839.0</ele><time>2026-04-26T11:13:08Z</time></trkpt><trkpt lat="45.60002435435546" lon="7.999854909093229"><ele>839.0</ele><time>2026-04-26T11:13:09Z</time></trkpt><trkpt lat="45.60007792957597" lon="7.999725074537462"><ele>839.0</ele><time>2026-04-26T11:13:10Z</time></trkpt><trkpt lat="45.600160445891916" lon="7.999645713475302"><ele>839.0</ele><time>2026-04-26T11:13:11Z</time></trkpt><trkpt lat="45.60025485104706" lon="7.9996239067696715"><ele>838.4000000000001</ele><time>2026-04-26T11:13:12Z</time></trkpt><trkpt lat="45.60034984015792" lon="7.999669171903316"><ele>837.8</ele><time>2026-04-26T11:13:13Z</time></trkpt><trkpt lat="45.60044543279533" lon="7.999764202453094"><ele>837.2</ele><time>2026-04-26T11:13:14Z</time></trkpt><trkpt lat="45.60052633388733" lon="7.999866198023984"><ele>836.5999999999999</ele><time>2026-04-26T11:13:15Z</time></trkpt><trkpt lat="45.60061250398289" lon="7.999939105888935"><ele>836.0</ele><time>2026-04-26T11:13:16Z</time></trkpt><trkpt lat="45.60072184144077" lon="7.999976325659311"><ele>836.0</ele><time>2026-04-26T11:13:17Z</time></trkpt><trkpt lat="45.60084255912798" lon="7.999969769131308"><ele>836.0</ele><time>2026-04-26T11:13:18Z</time></trkpt><trkpt lat="45.600959168732736" lon="7.999922211925182"><ele>836.0</ele><time>2026-04-26T11:13:19Z</time></trkpt><trkpt lat="45.601060326157516" lon="7.999828647843543"><ele>836.0</ele><time>2026-04-26T11:13:20Z</time></trkpt><trkpt lat="45.60114229496078" lon="7.99969564168936"><ele>834.25</ele><time>2026-04-26T11:13:21Z</time></trkpt><trkpt lat="45.60121280324211" lon="7.9995287466466705"><ele>832.5</ele><time>2026-04-26T11:13:22Z</time></trkpt><trkpt lat="45.601297253709575" lon="7.999370731253653"><ele>830.75</ele><time>2026-04-26T11:13:23Z</time></trkpt><trkpt lat="45.60134909185957" lon="7.9991985604556435"><ele>829.0</ele><time>2026-04-26T11:13:24Z</time></trkpt><trkpt lat="45.60139951157109" lon="7.99903775144941"><ele>833.25</ele><time>2026-04-26T11:13:25Z</time></trkpt><trkpt lat="45.6014098895278" lon="7.998865889926368"><ele>837.5</ele><time>2026-04-26T11:13:26Z</time></trkpt><trkpt lat="45.60141286748104" lon="7.998692669357362"><ele>841.75</ele><time>2026-04-26T11:13:27Z</time></trkpt><trkpt lat="45.601405059809444" lon="7.998533696137857"><ele>846.0</ele><time>2026-04-26T11:13:28Z</time></trkpt><trkpt lat="45.60141835269467" lon="7.998394313618668"><ele>850.0</ele><time>2026-04-26T11:13:29Z</time></trkpt><trkpt lat="45.6014726656126" lon="7.998288328404027"><ele>854.0</ele><time>2026-04-26T11:13:30Z</time></trkpt><trkpt lat="45.60153123010042" lon="7.998184686589719"><ele>857.9999999999999</ele><time>2026-04-26T11:13:31Z</time></trkpt><trkpt lat="45.601593666959964" lon="7.9980725876385375"><ele>862.0</ele><time>2026-04-26T11:13:32Z</time></trkpt><trkpt lat="45.60168566704489" lon="7.998009155100383"><ele>866.0</ele><time>2026-04-26T11:13:33Z</time></trkpt><trkpt lat="45.601786828469976" lon="7.997997657237106"><ele>866.0</ele><time>2026-04-26T11:13:34Z</time></trkpt><trkpt lat="45.601899821717474" lon="7.998020771787374"><ele>865.9999999999999</ele><time>2026-04-26T11:13:35Z</time></trkpt><trkpt lat="45.602017187305925" lon="7.998057427413898"><ele>865.9999999999999</ele><time>2026-04-26T11:13:36Z</time></trkpt><trkpt lat="45.602123143020364" lon="7.998111291664688"><ele>866.0</ele><time>2026-04-26T11:13:37Z</time></trkpt><trkpt lat="45.6021929746107" lon="7.998167325968139"><ele>866.0</ele><time>2026-04-26T11:13:38Z</time></trkpt><trkpt lat="45.6022793811392" lon="7.998187761172365"><ele>864.8</ele><time>2026-04-26T11:13:39Z</time></trkpt><trkpt lat="45.60236974875058" lon="7.998138664570493"><ele>863.5999999999999</ele><time>2026-04-26T11:13:40Z</time></trkpt><trkpt lat="45.60244490674464" lon="7.99806360483188"><ele>862.4</ele><time>2026-04-26T11:13:41Z</time></trkpt><trkpt lat="45.60249482142764" lon="7.997930433171512"><ele>861.2</ele><time>2026-04-26T11:13:42Z</time></trkpt><trkpt lat="45.6024935970086" lon="7.997764634323124"><ele>860.0</ele><time>2026-04-26T11:13:43Z</time></trkpt><trkpt lat="45.602484135558136" lon="7.997602108475611"><ele>863.6</ele><time>2026-04-26T11:13:44Z</time></trkpt><trkpt lat="45.6024817806101" lon="7.997443727457839"><ele>867.2</ele><time>2026-04-26T11:13:45Z</time></trkpt><trkpt lat="45.60249628692358" lon="7.997300642668911"><ele>870.8</ele><time>2026-04-26T11:13:46Z</time></trkpt><trkpt lat="45.602549362421385" lon="7.997206584472599"><ele>874.4</ele><time>2026-04-26T11:13:47Z</time></trkpt><trkpt lat="45.60260951152393" lon="7.997097529756654"><ele>878.0</ele><time>2026-04-26T11:13:48Z</time></trkpt><trkpt lat="45.60266758435276" lon="7.996984766016305"><ele>878.0</ele><time>2026-04-26T11:13:49Z</time></trkpt><trkpt lat="45.60272289749675" lon="7.99690099357156"><ele>878.0</ele><time>2026-04-26T11:13:50Z</time></trkpt><trkpt lat="45.602810578343096" lon="7.996839918724565"><ele>878.0</ele><time>2026-04-26T11:13:51Z</time></trkpt><trkpt lat="45.60293209001754" lon="7.996809306795083"><ele>878.0</ele><time>2026-04-26T11:13:52Z</time></trkpt><trkpt lat="45.60306125301093" lon="7.996787306931392"><ele>878.0</ele><time>2026-04-26T11:13:53Z</time></trkpt><trkpt lat="45.603193334774055" lon="7.996764944962265"><ele>880.5</ele><time>2026-04-26T11:13:54Z</time></trkpt><trkpt lat="45.603318951242095" lon="7.996731942972938"><ele>883.0</ele><time>2026-04-26T11:13:55Z</time></trkpt><trkpt lat="45.603433494218756" lon="7.996674867560548"><ele>885.5</ele><time>2026-04-26T11:13:56Z</time></trkpt><trkpt lat="45.60353023958544" lon="7.99656607008346"><ele>888.0</ele><time>2026-04-26T11:13:57Z</time></trkpt><trkpt lat="45.603610015524666" lon="7.996424610817653"><ele>889.25</ele><time>2026-04-26T11:13:58Z</time></trkpt><trkpt lat="45.60369182655539" lon="7.9962740580132285"><ele>890.5</ele><time>2026-04-26T11:13:59Z</time></trkpt><trkpt lat="45.60377995004463" lon="7.99611399218115"><ele>891.75</ele><time>2026-04-26T11:14:00Z</time></trkpt><trkpt lat="45.603870469691714" lon="7.995952176672325"><ele>893.0</ele><time>2026-04-26T11:14:01Z</time></trkpt><trkpt lat="45.60395388225244" lon="7.995801594337238"><ele>893.0</ele><time>2026-04-26T11:14:02Z</time></trkpt><trkpt lat="45.604038860588325" lon="7.99564342569536"><ele>893.0</ele><time>2026-04-26T11:14:03Z</time></trkpt><trkpt lat="45.60412558118145" lon="7.99548778135196"><ele>893.0</ele><time>2026-04-26T11:14:04Z</time></trkpt><trkpt lat="45.60420709579207" lon="7.995337645495543"><ele>893.0</ele><time>2026-04-26T11:14:05Z</time></trkpt><trkpt lat="45.60428333076687" lon="7.995192946399712"><ele>893.0</ele><time>2026-04-26T11:14:06Z</time></trkpt><trkpt lat="45.604357794312754" lon="7.995052109046286"><ele>893.0</ele><time>2026-04-26T11:14:07Z</time></trkpt><trkpt lat="45.60440213514391" lon="7.994894420258956"><ele>893.0</ele><time>2026-04-26T11:14:08Z</time></trkpt><trkpt lat="45.60442180077818" lon="7.994734897662976"><ele>893.0</ele><time>2026-04-26T11:14:09Z</time></trkpt><trkpt lat="45.60444733718137" lon="7.994595766388666"><ele>893.8</ele><time>2026-04-26T11:14:10Z</time></trkpt><trkpt lat="45.60448626434524" lon="7.994474844877084"><ele>894.5999999999999</ele><time>2026-04-26T11:14:11Z</time></trkpt><trkpt lat="45.60456916588152" lon="7.9943933677555234"><ele>895.4000000000001</ele><time>2026-04-26T11:14:12Z</time></trkpt><trkpt lat="45.60465861572012" lon="7.994338105968773"><ele>896.2</ele><time>2026-04-26T11:14:13Z</time></trkpt><trkpt lat="45.60475385824067" lon="7.994302864233043"><ele>897.0</ele><time>2026-04-26T11:14:14Z</time></trkpt><trkpt lat="45.604853200371366" lon="7.994279075640534"><ele>897.0</ele><time>2026-04-26T11:14:15Z</time></trkpt><trkpt lat="45.60495411016138" lon="7.994282090428338"><ele>897.0</ele><time>2026-04-26T11:14:16Z</time></trkpt><trkpt lat="45.60505322920045" lon="7.994317876170815"><ele>897.0</ele><time>2026-04-26T11:14:17Z</time></trkpt><trkpt lat="45.605155462987966" lon="7.994353136758084"><ele>897.0</ele><time>2026-04-26T11:14:18Z</time></trkpt><trkpt lat="45.60526718685997" lon="7.994364833326881"><ele>897.0</ele><time>2026-04-26T11:14:19Z</time></trkpt><trkpt lat="45.60538960202732" lon="7.994351830042646"><ele>896.25</ele><time>2026-04-26T11:14:20Z</time></trkpt><trkpt lat="45.60551435685698" lon="7.994312830510948"><ele>895.5</ele><time>2026-04-26T11:14:21Z</time></trkpt><trkpt lat="45.605627619443624" lon="7.994241857233633"><ele>894.75</ele><time>2026-04-26T11:14:22Z</time></trkpt><trkpt lat="45.60573254737884" lon="7.9941613384854024"><ele>894.0</ele><time>2026-04-26T11:14:23Z</time></trkpt><trkpt lat="45.60583011181138" lon="7.994073495656938"><ele>900.25</ele><time>2026-04-26T11:14:24Z</time></trkpt><trkpt lat="45.60591652855323" lon="7.993965692625684"><ele>906.5</ele><time>2026-04-26T11:14:25Z</time></trkpt><trkpt lat="45.60598998742488" lon="7.993821183820202"><ele>912.75</ele><time>2026-04-26T11:14:26Z</time></trkpt><trkpt lat="45.6060617545897" lon="7.993648247894562"><ele>919.0</ele><time>2026-04-26T11:14:27Z</time></trkpt><trkpt lat="45.60613605638418" lon="7.9934649302600995"><ele>916.6666666666666</ele><time>2026-04-26T11:14:28Z</time></trkpt><trkpt lat="45.606229260190794" lon="7.993295451559081"><ele>914.3333333333333</ele><time>2026-04-26T11:14:29Z</time></trkpt><trkpt lat="45.60631177428469" lon="7.993111256442591"><ele>912.0</ele><time>2026-04-26T11:14:30Z</time></trkpt><trkpt lat="45.606378249341745" lon="7.992918312332347"><ele>912.0</ele><time>2026-04-26T11:14:31Z</time></trkpt><trkpt lat="45.60645748709001" lon="7.9927441367842675"><ele>912.0</ele><time>2026-04-26T11:14:32Z</time></trkpt><trkpt lat="45.60652824452895" lon="7.992581390728965"><ele>912.0</ele><time>2026-04-26T11:14:33Z</time></trkpt><trkpt lat="45.60659277062955" lon="7.992428294615457"><ele>912.0</ele><time>2026-04-26T11:14:34Z</time></trkpt><trkpt lat="45.60667137234849" lon="7.992292888675791"><ele>908.5</ele><time>2026-04-26T11:14:35Z</time></trkpt><trkpt lat="45.60673836064168" lon="7.9921438260594275"><ele>905.0</ele><time>2026-04-26T11:14:36Z</time></trkpt><trkpt lat="45.60681813022888" lon="7.992016224261697"><ele>901.5</ele><time>2026-04-26T11:14:37Z</time></trkpt><trkpt lat="45.60689858452956" lon="7.991880685267407"><ele>898.0</ele><time>2026-04-26T11:14:38Z</time></trkpt><trkpt lat="45.6070029095466" lon="7.991784113240622"><ele>898.0</ele><time>2026-04-26T11:14:39Z</time></trkpt><trkpt lat="45.607109404569414" lon="7.991711229006964"><ele>898.0</ele><time>2026-04-26T11:14:40Z</time></trkpt><trkpt lat="45.60720166599893" lon="7.991631587494688"><ele>898.0</ele><time>2026-04-26T11:14:41Z</time></trkpt><trkpt lat="45.60727019437545" lon="7.991509080832136"><ele>898.0</ele><time>2026-04-26T11:14:42Z</time></trkpt><trkpt lat="45.60732716191173" lon="7.99136073324582"><ele>904.0</ele><time>2026-04-26T11:14:43Z</time></trkpt><trkpt lat="45.607325469155526" lon="7.991192150282838"><ele>910.0</ele><time>2026-04-26T11:14:44Z</time></trkpt><trkpt lat="45.60732278854654" lon="7.991032135527459"><ele>916.0</ele><time>2026-04-26T11:14:45Z</time></trkpt><trkpt lat="45.60732341033076" lon="7.990867608617646"><ele>922.0</ele><time>2026-04-26T11:14:46Z</time></trkpt><trkpt lat="45.60733930463966" lon="7.990699043686815"><ele>926.0</ele><time>2026-04-26T11:14:47Z</time></trkpt><trkpt lat="45.607365247284804" lon="7.990533831316815"><ele>930.0</ele><time>2026-04-26T11:14:48Z</time></trkpt><trkpt lat="45.60739653742828" lon="7.990363662023997"><ele>934.0</ele><time>2026-04-26T11:14:49Z</time></trkpt><trkpt lat="45.6074438259486" lon="7.990190352359386"><ele>938.0</ele><time>2026-04-26T11:14:50Z</time></trkpt><trkpt lat="45.60753284156665" lon="7.990042076792212"><ele>942.25</ele><time>2026-04-26T11:14:51Z</time></trkpt><trkpt lat="45.60761049619553" lon="7.989876507896531"><ele>946.5</ele><time>2026-04-26T11:14:52Z</time></trkpt><trkpt lat="45.60770635891216" lon="7.989724841639098"><ele>950.75</ele><time>2026-04-26T11:14:53Z</time></trkpt><trkpt lat="45.60780124144428" lon="7.989569810026529"><ele>955.0</ele><time>2026-04-26T11:14:54Z</time></trkpt><trkpt lat="45.60789632142064" lon="7.989412649741988"><ele>950.5</ele><time>2026-04-26T11:14:55Z</time></trkpt><trkpt lat="45.60798459840471" lon="7.989267246791381"><ele>946.0</ele><time>2026-04-26T11:14:56Z</time></trkpt><trkpt lat="45.60806208950358" lon="7.989125413885001"><ele>941.5</ele><time>2026-04-26T11:14:57Z</time></trkpt><trkpt lat="45.608127797740885" lon="7.988983030884285"><ele>937.0</ele><time>2026-04-26T11:14:58Z</time></trkpt><trkpt lat="45.608167426568734" lon="7.988835633169065"><ele>937.0</ele><time>2026-04-26T11:14:59Z</time></trkpt><trkpt lat="45.6081736401044" lon="7.988701501457195"><ele>937.0</ele><time>2026-04-26T11:15:00Z</time></trkpt><trkpt lat="45.608160249079475" lon="7.988561570415545"><ele>937.0</ele><time>2026-04-26T11:15:01Z</time></trkpt><trkpt lat="45.6081515921082" lon="7.988407911646497"><ele>937.0</ele><time>2026-04-26T11:15:02Z</time></trkpt><trkpt lat="45.608142375593474" lon="7.988302067606469"><ele>937.0</ele><time>2026-04-26T11:15:03Z</time></trkpt><trkpt lat="45.60814961243641" lon="7.98819411106328"><ele>941.6</ele><time>2026-04-26T11:15:04Z</time></trkpt><trkpt lat="45.60821067804748" lon="7.988111042984519"><ele>946.2</ele><time>2026-04-26T11:15:05Z</time></trkpt><trkpt lat="45.60828918283058" lon="7.988057761530006"><ele>950.8</ele><time>2026-04-26T11:15:06Z</time></trkpt><trkpt lat="45.608383837725064" lon="7.9880464870871535"><ele>955.4</ele><time>2026-04-26T11:15:07Z</time></trkpt><trkpt lat="45.608488517934966" lon="7.988053430765755"><ele>960.0</ele><time>2026-04-26T11:15:08Z</time></trkpt><trkpt lat="45.608597687365375" lon="7.988046509170564"><ele>954.25</ele><time>2026-04-26T11:15:09Z</time></trkpt><trkpt lat="45.608709009396016" lon="7.987993996037726"><ele>948.5</ele><time>2026-04-26T11:15:10Z</time></trkpt><trkpt lat="45.60882502824177" lon="7.987921311716205"><ele>942.75</ele><time>2026-04-26T11:15:11Z</time></trkpt><trkpt lat="45.608922369206475" lon="7.987791749366168"><ele>937.0</ele><time>2026-04-26T11:15:12Z</time></trkpt><trkpt lat="45.60900161291965" lon="7.9876768300839"><ele>936.9999999999999</ele><time>2026-04-26T11:15:13Z</time></trkpt><trkpt lat="45.609073129920795" lon="7.987561253024449"><ele>937.0</ele><time>2026-04-26T11:15:14Z</time></trkpt><trkpt lat="45.60913483229317" lon="7.987456814549525"><ele>937.0</ele><time>2026-04-26T11:15:15Z</time></trkpt><trkpt lat="45.609190034378415" lon="7.987365312127347"><ele>937.0</ele><time>2026-04-26T11:15:16Z</time></trkpt><trkpt lat="45.60923848936764" lon="7.987287476155771"><ele>936.9999999999999</ele><time>2026-04-26T11:15:17Z</time></trkpt><trkpt lat="45.609283449509164" lon="7.987202591469628"><ele>937.0</ele><time>2026-04-26T11:15:18Z</time></trkpt><trkpt lat="45.60935200741742" lon="7.9871821445932305"><ele>939.8</ele><time>2026-04-26T11:15:19Z</time></trkpt><trkpt lat="45.609463046252344" lon="7.9872896636553925"><ele>942.6</ele><time>2026-04-26T11:15:21Z</time></trkpt><trkpt lat="45.60949397420445" lon="7.9873928181583915"><ele>945.3999999999999</ele><time>2026-04-26T11:15:22Z</time></trkpt><trkpt lat="45.60952742349382" lon="7.987516472655241"><ele>948.1999999999999</ele><time>2026-04-26T11:15:23Z</time></trkpt><trkpt lat="45.60955516545136" lon="7.987661259955066"><ele>951.0</ele><time>2026-04-26T11:15:24Z</time></trkpt><trkpt lat="45.60958410183812" lon="7.987804602513737"><ele>951.0</ele><time>2026-04-26T11:15:25Z</time></trkpt><trkpt lat="45.609635927891304" lon="7.987916546309788"><ele>950.9999999999999</ele><time>2026-04-26T11:15:26Z</time></trkpt><trkpt lat="45.60971396434398" lon="7.987982105952592"><ele>950.9999999999999</ele><time>2026-04-26T11:15:27Z</time></trkpt><trkpt lat="45.609810008328125" lon="7.987991769650248"><ele>951.0</ele><time>2026-04-26T11:15:28Z</time></trkpt><trkpt lat="45.60990660488118" lon="7.988009624266544"><ele>951.0</ele><time>2026-04-26T11:15:29Z</time></trkpt><trkpt lat="45.61001067371474" lon="7.988014721718495"><ele>951.0</ele><time>2026-04-26T11:15:30Z</time></trkpt><trkpt lat="45.610121795009775" lon="7.988013058380869"><ele>951.0</ele><time>2026-04-26T11:15:31Z</time></trkpt><trkpt lat="45.610244907709514" lon="7.988002470149761"><ele>951.0</ele><time>2026-04-26T11:15:32Z</time></trkpt><trkpt lat="45.610368853743594" lon="7.987969050950534"><ele>951.0</ele><time>2026-04-26T11:15:33Z</time></trkpt><trkpt lat="45.61048723569807" lon="7.987923189847152"><ele>953.25</ele><time>2026-04-26T11:15:34Z</time></trkpt><trkpt lat="45.61060298532145" lon="7.987880102197344"><ele>955.5</ele><time>2026-04-26T11:15:35Z</time></trkpt><trkpt lat="45.61072491198148" lon="7.987854484961703"><ele>957.75</ele><time>2026-04-26T11:15:36Z</time></trkpt><trkpt lat="45.61085658971807" lon="7.98783529206737"><ele>960.0</ele><time>2026-04-26T11:15:37Z</time></trkpt><trkpt lat="45.61099427866629" lon="7.987818541775542"><ele>960.0</ele><time>2026-04-26T11:15:38Z</time></trkpt><trkpt lat="45.6111316511251" lon="7.987793621004841"><ele>960.0</ele><time>2026-04-26T11:15:39Z</time></trkpt><trkpt lat="45.611276348101896" lon="7.987759864827066"><ele>960.0</ele><time>2026-04-26T11:15:40Z</time></trkpt><trkpt lat="45.611428573049814" lon="7.98772376934063"><ele>960.0</ele><time>2026-04-26T11:15:41Z</time></trkpt><trkpt lat="45.6115754692992" lon="7.987692164142557"><ele>961.25</ele><time>2026-04-26T11:15:42Z</time></trkpt><trkpt lat="45.611714895529" lon="7.987655644598272"><ele>962.5</ele><time>2026-04-26T11:15:43Z</time></trkpt><trkpt lat="45.611836961631816" lon="7.987617223775306"><ele>963.75</ele><time>2026-04-26T11:15:44Z</time></trkpt><trkpt lat="45.61195306328253" lon="7.987581782164456"><ele>965.0</ele><time>2026-04-26T11:15:45Z</time></trkpt><trkpt lat="45.612068350343705" lon="7.987553689717443"><ele>965.0</ele><time>2026-04-26T11:15:46Z</time></trkpt><trkpt lat="45.612176035213686" lon="7.987517738021928"><ele>965.0</ele><time>2026-04-26T11:15:47Z</time></trkpt><trkpt lat="45.61228725316049" lon="7.98747735773876"><ele>965.0</ele><time>2026-04-26T11:15:48Z</time></trkpt><trkpt lat="45.61239500527322" lon="7.9874214294793475"><ele>965.0</ele><time>2026-04-26T11:15:49Z</time></trkpt><trkpt lat="45.612501203796185" lon="7.987343034804429"><ele>971.0</ele><time>2026-04-26T11:15:50Z</time></trkpt><trkpt lat="45.61259935718023" lon="7.987239413800351"><ele>977.0</ele><time>2026-04-26T11:15:51Z</time></trkpt><trkpt lat="45.61268481861589" lon="7.987116506351357"><ele>983.0</ele><time>2026-04-26T11:15:52Z</time></trkpt><trkpt lat="45.61274867620029" lon="7.986974581967622"><ele>989.0</ele><time>2026-04-26T11:15:53Z</time></trkpt><trkpt lat="45.612795970487554" lon="7.98682709294084"><ele>987.0</ele><time>2026-04-26T11:15:54Z</time></trkpt><trkpt lat="45.61285685355966" lon="7.9866848475355745"><ele>985.0</ele><time>2026-04-26T11:15:55Z</time></trkpt><trkpt lat="45.61295450849229" lon="7.986575105863203"><ele>983.0</ele><time>2026-04-26T11:15:56Z</time></trkpt><trkpt lat="45.6130578971963" lon="7.986501087220254"><ele>981.0</ele><time>2026-04-26T11:15:57Z</time></trkpt><trkpt lat="45.61316116360582" lon="7.986419511947853"><ele>986.75</ele><time>2026-04-26T11:15:58Z</time></trkpt><trkpt lat="45.613270084628866" lon="7.986357859073119"><ele>992.5</ele><time>2026-04-26T11:15:59Z</time></trkpt><trkpt lat="45.61338587023112" lon="7.986316156399175"><ele>998.25</ele><time>2026-04-26T11:16:00Z</time></trkpt><trkpt lat="45.61350709804838" lon="7.986304150402941"><ele>1004.0</ele><time>2026-04-26T11:16:01Z</time></trkpt><trkpt lat="45.61362633443833" lon="7.986328030231844"><ele>1005.25</ele><time>2026-04-26T11:16:02Z</time></trkpt><trkpt lat="45.61373689590587" lon="7.9863750319229085"><ele>1006.5</ele><time>2026-04-26T11:16:03Z</time></trkpt><trkpt lat="45.61384989804431" lon="7.986389894050292"><ele>1007.75</ele><time>2026-04-26T11:16:04Z</time></trkpt><trkpt lat="45.6139680894436" lon="7.98638316923714"><ele>1009.0</ele><time>2026-04-26T11:16:05Z</time></trkpt><trkpt lat="45.614090137315365" lon="7.986396247037361"><ele>1009.0</ele><time>2026-04-26T11:16:06Z</time></trkpt><trkpt lat="45.61421261765321" lon="7.986386399815799"><ele>1009.0</ele><time>2026-04-26T11:16:07Z</time></trkpt><trkpt lat="45.61433418721354" lon="7.986353383367277"><ele>1009.0</ele><time>2026-04-26T11:16:08Z</time></trkpt><trkpt lat="45.61445644153256" lon="7.986346320633111"><ele>1009.0</ele><time>2026-04-26T11:16:09Z</time></trkpt><trkpt lat="45.61457679486382" lon="7.986347171396593"><ele>1010.8000000000001</ele><time>2026-04-26T11:16:10Z</time></trkpt><trkpt lat="45.61468835369408" lon="7.9863697308230845"><ele>1012.6000000000001</ele><time>2026-04-26T11:16:11Z</time></trkpt><trkpt lat="45.61478916824025" lon="7.986419531970545"><ele>1014.4</ele><time>2026-04-26T11:16:12Z</time></trkpt><trkpt lat="45.614875904995806" lon="7.986457898199701"><ele>1016.2</ele><time>2026-04-26T11:16:13Z</time></trkpt><trkpt lat="45.61494842028383" lon="7.9864882885184"><ele>1018.0</ele><time>2026-04-26T11:16:14Z</time></trkpt><trkpt lat="45.61503109872396" lon="7.986502686951095"><ele>1018.0</ele><time>2026-04-26T11:16:15Z</time></trkpt><trkpt lat="45.615118151041315" lon="7.986497686706233"><ele>1018.0</ele><time>2026-04-26T11:16:16Z</time></trkpt><trkpt lat="45.61521192215695" lon="7.986464778235245"><ele>1018.0</ele><time>2026-04-26T11:16:17Z</time></trkpt><trkpt lat="45.615307645568635" lon="7.9864031672574525"><ele>1018.0</ele><time>2026-04-26T11:16:18Z</time></trkpt><trkpt lat="45.61540394043707" lon="7.986320495996411"><ele>1018.0</ele><time>2026-04-26T11:16:19Z</time></trkpt><trkpt lat="45.615508105167706" lon="7.98623794845847"><ele>1015.8</ele><time>2026-04-26T11:16:20Z</time></trkpt><trkpt lat="45.6156186111435" lon="7.986165190073391"><ele>1013.5999999999999</ele><time>2026-04-26T11:16:21Z</time></trkpt><trkpt lat="45.61571868718364" lon="7.986103762420848"><ele>1011.4000000000001</ele><time>2026-04-26T11:16:22Z</time></trkpt><trkpt lat="45.61580575287682" lon="7.986041993067395"><ele>1009.2</ele><time>2026-04-26T11:16:23Z</time></trkpt><trkpt lat="45.615881722253114" lon="7.985979313635498"><ele>1007.0</ele><time>2026-04-26T11:16:24Z</time></trkpt><trkpt lat="45.615935951332396" lon="7.985888428575085"><ele>1014.2</ele><time>2026-04-26T11:16:25Z</time></trkpt><trkpt lat="45.61597799255013" lon="7.985779226275661"><ele>1021.4000000000001</ele><time>2026-04-26T11:16:26Z</time></trkpt><trkpt lat="45.61602842872214" lon="7.985663706528489"><ele>1028.6</ele><time>2026-04-26T11:16:27Z</time></trkpt><trkpt lat="45.61605745438307" lon="7.985517492722569"><ele>1035.8</ele><time>2026-04-26T11:16:28Z</time></trkpt><trkpt lat="45.61605654891767" lon="7.985356305115846"><ele>1043.0</ele><time>2026-04-26T11:16:29Z</time></trkpt><trkpt lat="45.61607037313735" lon="7.985196596103205"><ele>1043.0</ele><time>2026-04-26T11:16:30Z</time></trkpt><trkpt lat="45.61608278633358" lon="7.985025206595268"><ele>1043.0</ele><time>2026-04-26T11:16:31Z</time></trkpt><trkpt lat="45.6160962718444" lon="7.984849332485957"><ele>1043.0</ele><time>2026-04-26T11:16:32Z</time></trkpt><trkpt lat="45.61611220178114" lon="7.9846669993699555"><ele>1043.0</ele><time>2026-04-26T11:16:33Z</time></trkpt><trkpt lat="45.61612037768523" lon="7.9844790984419785"><ele>1040.4</ele><time>2026-04-26T11:16:34Z</time></trkpt><trkpt lat="45.616131174876834" lon="7.9842966681394"><ele>1037.8</ele><time>2026-04-26T11:16:35Z</time></trkpt><trkpt lat="45.61614178099471" lon="7.984133854382451"><ele>1035.2</ele><time>2026-04-26T11:16:36Z</time></trkpt><trkpt lat="45.61614761830063" lon="7.983974957757891"><ele>1032.6</ele><time>2026-04-26T11:16:37Z</time></trkpt><trkpt lat="45.61615166214831" lon="7.983842982128501"><ele>1030.0</ele><time>2026-04-26T11:16:38Z</time></trkpt><trkpt lat="45.61616000070179" lon="7.983708971637279"><ele>1030.0</ele><time>2026-04-26T11:16:39Z</time></trkpt><trkpt lat="45.616190615515826" lon="7.9835573617481"><ele>1030.0</ele><time>2026-04-26T11:16:40Z</time></trkpt><trkpt lat="45.616236631195015" lon="7.983424972550082"><ele>1030.0</ele><time>2026-04-26T11:16:41Z</time></trkpt><trkpt lat="45.61629478654702" lon="7.983295974625773"><ele>1030.0</ele><time>2026-04-26T11:16:42Z</time></trkpt><trkpt lat="45.616370892745415" lon="7.983189245630264"><ele>1030.0</ele><time>2026-04-26T11:16:43Z</time></trkpt><trkpt lat="45.61645056328967" lon="7.983081778472041"><ele>1033.0</ele><time>2026-04-26T11:16:44Z</time></trkpt><trkpt lat="45.616537820891125" lon="7.98298130517799"><ele>1036.0</ele><time>2026-04-26T11:16:45Z</time></trkpt><trkpt lat="45.616633671138196" lon="7.982888677554765"><ele>1039.0</ele><time>2026-04-26T11:16:46Z</time></trkpt><trkpt lat="45.6167384991307" lon="7.982810887385559"><ele>1042.0</ele><time>2026-04-26T11:16:47Z</time></trkpt><trkpt lat="45.616841058969754" lon="7.9827309465381"><ele>1042.0</ele><time>2026-04-26T11:16:48Z</time></trkpt><trkpt lat="45.6169436810931" lon="7.98264266211617"><ele>1042.0</ele><time>2026-04-26T11:16:49Z</time></trkpt><trkpt lat="45.61704131061992" lon="7.9825584129557745"><ele>1042.0</ele><time>2026-04-26T11:16:50Z</time></trkpt><trkpt lat="45.6171369351907" lon="7.982471561390125"><ele>1042.0</ele><time>2026-04-26T11:16:51Z</time></trkpt><trkpt lat="45.617229668901054" lon="7.982374444448877"><ele>1047.0</ele><time>2026-04-26T11:16:52Z</time></trkpt><trkpt lat="45.61731804910755" lon="7.9822652190042955"><ele>1052.0</ele><time>2026-04-26T11:16:53Z</time></trkpt><trkpt lat="45.617422795821675" lon="7.982195403092709"><ele>1057.0</ele><time>2026-04-26T11:16:54Z</time></trkpt><trkpt lat="45.617544714520996" lon="7.982181614827934"><ele>1062.0</ele><time>2026-04-26T11:16:55Z</time></trkpt><trkpt lat="45.61766219785179" lon="7.982204734604753"><ele>1062.0</ele><time>2026-04-26T11:16:56Z</time></trkpt><trkpt lat="45.61776817239351" lon="7.982261272302245"><ele>1062.0</ele><time>2026-04-26T11:16:57Z</time></trkpt><trkpt lat="45.61785034892456" lon="7.98236874352043"><ele>1062.0</ele><time>2026-04-26T11:16:58Z</time></trkpt><trkpt lat="45.61791599741626" lon="7.982493407651285"><ele>1062.0</ele><time>2026-04-26T11:16:59Z</time></trkpt><trkpt lat="45.61799967215726" lon="7.982590528198549"><ele>1062.0</ele><time>2026-04-26T11:17:00Z</time></trkpt><trkpt lat="45.61808954002941" lon="7.982653370345126"><ele>1055.6</ele><time>2026-04-26T11:17:01Z</time></trkpt><trkpt lat="45.618181546439324" lon="7.982692382851955"><ele>1049.2</ele><time>2026-04-26T11:17:02Z</time></trkpt><trkpt lat="45.61827287219027" lon="7.98272688073311"><ele>1042.8</ele><time>2026-04-26T11:17:03Z</time></trkpt><trkpt lat="45.61836839580139" lon="7.982738461988402"><ele>1036.4</ele><time>2026-04-26T11:17:04Z</time></trkpt><trkpt lat="45.61845162726624" lon="7.982733407041335"><ele>1030.0</ele><time>2026-04-26T11:17:05Z</time></trkpt><trkpt lat="45.61853328529154" lon="7.982722349187697"><ele>1030.0</ele><time>2026-04-26T11:17:06Z</time></trkpt><trkpt lat="45.61860620732506" lon="7.982691087426166"><ele>1030.0</ele><time>2026-04-26T11:17:07Z</time></trkpt><trkpt lat="45.61867573246526" lon="7.982655461130395"><ele>1030.0</ele><time>2026-04-26T11:17:08Z</time></trkpt><trkpt lat="45.618750600425656" lon="7.9826520322066274"><ele>1030.0</ele><time>2026-04-26T11:17:09Z</time></trkpt><trkpt lat="45.61883328962412" lon="7.982711387242421"><ele>1030.0</ele><time>2026-04-26T11:17:10Z</time></trkpt><trkpt lat="45.61892551285592" lon="7.982755229298662"><ele>1030.0</ele><time>2026-04-26T11:17:11Z</time></trkpt><trkpt lat="45.61901975577556" lon="7.982817952816265"><ele>1036.25</ele><time>2026-04-26T11:17:12Z</time></trkpt><trkpt lat="45.619118871618085" lon="7.982886454689965"><ele>1042.5</ele><time>2026-04-26T11:17:13Z</time></trkpt><trkpt lat="45.61922076632469" lon="7.982959081785062"><ele>1048.75</ele><time>2026-04-26T11:17:14Z</time></trkpt><trkpt lat="45.619319935617" lon="7.983052663129375"><ele>1055.0</ele><time>2026-04-26T11:17:15Z</time></trkpt><trkpt lat="45.6193958779196" lon="7.983163611712891"><ele>1055.0</ele><time>2026-04-26T11:17:16Z</time></trkpt><trkpt lat="45.619474513621846" lon="7.9832640206644525"><ele>1055.0</ele><time>2026-04-26T11:17:17Z</time></trkpt><trkpt lat="45.61957868317967" lon="7.983314200545632"><ele>1055.0</ele><time>2026-04-26T11:17:18Z</time></trkpt><trkpt lat="45.61968141359034" lon="7.983336812580212"><ele>1055.0</ele><time>2026-04-26T11:17:19Z</time></trkpt><trkpt lat="45.61978118686278" lon="7.983315556091271"><ele>1055.0</ele><time>2026-04-26T11:17:20Z</time></trkpt><trkpt lat="45.61988133188242" lon="7.983246018073974"><ele>1056.4</ele><time>2026-04-26T11:17:21Z</time></trkpt><trkpt lat="45.61997679751467" lon="7.9831736975026315"><ele>1057.8</ele><time>2026-04-26T11:17:22Z</time></trkpt><trkpt lat="45.620050333536064" lon="7.983056881724796"><ele>1059.2</ele><time>2026-04-26T11:17:23Z</time></trkpt><trkpt lat="45.62009659630322" lon="7.982916059565553"><ele>1060.6</ele><time>2026-04-26T11:17:24Z</time></trkpt><trkpt lat="45.62012410583307" lon="7.982763930744383"><ele>1062.0</ele><time>2026-04-26T11:17:25Z</time></trkpt><trkpt lat="45.62013264796563" lon="7.982614172981035"><ele>1065.6</ele><time>2026-04-26T11:17:26Z</time></trkpt><trkpt lat="45.62009951454542" lon="7.982455584838999"><ele>1069.2</ele><time>2026-04-26T11:17:27Z</time></trkpt><trkpt lat="45.62007154590137" lon="7.98229518143313"><ele>1072.8</ele><time>2026-04-26T11:17:28Z</time></trkpt><trkpt lat="45.620039904592765" lon="7.982142108005961"><ele>1076.4</ele><time>2026-04-26T11:17:29Z</time></trkpt><trkpt lat="45.620015866510045" lon="7.982002950617539"><ele>1080.0</ele><time>2026-04-26T11:17:30Z</time></trkpt><trkpt lat="45.61999908908621" lon="7.981884679097302"><ele>1080.0</ele><time>2026-04-26T11:17:31Z</time></trkpt><trkpt lat="45.619988061984074" lon="7.9817857868288415"><ele>1080.0</ele><time>2026-04-26T11:17:32Z</time></trkpt><trkpt lat="45.620051575668555" lon="7.981739050515334"><ele>1080.0</ele><time>2026-04-26T11:17:33Z</time></trkpt><trkpt lat="45.62017737286761" lon="7.981666162893266"><ele>1080.0</ele><time>2026-04-26T11:17:35Z</time></trkpt><trkpt lat="45.62026969970949" lon="7.981665190855623"><ele>1080.0</ele><time>2026-04-26T11:17:36Z</time></trkpt><trkpt lat="45.62037253991333" lon="7.981675458021555"><ele>1084.0</ele><time>2026-04-26T11:17:37Z</time></trkpt><trkpt lat="45.62048790995741" lon="7.981681307133361"><ele>1088.0</ele><time>2026-04-26T11:17:38Z</time></trkpt><trkpt lat="45.62061475731759" lon="7.981687980308378"><ele>1092.0</ele><time>2026-04-26T11:17:39Z</time></trkpt><trkpt lat="45.62074987423543" lon="7.981695197141691"><ele>1096.0</ele><time>2026-04-26T11:17:40Z</time></trkpt><trkpt lat="45.6208848305855" lon="7.981703880725851"><ele>1089.5</ele><time>2026-04-26T11:17:41Z</time></trkpt><trkpt lat="45.62102068383758" lon="7.981710696056976"><ele>1083.0</ele><time>2026-04-26T11:17:42Z</time></trkpt><trkpt lat="45.62115914716542" lon="7.981715977454173"><ele>1076.5</ele><time>2026-04-26T11:17:43Z</time></trkpt><trkpt lat="45.62129571087261" lon="7.981733212853224"><ele>1070.0</ele><time>2026-04-26T11:17:44Z</time></trkpt><trkpt lat="45.62144057844936" lon="7.981791785069925"><ele>1070.0</ele><time>2026-04-26T11:17:45Z</time></trkpt><trkpt lat="45.62159692392942" lon="7.981861890426538"><ele>1070.0</ele><time>2026-04-26T11:17:46Z</time></trkpt><trkpt lat="45.62174725654259" lon="7.9819332983749325"><ele>1070.0</ele><time>2026-04-26T11:17:47Z</time></trkpt><trkpt lat="45.62189174468764" lon="7.98199118259667"><ele>1075.0</ele><time>2026-04-26T11:17:48Z</time></trkpt><trkpt lat="45.62201165200192" lon="7.982042545106078"><ele>1080.0</ele><time>2026-04-26T11:17:49Z</time></trkpt><trkpt lat="45.62211331924867" lon="7.982064900572275"><ele>1085.0</ele><time>2026-04-26T11:17:50Z</time></trkpt><trkpt lat="45.62220407606975" lon="7.982058351711905"><ele>1090.0</ele><time>2026-04-26T11:17:51Z</time></trkpt><trkpt lat="45.62228963183992" lon="7.982019750197641"><ele>1095.0</ele><time>2026-04-26T11:17:52Z</time></trkpt><trkpt lat="45.62237089462079" lon="7.981951477661028"><ele>1095.0</ele><time>2026-04-26T11:17:53Z</time></trkpt><trkpt lat="45.622454022680095" lon="7.981872545382887"><ele>1095.0</ele><time>2026-04-26T11:17:54Z</time></trkpt><trkpt lat="45.62253265148093" lon="7.981799160263166"><ele>1095.0</ele><time>2026-04-26T11:17:55Z</time></trkpt><trkpt lat="45.62259699930058" lon="7.981721577798982"><ele>1095.0</ele><time>2026-04-26T11:17:56Z</time></trkpt><trkpt lat="45.622648050209925" lon="7.9816629783031745"><ele>1095.0</ele><time>2026-04-26T11:17:57Z</time></trkpt><trkpt lat="45.62273852537577" lon="7.981600111843937"><ele>1095.0</ele><time>2026-04-26T11:17:59Z</time></trkpt><trkpt lat="45.62285057844022" lon="7.981604534609656"><ele>1099.3333333333333</ele><time>2026-04-26T11:18:01Z</time></trkpt><trkpt lat="45.62290690718689" lon="7.981651891389601"><ele>1103.6666666666667</ele><time>2026-04-26T11:18:02Z</time></trkpt><trkpt lat="45.622941628156006" lon="7.981749113170776"><ele>1108.0</ele><time>2026-04-26T11:18:03Z</time></trkpt><trkpt lat="45.622956708498236" lon="7.981873639225418"><ele>1112.3333333333335</ele><time>2026-04-26T11:18:04Z</time></trkpt><trkpt lat="45.62296676764047" lon="7.982017025934403"><ele>1116.6666666666667</ele><time>2026-04-26T11:18:05Z</time></trkpt><trkpt lat="45.62298631864453" lon="7.9821764401861"><ele>1121.0</ele><time>2026-04-26T11:18:06Z</time></trkpt><trkpt lat="45.623005274718544" lon="7.982362440717439"><ele>1120.5</ele><time>2026-04-26T11:18:07Z</time></trkpt><trkpt lat="45.62302636689152" lon="7.982571987398395"><ele>1120.0</ele><time>2026-04-26T11:18:08Z</time></trkpt><trkpt lat="45.62303845855566" lon="7.982750842470024"><ele>1119.5</ele><time>2026-04-26T11:18:09Z</time></trkpt><trkpt lat="45.623055691525096" lon="7.982902194713275"><ele>1119.0</ele><time>2026-04-26T11:18:10Z</time></trkpt><trkpt lat="45.62307206653446" lon="7.983059350494891"><ele>1119.0</ele><time>2026-04-26T11:18:11Z</time></trkpt><trkpt lat="45.623086030574704" lon="7.98322170670633"><ele>1119.0</ele><time>2026-04-26T11:18:12Z</time></trkpt><trkpt lat="45.623095916554746" lon="7.983390031143264"><ele>1119.0</ele><time>2026-04-26T11:18:13Z</time></trkpt><trkpt lat="45.62310702398235" lon="7.983557469840618"><ele>1119.0</ele><time>2026-04-26T11:18:14Z</time></trkpt><trkpt lat="45.62311987573305" lon="7.983713553928582"><ele>1118.0</ele><time>2026-04-26T11:18:15Z</time></trkpt><trkpt lat="45.623124968519036" lon="7.983861926267184"><ele>1117.0</ele><time>2026-04-26T11:18:16Z</time></trkpt><trkpt lat="45.62313307502437" lon="7.98398725827644"><ele>1116.0</ele><time>2026-04-26T11:18:17Z</time></trkpt><trkpt lat="45.62315277695259" lon="7.984097755999355"><ele>1115.0</ele><time>2026-04-26T11:18:18Z</time></trkpt><trkpt lat="45.62318706591699" lon="7.984187798170814"><ele>1114.0</ele><time>2026-04-26T11:18:19Z</time></trkpt><trkpt lat="45.623249123961216" lon="7.984240940028098"><ele>1113.0</ele><time>2026-04-26T11:18:20Z</time></trkpt><trkpt lat="45.62332877707846" lon="7.984264396077962"><ele>1113.0</ele><time>2026-04-26T11:18:21Z</time></trkpt><trkpt lat="45.623399510661145" lon="7.9841851508500055"><ele>1113.0</ele><time>2026-04-26T11:18:22Z</time></trkpt><trkpt lat="45.6234452525988" lon="7.9841212271228"><ele>1113.0</ele><time>2026-04-26T11:18:23Z</time></trkpt><trkpt lat="45.62350176744514" lon="7.984064193430003"><ele>1113.0</ele><time>2026-04-26T11:18:24Z</time></trkpt><trkpt lat="45.623562488913045" lon="7.983997896482897"><ele>1113.0</ele><time>2026-04-26T11:18:25Z</time></trkpt><trkpt lat="45.62361862734427" lon="7.983931507866163"><ele>1113.0</ele><time>2026-04-26T11:18:26Z</time></trkpt><trkpt lat="45.62370079147153" lon="7.9838462446407"><ele>1114.0</ele><time>2026-04-26T11:18:28Z</time></trkpt><trkpt lat="45.62376958699641" lon="7.983761299624171"><ele>1115.0</ele><time>2026-04-26T11:18:30Z</time></trkpt><trkpt lat="45.62382136662491" lon="7.98370580263109"><ele>1116.0</ele><time>2026-04-26T11:18:32Z</time></trkpt><trkpt lat="45.62392234758483" lon="7.983698224033144"><ele>1117.0</ele><time>2026-04-26T11:18:34Z</time></trkpt><trkpt lat="45.62398377972603" lon="7.983772752918877"><ele>1118.0</ele><time>2026-04-26T11:18:36Z</time></trkpt><trkpt lat="45.62402931751636" lon="7.983836005178773"><ele>1119.0</ele><time>2026-04-26T11:18:38Z</time></trkpt><trkpt lat="45.62408746300447" lon="7.983919929662601"><ele>1119.0</ele><time>2026-04-26T11:19:25Z</time></trkpt><trkpt lat="45.624167971023745" lon="7.9840205267238655"><ele>1119.0</ele><time>2026-04-26T11:19:27Z</time></trkpt><trkpt lat="45.62422775760078" lon="7.984079830494372"><ele>1119.0</ele><time>2026-04-26T11:19:28Z</time></trkpt><trkpt lat="45.6242823923155" lon="7.984135794771752"><ele>1119.0</ele><time>2026-04-26T11:19:29Z</time></trkpt><trkpt lat="45.62432491035998" lon="7.984224262388606"><ele>1119.0</ele><time>2026-04-26T11:19:30Z</time></trkpt><trkpt lat="45.62438549032317" lon="7.984291901899104"><ele>1119.0</ele><time>2026-04-26T11:19:31Z</time></trkpt><trkpt lat="45.62444125426425" lon="7.984369525690961"><ele>1116.1666666666667</ele><time>2026-04-26T11:19:32Z</time></trkpt><trkpt lat="45.62450271728049" lon="7.984429795374976"><ele>1113.3333333333333</ele><time>2026-04-26T11:19:33Z</time></trkpt><trkpt lat="45.62456740602088" lon="7.984468429028381"><ele>1110.5</ele><time>2026-04-26T11:19:34Z</time></trkpt><trkpt lat="45.62463695071362" lon="7.984471753376865"><ele>1107.6666666666665</ele><time>2026-04-26T11:19:35Z</time></trkpt><trkpt lat="45.6247112859429" lon="7.984440256445157"><ele>1104.8333333333333</ele><time>2026-04-26T11:19:36Z</time></trkpt><trkpt lat="45.62477353778971" lon="7.984366563810314"><ele>1102.0</ele><time>2026-04-26T11:19:37Z</time></trkpt><trkpt lat="45.62482798039238" lon="7.984280729150205"><ele>1102.0</ele><time>2026-04-26T11:19:38Z</time></trkpt><trkpt lat="45.62488348635677" lon="7.984188477195176"><ele>1102.0</ele><time>2026-04-26T11:19:39Z</time></trkpt><trkpt lat="45.624940547934166" lon="7.984095419918844"><ele>1102.0</ele><time>2026-04-26T11:19:40Z</time></trkpt><trkpt lat="45.62499872267864" lon="7.983988685698291"><ele>1102.0</ele><time>2026-04-26T11:19:41Z</time></trkpt><trkpt lat="45.62506482048695" lon="7.983883866138102"><ele>1102.0</ele><time>2026-04-26T11:19:42Z</time></trkpt><trkpt lat="45.62513846473888" lon="7.983776708335216"><ele>1105.8</ele><time>2026-04-26T11:19:43Z</time></trkpt><trkpt lat="45.625210855057674" lon="7.983666148719965"><ele>1109.6</ele><time>2026-04-26T11:19:44Z</time></trkpt><trkpt lat="45.62528658857472" lon="7.983555157646899"><ele>1113.3999999999999</ele><time>2026-04-26T11:19:45Z</time></trkpt><trkpt lat="45.62535895221156" lon="7.983440620360883"><ele>1117.2</ele><time>2026-04-26T11:19:46Z</time></trkpt><trkpt lat="45.62542980233134" lon="7.983328209333977"><ele>1121.0</ele><time>2026-04-26T11:19:47Z</time></trkpt><trkpt lat="45.62550424950898" lon="7.983220531206009"><ele>1124.3333333333335</ele><time>2026-04-26T11:19:48Z</time></trkpt><trkpt lat="45.62557214097187" lon="7.983124897032043"><ele>1127.6666666666667</ele><time>2026-04-26T11:19:49Z</time></trkpt><trkpt lat="45.62562594193379" lon="7.98304748488144"><ele>1131.0</ele><time>2026-04-26T11:19:50Z</time></trkpt><trkpt lat="45.6256695799105" lon="7.982980173637846"><ele>1134.3333333333333</ele><time>2026-04-26T11:19:51Z</time></trkpt><trkpt lat="45.62572443701504" lon="7.9828687317899405"><ele>1137.6666666666665</ele><time>2026-04-26T11:19:53Z</time></trkpt><trkpt lat="45.62574098273615" lon="7.982772327112672"><ele>1141.0</ele><time>2026-04-26T11:19:55Z</time></trkpt><trkpt lat="45.62580626295809" lon="7.982733870822804"><ele>1141.0</ele><time>2026-04-26T11:19:57Z</time></trkpt><trkpt lat="45.62568331500322" lon="7.982547590502"><ele>1141.0</ele><time>2026-04-26T11:19:59Z</time></trkpt><trkpt lat="45.625626196870684" lon="7.98248721191526"><ele>1141.0</ele><time>2026-04-26T11:20:00Z</time></trkpt><trkpt lat="45.62556952724895" lon="7.982424037961404"><ele>1141.0</ele><time>2026-04-26T11:20:01Z</time></trkpt><trkpt lat="45.625516174226576" lon="7.9823542195490695"><ele>1141.0</ele><time>2026-04-26T11:20:02Z</time></trkpt><trkpt lat="45.625470744565774" lon="7.98228224342251"><ele>1141.8</ele><time>2026-04-26T11:20:03Z</time></trkpt><trkpt lat="45.62542446588548" lon="7.982209894286847"><ele>1142.6</ele><time>2026-04-26T11:20:04Z</time></trkpt><trkpt lat="45.62535781087443" lon="7.982095798513547"><ele>1143.4</ele><time>2026-04-26T11:20:06Z</time></trkpt><trkpt lat="45.625318122168665" lon="7.982020107468315"><ele>1144.2</ele><time>2026-04-26T11:20:08Z</time></trkpt><trkpt lat="45.625235437391034" lon="7.981946613110443"><ele>1145.0</ele><time>2026-04-26T11:20:11Z</time></trkpt><trkpt lat="45.625079947001936" lon="7.981850319747169"><ele>1145.25</ele><time>2026-04-26T11:20:13Z</time></trkpt><trkpt lat="45.625034550981006" lon="7.982194867991355"><ele>1145.5</ele><time>2026-04-26T11:20:14Z</time></trkpt><trkpt lat="45.62496860733316" lon="7.982288142981021"><ele>1145.75</ele><time>2026-04-26T11:20:15Z</time></trkpt><trkpt lat="45.624896716684454" lon="7.982384580424077"><ele>1146.0</ele><time>2026-04-26T11:20:16Z</time></trkpt><trkpt lat="45.62481859018742" lon="7.9824871845298535"><ele>1143.75</ele><time>2026-04-26T11:20:17Z</time></trkpt><trkpt lat="45.62472522095448" lon="7.982597759612595"><ele>1141.5</ele><time>2026-04-26T11:20:18Z</time></trkpt><trkpt lat="45.62462821414911" lon="7.982714062445827"><ele>1139.25</ele><time>2026-04-26T11:20:19Z</time></trkpt><trkpt lat="45.62453169803811" lon="7.982834237679918"><ele>1137.0</ele><time>2026-04-26T11:20:20Z</time></trkpt><trkpt lat="45.62443509798417" lon="7.982957916701595"><ele>1136.0</ele><time>2026-04-26T11:20:21Z</time></trkpt><trkpt lat="45.62433586176745" lon="7.983072164246923"><ele>1135.0</ele><time>2026-04-26T11:20:22Z</time></trkpt><trkpt lat="45.62423924718138" lon="7.9831788311429825"><ele>1134.0</ele><time>2026-04-26T11:20:23Z</time></trkpt><trkpt lat="45.62414043493097" lon="7.983286111393792"><ele>1133.0</ele><time>2026-04-26T11:20:24Z</time></trkpt><trkpt lat="45.6240441411048" lon="7.983392587427165"><ele>1129.5</ele><time>2026-04-26T11:20:25Z</time></trkpt><trkpt lat="45.62395010677757" lon="7.98350417666065"><ele>1126.0</ele><time>2026-04-26T11:20:26Z</time></trkpt><trkpt lat="45.6238571388612" lon="7.983611115214811"><ele>1122.5</ele><time>2026-04-26T11:20:27Z</time></trkpt><trkpt lat="45.623766439318814" lon="7.983718518022712"><ele>1119.0</ele><time>2026-04-26T11:20:28Z</time></trkpt><trkpt lat="45.62367744472272" lon="7.983828174248069"><ele>1117.8</ele><time>2026-04-26T11:20:29Z</time></trkpt><trkpt lat="45.62358578258803" lon="7.983931498111973"><ele>1116.6000000000001</ele><time>2026-04-26T11:20:30Z</time></trkpt><trkpt lat="45.623497375182254" lon="7.984032988554415"><ele>1115.4</ele><time>2026-04-26T11:20:31Z</time></trkpt><trkpt lat="45.623420369963" lon="7.984114694719588"><ele>1114.2</ele><time>2026-04-26T11:20:32Z</time></trkpt><trkpt lat="45.62334966801309" lon="7.984178871576839"><ele>1113.0</ele><time>2026-04-26T11:20:33Z</time></trkpt><trkpt lat="45.62328127726722" lon="7.984215349226693"><ele>1113.0</ele><time>2026-04-26T11:20:34Z</time></trkpt><trkpt lat="45.62321100577223" lon="7.984203162824017"><ele>1113.0</ele><time>2026-04-26T11:20:35Z</time></trkpt><trkpt lat="45.62317008912386" lon="7.984107326881378"><ele>1113.0</ele><time>2026-04-26T11:20:36Z</time></trkpt><trkpt lat="45.623173473952214" lon="7.983976348045679"><ele>1113.0</ele><time>2026-04-26T11:20:37Z</time></trkpt><trkpt lat="45.623145447225006" lon="7.983820729732327"><ele>1113.0</ele><time>2026-04-26T11:20:38Z</time></trkpt><trkpt lat="45.623132345905795" lon="7.983649761272723"><ele>1113.0</ele><time>2026-04-26T11:20:39Z</time></trkpt><trkpt lat="45.6231304440596" lon="7.983449572559643"><ele>1113.0</ele><time>2026-04-26T11:20:40Z</time></trkpt><trkpt lat="45.62311342705676" lon="7.983252439213486"><ele>1113.0</ele><time>2026-04-26T11:20:41Z</time></trkpt><trkpt lat="45.62309549485095" lon="7.983053999630497"><ele>1113.0</ele><time>2026-04-26T11:20:42Z</time></trkpt><trkpt lat="45.62307823941209" lon="7.982863404338887"><ele>1114.5</ele><time>2026-04-26T11:20:43Z</time></trkpt><trkpt lat="45.623061619801845" lon="7.982683820267858"><ele>1116.0</ele><time>2026-04-26T11:20:44Z</time></trkpt><trkpt lat="45.623045591045674" lon="7.982509696784935"><ele>1117.5</ele><time>2026-04-26T11:20:45Z</time></trkpt><trkpt lat="45.62303003600808" lon="7.982340457924395"><ele>1119.0</ele><time>2026-04-26T11:20:46Z</time></trkpt><trkpt lat="45.623014272822424" lon="7.98216895445115"><ele>1119.4</ele><time>2026-04-26T11:20:47Z</time></trkpt><trkpt lat="45.62298391046936" lon="7.982012013184554"><ele>1119.8000000000002</ele><time>2026-04-26T11:20:48Z</time></trkpt><trkpt lat="45.622975482983065" lon="7.981864797808613"><ele>1120.1999999999998</ele><time>2026-04-26T11:20:49Z</time></trkpt><trkpt lat="45.62295842574001" lon="7.981732184495622"><ele>1120.6</ele><time>2026-04-26T11:20:50Z</time></trkpt><trkpt lat="45.62294669001847" lon="7.981625927954062"><ele>1121.0</ele><time>2026-04-26T11:20:51Z</time></trkpt><trkpt lat="45.62287714625352" lon="7.981540663885113"><ele>1118.6</ele><time>2026-04-26T11:20:52Z</time></trkpt><trkpt lat="45.62276303530898" lon="7.981557931303908"><ele>1116.1999999999998</ele><time>2026-04-26T11:20:53Z</time></trkpt><trkpt lat="45.62268661996902" lon="7.981592643568533"><ele>1113.8000000000002</ele><time>2026-04-26T11:20:54Z</time></trkpt><trkpt lat="45.6226027797567" lon="7.981678925951351"><ele>1111.4</ele><time>2026-04-26T11:20:55Z</time></trkpt><trkpt lat="45.6225135929522" lon="7.981779540545826"><ele>1109.0</ele><time>2026-04-26T11:20:56Z</time></trkpt><trkpt lat="45.62241251771788" lon="7.981889261190941"><ele>1105.5</ele><time>2026-04-26T11:20:57Z</time></trkpt><trkpt lat="45.622307287594886" lon="7.981980563735929"><ele>1102.0</ele><time>2026-04-26T11:20:58Z</time></trkpt><trkpt lat="45.6221971089876" lon="7.98203143609781"><ele>1098.5</ele><time>2026-04-26T11:20:59Z</time></trkpt><trkpt lat="45.62208783760123" lon="7.982012825647295"><ele>1095.0</ele><time>2026-04-26T11:21:00Z</time></trkpt><trkpt lat="45.62196853849121" lon="7.981965215694784"><ele>1088.75</ele><time>2026-04-26T11:21:01Z</time></trkpt><trkpt lat="45.62183459182598" lon="7.981907980800596"><ele>1082.5</ele><time>2026-04-26T11:21:02Z</time></trkpt><trkpt lat="45.621692058262994" lon="7.981863564862979"><ele>1076.25</ele><time>2026-04-26T11:21:03Z</time></trkpt><trkpt lat="45.621548133578344" lon="7.981802307533218"><ele>1070.0</ele><time>2026-04-26T11:21:04Z</time></trkpt><trkpt lat="45.62140805347434" lon="7.981742059283954"><ele>1076.5</ele><time>2026-04-26T11:21:05Z</time></trkpt><trkpt lat="45.621267104696756" lon="7.981674655540643"><ele>1083.0</ele><time>2026-04-26T11:21:06Z</time></trkpt><trkpt lat="45.62111994477514" lon="7.981651208493925"><ele>1089.5</ele><time>2026-04-26T11:21:07Z</time></trkpt><trkpt lat="45.62097489862963" lon="7.9816523102188475"><ele>1096.0</ele><time>2026-04-26T11:21:08Z</time></trkpt><trkpt lat="45.62083434869606" lon="7.981646275590455"><ele>1096.0</ele><time>2026-04-26T11:21:09Z</time></trkpt><trkpt lat="45.62069061561995" lon="7.981635942847204"><ele>1096.0</ele><time>2026-04-26T11:21:10Z</time></trkpt><trkpt lat="45.62055499145438" lon="7.981626982708026"><ele>1096.0</ele><time>2026-04-26T11:21:11Z</time></trkpt><trkpt lat="45.62045218529085" lon="7.98164704887202"><ele>1096.0</ele><time>2026-04-26T11:21:12Z</time></trkpt><trkpt lat="45.620361674592466" lon="7.981637181407122"><ele>1095.3333333333333</ele><time>2026-04-26T11:21:13Z</time></trkpt><trkpt lat="45.62026561450313" lon="7.981630137902453"><ele>1094.6666666666665</ele><time>2026-04-26T11:21:14Z</time></trkpt><trkpt lat="45.620174951086284" lon="7.981635860207818"><ele>1094.0</ele><time>2026-04-26T11:21:15Z</time></trkpt><trkpt lat="45.62009311254849" lon="7.981651580714349"><ele>1093.3333333333333</ele><time>2026-04-26T11:21:16Z</time></trkpt><trkpt lat="45.62002257612803" lon="7.981697868835417"><ele>1092.6666666666667</ele><time>2026-04-26T11:21:17Z</time></trkpt><trkpt lat="45.61997692998668" lon="7.981788520796069"><ele>1092.0</ele><time>2026-04-26T11:21:18Z</time></trkpt><trkpt lat="45.6199632978282" lon="7.981919785647956"><ele>1089.0</ele><time>2026-04-26T11:21:19Z</time></trkpt><trkpt lat="45.61999277745659" lon="7.9820732654237325"><ele>1086.0</ele><time>2026-04-26T11:21:20Z</time></trkpt><trkpt lat="45.62003022620512" lon="7.98224012091294"><ele>1083.0</ele><time>2026-04-26T11:21:21Z</time></trkpt><trkpt lat="45.62006859778442" lon="7.982406669124817"><ele>1080.0</ele><time>2026-04-26T11:21:22Z</time></trkpt><trkpt lat="45.62009564087927" lon="7.982576097172438"><ele>1076.4</ele><time>2026-04-26T11:21:23Z</time></trkpt><trkpt lat="45.62010230984376" lon="7.9827404235468356"><ele>1072.8</ele><time>2026-04-26T11:21:24Z</time></trkpt><trkpt lat="45.62008022708717" lon="7.982896898508335"><ele>1069.2</ele><time>2026-04-26T11:21:25Z</time></trkpt><trkpt lat="45.62003168280516" lon="7.98303132867895"><ele>1065.6</ele><time>2026-04-26T11:21:26Z</time></trkpt><trkpt lat="45.6199626061031" lon="7.983147988313124"><ele>1062.0</ele><time>2026-04-26T11:21:27Z</time></trkpt><trkpt lat="45.61987657573013" lon="7.983238896640499"><ele>1062.0</ele><time>2026-04-26T11:21:28Z</time></trkpt><trkpt lat="45.61978003109777" lon="7.98329577129216"><ele>1062.0</ele><time>2026-04-26T11:21:29Z</time></trkpt><trkpt lat="45.61967713817461" lon="7.983294881915448"><ele>1062.0</ele><time>2026-04-26T11:21:30Z</time></trkpt><trkpt lat="45.61958106046621" lon="7.983255147300445"><ele>1062.0</ele><time>2026-04-26T11:21:31Z</time></trkpt><trkpt lat="45.619491232966965" lon="7.983188619023698"><ele>1062.0</ele><time>2026-04-26T11:21:32Z</time></trkpt><trkpt lat="45.619410133000386" lon="7.983097458108934"><ele>1060.25</ele><time>2026-04-26T11:21:33Z</time></trkpt><trkpt lat="45.61932588029667" lon="7.982997490559299"><ele>1058.5</ele><time>2026-04-26T11:21:34Z</time></trkpt><trkpt lat="45.61922692371904" lon="7.982905742891372"><ele>1056.75</ele><time>2026-04-26T11:21:35Z</time></trkpt><trkpt lat="45.61912307047464" lon="7.982810282264217"><ele>1055.0</ele><time>2026-04-26T11:21:36Z</time></trkpt><trkpt lat="45.61901319731896" lon="7.982734345457874"><ele>1055.0</ele><time>2026-04-26T11:21:37Z</time></trkpt><trkpt lat="45.61890509866798" lon="7.982687765196071"><ele>1055.0</ele><time>2026-04-26T11:21:38Z</time></trkpt><trkpt lat="45.6188082698282" lon="7.98261850244148"><ele>1055.0</ele><time>2026-04-26T11:21:39Z</time></trkpt><trkpt lat="45.61868774426446" lon="7.9826025762165225"><ele>1055.0</ele><time>2026-04-26T11:21:40Z</time></trkpt><trkpt lat="45.61856197023583" lon="7.982656642581791"><ele>1048.75</ele><time>2026-04-26T11:21:41Z</time></trkpt><trkpt lat="45.61844078239931" lon="7.982678805403788"><ele>1042.5</ele><time>2026-04-26T11:21:42Z</time></trkpt><trkpt lat="45.61831197017593" lon="7.982677967076598"><ele>1036.25</ele><time>2026-04-26T11:21:43Z</time></trkpt><trkpt lat="45.618192810010925" lon="7.982631563828389"><ele>1030.0</ele><time>2026-04-26T11:21:44Z</time></trkpt><trkpt lat="45.61808210505257" lon="7.982561749490352"><ele>1038.0</ele><time>2026-04-26T11:21:45Z</time></trkpt><trkpt lat="45.617989691877646" lon="7.982479612341141"><ele>1046.0</ele><time>2026-04-26T11:21:46Z</time></trkpt><trkpt lat="45.61790020775326" lon="7.982392892663631"><ele>1054.0</ele><time>2026-04-26T11:21:47Z</time></trkpt><trkpt lat="45.617838132551476" lon="7.9822567904192825"><ele>1062.0</ele><time>2026-04-26T11:21:48Z</time></trkpt><trkpt lat="45.617732727941636" lon="7.982166168249808"><ele>1062.0</ele><time>2026-04-26T11:21:49Z</time></trkpt><trkpt lat="45.617609734209324" lon="7.98211458784864"><ele>1062.0</ele><time>2026-04-26T11:21:50Z</time></trkpt><trkpt lat="45.617482968269016" lon="7.982111975689924"><ele>1062.0</ele><time>2026-04-26T11:21:51Z</time></trkpt><trkpt lat="45.6173652126854" lon="7.982185872707995"><ele>1062.0</ele><time>2026-04-26T11:21:52Z</time></trkpt><trkpt lat="45.61725335037045" lon="7.982292928960459"><ele>1062.0</ele><time>2026-04-26T11:21:53Z</time></trkpt><trkpt lat="45.61714673710021" lon="7.9824105964321665"><ele>1062.0</ele><time>2026-04-26T11:21:54Z</time></trkpt><trkpt lat="45.61701695750743" lon="7.982502812067918"><ele>1062.0</ele><time>2026-04-26T11:21:55Z</time></trkpt><trkpt lat="45.61688725426605" lon="7.982613767836031"><ele>1062.0</ele><time>2026-04-26T11:21:56Z</time></trkpt><trkpt lat="45.61676281916175" lon="7.982716220912144"><ele>1057.0</ele><time>2026-04-26T11:21:57Z</time></trkpt><trkpt lat="45.616648526634215" lon="7.982806483745627"><ele>1052.0</ele><time>2026-04-26T11:21:58Z</time></trkpt><trkpt lat="45.61654783477208" lon="7.982900557048732"><ele>1047.0</ele><time>2026-04-26T11:21:59Z</time></trkpt><trkpt lat="45.61645960157827" lon="7.983012724206129"><ele>1042.0</ele><time>2026-04-26T11:22:00Z</time></trkpt><trkpt lat="45.61638928679826" lon="7.9831046243496475"><ele>1042.0</ele><time>2026-04-26T11:22:01Z</time></trkpt><trkpt lat="45.61631510578177" lon="7.9831856230779"><ele>1042.0</ele><time>2026-04-26T11:22:02Z</time></trkpt><trkpt lat="45.61624969403066" lon="7.983301313968422"><ele>1042.0</ele><time>2026-04-26T11:22:03Z</time></trkpt><trkpt lat="45.6161781635314" lon="7.983477003400171"><ele>1042.0</ele><time>2026-04-26T11:22:04Z</time></trkpt><trkpt lat="45.616131380265394" lon="7.983760020968115"><ele>1050.3333333333333</ele><time>2026-04-26T11:22:05Z</time></trkpt><trkpt lat="45.61612172024285" lon="7.983993277862533"><ele>1058.6666666666667</ele><time>2026-04-26T11:22:06Z</time></trkpt><trkpt lat="45.616109255100184" lon="7.984207347862652"><ele>1067.0</ele><time>2026-04-26T11:22:07Z</time></trkpt><trkpt lat="45.6160936398139" lon="7.9844467619145645"><ele>1067.0</ele><time>2026-04-26T11:22:08Z</time></trkpt><trkpt lat="45.616076155566645" lon="7.9847030249370885"><ele>1067.0</ele><time>2026-04-26T11:22:09Z</time></trkpt><trkpt lat="45.61606048671143" lon="7.984932680351072"><ele>1067.0</ele><time>2026-04-26T11:22:10Z</time></trkpt><trkpt lat="45.61604863511661" lon="7.985140134431521"><ele>1061.0</ele><time>2026-04-26T11:22:11Z</time></trkpt><trkpt lat="45.61603911327952" lon="7.9853316945527615"><ele>1055.0</ele><time>2026-04-26T11:22:12Z</time></trkpt><trkpt lat="45.61602517848762" lon="7.9855079876825235"><ele>1049.0</ele><time>2026-04-26T11:22:13Z</time></trkpt><trkpt lat="45.615996634279526" lon="7.985657378258453"><ele>1043.0</ele><time>2026-04-26T11:22:14Z</time></trkpt><trkpt lat="45.615945508828545" lon="7.985781306783486"><ele>1034.0</ele><time>2026-04-26T11:22:15Z</time></trkpt><trkpt lat="45.61587352634861" lon="7.985904703297376"><ele>1025.0</ele><time>2026-04-26T11:22:16Z</time></trkpt><trkpt lat="45.61577987468261" lon="7.985996759169828"><ele>1016.0</ele><time>2026-04-26T11:22:17Z</time></trkpt><trkpt lat="45.615661178843595" lon="7.986074181865186"><ele>1007.0</ele><time>2026-04-26T11:22:18Z</time></trkpt><trkpt lat="45.61553626882586" lon="7.986159192328203"><ele>1007.0</ele><time>2026-04-26T11:22:19Z</time></trkpt><trkpt lat="45.615424709935404" lon="7.986255942232639"><ele>1007.0</ele><time>2026-04-26T11:22:20Z</time></trkpt><trkpt lat="45.6153250911756" lon="7.986339675174423"><ele>1007.0</ele><time>2026-04-26T11:22:21Z</time></trkpt><trkpt lat="45.61522967663302" lon="7.9864364104879995"><ele>1007.0</ele><time>2026-04-26T11:22:22Z</time></trkpt><trkpt lat="45.615114724503115" lon="7.986462041360283"><ele>1009.75</ele><time>2026-04-26T11:22:23Z</time></trkpt><trkpt lat="45.61500142697697" lon="7.986452305721928"><ele>1012.5</ele><time>2026-04-26T11:22:24Z</time></trkpt><trkpt lat="45.614880634426" lon="7.986418254471084"><ele>1015.25</ele><time>2026-04-26T11:22:25Z</time></trkpt><trkpt lat="45.614753380515104" lon="7.98636261116448"><ele>1018.0</ele><time>2026-04-26T11:22:26Z</time></trkpt><trkpt lat="45.61461388410803" lon="7.986302350533427"><ele>1015.0</ele><time>2026-04-26T11:22:27Z</time></trkpt><trkpt lat="45.61445760457407" lon="7.986328723428276"><ele>1012.0</ele><time>2026-04-26T11:22:28Z</time></trkpt><trkpt lat="45.61430541601754" lon="7.986349112035902"><ele>1009.0</ele><time>2026-04-26T11:22:29Z</time></trkpt><trkpt lat="45.6141442831918" lon="7.986344643682083"><ele>1009.0</ele><time>2026-04-26T11:22:30Z</time></trkpt><trkpt lat="45.6139955152445" lon="7.986354180451882"><ele>1009.0</ele><time>2026-04-26T11:22:31Z</time></trkpt><trkpt lat="45.613850141132296" lon="7.986369067689836"><ele>1009.0</ele><time>2026-04-26T11:22:32Z</time></trkpt><trkpt lat="45.61372230389969" lon="7.986354118768325"><ele>1009.0</ele><time>2026-04-26T11:22:33Z</time></trkpt><trkpt lat="45.61361552071605" lon="7.986286344009721"><ele>1007.75</ele><time>2026-04-26T11:22:34Z</time></trkpt><trkpt lat="45.61349994120002" lon="7.986267991065431"><ele>1006.5</ele><time>2026-04-26T11:22:35Z</time></trkpt><trkpt lat="45.61334293089305" lon="7.986296745121398"><ele>1005.25</ele><time>2026-04-26T11:22:36Z</time></trkpt><trkpt lat="45.613225184465094" lon="7.986351295240974"><ele>1004.0</ele><time>2026-04-26T11:22:37Z</time></trkpt><trkpt lat="45.61308938757173" lon="7.9864250331882936"><ele>1004.0</ele><time>2026-04-26T11:22:38Z</time></trkpt><trkpt lat="45.61294073906127" lon="7.9864975017102715"><ele>1004.0</ele><time>2026-04-26T11:22:39Z</time></trkpt><trkpt lat="45.61284516742426" lon="7.986596091936776"><ele>1004.0</ele><time>2026-04-26T11:22:40Z</time></trkpt><trkpt lat="45.612785207730035" lon="7.986740594524485"><ele>1004.0</ele><time>2026-04-26T11:22:41Z</time></trkpt><trkpt lat="45.61273315846736" lon="7.986895022369138"><ele>1000.25</ele><time>2026-04-26T11:22:42Z</time></trkpt><trkpt lat="45.61267250169406" lon="7.987041691524522"><ele>996.5</ele><time>2026-04-26T11:22:43Z</time></trkpt><trkpt lat="45.61259994347287" lon="7.987189382014588"><ele>992.75</ele><time>2026-04-26T11:22:44Z</time></trkpt><trkpt lat="45.61249877012782" lon="7.987315739650162"><ele>989.0</ele><time>2026-04-26T11:22:45Z</time></trkpt><trkpt lat="45.612375070830375" lon="7.987416060374901"><ele>989.0</ele><time>2026-04-26T11:22:46Z</time></trkpt><trkpt lat="45.612228855734294" lon="7.987469184076261"><ele>989.0</ele><time>2026-04-26T11:22:47Z</time></trkpt><trkpt lat="45.61206590540672" lon="7.9875131600557525"><ele>989.0</ele><time>2026-04-26T11:22:48Z</time></trkpt><trkpt lat="45.61189167557799" lon="7.9875603712004315"><ele>982.0</ele><time>2026-04-26T11:22:49Z</time></trkpt><trkpt lat="45.61170700862244" lon="7.987609123268257"><ele>975.0</ele><time>2026-04-26T11:22:50Z</time></trkpt><trkpt lat="45.61150304021774" lon="7.9876613135040095"><ele>968.0</ele><time>2026-04-26T11:22:51Z</time></trkpt><trkpt lat="45.61129445317928" lon="7.987709371834493"><ele>965.3333333333334</ele><time>2026-04-26T11:22:52Z</time></trkpt><trkpt lat="45.61108611497224" lon="7.987773348726092"><ele>962.6666666666667</ele><time>2026-04-26T11:22:53Z</time></trkpt><trkpt lat="45.61088661057903" lon="7.987780943101104"><ele>960.0</ele><time>2026-04-26T11:22:54Z</time></trkpt><trkpt lat="45.6106948088324" lon="7.987813871057544"><ele>960.0</ele><time>2026-04-26T11:22:55Z</time></trkpt><trkpt lat="45.61051688290856" lon="7.9878600394092"><ele>960.0</ele><time>2026-04-26T11:22:56Z</time></trkpt><trkpt lat="45.610342468072275" lon="7.987931061476692"><ele>960.0</ele><time>2026-04-26T11:22:57Z</time></trkpt><trkpt lat="45.61018639205782" lon="7.987979815326538"><ele>957.75</ele><time>2026-04-26T11:22:58Z</time></trkpt><trkpt lat="45.61004212507576" lon="7.987977669174417"><ele>955.5</ele><time>2026-04-26T11:22:59Z</time></trkpt><trkpt lat="45.60991559174273" lon="7.987965085194347"><ele>953.25</ele><time>2026-04-26T11:23:00Z</time></trkpt><trkpt lat="45.609810939229796" lon="7.987950417010329"><ele>951.0</ele><time>2026-04-26T11:23:01Z</time></trkpt><trkpt lat="45.609674062355" lon="7.987899266198651"><ele>951.0</ele><time>2026-04-26T11:23:03Z</time></trkpt><trkpt lat="45.609609854945354" lon="7.987803073433161"><ele>950.9999999999999</ele><time>2026-04-26T11:23:04Z</time></trkpt><trkpt lat="45.609584388744274" lon="7.987653390437205"><ele>950.9999999999999</ele><time>2026-04-26T11:23:05Z</time></trkpt><trkpt lat="45.6095422386633" lon="7.987506303549082"><ele>951.0</ele><time>2026-04-26T11:23:06Z</time></trkpt><trkpt lat="45.609507905835144" lon="7.9873571971974755"><ele>951.0</ele><time>2026-04-26T11:23:07Z</time></trkpt><trkpt lat="45.609467960224016" lon="7.9872462654490795"><ele>955.8</ele><time>2026-04-26T11:23:08Z</time></trkpt><trkpt lat="45.60941220934718" lon="7.987163745764126"><ele>960.5999999999999</ele><time>2026-04-26T11:23:09Z</time></trkpt><trkpt lat="45.60932682825378" lon="7.987147328673521"><ele>965.4</ele><time>2026-04-26T11:23:10Z</time></trkpt><trkpt lat="45.60923105821861" lon="7.987185698626002"><ele>970.2</ele><time>2026-04-26T11:23:11Z</time></trkpt><trkpt lat="45.60915056769503" lon="7.987303102530103"><ele>975.0</ele><time>2026-04-26T11:23:12Z</time></trkpt><trkpt lat="45.60908926319351" lon="7.987452778186405"><ele>965.5</ele><time>2026-04-26T11:23:13Z</time></trkpt><trkpt lat="45.609016124177636" lon="7.987610682816401"><ele>956.0</ele><time>2026-04-26T11:23:14Z</time></trkpt><trkpt lat="45.60891274468679" lon="7.987738641237176"><ele>946.5</ele><time>2026-04-26T11:23:15Z</time></trkpt><trkpt lat="45.60882806369183" lon="7.987881562366223"><ele>937.0</ele><time>2026-04-26T11:23:16Z</time></trkpt><trkpt lat="45.60873408576486" lon="7.987969725461142"><ele>941.6</ele><time>2026-04-26T11:23:17Z</time></trkpt><trkpt lat="45.60863836555578" lon="7.988023513024585"><ele>946.2</ele><time>2026-04-26T11:23:18Z</time></trkpt><trkpt lat="45.60852582954065" lon="7.988016149092928"><ele>950.8</ele><time>2026-04-26T11:23:19Z</time></trkpt><trkpt lat="45.60841233680021" lon="7.988015898799667"><ele>955.4</ele><time>2026-04-26T11:23:20Z</time></trkpt><trkpt lat="45.608306454067765" lon="7.988037108443869"><ele>960.0</ele><time>2026-04-26T11:23:21Z</time></trkpt><trkpt lat="45.608218717115165" lon="7.98805406987955"><ele>960.0</ele><time>2026-04-26T11:23:22Z</time></trkpt><trkpt lat="45.60814184350026" lon="7.98812504918224"><ele>960.0</ele><time>2026-04-26T11:23:23Z</time></trkpt><trkpt lat="45.60809346729608" lon="7.988251831754052"><ele>960.0</ele><time>2026-04-26T11:23:24Z</time></trkpt><trkpt lat="45.60808608697099" lon="7.988409536439197"><ele>960.0</ele><time>2026-04-26T11:23:25Z</time></trkpt><trkpt lat="45.608118693259996" lon="7.988551814044448"><ele>960.0</ele><time>2026-04-26T11:23:26Z</time></trkpt><trkpt lat="45.60814576109181" lon="7.988714309798629"><ele>954.25</ele><time>2026-04-26T11:23:27Z</time></trkpt><trkpt lat="45.60812169601879" lon="7.988873988777909"><ele>948.5</ele><time>2026-04-26T11:23:28Z</time></trkpt><trkpt lat="45.60806471686423" lon="7.9890329955297705"><ele>942.75</ele><time>2026-04-26T11:23:29Z</time></trkpt><trkpt lat="45.607993887384936" lon="7.989205667380826"><ele>937.0</ele><time>2026-04-26T11:23:30Z</time></trkpt><trkpt lat="45.60789712663052" lon="7.9893797862457925"><ele>941.5</ele><time>2026-04-26T11:23:31Z</time></trkpt><trkpt lat="45.607787149911516" lon="7.989541055542237"><ele>946.0</ele><time>2026-04-26T11:23:32Z</time></trkpt><trkpt lat="45.60768374733662" lon="7.98969960724186"><ele>950.5</ele><time>2026-04-26T11:23:33Z</time></trkpt><trkpt lat="45.60759651895636" lon="7.989851949959707"><ele>955.0</ele><time>2026-04-26T11:23:34Z</time></trkpt><trkpt lat="45.6075088974569" lon="7.990000853727239"><ele>950.75</ele><time>2026-04-26T11:23:35Z</time></trkpt><trkpt lat="45.6074321393922" lon="7.9901485680530655"><ele>946.5</ele><time>2026-04-26T11:23:36Z</time></trkpt><trkpt lat="45.60737615954576" lon="7.990308230988597"><ele>942.25</ele><time>2026-04-26T11:23:37Z</time></trkpt><trkpt lat="45.60734341270557" lon="7.9904754455449485"><ele>938.0</ele><time>2026-04-26T11:23:38Z</time></trkpt><trkpt lat="45.607327313228964" lon="7.990650397348987"><ele>938.0</ele><time>2026-04-26T11:23:39Z</time></trkpt><trkpt lat="45.60731839806058" lon="7.990814531240864"><ele>938.0</ele><time>2026-04-26T11:23:40Z</time></trkpt><trkpt lat="45.60730888605432" lon="7.990979928311369"><ele>938.0</ele><time>2026-04-26T11:23:41Z</time></trkpt><trkpt lat="45.607305810268954" lon="7.991144662368608"><ele>938.0</ele><time>2026-04-26T11:23:42Z</time></trkpt><trkpt lat="45.607302788746765" lon="7.9913070645918145"><ele>936.4</ele><time>2026-04-26T11:23:43Z</time></trkpt><trkpt lat="45.60728216771989" lon="7.991460523063716"><ele>934.8</ele><time>2026-04-26T11:23:44Z</time></trkpt><trkpt lat="45.60722518389916" lon="7.991591196936303"><ele>933.2</ele><time>2026-04-26T11:23:45Z</time></trkpt><trkpt lat="45.60712763311032" lon="7.991669206652311"><ele>931.6</ele><time>2026-04-26T11:23:46Z</time></trkpt><trkpt lat="45.60701995802485" lon="7.991740284045141"><ele>930.0</ele><time>2026-04-26T11:23:47Z</time></trkpt><trkpt lat="45.60690706271505" lon="7.991831906599158"><ele>930.0</ele><time>2026-04-26T11:23:48Z</time></trkpt><trkpt lat="45.606809880381384" lon="7.991977039825882"><ele>930.0</ele><time>2026-04-26T11:23:49Z</time></trkpt><trkpt lat="45.60671033385026" lon="7.992132599314832"><ele>930.0</ele><time>2026-04-26T11:23:50Z</time></trkpt><trkpt lat="45.60662578959332" lon="7.992321135797426"><ele>930.0</ele><time>2026-04-26T11:23:51Z</time></trkpt><trkpt lat="45.60653786081462" lon="7.992529909564413"><ele>924.0</ele><time>2026-04-26T11:23:52Z</time></trkpt><trkpt lat="45.60644315004167" lon="7.992745829285234"><ele>918.0</ele><time>2026-04-26T11:23:53Z</time></trkpt><trkpt lat="45.60634393879915" lon="7.992960399297994"><ele>912.0</ele><time>2026-04-26T11:23:54Z</time></trkpt><trkpt lat="45.60624785755535" lon="7.993171849765601"><ele>914.3333333333333</ele><time>2026-04-26T11:23:55Z</time></trkpt><trkpt lat="45.60616287281728" lon="7.9933806749727205"><ele>916.6666666666666</ele><time>2026-04-26T11:23:56Z</time></trkpt><trkpt lat="45.606069118656926" lon="7.993566326095886"><ele>919.0</ele><time>2026-04-26T11:23:57Z</time></trkpt><trkpt lat="45.60599310973499" lon="7.993744092211317"><ele>919.0</ele><time>2026-04-26T11:23:58Z</time></trkpt><trkpt lat="45.605912240468186" lon="7.99390934161796"><ele>919.0</ele><time>2026-04-26T11:23:59Z</time></trkpt><trkpt lat="45.60581995660328" lon="7.9940358899040245"><ele>919.0</ele><time>2026-04-26T11:24:00Z</time></trkpt><trkpt lat="45.60570503058706" lon="7.994143292212897"><ele>919.0</ele><time>2026-04-26T11:24:01Z</time></trkpt><trkpt lat="45.60558987599587" lon="7.994248800712484"><ele>913.5</ele><time>2026-04-26T11:24:02Z</time></trkpt><trkpt lat="45.60547689113756" lon="7.994307720345613"><ele>908.0</ele><time>2026-04-26T11:24:03Z</time></trkpt><trkpt lat="45.6053640656738" lon="7.994339511246895"><ele>902.5</ele><time>2026-04-26T11:24:04Z</time></trkpt><trkpt lat="45.60524435787703" lon="7.994342030771065"><ele>897.0</ele><time>2026-04-26T11:24:05Z</time></trkpt><trkpt lat="45.60511813248237" lon="7.994316978742336"><ele>897.0</ele><time>2026-04-26T11:24:06Z</time></trkpt><trkpt lat="45.60498963574398" lon="7.994275461021491"><ele>897.0</ele><time>2026-04-26T11:24:07Z</time></trkpt><trkpt lat="45.604867270729706" lon="7.994244994885988"><ele>897.0</ele><time>2026-04-26T11:24:08Z</time></trkpt><trkpt lat="45.604746369375405" lon="7.994262691869422"><ele>897.0</ele><time>2026-04-26T11:24:09Z</time></trkpt><trkpt lat="45.60463362518809" lon="7.9943192699451355"><ele>897.0</ele><time>2026-04-26T11:24:10Z</time></trkpt><trkpt lat="45.60452761739892" lon="7.99439908729389"><ele>897.0</ele><time>2026-04-26T11:24:11Z</time></trkpt><trkpt lat="45.604427320304396" lon="7.994504150476789"><ele>897.0</ele><time>2026-04-26T11:24:12Z</time></trkpt><trkpt lat="45.60437993269248" lon="7.994678573551195"><ele>897.0</ele><time>2026-04-26T11:24:13Z</time></trkpt><trkpt lat="45.60435831199033" lon="7.994867011057438"><ele>895.6666666666667</ele><time>2026-04-26T11:24:14Z</time></trkpt><trkpt lat="45.60432976066696" lon="7.995068561738667"><ele>894.3333333333334</ele><time>2026-04-26T11:24:15Z</time></trkpt><trkpt lat="45.60423214026453" lon="7.99523655933432"><ele>893.0</ele><time>2026-04-26T11:24:16Z</time></trkpt><trkpt lat="45.604141660645766" lon="7.995432285472012"><ele>893.0</ele><time>2026-04-26T11:24:17Z</time></trkpt><trkpt lat="45.6040263628677" lon="7.995612957054704"><ele>893.0</ele><time>2026-04-26T11:24:18Z</time></trkpt><trkpt lat="45.603921105514665" lon="7.995796990544317"><ele>893.0</ele><time>2026-04-26T11:24:19Z</time></trkpt><trkpt lat="45.60382124533005" lon="7.995979388303313"><ele>891.75</ele><time>2026-04-26T11:24:20Z</time></trkpt><trkpt lat="45.603729456046075" lon="7.9961392151548365"><ele>890.5</ele><time>2026-04-26T11:24:21Z</time></trkpt><trkpt lat="45.603657772984555" lon="7.996288549990033"><ele>889.25</ele><time>2026-04-26T11:24:22Z</time></trkpt><trkpt lat="45.60358443399884" lon="7.996408770643474"><ele>888.0</ele><time>2026-04-26T11:24:23Z</time></trkpt><trkpt lat="45.60352429491785" lon="7.996508082276239"><ele>888.0</ele><time>2026-04-26T11:24:24Z</time></trkpt><trkpt lat="45.60346340721832" lon="7.996596322184544"><ele>888.0</ele><time>2026-04-26T11:24:25Z</time></trkpt><trkpt lat="45.60338210935619" lon="7.996654074066294"><ele>888.0</ele><time>2026-04-26T11:24:26Z</time></trkpt><trkpt lat="45.60328466706013" lon="7.996702301459869"><ele>888.0</ele><time>2026-04-26T11:24:27Z</time></trkpt><trkpt lat="45.60316258681135" lon="7.9967194360378695"><ele>888.0</ele><time>2026-04-26T11:24:28Z</time></trkpt><trkpt lat="45.603039215562276" lon="7.996745495333048"><ele>886.0</ele><time>2026-04-26T11:24:29Z</time></trkpt><trkpt lat="45.60291761931367" lon="7.996778970157643"><ele>884.0</ele><time>2026-04-26T11:24:30Z</time></trkpt><trkpt lat="45.60281763465626" lon="7.996797549762894"><ele>882.0</ele><time>2026-04-26T11:24:31Z</time></trkpt><trkpt lat="45.60273782620197" lon="7.996821839655178"><ele>880.0</ele><time>2026-04-26T11:24:32Z</time></trkpt><trkpt lat="45.602659679507504" lon="7.9968848600714315"><ele>878.0</ele><time>2026-04-26T11:24:33Z</time></trkpt><trkpt lat="45.60259153799869" lon="7.997009411394072"><ele>878.0</ele><time>2026-04-26T11:24:34Z</time></trkpt><trkpt lat="45.602523980711766" lon="7.997156402923195"><ele>878.0</ele><time>2026-04-26T11:24:35Z</time></trkpt><trkpt lat="45.60246278952188" lon="7.997298260065522"><ele>878.0</ele><time>2026-04-26T11:24:36Z</time></trkpt><trkpt lat="45.60243340415355" lon="7.997443312344028"><ele>878.0</ele><time>2026-04-26T11:24:37Z</time></trkpt><trkpt lat="45.602434096480266" lon="7.9976087567468355"><ele>875.0000000000001</ele><time>2026-04-26T11:24:38Z</time></trkpt><trkpt lat="45.60245840298119" lon="7.997751112206521"><ele>872.0</ele><time>2026-04-26T11:24:39Z</time></trkpt><trkpt lat="45.60246611135141" lon="7.9978739179387555"><ele>869.0</ele><time>2026-04-26T11:24:40Z</time></trkpt><trkpt lat="45.60245214072659" lon="7.997971389732185"><ele>866.0</ele><time>2026-04-26T11:24:41Z</time></trkpt><trkpt lat="45.60241152719758" lon="7.9980548246243535"><ele>863.0000000000001</ele><time>2026-04-26T11:24:42Z</time></trkpt><trkpt lat="45.60235620855483" lon="7.998122824222058"><ele>860.0</ele><time>2026-04-26T11:24:43Z</time></trkpt><trkpt lat="45.60228229676207" lon="7.998153102216142"><ele>860.0</ele><time>2026-04-26T11:24:44Z</time></trkpt><trkpt lat="45.60219986748574" lon="7.998139765846658"><ele>860.0</ele><time>2026-04-26T11:24:45Z</time></trkpt><trkpt lat="45.60210777971322" lon="7.998076796236953"><ele>860.0</ele><time>2026-04-26T11:24:46Z</time></trkpt><trkpt lat="45.602010003740936" lon="7.998016814817483"><ele>860.0</ele><time>2026-04-26T11:24:47Z</time></trkpt><trkpt lat="45.601897781045274" lon="7.997978876589905"><ele>860.0</ele><time>2026-04-26T11:24:48Z</time></trkpt><trkpt lat="45.601779040510564" lon="7.997964415346138"><ele>861.5</ele><time>2026-04-26T11:24:49Z</time></trkpt><trkpt lat="45.60166614771155" lon="7.9979810134669025"><ele>863.0</ele><time>2026-04-26T11:24:50Z</time></trkpt><trkpt lat="45.60156185183928" lon="7.998049878991468"><ele>864.5</ele><time>2026-04-26T11:24:51Z</time></trkpt><trkpt lat="45.60147598609002" lon="7.998166951832214"><ele>866.0</ele><time>2026-04-26T11:24:52Z</time></trkpt><trkpt lat="45.60140929656304" lon="7.998316341773501"><ele>861.0</ele><time>2026-04-26T11:24:53Z</time></trkpt><trkpt lat="45.60136066059008" lon="7.998461642625411"><ele>856.0</ele><time>2026-04-26T11:24:54Z</time></trkpt><trkpt lat="45.601342095277715" lon="7.998616968110942"><ele>851.0</ele><time>2026-04-26T11:24:55Z</time></trkpt><trkpt lat="45.60135807250672" lon="7.998780182541482"><ele>846.0</ele><time>2026-04-26T11:24:56Z</time></trkpt><trkpt lat="45.60136756582426" lon="7.998942169857877"><ele>846.0</ele><time>2026-04-26T11:24:57Z</time></trkpt><trkpt lat="45.60135186679888" lon="7.999157697116097"><ele>846.0</ele><time>2026-04-26T11:24:58Z</time></trkpt><trkpt lat="45.601290765864704" lon="7.99931388329208"><ele>846.0</ele><time>2026-04-26T11:24:59Z</time></trkpt><trkpt lat="45.60120784186353" lon="7.9994856100805976"><ele>846.0</ele><time>2026-04-26T11:25:00Z</time></trkpt><trkpt lat="45.601135661807994" lon="7.999641311264417"><ele>844.0</ele><time>2026-04-26T11:25:01Z</time></trkpt><trkpt lat="45.601076591877316" lon="7.99975944791385"><ele>842.0</ele><time>2026-04-26T11:25:02Z</time></trkpt><trkpt lat="45.601012220621946" lon="7.9998503498724585"><ele>840.0</ele><time>2026-04-26T11:25:03Z</time></trkpt><trkpt lat="45.600923024485986" lon="7.999913081138748"><ele>838.0</ele><time>2026-04-26T11:25:04Z</time></trkpt><trkpt lat="45.60081573207806" lon="7.999946127689467"><ele>836.0</ele><time>2026-04-26T11:25:05Z</time></trkpt><trkpt lat="45.60071046828195" lon="7.9999590376238565"><ele>836.0</ele><time>2026-04-26T11:25:06Z</time></trkpt><trkpt lat="45.60062239327098" lon="7.999895214308276"><ele>836.0</ele><time>2026-04-26T11:25:07Z</time></trkpt><trkpt lat="45.600547139530015" lon="7.999814115886129"><ele>836.0</ele><time>2026-04-26T11:25:08Z</time></trkpt><trkpt lat="45.60045843691557" lon="7.999716701557953"><ele>836.0</ele><time>2026-04-26T11:25:09Z</time></trkpt><trkpt lat="45.60036243948194" lon="7.999644455869022"><ele>836.0</ele><time>2026-04-26T11:25:10Z</time></trkpt><trkpt lat="45.60027374058337" lon="7.999580728888853"><ele>836.5999999999999</ele><time>2026-04-26T11:25:11Z</time></trkpt><trkpt lat="45.60017659564134" lon="7.99960137742911"><ele>837.2</ele><time>2026-04-26T11:25:12Z</time></trkpt><trkpt lat="45.60008596139698" lon="7.999657648449665"><ele>837.8</ele><time>2026-04-26T11:25:13Z</time></trkpt><trkpt lat="45.60002501340185" lon="7.999762073157389"><ele>838.4000000000001</ele><time>2026-04-26T11:25:14Z</time></trkpt><trkpt lat="45.59998841518491" lon="7.999909045647917"><ele>839.0</ele><time>2026-04-26T11:25:15Z</time></trkpt><trkpt lat="45.59996408778298" lon="8.000082969608732"><ele>839.0</ele><time>2026-04-26T11:25:16Z</time></trkpt><trkpt lat="45.59994169371855" lon="8.000265265807158"><ele>839.0</ele><time>2026-04-26T11:25:17Z</time></trkpt><trkpt lat="45.59990634610478" lon="8.000443895376023"><ele>839.0</ele><time>2026-04-26T11:25:18Z</time></trkpt><trkpt lat="45.59984613061639" lon="8.000608476798883"><ele>839.0</ele><time>2026-04-26T11:25:19Z</time></trkpt><trkpt lat="45.599771432792224" lon="8.00076089357084"><ele>834.75</ele><time>2026-04-26T11:25:20Z</time></trkpt><trkpt lat="45.59970131708485" lon="8.000916403473616"><ele>830.5</ele><time>2026-04-26T11:25:21Z</time></trkpt><trkpt lat="45.59964120909904" lon="8.001078103927144"><ele>826.25</ele><time>2026-04-26T11:25:22Z</time></trkpt><trkpt lat="45.59958284086677" lon="8.001243527253198"><ele>822.0</ele><time>2026-04-26T11:25:23Z</time></trkpt><trkpt lat="45.599524479924625" lon="8.001405585044202"><ele>823.0</ele><time>2026-04-26T11:25:24Z</time></trkpt><trkpt lat="45.59947382445467" lon="8.001558031246969"><ele>824.0</ele><time>2026-04-26T11:25:25Z</time></trkpt><trkpt lat="45.59944682773394" lon="8.001704912818152"><ele>825.0</ele><time>2026-04-26T11:25:26Z</time></trkpt><trkpt lat="45.59942997907972" lon="8.001836284461916"><ele>826.0</ele><time>2026-04-26T11:25:27Z</time></trkpt><trkpt lat="45.599384394300436" lon="8.001936813582375"><ele>827.0</ele><time>2026-04-26T11:25:28Z</time></trkpt><trkpt lat="45.59931377833865" lon="8.002013302558034"><ele>824.0</ele><time>2026-04-26T11:25:29Z</time></trkpt><trkpt lat="45.599231559197236" lon="8.002056081423836"><ele>821.0</ele><time>2026-04-26T11:25:30Z</time></trkpt><trkpt lat="45.599128136424554" lon="8.002059631783357"><ele>818.0</ele><time>2026-04-26T11:25:31Z</time></trkpt><trkpt lat="45.59902003723228" lon="8.002038051292777"><ele>815.0</ele><time>2026-04-26T11:25:32Z</time></trkpt><trkpt lat="45.59891311312774" lon="8.001990111937353"><ele>812.0</ele><time>2026-04-26T11:25:33Z</time></trkpt><trkpt lat="45.598813806524554" lon="8.001898358421645"><ele>812.0</ele><time>2026-04-26T11:25:34Z</time></trkpt><trkpt lat="45.59872495759326" lon="8.001772561224529"><ele>812.0</ele><time>2026-04-26T11:25:35Z</time></trkpt><trkpt lat="45.59866619934567" lon="8.001597491938151"><ele>812.0</ele><time>2026-04-26T11:25:36Z</time></trkpt><trkpt lat="45.59857707973819" lon="8.0014283059686"><ele>812.0</ele><time>2026-04-26T11:25:37Z</time></trkpt><trkpt lat="45.59850071216374" lon="8.001229937945721"><ele>812.3333333333334</ele><time>2026-04-26T11:25:38Z</time></trkpt><trkpt lat="45.598421378756115" lon="8.001026978447673"><ele>812.6666666666667</ele><time>2026-04-26T11:25:39Z</time></trkpt><trkpt lat="45.5983455132602" lon="8.000822245627235"><ele>813.0</ele><time>2026-04-26T11:25:40Z</time></trkpt><trkpt lat="45.5982735924931" lon="8.000641443287988"><ele>813.0</ele><time>2026-04-26T11:25:41Z</time></trkpt><trkpt lat="45.5981967885236" lon="8.000442985663616"><ele>813.0</ele><time>2026-04-26T11:25:42Z</time></trkpt><trkpt lat="45.59814029631678" lon="8.000341982248793"><ele>813.0</ele><time>2026-04-26T11:25:43Z</time></trkpt><trkpt lat="45.59808994413918" lon="8.000206297324265"><ele>813.0</ele><time>2026-04-26T11:25:44Z</time></trkpt><trkpt lat="45.59802561647548" lon="8.000103533757073"><ele>813.0</ele><time>2026-04-26T11:25:45Z</time></trkpt><trkpt lat="45.59792994554711" lon="8.000044881702562"><ele>813.0</ele><time>2026-04-26T11:25:46Z</time></trkpt><trkpt lat="45.59782003614995" lon="8.000023778262875"><ele>813.0</ele><time>2026-04-26T11:25:47Z</time></trkpt><trkpt lat="45.59771082209263" lon="8.000013374590745"><ele>813.0</ele><time>2026-04-26T11:25:48Z</time></trkpt><trkpt lat="45.59761948558918" lon="7.999964917814562"><ele>813.0</ele><time>2026-04-26T11:25:49Z</time></trkpt><trkpt lat="45.59755269790279" lon="7.9998599092810885"><ele>806.0</ele><time>2026-04-26T11:25:50Z</time></trkpt><trkpt lat="45.59756823574602" lon="7.999702164429524"><ele>799.0</ele><time>2026-04-26T11:25:51Z</time></trkpt><trkpt lat="45.59758813910701" lon="7.999551308219005"><ele>792.0</ele><time>2026-04-26T11:25:52Z</time></trkpt><trkpt lat="45.59765880264669" lon="7.99941615041204"><ele>785.0</ele><time>2026-04-26T11:25:53Z</time></trkpt><trkpt lat="45.597740046015645" lon="7.999249749278165"><ele>786.4</ele><time>2026-04-26T11:25:54Z</time></trkpt><trkpt lat="45.59779242782126" lon="7.999092847744854"><ele>787.8</ele><time>2026-04-26T11:25:55Z</time></trkpt><trkpt lat="45.59782392716943" lon="7.998955181184502"><ele>789.2</ele><time>2026-04-26T11:25:56Z</time></trkpt><trkpt lat="45.59777121698123" lon="7.998818380947122"><ele>790.6</ele><time>2026-04-26T11:25:57Z</time></trkpt><trkpt lat="45.597713214758876" lon="7.998718474353222"><ele>792.0</ele><time>2026-04-26T11:25:58Z</time></trkpt><trkpt lat="45.597622419709566" lon="7.998666842399194"><ele>792.0</ele><time>2026-04-26T11:25:59Z</time></trkpt><trkpt lat="45.59752445697223" lon="7.998699984084578"><ele>792.0</ele><time>2026-04-26T11:26:00Z</time></trkpt><trkpt lat="45.59743751075649" lon="7.998807351385065"><ele>792.0</ele><time>2026-04-26T11:26:01Z</time></trkpt><trkpt lat="45.5973877238031" lon="7.998971628417545"><ele>792.0</ele><time>2026-04-26T11:26:02Z</time></trkpt><trkpt lat="45.59737563657763" lon="7.9991683356430805"><ele>790.25</ele><time>2026-04-26T11:26:03Z</time></trkpt><trkpt lat="45.597368179484434" lon="7.999379576846125"><ele>788.5</ele><time>2026-04-26T11:26:04Z</time></trkpt><trkpt lat="45.5973321530608" lon="7.9995767815795045"><ele>786.75</ele><time>2026-04-26T11:26:05Z</time></trkpt><trkpt lat="45.59729639907357" lon="7.999766092758585"><ele>785.0</ele><time>2026-04-26T11:26:06Z</time></trkpt><trkpt lat="45.5972963437704" lon="7.999964326881988"><ele>785.0</ele><time>2026-04-26T11:26:07Z</time></trkpt><trkpt lat="45.59733297516239" lon="8.000171867402035"><ele>785.0</ele><time>2026-04-26T11:26:08Z</time></trkpt><trkpt lat="45.597391278010726" lon="8.00039227793549"><ele>785.0</ele><time>2026-04-26T11:26:09Z</time></trkpt><trkpt lat="45.59746747035064" lon="8.000605686157279"><ele>785.0</ele><time>2026-04-26T11:26:10Z</time></trkpt><trkpt lat="45.5975637837108" lon="8.000831301954399"><ele>785.0</ele><time>2026-04-26T11:26:11Z</time></trkpt><trkpt lat="45.59764652152521" lon="8.00108000027488"><ele>785.0</ele><time>2026-04-26T11:26:12Z</time></trkpt><trkpt lat="45.59772508693646" lon="8.001340515733505"><ele>786.6666666666667</ele><time>2026-04-26T11:26:13Z</time></trkpt><trkpt lat="45.597789935010084" lon="8.00161201632583"><ele>788.3333333333333</ele><time>2026-04-26T11:26:14Z</time></trkpt><trkpt lat="45.59784358871422" lon="8.001852199730207"><ele>790.0</ele><time>2026-04-26T11:26:15Z</time></trkpt><trkpt lat="45.59788456656463" lon="8.00207398157101"><ele>790.0</ele><time>2026-04-26T11:26:16Z</time></trkpt><trkpt lat="45.597921051673794" lon="8.002260026976918"><ele>790.0</ele><time>2026-04-26T11:26:17Z</time></trkpt><trkpt lat="45.59794394954099" lon="8.002427009880257"><ele>790.0</ele><time>2026-04-26T11:26:18Z</time></trkpt><trkpt lat="45.597940944851096" lon="8.00258298797776"><ele>790.0</ele><time>2026-04-26T11:26:19Z</time></trkpt><trkpt lat="45.59790134312962" lon="8.00274427482693"><ele>781.5</ele><time>2026-04-26T11:26:20Z</time></trkpt><trkpt lat="45.59782975791147" lon="8.002908789113137"><ele>773.0</ele><time>2026-04-26T11:26:21Z</time></trkpt><trkpt lat="45.597743713897934" lon="8.003077118278263"><ele>764.5</ele><time>2026-04-26T11:26:22Z</time></trkpt><trkpt lat="45.59764356018845" lon="8.003250382977221"><ele>756.0</ele><time>2026-04-26T11:26:23Z</time></trkpt><trkpt lat="45.59755008451673" lon="8.003412146805607"><ele>755.5</ele><time>2026-04-26T11:26:24Z</time></trkpt><trkpt lat="45.59747301145258" lon="8.003562239033212"><ele>755.0</ele><time>2026-04-26T11:26:25Z</time></trkpt><trkpt lat="45.597411051460256" lon="8.003724331382458"><ele>754.5</ele><time>2026-04-26T11:26:26Z</time></trkpt><trkpt lat="45.597370758906244" lon="8.003898633968046"><ele>754.0</ele><time>2026-04-26T11:26:27Z</time></trkpt><trkpt lat="45.59735820658102" lon="8.004082414161394"><ele>754.75</ele><time>2026-04-26T11:26:28Z</time></trkpt><trkpt lat="45.59737501477259" lon="8.004279193574494"><ele>755.5</ele><time>2026-04-26T11:26:29Z</time></trkpt><trkpt lat="45.59741667589343" lon="8.004483994218464"><ele>756.25</ele><time>2026-04-26T11:26:30Z</time></trkpt><trkpt lat="45.597468906750485" lon="8.004682179800678"><ele>757.0</ele><time>2026-04-26T11:26:31Z</time></trkpt><trkpt lat="45.59751025477606" lon="8.004888783563128"><ele>756.75</ele><time>2026-04-26T11:26:32Z</time></trkpt><trkpt lat="45.597488686394094" lon="8.005092275430796"><ele>756.5</ele><time>2026-04-26T11:26:33Z</time></trkpt><trkpt lat="45.597475413358765" lon="8.005309628393434"><ele>756.25</ele><time>2026-04-26T11:26:34Z</time></trkpt><trkpt lat="45.59743689229156" lon="8.005517553405808"><ele>756.0</ele><time>2026-04-26T11:26:35Z</time></trkpt><trkpt lat="45.597415679819846" lon="8.00572189576304"><ele>756.0</ele><time>2026-04-26T11:26:36Z</time></trkpt><trkpt lat="45.59739317070202" lon="8.005927025004658"><ele>756.0</ele><time>2026-04-26T11:26:37Z</time></trkpt><trkpt lat="45.5973516257671" lon="8.00611961978042"><ele>756.0</ele><time>2026-04-26T11:26:38Z</time></trkpt><trkpt lat="45.5972816938614" lon="8.006309244298258"><ele>756.0</ele><time>2026-04-26T11:26:39Z</time></trkpt><trkpt lat="45.597199952045436" lon="8.00650387846163"><ele>756.6666666666666</ele><time>2026-04-26T11:26:40Z</time></trkpt><trkpt lat="45.59712475011713" lon="8.006683835311074"><ele>757.3333333333333</ele><time>2026-04-26T11:26:41Z</time></trkpt><trkpt lat="45.59705110681556" lon="8.006870284664853"><ele>758.0</ele><time>2026-04-26T11:26:42Z</time></trkpt><trkpt lat="45.59696454166947" lon="8.007051387393433"><ele>748.0</ele><time>2026-04-26T11:26:43Z</time></trkpt><trkpt lat="45.5968569216143" lon="8.007203214232812"><ele>738.0</ele><time>2026-04-26T11:26:44Z</time></trkpt><trkpt lat="45.59672644009909" lon="8.00733948544185"><ele>728.0</ele><time>2026-04-26T11:26:45Z</time></trkpt><trkpt lat="45.59658872861073" lon="8.007463978843576"><ele>731.3333333333333</ele><time>2026-04-26T11:26:46Z</time></trkpt><trkpt lat="45.59644185313215" lon="8.007597132143728"><ele>734.6666666666666</ele><time>2026-04-26T11:26:47Z</time></trkpt><trkpt lat="45.59629963840966" lon="8.007736480800867"><ele>738.0</ele><time>2026-04-26T11:26:48Z</time></trkpt><trkpt lat="45.5961704042596" lon="8.00786350490309"><ele>732.25</ele><time>2026-04-26T11:26:49Z</time></trkpt><trkpt lat="45.596057592286655" lon="8.007967610788167"><ele>726.5</ele><time>2026-04-26T11:26:50Z</time></trkpt><trkpt lat="45.595971352255816" lon="8.008065125827612"><ele>720.75</ele><time>2026-04-26T11:26:51Z</time></trkpt><trkpt lat="45.595905743913555" lon="8.008171121146292"><ele>715.0</ele><time>2026-04-26T11:26:52Z</time></trkpt><trkpt lat="45.595877614454885" lon="8.008323922123964"><ele>718.4</ele><time>2026-04-26T11:26:53Z</time></trkpt><trkpt lat="45.595859202907675" lon="8.008501051325936"><ele>721.8</ele><time>2026-04-26T11:26:54Z</time></trkpt><trkpt lat="45.59583921477794" lon="8.008651473547054"><ele>725.2</ele><time>2026-04-26T11:26:55Z</time></trkpt><trkpt lat="45.59580949019463" lon="8.00879496251111"><ele>728.6</ele><time>2026-04-26T11:26:56Z</time></trkpt><trkpt lat="45.59578176591864" lon="8.00893948211794"><ele>732.0</ele><time>2026-04-26T11:26:57.019Z</time></trkpt><trkpt lat="45.59575682876832" lon="8.009088923870848"><ele>732.25</ele><time>2026-04-26T11:26:58.021Z</time></trkpt><trkpt lat="45.59573955763872" lon="8.009237951400847"><ele>732.5</ele><time>2026-04-26T11:26:59Z</time></trkpt><trkpt lat="45.59567111554546" lon="8.009495773289325"><ele>732.75</ele><time>2026-04-26T11:27:00Z</time></trkpt><trkpt lat="45.59556351685055" lon="8.009620645450463"><ele>733.0</ele><time>2026-04-26T11:27:01Z</time></trkpt><trkpt lat="45.59543448956705" lon="8.009724544862932"><ele>732.5</ele><time>2026-04-26T11:27:02Z</time></trkpt><trkpt lat="45.595305366799124" lon="8.009833213745901"><ele>732.0</ele><time>2026-04-26T11:27:03Z</time></trkpt><trkpt lat="45.59518943862273" lon="8.009951455439664"><ele>731.5</ele><time>2026-04-26T11:27:04Z</time></trkpt><trkpt lat="45.59509238252478" lon="8.010088608634456"><ele>731.0</ele><time>2026-04-26T11:27:05Z</time></trkpt><trkpt lat="45.59501215992914" lon="8.010245267473419"><ele>732.25</ele><time>2026-04-26T11:27:06Z</time></trkpt><trkpt lat="45.594947173660984" lon="8.010424067755665"><ele>733.5</ele><time>2026-04-26T11:27:07Z</time></trkpt><trkpt lat="45.59489941896445" lon="8.010620561444375"><ele>734.75</ele><time>2026-04-26T11:27:08Z</time></trkpt><trkpt lat="45.59488699066386" lon="8.010817718548521"><ele>736.0</ele><time>2026-04-26T11:27:09Z</time></trkpt><trkpt lat="45.59486673127171" lon="8.010994492694746"><ele>736.5999999999999</ele><time>2026-04-26T11:27:10Z</time></trkpt><trkpt lat="45.59480837930083" lon="8.011134117257305"><ele>737.2</ele><time>2026-04-26T11:27:11Z</time></trkpt><trkpt lat="45.594731302480675" lon="8.011239895897996"><ele>737.8</ele><time>2026-04-26T11:27:12Z</time></trkpt><trkpt lat="45.59464451080992" lon="8.011298706727246"><ele>738.4000000000001</ele><time>2026-04-26T11:27:13Z</time></trkpt><trkpt lat="45.59455561852492" lon="8.01133914648088"><ele>739.0</ele><time>2026-04-26T11:27:14Z</time></trkpt><trkpt lat="45.59449523001911" lon="8.011406679256453"><ele>739.0</ele><time>2026-04-26T11:27:15Z</time></trkpt><trkpt lat="45.59446025454698" lon="8.011502314394987"><ele>739.0</ele><time>2026-04-26T11:27:16Z</time></trkpt><trkpt lat="45.59445325752479" lon="8.011629883936738"><ele>739.0</ele><time>2026-04-26T11:27:17Z</time></trkpt><trkpt lat="45.59448391156992" lon="8.011760813900311"><ele>739.0</ele><time>2026-04-26T11:27:18Z</time></trkpt><trkpt lat="45.5945516214109" lon="8.011871438728646"><ele>739.0</ele><time>2026-04-26T11:27:19Z</time></trkpt><trkpt lat="45.59464731329683" lon="8.011932461890613"><ele>735.0</ele><time>2026-04-26T11:27:20Z</time></trkpt><trkpt lat="45.59474813726723" lon="8.011927450440197"><ele>731.0</ele><time>2026-04-26T11:27:21Z</time></trkpt><trkpt lat="45.59483915800954" lon="8.01188040333924"><ele>727.0</ele><time>2026-04-26T11:27:22Z</time></trkpt><trkpt lat="45.59491401032935" lon="8.01173643297913"><ele>723.0</ele><time>2026-04-26T11:27:23Z</time></trkpt><trkpt lat="45.59494201936881" lon="8.011543534590952"><ele>723.0</ele><time>2026-04-26T11:27:24Z</time></trkpt><trkpt lat="45.595006914024914" lon="8.011391544939977"><ele>723.0</ele><time>2026-04-26T11:27:25Z</time></trkpt><trkpt lat="45.59508495633883" lon="8.011226201696678"><ele>723.0</ele><time>2026-04-26T11:27:26Z</time></trkpt><trkpt lat="45.595161186268555" lon="8.011030225765925"><ele>723.0</ele><time>2026-04-26T11:27:27Z</time></trkpt><trkpt lat="45.59526922970375" lon="8.010861472553808"><ele>722.3333333333334</ele><time>2026-04-26T11:27:28Z</time></trkpt><trkpt lat="45.59536184695378" lon="8.010680883330226"><ele>721.6666666666667</ele><time>2026-04-26T11:27:29Z</time></trkpt><trkpt lat="45.59547144195856" lon="8.01053328073896"><ele>721.0</ele><time>2026-04-26T11:27:30Z</time></trkpt><trkpt lat="45.59558843206576" lon="8.010410438952322"><ele>721.0</ele><time>2026-04-26T11:27:31Z</time></trkpt><trkpt lat="45.59571928533665" lon="8.010325688576367"><ele>721.0</ele><time>2026-04-26T11:27:32Z</time></trkpt><trkpt lat="45.59586602043549" lon="8.010248862051915"><ele>721.0</ele><time>2026-04-26T11:27:33Z</time></trkpt><trkpt lat="45.59601567656463" lon="8.010210438896657"><ele>721.0</ele><time>2026-04-26T11:27:34Z</time></trkpt><trkpt lat="45.596169315257995" lon="8.01018547437954"><ele>721.0</ele><time>2026-04-26T11:27:35Z</time></trkpt><trkpt lat="45.59630226794575" lon="8.010171136216835"><ele>721.0</ele><time>2026-04-26T11:27:36Z</time></trkpt><trkpt lat="45.5964258650471" lon="8.010165191811364"><ele>721.0</ele><time>2026-04-26T11:27:37Z</time></trkpt><trkpt lat="45.596532420042124" lon="8.010172863673796"><ele>720.4</ele><time>2026-04-26T11:27:38Z</time></trkpt><trkpt lat="45.59661346942884" lon="8.010215312623297"><ele>719.8</ele><time>2026-04-26T11:27:39Z</time></trkpt><trkpt lat="45.59668819840196" lon="8.01029186729156"><ele>719.1999999999999</ele><time>2026-04-26T11:27:40Z</time></trkpt><trkpt lat="45.59676057868258" lon="8.010384324634838"><ele>718.5999999999999</ele><time>2026-04-26T11:27:41Z</time></trkpt><trkpt lat="45.59677965422916" lon="8.010538747724894"><ele>718.0</ele><time>2026-04-26T11:27:42Z</time></trkpt><trkpt lat="45.596734190671704" lon="8.010701969016901"><ele>714.0</ele><time>2026-04-26T11:27:43Z</time></trkpt><trkpt lat="45.59667527257599" lon="8.010862333059109"><ele>710.0</ele><time>2026-04-26T11:27:44Z</time></trkpt><trkpt lat="45.59660658264753" lon="8.01101766850325"><ele>706.0</ele><time>2026-04-26T11:27:45Z</time></trkpt><trkpt lat="45.5965522066621" lon="8.01116174084121"><ele>702.0</ele><time>2026-04-26T11:27:46Z</time></trkpt><trkpt lat="45.59653556709763" lon="8.011328274018389"><ele>702.0</ele><time>2026-04-26T11:27:47Z</time></trkpt><trkpt lat="45.59655962374704" lon="8.011501082177732"><ele>702.0</ele><time>2026-04-26T11:27:48Z</time></trkpt><trkpt lat="45.596625477865686" lon="8.011663767712902"><ele>702.0</ele><time>2026-04-26T11:27:49Z</time></trkpt><trkpt lat="45.59671327465269" lon="8.011817222998094"><ele>702.0</ele><time>2026-04-26T11:27:50Z</time></trkpt><trkpt lat="45.59676426867869" lon="8.011988903930884"><ele>700.5</ele><time>2026-04-26T11:27:51Z</time></trkpt><trkpt lat="45.59678170725646" lon="8.01216721578214"><ele>699.0</ele><time>2026-04-26T11:27:52Z</time></trkpt><trkpt lat="45.59674987439364" lon="8.012357544387713"><ele>697.5</ele><time>2026-04-26T11:27:53Z</time></trkpt><trkpt lat="45.596712640683485" lon="8.012575227938221"><ele>696.0</ele><time>2026-04-26T11:27:54Z</time></trkpt><trkpt lat="45.59667140340086" lon="8.012783529424448"><ele>695.6666666666666</ele><time>2026-04-26T11:27:55Z</time></trkpt><trkpt lat="45.59667000265182" lon="8.013008837834724"><ele>695.3333333333333</ele><time>2026-04-26T11:27:56Z</time></trkpt><trkpt lat="45.596696866591245" lon="8.013256083836241"><ele>695.0</ele><time>2026-04-26T11:27:57Z</time></trkpt><trkpt lat="45.59671854381732" lon="8.013512686190092"><ele>692.6666666666666</ele><time>2026-04-26T11:27:58Z</time></trkpt><trkpt lat="45.59670546205849" lon="8.013783949846728"><ele>690.3333333333334</ele><time>2026-04-26T11:27:59Z</time></trkpt><trkpt lat="45.59665993858" lon="8.014052656779644"><ele>688.0</ele><time>2026-04-26T11:28:00Z</time></trkpt><trkpt lat="45.59662446114399" lon="8.014302095150699"><ele>686.0</ele><time>2026-04-26T11:28:01Z</time></trkpt><trkpt lat="45.59659260430956" lon="8.014526930948968"><ele>684.0</ele><time>2026-04-26T11:28:02Z</time></trkpt><trkpt lat="45.59656745013626" lon="8.014720484591866"><ele>682.0</ele><time>2026-04-26T11:28:03Z</time></trkpt><trkpt lat="45.596551167954544" lon="8.014893684202224"><ele>680.0</ele><time>2026-04-26T11:28:04Z</time></trkpt><trkpt lat="45.596536969305234" lon="8.015060999075551"><ele>679.5</ele><time>2026-04-26T11:28:05Z</time></trkpt><trkpt lat="45.596535924999145" lon="8.015226818461052"><ele>679.0</ele><time>2026-04-26T11:28:06Z</time></trkpt><trkpt lat="45.59657038954396" lon="8.01539782636681"><ele>678.5</ele><time>2026-04-26T11:28:07Z</time></trkpt><trkpt lat="45.59663757242093" lon="8.015558361547594"><ele>678.0</ele><time>2026-04-26T11:28:08Z</time></trkpt><trkpt lat="45.596728593058764" lon="8.015697222782517"><ele>678.0</ele><time>2026-04-26T11:28:09Z</time></trkpt><trkpt lat="45.596830314687" lon="8.015793542838043"><ele>678.0</ele><time>2026-04-26T11:28:10Z</time></trkpt><trkpt lat="45.59690754287094" lon="8.015898067794659"><ele>678.0</ele><time>2026-04-26T11:28:11Z</time></trkpt><trkpt lat="45.59694836377859" lon="8.016023061107441"><ele>678.0</ele><time>2026-04-26T11:28:12Z</time></trkpt><trkpt lat="45.59695223992632" lon="8.016166284724152"><ele>678.0</ele><time>2026-04-26T11:28:13Z</time></trkpt><trkpt lat="45.59690376472589" lon="8.01632535645209"><ele>674.75</ele><time>2026-04-26T11:28:14Z</time></trkpt><trkpt lat="45.59684851827773" lon="8.016475728422845"><ele>671.5</ele><time>2026-04-26T11:28:15Z</time></trkpt><trkpt lat="45.59684307914389" lon="8.016642070629638"><ele>668.25</ele><time>2026-04-26T11:28:16Z</time></trkpt><trkpt lat="45.59688965494572" lon="8.016820192689876"><ele>665.0</ele><time>2026-04-26T11:28:17Z</time></trkpt><trkpt lat="45.596973337200055" lon="8.016993954618856"><ele>669.75</ele><time>2026-04-26T11:28:18Z</time></trkpt><trkpt lat="45.59706849695816" lon="8.017157268859838"><ele>674.5</ele><time>2026-04-26T11:28:19Z</time></trkpt><trkpt lat="45.597142354355434" lon="8.017325036103852"><ele>679.25</ele><time>2026-04-26T11:28:20Z</time></trkpt><trkpt lat="45.59716634192402" lon="8.017506450743513"><ele>684.0</ele><time>2026-04-26T11:28:21Z</time></trkpt><trkpt lat="45.59717519492465" lon="8.017685674611043"><ele>684.0</ele><time>2026-04-26T11:28:22Z</time></trkpt><trkpt lat="45.59710863182911" lon="8.017853582586376"><ele>684.0</ele><time>2026-04-26T11:28:23Z</time></trkpt><trkpt lat="45.5970491623337" lon="8.018026804255685"><ele>684.0</ele><time>2026-04-26T11:28:24Z</time></trkpt><trkpt lat="45.597016474294996" lon="8.018183200764152"><ele>684.0</ele><time>2026-04-26T11:28:25Z</time></trkpt><trkpt lat="45.59702691126937" lon="8.018340594534104"><ele>680.25</ele><time>2026-04-26T11:28:26Z</time></trkpt><trkpt lat="45.59708659930863" lon="8.01849037635238"><ele>676.5</ele><time>2026-04-26T11:28:27Z</time></trkpt><trkpt lat="45.5971696770759" lon="8.018622308033056"><ele>672.75</ele><time>2026-04-26T11:28:28Z</time></trkpt><trkpt lat="45.59721911529434" lon="8.018765042747251"><ele>669.0</ele><time>2026-04-26T11:28:29Z</time></trkpt><trkpt lat="45.59725221210427" lon="8.01890159770855"><ele>669.0</ele><time>2026-04-26T11:28:30Z</time></trkpt><trkpt lat="45.59722153978822" lon="8.019044083706033"><ele>669.0</ele><time>2026-04-26T11:28:31Z</time></trkpt><trkpt lat="45.59716089548298" lon="8.019189692124504"><ele>669.0</ele><time>2026-04-26T11:28:32Z</time></trkpt><trkpt lat="45.5971032468827" lon="8.019328745266376"><ele>669.0</ele><time>2026-04-26T11:28:33Z</time></trkpt><trkpt lat="45.59703898442018" lon="8.019452241807844"><ele>669.0</ele><time>2026-04-26T11:28:34Z</time></trkpt><trkpt lat="45.59694645354715" lon="8.01952921268766"><ele>663.0</ele><time>2026-04-26T11:28:35Z</time></trkpt><trkpt lat="45.59682661172558" lon="8.019575663760945"><ele>657.0</ele><time>2026-04-26T11:28:36Z</time></trkpt><trkpt lat="45.59671823738467" lon="8.019619137421182"><ele>651.0</ele><time>2026-04-26T11:28:37Z</time></trkpt><trkpt lat="45.59662679301102" lon="8.019683232874874"><ele>645.0</ele><time>2026-04-26T11:28:38Z</time></trkpt><trkpt lat="45.5965510549713" lon="8.019794697684251"><ele>639.0</ele><time>2026-04-26T11:28:39Z</time></trkpt><trkpt lat="45.596501282121075" lon="8.019943951077327"><ele>640.0</ele><time>2026-04-26T11:28:40Z</time></trkpt><trkpt lat="45.59648195478318" lon="8.020116834838436"><ele>641.0</ele><time>2026-04-26T11:28:41Z</time></trkpt><trkpt lat="45.596482044419574" lon="8.020309332868647"><ele>642.0</ele><time>2026-04-26T11:28:42Z</time></trkpt><trkpt lat="45.596473231769686" lon="8.020521096630153"><ele>643.0</ele><time>2026-04-26T11:28:43Z</time></trkpt><trkpt lat="45.596446510910276" lon="8.020744643422711"><ele>642.75</ele><time>2026-04-26T11:28:44Z</time></trkpt><trkpt lat="45.59640818788788" lon="8.020960450310499"><ele>642.5</ele><time>2026-04-26T11:28:45Z</time></trkpt><trkpt lat="45.596357375919695" lon="8.021150155084447"><ele>642.25</ele><time>2026-04-26T11:28:46Z</time></trkpt><trkpt lat="45.59630413506446" lon="8.021331024188296"><ele>642.0</ele><time>2026-04-26T11:28:47Z</time></trkpt><trkpt lat="45.596256396297946" lon="8.021505172687206"><ele>642.0</ele><time>2026-04-26T11:28:48Z</time></trkpt><trkpt lat="45.59622586464901" lon="8.02164816720784"><ele>642.0</ele><time>2026-04-26T11:28:49Z</time></trkpt><trkpt lat="45.596225456880475" lon="8.021791624434956"><ele>642.0</ele><time>2026-04-26T11:28:50Z</time></trkpt><trkpt lat="45.596263326696736" lon="8.021930528924234"><ele>642.0</ele><time>2026-04-26T11:28:51Z</time></trkpt><trkpt lat="45.596334991842085" lon="8.022037593421663"><ele>642.0</ele><time>2026-04-26T11:28:52Z</time></trkpt><trkpt lat="45.596434016510806" lon="8.02210294733133"><ele>639.5</ele><time>2026-04-26T11:28:53Z</time></trkpt><trkpt lat="45.5965454230629" lon="8.022113287984544"><ele>637.0</ele><time>2026-04-26T11:28:54Z</time></trkpt><trkpt lat="45.59666141479363" lon="8.022060701355217"><ele>634.5</ele><time>2026-04-26T11:28:55Z</time></trkpt><trkpt lat="45.5967824870335" lon="8.022037917833439"><ele>632.0</ele><time>2026-04-26T11:28:56Z</time></trkpt><trkpt lat="45.596890169069106" lon="8.022015868242304"><ele>632.0</ele><time>2026-04-26T11:28:57Z</time></trkpt><trkpt lat="45.59698194923359" lon="8.022075384757986"><ele>632.0</ele><time>2026-04-26T11:28:58Z</time></trkpt><trkpt lat="45.597040139860965" lon="8.022180888091"><ele>632.0</ele><time>2026-04-26T11:28:59Z</time></trkpt><trkpt lat="45.59705544003863" lon="8.02231500456215"><ele>632.0</ele><time>2026-04-26T11:29:00Z</time></trkpt><trkpt lat="45.597035739834126" lon="8.022463537087132"><ele>632.0</ele><time>2026-04-26T11:29:01Z</time></trkpt><trkpt lat="45.59697437641742" lon="8.022599524784855"><ele>629.75</ele><time>2026-04-26T11:29:02Z</time></trkpt><trkpt lat="45.59689591344348" lon="8.02269655583912"><ele>627.5</ele><time>2026-04-26T11:29:03Z</time></trkpt><trkpt lat="45.59678803668629" lon="8.02280829340055"><ele>625.25</ele><time>2026-04-26T11:29:04Z</time></trkpt><trkpt lat="45.59669166476137" lon="8.022953843034292"><ele>623.0</ele><time>2026-04-26T11:29:05Z</time></trkpt><trkpt lat="45.59657700114332" lon="8.023098243905318"><ele>623.0</ele><time>2026-04-26T11:29:06Z</time></trkpt><trkpt lat="45.596459129870645" lon="8.02322831683039"><ele>623.0</ele><time>2026-04-26T11:29:07Z</time></trkpt><trkpt lat="45.59633935537095" lon="8.023329638174898"><ele>623.0</ele><time>2026-04-26T11:29:08Z</time></trkpt><trkpt lat="45.5962178916397" lon="8.023406155494516"><ele>623.0</ele><time>2026-04-26T11:29:09Z</time></trkpt><trkpt lat="45.59609402144431" lon="8.02348264650535"><ele>621.0</ele><time>2026-04-26T11:29:10Z</time></trkpt><trkpt lat="45.595983469283574" lon="8.023555432819146"><ele>619.0</ele><time>2026-04-26T11:29:11Z</time></trkpt><trkpt lat="45.595882271083106" lon="8.023623084298789"><ele>617.0</ele><time>2026-04-26T11:29:12Z</time></trkpt><trkpt lat="45.5957875339837" lon="8.023688771142185"><ele>615.0</ele><time>2026-04-26T11:29:13Z</time></trkpt><trkpt lat="45.59570813415803" lon="8.023767578955496"><ele>613.0</ele><time>2026-04-26T11:29:14Z</time></trkpt><trkpt lat="45.59563882245195" lon="8.02387083378798"><ele>613.0</ele><time>2026-04-26T11:29:15Z</time></trkpt><trkpt lat="45.595584739833676" lon="8.024007296909849"><ele>613.0</ele><time>2026-04-26T11:29:16Z</time></trkpt><trkpt lat="45.595555764668916" lon="8.024167760077358"><ele>613.0</ele><time>2026-04-26T11:29:17Z</time></trkpt><trkpt lat="45.59553466971604" lon="8.024325843334928"><ele>613.0</ele><time>2026-04-26T11:29:18Z</time></trkpt><trkpt lat="45.595509060369615" lon="8.02446695682817"><ele>613.0</ele><time>2026-04-26T11:29:19Z</time></trkpt><trkpt lat="45.59548094766826" lon="8.02458514674417"><ele>613.0</ele><time>2026-04-26T11:29:20Z</time></trkpt><trkpt lat="45.59545300069143" lon="8.024687237631804"><ele>613.0</ele><time>2026-04-26T11:29:21Z</time></trkpt><trkpt lat="45.595395009735135" lon="8.024765463555498"><ele>613.0</ele><time>2026-04-26T11:29:22Z</time></trkpt><trkpt lat="45.59531444529443" lon="8.024792911950115"><ele>613.0</ele><time>2026-04-26T11:29:23Z</time></trkpt><trkpt lat="45.59521746887557" lon="8.024785402891975"><ele>613.0</ele><time>2026-04-26T11:29:24Z</time></trkpt><trkpt lat="45.59510406645887" lon="8.024790104786677"><ele>611.75</ele><time>2026-04-26T11:29:25Z</time></trkpt><trkpt lat="45.594976867614804" lon="8.024810166858376"><ele>610.5</ele><time>2026-04-26T11:29:26Z</time></trkpt><trkpt lat="45.59483870589703" lon="8.024840677532888"><ele>609.25</ele><time>2026-04-26T11:29:27Z</time></trkpt><trkpt lat="45.59469625616349" lon="8.024869680431527"><ele>608.0</ele><time>2026-04-26T11:29:28Z</time></trkpt><trkpt lat="45.59455854376688" lon="8.024896444334969"><ele>605.25</ele><time>2026-04-26T11:29:29Z</time></trkpt><trkpt lat="45.59442554780012" lon="8.024926104289984"><ele>602.5</ele><time>2026-04-26T11:29:30Z</time></trkpt><trkpt lat="45.59429563826237" lon="8.024965472394275"><ele>599.75</ele><time>2026-04-26T11:29:31Z</time></trkpt><trkpt lat="45.59416841421675" lon="8.025001019045366"><ele>597.0</ele><time>2026-04-26T11:29:32Z</time></trkpt><trkpt lat="45.59404781148547" lon="8.02505171314547"><ele>596.75</ele><time>2026-04-26T11:29:33Z</time></trkpt><trkpt lat="45.59392907441018" lon="8.02513376067121"><ele>596.5</ele><time>2026-04-26T11:29:34Z</time></trkpt><trkpt lat="45.59381659273618" lon="8.025213325252048"><ele>596.25</ele><time>2026-04-26T11:29:35Z</time></trkpt><trkpt lat="45.59371045223675" lon="8.025287628314816"><ele>596.0</ele><time>2026-04-26T11:29:36Z</time></trkpt><trkpt lat="45.593608164614324" lon="8.025364949940265"><ele>595.2</ele><time>2026-04-26T11:29:37Z</time></trkpt><trkpt lat="45.593513354850614" lon="8.02544143339734"><ele>594.4000000000001</ele><time>2026-04-26T11:29:38Z</time></trkpt><trkpt lat="45.59341852776548" lon="8.025521969931864"><ele>593.6</ele><time>2026-04-26T11:29:39Z</time></trkpt><trkpt lat="45.59332670884788" lon="8.025606856509995"><ele>592.8000000000001</ele><time>2026-04-26T11:29:40Z</time></trkpt><trkpt lat="45.59323682770645" lon="8.02570204186393"><ele>592.0</ele><time>2026-04-26T11:29:41Z</time></trkpt><trkpt lat="45.593142596268635" lon="8.025817887566404"><ele>591.25</ele><time>2026-04-26T11:29:42Z</time></trkpt><trkpt lat="45.59304804950014" lon="8.025944127967508"><ele>590.5</ele><time>2026-04-26T11:29:43Z</time></trkpt><trkpt lat="45.59294872571613" lon="8.026074142658052"><ele>589.75</ele><time>2026-04-26T11:29:44Z</time></trkpt><trkpt lat="45.59284647803346" lon="8.026203986561859"><ele>589.0</ele><time>2026-04-26T11:29:45Z</time></trkpt><trkpt lat="45.59274664683074" lon="8.02632725956735"><ele>589.0</ele><time>2026-04-26T11:29:46Z</time></trkpt><trkpt lat="45.59264237679567" lon="8.026453370631177"><ele>589.0</ele><time>2026-04-26T11:29:47Z</time></trkpt><trkpt lat="45.592543519894775" lon="8.026575108518914"><ele>589.0</ele><time>2026-04-26T11:29:48Z</time></trkpt><trkpt lat="45.59244551224517" lon="8.026702700652717"><ele>589.0</ele><time>2026-04-26T11:29:49Z</time></trkpt><trkpt lat="45.59235448671657" lon="8.026841253646232"><ele>589.0</ele><time>2026-04-26T11:29:50Z</time></trkpt><trkpt lat="45.59227267647661" lon="8.026993365107478"><ele>589.0</ele><time>2026-04-26T11:29:51Z</time></trkpt><trkpt lat="45.59219732934801" lon="8.027157628756134"><ele>589.0</ele><time>2026-04-26T11:29:52Z</time></trkpt><trkpt lat="45.59211983870282" lon="8.027332310589879"><ele>589.0</ele><time>2026-04-26T11:29:53Z</time></trkpt><trkpt lat="45.59203577576125" lon="8.027509408628196"><ele>588.3333333333334</ele><time>2026-04-26T11:29:54Z</time></trkpt><trkpt lat="45.59195470869836" lon="8.027694791188113"><ele>587.6666666666666</ele><time>2026-04-26T11:29:55Z</time></trkpt><trkpt lat="45.59186793082903" lon="8.02788168551729"><ele>587.0</ele><time>2026-04-26T11:29:56Z</time></trkpt><trkpt lat="45.59179315626476" lon="8.028054671639524"><ele>587.0</ele><time>2026-04-26T11:29:57Z</time></trkpt><trkpt lat="45.59171200315869" lon="8.028224013311702"><ele>587.0</ele><time>2026-04-26T11:29:58Z</time></trkpt><trkpt lat="45.59162176343799" lon="8.028394223409279"><ele>587.0</ele><time>2026-04-26T11:29:59Z</time></trkpt><trkpt lat="45.59154003589319" lon="8.028552686920332"><ele>587.0</ele><time>2026-04-26T11:30:00Z</time></trkpt><trkpt lat="45.591467413908504" lon="8.028703588434281"><ele>587.25</ele><time>2026-04-26T11:30:01Z</time></trkpt><trkpt lat="45.591392577012584" lon="8.02885441016271"><ele>587.5</ele><time>2026-04-26T11:30:02Z</time></trkpt><trkpt lat="45.5913122470117" lon="8.028998583980943"><ele>587.75</ele><time>2026-04-26T11:30:03Z</time></trkpt><trkpt lat="45.59121953586079" lon="8.029139404254053"><ele>588.0</ele><time>2026-04-26T11:30:04Z</time></trkpt><trkpt lat="45.591111528073846" lon="8.029272701313394"><ele>586.75</ele><time>2026-04-26T11:30:05Z</time></trkpt><trkpt lat="45.59099248285649" lon="8.02939220232578"><ele>585.5</ele><time>2026-04-26T11:30:06Z</time></trkpt><trkpt lat="45.590867240216255" lon="8.029502655225075"><ele>584.25</ele><time>2026-04-26T11:30:07Z</time></trkpt><trkpt lat="45.59074642539849" lon="8.029603877075905"><ele>583.0</ele><time>2026-04-26T11:30:08Z</time></trkpt><trkpt lat="45.59062128756213" lon="8.029689296520958"><ele>583.0</ele><time>2026-04-26T11:30:09Z</time></trkpt><trkpt lat="45.590496009232474" lon="8.029754616447475"><ele>583.0</ele><time>2026-04-26T11:30:10Z</time></trkpt><trkpt lat="45.59036610737811" lon="8.02979919901301"><ele>583.0</ele><time>2026-04-26T11:30:11Z</time></trkpt><trkpt lat="45.59023619600801" lon="8.029834990836621"><ele>583.0</ele><time>2026-04-26T11:30:12Z</time></trkpt><trkpt lat="45.5901064576955" lon="8.02987248151571"><ele>581.25</ele><time>2026-04-26T11:30:13Z</time></trkpt><trkpt lat="45.58997497112798" lon="8.029904405431935"><ele>579.5</ele><time>2026-04-26T11:30:14Z</time></trkpt><trkpt lat="45.58984472385332" lon="8.029937967287028"><ele>577.75</ele><time>2026-04-26T11:30:15Z</time></trkpt><trkpt lat="45.589714796663586" lon="8.029970561348016"><ele>576.0</ele><time>2026-04-26T11:30:16Z</time></trkpt><trkpt lat="45.589587793937056" lon="8.030008374653441"><ele>573.25</ele><time>2026-04-26T11:30:17Z</time></trkpt><trkpt lat="45.58946473899789" lon="8.030050733616585"><ele>570.5</ele><time>2026-04-26T11:30:18Z</time></trkpt><trkpt lat="45.58935062545706" lon="8.030112257790137"><ele>567.75</ele><time>2026-04-26T11:30:19Z</time></trkpt><trkpt lat="45.58924793479495" lon="8.030195395318989"><ele>565.0</ele><time>2026-04-26T11:30:20Z</time></trkpt><trkpt lat="45.58913819418448" lon="8.030296832352173"><ele>565.0</ele><time>2026-04-26T11:30:21Z</time></trkpt><trkpt lat="45.58903816180245" lon="8.030422960497582"><ele>565.0</ele><time>2026-04-26T11:30:22Z</time></trkpt><trkpt lat="45.58893573045688" lon="8.030554128310612"><ele>565.0</ele><time>2026-04-26T11:30:23Z</time></trkpt><trkpt lat="45.58884230358149" lon="8.030701955741238"><ele>565.0</ele><time>2026-04-26T11:30:24Z</time></trkpt><trkpt lat="45.5887299892159" lon="8.030821224289545"><ele>563.75</ele><time>2026-04-26T11:30:25Z</time></trkpt><trkpt lat="45.58861801800903" lon="8.030929983547988"><ele>562.5</ele><time>2026-04-26T11:30:26Z</time></trkpt><trkpt lat="45.58850812150246" lon="8.03103511734655"><ele>561.25</ele><time>2026-04-26T11:30:27Z</time></trkpt><trkpt lat="45.58839076110335" lon="8.03111852915861"><ele>560.0</ele><time>2026-04-26T11:30:28Z</time></trkpt><trkpt lat="45.58828506985986" lon="8.031222789164998"><ele>560.0</ele><time>2026-04-26T11:30:29Z</time></trkpt><trkpt lat="45.5881888981938" lon="8.031328803425827"><ele>560.0</ele><time>2026-04-26T11:30:30Z</time></trkpt><trkpt lat="45.5881105322408" lon="8.031435916592114"><ele>560.0</ele><time>2026-04-26T11:30:31Z</time></trkpt><trkpt lat="45.58802529153033" lon="8.031532793730008"><ele>560.0</ele><time>2026-04-26T11:30:32Z</time></trkpt><trkpt lat="45.58793493631884" lon="8.031603362168836"><ele>560.0</ele><time>2026-04-26T11:30:33Z</time></trkpt><trkpt lat="45.58783975598149" lon="8.0316597372036"><ele>561.25</ele><time>2026-04-26T11:30:34Z</time></trkpt><trkpt lat="45.58773213300998" lon="8.031717684061716"><ele>562.5</ele><time>2026-04-26T11:30:35Z</time></trkpt><trkpt lat="45.58761642433016" lon="8.031787000577902"><ele>563.75</ele><time>2026-04-26T11:30:36Z</time></trkpt><trkpt lat="45.58750155058907" lon="8.031882805428605"><ele>565.0</ele><time>2026-04-26T11:30:37Z</time></trkpt><trkpt lat="45.58737787324121" lon="8.031959889861282"><ele>565.0</ele><time>2026-04-26T11:30:38Z</time></trkpt><trkpt lat="45.58725568985421" lon="8.032053749487467"><ele>565.0</ele><time>2026-04-26T11:30:39Z</time></trkpt><trkpt lat="45.587140121032625" lon="8.032183260901371"><ele>565.0</ele><time>2026-04-26T11:30:40Z</time></trkpt><trkpt lat="45.58702171057619" lon="8.032297604817188"><ele>565.0</ele><time>2026-04-26T11:30:41Z</time></trkpt><trkpt lat="45.586913084258576" lon="8.03240097262802"><ele>564.0</ele><time>2026-04-26T11:30:42Z</time></trkpt><trkpt lat="45.58680808233391" lon="8.032498036885267"><ele>563.0</ele><time>2026-04-26T11:30:43Z</time></trkpt><trkpt lat="45.586708182214316" lon="8.032599113426878"><ele>562.0</ele><time>2026-04-26T11:30:44Z</time></trkpt><trkpt lat="45.58662044539916" lon="8.032709414214937"><ele>561.0</ele><time>2026-04-26T11:30:45Z</time></trkpt><trkpt lat="45.58654939456816" lon="8.032848213051958"><ele>561.0</ele><time>2026-04-26T11:30:46Z</time></trkpt><trkpt lat="45.586485037559235" lon="8.03300117934737"><ele>561.0</ele><time>2026-04-26T11:30:47Z</time></trkpt><trkpt lat="45.58641070283022" lon="8.03314322052781"><ele>561.0</ele><time>2026-04-26T11:30:48Z</time></trkpt><trkpt lat="45.586348753931375" lon="8.033287109269208"><ele>561.0</ele><time>2026-04-26T11:30:49Z</time></trkpt><trkpt lat="45.58628243408196" lon="8.0334284376843"><ele>560.5</ele><time>2026-04-26T11:30:50Z</time></trkpt><trkpt lat="45.586192753426076" lon="8.033539757295575"><ele>560.0</ele><time>2026-04-26T11:30:51Z</time></trkpt><trkpt lat="45.586095246290675" lon="8.033652535266475"><ele>559.5</ele><time>2026-04-26T11:30:52Z</time></trkpt><trkpt lat="45.58598829744032" lon="8.033765979503036"><ele>559.0</ele><time>2026-04-26T11:30:53Z</time></trkpt><trkpt lat="45.58587708493498" lon="8.033880975305808"><ele>557.75</ele><time>2026-04-26T11:30:54Z</time></trkpt><trkpt lat="45.58577321958913" lon="8.0339994464304"><ele>556.5</ele><time>2026-04-26T11:30:55Z</time></trkpt><trkpt lat="45.58567261424641" lon="8.034113369878508"><ele>555.25</ele><time>2026-04-26T11:30:56Z</time></trkpt><trkpt lat="45.58557644244926" lon="8.034221981233458"><ele>554.0</ele><time>2026-04-26T11:30:57Z</time></trkpt><trkpt lat="45.58548233045226" lon="8.034324181115446"><ele>553.75</ele><time>2026-04-26T11:30:58Z</time></trkpt><trkpt lat="45.58539149400857" lon="8.034425076629054"><ele>553.5</ele><time>2026-04-26T11:30:59Z</time></trkpt><trkpt lat="45.58529767161784" lon="8.034523213663125"><ele>553.25</ele><time>2026-04-26T11:31:00Z</time></trkpt><trkpt lat="45.585202844431045" lon="8.034623049030401"><ele>553.0</ele><time>2026-04-26T11:31:01Z</time></trkpt><trkpt lat="45.585106324460696" lon="8.034725969430736"><ele>553.0</ele><time>2026-04-26T11:31:02Z</time></trkpt><trkpt lat="45.585012384060384" lon="8.034834225298573"><ele>553.0</ele><time>2026-04-26T11:31:03Z</time></trkpt><trkpt lat="45.58491227094972" lon="8.034935876809039"><ele>553.0</ele><time>2026-04-26T11:31:04Z</time></trkpt><trkpt lat="45.58481532940914" lon="8.03503469133917"><ele>553.0</ele><time>2026-04-26T11:31:05Z</time></trkpt><trkpt lat="45.584720698757124" lon="8.035136007005027"><ele>553.0</ele><time>2026-04-26T11:31:06Z</time></trkpt><trkpt lat="45.58462258991163" lon="8.035228294345725"><ele>553.0</ele><time>2026-04-26T11:31:07Z</time></trkpt><trkpt lat="45.58453028083149" lon="8.035333807570641"><ele>553.0</ele><time>2026-04-26T11:31:08Z</time></trkpt><trkpt lat="45.58443342456808" lon="8.03543928537151"><ele>553.0</ele><time>2026-04-26T11:31:09Z</time></trkpt><trkpt lat="45.58433351838562" lon="8.035542896011412"><ele>551.5</ele><time>2026-04-26T11:31:10Z</time></trkpt><trkpt lat="45.584234946375055" lon="8.035651485740747"><ele>550.0</ele><time>2026-04-26T11:31:11Z</time></trkpt><trkpt lat="45.584135795778415" lon="8.035755355073727"><ele>548.5</ele><time>2026-04-26T11:31:12Z</time></trkpt><trkpt lat="45.584035789019026" lon="8.035856247014157"><ele>547.0</ele><time>2026-04-26T11:31:13Z</time></trkpt><trkpt lat="45.58393578780096" lon="8.03595528510345"><ele>547.0</ele><time>2026-04-26T11:31:14Z</time></trkpt><trkpt lat="45.58383386404108" lon="8.036050160985527"><ele>547.0</ele><time>2026-04-26T11:31:15Z</time></trkpt><trkpt lat="45.58373551759268" lon="8.036142825432128"><ele>547.0</ele><time>2026-04-26T11:31:16Z</time></trkpt><trkpt lat="45.5836415911736" lon="8.036243596981675"><ele>547.0</ele><time>2026-04-26T11:31:17Z</time></trkpt><trkpt lat="45.58354679239314" lon="8.036348975327519"><ele>546.0</ele><time>2026-04-26T11:31:18Z</time></trkpt><trkpt lat="45.583450342160475" lon="8.036450584455133"><ele>545.0</ele><time>2026-04-26T11:31:19Z</time></trkpt><trkpt lat="45.58335646226881" lon="8.03655378645227"><ele>544.0</ele><time>2026-04-26T11:31:20Z</time></trkpt><trkpt lat="45.583251633743124" lon="8.036642220399855"><ele>543.0</ele><time>2026-04-26T11:31:21Z</time></trkpt><trkpt lat="45.58316661343579" lon="8.036750288481711"><ele>543.0</ele><time>2026-04-26T11:31:22Z</time></trkpt><trkpt lat="45.58310656655497" lon="8.036885962332432"><ele>543.0</ele><time>2026-04-26T11:31:23Z</time></trkpt><trkpt lat="45.58304820438776" lon="8.03703247020566"><ele>543.0</ele><time>2026-04-26T11:31:24Z</time></trkpt><trkpt lat="45.58298889755984" lon="8.037171844829764"><ele>543.0</ele><time>2026-04-26T11:31:25Z</time></trkpt><trkpt lat="45.58292881265819" lon="8.037304592247828"><ele>543.0</ele><time>2026-04-26T11:31:26Z</time></trkpt><trkpt lat="45.58286907844407" lon="8.03742697716"><ele>543.0</ele><time>2026-04-26T11:31:27Z</time></trkpt><trkpt lat="45.58282057750804" lon="8.037533137419116"><ele>543.0</ele><time>2026-04-26T11:31:28Z</time></trkpt><trkpt lat="45.582760197820036" lon="8.03761587543487"><ele>543.0</ele><time>2026-04-26T11:31:29Z</time></trkpt><trkpt lat="45.58268783359293" lon="8.037674511794133"><ele>543.0</ele><time>2026-04-26T11:31:30Z</time></trkpt><trkpt lat="45.58260121537279" lon="8.037709605221778"><ele>540.5</ele><time>2026-04-26T11:31:31Z</time></trkpt><trkpt lat="45.582496128838656" lon="8.037740703785529"><ele>538.0</ele><time>2026-04-26T11:31:32Z</time></trkpt><trkpt lat="45.58238194343247" lon="8.037771814485792"><ele>535.5</ele><time>2026-04-26T11:31:33Z</time></trkpt><trkpt lat="45.58226008100987" lon="8.03780456619143"><ele>533.0</ele><time>2026-04-26T11:31:34Z</time></trkpt><trkpt lat="45.582136294867084" lon="8.037841057780128"><ele>532.5</ele><time>2026-04-26T11:31:35Z</time></trkpt><trkpt lat="45.582008869960674" lon="8.037883093600678"><ele>532.0</ele><time>2026-04-26T11:31:36Z</time></trkpt><trkpt lat="45.58188329401741" lon="8.037924077592093"><ele>531.5</ele><time>2026-04-26T11:31:37Z</time></trkpt><trkpt lat="45.581763046054334" lon="8.037968066885188"><ele>531.0</ele><time>2026-04-26T11:31:38Z</time></trkpt><trkpt lat="45.5816473059041" lon="8.038031562842763"><ele>531.0</ele><time>2026-04-26T11:31:39Z</time></trkpt><trkpt lat="45.581533836495794" lon="8.038114541962472"><ele>531.0</ele><time>2026-04-26T11:31:40Z</time></trkpt><trkpt lat="45.58142222611937" lon="8.038197860608298"><ele>531.0</ele><time>2026-04-26T11:31:41Z</time></trkpt><trkpt lat="45.581309530780416" lon="8.038282666812805"><ele>531.0</ele><time>2026-04-26T11:31:42Z</time></trkpt><trkpt lat="45.5811943642971" lon="8.038366037757376"><ele>533.0</ele><time>2026-04-26T11:31:43Z</time></trkpt><trkpt lat="45.581082350896295" lon="8.03845198082699"><ele>535.0</ele><time>2026-04-26T11:31:44Z</time></trkpt><trkpt lat="45.58097410672283" lon="8.038536017449735"><ele>537.0</ele><time>2026-04-26T11:31:45Z</time></trkpt><trkpt lat="45.5808678331875" lon="8.038626075003995"><ele>539.0</ele><time>2026-04-26T11:31:46Z</time></trkpt><trkpt lat="45.58076328503345" lon="8.038717985502247"><ele>539.0</ele><time>2026-04-26T11:31:47Z</time></trkpt><trkpt lat="45.58065734426709" lon="8.038804897233174"><ele>539.0</ele><time>2026-04-26T11:31:48Z</time></trkpt><trkpt lat="45.580558130491234" lon="8.038900234719238"><ele>539.0</ele><time>2026-04-26T11:31:49Z</time></trkpt><trkpt lat="45.58046438811233" lon="8.039000591211991"><ele>539.0</ele><time>2026-04-26T11:31:50Z</time></trkpt><trkpt lat="45.58037422269884" lon="8.039103992439468"><ele>539.0</ele><time>2026-04-26T11:31:51Z</time></trkpt><trkpt lat="45.58028442760775" lon="8.039204509082683"><ele>539.0</ele><time>2026-04-26T11:31:52Z</time></trkpt><trkpt lat="45.580194362593694" lon="8.039298694307726"><ele>539.0</ele><time>2026-04-26T11:31:53Z</time></trkpt><trkpt lat="45.58009603345067" lon="8.039372506207089"><ele>539.0</ele><time>2026-04-26T11:31:54Z</time></trkpt><trkpt lat="45.579988682368956" lon="8.039415391547575"><ele>539.0</ele><time>2026-04-26T11:31:55Z</time></trkpt><trkpt lat="45.57987507304994" lon="8.039430342229355"><ele>539.0</ele><time>2026-04-26T11:31:56Z</time></trkpt><trkpt lat="45.5797616671108" lon="8.039420591620624"><ele>539.0</ele><time>2026-04-26T11:31:57Z</time></trkpt><trkpt lat="45.57965070353427" lon="8.039367185347784"><ele>539.0</ele><time>2026-04-26T11:31:58Z</time></trkpt><trkpt lat="45.5795475001985" lon="8.039323992255884"><ele>539.0</ele><time>2026-04-26T11:31:59Z</time></trkpt><trkpt lat="45.57944045669869" lon="8.039323340948014"><ele>539.0</ele><time>2026-04-26T11:32:00Z</time></trkpt><trkpt lat="45.579329635095" lon="8.039366179128287"><ele>537.75</ele><time>2026-04-26T11:32:01Z</time></trkpt><trkpt lat="45.579223136533166" lon="8.039445211572037"><ele>536.5</ele><time>2026-04-26T11:32:02Z</time></trkpt><trkpt lat="45.579116269266244" lon="8.039534772107823"><ele>535.25</ele><time>2026-04-26T11:32:03Z</time></trkpt><trkpt lat="45.57899814659575" lon="8.039593605750111"><ele>534.0</ele><time>2026-04-26T11:32:04Z</time></trkpt><trkpt lat="45.578878289367424" lon="8.039599840692029"><ele>534.0</ele><time>2026-04-26T11:32:05Z</time></trkpt><trkpt lat="45.57877373608764" lon="8.039563057592423"><ele>534.0</ele><time>2026-04-26T11:32:06Z</time></trkpt><trkpt lat="45.57867305986643" lon="8.039496700784916"><ele>534.0</ele><time>2026-04-26T11:32:07Z</time></trkpt><trkpt lat="45.578585447809424" lon="8.039388242161792"><ele>534.0</ele><time>2026-04-26T11:32:08Z</time></trkpt><trkpt lat="45.578503771510455" lon="8.039269642822406"><ele>534.5</ele><time>2026-04-26T11:32:09Z</time></trkpt><trkpt lat="45.57841027809361" lon="8.039177949881301"><ele>535.0</ele><time>2026-04-26T11:32:10Z</time></trkpt><trkpt lat="45.57830199010492" lon="8.039121875665815"><ele>535.5</ele><time>2026-04-26T11:32:11Z</time></trkpt><trkpt lat="45.57818434736998" lon="8.039098179257797"><ele>536.0</ele><time>2026-04-26T11:32:12Z</time></trkpt><trkpt lat="45.578066008907804" lon="8.03911022462487"><ele>536.0</ele><time>2026-04-26T11:32:13Z</time></trkpt><trkpt lat="45.57794447293184" lon="8.039161874794448"><ele>536.0</ele><time>2026-04-26T11:32:14Z</time></trkpt><trkpt lat="45.5778295987319" lon="8.039257775638207"><ele>536.0</ele><time>2026-04-26T11:32:15Z</time></trkpt><trkpt lat="45.57771616372502" lon="8.039385004745487"><ele>536.0</ele><time>2026-04-26T11:32:16Z</time></trkpt><trkpt lat="45.577602123115454" lon="8.039512061932367"><ele>533.3333333333333</ele><time>2026-04-26T11:32:17Z</time></trkpt><trkpt lat="45.577476914268075" lon="8.039642421913232"><ele>530.6666666666666</ele><time>2026-04-26T11:32:18Z</time></trkpt><trkpt lat="45.577338771736336" lon="8.039785129079263"><ele>528.0</ele><time>2026-04-26T11:32:19Z</time></trkpt><trkpt lat="45.57719600839127" lon="8.03992660270335"><ele>527.3333333333334</ele><time>2026-04-26T11:32:20Z</time></trkpt><trkpt lat="45.57705443268463" lon="8.04005299540331"><ele>526.6666666666667</ele><time>2026-04-26T11:32:21Z</time></trkpt><trkpt lat="45.576912911154295" lon="8.040172163756104"><ele>526.0</ele><time>2026-04-26T11:32:22Z</time></trkpt><trkpt lat="45.57676796029773" lon="8.040283984201551"><ele>526.0</ele><time>2026-04-26T11:32:23Z</time></trkpt><trkpt lat="45.57662278573972" lon="8.040384032839457"><ele>526.0</ele><time>2026-04-26T11:32:24Z</time></trkpt><trkpt lat="45.576473788608105" lon="8.040483134592472"><ele>526.0</ele><time>2026-04-26T11:32:25Z</time></trkpt><trkpt lat="45.57633549777634" lon="8.040584735255324"><ele>526.0</ele><time>2026-04-26T11:32:26Z</time></trkpt><trkpt lat="45.57619900613326" lon="8.040685602923537"><ele>526.0</ele><time>2026-04-26T11:32:27Z</time></trkpt><trkpt lat="45.576065933644266" lon="8.040793073345112"><ele>526.0</ele><time>2026-04-26T11:32:28Z</time></trkpt><trkpt lat="45.57593953583932" lon="8.040910306338073"><ele>524.5</ele><time>2026-04-26T11:32:29Z</time></trkpt><trkpt lat="45.57582029260969" lon="8.041040554590497"><ele>523.0</ele><time>2026-04-26T11:32:30Z</time></trkpt><trkpt lat="45.57570758431559" lon="8.04117946131828"><ele>521.5</ele><time>2026-04-26T11:32:31Z</time></trkpt><trkpt lat="45.57559378040882" lon="8.041319439049776"><ele>520.0</ele><time>2026-04-26T11:32:32Z</time></trkpt><trkpt lat="45.5754679663465" lon="8.041443442830108"><ele>520.0</ele><time>2026-04-26T11:32:33Z</time></trkpt><trkpt lat="45.57535759112317" lon="8.041591780178472"><ele>520.0</ele><time>2026-04-26T11:32:34Z</time></trkpt><trkpt lat="45.575245879840125" lon="8.041734685844439"><ele>520.0</ele><time>2026-04-26T11:32:35Z</time></trkpt><trkpt lat="45.57513707531136" lon="8.041880034042972"><ele>518.75</ele><time>2026-04-26T11:32:36Z</time></trkpt><trkpt lat="45.575024485659185" lon="8.042003142242654"><ele>517.5</ele><time>2026-04-26T11:32:37Z</time></trkpt><trkpt lat="45.57490075108393" lon="8.042092109344775"><ele>516.25</ele><time>2026-04-26T11:32:38Z</time></trkpt><trkpt lat="45.574765993935465" lon="8.04215621466186"><ele>515.0</ele><time>2026-04-26T11:32:39Z</time></trkpt><trkpt lat="45.574619271090185" lon="8.042191649962977"><ele>513.0</ele><time>2026-04-26T11:32:40Z</time></trkpt><trkpt lat="45.57447109306406" lon="8.042211871118951"><ele>511.0</ele><time>2026-04-26T11:32:41Z</time></trkpt><trkpt lat="45.57432982728058" lon="8.04224346743193"><ele>509.0</ele><time>2026-04-26T11:32:42Z</time></trkpt><trkpt lat="45.574200289731586" lon="8.042299573980506"><ele>507.0</ele><time>2026-04-26T11:32:43Z</time></trkpt><trkpt lat="45.574076254253825" lon="8.042372317548477"><ele>506.75</ele><time>2026-04-26T11:32:44Z</time></trkpt><trkpt lat="45.573969145640326" lon="8.042469484726954"><ele>506.5</ele><time>2026-04-26T11:32:45Z</time></trkpt><trkpt lat="45.57387277083707" lon="8.04260561030075"><ele>506.25</ele><time>2026-04-26T11:32:46Z</time></trkpt><trkpt lat="45.57377854528267" lon="8.042771336097733"><ele>506.0</ele><time>2026-04-26T11:32:47Z</time></trkpt><trkpt lat="45.573687410083615" lon="8.042946581490083"><ele>505.0</ele><time>2026-04-26T11:32:48Z</time></trkpt><trkpt lat="45.57357971912883" lon="8.043103973024422"><ele>504.0</ele><time>2026-04-26T11:32:49Z</time></trkpt><trkpt lat="45.57346423300407" lon="8.043228300315066"><ele>503.0</ele><time>2026-04-26T11:32:50Z</time></trkpt><trkpt lat="45.573327803476936" lon="8.043334177777119"><ele>501.66666666666663</ele><time>2026-04-26T11:32:51Z</time></trkpt><trkpt lat="45.57318856286159" lon="8.043439476754722"><ele>500.33333333333337</ele><time>2026-04-26T11:32:52Z</time></trkpt><trkpt lat="45.573045465948965" lon="8.043547352744062"><ele>499.0</ele><time>2026-04-26T11:32:53Z</time></trkpt><trkpt lat="45.572899475413216" lon="8.043657764458105"><ele>497.0</ele><time>2026-04-26T11:32:54Z</time></trkpt><trkpt lat="45.57275457394007" lon="8.043761779552122"><ele>495.0</ele><time>2026-04-26T11:32:55Z</time></trkpt><trkpt lat="45.5726176819058" lon="8.043865866217049"><ele>493.0</ele><time>2026-04-26T11:32:56Z</time></trkpt><trkpt lat="45.5724841392258" lon="8.043963797133788"><ele>493.0</ele><time>2026-04-26T11:32:57Z</time></trkpt><trkpt lat="45.572360796558065" lon="8.044040388875791"><ele>492.99999999999994</ele><time>2026-04-26T11:32:58Z</time></trkpt><trkpt lat="45.572250793661766" lon="8.044102074839586"><ele>492.99999999999994</ele><time>2026-04-26T11:32:59Z</time></trkpt><trkpt lat="45.57215815438376" lon="8.044152855329935"><ele>493.0</ele><time>2026-04-26T11:33:00Z</time></trkpt><trkpt lat="45.57207139454096" lon="8.044211096612019"><ele>493.0</ele><time>2026-04-26T11:33:01Z</time></trkpt><trkpt lat="45.57199514597183" lon="8.04429268507604"><ele>491.0</ele><time>2026-04-26T11:33:02Z</time></trkpt><trkpt lat="45.571935554083296" lon="8.04440709053372"><ele>489.0</ele><time>2026-04-26T11:33:03Z</time></trkpt><trkpt lat="45.57189488865654" lon="8.044555330804831"><ele>487.0</ele><time>2026-04-26T11:33:04Z</time></trkpt><trkpt lat="45.57188420539272" lon="8.044732055958834"><ele>485.0</ele><time>2026-04-26T11:33:05Z</time></trkpt><trkpt lat="45.571876664854564" lon="8.044912275465085"><ele>484.5</ele><time>2026-04-26T11:33:06Z</time></trkpt><trkpt lat="45.57184880944844" lon="8.045087738600547"><ele>484.0</ele><time>2026-04-26T11:33:07Z</time></trkpt><trkpt lat="45.57184524398176" lon="8.04526449505816"><ele>483.5</ele><time>2026-04-26T11:33:08Z</time></trkpt><trkpt lat="45.57184453117632" lon="8.04543146150637"><ele>483.0</ele><time>2026-04-26T11:33:09Z</time></trkpt><trkpt lat="45.5718074555809" lon="8.045591039817412"><ele>483.0</ele><time>2026-04-26T11:33:10Z</time></trkpt><trkpt lat="45.57176575621758" lon="8.045753732920792"><ele>483.0</ele><time>2026-04-26T11:33:11Z</time></trkpt><trkpt lat="45.57172223557062" lon="8.045910828843434"><ele>483.0</ele><time>2026-04-26T11:33:12Z</time></trkpt><trkpt lat="45.57166251995409" lon="8.046055558642248"><ele>483.0</ele><time>2026-04-26T11:33:13Z</time></trkpt><trkpt lat="45.5715878217104" lon="8.046190622872535"><ele>484.5</ele><time>2026-04-26T11:33:14Z</time></trkpt><trkpt lat="45.57149850766366" lon="8.046310577755968"><ele>486.0</ele><time>2026-04-26T11:33:15Z</time></trkpt><trkpt lat="45.571403256402114" lon="8.046428419416284"><ele>487.5</ele><time>2026-04-26T11:33:16Z</time></trkpt><trkpt lat="45.571322993278955" lon="8.04655004682833"><ele>489.0</ele><time>2026-04-26T11:33:17Z</time></trkpt><trkpt lat="45.57124235648544" lon="8.04665966666095"><ele>487.5</ele><time>2026-04-26T11:33:18Z</time></trkpt><trkpt lat="45.571184532169" lon="8.046792014427082"><ele>486.0</ele><time>2026-04-26T11:33:19Z</time></trkpt><trkpt lat="45.571154651669175" lon="8.046965119209933"><ele>484.5</ele><time>2026-04-26T11:33:20Z</time></trkpt><trkpt lat="45.57116228927345" lon="8.047173459815108"><ele>483.0</ele><time>2026-04-26T11:33:21Z</time></trkpt><trkpt lat="45.571168193609964" lon="8.047378110317775"><ele>483.79999999999995</ele><time>2026-04-26T11:33:22Z</time></trkpt><trkpt lat="45.57116840109668" lon="8.04755530914465"><ele>484.59999999999997</ele><time>2026-04-26T11:33:23Z</time></trkpt><trkpt lat="45.57115947158092" lon="8.047718111744876"><ele>485.40000000000003</ele><time>2026-04-26T11:33:24Z</time></trkpt><trkpt lat="45.571159800734044" lon="8.047872275244039"><ele>486.20000000000005</ele><time>2026-04-26T11:33:25Z</time></trkpt><trkpt lat="45.571186256570925" lon="8.048012142423914"><ele>487.0</ele><time>2026-04-26T11:33:26Z</time></trkpt><trkpt lat="45.57124316574333" lon="8.048144295444557"><ele>487.0</ele><time>2026-04-26T11:33:27Z</time></trkpt><trkpt lat="45.571334832836754" lon="8.04827928862529"><ele>487.0</ele><time>2026-04-26T11:33:28Z</time></trkpt><trkpt lat="45.57140773557195" lon="8.048427083608853"><ele>487.0</ele><time>2026-04-26T11:33:29Z</time></trkpt><trkpt lat="45.571487498833044" lon="8.048578164746367"><ele>487.0</ele><time>2026-04-26T11:33:30Z</time></trkpt><trkpt lat="45.571573729994206" lon="8.048728729612717"><ele>483.0</ele><time>2026-04-26T11:33:31Z</time></trkpt><trkpt lat="45.57167423509924" lon="8.048867657176716"><ele>479.0</ele><time>2026-04-26T11:33:32Z</time></trkpt><trkpt lat="45.571794572863325" lon="8.048993458859115"><ele>475.0</ele><time>2026-04-26T11:33:33Z</time></trkpt><trkpt lat="45.571924979773236" lon="8.049111615307973"><ele>471.0</ele><time>2026-04-26T11:33:34Z</time></trkpt><trkpt lat="45.57205972640735" lon="8.049227518382262"><ele>470.5</ele><time>2026-04-26T11:33:35Z</time></trkpt><trkpt lat="45.57218601591187" lon="8.04934058794833"><ele>470.0</ele><time>2026-04-26T11:33:36Z</time></trkpt><trkpt lat="45.57230324187397" lon="8.04944082601989"><ele>469.5</ele><time>2026-04-26T11:33:37Z</time></trkpt><trkpt lat="45.572409653248336" lon="8.049533363070463"><ele>469.0</ele><time>2026-04-26T11:33:38Z</time></trkpt><trkpt lat="45.572516126892566" lon="8.049619466473446"><ele>469.0</ele><time>2026-04-26T11:33:39Z</time></trkpt><trkpt lat="45.57260665095016" lon="8.049705069693802"><ele>469.0</ele><time>2026-04-26T11:33:40Z</time></trkpt><trkpt lat="45.57269150494179" lon="8.04979283083988"><ele>469.0</ele><time>2026-04-26T11:33:41Z</time></trkpt><trkpt lat="45.57275534590769" lon="8.049903628186783"><ele>469.0</ele><time>2026-04-26T11:33:42Z</time></trkpt><trkpt lat="45.57279695406958" lon="8.050029129213344"><ele>469.0</ele><time>2026-04-26T11:33:43Z</time></trkpt><trkpt lat="45.57280522517242" lon="8.050162011010631"><ele>465.4</ele><time>2026-04-26T11:33:44Z</time></trkpt><trkpt lat="45.57278711876685" lon="8.050302423499076"><ele>461.79999999999995</ele><time>2026-04-26T11:33:45Z</time></trkpt><trkpt lat="45.57273259268213" lon="8.050439386263758"><ele>458.20000000000005</ele><time>2026-04-26T11:33:46Z</time></trkpt><trkpt lat="45.57263967647052" lon="8.050526543936678"><ele>454.6</ele><time>2026-04-26T11:33:47Z</time></trkpt><trkpt lat="45.572544755035594" lon="8.050579080962054"><ele>451.0</ele><time>2026-04-26T11:33:48Z</time></trkpt><trkpt lat="45.572421571509196" lon="8.050578108288445"><ele>451.0</ele><time>2026-04-26T11:33:49Z</time></trkpt><trkpt lat="45.57229541949373" lon="8.050563936564162"><ele>451.0</ele><time>2026-04-26T11:33:50Z</time></trkpt><trkpt lat="45.57216332578898" lon="8.050546104080908"><ele>451.0</ele><time>2026-04-26T11:33:51Z</time></trkpt><trkpt lat="45.57204107918909" lon="8.05052943402682"><ele>451.0</ele><time>2026-04-26T11:33:52Z</time></trkpt><trkpt lat="45.57192927996082" lon="8.050515895784446"><ele>450.00000000000006</ele><time>2026-04-26T11:33:53Z</time></trkpt><trkpt lat="45.571831022287135" lon="8.050498533802255"><ele>449.0</ele><time>2026-04-26T11:33:54Z</time></trkpt><trkpt lat="45.5717462671228" lon="8.050479149141221"><ele>448.0</ele><time>2026-04-26T11:33:55Z</time></trkpt><trkpt lat="45.57167239862934" lon="8.050465245220158"><ele>447.0</ele><time>2026-04-26T11:33:56Z</time></trkpt><trkpt lat="45.57160704003222" lon="8.05046113303631"><ele>446.00000000000006</ele><time>2026-04-26T11:33:57Z</time></trkpt><trkpt lat="45.571501786362795" lon="8.050459317140696"><ele>445.0</ele><time>2026-04-26T11:33:59Z</time></trkpt><trkpt lat="45.57145357434665" lon="8.050611506172796"><ele>445.0</ele><time>2026-04-26T11:34:01Z</time></trkpt><trkpt lat="45.57144318555781" lon="8.050702816989396"><ele>445.0</ele><time>2026-04-26T11:34:02Z</time></trkpt><trkpt lat="45.57140950089024" lon="8.050806455948347"><ele>445.0</ele><time>2026-04-26T11:34:03Z</time></trkpt><trkpt lat="45.57136242317165" lon="8.05092318816194"><ele>445.0</ele><time>2026-04-26T11:34:04Z</time></trkpt><trkpt lat="45.57129609503694" lon="8.051043107403538"><ele>445.0</ele><time>2026-04-26T11:34:05Z</time></trkpt><trkpt lat="45.571231527229415" lon="8.051178561472035"><ele>444.6</ele><time>2026-04-26T11:34:06Z</time></trkpt><trkpt lat="45.5711815149807" lon="8.05132558570002"><ele>444.2</ele><time>2026-04-26T11:34:07Z</time></trkpt><trkpt lat="45.571126087820176" lon="8.051460081118552"><ele>443.79999999999995</ele><time>2026-04-26T11:34:08Z</time></trkpt><trkpt lat="45.571087565534434" lon="8.051599950039844"><ele>443.4</ele><time>2026-04-26T11:34:09Z</time></trkpt><trkpt lat="45.57104618974627" lon="8.05171776631349"><ele>443.0</ele><time>2026-04-26T11:34:10Z</time></trkpt><trkpt lat="45.5710102686759" lon="8.051826830169402"><ele>442.49999999999994</ele><time>2026-04-26T11:34:11Z</time></trkpt><trkpt lat="45.57097538702724" lon="8.051923071582115"><ele>442.0</ele><time>2026-04-26T11:34:12Z</time></trkpt><trkpt lat="45.57094117830869" lon="8.05201121092251"><ele>441.5</ele><time>2026-04-26T11:34:13Z</time></trkpt><trkpt lat="45.57091464791425" lon="8.052095577547126"><ele>441.0</ele><time>2026-04-26T11:34:14Z</time></trkpt><trkpt lat="45.570874242666086" lon="8.052244603666862"><ele>440.49999999999994</ele><time>2026-04-26T11:34:16Z</time></trkpt><trkpt lat="45.57082217186636" lon="8.05235129710665"><ele>440.0</ele><time>2026-04-26T11:34:18Z</time></trkpt><trkpt lat="45.57074509766774" lon="8.052446956893503"><ele>439.8333333333333</ele><time>2026-04-26T11:34:20Z</time></trkpt><trkpt lat="45.57069514521747" lon="8.05253157914713"><ele>439.66666666666663</ele><time>2026-04-26T11:34:22Z</time></trkpt><trkpt lat="45.57074354049587" lon="8.052619506973304"><ele>439.5</ele><time>2026-04-26T11:34:24Z</time></trkpt><trkpt lat="45.57083491601656" lon="8.052727172459845"><ele>439.33333333333337</ele><time>2026-04-26T11:34:26Z</time></trkpt><trkpt lat="45.57085913749173" lon="8.052810882236738"><ele>439.1666666666667</ele><time>2026-04-26T11:34:27Z</time></trkpt><trkpt lat="45.570893797389786" lon="8.052949148851773"><ele>439.0</ele><time>2026-04-26T11:34:29Z</time></trkpt><trkpt lat="45.57090316045553" lon="8.053047987822225"><ele>439.0</ele><time>2026-04-26T11:34:58Z</time></trkpt><trkpt lat="45.5709452660911" lon="8.053187830416677"><ele>439.0</ele><time>2026-04-26T11:35:00Z</time></trkpt><trkpt lat="45.57099509592339" lon="8.053309197347643"><ele>439.0</ele><time>2026-04-26T11:35:02Z</time></trkpt><trkpt lat="45.571037818278576" lon="8.053405750647018"><ele>439.0</ele><time>2026-04-26T11:35:04Z</time></trkpt><trkpt lat="45.57118276872047" lon="8.053385813060443"><ele>439.0</ele><time>2026-04-26T11:35:07Z</time></trkpt><trkpt lat="45.571250008887844" lon="8.05331315148972"><ele>437.6</ele><time>2026-04-26T11:35:08Z</time></trkpt><trkpt lat="45.57131857998813" lon="8.053222367678446"><ele>436.2</ele><time>2026-04-26T11:35:09Z</time></trkpt><trkpt lat="45.571392076558695" lon="8.053119678787922"><ele>434.80000000000007</ele><time>2026-04-26T11:35:10Z</time></trkpt><trkpt lat="45.57145212665887" lon="8.052993612174685"><ele>433.40000000000003</ele><time>2026-04-26T11:35:11Z</time></trkpt><trkpt lat="45.57153720667942" lon="8.052916797165834"><ele>432.0</ele><time>2026-04-26T11:35:12Z</time></trkpt><trkpt lat="45.57160504545087" lon="8.052836637041695"><ele>432.0</ele><time>2026-04-26T11:35:13Z</time></trkpt><trkpt lat="45.57167053090798" lon="8.052762965732976"><ele>432.0</ele><time>2026-04-26T11:35:14Z</time></trkpt><trkpt lat="45.57173881050271" lon="8.052715394074365"><ele>432.0</ele><time>2026-04-26T11:35:15Z</time></trkpt><trkpt lat="45.57180973855909" lon="8.052650428871075"><ele>432.0</ele><time>2026-04-26T11:35:16Z</time></trkpt><trkpt lat="45.57187963564159" lon="8.05257550408122"><ele>432.0</ele><time>2026-04-26T11:35:17Z</time></trkpt><trkpt lat="45.571987288423145" lon="8.05250820892971"><ele>432.0</ele><time>2026-04-26T11:35:18Z</time></trkpt><trkpt lat="45.57213019339794" lon="8.052437046792852"><ele>434.0</ele><time>2026-04-26T11:35:19Z</time></trkpt><trkpt lat="45.57228038332918" lon="8.052359113817445"><ele>436.0</ele><time>2026-04-26T11:35:20Z</time></trkpt><trkpt lat="45.572427943345716" lon="8.052285357919699"><ele>438.0</ele><time>2026-04-26T11:35:21Z</time></trkpt><trkpt lat="45.57258285817895" lon="8.052256113048706"><ele>438.0</ele><time>2026-04-26T11:35:22Z</time></trkpt><trkpt lat="45.57270890076532" lon="8.052144862855362"><ele>438.0</ele><time>2026-04-26T11:35:23Z</time></trkpt><trkpt lat="45.57285284859908" lon="8.052081966136095"><ele>438.0</ele><time>2026-04-26T11:35:24Z</time></trkpt><trkpt lat="45.5729807221962" lon="8.052034687461099"><ele>438.0</ele><time>2026-04-26T11:35:25Z</time></trkpt><trkpt lat="45.57311375974385" lon="8.051993401487971"><ele>436.79999999999995</ele><time>2026-04-26T11:35:26Z</time></trkpt><trkpt lat="45.57324106025657" lon="8.051978749730278"><ele>435.59999999999997</ele><time>2026-04-26T11:35:27Z</time></trkpt><trkpt lat="45.57335307702164" lon="8.051984046763783"><ele>434.40000000000003</ele><time>2026-04-26T11:35:28Z</time></trkpt><trkpt lat="45.573445307033204" lon="8.051994154494672"><ele>433.20000000000005</ele><time>2026-04-26T11:35:29Z</time></trkpt><trkpt lat="45.57354052976802" lon="8.05200799807821"><ele>432.0</ele><time>2026-04-26T11:35:31Z</time></trkpt><trkpt lat="45.57364741957491" lon="8.052081802341874"><ele>432.0</ele><time>2026-04-26T11:35:41Z</time></trkpt><trkpt lat="45.57370744733525" lon="8.052127543834908"><ele>432.00000000000006</ele><time>2026-04-26T11:35:43Z</time></trkpt><trkpt lat="45.57360857468595" lon="8.052277615813548"><ele>432.00000000000006</ele><time>2026-04-26T11:35:44Z</time></trkpt><trkpt lat="45.57354048625095" lon="8.052339847454826"><ele>432.0</ele><time>2026-04-26T11:35:45Z</time></trkpt><trkpt lat="45.57345937072099" lon="8.052405291843172"><ele>432.0</ele><time>2026-04-26T11:35:46Z</time></trkpt><trkpt lat="45.57336381789352" lon="8.052473129724945"><ele>428.0</ele><time>2026-04-26T11:35:47Z</time></trkpt><trkpt lat="45.57325231119647" lon="8.052534197209898"><ele>424.0</ele><time>2026-04-26T11:35:48Z</time></trkpt><trkpt lat="45.57312944909775" lon="8.052593575821705"><ele>420.0</ele><time>2026-04-26T11:35:49Z</time></trkpt><trkpt lat="45.57300470266715" lon="8.052658736562673"><ele>416.0</ele><time>2026-04-26T11:35:50Z</time></trkpt><trkpt lat="45.572885472868236" lon="8.052721898822764"><ele>417.25</ele><time>2026-04-26T11:35:51Z</time></trkpt><trkpt lat="45.572767647972334" lon="8.05278827331175"><ele>418.5</ele><time>2026-04-26T11:35:52Z</time></trkpt><trkpt lat="45.57265968454826" lon="8.05287176609865"><ele>419.75</ele><time>2026-04-26T11:35:53Z</time></trkpt><trkpt lat="45.5725637468259" lon="8.052980048322269"><ele>421.0</ele><time>2026-04-26T11:35:54Z</time></trkpt><trkpt lat="45.57247133200831" lon="8.053109010170703"><ele>421.0</ele><time>2026-04-26T11:35:55Z</time></trkpt><trkpt lat="45.57238468535517" lon="8.053246308769292"><ele>421.0</ele><time>2026-04-26T11:35:56Z</time></trkpt><trkpt lat="45.572300807684755" lon="8.053393466703914"><ele>421.0</ele><time>2026-04-26T11:35:57Z</time></trkpt><trkpt lat="45.572218637530746" lon="8.053547997409511"><ele>421.0</ele><time>2026-04-26T11:35:58Z</time></trkpt><trkpt lat="45.5721355629371" lon="8.053699674400232"><ele>421.0</ele><time>2026-04-26T11:35:59Z</time></trkpt><trkpt lat="45.57205375667729" lon="8.053841561638533"><ele>421.0</ele><time>2026-04-26T11:36:00Z</time></trkpt><trkpt lat="45.57196720708296" lon="8.053982290804583"><ele>421.0</ele><time>2026-04-26T11:36:01Z</time></trkpt><trkpt lat="45.57187976001065" lon="8.05412939169052"><ele>421.0</ele><time>2026-04-26T11:36:02Z</time></trkpt><trkpt lat="45.571791774021854" lon="8.05427921851517"><ele>418.25</ele><time>2026-04-26T11:36:03Z</time></trkpt><trkpt lat="45.57170611942998" lon="8.05442692295483"><ele>415.5</ele><time>2026-04-26T11:36:04Z</time></trkpt><trkpt lat="45.57162997287935" lon="8.05455673177243"><ele>412.75</ele><time>2026-04-26T11:36:05Z</time></trkpt><trkpt lat="45.5715674940309" lon="8.054680077913487"><ele>410.0</ele><time>2026-04-26T11:36:06Z</time></trkpt><trkpt lat="45.57150623880325" lon="8.054800393450046"><ele>410.0</ele><time>2026-04-26T11:36:07Z</time></trkpt><trkpt lat="45.57143985849308" lon="8.054932702545392"><ele>410.0</ele><time>2026-04-26T11:36:08Z</time></trkpt><trkpt lat="45.57138422579842" lon="8.055087761888567"><ele>410.0</ele><time>2026-04-26T11:36:09Z</time></trkpt><trkpt lat="45.57134697210452" lon="8.05526745709372"><ele>410.0</ele><time>2026-04-26T11:36:10Z</time></trkpt><trkpt lat="45.571327160272496" lon="8.055458464134455"><ele>408.5</ele><time>2026-04-26T11:36:11Z</time></trkpt><trkpt lat="45.57131323036349" lon="8.055661211887752"><ele>407.0</ele><time>2026-04-26T11:36:12Z</time></trkpt><trkpt lat="45.571299489535264" lon="8.055869008338227"><ele>405.5</ele><time>2026-04-26T11:36:13Z</time></trkpt><trkpt lat="45.571264430203115" lon="8.05607579950942"><ele>404.0</ele><time>2026-04-26T11:36:14Z</time></trkpt><trkpt lat="45.57125713482098" lon="8.056314805633725"><ele>402.66666666666663</ele><time>2026-04-26T11:36:15Z</time></trkpt><trkpt lat="45.571238471671016" lon="8.05655653951021"><ele>401.33333333333337</ele><time>2026-04-26T11:36:16Z</time></trkpt><trkpt lat="45.57122131903706" lon="8.056804665791576"><ele>400.0</ele><time>2026-04-26T11:36:17Z</time></trkpt><trkpt lat="45.57120011547341" lon="8.057053117766172"><ele>405.33333333333337</ele><time>2026-04-26T11:36:18Z</time></trkpt><trkpt lat="45.571177025766026" lon="8.057297733263127"><ele>410.66666666666663</ele><time>2026-04-26T11:36:19Z</time></trkpt><trkpt lat="45.57115712281996" lon="8.057541171528056"><ele>416.0</ele><time>2026-04-26T11:36:20Z</time></trkpt><trkpt lat="45.57114224157759" lon="8.057782998400706"><ele>416.0</ele><time>2026-04-26T11:36:21Z</time></trkpt><trkpt lat="45.57112586655173" lon="8.058013393877555"><ele>416.0</ele><time>2026-04-26T11:36:22Z</time></trkpt><trkpt lat="45.57108351648733" lon="8.058227280783184"><ele>416.0</ele><time>2026-04-26T11:36:23Z</time></trkpt><trkpt lat="45.57106790805713" lon="8.05843511631691"><ele>416.0</ele><time>2026-04-26T11:36:24Z</time></trkpt><trkpt lat="45.57106689205469" lon="8.058636195043963"><ele>416.0</ele><time>2026-04-26T11:36:25Z</time></trkpt><trkpt lat="45.57104550085658" lon="8.058822748157027"><ele>416.0</ele><time>2026-04-26T11:36:26Z</time></trkpt><trkpt lat="45.57101835265103" lon="8.05899056940883"><ele>416.0</ele><time>2026-04-26T11:36:27Z</time></trkpt><trkpt lat="45.570975170332034" lon="8.059138561473837"><ele>413.6</ele><time>2026-04-26T11:36:28Z</time></trkpt><trkpt lat="45.570917303265695" lon="8.059264677021869"><ele>411.20000000000005</ele><time>2026-04-26T11:36:29Z</time></trkpt><trkpt lat="45.57084736272401" lon="8.05938529784225"><ele>408.79999999999995</ele><time>2026-04-26T11:36:30Z</time></trkpt><trkpt lat="45.57078033391464" lon="8.0595072425205"><ele>406.4</ele><time>2026-04-26T11:36:31Z</time></trkpt><trkpt lat="45.57072060515298" lon="8.059611947171408"><ele>404.0</ele><time>2026-04-26T11:36:32Z</time></trkpt><trkpt lat="45.57066988991706" lon="8.059688779939536"><ele>404.0</ele><time>2026-04-26T11:36:33Z</time></trkpt><trkpt lat="45.570626181250745" lon="8.059753586202161"><ele>404.0</ele><time>2026-04-26T11:36:34Z</time></trkpt><trkpt lat="45.57056951290898" lon="8.05981083603849"><ele>404.0</ele><time>2026-04-26T11:36:36Z</time></trkpt><trkpt lat="45.570476277955315" lon="8.05989167805226"><ele>404.0</ele><time>2026-04-26T11:36:39Z</time></trkpt><trkpt lat="45.570407387440554" lon="8.060022021015778"><ele>404.0</ele><time>2026-04-26T11:36:41Z</time></trkpt><trkpt lat="45.570492806658145" lon="8.060178613635216"><ele>401.4</ele><time>2026-04-26T11:36:43Z</time></trkpt><trkpt lat="45.570581339847294" lon="8.06023394934517"><ele>398.79999999999995</ele><time>2026-04-26T11:36:44Z</time></trkpt><trkpt lat="45.570675983927856" lon="8.060291883390283"><ele>396.20000000000005</ele><time>2026-04-26T11:36:45Z</time></trkpt><trkpt lat="45.57078169471008" lon="8.06035718445537"><ele>393.6</ele><time>2026-04-26T11:36:46Z</time></trkpt><trkpt lat="45.57089465841956" lon="8.060431612177576"><ele>391.0</ele><time>2026-04-26T11:36:47Z</time></trkpt><trkpt lat="45.57100522915126" lon="8.060501903448156"><ele>391.0</ele><time>2026-04-26T11:36:48Z</time></trkpt><trkpt lat="45.571110032902176" lon="8.06057333496874"><ele>391.0</ele><time>2026-04-26T11:36:49Z</time></trkpt><trkpt lat="45.57120135240829" lon="8.060654755621307"><ele>391.0</ele><time>2026-04-26T11:36:50Z</time></trkpt><trkpt lat="45.57127311876658" lon="8.060757537780965"><ele>391.0</ele><time>2026-04-26T11:36:51Z</time></trkpt><trkpt lat="45.57134484879092" lon="8.060870296817924"><ele>391.0</ele><time>2026-04-26T11:36:52Z</time></trkpt><trkpt lat="45.571352567458455" lon="8.061030349288908"><ele>392.0</ele><time>2026-04-26T11:36:53Z</time></trkpt><trkpt lat="45.57138761661867" lon="8.061192925623075"><ele>393.0</ele><time>2026-04-26T11:36:54Z</time></trkpt><trkpt lat="45.57137255628849" lon="8.06137449114213"><ele>394.0</ele><time>2026-04-26T11:36:55Z</time></trkpt><trkpt lat="45.57135403461253" lon="8.061548669499983"><ele>395.0</ele><time>2026-04-26T11:36:56Z</time></trkpt><trkpt lat="45.57132176652785" lon="8.061739477344233"><ele>395.75</ele><time>2026-04-26T11:36:57Z</time></trkpt><trkpt lat="45.571286233678734" lon="8.061933255891923"><ele>396.5</ele><time>2026-04-26T11:36:58Z</time></trkpt><trkpt lat="45.571252368180375" lon="8.062122139168181"><ele>397.25</ele><time>2026-04-26T11:36:59Z</time></trkpt><trkpt lat="45.5712167748809" lon="8.062308627293845"><ele>398.0</ele><time>2026-04-26T11:37:00Z</time></trkpt><trkpt lat="45.571185475350525" lon="8.062491954789207"><ele>396.25</ele><time>2026-04-26T11:37:01Z</time></trkpt><trkpt lat="45.57116019838043" lon="8.062674927205045"><ele>394.5</ele><time>2026-04-26T11:37:02Z</time></trkpt><trkpt lat="45.57112945809603" lon="8.062858573928308"><ele>392.75</ele><time>2026-04-26T11:37:03Z</time></trkpt><trkpt lat="45.57110061744976" lon="8.063041657127327"><ele>391.0</ele><time>2026-04-26T11:37:04Z</time></trkpt><trkpt lat="45.571063823359864" lon="8.063223357356126"><ele>391.25</ele><time>2026-04-26T11:37:05Z</time></trkpt><trkpt lat="45.57103037840878" lon="8.063405450553795"><ele>391.5</ele><time>2026-04-26T11:37:06Z</time></trkpt><trkpt lat="45.5709890082581" lon="8.063587706411846"><ele>391.75</ele><time>2026-04-26T11:37:07Z</time></trkpt><trkpt lat="45.57094658488085" lon="8.063772665955318"><ele>392.0</ele><time>2026-04-26T11:37:08Z</time></trkpt><trkpt lat="45.5709070766134" lon="8.063964487421341"><ele>391.5</ele><time>2026-04-26T11:37:09Z</time></trkpt><trkpt lat="45.57087057760089" lon="8.064158786568449"><ele>391.0</ele><time>2026-04-26T11:37:10Z</time></trkpt><trkpt lat="45.57083388452137" lon="8.064353483623718"><ele>390.5</ele><time>2026-04-26T11:37:11Z</time></trkpt><trkpt lat="45.570794586722904" lon="8.064553334673557"><ele>390.0</ele><time>2026-04-26T11:37:12Z</time></trkpt><trkpt lat="45.5707557119744" lon="8.064759851875117"><ele>390.0</ele><time>2026-04-26T11:37:13Z</time></trkpt><trkpt lat="45.5707136648295" lon="8.064969317070435"><ele>390.0</ele><time>2026-04-26T11:37:14Z</time></trkpt><trkpt lat="45.57067593903494" lon="8.06518170291132"><ele>390.0</ele><time>2026-04-26T11:37:15Z</time></trkpt><trkpt lat="45.5706378621178" lon="8.06539778665908"><ele>390.0</ele><time>2026-04-26T11:37:16Z</time></trkpt><trkpt lat="45.570595777846" lon="8.065617776994468"><ele>390.0</ele><time>2026-04-26T11:37:17Z</time></trkpt><trkpt lat="45.57055171769032" lon="8.065842416270916"><ele>390.0</ele><time>2026-04-26T11:37:18Z</time></trkpt><trkpt lat="45.570508113313466" lon="8.066078349237172"><ele>390.33333333333337</ele><time>2026-04-26T11:37:19Z</time></trkpt><trkpt lat="45.57046194039051" lon="8.066315836742502"><ele>390.6666666666667</ele><time>2026-04-26T11:37:20Z</time></trkpt><trkpt lat="45.57041868743503" lon="8.066537386833673"><ele>391.0</ele><time>2026-04-26T11:37:21Z</time></trkpt><trkpt lat="45.570391797353395" lon="8.066708791192607"><ele>391.0</ele><time>2026-04-26T11:37:22Z</time></trkpt><trkpt lat="45.57036386973402" lon="8.066846338539918"><ele>391.0</ele><time>2026-04-26T11:37:23Z</time></trkpt><trkpt lat="45.57033593264438" lon="8.066991804295194"><ele>391.0</ele><time>2026-04-26T11:37:24Z</time></trkpt><trkpt lat="45.57030804409639" lon="8.067142089750142"><ele>391.0</ele><time>2026-04-26T11:37:25Z</time></trkpt><trkpt lat="45.57027332948185" lon="8.067296729898137"><ele>391.0</ele><time>2026-04-26T11:37:26Z</time></trkpt><trkpt lat="45.57024726632351" lon="8.067459220766963"><ele>389.5</ele><time>2026-04-26T11:37:27Z</time></trkpt><trkpt lat="45.57021511582819" lon="8.06763028321162"><ele>388.0</ele><time>2026-04-26T11:37:28Z</time></trkpt><trkpt lat="45.57018580161705" lon="8.06780920036103"><ele>386.5</ele><time>2026-04-26T11:37:29Z</time></trkpt><trkpt lat="45.57014966411247" lon="8.067994489989884"><ele>385.0</ele><time>2026-04-26T11:37:30Z</time></trkpt><trkpt lat="45.57011824408205" lon="8.068179933521488"><ele>385.25</ele><time>2026-04-26T11:37:31Z</time></trkpt><trkpt lat="45.57008252453859" lon="8.068376486775184"><ele>385.5</ele><time>2026-04-26T11:37:32Z</time></trkpt><trkpt lat="45.570043828084245" lon="8.068578468727129"><ele>385.75</ele><time>2026-04-26T11:37:33Z</time></trkpt><trkpt lat="45.57001068002684" lon="8.068782964637265"><ele>386.0</ele><time>2026-04-26T11:37:34Z</time></trkpt><trkpt lat="45.5699683355653" lon="8.068996864685088"><ele>385.66666666666663</ele><time>2026-04-26T11:37:35Z</time></trkpt><trkpt lat="45.56992643758157" lon="8.069214831088452"><ele>385.33333333333337</ele><time>2026-04-26T11:37:36Z</time></trkpt><trkpt lat="45.56988306719707" lon="8.069441685209302"><ele>385.0</ele><time>2026-04-26T11:37:37Z</time></trkpt><trkpt lat="45.5698367098269" lon="8.069678742066301"><ele>385.0</ele><time>2026-04-26T11:37:38Z</time></trkpt><trkpt lat="45.5697889689716" lon="8.069912448579746"><ele>385.0</ele><time>2026-04-26T11:37:39Z</time></trkpt><trkpt lat="45.5697426935828" lon="8.07014962000889"><ele>385.0</ele><time>2026-04-26T11:37:40Z</time></trkpt><trkpt lat="45.56970185474441" lon="8.070384065416057"><ele>384.6666666666667</ele><time>2026-04-26T11:37:41Z</time></trkpt><trkpt lat="45.569659542125386" lon="8.070615926658194"><ele>384.33333333333337</ele><time>2026-04-26T11:37:42Z</time></trkpt><trkpt lat="45.569614877849844" lon="8.070844063981156"><ele>384.0</ele><time>2026-04-26T11:37:43Z</time></trkpt><trkpt lat="45.56957436860564" lon="8.07106807915627"><ele>383.6666666666667</ele><time>2026-04-26T11:37:44Z</time></trkpt><trkpt lat="45.5695383748871" lon="8.071285290168458"><ele>383.33333333333337</ele><time>2026-04-26T11:37:45Z</time></trkpt><trkpt lat="45.569502356706366" lon="8.071496002266024"><ele>383.0</ele><time>2026-04-26T11:37:46Z</time></trkpt><trkpt lat="45.5694668922233" lon="8.071692760942929"><ele>381.5</ele><time>2026-04-26T11:37:47Z</time></trkpt><trkpt lat="45.56942740449434" lon="8.07187894898232"><ele>380.0</ele><time>2026-04-26T11:37:48Z</time></trkpt><trkpt lat="45.569394630573036" lon="8.07205938519423"><ele>378.5</ele><time>2026-04-26T11:37:49Z</time></trkpt><trkpt lat="45.56936666363343" lon="8.072206156200584"><ele>377.0</ele><time>2026-04-26T11:37:50Z</time></trkpt><trkpt lat="45.56934234356602" lon="8.072337511256801"><ele>377.33333333333337</ele><time>2026-04-26T11:37:51Z</time></trkpt><trkpt lat="45.56931315861882" lon="8.072454807164098"><ele>377.6666666666667</ele><time>2026-04-26T11:37:52Z</time></trkpt><trkpt lat="45.56926960763251" lon="8.072549255552504"><ele>378.0</ele><time>2026-04-26T11:37:53Z</time></trkpt><trkpt lat="45.56922212093546" lon="8.072640566092955"><ele>378.3333333333333</ele><time>2026-04-26T11:37:54Z</time></trkpt><trkpt lat="45.56920926254924" lon="8.072739690005426"><ele>378.66666666666663</ele><time>2026-04-26T11:37:55Z</time></trkpt><trkpt lat="45.56922464331789" lon="8.07285245550603"><ele>379.0</ele><time>2026-04-26T11:37:56Z</time></trkpt><trkpt lat="45.56923060432006" lon="8.072996433961439"><ele>379.0</ele><time>2026-04-26T11:37:57Z</time></trkpt><trkpt lat="45.56920295840892" lon="8.073164101062476"><ele>379.0</ele><time>2026-04-26T11:37:58Z</time></trkpt><trkpt lat="45.56916360591553" lon="8.073359869373164"><ele>379.0</ele><time>2026-04-26T11:37:59Z</time></trkpt><trkpt lat="45.569117878860375" lon="8.073561136736672"><ele>379.0</ele><time>2026-04-26T11:38:00Z</time></trkpt><trkpt lat="45.56907716258722" lon="8.073762045285758"><ele>378.75</ele><time>2026-04-26T11:38:01Z</time></trkpt><trkpt lat="45.56904086184362" lon="8.073971770300314"><ele>378.5</ele><time>2026-04-26T11:38:02Z</time></trkpt><trkpt lat="45.56899985097363" lon="8.074176486797457"><ele>378.25</ele><time>2026-04-26T11:38:03Z</time></trkpt><trkpt lat="45.56896403546167" lon="8.074365777326824"><ele>378.0</ele><time>2026-04-26T11:38:04Z</time></trkpt><trkpt lat="45.56892669871243" lon="8.074558255012919"><ele>377.59999999999997</ele><time>2026-04-26T11:38:05Z</time></trkpt><trkpt lat="45.56888994493157" lon="8.074748723169362"><ele>377.2</ele><time>2026-04-26T11:38:06Z</time></trkpt><trkpt lat="45.56886055129051" lon="8.074906081154275"><ele>376.8</ele><time>2026-04-26T11:38:07Z</time></trkpt><trkpt lat="45.568837551322574" lon="8.075035040512125"><ele>376.4</ele><time>2026-04-26T11:38:08Z</time></trkpt><trkpt lat="45.5688141592973" lon="8.075151124899952"><ele>376.0</ele><time>2026-04-26T11:38:09Z</time></trkpt><trkpt lat="45.568786849150605" lon="8.075246433671623"><ele>376.0</ele><time>2026-04-26T11:38:10Z</time></trkpt><trkpt lat="45.56874697444544" lon="8.075332560324128"><ele>376.0</ele><time>2026-04-26T11:38:11Z</time></trkpt><trkpt lat="45.56869839700864" lon="8.075430111809709"><ele>376.0</ele><time>2026-04-26T11:38:12Z</time></trkpt><trkpt lat="45.56867606381668" lon="8.075555244800064"><ele>376.0</ele><time>2026-04-26T11:38:13Z</time></trkpt><trkpt lat="45.568665241224416" lon="8.075698792693508"><ele>376.0</ele><time>2026-04-26T11:38:14Z</time></trkpt><trkpt lat="45.568659252222325" lon="8.075851284882045"><ele>374.75</ele><time>2026-04-26T11:38:15Z</time></trkpt><trkpt lat="45.56864571834927" lon="8.076009378671824"><ele>373.5</ele><time>2026-04-26T11:38:16Z</time></trkpt><trkpt lat="45.56862110028162" lon="8.076183138022929"><ele>372.25</ele><time>2026-04-26T11:38:17Z</time></trkpt><trkpt lat="45.56858394614668" lon="8.076372575959391"><ele>371.0</ele><time>2026-04-26T11:38:18Z</time></trkpt><trkpt lat="45.568551076484795" lon="8.076565462901323"><ele>370.6666666666667</ele><time>2026-04-26T11:38:19Z</time></trkpt><trkpt lat="45.5685176858138" lon="8.076780855637047"><ele>370.3333333333333</ele><time>2026-04-26T11:38:20Z</time></trkpt><trkpt lat="45.56847884057682" lon="8.077013377625436"><ele>370.0</ele><time>2026-04-26T11:38:21Z</time></trkpt><trkpt lat="45.56843571103572" lon="8.077249342014237"><ele>369.66666666666663</ele><time>2026-04-26T11:38:22Z</time></trkpt><trkpt lat="45.56839361510052" lon="8.077498267714207"><ele>369.3333333333333</ele><time>2026-04-26T11:38:23Z</time></trkpt><trkpt lat="45.56834209607085" lon="8.07775499415646"><ele>369.0</ele><time>2026-04-26T11:38:24Z</time></trkpt><trkpt lat="45.56828442267696" lon="8.078004467149347"><ele>369.0</ele><time>2026-04-26T11:38:25Z</time></trkpt><trkpt lat="45.56823594868564" lon="8.078242687717037"><ele>369.0</ele><time>2026-04-26T11:38:26Z</time></trkpt><trkpt lat="45.56819453329455" lon="8.078474403917122"><ele>369.0</ele><time>2026-04-26T11:38:27Z</time></trkpt><trkpt lat="45.56815072386889" lon="8.078700131983718"><ele>369.0</ele><time>2026-04-26T11:38:28Z</time></trkpt><trkpt lat="45.568108157095224" lon="8.078918372403917"><ele>369.0</ele><time>2026-04-26T11:38:29Z</time></trkpt><trkpt lat="45.568068179285305" lon="8.079127096088287"><ele>369.0</ele><time>2026-04-26T11:38:30Z</time></trkpt><trkpt lat="45.568028144785025" lon="8.079331432828228"><ele>368.5</ele><time>2026-04-26T11:38:31Z</time></trkpt><trkpt lat="45.567988963774745" lon="8.079528988585919"><ele>368.0</ele><time>2026-04-26T11:38:32Z</time></trkpt><trkpt lat="45.567955441892344" lon="8.079713747320412"><ele>367.5</ele><time>2026-04-26T11:38:33Z</time></trkpt><trkpt lat="45.56792743446962" lon="8.079884120791947"><ele>367.0</ele><time>2026-04-26T11:38:34Z</time></trkpt><trkpt lat="45.567894963116345" lon="8.080045790512932"><ele>366.6</ele><time>2026-04-26T11:38:35Z</time></trkpt><trkpt lat="45.567865776029926" lon="8.080203779971185"><ele>366.20000000000005</ele><time>2026-04-26T11:38:36Z</time></trkpt><trkpt lat="45.567839255960294" lon="8.080345492546936"><ele>365.8</ele><time>2026-04-26T11:38:37Z</time></trkpt><trkpt lat="45.567802255461864" lon="8.080465503118855"><ele>365.4</ele><time>2026-04-26T11:38:38Z</time></trkpt><trkpt lat="45.56774697725533" lon="8.080551338288283"><ele>365.0</ele><time>2026-04-26T11:38:39Z</time></trkpt><trkpt lat="45.567672747223384" lon="8.080598591063561"><ele>365.0</ele><time>2026-04-26T11:38:40Z</time></trkpt><trkpt lat="45.56759328993275" lon="8.080608496523803"><ele>365.0</ele><time>2026-04-26T11:38:41Z</time></trkpt><trkpt lat="45.567513395256775" lon="8.080651922690942"><ele>365.0</ele><time>2026-04-26T11:38:42Z</time></trkpt><trkpt lat="45.5674535425914" lon="8.080748687053516"><ele>365.0</ele><time>2026-04-26T11:38:43Z</time></trkpt><trkpt lat="45.56743075435067" lon="8.0808798276561"><ele>365.0</ele><time>2026-04-26T11:38:44Z</time></trkpt><trkpt lat="45.56744529826813" lon="8.081021640709482"><ele>364.25</ele><time>2026-04-26T11:38:45Z</time></trkpt><trkpt lat="45.56747453710452" lon="8.081170823733089"><ele>363.5</ele><time>2026-04-26T11:38:46Z</time></trkpt><trkpt lat="45.56749262417759" lon="8.081335452654331"><ele>362.75</ele><time>2026-04-26T11:38:47Z</time></trkpt><trkpt lat="45.567498818604676" lon="8.081514967984578"><ele>362.0</ele><time>2026-04-26T11:38:48Z</time></trkpt><trkpt lat="45.56749576682467" lon="8.081693880035035"><ele>361.75</ele><time>2026-04-26T11:38:49Z</time></trkpt><trkpt lat="45.567489047445086" lon="8.08186734833059"><ele>361.5</ele><time>2026-04-26T11:38:50Z</time></trkpt><trkpt lat="45.567474687768346" lon="8.082037244779011"><ele>361.25</ele><time>2026-04-26T11:38:51Z</time></trkpt><trkpt lat="45.567455376304345" lon="8.082203055777164"><ele>361.0</ele><time>2026-04-26T11:38:52Z</time></trkpt><trkpt lat="45.56743419138675" lon="8.082364072365902"><ele>360.75</ele><time>2026-04-26T11:38:53Z</time></trkpt><trkpt lat="45.56740941542372" lon="8.082539391969076"><ele>360.5</ele><time>2026-04-26T11:38:54Z</time></trkpt><trkpt lat="45.56738260629316" lon="8.082711692990607"><ele>360.25</ele><time>2026-04-26T11:38:55Z</time></trkpt><trkpt lat="45.56734981593857" lon="8.082877066673273"><ele>360.0</ele><time>2026-04-26T11:38:56Z</time></trkpt><trkpt lat="45.567316916869856" lon="8.083041859786267"><ele>360.0</ele><time>2026-04-26T11:38:57Z</time></trkpt><trkpt lat="45.56728460331139" lon="8.083219051994746"><ele>360.0</ele><time>2026-04-26T11:38:58Z</time></trkpt><trkpt lat="45.567247425456294" lon="8.083405094666468"><ele>360.0</ele><time>2026-04-26T11:38:59Z</time></trkpt><trkpt lat="45.567214121281424" lon="8.083586529094095"><ele>360.0</ele><time>2026-04-26T11:39:00Z</time></trkpt><trkpt lat="45.567178995816825" lon="8.083776181355317"><ele>359.75</ele><time>2026-04-26T11:39:01Z</time></trkpt><trkpt lat="45.56714121082664" lon="8.08396905682444"><ele>359.5</ele><time>2026-04-26T11:39:02Z</time></trkpt><trkpt lat="45.56710340162082" lon="8.084165796369373"><ele>359.25</ele><time>2026-04-26T11:39:03Z</time></trkpt><trkpt lat="45.56706491434211" lon="8.08435823449"><ele>359.0</ele><time>2026-04-26T11:39:04Z</time></trkpt><trkpt lat="45.56702541741665" lon="8.084551503508935"><ele>358.0</ele><time>2026-04-26T11:39:05Z</time></trkpt><trkpt lat="45.566988836065946" lon="8.084743797600186"><ele>357.0</ele><time>2026-04-26T11:39:06Z</time></trkpt><trkpt lat="45.566953367545395" lon="8.084926334741763"><ele>356.0</ele><time>2026-04-26T11:39:07Z</time></trkpt><trkpt lat="45.56691769363713" lon="8.085108106562927"><ele>355.0</ele><time>2026-04-26T11:39:08Z</time></trkpt><trkpt lat="45.566886171466486" lon="8.085298232613068"><ele>354.25</ele><time>2026-04-26T11:39:09Z</time></trkpt><trkpt lat="45.5668489859179" lon="8.085492156825724"><ele>353.5</ele><time>2026-04-26T11:39:10Z</time></trkpt><trkpt lat="45.56680981059479" lon="8.085690209429648"><ele>352.75</ele><time>2026-04-26T11:39:11Z</time></trkpt><trkpt lat="45.56677026886855" lon="8.085893956163417"><ele>352.0</ele><time>2026-04-26T11:39:12Z</time></trkpt><trkpt lat="45.566732508091015" lon="8.086104287095559"><ele>351.75</ele><time>2026-04-26T11:39:13Z</time></trkpt><trkpt lat="45.56669340525621" lon="8.086313250655694"><ele>351.5</ele><time>2026-04-26T11:39:14Z</time></trkpt><trkpt lat="45.56665731141698" lon="8.08651721823199"><ele>351.25</ele><time>2026-04-26T11:39:15Z</time></trkpt><trkpt lat="45.56661908036614" lon="8.086721106254414"><ele>351.0</ele><time>2026-04-26T11:39:16Z</time></trkpt><trkpt lat="45.566579898871595" lon="8.086920315710186"><ele>350.6666666666667</ele><time>2026-04-26T11:39:17Z</time></trkpt><trkpt lat="45.56653879322696" lon="8.087125980662309"><ele>350.33333333333337</ele><time>2026-04-26T11:39:18Z</time></trkpt><trkpt lat="45.56649942173284" lon="8.087337564976334"><ele>350.0</ele><time>2026-04-26T11:39:19Z</time></trkpt><trkpt lat="45.566463089827174" lon="8.087550376521742"><ele>349.6666666666667</ele><time>2026-04-26T11:39:20Z</time></trkpt><trkpt lat="45.56642471561468" lon="8.087762577636195"><ele>349.3333333333333</ele><time>2026-04-26T11:39:21Z</time></trkpt><trkpt lat="45.566385224794594" lon="8.087974317680965"><ele>349.0</ele><time>2026-04-26T11:39:22Z</time></trkpt><trkpt lat="45.566343704993244" lon="8.08818073579172"><ele>348.25</ele><time>2026-04-26T11:39:23Z</time></trkpt><trkpt lat="45.56630527693532" lon="8.088384824671657"><ele>347.5</ele><time>2026-04-26T11:39:24Z</time></trkpt><trkpt lat="45.566269949798176" lon="8.088586112297232"><ele>346.75</ele><time>2026-04-26T11:39:25Z</time></trkpt><trkpt lat="45.56623079854742" lon="8.088784391640386"><ele>346.0</ele><time>2026-04-26T11:39:26Z</time></trkpt><trkpt lat="45.56619049820991" lon="8.08898106956269"><ele>345.75</ele><time>2026-04-26T11:39:27Z</time></trkpt><trkpt lat="45.56615055630434" lon="8.089177526983987"><ele>345.5</ele><time>2026-04-26T11:39:28Z</time></trkpt><trkpt lat="45.5661141528882" lon="8.089373797468792"><ele>345.25</ele><time>2026-04-26T11:39:29Z</time></trkpt><trkpt lat="45.566080678053616" lon="8.089572847291361"><ele>345.0</ele><time>2026-04-26T11:39:30Z</time></trkpt><trkpt lat="45.56605065631415" lon="8.08977080912776"><ele>344.5</ele><time>2026-04-26T11:39:31Z</time></trkpt><trkpt lat="45.566012035608175" lon="8.089969011647737"><ele>344.0</ele><time>2026-04-26T11:39:32Z</time></trkpt><trkpt lat="45.56596985274525" lon="8.090166548899363"><ele>343.5</ele><time>2026-04-26T11:39:33Z</time></trkpt><trkpt lat="45.565931646782445" lon="8.09035785660756"><ele>343.0</ele><time>2026-04-26T11:39:34Z</time></trkpt><trkpt lat="45.565898636777895" lon="8.090535696246214"><ele>343.0</ele><time>2026-04-26T11:39:35Z</time></trkpt><trkpt lat="45.565866798495584" lon="8.090707575554026"><ele>343.0</ele><time>2026-04-26T11:39:36Z</time></trkpt><trkpt lat="45.5658401145408" lon="8.090858619238073"><ele>343.0</ele><time>2026-04-26T11:39:37Z</time></trkpt><trkpt lat="45.565813188057504" lon="8.090994664094723"><ele>343.0</ele><time>2026-04-26T11:39:38Z</time></trkpt><trkpt lat="45.5657871734279" lon="8.091116958376896"><ele>343.0</ele><time>2026-04-26T11:39:39Z</time></trkpt><trkpt lat="45.56575851630404" lon="8.091227068575405"><ele>343.0</ele><time>2026-04-26T11:39:40Z</time></trkpt><trkpt lat="45.56571298711592" lon="8.091315388125995"><ele>343.0</ele><time>2026-04-26T11:39:41Z</time></trkpt><trkpt lat="45.5656560911949" lon="8.091376611579143"><ele>343.0</ele><time>2026-04-26T11:39:42Z</time></trkpt><trkpt lat="45.56559838622584" lon="8.09142875998904"><ele>343.0</ele><time>2026-04-26T11:39:43Z</time></trkpt><trkpt lat="45.56555525528768" lon="8.091521459861454"><ele>343.0</ele><time>2026-04-26T11:39:44Z</time></trkpt><trkpt lat="45.565562069497346" lon="8.09162454371082"><ele>343.0</ele><time>2026-04-26T11:39:45Z</time></trkpt><trkpt lat="45.56559504324805" lon="8.091740065253566"><ele>342.5</ele><time>2026-04-26T11:39:46Z</time></trkpt><trkpt lat="45.565630526940055" lon="8.091869558481577"><ele>342.0</ele><time>2026-04-26T11:39:47Z</time></trkpt><trkpt lat="45.565631217406846" lon="8.092021348760143"><ele>341.5</ele><time>2026-04-26T11:39:48Z</time></trkpt><trkpt lat="45.56560510419565" lon="8.092191128840074"><ele>341.0</ele><time>2026-04-26T11:39:49Z</time></trkpt><trkpt lat="45.565573016612426" lon="8.092369963729189"><ele>340.75</ele><time>2026-04-26T11:39:50Z</time></trkpt><trkpt lat="45.56553638211398" lon="8.09254946862956"><ele>340.5</ele><time>2026-04-26T11:39:51Z</time></trkpt><trkpt lat="45.565500195430694" lon="8.092725386777765"><ele>340.25</ele><time>2026-04-26T11:39:52Z</time></trkpt><trkpt lat="45.56546734259152" lon="8.09289452900492"><ele>340.0</ele><time>2026-04-26T11:39:53Z</time></trkpt><trkpt lat="45.56543858533547" lon="8.093061266765613"><ele>340.0</ele><time>2026-04-26T11:39:54Z</time></trkpt><trkpt lat="45.565408434656526" lon="8.093222908416537"><ele>340.0</ele><time>2026-04-26T11:39:55Z</time></trkpt><trkpt lat="45.5653784408767" lon="8.093396486797923"><ele>340.0</ele><time>2026-04-26T11:39:56Z</time></trkpt><trkpt lat="45.565347362611526" lon="8.093569525434527"><ele>340.0</ele><time>2026-04-26T11:39:57Z</time></trkpt><trkpt lat="45.56531214600662" lon="8.093746832142903"><ele>340.0</ele><time>2026-04-26T11:39:58Z</time></trkpt><trkpt lat="45.56528010897234" lon="8.093912966690644"><ele>340.0</ele><time>2026-04-26T11:39:59Z</time></trkpt><trkpt lat="45.565248599700745" lon="8.094078165194613"><ele>340.0</ele><time>2026-04-26T11:40:00Z</time></trkpt><trkpt lat="45.56522066684697" lon="8.094241065009092"><ele>340.0</ele><time>2026-04-26T11:40:01Z</time></trkpt><trkpt lat="45.56519256694341" lon="8.094396359842953"><ele>339.75</ele><time>2026-04-26T11:40:02Z</time></trkpt><trkpt lat="45.565161069923114" lon="8.094550085193248"><ele>339.5</ele><time>2026-04-26T11:40:03Z</time></trkpt><trkpt lat="45.565123481251405" lon="8.094711066923855"><ele>339.25</ele><time>2026-04-26T11:40:04Z</time></trkpt><trkpt lat="45.56508528168063" lon="8.094876592843608"><ele>339.0</ele><time>2026-04-26T11:40:05Z</time></trkpt><trkpt lat="45.56505066188455" lon="8.09503677949362"><ele>339.0</ele><time>2026-04-26T11:40:06Z</time></trkpt><trkpt lat="45.56502586184101" lon="8.095188257300023"><ele>339.0</ele><time>2026-04-26T11:40:07Z</time></trkpt><trkpt lat="45.565000674552216" lon="8.095327606589297"><ele>339.0</ele><time>2026-04-26T11:40:08Z</time></trkpt><trkpt lat="45.564974853261056" lon="8.095466918411248"><ele>339.0</ele><time>2026-04-26T11:40:09Z</time></trkpt><trkpt lat="45.564950668155156" lon="8.095618227783323"><ele>339.0</ele><time>2026-04-26T11:40:10Z</time></trkpt><trkpt lat="45.56492264680186" lon="8.095778294747976"><ele>339.0</ele><time>2026-04-26T11:40:11Z</time></trkpt><trkpt lat="45.56489150459572" lon="8.095942195291771"><ele>339.0</ele><time>2026-04-26T11:40:12Z</time></trkpt><trkpt lat="45.56486000280106" lon="8.096113715543535"><ele>339.0</ele><time>2026-04-26T11:40:13Z</time></trkpt><trkpt lat="45.56483183620094" lon="8.096293762165553"><ele>339.0</ele><time>2026-04-26T11:40:14Z</time></trkpt><trkpt lat="45.564798457590776" lon="8.096473493730658"><ele>338.25</ele><time>2026-04-26T11:40:15Z</time></trkpt><trkpt lat="45.564765848994085" lon="8.096657068580333"><ele>337.5</ele><time>2026-04-26T11:40:16Z</time></trkpt><trkpt lat="45.56473020888008" lon="8.096832338452582"><ele>336.75</ele><time>2026-04-26T11:40:17Z</time></trkpt><trkpt lat="45.564696779430214" lon="8.097000744980654"><ele>336.0</ele><time>2026-04-26T11:40:18Z</time></trkpt><trkpt lat="45.56466675695401" lon="8.09716175659258"><ele>336.0</ele><time>2026-04-26T11:40:19Z</time></trkpt><trkpt lat="45.564641608035416" lon="8.09732147869617"><ele>336.0</ele><time>2026-04-26T11:40:20Z</time></trkpt><trkpt lat="45.56461457680805" lon="8.097472681394674"><ele>336.0</ele><time>2026-04-26T11:40:21Z</time></trkpt><trkpt lat="45.56458820802711" lon="8.097622553656903"><ele>336.0</ele><time>2026-04-26T11:40:22Z</time></trkpt><trkpt lat="45.56455482227899" lon="8.097777494915364"><ele>336.0</ele><time>2026-04-26T11:40:23Z</time></trkpt><trkpt lat="45.564524757604936" lon="8.097940473279383"><ele>335.5</ele><time>2026-04-26T11:40:24Z</time></trkpt><trkpt lat="45.564497721543226" lon="8.098109834585363"><ele>335.0</ele><time>2026-04-26T11:40:25Z</time></trkpt><trkpt lat="45.564470012193944" lon="8.098279308334739"><ele>334.5</ele><time>2026-04-26T11:40:26Z</time></trkpt><trkpt lat="45.564439207836834" lon="8.09845735942175"><ele>334.0</ele><time>2026-04-26T11:40:27Z</time></trkpt><trkpt lat="45.564407773749934" lon="8.09863715460115"><ele>333.75</ele><time>2026-04-26T11:40:28Z</time></trkpt><trkpt lat="45.56436735794454" lon="8.098814613278597"><ele>333.5</ele><time>2026-04-26T11:40:29Z</time></trkpt><trkpt lat="45.56433519690116" lon="8.098995711448438"><ele>333.25</ele><time>2026-04-26T11:40:30Z</time></trkpt><trkpt lat="45.56430261858989" lon="8.099179641807895"><ele>333.0</ele><time>2026-04-26T11:40:31Z</time></trkpt><trkpt lat="45.564270931306055" lon="8.099356873170786"><ele>332.75</ele><time>2026-04-26T11:40:32Z</time></trkpt><trkpt lat="45.56423705510154" lon="8.099538917422274"><ele>332.5</ele><time>2026-04-26T11:40:33Z</time></trkpt><trkpt lat="45.564203518798145" lon="8.099713974945447"><ele>332.25</ele><time>2026-04-26T11:40:34Z</time></trkpt><trkpt lat="45.56416904466132" lon="8.099885828526395"><ele>332.0</ele><time>2026-04-26T11:40:35Z</time></trkpt><trkpt lat="45.564140016532555" lon="8.100053792815329"><ele>332.0</ele><time>2026-04-26T11:40:36Z</time></trkpt><trkpt lat="45.56410832846891" lon="8.100221375469184"><ele>332.0</ele><time>2026-04-26T11:40:37Z</time></trkpt><trkpt lat="45.56407203615095" lon="8.100384479671076"><ele>332.0</ele><time>2026-04-26T11:40:38Z</time></trkpt><trkpt lat="45.56403746228007" lon="8.100548090119835"><ele>332.0</ele><time>2026-04-26T11:40:39Z</time></trkpt><trkpt lat="45.564002187515214" lon="8.100722446718663"><ele>331.25</ele><time>2026-04-26T11:40:40Z</time></trkpt><trkpt lat="45.563970256354295" lon="8.100901394418319"><ele>330.5</ele><time>2026-04-26T11:40:41Z</time></trkpt><trkpt lat="45.563934714004695" lon="8.101082931503218"><ele>329.75</ele><time>2026-04-26T11:40:42Z</time></trkpt><trkpt lat="45.563900061819034" lon="8.101267818217528"><ele>329.0</ele><time>2026-04-26T11:40:43Z</time></trkpt><trkpt lat="45.563866079050655" lon="8.101453698551277"><ele>329.0</ele><time>2026-04-26T11:40:44Z</time></trkpt><trkpt lat="45.56383122484726" lon="8.101638524068532"><ele>329.0</ele><time>2026-04-26T11:40:45Z</time></trkpt><trkpt lat="45.563797011969676" lon="8.10182560232606"><ele>329.0</ele><time>2026-04-26T11:40:46Z</time></trkpt><trkpt lat="45.56376269747973" lon="8.102012539428232"><ele>329.0</ele><time>2026-04-26T11:40:47Z</time></trkpt><trkpt lat="45.56372666196945" lon="8.102198581694434"><ele>329.25</ele><time>2026-04-26T11:40:48Z</time></trkpt><trkpt lat="45.56368941108954" lon="8.1023811718743"><ele>329.5</ele><time>2026-04-26T11:40:49Z</time></trkpt><trkpt lat="45.56365555175276" lon="8.102553609666877"><ele>329.75</ele><time>2026-04-26T11:40:50Z</time></trkpt><trkpt lat="45.56362379870179" lon="8.102719854915879"><ele>330.0</ele><time>2026-04-26T11:40:51Z</time></trkpt><trkpt lat="45.56359649734603" lon="8.102874191420003"><ele>330.0</ele><time>2026-04-26T11:40:52Z</time></trkpt><trkpt lat="45.56357319503676" lon="8.10301132290926"><ele>330.0</ele><time>2026-04-26T11:40:53Z</time></trkpt><trkpt lat="45.56354912173917" lon="8.10313868086298"><ele>330.0</ele><time>2026-04-26T11:40:54Z</time></trkpt><trkpt lat="45.56352588975527" lon="8.103260750008031"><ele>330.0</ele><time>2026-04-26T11:40:55Z</time></trkpt><trkpt lat="45.56350120237687" lon="8.103397430724446"><ele>330.0</ele><time>2026-04-26T11:40:56Z</time></trkpt><trkpt lat="45.56347243349029" lon="8.103542437581792"><ele>329.75</ele><time>2026-04-26T11:40:57Z</time></trkpt><trkpt lat="45.56344427733986" lon="8.103700041399012"><ele>329.5</ele><time>2026-04-26T11:40:58Z</time></trkpt><trkpt lat="45.56341756704135" lon="8.103867849850346"><ele>329.25</ele><time>2026-04-26T11:40:59Z</time></trkpt><trkpt lat="45.56339167255061" lon="8.104045000844057"><ele>329.0</ele><time>2026-04-26T11:41:00Z</time></trkpt><trkpt lat="45.5633569468377" lon="8.104222869650965"><ele>328.25</ele><time>2026-04-26T11:41:01Z</time></trkpt><trkpt lat="45.5633201525046" lon="8.104399357202887"><ele>327.5</ele><time>2026-04-26T11:41:02Z</time></trkpt><trkpt lat="45.56328133037273" lon="8.104574615164836"><ele>326.75</ele><time>2026-04-26T11:41:03Z</time></trkpt><trkpt lat="45.563245830850136" lon="8.10475105407994"><ele>326.0</ele><time>2026-04-26T11:41:04Z</time></trkpt><trkpt lat="45.56321342256937" lon="8.104914498629029"><ele>325.5</ele><time>2026-04-26T11:41:05Z</time></trkpt><trkpt lat="45.56318693384178" lon="8.105060428274886"><ele>325.0</ele><time>2026-04-26T11:41:06Z</time></trkpt><trkpt lat="45.563164125276316" lon="8.105196128037544"><ele>324.5</ele><time>2026-04-26T11:41:07Z</time></trkpt><trkpt lat="45.56314684288544" lon="8.105317887291056"><ele>324.0</ele><time>2026-04-26T11:41:08Z</time></trkpt><trkpt lat="45.563125154400254" lon="8.105428494835794"><ele>323.5</ele><time>2026-04-26T11:41:09Z</time></trkpt><trkpt lat="45.56309855935201" lon="8.1055267141574"><ele>323.0</ele><time>2026-04-26T11:41:10Z</time></trkpt><trkpt lat="45.5630796801574" lon="8.105616756398515"><ele>322.79999999999995</ele><time>2026-04-26T11:41:11Z</time></trkpt><trkpt lat="45.563053453745276" lon="8.105759759556697"><ele>322.6</ele><time>2026-04-26T11:41:13Z</time></trkpt><trkpt lat="45.56303820637357" lon="8.105851288282022"><ele>322.4</ele><time>2026-04-26T11:41:33Z</time></trkpt><trkpt lat="45.56300908560639" lon="8.106015313083887"><ele>322.20000000000005</ele><time>2026-04-26T11:41:35Z</time></trkpt><trkpt lat="45.5629886411366" lon="8.106145845758759"><ele>322.0</ele><time>2026-04-26T11:41:36Z</time></trkpt><trkpt lat="45.562967412266424" lon="8.106285238093589"><ele>322.0</ele><time>2026-04-26T11:41:37Z</time></trkpt><trkpt lat="45.56294485590856" lon="8.106417757726497"><ele>322.0</ele><time>2026-04-26T11:41:38Z</time></trkpt><trkpt lat="45.56292157605499" lon="8.106551269692412"><ele>322.0</ele><time>2026-04-26T11:41:39Z</time></trkpt><trkpt lat="45.56288846743647" lon="8.106703766098525"><ele>322.0</ele><time>2026-04-26T11:41:40Z</time></trkpt><trkpt lat="45.562854634877354" lon="8.10687006244599"><ele>322.0</ele><time>2026-04-26T11:41:41Z</time></trkpt><trkpt lat="45.562822761377085" lon="8.107051797891401"><ele>322.0</ele><time>2026-04-26T11:41:42Z</time></trkpt><trkpt lat="45.56278711148388" lon="8.107241163179006"><ele>322.0</ele><time>2026-04-26T11:41:43Z</time></trkpt><trkpt lat="45.562752583637604" lon="8.107429670196625"><ele>322.0</ele><time>2026-04-26T11:41:44Z</time></trkpt><trkpt lat="45.562718027071796" lon="8.107615917011184"><ele>322.0</ele><time>2026-04-26T11:41:45Z</time></trkpt><trkpt lat="45.56268165442822" lon="8.107799419285524"><ele>321.75</ele><time>2026-04-26T11:41:46Z</time></trkpt><trkpt lat="45.56264613734351" lon="8.107981073449926"><ele>321.5</ele><time>2026-04-26T11:41:47Z</time></trkpt><trkpt lat="45.56261256174391" lon="8.108160726608855"><ele>321.25</ele><time>2026-04-26T11:41:48Z</time></trkpt><trkpt lat="45.56258010477853" lon="8.108339676735259"><ele>321.0</ele><time>2026-04-26T11:41:49Z</time></trkpt><trkpt lat="45.5625487056182" lon="8.108515051307615"><ele>321.0</ele><time>2026-04-26T11:41:50Z</time></trkpt><trkpt lat="45.56252000665364" lon="8.108685623611962"><ele>321.0</ele><time>2026-04-26T11:41:51Z</time></trkpt><trkpt lat="45.56249187484334" lon="8.108847885687528"><ele>321.0</ele><time>2026-04-26T11:41:52Z</time></trkpt><trkpt lat="45.562462538987575" lon="8.109000756129145"><ele>321.0</ele><time>2026-04-26T11:41:53Z</time></trkpt><trkpt lat="45.56244134025486" lon="8.109143838462861"><ele>320.8333333333333</ele><time>2026-04-26T11:41:54Z</time></trkpt><trkpt lat="45.562423211516" lon="8.109266195711239"><ele>320.6666666666667</ele><time>2026-04-26T11:41:55Z</time></trkpt><trkpt lat="45.56241339982671" lon="8.1093600569944"><ele>320.5</ele><time>2026-04-26T11:41:56Z</time></trkpt><trkpt lat="45.562386399404076" lon="8.109448322570916"><ele>320.33333333333337</ele><time>2026-04-26T11:42:44Z</time></trkpt><trkpt lat="45.56236230280445" lon="8.109579605076478"><ele>320.1666666666667</ele><time>2026-04-26T11:42:46Z</time></trkpt><trkpt lat="45.56229385203556" lon="8.109677983971984"><ele>320.0</ele><time>2026-04-26T11:42:48Z</time></trkpt><trkpt lat="45.56222207728922" lon="8.109678251620792"><ele>320.0</ele><time>2026-04-26T11:42:49Z</time></trkpt><trkpt lat="45.56213275447549" lon="8.109648942222222"><ele>320.0</ele><time>2026-04-26T11:42:50Z</time></trkpt><trkpt lat="45.562031100438325" lon="8.109623915085502"><ele>320.0</ele><time>2026-04-26T11:42:51Z</time></trkpt><trkpt lat="45.5619139779423" lon="8.10958511767295"><ele>320.0</ele><time>2026-04-26T11:42:52Z</time></trkpt><trkpt lat="45.561789914271124" lon="8.109544144611206"><ele>320.0</ele><time>2026-04-26T11:42:53Z</time></trkpt><trkpt lat="45.56165943309267" lon="8.10950144437843"><ele>319.5</ele><time>2026-04-26T11:42:54Z</time></trkpt><trkpt lat="45.56152701922106" lon="8.109460930875404"><ele>319.0</ele><time>2026-04-26T11:42:55Z</time></trkpt><trkpt lat="45.56139517923763" lon="8.109424474879939"><ele>318.5</ele><time>2026-04-26T11:42:56Z</time></trkpt><trkpt lat="45.56127113904415" lon="8.109386559987337"><ele>318.0</ele><time>2026-04-26T11:42:57Z</time></trkpt><trkpt lat="45.561152364303716" lon="8.109349518009621"><ele>317.75</ele><time>2026-04-26T11:42:58Z</time></trkpt><trkpt lat="45.56102300354669" lon="8.109304285557686"><ele>317.5</ele><time>2026-04-26T11:42:59Z</time></trkpt><trkpt lat="45.56087606116525" lon="8.109261707738478"><ele>317.25</ele><time>2026-04-26T11:43:00Z</time></trkpt><trkpt lat="45.560727825587065" lon="8.109217923992606"><ele>317.0</ele><time>2026-04-26T11:43:01Z</time></trkpt><trkpt lat="45.560586151145884" lon="8.109167758573857"><ele>317.0</ele><time>2026-04-26T11:43:02Z</time></trkpt><trkpt lat="45.56044997543585" lon="8.109112471673026"><ele>317.0</ele><time>2026-04-26T11:43:03Z</time></trkpt><trkpt lat="45.56030781939919" lon="8.109117172878998"><ele>317.0</ele><time>2026-04-26T11:43:04Z</time></trkpt><trkpt lat="45.560170163664594" lon="8.109084133648935"><ele>317.0</ele><time>2026-04-26T11:43:05Z</time></trkpt><trkpt lat="45.560031634041465" lon="8.10908598926438"><ele>316.0</ele><time>2026-04-26T11:43:06Z</time></trkpt><trkpt lat="45.55988732071594" lon="8.109088637338123"><ele>315.0</ele><time>2026-04-26T11:43:07Z</time></trkpt><trkpt lat="45.559737938244304" lon="8.109117162488042"><ele>314.0</ele><time>2026-04-26T11:43:08Z</time></trkpt><trkpt lat="45.55959700338641" lon="8.109155187056155"><ele>313.0</ele><time>2026-04-26T11:43:09Z</time></trkpt><trkpt lat="45.559465121854466" lon="8.10919066024613"><ele>312.3333333333333</ele><time>2026-04-26T11:43:10Z</time></trkpt><trkpt lat="45.55932111332291" lon="8.109226829807614"><ele>311.6666666666667</ele><time>2026-04-26T11:43:11Z</time></trkpt><trkpt lat="45.559163660076884" lon="8.109269682364298"><ele>311.0</ele><time>2026-04-26T11:43:12Z</time></trkpt><trkpt lat="45.559011017297784" lon="8.109315509707947"><ele>311.0</ele><time>2026-04-26T11:43:13Z</time></trkpt><trkpt lat="45.55885956476251" lon="8.109363674287856"><ele>311.0</ele><time>2026-04-26T11:43:14Z</time></trkpt><trkpt lat="45.558707907626214" lon="8.109411180688122"><ele>311.0</ele><time>2026-04-26T11:43:15Z</time></trkpt><trkpt lat="45.558565133909575" lon="8.10945508757848"><ele>311.0</ele><time>2026-04-26T11:43:16Z</time></trkpt><trkpt lat="45.55842752686403" lon="8.109497302503788"><ele>311.0</ele><time>2026-04-26T11:43:17Z</time></trkpt><trkpt lat="45.55829268466438" lon="8.109536601935162"><ele>311.0</ele><time>2026-04-26T11:43:18Z</time></trkpt><trkpt lat="45.558165816618036" lon="8.109575350703881"><ele>311.0</ele><time>2026-04-26T11:43:19Z</time></trkpt><trkpt lat="45.55803866104377" lon="8.109606819456497"><ele>311.0</ele><time>2026-04-26T11:43:20Z</time></trkpt><trkpt lat="45.557926647023876" lon="8.109636174006425"><ele>311.0</ele><time>2026-04-26T11:43:21Z</time></trkpt><trkpt lat="45.55782765779382" lon="8.109687312185015"><ele>311.0</ele><time>2026-04-26T11:43:22Z</time></trkpt><trkpt lat="45.557723325868515" lon="8.10972916128675"><ele>311.0</ele><time>2026-04-26T11:43:23Z</time></trkpt><trkpt lat="45.55761575426688" lon="8.109784449728327"><ele>311.0</ele><time>2026-04-26T11:43:24Z</time></trkpt><trkpt lat="45.55750279315451" lon="8.10983524792773"><ele>310.75</ele><time>2026-04-26T11:43:25Z</time></trkpt><trkpt lat="45.557382077425245" lon="8.109857651040903"><ele>310.5</ele><time>2026-04-26T11:43:26Z</time></trkpt><trkpt lat="45.55726795932857" lon="8.10988093132906"><ele>310.25</ele><time>2026-04-26T11:43:27Z</time></trkpt><trkpt lat="45.557151521910384" lon="8.109927755818223"><ele>310.0</ele><time>2026-04-26T11:43:28Z</time></trkpt><trkpt lat="45.55704257674714" lon="8.110000512739118"><ele>309.8</ele><time>2026-04-26T11:43:29Z</time></trkpt><trkpt lat="45.55694961291536" lon="8.110115245664035"><ele>309.6</ele><time>2026-04-26T11:43:30Z</time></trkpt><trkpt lat="45.556871952850095" lon="8.110240507682466"><ele>309.4</ele><time>2026-04-26T11:43:31Z</time></trkpt><trkpt lat="45.556805579133204" lon="8.11034577718557"><ele>309.2</ele><time>2026-04-26T11:43:32Z</time></trkpt><trkpt lat="45.55674492878943" lon="8.110443156960619"><ele>309.0</ele><time>2026-04-26T11:43:33Z</time></trkpt><trkpt lat="45.5567020957668" lon="8.110533576871463"><ele>309.0</ele><time>2026-04-26T11:43:34Z</time></trkpt><trkpt lat="45.556648652557314" lon="8.11058323022628"><ele>309.0</ele><time>2026-04-26T11:43:35Z</time></trkpt><trkpt lat="45.556531666819744" lon="8.110576081710871"><ele>309.0</ele><time>2026-04-26T11:43:37Z</time></trkpt><trkpt lat="45.556465099821004" lon="8.110564689000114"><ele>309.0</ele><time>2026-04-26T11:43:38Z</time></trkpt><trkpt lat="45.55638851951657" lon="8.110566201736571"><ele>309.0</ele><time>2026-04-26T11:43:39Z</time></trkpt><trkpt lat="45.556301994040666" lon="8.110603604071814"><ele>309.0</ele><time>2026-04-26T11:43:40Z</time></trkpt><trkpt lat="45.55622516958537" lon="8.110695364182513"><ele>307.75</ele><time>2026-04-26T11:43:41Z</time></trkpt><trkpt lat="45.5561815142554" lon="8.110849791671852"><ele>306.5</ele><time>2026-04-26T11:43:42Z</time></trkpt><trkpt lat="45.55604213461546" lon="8.110945587643284"><ele>305.25</ele><time>2026-04-26T11:43:43Z</time></trkpt><trkpt lat="45.55592049413551" lon="8.111056343662689"><ele>304.0</ele><time>2026-04-26T11:43:44Z</time></trkpt><trkpt lat="45.55578342681871" lon="8.111152392873441"><ele>304.0</ele><time>2026-04-26T11:43:45Z</time></trkpt><trkpt lat="45.55565167414928" lon="8.11123289049381"><ele>304.0</ele><time>2026-04-26T11:43:46Z</time></trkpt><trkpt lat="45.555532949286416" lon="8.111302435867138"><ele>304.0</ele><time>2026-04-26T11:43:47Z</time></trkpt><trkpt lat="45.555440637534474" lon="8.11136036677157"><ele>304.0</ele><time>2026-04-26T11:43:48Z</time></trkpt><trkpt lat="45.55532484731006" lon="8.111412041713322"><ele>303.0</ele><time>2026-04-26T11:43:49Z</time></trkpt><trkpt lat="45.555241776041775" lon="8.111441644214628"><ele>302.0</ele><time>2026-04-26T11:43:50Z</time></trkpt><trkpt lat="45.555138484541246" lon="8.11142915226823"><ele>301.0</ele><time>2026-04-26T11:43:52Z</time></trkpt><trkpt lat="45.555134442946255" lon="8.111660412574283"><ele>300.0</ele><time>2026-04-26T11:43:53Z</time></trkpt><trkpt lat="45.55511479254028" lon="8.111811593226877"><ele>299.75</ele><time>2026-04-26T11:43:54Z</time></trkpt><trkpt lat="45.55507769579948" lon="8.111977253014658"><ele>299.5</ele><time>2026-04-26T11:43:55Z</time></trkpt><trkpt lat="45.555048362185914" lon="8.112167986319987"><ele>299.25</ele><time>2026-04-26T11:43:56Z</time></trkpt><trkpt lat="45.555006458308284" lon="8.112379192583516"><ele>299.0</ele><time>2026-04-26T11:43:57Z</time></trkpt><trkpt lat="45.55497103101443" lon="8.112584764850654"><ele>299.0</ele><time>2026-04-26T11:43:58Z</time></trkpt><trkpt lat="45.55493685652643" lon="8.112791145133192"><ele>299.0</ele><time>2026-04-26T11:43:59Z</time></trkpt><trkpt lat="45.554896871794035" lon="8.112984683451966"><ele>299.0</ele><time>2026-04-26T11:44:00Z</time></trkpt><trkpt lat="45.55485908529304" lon="8.113149244202617"><ele>299.0</ele><time>2026-04-26T11:44:01Z</time></trkpt><trkpt lat="45.55483314652556" lon="8.113303043539752"><ele>299.0</ele><time>2026-04-26T11:44:02Z</time></trkpt><trkpt lat="45.5548277803371" lon="8.11346371098779"><ele>299.0</ele><time>2026-04-26T11:44:03Z</time></trkpt><trkpt lat="45.55485277385894" lon="8.113615733215733"><ele>299.0</ele><time>2026-04-26T11:44:04Z</time></trkpt><trkpt lat="45.55492183883068" lon="8.113735752622096"><ele>299.0</ele><time>2026-04-26T11:44:05Z</time></trkpt><trkpt lat="45.555029938312764" lon="8.1138015579843"><ele>299.0</ele><time>2026-04-26T11:44:06Z</time></trkpt><trkpt lat="45.55514694908342" lon="8.113827293343554"><ele>299.0</ele><time>2026-04-26T11:44:07Z</time></trkpt><trkpt lat="45.555257474520175" lon="8.113852612831998"><ele>299.0</ele><time>2026-04-26T11:44:08Z</time></trkpt><trkpt lat="45.555342108047256" lon="8.113928994823748"><ele>299.0</ele><time>2026-04-26T11:44:09Z</time></trkpt><trkpt lat="45.55538835882875" lon="8.114061690411795"><ele>299.0</ele><time>2026-04-26T11:44:10Z</time></trkpt><trkpt lat="45.55540075842936" lon="8.114227364417282"><ele>299.0</ele><time>2026-04-26T11:44:11Z</time></trkpt><trkpt lat="45.55538858292953" lon="8.114413323011966"><ele>299.6666666666667</ele><time>2026-04-26T11:44:12Z</time></trkpt><trkpt lat="45.55537762826937" lon="8.11462116198705"><ele>300.3333333333333</ele><time>2026-04-26T11:44:13Z</time></trkpt><trkpt lat="45.555375368023796" lon="8.114858059035354"><ele>301.0</ele><time>2026-04-26T11:44:14Z</time></trkpt><trkpt lat="45.55537853614924" lon="8.115125105336542"><ele>301.0</ele><time>2026-04-26T11:44:15Z</time></trkpt><trkpt lat="45.55538404306566" lon="8.115412230674828"><ele>301.0</ele><time>2026-04-26T11:44:16Z</time></trkpt><trkpt lat="45.55538650240564" lon="8.115693064835487"><ele>301.0</ele><time>2026-04-26T11:44:17Z</time></trkpt><trkpt lat="45.55538346277806" lon="8.115994472169008"><ele>300.5</ele><time>2026-04-26T11:44:18Z</time></trkpt><trkpt lat="45.555377227935026" lon="8.116319117502206"><ele>300.0</ele><time>2026-04-26T11:44:19Z</time></trkpt><trkpt lat="45.55537164542883" lon="8.116659827808851"><ele>300.0</ele><time>2026-04-26T11:44:20Z</time></trkpt><trkpt lat="45.55536774779092" lon="8.116993945553778"><ele>300.0</ele><time>2026-04-26T11:44:21Z</time></trkpt><trkpt lat="45.555363476563336" lon="8.117329534036008"><ele>299.0</ele><time>2026-04-26T11:44:22Z</time></trkpt><trkpt lat="45.555360684827455" lon="8.117674551402617"><ele>298.0</ele><time>2026-04-26T11:44:23Z</time></trkpt><trkpt lat="45.55535812912304" lon="8.118028011600453"><ele>297.0</ele><time>2026-04-26T11:44:24Z</time></trkpt><trkpt lat="45.55535313156598" lon="8.118387462068789"><ele>296.0</ele><time>2026-04-26T11:44:25Z</time></trkpt><trkpt lat="45.55534761614157" lon="8.118752039207466"><ele>296.0</ele><time>2026-04-26T11:44:26Z</time></trkpt><trkpt lat="45.55534276408433" lon="8.119122476906515"><ele>296.0</ele><time>2026-04-26T11:44:27Z</time></trkpt><trkpt lat="45.55533654046061" lon="8.119495509648473"><ele>296.0</ele><time>2026-04-26T11:44:28Z</time></trkpt><trkpt lat="45.55532858221267" lon="8.119861545626238"><ele>296.0</ele><time>2026-04-26T11:44:29Z</time></trkpt><trkpt lat="45.555321101161255" lon="8.120226561643792"><ele>295.0</ele><time>2026-04-26T11:44:30Z</time></trkpt><trkpt lat="45.55531427630521" lon="8.120594500056905"><ele>294.0</ele><time>2026-04-26T11:44:31Z</time></trkpt><trkpt lat="45.55530858184528" lon="8.12096540185112"><ele>293.5</ele><time>2026-04-26T11:44:32Z</time></trkpt><trkpt lat="45.55530264536297" lon="8.12133475875466"><ele>293.0</ele><time>2026-04-26T11:44:33Z</time></trkpt><trkpt lat="45.555295955991234" lon="8.121707218130764"><ele>292.5</ele><time>2026-04-26T11:44:34Z</time></trkpt><trkpt lat="45.55528910608885" lon="8.122080425754882"><ele>292.0</ele><time>2026-04-26T11:44:35Z</time></trkpt><trkpt lat="45.55528226323932" lon="8.122454486193933"><ele>291.5</ele><time>2026-04-26T11:44:36Z</time></trkpt><trkpt lat="45.55527616513101" lon="8.12283208869059"><ele>291.0</ele><time>2026-04-26T11:44:37Z</time></trkpt><trkpt lat="45.55527124740078" lon="8.123211485350764"><ele>290.0</ele><time>2026-04-26T11:44:38Z</time></trkpt><trkpt lat="45.55526927163965" lon="8.12358886140814"><ele>289.0</ele><time>2026-04-26T11:44:39Z</time></trkpt><trkpt lat="45.55526741757159" lon="8.123966581715559"><ele>288.5</ele><time>2026-04-26T11:44:40Z</time></trkpt><trkpt lat="45.55526558126863" lon="8.124342712047397"><ele>288.0</ele><time>2026-04-26T11:44:41Z</time></trkpt><trkpt lat="45.555262990491954" lon="8.124720410726352"><ele>287.0</ele><time>2026-04-26T11:44:42Z</time></trkpt><trkpt lat="45.55525361504103" lon="8.125099533723736"><ele>286.0</ele><time>2026-04-26T11:44:43Z</time></trkpt><trkpt lat="45.555242847893304" lon="8.125478054646143"><ele>285.0</ele><time>2026-04-26T11:44:44Z</time></trkpt><trkpt lat="45.55523402422399" lon="8.125855791695024"><ele>284.0</ele><time>2026-04-26T11:44:45Z</time></trkpt><trkpt lat="45.55522475510434" lon="8.126237493749732"><ele>284.5</ele><time>2026-04-26T11:44:46Z</time></trkpt><trkpt lat="45.55521851813926" lon="8.12661786246893"><ele>285.0</ele><time>2026-04-26T11:44:47Z</time></trkpt><trkpt lat="45.55521661800212" lon="8.126983311831646"><ele>285.0</ele><time>2026-04-26T11:44:48Z</time></trkpt><trkpt lat="45.555221810239246" lon="8.127357020091532"><ele>285.0</ele><time>2026-04-26T11:44:49Z</time></trkpt><trkpt lat="45.55520756420642" lon="8.127733108956456"><ele>285.0</ele><time>2026-04-26T11:44:50Z</time></trkpt><trkpt lat="45.55520511483967" lon="8.12810216498509"><ele>285.0</ele><time>2026-04-26T11:44:51Z</time></trkpt><trkpt lat="45.55519945618349" lon="8.128475722926476"><ele>284.0</ele><time>2026-04-26T11:44:52Z</time></trkpt><trkpt lat="45.55519181263674" lon="8.1288543435351"><ele>283.0</ele><time>2026-04-26T11:44:53Z</time></trkpt><trkpt lat="45.555183671764496" lon="8.129236108762703"><ele>282.5</ele><time>2026-04-26T11:44:54Z</time></trkpt><trkpt lat="45.5551746839055" lon="8.129623083534069"><ele>282.0</ele><time>2026-04-26T11:44:55Z</time></trkpt><trkpt lat="45.55516211599421" lon="8.130015055991308"><ele>282.0</ele><time>2026-04-26T11:44:56Z</time></trkpt><trkpt lat="45.555146001603404" lon="8.130410693699364"><ele>282.0</ele><time>2026-04-26T11:44:57Z</time></trkpt><trkpt lat="45.555122761950344" lon="8.130801209052926"><ele>282.0</ele><time>2026-04-26T11:44:58Z</time></trkpt><trkpt lat="45.55509888187028" lon="8.131192161114145"><ele>282.0</ele><time>2026-04-26T11:44:59Z</time></trkpt><trkpt lat="45.55507071851716" lon="8.131582385176241"><ele>281.0</ele><time>2026-04-26T11:45:00Z</time></trkpt><trkpt lat="45.55504135245318" lon="8.131976957530387"><ele>280.0</ele><time>2026-04-26T11:45:01Z</time></trkpt><trkpt lat="45.555010241029166" lon="8.13236683822476"><ele>279.0</ele><time>2026-04-26T11:45:02Z</time></trkpt><trkpt lat="45.55497707810131" lon="8.13275080790692"><ele>278.0</ele><time>2026-04-26T11:45:03Z</time></trkpt><trkpt lat="45.55494730782866" lon="8.133128963470144"><ele>278.0</ele><time>2026-04-26T11:45:04Z</time></trkpt><trkpt lat="45.55491277089266" lon="8.13350678351748"><ele>278.0</ele><time>2026-04-26T11:45:05Z</time></trkpt><trkpt lat="45.55487667513373" lon="8.133881426255881"><ele>277.5</ele><time>2026-04-26T11:45:06Z</time></trkpt><trkpt lat="45.55484019827025" lon="8.134258099848848"><ele>277.0</ele><time>2026-04-26T11:45:07Z</time></trkpt><trkpt lat="45.554810068129356" lon="8.134633929211345"><ele>276.0</ele><time>2026-04-26T11:45:08Z</time></trkpt><trkpt lat="45.55477130033495" lon="8.13502870985098"><ele>275.0</ele><time>2026-04-26T11:45:09Z</time></trkpt><trkpt lat="45.55474614684368" lon="8.135385250761255"><ele>274.0</ele><time>2026-04-26T11:45:10Z</time></trkpt><trkpt lat="45.55471515319146" lon="8.135758363417349"><ele>273.0</ele><time>2026-04-26T11:45:11Z</time></trkpt><trkpt lat="45.554680490219496" lon="8.136129964837869"><ele>273.0</ele><time>2026-04-26T11:45:12Z</time></trkpt><trkpt lat="45.55464388865532" lon="8.136496676449292"><ele>273.0</ele><time>2026-04-26T11:45:13Z</time></trkpt><trkpt lat="45.55460732851822" lon="8.136866023193999"><ele>273.0</ele><time>2026-04-26T11:45:14Z</time></trkpt><trkpt lat="45.554572112161566" lon="8.137233302010078"><ele>273.0</ele><time>2026-04-26T11:45:15Z</time></trkpt><trkpt lat="45.55453849342516" lon="8.137600683139535"><ele>272.0</ele><time>2026-04-26T11:45:16Z</time></trkpt><trkpt lat="45.554505970397834" lon="8.137968751330838"><ele>271.0</ele><time>2026-04-26T11:45:17Z</time></trkpt><trkpt lat="45.55447475186989" lon="8.138336047370023"><ele>271.0</ele><time>2026-04-26T11:45:18Z</time></trkpt><trkpt lat="45.55444374313134" lon="8.138703314888401"><ele>271.0</ele><time>2026-04-26T11:45:19Z</time></trkpt><trkpt lat="45.554411738210106" lon="8.139072545826945"><ele>271.5</ele><time>2026-04-26T11:45:20Z</time></trkpt><trkpt lat="45.55437889887769" lon="8.139443747969464"><ele>272.0</ele><time>2026-04-26T11:45:21Z</time></trkpt><trkpt lat="45.554348493809464" lon="8.139812156624522"><ele>271.0</ele><time>2026-04-26T11:45:22Z</time></trkpt><trkpt lat="45.5543123226243" lon="8.1401825220897"><ele>270.0</ele><time>2026-04-26T11:45:23Z</time></trkpt><trkpt lat="45.55427861070235" lon="8.140551553745674"><ele>269.0</ele><time>2026-04-26T11:45:24Z</time></trkpt><trkpt lat="45.55424721802845" lon="8.1409238568183"><ele>268.0</ele><time>2026-04-26T11:45:25Z</time></trkpt><trkpt lat="45.55421323733276" lon="8.141294286897155"><ele>268.0</ele><time>2026-04-26T11:45:26Z</time></trkpt><trkpt lat="45.55417913226039" lon="8.141662740455633"><ele>268.0</ele><time>2026-04-26T11:45:27Z</time></trkpt><trkpt lat="45.55414507120683" lon="8.142035760213858"><ele>267.5</ele><time>2026-04-26T11:45:28Z</time></trkpt><trkpt lat="45.55411092316376" lon="8.14240472089453"><ele>267.0</ele><time>2026-04-26T11:45:29Z</time></trkpt><trkpt lat="45.554075528028854" lon="8.142776814232315"><ele>267.0</ele><time>2026-04-26T11:45:30Z</time></trkpt><trkpt lat="45.55404131947664" lon="8.143144561774802"><ele>267.0</ele><time>2026-04-26T11:45:31Z</time></trkpt><trkpt lat="45.55400747341403" lon="8.143518741243518"><ele>268.0</ele><time>2026-04-26T11:45:32Z</time></trkpt><trkpt lat="45.55398466321912" lon="8.143874137248593"><ele>269.0</ele><time>2026-04-26T11:45:33Z</time></trkpt><trkpt lat="45.553941496210435" lon="8.144247866208596"><ele>269.0</ele><time>2026-04-26T11:45:34Z</time></trkpt><trkpt lat="45.553910971316185" lon="8.144618539284288"><ele>269.0</ele><time>2026-04-26T11:45:35Z</time></trkpt><trkpt lat="45.55387842044514" lon="8.144984835453151"><ele>267.5</ele><time>2026-04-26T11:45:36Z</time></trkpt><trkpt lat="45.55384653416105" lon="8.145352447801915"><ele>266.0</ele><time>2026-04-26T11:45:37Z</time></trkpt><trkpt lat="45.55381161422316" lon="8.14572223906101"><ele>264.0</ele><time>2026-04-26T11:45:38Z</time></trkpt><trkpt lat="45.5537792841805" lon="8.146087758439009"><ele>262.0</ele><time>2026-04-26T11:45:39Z</time></trkpt><trkpt lat="45.55374689695867" lon="8.146459526306241"><ele>261.5</ele><time>2026-04-26T11:45:40Z</time></trkpt><trkpt lat="45.55371375582353" lon="8.146828251487605"><ele>261.0</ele><time>2026-04-26T11:45:41Z</time></trkpt><trkpt lat="45.55368202927841" lon="8.147196832317666"><ele>261.0</ele><time>2026-04-26T11:45:42Z</time></trkpt><trkpt lat="45.55365118576259" lon="8.147568295842051"><ele>261.0</ele><time>2026-04-26T11:45:43Z</time></trkpt><trkpt lat="45.5536255338691" lon="8.147939430306725"><ele>260.5</ele><time>2026-04-26T11:45:44Z</time></trkpt><trkpt lat="45.553603864282294" lon="8.14831149462305"><ele>260.0</ele><time>2026-04-26T11:45:45Z</time></trkpt><trkpt lat="45.55358499054483" lon="8.148684843594964"><ele>258.5</ele><time>2026-04-26T11:45:46Z</time></trkpt><trkpt lat="45.553568845094404" lon="8.149056681992423"><ele>257.0</ele><time>2026-04-26T11:45:47Z</time></trkpt><trkpt lat="45.55355236984837" lon="8.149431427582536"><ele>257.0</ele><time>2026-04-26T11:45:48Z</time></trkpt><trkpt lat="45.553535308695324" lon="8.149806892303124"><ele>257.0</ele><time>2026-04-26T11:45:49Z</time></trkpt><trkpt lat="45.553519265374106" lon="8.15018241582896"><ele>257.0</ele><time>2026-04-26T11:45:50Z</time></trkpt><trkpt lat="45.55350528635835" lon="8.150556025805567"><ele>257.0</ele><time>2026-04-26T11:45:51Z</time></trkpt><trkpt lat="45.5534937219836" lon="8.150932179733655"><ele>257.0</ele><time>2026-04-26T11:45:52Z</time></trkpt><trkpt lat="45.553484537267984" lon="8.151307483698513"><ele>257.0</ele><time>2026-04-26T11:45:53Z</time></trkpt><trkpt lat="45.553475594827034" lon="8.151685752850419"><ele>257.0</ele><time>2026-04-26T11:45:54Z</time></trkpt><trkpt lat="45.55346684672842" lon="8.152061210975498"><ele>257.0</ele><time>2026-04-26T11:45:55Z</time></trkpt><trkpt lat="45.55346101701913" lon="8.152435815401518"><ele>256.0</ele><time>2026-04-26T11:45:56Z</time></trkpt><trkpt lat="45.55345556656322" lon="8.152812672590624"><ele>255.0</ele><time>2026-04-26T11:45:57Z</time></trkpt><trkpt lat="45.55344893768878" lon="8.15318889217494"><ele>254.5</ele><time>2026-04-26T11:45:58Z</time></trkpt><trkpt lat="45.553440562715224" lon="8.153565551931928"><ele>254.0</ele><time>2026-04-26T11:45:59Z</time></trkpt><trkpt lat="45.55343197903196" lon="8.153941784055519"><ele>253.5</ele><time>2026-04-26T11:46:00Z</time></trkpt><trkpt lat="45.553422803126054" lon="8.154315704485331"><ele>253.0</ele><time>2026-04-26T11:46:01Z</time></trkpt><trkpt lat="45.553412239860606" lon="8.154690315131589"><ele>252.5</ele><time>2026-04-26T11:46:02Z</time></trkpt><trkpt lat="45.55340409259394" lon="8.15506528012634"><ele>252.0</ele><time>2026-04-26T11:46:03Z</time></trkpt><trkpt lat="45.5532519822201" lon="8.155428377552644"><ele>252.5</ele><time>2026-04-26T11:46:04Z</time></trkpt><trkpt lat="45.55323935552637" lon="8.155800640943033"><ele>253.0</ele><time>2026-04-26T11:46:05Z</time></trkpt><trkpt lat="45.553226748948354" lon="8.156175834606833"><ele>253.0</ele><time>2026-04-26T11:46:06Z</time></trkpt><trkpt lat="45.553216856818175" lon="8.156550163331973"><ele>253.0</ele><time>2026-04-26T11:46:07Z</time></trkpt><trkpt lat="45.553208837137554" lon="8.1569263686498"><ele>253.0</ele><time>2026-04-26T11:46:08Z</time></trkpt><trkpt lat="45.55317200781833" lon="8.157241355911504"><ele>253.0</ele><time>2026-04-26T11:46:09Z</time></trkpt><trkpt lat="45.55307171472228" lon="8.157511730316365"><ele>253.0</ele><time>2026-04-26T11:46:10Z</time></trkpt><trkpt lat="45.55294620168278" lon="8.15751630070176"><ele>251.0</ele><time>2026-04-26T11:46:11Z</time></trkpt><trkpt lat="45.55333095125792" lon="8.158421922834433"><ele>251.0</ele><time>2026-04-26T11:46:12Z</time></trkpt><trkpt lat="45.553324969019364" lon="8.15879239021499"><ele>251.0</ele><time>2026-04-26T11:46:13Z</time></trkpt><trkpt lat="45.55332014356727" lon="8.15917454094396"><ele>250.0</ele><time>2026-04-26T11:46:14Z</time></trkpt><trkpt lat="45.55331597834017" lon="8.159553593109546"><ele>249.0</ele><time>2026-04-26T11:46:15Z</time></trkpt><trkpt lat="45.553313116483665" lon="8.159930110260753"><ele>248.0</ele><time>2026-04-26T11:46:16Z</time></trkpt><trkpt lat="45.55330824923743" lon="8.160307631056613"><ele>247.0</ele><time>2026-04-26T11:46:17Z</time></trkpt><trkpt lat="45.553299962375625" lon="8.160685811652701"><ele>246.0</ele><time>2026-04-26T11:46:18Z</time></trkpt><trkpt lat="45.55329010592506" lon="8.161064911893826"><ele>245.0</ele><time>2026-04-26T11:46:19Z</time></trkpt><trkpt lat="45.55327931869495" lon="8.161444541593674"><ele>245.0</ele><time>2026-04-26T11:46:20Z</time></trkpt><trkpt lat="45.5532694066948" lon="8.161824935328886"><ele>245.0</ele><time>2026-04-26T11:46:21Z</time></trkpt><trkpt lat="45.55325952648728" lon="8.162205535184786"><ele>245.0</ele><time>2026-04-26T11:46:22Z</time></trkpt><trkpt lat="45.553250703427125" lon="8.162587375787034"><ele>245.0</ele><time>2026-04-26T11:46:23Z</time></trkpt><trkpt lat="45.553244272526086" lon="8.16296038709438"><ele>244.0</ele><time>2026-04-26T11:46:24Z</time></trkpt><trkpt lat="45.55323873922243" lon="8.163318291173178"><ele>243.0</ele><time>2026-04-26T11:46:25Z</time></trkpt><trkpt lat="45.55323198257811" lon="8.163653452308214"><ele>243.0</ele><time>2026-04-26T11:46:26Z</time></trkpt><trkpt lat="45.55322581180738" lon="8.163963481480343"><ele>243.0</ele><time>2026-04-26T11:46:27Z</time></trkpt><trkpt lat="45.553218506551794" lon="8.164256766843959"><ele>243.0</ele><time>2026-04-26T11:46:28Z</time></trkpt><trkpt lat="45.553211282195655" lon="8.164536175875718"><ele>243.0</ele><time>2026-04-26T11:46:29Z</time></trkpt><trkpt lat="45.55320164917278" lon="8.16480986407593"><ele>243.0</ele><time>2026-04-26T11:46:30Z</time></trkpt><trkpt lat="45.55318967738373" lon="8.165072274884023"><ele>243.0</ele><time>2026-04-26T11:46:31Z</time></trkpt><trkpt lat="45.553178915116696" lon="8.165321056800682"><ele>243.0</ele><time>2026-04-26T11:46:32Z</time></trkpt><trkpt lat="45.55317249150181" lon="8.165558779983913"><ele>243.0</ele><time>2026-04-26T11:46:33Z</time></trkpt><trkpt lat="45.55317154353858" lon="8.165780231159042"><ele>243.0</ele><time>2026-04-26T11:46:34Z</time></trkpt><trkpt lat="45.553172534525395" lon="8.16598764608844"><ele>243.0</ele><time>2026-04-26T11:46:35Z</time></trkpt><trkpt lat="45.55316438112027" lon="8.166175620205331"><ele>243.0</ele><time>2026-04-26T11:46:36Z</time></trkpt><trkpt lat="45.55315821700868" lon="8.166349906923069"><ele>243.0</ele><time>2026-04-26T11:46:37Z</time></trkpt><trkpt lat="45.55314942098091" lon="8.166519158988418"><ele>243.0</ele><time>2026-04-26T11:46:38Z</time></trkpt><trkpt lat="45.55313164355564" lon="8.166691041981828"><ele>242.5</ele><time>2026-04-26T11:46:39Z</time></trkpt><trkpt lat="45.55309813218131" lon="8.166859125359283"><ele>242.0</ele><time>2026-04-26T11:46:40Z</time></trkpt><trkpt lat="45.55303058974469" lon="8.167021287563006"><ele>241.5</ele><time>2026-04-26T11:46:41Z</time></trkpt><trkpt lat="45.55293678365795" lon="8.167177408043344"><ele>241.0</ele><time>2026-04-26T11:46:42Z</time></trkpt><trkpt lat="45.55282451126824" lon="8.167319870853632"><ele>241.66666666666666</ele><time>2026-04-26T11:46:43Z</time></trkpt><trkpt lat="45.55269666467363" lon="8.167452802051779"><ele>242.33333333333331</ele><time>2026-04-26T11:46:44Z</time></trkpt><trkpt lat="45.55256656823893" lon="8.167585226714252"><ele>243.0</ele><time>2026-04-26T11:46:45Z</time></trkpt><trkpt lat="45.55243811044016" lon="8.167729591524482"><ele>243.0</ele><time>2026-04-26T11:46:46Z</time></trkpt><trkpt lat="45.55230756919311" lon="8.167878305158684"><ele>243.0</ele><time>2026-04-26T11:46:47Z</time></trkpt><trkpt lat="45.55217519924073" lon="8.168024305553322"><ele>243.0</ele><time>2026-04-26T11:46:48Z</time></trkpt><trkpt lat="45.55204495656798" lon="8.168157649725568"><ele>242.5</ele><time>2026-04-26T11:46:49Z</time></trkpt><trkpt lat="45.55191848522655" lon="8.168263279124098"><ele>242.0</ele><time>2026-04-26T11:46:50Z</time></trkpt><trkpt lat="45.551780007755205" lon="8.168346911194321"><ele>241.5</ele><time>2026-04-26T11:46:51Z</time></trkpt><trkpt lat="45.55163956183703" lon="8.168426572553551"><ele>241.0</ele><time>2026-04-26T11:46:52Z</time></trkpt><trkpt lat="45.551464443666184" lon="8.168396475677952"><ele>241.0</ele><time>2026-04-26T11:46:53Z</time></trkpt><trkpt lat="45.55129794784332" lon="8.168441131394857"><ele>241.0</ele><time>2026-04-26T11:46:54Z</time></trkpt><trkpt lat="45.55111910000849" lon="8.16851092076789"><ele>241.0</ele><time>2026-04-26T11:46:55Z</time></trkpt><trkpt lat="45.5509339967219" lon="8.168574751828643"><ele>240.66666666666666</ele><time>2026-04-26T11:46:56Z</time></trkpt><trkpt lat="45.55075459118489" lon="8.16864114550124"><ele>240.33333333333331</ele><time>2026-04-26T11:46:57Z</time></trkpt><trkpt lat="45.550564351241114" lon="8.168728724715114"><ele>240.0</ele><time>2026-04-26T11:46:58Z</time></trkpt><trkpt lat="45.55036868755838" lon="8.168832382465506"><ele>240.0</ele><time>2026-04-26T11:46:59Z</time></trkpt><trkpt lat="45.550169374807744" lon="8.168950462356063"><ele>240.0</ele><time>2026-04-26T11:47:00Z</time></trkpt><trkpt lat="45.549968570980646" lon="8.169086561493613"><ele>240.0</ele><time>2026-04-26T11:47:01Z</time></trkpt><trkpt lat="45.54976818744856" lon="8.169241922756534"><ele>239.5</ele><time>2026-04-26T11:47:02Z</time></trkpt><trkpt lat="45.54957924879047" lon="8.169409810769405"><ele>239.0</ele><time>2026-04-26T11:47:03Z</time></trkpt><trkpt lat="45.54939111940296" lon="8.169598738051969"><ele>239.0</ele><time>2026-04-26T11:47:04Z</time></trkpt><trkpt lat="45.54920698407577" lon="8.169803488580003"><ele>239.0</ele><time>2026-04-26T11:47:05Z</time></trkpt><trkpt lat="45.54902551372201" lon="8.17002112258872"><ele>239.0</ele><time>2026-04-26T11:47:06Z</time></trkpt><trkpt lat="45.54884851979163" lon="8.170256196550016"><ele>239.0</ele><time>2026-04-26T11:47:07Z</time></trkpt><trkpt lat="45.54868529273555" lon="8.170499996007422"><ele>239.0</ele><time>2026-04-26T11:47:08Z</time></trkpt><trkpt lat="45.548532798577305" lon="8.170762046012133"><ele>239.0</ele><time>2026-04-26T11:47:09Z</time></trkpt><trkpt lat="45.548385687607144" lon="8.171034646338473"><ele>239.0</ele><time>2026-04-26T11:47:10Z</time></trkpt><trkpt lat="45.54823660671749" lon="8.171308822627115"><ele>239.0</ele><time>2026-04-26T11:47:11Z</time></trkpt><trkpt lat="45.54808503057376" lon="8.171585860727227"><ele>239.0</ele><time>2026-04-26T11:47:12Z</time></trkpt><trkpt lat="45.547930626177774" lon="8.171863635694585"><ele>239.0</ele><time>2026-04-26T11:47:13Z</time></trkpt><trkpt lat="45.54777483097905" lon="8.172143778303669"><ele>238.0</ele><time>2026-04-26T11:47:14Z</time></trkpt><trkpt lat="45.54762075771002" lon="8.172426523148214"><ele>237.0</ele><time>2026-04-26T11:47:15Z</time></trkpt><trkpt lat="45.54747143544046" lon="8.172701664446418"><ele>237.0</ele><time>2026-04-26T11:47:16Z</time></trkpt><trkpt lat="45.547328354402914" lon="8.17296142888637"><ele>237.0</ele><time>2026-04-26T11:47:17Z</time></trkpt><trkpt lat="45.54719213399344" lon="8.173216613345987"><ele>236.33333333333331</ele><time>2026-04-26T11:47:18Z</time></trkpt><trkpt lat="45.54705332223868" lon="8.173464463105065"><ele>235.66666666666666</ele><time>2026-04-26T11:47:19Z</time></trkpt><trkpt lat="45.5469163497413" lon="8.17371069678195"><ele>235.0</ele><time>2026-04-26T11:47:20Z</time></trkpt><trkpt lat="45.5467816023804" lon="8.173955958597412"><ele>234.66666666666666</ele><time>2026-04-26T11:47:21Z</time></trkpt><trkpt lat="45.54665071563673" lon="8.174201188229919"><ele>234.33333333333331</ele><time>2026-04-26T11:47:22Z</time></trkpt><trkpt lat="45.54651606621807" lon="8.174446795669907"><ele>234.0</ele><time>2026-04-26T11:47:23Z</time></trkpt><trkpt lat="45.546380000117765" lon="8.17469353697201"><ele>233.66666666666669</ele><time>2026-04-26T11:47:24Z</time></trkpt><trkpt lat="45.54624793972254" lon="8.174942041931631"><ele>233.33333333333334</ele><time>2026-04-26T11:47:25Z</time></trkpt><trkpt lat="45.54611901474151" lon="8.175184200505178"><ele>233.0</ele><time>2026-04-26T11:47:26Z</time></trkpt><trkpt lat="45.54599032400323" lon="8.17542262592047"><ele>233.0</ele><time>2026-04-26T11:47:27Z</time></trkpt><trkpt lat="45.54586208681733" lon="8.175656258839718"><ele>233.0</ele><time>2026-04-26T11:47:28Z</time></trkpt><trkpt lat="45.545731795579435" lon="8.175888481932043"><ele>233.0</ele><time>2026-04-26T11:47:29Z</time></trkpt><trkpt lat="45.54560368496077" lon="8.176124852240909"><ele>233.0</ele><time>2026-04-26T11:47:30Z</time></trkpt><trkpt lat="45.545475212336825" lon="8.176366461625408"><ele>233.0</ele><time>2026-04-26T11:47:31Z</time></trkpt><trkpt lat="45.54534520694063" lon="8.176611442230993"><ele>233.0</ele><time>2026-04-26T11:47:32Z</time></trkpt><trkpt lat="45.54521253206273" lon="8.176858722125331"><ele>233.0</ele><time>2026-04-26T11:47:33Z</time></trkpt><trkpt lat="45.54507824097195" lon="8.177108295892399"><ele>233.0</ele><time>2026-04-26T11:47:34Z</time></trkpt><trkpt lat="45.54494043224149" lon="8.177359144070161"><ele>233.0</ele><time>2026-04-26T11:47:35Z</time></trkpt><trkpt lat="45.54479943577082" lon="8.177611973394539"><ele>232.0</ele><time>2026-04-26T11:47:36Z</time></trkpt><trkpt lat="45.54465759657003" lon="8.177866324025944"><ele>231.0</ele><time>2026-04-26T11:47:37Z</time></trkpt><trkpt lat="45.54451470018934" lon="8.17812286470741"><ele>230.5</ele><time>2026-04-26T11:47:38Z</time></trkpt><trkpt lat="45.544371921998874" lon="8.178382018061379"><ele>230.0</ele><time>2026-04-26T11:47:39Z</time></trkpt><trkpt lat="45.5442308305187" lon="8.17864405011836"><ele>230.0</ele><time>2026-04-26T11:47:40Z</time></trkpt><trkpt lat="45.54408938925057" lon="8.17890500749783"><ele>230.0</ele><time>2026-04-26T11:47:41Z</time></trkpt><trkpt lat="45.543949892264436" lon="8.179163572619224"><ele>229.5</ele><time>2026-04-26T11:47:42Z</time></trkpt><trkpt lat="45.5438089801352" lon="8.179425771948262"><ele>229.0</ele><time>2026-04-26T11:47:43Z</time></trkpt><trkpt lat="45.543666363173124" lon="8.17968573670946"><ele>229.0</ele><time>2026-04-26T11:47:44Z</time></trkpt><trkpt lat="45.54352152774594" lon="8.179947901048534"><ele>229.0</ele><time>2026-04-26T11:47:45Z</time></trkpt><trkpt lat="45.543375387502756" lon="8.180210152773089"><ele>229.0</ele><time>2026-04-26T11:47:46Z</time></trkpt><trkpt lat="45.54323203080695" lon="8.180472541138641"><ele>229.0</ele><time>2026-04-26T11:47:47Z</time></trkpt><trkpt lat="45.54309346539525" lon="8.180725434143426"><ele>229.0</ele><time>2026-04-26T11:47:48Z</time></trkpt><trkpt lat="45.54296160284731" lon="8.180970232938273"><ele>229.0</ele><time>2026-04-26T11:47:49Z</time></trkpt><trkpt lat="45.54283566606464" lon="8.181200312772301"><ele>229.0</ele><time>2026-04-26T11:47:50Z</time></trkpt><trkpt lat="45.54271271906187" lon="8.181422332657544"><ele>228.33333333333331</ele><time>2026-04-26T11:47:51Z</time></trkpt><trkpt lat="45.54258369205378" lon="8.181633107384993"><ele>227.66666666666669</ele><time>2026-04-26T11:47:52Z</time></trkpt><trkpt lat="45.54244883175798" lon="8.181827593826071"><ele>227.0</ele><time>2026-04-26T11:47:53Z</time></trkpt><trkpt lat="45.542330273704344" lon="8.18200445977942"><ele>227.0</ele><time>2026-04-26T11:47:54Z</time></trkpt><trkpt lat="45.54223324092369" lon="8.182171605088843"><ele>227.0</ele><time>2026-04-26T11:47:55Z</time></trkpt><trkpt lat="45.54205509767608" lon="8.182234547398455"><ele>227.0</ele><time>2026-04-26T11:47:56Z</time></trkpt><trkpt lat="45.54190231526915" lon="8.182319255899797"><ele>226.0</ele><time>2026-04-26T11:47:57Z</time></trkpt><trkpt lat="45.54173999021636" lon="8.182371616355201"><ele>225.0</ele><time>2026-04-26T11:47:58Z</time></trkpt><trkpt lat="45.5415687297972" lon="8.182415636889967"><ele>224.0</ele><time>2026-04-26T11:47:59Z</time></trkpt><trkpt lat="45.54138704374696" lon="8.182465858449325"><ele>223.66666666666669</ele><time>2026-04-26T11:48:00Z</time></trkpt><trkpt lat="45.541198578676784" lon="8.182523458864667"><ele>223.33333333333331</ele><time>2026-04-26T11:48:01Z</time></trkpt><trkpt lat="45.54100256265467" lon="8.182583297851595"><ele>223.0</ele><time>2026-04-26T11:48:02Z</time></trkpt><trkpt lat="45.54080080202832" lon="8.182644056080639"><ele>223.0</ele><time>2026-04-26T11:48:03Z</time></trkpt><trkpt lat="45.54059509420672" lon="8.182703384749006"><ele>223.0</ele><time>2026-04-26T11:48:04Z</time></trkpt><trkpt lat="45.54038777980564" lon="8.182768775634722"><ele>223.0</ele><time>2026-04-26T11:48:05Z</time></trkpt><trkpt lat="45.54018013237821" lon="8.182841070609742"><ele>224.0</ele><time>2026-04-26T11:48:06Z</time></trkpt><trkpt lat="45.5399712191767" lon="8.182925354615717"><ele>225.0</ele><time>2026-04-26T11:48:07Z</time></trkpt><trkpt lat="45.53976328556055" lon="8.183022785765191"><ele>226.0</ele><time>2026-04-26T11:48:08Z</time></trkpt><trkpt lat="45.53955865856494" lon="8.183134657209363"><ele>225.66666666666666</ele><time>2026-04-26T11:48:09Z</time></trkpt><trkpt lat="45.53935454513945" lon="8.183257581605075"><ele>225.33333333333331</ele><time>2026-04-26T11:48:10Z</time></trkpt><trkpt lat="45.539153275427054" lon="8.183385635689582"><ele>225.0</ele><time>2026-04-26T11:48:11Z</time></trkpt><trkpt lat="45.53895382624241" lon="8.18352403878851"><ele>225.0</ele><time>2026-04-26T11:48:12Z</time></trkpt><trkpt lat="45.538760433150394" lon="8.183668791015876"><ele>225.0</ele><time>2026-04-26T11:48:13Z</time></trkpt><trkpt lat="45.53857274845657" lon="8.183813742459177"><ele>225.0</ele><time>2026-04-26T11:48:14Z</time></trkpt><trkpt lat="45.53838401106617" lon="8.18396466568127"><ele>224.33333333333331</ele><time>2026-04-26T11:48:15Z</time></trkpt><trkpt lat="45.53819469644952" lon="8.18411586457517"><ele>223.66666666666666</ele><time>2026-04-26T11:48:16Z</time></trkpt><trkpt lat="45.53800388629963" lon="8.18426769771414"><ele>223.0</ele><time>2026-04-26T11:48:17Z</time></trkpt><trkpt lat="45.53781156966217" lon="8.18441941213297"><ele>223.0</ele><time>2026-04-26T11:48:18Z</time></trkpt><trkpt lat="45.53761539238869" lon="8.184567445683378"><ele>223.0</ele><time>2026-04-26T11:48:19Z</time></trkpt><trkpt lat="45.53742003195764" lon="8.184714586418469"><ele>223.0</ele><time>2026-04-26T11:48:20Z</time></trkpt><trkpt lat="45.53722410849403" lon="8.184862384615922"><ele>222.33333333333331</ele><time>2026-04-26T11:48:21Z</time></trkpt><trkpt lat="45.53703188297893" lon="8.185007892728887"><ele>221.66666666666669</ele><time>2026-04-26T11:48:22Z</time></trkpt><trkpt lat="45.53684256315447" lon="8.185157252106265"><ele>221.0</ele><time>2026-04-26T11:48:23Z</time></trkpt><trkpt lat="45.53665930124826" lon="8.18530662191967"><ele>221.0</ele><time>2026-04-26T11:48:24Z</time></trkpt><trkpt lat="45.53648632615095" lon="8.185455531141617"><ele>221.0</ele><time>2026-04-26T11:48:25Z</time></trkpt><trkpt lat="45.536308972354576" lon="8.18559855731627"><ele>221.0</ele><time>2026-04-26T11:48:26Z</time></trkpt><trkpt lat="45.53613471114851" lon="8.185740066977552"><ele>221.33333333333334</ele><time>2026-04-26T11:48:27Z</time></trkpt><trkpt lat="45.53596091006391" lon="8.185880253769275"><ele>221.66666666666669</ele><time>2026-04-26T11:48:28Z</time></trkpt><trkpt lat="45.535789550222596" lon="8.186017379694924"><ele>222.0</ele><time>2026-04-26T11:48:29Z</time></trkpt><trkpt lat="45.53561845289084" lon="8.186150039331498"><ele>222.0</ele><time>2026-04-26T11:48:30Z</time></trkpt><trkpt lat="45.53544875953019" lon="8.186280219226933"><ele>222.0</ele><time>2026-04-26T11:48:31Z</time></trkpt><trkpt lat="45.535279580038875" lon="8.186409837023714"><ele>222.0</ele><time>2026-04-26T11:48:32Z</time></trkpt><trkpt lat="45.535113530109186" lon="8.18653662102146"><ele>222.0</ele><time>2026-04-26T11:48:33Z</time></trkpt><trkpt lat="45.53494750417956" lon="8.186664302437611"><ele>222.0</ele><time>2026-04-26T11:48:34Z</time></trkpt><trkpt lat="45.534785182073854" lon="8.186794288079644"><ele>222.0</ele><time>2026-04-26T11:48:35Z</time></trkpt><trkpt lat="45.534622438543785" lon="8.18692315500394"><ele>222.66666666666669</ele><time>2026-04-26T11:48:36Z</time></trkpt><trkpt lat="45.534460373551724" lon="8.187050448888051"><ele>223.33333333333334</ele><time>2026-04-26T11:48:37Z</time></trkpt><trkpt lat="45.53430244105521" lon="8.187175952241939"><ele>224.0</ele><time>2026-04-26T11:48:38Z</time></trkpt><trkpt lat="45.53414841377376" lon="8.187295780437964"><ele>222.33333333333334</ele><time>2026-04-26T11:48:39Z</time></trkpt><trkpt lat="45.53399997996331" lon="8.187413027896259"><ele>220.66666666666669</ele><time>2026-04-26T11:48:40Z</time></trkpt><trkpt lat="45.53385654846606" lon="8.18752465645733"><ele>219.0</ele><time>2026-04-26T11:48:41Z</time></trkpt><trkpt lat="45.53370956321071" lon="8.187636458079606"><ele>218.66666666666669</ele><time>2026-04-26T11:48:42Z</time></trkpt><trkpt lat="45.53356086766253" lon="8.187753058123642"><ele>218.33333333333334</ele><time>2026-04-26T11:48:43Z</time></trkpt><trkpt lat="45.533411491172885" lon="8.187875571529787"><ele>218.0</ele><time>2026-04-26T11:48:44Z</time></trkpt><trkpt lat="45.53325688651957" lon="8.188005174561303"><ele>218.0</ele><time>2026-04-26T11:48:45Z</time></trkpt><trkpt lat="45.53309523120039" lon="8.18813979837502"><ele>218.0</ele><time>2026-04-26T11:48:46Z</time></trkpt><trkpt lat="45.53292746202688" lon="8.188280487913838"><ele>218.0</ele><time>2026-04-26T11:48:47Z</time></trkpt><trkpt lat="45.5327566404279" lon="8.188427262201253"><ele>219.66666666666669</ele><time>2026-04-26T11:48:48Z</time></trkpt><trkpt lat="45.532578470055114" lon="8.188570814570703"><ele>221.33333333333331</ele><time>2026-04-26T11:48:49Z</time></trkpt><trkpt lat="45.5323842728142" lon="8.188708389526683"><ele>223.0</ele><time>2026-04-26T11:48:50Z</time></trkpt><trkpt lat="45.53219472234812" lon="8.188849773943039"><ele>224.0</ele><time>2026-04-26T11:48:51Z</time></trkpt><trkpt lat="45.5319958081974" lon="8.188994066267918"><ele>225.0</ele><time>2026-04-26T11:48:52Z</time></trkpt><trkpt lat="45.5317983429503" lon="8.189143552644305"><ele>226.0</ele><time>2026-04-26T11:48:53Z</time></trkpt><trkpt lat="45.53159882884397" lon="8.189298341884383"><ele>226.0</ele><time>2026-04-26T11:48:54Z</time></trkpt><trkpt lat="45.5313981246903" lon="8.189455645558432"><ele>226.0</ele><time>2026-04-26T11:48:55Z</time></trkpt><trkpt lat="45.53119334944226" lon="8.189613558100287"><ele>222.5</ele><time>2026-04-26T11:48:56Z</time></trkpt><trkpt lat="45.53098788218405" lon="8.189774903834001"><ele>219.0</ele><time>2026-04-26T11:48:57Z</time></trkpt><trkpt lat="45.530779749429655" lon="8.189939146787863"><ele>219.0</ele><time>2026-04-26T11:48:58Z</time></trkpt><trkpt lat="45.530570979929735" lon="8.19010536816829"><ele>219.0</ele><time>2026-04-26T11:48:59Z</time></trkpt><trkpt lat="45.530360225174526" lon="8.190273289847292"><ele>224.5</ele><time>2026-04-26T11:49:00Z</time></trkpt><trkpt lat="45.530147681397445" lon="8.190441122883696"><ele>230.0</ele><time>2026-04-26T11:49:01Z</time></trkpt><trkpt lat="45.52993670270632" lon="8.190606244633189"><ele>223.5</ele><time>2026-04-26T11:49:02Z</time></trkpt><trkpt lat="45.529728372343776" lon="8.190769676668689"><ele>217.0</ele><time>2026-04-26T11:49:03Z</time></trkpt><trkpt lat="45.529523505757986" lon="8.190930782003218"><ele>217.0</ele><time>2026-04-26T11:49:04Z</time></trkpt><trkpt lat="45.52932245737193" lon="8.191091427051385"><ele>217.0</ele><time>2026-04-26T11:49:05Z</time></trkpt><trkpt lat="45.529130011758326" lon="8.191246855588117"><ele>217.0</ele><time>2026-04-26T11:49:06Z</time></trkpt><trkpt lat="45.52894914854065" lon="8.191393389563755"><ele>217.0</ele><time>2026-04-26T11:49:07Z</time></trkpt><trkpt lat="45.52877685890554" lon="8.191533409240353"><ele>217.0</ele><time>2026-04-26T11:49:08Z</time></trkpt><trkpt lat="45.528608920018975" lon="8.191667644752021"><ele>216.66666666666666</ele><time>2026-04-26T11:49:09Z</time></trkpt><trkpt lat="45.52844310673932" lon="8.191796765636376"><ele>216.33333333333331</ele><time>2026-04-26T11:49:10Z</time></trkpt><trkpt lat="45.52827755756227" lon="8.19192837405798"><ele>216.0</ele><time>2026-04-26T11:49:11Z</time></trkpt><trkpt lat="45.528102072663664" lon="8.192060045086725"><ele>216.0</ele><time>2026-04-26T11:49:12Z</time></trkpt><trkpt lat="45.5279264615392" lon="8.192193279471173"><ele>216.0</ele><time>2026-04-26T11:49:13Z</time></trkpt><trkpt lat="45.52775521588336" lon="8.192327375131892"><ele>216.0</ele><time>2026-04-26T11:49:14Z</time></trkpt><trkpt lat="45.5275975692977" lon="8.19245408824286"><ele>215.33333333333331</ele><time>2026-04-26T11:49:15Z</time></trkpt><trkpt lat="45.5274564333266" lon="8.192569901264987"><ele>214.66666666666666</ele><time>2026-04-26T11:49:16Z</time></trkpt><trkpt lat="45.52732398656595" lon="8.192675429772246"><ele>214.0</ele><time>2026-04-26T11:49:17Z</time></trkpt><trkpt lat="45.52719851500718" lon="8.19277198689004"><ele>214.0</ele><time>2026-04-26T11:49:18Z</time></trkpt><trkpt lat="45.52708099430397" lon="8.192858193554876"><ele>214.0</ele><time>2026-04-26T11:49:19Z</time></trkpt><trkpt lat="45.52696577003671" lon="8.192929572594045"><ele>214.0</ele><time>2026-04-26T11:49:20Z</time></trkpt><trkpt lat="45.52685099109259" lon="8.19299228433847"><ele>214.0</ele><time>2026-04-26T11:49:21Z</time></trkpt><trkpt lat="45.526744868782146" lon="8.19303293127961"><ele>214.0</ele><time>2026-04-26T11:49:22Z</time></trkpt><trkpt lat="45.52663442211751" lon="8.193048043784293"><ele>213.99999999999997</ele><time>2026-04-26T11:49:23Z</time></trkpt><trkpt lat="45.52652399186543" lon="8.193029503555485"><ele>213.99999999999997</ele><time>2026-04-26T11:49:24Z</time></trkpt><trkpt lat="45.526414728823156" lon="8.192977283852802"><ele>214.0</ele><time>2026-04-26T11:49:25Z</time></trkpt><trkpt lat="45.526304653934446" lon="8.192960017617008"><ele>214.0</ele><time>2026-04-26T11:49:26Z</time></trkpt><trkpt lat="45.52619702522522" lon="8.192974937081615"><ele>214.0</ele><time>2026-04-26T11:49:27Z</time></trkpt><trkpt lat="45.52609550042347" lon="8.19303555253741"><ele>213.99999999999997</ele><time>2026-04-26T11:49:28Z</time></trkpt><trkpt lat="45.526010723969314" lon="8.193137796624098"><ele>213.99999999999997</ele><time>2026-04-26T11:49:29Z</time></trkpt><trkpt lat="45.525955399886854" lon="8.193278475683945"><ele>214.0</ele><time>2026-04-26T11:49:30Z</time></trkpt><trkpt lat="45.525935609005806" lon="8.193439768449096"><ele>214.0</ele><time>2026-04-26T11:49:31Z</time></trkpt><trkpt lat="45.52595670042586" lon="8.19360471644969"><ele>214.0</ele><time>2026-04-26T11:49:32Z</time></trkpt><trkpt lat="45.526011583563054" lon="8.193752333007728"><ele>214.0</ele><time>2026-04-26T11:49:33Z</time></trkpt><trkpt lat="45.52608401501152" lon="8.193878624622696"><ele>214.0</ele><time>2026-04-26T11:49:34Z</time></trkpt><trkpt lat="45.52615785637378" lon="8.194016981979473"><ele>214.0</ele><time>2026-04-26T11:49:35Z</time></trkpt><trkpt lat="45.526195630451994" lon="8.19418904143322"><ele>213.66666666666666</ele><time>2026-04-26T11:49:36Z</time></trkpt><trkpt lat="45.52620024748297" lon="8.194404514897094"><ele>213.33333333333331</ele><time>2026-04-26T11:49:37Z</time></trkpt><trkpt lat="45.52619125197655" lon="8.19466105052093"><ele>213.0</ele><time>2026-04-26T11:49:38Z</time></trkpt><trkpt lat="45.52618155857997" lon="8.194907695643794"><ele>212.5</ele><time>2026-04-26T11:49:39Z</time></trkpt><trkpt lat="45.52616737110358" lon="8.195209593060534"><ele>212.0</ele><time>2026-04-26T11:49:40Z</time></trkpt><trkpt lat="45.52614101662068" lon="8.195550047550967"><ele>211.5</ele><time>2026-04-26T11:49:41Z</time></trkpt><trkpt lat="45.526101378548866" lon="8.195896738767773"><ele>211.0</ele><time>2026-04-26T11:49:42Z</time></trkpt><trkpt lat="45.52605039423564" lon="8.196233302194123"><ele>210.0</ele><time>2026-04-26T11:49:43Z</time></trkpt><trkpt lat="45.52598164371845" lon="8.196594626498168"><ele>209.0</ele><time>2026-04-26T11:49:44Z</time></trkpt><trkpt lat="45.52589301496405" lon="8.196960371993173"><ele>209.0</ele><time>2026-04-26T11:49:45Z</time></trkpt><trkpt lat="45.52578117222635" lon="8.197294711102792"><ele>209.0</ele><time>2026-04-26T11:49:46Z</time></trkpt><trkpt lat="45.52565357278408" lon="8.197673986465155"><ele>209.0</ele><time>2026-04-26T11:49:47Z</time></trkpt><trkpt lat="45.52549353766039" lon="8.198010182042303"><ele>209.0</ele><time>2026-04-26T11:49:48Z</time></trkpt><trkpt lat="45.525324446465746" lon="8.198333456903214"><ele>208.5</ele><time>2026-04-26T11:49:49Z</time></trkpt><trkpt lat="45.52514642304273" lon="8.198656767004978"><ele>208.0</ele><time>2026-04-26T11:49:50Z</time></trkpt><trkpt lat="45.52496400915865" lon="8.198981840901578"><ele>208.0</ele><time>2026-04-26T11:49:51Z</time></trkpt><trkpt lat="45.52478907981002" lon="8.199316786893588"><ele>208.0</ele><time>2026-04-26T11:49:52Z</time></trkpt><trkpt lat="45.524599739092686" lon="8.19963912877656"><ele>207.0</ele><time>2026-04-26T11:49:53Z</time></trkpt><trkpt lat="45.524410091550486" lon="8.19996106746639"><ele>206.0</ele><time>2026-04-26T11:49:54Z</time></trkpt><trkpt lat="45.524219655814306" lon="8.200291891055823"><ele>206.0</ele><time>2026-04-26T11:49:55Z</time></trkpt><trkpt lat="45.52402943324026" lon="8.200618549121879"><ele>206.0</ele><time>2026-04-26T11:49:56Z</time></trkpt><trkpt lat="45.523845725574944" lon="8.2009366532051"><ele>206.0</ele><time>2026-04-26T11:49:57Z</time></trkpt><trkpt lat="45.52365887142463" lon="8.201246536810425"><ele>206.0</ele><time>2026-04-26T11:49:58Z</time></trkpt><trkpt lat="45.52346325735186" lon="8.201556648083184"><ele>206.0</ele><time>2026-04-26T11:49:59Z</time></trkpt><trkpt lat="45.523254902991674" lon="8.201852313704753"><ele>206.0</ele><time>2026-04-26T11:50:00Z</time></trkpt><trkpt lat="45.523033514064934" lon="8.202132812373806"><ele>205.0</ele><time>2026-04-26T11:50:01Z</time></trkpt><trkpt lat="45.52280046550988" lon="8.202405859054057"><ele>204.0</ele><time>2026-04-26T11:50:02Z</time></trkpt><trkpt lat="45.52256199920765" lon="8.202672684188338"><ele>204.0</ele><time>2026-04-26T11:50:03Z</time></trkpt><trkpt lat="45.52232290091916" lon="8.202938495644474"><ele>204.0</ele><time>2026-04-26T11:50:04Z</time></trkpt><trkpt lat="45.52207857597646" lon="8.203201630986397"><ele>204.5</ele><time>2026-04-26T11:50:05Z</time></trkpt><trkpt lat="45.52182934315887" lon="8.203469921166619"><ele>205.0</ele><time>2026-04-26T11:50:06Z</time></trkpt><trkpt lat="45.52157886950453" lon="8.203748591075222"><ele>204.5</ele><time>2026-04-26T11:50:07Z</time></trkpt><trkpt lat="45.52132620768321" lon="8.20402897522003"><ele>204.0</ele><time>2026-04-26T11:50:08Z</time></trkpt><trkpt lat="45.52107297827609" lon="8.204313248305143"><ele>203.5</ele><time>2026-04-26T11:50:09Z</time></trkpt><trkpt lat="45.52080690441473" lon="8.204605891125132"><ele>203.0</ele><time>2026-04-26T11:50:10Z</time></trkpt><trkpt lat="45.52054322464619" lon="8.204901385877768"><ele>202.5</ele><time>2026-04-26T11:50:11Z</time></trkpt><trkpt lat="45.520285959737535" lon="8.205185017929658"><ele>202.0</ele><time>2026-04-26T11:50:12Z</time></trkpt><trkpt lat="45.52002620389127" lon="8.20547421177589"><ele>202.0</ele><time>2026-04-26T11:50:13Z</time></trkpt><trkpt lat="45.51976422993205" lon="8.205763075740032"><ele>202.0</ele><time>2026-04-26T11:50:14Z</time></trkpt><trkpt lat="45.51950302359135" lon="8.206050171616807"><ele>202.5</ele><time>2026-04-26T11:50:15Z</time></trkpt><trkpt lat="45.519244071220406" lon="8.206340970720575"><ele>203.0</ele><time>2026-04-26T11:50:16Z</time></trkpt><trkpt lat="45.51900445139921" lon="8.206615807920215"><ele>203.0</ele><time>2026-04-26T11:50:17Z</time></trkpt><trkpt lat="45.5187844962416" lon="8.206851786825279"><ele>203.0</ele><time>2026-04-26T11:50:18Z</time></trkpt><trkpt lat="45.51857447684661" lon="8.207084920370672"><ele>203.0</ele><time>2026-04-26T11:50:19Z</time></trkpt><trkpt lat="45.51837573684529" lon="8.207309099059449"><ele>203.0</ele><time>2026-04-26T11:50:20Z</time></trkpt><trkpt lat="45.5181868390343" lon="8.207523165088693"><ele>202.33333333333334</ele><time>2026-04-26T11:50:21Z</time></trkpt><trkpt lat="45.518009766372046" lon="8.207726785291234"><ele>201.66666666666669</ele><time>2026-04-26T11:50:22Z</time></trkpt><trkpt lat="45.51783237845719" lon="8.207899006932887"><ele>201.0</ele><time>2026-04-26T11:50:23Z</time></trkpt><trkpt lat="45.51765985706579" lon="8.208113400087225"><ele>200.5</ele><time>2026-04-26T11:50:24Z</time></trkpt><trkpt lat="45.517481171953634" lon="8.20832239213107"><ele>200.0</ele><time>2026-04-26T11:50:25Z</time></trkpt><trkpt lat="45.517299755303604" lon="8.208524601090446"><ele>200.0</ele><time>2026-04-26T11:50:26Z</time></trkpt><trkpt lat="45.51711448755189" lon="8.208733055272535"><ele>200.0</ele><time>2026-04-26T11:50:27Z</time></trkpt><trkpt lat="45.5169211331575" lon="8.20894175374278"><ele>200.0</ele><time>2026-04-26T11:50:28Z</time></trkpt><trkpt lat="45.51672321650908" lon="8.209153938154572"><ele>200.0</ele><time>2026-04-26T11:50:29Z</time></trkpt><trkpt lat="45.51652542633669" lon="8.209370289774153"><ele>200.0</ele><time>2026-04-26T11:50:30Z</time></trkpt><trkpt lat="45.51632770762409" lon="8.209589563874967"><ele>200.0</ele><time>2026-04-26T11:50:31Z</time></trkpt><trkpt lat="45.516132262074606" lon="8.209809957887975"><ele>199.0</ele><time>2026-04-26T11:50:32Z</time></trkpt><trkpt lat="45.515938170885455" lon="8.2100314942559"><ele>198.0</ele><time>2026-04-26T11:50:33Z</time></trkpt><trkpt lat="45.51574572257454" lon="8.210251729742842"><ele>198.0</ele><time>2026-04-26T11:50:34Z</time></trkpt><trkpt lat="45.51555060585263" lon="8.210466857361869"><ele>198.0</ele><time>2026-04-26T11:50:35Z</time></trkpt><trkpt lat="45.51535293133558" lon="8.210666353042395"><ele>197.0</ele><time>2026-04-26T11:50:36Z</time></trkpt><trkpt lat="45.51514427768911" lon="8.210846023318418"><ele>196.0</ele><time>2026-04-26T11:50:37Z</time></trkpt><trkpt lat="45.51493017024348" lon="8.211005017782467"><ele>196.0</ele><time>2026-04-26T11:50:38Z</time></trkpt><trkpt lat="45.51471387053645" lon="8.211148982235482"><ele>196.0</ele><time>2026-04-26T11:50:39Z</time></trkpt><trkpt lat="45.514493343485356" lon="8.211280861710499"><ele>196.5</ele><time>2026-04-26T11:50:40Z</time></trkpt><trkpt lat="45.51426943555726" lon="8.211402542588797"><ele>197.0</ele><time>2026-04-26T11:50:41Z</time></trkpt><trkpt lat="45.51404422993144" lon="8.211504902612663"><ele>197.5</ele><time>2026-04-26T11:50:42Z</time></trkpt><trkpt lat="45.513818679399805" lon="8.21158942704193"><ele>198.0</ele><time>2026-04-26T11:50:43Z</time></trkpt><trkpt lat="45.51359147695928" lon="8.211658966262727"><ele>198.5</ele><time>2026-04-26T11:50:44Z</time></trkpt><trkpt lat="45.513364343218754" lon="8.211717048944859"><ele>199.0</ele><time>2026-04-26T11:50:45Z</time></trkpt><trkpt lat="45.513135752965866" lon="8.211756014837867"><ele>199.0</ele><time>2026-04-26T11:50:46Z</time></trkpt><trkpt lat="45.51290717603979" lon="8.21177448816946"><ele>199.0</ele><time>2026-04-26T11:50:47Z</time></trkpt><trkpt lat="45.51267865185784" lon="8.21177733418554"><ele>198.0</ele><time>2026-04-26T11:50:48Z</time></trkpt><trkpt lat="45.512450649664366" lon="8.211769274720917"><ele>197.0</ele><time>2026-04-26T11:50:49Z</time></trkpt><trkpt lat="45.51222287057279" lon="8.211751176634587"><ele>197.5</ele><time>2026-04-26T11:50:50Z</time></trkpt><trkpt lat="45.511995806958495" lon="8.211732798905512"><ele>198.0</ele><time>2026-04-26T11:50:51Z</time></trkpt><trkpt lat="45.51177061494595" lon="8.21172078263096"><ele>198.0</ele><time>2026-04-26T11:50:52Z</time></trkpt><trkpt lat="45.511543535382586" lon="8.211708293820998"><ele>198.0</ele><time>2026-04-26T11:50:53Z</time></trkpt><trkpt lat="45.51131979912349" lon="8.211694005820398"><ele>197.0</ele><time>2026-04-26T11:50:54Z</time></trkpt><trkpt lat="45.5110930794224" lon="8.211680985436438"><ele>196.0</ele><time>2026-04-26T11:50:55Z</time></trkpt><trkpt lat="45.51086593778459" lon="8.211666646693345"><ele>196.0</ele><time>2026-04-26T11:50:56Z</time></trkpt><trkpt lat="45.51063747659464" lon="8.211649047234138"><ele>196.0</ele><time>2026-04-26T11:50:57Z</time></trkpt><trkpt lat="45.51040681480871" lon="8.211633196706572"><ele>196.5</ele><time>2026-04-26T11:50:58Z</time></trkpt><trkpt lat="45.510176836095766" lon="8.211620832833455"><ele>197.0</ele><time>2026-04-26T11:50:59Z</time></trkpt><trkpt lat="45.509946730064115" lon="8.21161830946482"><ele>197.0</ele><time>2026-04-26T11:51:00Z</time></trkpt><trkpt lat="45.50971511137735" lon="8.211630682971084"><ele>197.0</ele><time>2026-04-26T11:51:01Z</time></trkpt><trkpt lat="45.50948525817484" lon="8.211661139122054"><ele>197.5</ele><time>2026-04-26T11:51:02Z</time></trkpt><trkpt lat="45.50925330849986" lon="8.211712042467024"><ele>198.0</ele><time>2026-04-26T11:51:03Z</time></trkpt><trkpt lat="45.509024637907615" lon="8.211777472921453"><ele>198.0</ele><time>2026-04-26T11:51:04Z</time></trkpt><trkpt lat="45.50879431731987" lon="8.211854530647868"><ele>198.0</ele><time>2026-04-26T11:51:05Z</time></trkpt><trkpt lat="45.508570146461146" lon="8.2119433030727"><ele>198.5</ele><time>2026-04-26T11:51:06Z</time></trkpt><trkpt lat="45.508342885156395" lon="8.212044770902788"><ele>199.0</ele><time>2026-04-26T11:51:07Z</time></trkpt><trkpt lat="45.50811797708169" lon="8.212156567735303"><ele>199.5</ele><time>2026-04-26T11:51:08Z</time></trkpt><trkpt lat="45.50789149113109" lon="8.212274472623218"><ele>200.0</ele><time>2026-04-26T11:51:09Z</time></trkpt><trkpt lat="45.50766354065157" lon="8.2123827022535"><ele>199.0</ele><time>2026-04-26T11:51:10Z</time></trkpt><trkpt lat="45.507429486184066" lon="8.212477374146866"><ele>198.0</ele><time>2026-04-26T11:51:11Z</time></trkpt><trkpt lat="45.507190440207836" lon="8.212555269387375"><ele>198.5</ele><time>2026-04-26T11:51:12Z</time></trkpt><trkpt lat="45.506948172290414" lon="8.212621051754187"><ele>199.0</ele><time>2026-04-26T11:51:13Z</time></trkpt><trkpt lat="45.50671119138504" lon="8.212671155539688"><ele>199.0</ele><time>2026-04-26T11:51:14Z</time></trkpt><trkpt lat="45.506487450987905" lon="8.212714549918568"><ele>199.0</ele><time>2026-04-26T11:51:15Z</time></trkpt><trkpt lat="45.50627312803462" lon="8.212760702019818"><ele>199.0</ele><time>2026-04-26T11:51:16Z</time></trkpt><trkpt lat="45.50607322685052" lon="8.21280315870209"><ele>199.0</ele><time>2026-04-26T11:51:17Z</time></trkpt><trkpt lat="45.50588876715988" lon="8.212841662030943"><ele>199.0</ele><time>2026-04-26T11:51:18Z</time></trkpt><trkpt lat="45.505723592287936" lon="8.21287366633126"><ele>199.0</ele><time>2026-04-26T11:51:19Z</time></trkpt><trkpt lat="45.50556826272722" lon="8.212905520540648"><ele>199.0</ele><time>2026-04-26T11:51:20Z</time></trkpt><trkpt lat="45.505424558091036" lon="8.212924498963515"><ele>199.0</ele><time>2026-04-26T11:51:21Z</time></trkpt><trkpt lat="45.505288499665305" lon="8.212924151956928"><ele>199.0</ele><time>2026-04-26T11:51:22Z</time></trkpt><trkpt lat="45.50516406500214" lon="8.212896290450084"><ele>199.0</ele><time>2026-04-26T11:51:23Z</time></trkpt><trkpt lat="45.50505718054256" lon="8.21282386914217"><ele>198.5</ele><time>2026-04-26T11:51:24Z</time></trkpt><trkpt lat="45.504964721684495" lon="8.212720281045561"><ele>198.0</ele><time>2026-04-26T11:51:25Z</time></trkpt><trkpt lat="45.50487305670085" lon="8.212629234680435"><ele>197.5</ele><time>2026-04-26T11:51:26Z</time></trkpt><trkpt lat="45.50476248948889" lon="8.212593106414738"><ele>197.0</ele><time>2026-04-26T11:51:27Z</time></trkpt><trkpt lat="45.50464034660284" lon="8.21261394748426"><ele>196.75</ele><time>2026-04-26T11:51:28Z</time></trkpt><trkpt lat="45.50452050803725" lon="8.212692431590211"><ele>196.5</ele><time>2026-04-26T11:51:29Z</time></trkpt><trkpt lat="45.504420766669206" lon="8.212829989075239"><ele>196.25</ele><time>2026-04-26T11:51:30Z</time></trkpt><trkpt lat="45.504362697560836" lon="8.21300588787086"><ele>196.0</ele><time>2026-04-26T11:51:31Z</time></trkpt><trkpt lat="45.50425228298472" lon="8.21312031978076"><ele>195.75</ele><time>2026-04-26T11:51:32Z</time></trkpt><trkpt lat="45.504138577534526" lon="8.213201382240086"><ele>195.5</ele><time>2026-04-26T11:51:33Z</time></trkpt><trkpt lat="45.503999286696136" lon="8.21324862765801"><ele>195.25</ele><time>2026-04-26T11:51:34Z</time></trkpt><trkpt lat="45.50382257711907" lon="8.213248526901733"><ele>195.0</ele><time>2026-04-26T11:51:35Z</time></trkpt><trkpt lat="45.503632753624004" lon="8.21329024459725"><ele>194.5</ele><time>2026-04-26T11:51:36Z</time></trkpt><trkpt lat="45.50341445376693" lon="8.213338178552357"><ele>194.0</ele><time>2026-04-26T11:51:37Z</time></trkpt><trkpt lat="45.50316814015661" lon="8.21338987083718"><ele>194.0</ele><time>2026-04-26T11:51:38Z</time></trkpt><trkpt lat="45.50292500475264" lon="8.213442887422245"><ele>194.0</ele><time>2026-04-26T11:51:39Z</time></trkpt><trkpt lat="45.50268786437261" lon="8.213494174392558"><ele>195.0</ele><time>2026-04-26T11:51:40Z</time></trkpt><trkpt lat="45.502447577861844" lon="8.213542299914549"><ele>196.0</ele><time>2026-04-26T11:51:41Z</time></trkpt><trkpt lat="45.5022135667409" lon="8.213583965393697"><ele>196.5</ele><time>2026-04-26T11:51:42Z</time></trkpt><trkpt lat="45.50197357148924" lon="8.213629566895849"><ele>197.0</ele><time>2026-04-26T11:51:43Z</time></trkpt><trkpt lat="45.50172887244527" lon="8.213678608530078"><ele>197.0</ele><time>2026-04-26T11:51:44Z</time></trkpt><trkpt lat="45.501479029351444" lon="8.213727664799054"><ele>197.0</ele><time>2026-04-26T11:51:45Z</time></trkpt><trkpt lat="45.501229103430525" lon="8.213780678216684"><ele>200.5</ele><time>2026-04-26T11:51:46Z</time></trkpt><trkpt lat="45.50098868340094" lon="8.213833418603537"><ele>204.0</ele><time>2026-04-26T11:51:47Z</time></trkpt><trkpt lat="45.50073867254284" lon="8.213883824792775"><ele>204.0</ele><time>2026-04-26T11:51:48Z</time></trkpt><trkpt lat="45.50048683583357" lon="8.213935963780534"><ele>204.0</ele><time>2026-04-26T11:51:49Z</time></trkpt><trkpt lat="45.50023110529881" lon="8.21399081288097"><ele>205.5</ele><time>2026-04-26T11:51:50Z</time></trkpt><trkpt lat="45.499973511148724" lon="8.214041688126823"><ele>207.0</ele><time>2026-04-26T11:51:51Z</time></trkpt><trkpt lat="45.49971439486611" lon="8.214089914233908"><ele>206.0</ele><time>2026-04-26T11:51:52Z</time></trkpt><trkpt lat="45.49945445300259" lon="8.214137133408828"><ele>205.0</ele><time>2026-04-26T11:51:53Z</time></trkpt><trkpt lat="45.49919717129369" lon="8.214187156401337"><ele>205.0</ele><time>2026-04-26T11:51:54Z</time></trkpt><trkpt lat="45.49894186974782" lon="8.214239573029062"><ele>205.0</ele><time>2026-04-26T11:51:55Z</time></trkpt><trkpt lat="45.49868997033102" lon="8.214292510532792"><ele>205.0</ele><time>2026-04-26T11:51:56Z</time></trkpt><trkpt lat="45.498436266493385" lon="8.21434730410479"><ele>205.0</ele><time>2026-04-26T11:51:57Z</time></trkpt><trkpt lat="45.49818562634135" lon="8.214400758637014"><ele>205.0</ele><time>2026-04-26T11:51:58Z</time></trkpt><trkpt lat="45.4979316529956" lon="8.214452024634033"><ele>205.0</ele><time>2026-04-26T11:51:59Z</time></trkpt><trkpt lat="45.49767794734963" lon="8.214503397486421"><ele>205.0</ele><time>2026-04-26T11:52:00Z</time></trkpt><trkpt lat="45.4974225408905" lon="8.214553811072866"><ele>205.0</ele><time>2026-04-26T11:52:01Z</time></trkpt><trkpt lat="45.49717397970346" lon="8.21460257871866"><ele>204.5</ele><time>2026-04-26T11:52:02Z</time></trkpt><trkpt lat="45.49693915500476" lon="8.214650651903225"><ele>204.0</ele><time>2026-04-26T11:52:03Z</time></trkpt><trkpt lat="45.4967016797234" lon="8.214699722593094"><ele>204.0</ele><time>2026-04-26T11:52:04Z</time></trkpt><trkpt lat="45.49646220642838" lon="8.21474869111248"><ele>204.0</ele><time>2026-04-26T11:52:05Z</time></trkpt><trkpt lat="45.496220351493406" lon="8.214798046675012"><ele>203.5</ele><time>2026-04-26T11:52:06Z</time></trkpt><trkpt lat="45.4959762566472" lon="8.214846490832404"><ele>203.0</ele><time>2026-04-26T11:52:07Z</time></trkpt><trkpt lat="45.49573260914405" lon="8.21489376145968"><ele>203.0</ele><time>2026-04-26T11:52:08Z</time></trkpt><trkpt lat="45.49548919165181" lon="8.214941064091688"><ele>203.0</ele><time>2026-04-26T11:52:09Z</time></trkpt><trkpt lat="45.49524521628979" lon="8.214992914939298"><ele>203.0</ele><time>2026-04-26T11:52:10Z</time></trkpt><trkpt lat="45.49500133923576" lon="8.215046062077743"><ele>203.0</ele><time>2026-04-26T11:52:11Z</time></trkpt><trkpt lat="45.49475960468315" lon="8.21509605350515"><ele>203.5</ele><time>2026-04-26T11:52:12Z</time></trkpt><trkpt lat="45.49451721898614" lon="8.215147315581385"><ele>204.0</ele><time>2026-04-26T11:52:13Z</time></trkpt><trkpt lat="45.49427729722713" lon="8.21519333811753"><ele>204.0</ele><time>2026-04-26T11:52:14Z</time></trkpt><trkpt lat="45.4940507862545" lon="8.215239058679796"><ele>204.0</ele><time>2026-04-26T11:52:15Z</time></trkpt><trkpt lat="45.49382698740264" lon="8.215286337678577"><ele>204.0</ele><time>2026-04-26T11:52:16Z</time></trkpt><trkpt lat="45.49360476205436" lon="8.215329432959855"><ele>204.0</ele><time>2026-04-26T11:52:17Z</time></trkpt><trkpt lat="45.49338199309388" lon="8.215375396662731"><ele>204.0</ele><time>2026-04-26T11:52:18Z</time></trkpt><trkpt lat="45.4931586562518" lon="8.215420273923046"><ele>204.0</ele><time>2026-04-26T11:52:19Z</time></trkpt><trkpt lat="45.49293488290252" lon="8.21546739240854"><ele>204.0</ele><time>2026-04-26T11:52:20Z</time></trkpt><trkpt lat="45.49270816022359" lon="8.21551804468667"><ele>204.0</ele><time>2026-04-26T11:52:21Z</time></trkpt><trkpt lat="45.49248224878039" lon="8.215562840393218"><ele>204.0</ele><time>2026-04-26T11:52:22Z</time></trkpt><trkpt lat="45.49225497451872" lon="8.215609072379035"><ele>202.0</ele><time>2026-04-26T11:52:23Z</time></trkpt><trkpt lat="45.49202595106575" lon="8.215656508941207"><ele>200.0</ele><time>2026-04-26T11:52:24Z</time></trkpt><trkpt lat="45.491792255000625" lon="8.215702046624855"><ele>200.0</ele><time>2026-04-26T11:52:25Z</time></trkpt><trkpt lat="45.49155855483257" lon="8.215745318134285"><ele>200.0</ele><time>2026-04-26T11:52:26Z</time></trkpt><trkpt lat="45.49132307027199" lon="8.215790215126214"><ele>199.0</ele><time>2026-04-26T11:52:27Z</time></trkpt><trkpt lat="45.49108451837288" lon="8.215836395738437"><ele>198.0</ele><time>2026-04-26T11:52:28Z</time></trkpt><trkpt lat="45.490845785229304" lon="8.21588497497179"><ele>198.0</ele><time>2026-04-26T11:52:29Z</time></trkpt><trkpt lat="45.4906043375274" lon="8.215933688431265"><ele>198.0</ele><time>2026-04-26T11:52:30Z</time></trkpt><trkpt lat="45.49036058346978" lon="8.215984531644706"><ele>197.0</ele><time>2026-04-26T11:52:31Z</time></trkpt><trkpt lat="45.49011402756757" lon="8.216035480635123"><ele>196.0</ele><time>2026-04-26T11:52:32Z</time></trkpt><trkpt lat="45.48986633160176" lon="8.216082892596042"><ele>196.0</ele><time>2026-04-26T11:52:33Z</time></trkpt><trkpt lat="45.489616282720185" lon="8.216129950065518"><ele>196.0</ele><time>2026-04-26T11:52:34Z</time></trkpt><trkpt lat="45.489365249848255" lon="8.216178255288966"><ele>196.5</ele><time>2026-04-26T11:52:35Z</time></trkpt><trkpt lat="45.48911327014539" lon="8.216226959390278"><ele>197.0</ele><time>2026-04-26T11:52:36Z</time></trkpt><trkpt lat="45.48886015765345" lon="8.216276627727224"><ele>195.5</ele><time>2026-04-26T11:52:37Z</time></trkpt><trkpt lat="45.48860700812025" lon="8.216327763448373"><ele>194.0</ele><time>2026-04-26T11:52:38Z</time></trkpt><trkpt lat="45.48835229846987" lon="8.216381104003553"><ele>194.0</ele><time>2026-04-26T11:52:39Z</time></trkpt><trkpt lat="45.48809454557086" lon="8.216432512972448"><ele>194.0</ele><time>2026-04-26T11:52:40Z</time></trkpt><trkpt lat="45.487840511850465" lon="8.216484514527952"><ele>195.0</ele><time>2026-04-26T11:52:41Z</time></trkpt><trkpt lat="45.48758441032702" lon="8.216534660850138"><ele>196.0</ele><time>2026-04-26T11:52:42Z</time></trkpt><trkpt lat="45.48732657468458" lon="8.216583822025372"><ele>196.5</ele><time>2026-04-26T11:52:43Z</time></trkpt><trkpt lat="45.48706680967794" lon="8.216634610846931"><ele>197.0</ele><time>2026-04-26T11:52:44Z</time></trkpt><trkpt lat="45.48680912653514" lon="8.21668674724767"><ele>197.0</ele><time>2026-04-26T11:52:45Z</time></trkpt><trkpt lat="45.48655074093166" lon="8.216740756227347"><ele>197.0</ele><time>2026-04-26T11:52:46Z</time></trkpt><trkpt lat="45.48629217402182" lon="8.216796834434104"><ele>197.5</ele><time>2026-04-26T11:52:47Z</time></trkpt><trkpt lat="45.4860351876841" lon="8.21685317349839"><ele>198.0</ele><time>2026-04-26T11:52:48Z</time></trkpt><trkpt lat="45.48577854961893" lon="8.216908708880545"><ele>198.0</ele><time>2026-04-26T11:52:49Z</time></trkpt><trkpt lat="45.48552141628982" lon="8.21696288388099"><ele>198.0</ele><time>2026-04-26T11:52:50Z</time></trkpt><trkpt lat="45.48526327423287" lon="8.217013724801927"><ele>198.5</ele><time>2026-04-26T11:52:51Z</time></trkpt><trkpt lat="45.48500454846095" lon="8.217064500881127"><ele>199.0</ele><time>2026-04-26T11:52:52Z</time></trkpt><trkpt lat="45.48474475697664" lon="8.217115276475617"><ele>198.5</ele><time>2026-04-26T11:52:53Z</time></trkpt><trkpt lat="45.4844838734622" lon="8.217166695463904"><ele>198.0</ele><time>2026-04-26T11:52:54Z</time></trkpt><trkpt lat="45.48422268645242" lon="8.217218257920331"><ele>198.0</ele><time>2026-04-26T11:52:55Z</time></trkpt><trkpt lat="45.48396029585249" lon="8.21727121597475"><ele>198.0</ele><time>2026-04-26T11:52:56Z</time></trkpt><trkpt lat="45.48369837643418" lon="8.21732463279052"><ele>198.5</ele><time>2026-04-26T11:52:57Z</time></trkpt><trkpt lat="45.48343334687452" lon="8.217375751334387"><ele>199.0</ele><time>2026-04-26T11:52:58Z</time></trkpt><trkpt lat="45.48317240752009" lon="8.217427214537702"><ele>199.5</ele><time>2026-04-26T11:52:59Z</time></trkpt><trkpt lat="45.482910676144584" lon="8.217479503795644"><ele>200.0</ele><time>2026-04-26T11:53:00Z</time></trkpt><trkpt lat="45.48264731990178" lon="8.21753377512059"><ele>200.0</ele><time>2026-04-26T11:53:01Z</time></trkpt><trkpt lat="45.48238589089753" lon="8.217583623627005"><ele>200.0</ele><time>2026-04-26T11:53:02Z</time></trkpt><trkpt lat="45.48212484762018" lon="8.217635519244578"><ele>199.5</ele><time>2026-04-26T11:53:03Z</time></trkpt><trkpt lat="45.48186188409479" lon="8.217685038033254"><ele>199.0</ele><time>2026-04-26T11:53:04Z</time></trkpt><trkpt lat="45.48159783910438" lon="8.217735205559205"><ele>199.0</ele><time>2026-04-26T11:53:05Z</time></trkpt><trkpt lat="45.48133380746632" lon="8.217788573040636"><ele>199.0</ele><time>2026-04-26T11:53:06Z</time></trkpt><trkpt lat="45.48107027816861" lon="8.217843130178501"><ele>199.5</ele><time>2026-04-26T11:53:07Z</time></trkpt><trkpt lat="45.480806711671605" lon="8.217898132598368"><ele>200.0</ele><time>2026-04-26T11:53:08Z</time></trkpt><trkpt lat="45.480544939791976" lon="8.217951038991215"><ele>200.0</ele><time>2026-04-26T11:53:09Z</time></trkpt><trkpt lat="45.480286604075815" lon="8.218003536824721"><ele>200.0</ele><time>2026-04-26T11:53:10Z</time></trkpt><trkpt lat="45.480028310769704" lon="8.218055232850764"><ele>200.0</ele><time>2026-04-26T11:53:11Z</time></trkpt><trkpt lat="45.479770107981835" lon="8.218105951070006"><ele>200.0</ele><time>2026-04-26T11:53:12Z</time></trkpt><trkpt lat="45.479517147993356" lon="8.218157183275558"><ele>200.0</ele><time>2026-04-26T11:53:13Z</time></trkpt><trkpt lat="45.47926462694261" lon="8.218206009346552"><ele>200.0</ele><time>2026-04-26T11:53:14Z</time></trkpt><trkpt lat="45.4790138430121" lon="8.218254876490985"><ele>199.0</ele><time>2026-04-26T11:53:15Z</time></trkpt><trkpt lat="45.47876298728782" lon="8.218304541234616"><ele>198.0</ele><time>2026-04-26T11:53:16Z</time></trkpt><trkpt lat="45.47851341412412" lon="8.21835653542342"><ele>198.0</ele><time>2026-04-26T11:53:17Z</time></trkpt><trkpt lat="45.478261032879246" lon="8.218409789255157"><ele>198.0</ele><time>2026-04-26T11:53:18Z</time></trkpt><trkpt lat="45.47800605293027" lon="8.218464128243008"><ele>196.5</ele><time>2026-04-26T11:53:19Z</time></trkpt><trkpt lat="45.47774854405342" lon="8.218517486471224"><ele>195.0</ele><time>2026-04-26T11:53:20Z</time></trkpt><trkpt lat="45.4774895457735" lon="8.218569406828898"><ele>195.0</ele><time>2026-04-26T11:53:21Z</time></trkpt><trkpt lat="45.477228717190535" lon="8.218621563868492"><ele>195.0</ele><time>2026-04-26T11:53:22Z</time></trkpt><trkpt lat="45.476968754005824" lon="8.218675160266823"><ele>193.5</ele><time>2026-04-26T11:53:23Z</time></trkpt><trkpt lat="45.47672478433444" lon="8.21872728169854"><ele>192.0</ele><time>2026-04-26T11:53:24Z</time></trkpt><trkpt lat="45.47648634666622" lon="8.218778519257135"><ele>190.5</ele><time>2026-04-26T11:53:25Z</time></trkpt><trkpt lat="45.476253552321346" lon="8.218826877835285"><ele>189.0</ele><time>2026-04-26T11:53:26Z</time></trkpt><trkpt lat="45.47601959913349" lon="8.218866489235236"><ele>189.0</ele><time>2026-04-26T11:53:27Z</time></trkpt><trkpt lat="45.475784151150535" lon="8.218891565059684"><ele>189.0</ele><time>2026-04-26T11:53:28Z</time></trkpt><trkpt lat="45.47554372505806" lon="8.218890764677656"><ele>189.0</ele><time>2026-04-26T11:53:29Z</time></trkpt><trkpt lat="45.47530134823434" lon="8.218867465218347"><ele>189.0</ele><time>2026-04-26T11:53:30Z</time></trkpt><trkpt lat="45.4750567281898" lon="8.218821585753489"><ele>189.0</ele><time>2026-04-26T11:53:31Z</time></trkpt><trkpt lat="45.4748193013078" lon="8.218753653161478"><ele>189.0</ele><time>2026-04-26T11:53:32Z</time></trkpt><trkpt lat="45.47459652228097" lon="8.218667317577383"><ele>189.33333333333334</ele><time>2026-04-26T11:53:33Z</time></trkpt><trkpt lat="45.47439286064397" lon="8.218586285989822"><ele>189.66666666666669</ele><time>2026-04-26T11:53:34Z</time></trkpt><trkpt lat="45.47420659591262" lon="8.218516715496364"><ele>190.0</ele><time>2026-04-26T11:53:35Z</time></trkpt><trkpt lat="45.47402925967638" lon="8.218454174181193"><ele>190.0</ele><time>2026-04-26T11:53:36Z</time></trkpt><trkpt lat="45.473854629891065" lon="8.218389390992968"><ele>190.0</ele><time>2026-04-26T11:53:37Z</time></trkpt><trkpt lat="45.47369069222893" lon="8.218325186598499"><ele>190.0</ele><time>2026-04-26T11:53:38Z</time></trkpt><trkpt lat="45.47353395596881" lon="8.218264553102271"><ele>190.0</ele><time>2026-04-26T11:53:39Z</time></trkpt><trkpt lat="45.47338732989989" lon="8.218206918256046"><ele>190.0</ele><time>2026-04-26T11:53:40Z</time></trkpt><trkpt lat="45.473247427787484" lon="8.218153844863412"><ele>190.0</ele><time>2026-04-26T11:53:41Z</time></trkpt><trkpt lat="45.473109021351775" lon="8.21809997463223"><ele>190.0</ele><time>2026-04-26T11:53:42Z</time></trkpt><trkpt lat="45.47296108817742" lon="8.218044610743927"><ele>190.0</ele><time>2026-04-26T11:53:43Z</time></trkpt><trkpt lat="45.47280399462151" lon="8.21798102863771"><ele>190.0</ele><time>2026-04-26T11:53:44Z</time></trkpt><trkpt lat="45.47264003724686" lon="8.21789861354417"><ele>190.0</ele><time>2026-04-26T11:53:45Z</time></trkpt><trkpt lat="45.47247016832568" lon="8.217798026781885"><ele>190.0</ele><time>2026-04-26T11:53:46Z</time></trkpt><trkpt lat="45.47229241822505" lon="8.217682879153381"><ele>190.0</ele><time>2026-04-26T11:53:47Z</time></trkpt><trkpt lat="45.472117150286" lon="8.21756469256847"><ele>190.0</ele><time>2026-04-26T11:53:48Z</time></trkpt><trkpt lat="45.47193995598313" lon="8.217442576276568"><ele>190.33333333333334</ele><time>2026-04-26T11:53:49Z</time></trkpt><trkpt lat="45.471756038383" lon="8.217313691857733"><ele>190.66666666666666</ele><time>2026-04-26T11:53:50Z</time></trkpt><trkpt lat="45.471564542156536" lon="8.21717073845333"><ele>191.0</ele><time>2026-04-26T11:53:51Z</time></trkpt><trkpt lat="45.471370555420364" lon="8.217023875738866"><ele>191.0</ele><time>2026-04-26T11:53:52Z</time></trkpt><trkpt lat="45.471184415172544" lon="8.216885236564726"><ele>191.0</ele><time>2026-04-26T11:53:53Z</time></trkpt><trkpt lat="45.471009091893215" lon="8.216747960200216"><ele>191.0</ele><time>2026-04-26T11:53:54Z</time></trkpt><trkpt lat="45.47083742531187" lon="8.216616578142851"><ele>191.0</ele><time>2026-04-26T11:53:55Z</time></trkpt><trkpt lat="45.47065895751426" lon="8.216490039269054"><ele>191.0</ele><time>2026-04-26T11:53:56Z</time></trkpt><trkpt lat="45.470477298006735" lon="8.216357159772635"><ele>191.0</ele><time>2026-04-26T11:53:57Z</time></trkpt><trkpt lat="45.470307535984915" lon="8.216218467746543"><ele>191.33333333333331</ele><time>2026-04-26T11:53:58Z</time></trkpt><trkpt lat="45.47013759404465" lon="8.216087069091051"><ele>191.66666666666666</ele><time>2026-04-26T11:53:59Z</time></trkpt><trkpt lat="45.46994844400909" lon="8.21595667990037"><ele>192.0</ele><time>2026-04-26T11:54:00Z</time></trkpt><trkpt lat="45.46975332788488" lon="8.215815970287263"><ele>192.0</ele><time>2026-04-26T11:54:01Z</time></trkpt><trkpt lat="45.46957156776107" lon="8.215663889590049"><ele>192.0</ele><time>2026-04-26T11:54:02Z</time></trkpt><trkpt lat="45.469401435669425" lon="8.215514328513626"><ele>192.0</ele><time>2026-04-26T11:54:03Z</time></trkpt><trkpt lat="45.46923478614894" lon="8.21538294081799"><ele>192.0</ele><time>2026-04-26T11:54:04Z</time></trkpt><trkpt lat="45.46907470561239" lon="8.21526989423199"><ele>192.0</ele><time>2026-04-26T11:54:05Z</time></trkpt><trkpt lat="45.46891966497721" lon="8.215157628383718"><ele>192.0</ele><time>2026-04-26T11:54:06Z</time></trkpt><trkpt lat="45.468778106218664" lon="8.215050521567287"><ele>192.0</ele><time>2026-04-26T11:54:07Z</time></trkpt><trkpt lat="45.468657730305175" lon="8.214960945585062"><ele>192.0</ele><time>2026-04-26T11:54:08Z</time></trkpt><trkpt lat="45.468561840730565" lon="8.214880207642523"><ele>192.0</ele><time>2026-04-26T11:54:09Z</time></trkpt><trkpt lat="45.46848566953707" lon="8.214785872373639"><ele>192.0</ele><time>2026-04-26T11:54:10Z</time></trkpt><trkpt lat="45.468435500559636" lon="8.214661666719355"><ele>192.0</ele><time>2026-04-26T11:54:11Z</time></trkpt><trkpt lat="45.46839632444484" lon="8.214523400041912"><ele>192.0</ele><time>2026-04-26T11:54:12Z</time></trkpt><trkpt lat="45.46834026220737" lon="8.214419740451943"><ele>192.0</ele><time>2026-04-26T11:54:13Z</time></trkpt><trkpt lat="45.46825169785737" lon="8.214351158440383"><ele>192.0</ele><time>2026-04-26T11:54:14Z</time></trkpt><trkpt lat="45.468151284339406" lon="8.214321425402865"><ele>192.0</ele><time>2026-04-26T11:54:15Z</time></trkpt><trkpt lat="45.46805461565704" lon="8.214358862196237"><ele>192.0</ele><time>2026-04-26T11:54:16Z</time></trkpt><trkpt lat="45.46797241541981" lon="8.2144555625573"><ele>192.0</ele><time>2026-04-26T11:54:17Z</time></trkpt><trkpt lat="45.46790988855097" lon="8.214590546284136"><ele>192.0</ele><time>2026-04-26T11:54:18Z</time></trkpt><trkpt lat="45.46784109985428" lon="8.214740111046872"><ele>192.0</ele><time>2026-04-26T11:54:19Z</time></trkpt><trkpt lat="45.467726580575345" lon="8.214859694471311"><ele>192.0</ele><time>2026-04-26T11:54:20Z</time></trkpt><trkpt lat="45.46757620539167" lon="8.214962871185714"><ele>192.0</ele><time>2026-04-26T11:54:21Z</time></trkpt><trkpt lat="45.46740768411477" lon="8.215080548730073"><ele>192.0</ele><time>2026-04-26T11:54:22Z</time></trkpt><trkpt lat="45.46722690037731" lon="8.215224769778327"><ele>192.0</ele><time>2026-04-26T11:54:23Z</time></trkpt><trkpt lat="45.4670338003328" lon="8.215381433276367"><ele>192.0</ele><time>2026-04-26T11:54:24Z</time></trkpt><trkpt lat="45.46684949616297" lon="8.215534226333421"><ele>192.0</ele><time>2026-04-26T11:54:25Z</time></trkpt><trkpt lat="45.4666542067779" lon="8.215689428193894"><ele>192.0</ele><time>2026-04-26T11:54:26Z</time></trkpt><trkpt lat="45.46645202958037" lon="8.21585243723965"><ele>191.0</ele><time>2026-04-26T11:54:27Z</time></trkpt><trkpt lat="45.46624641675942" lon="8.216015277229534"><ele>190.0</ele><time>2026-04-26T11:54:28Z</time></trkpt><trkpt lat="45.466047811975024" lon="8.216174131928575"><ele>190.0</ele><time>2026-04-26T11:54:29Z</time></trkpt><trkpt lat="45.46584469436204" lon="8.216336534457312"><ele>190.0</ele><time>2026-04-26T11:54:30Z</time></trkpt><trkpt lat="45.46563989745451" lon="8.216503674165281"><ele>190.0</ele><time>2026-04-26T11:54:31Z</time></trkpt><trkpt lat="45.465429079419636" lon="8.216674418898807"><ele>190.0</ele><time>2026-04-26T11:54:32Z</time></trkpt><trkpt lat="45.46521610236472" lon="8.216847715937568"><ele>190.0</ele><time>2026-04-26T11:54:33Z</time></trkpt><trkpt lat="45.46500390781464" lon="8.217021757574237"><ele>190.0</ele><time>2026-04-26T11:54:34Z</time></trkpt><trkpt lat="45.464797175639696" lon="8.217189403024802"><ele>189.5</ele><time>2026-04-26T11:54:35Z</time></trkpt><trkpt lat="45.46458834878683" lon="8.217363360785315"><ele>189.0</ele><time>2026-04-26T11:54:36Z</time></trkpt><trkpt lat="45.46438106205262" lon="8.217542168440396"><ele>189.0</ele><time>2026-04-26T11:54:37Z</time></trkpt><trkpt lat="45.46417386758623" lon="8.217722169283263"><ele>189.0</ele><time>2026-04-26T11:54:38Z</time></trkpt><trkpt lat="45.46396322102214" lon="8.217896847016506"><ele>189.0</ele><time>2026-04-26T11:54:39Z</time></trkpt><trkpt lat="45.46374913152552" lon="8.218070231280834"><ele>189.0</ele><time>2026-04-26T11:54:40Z</time></trkpt><trkpt lat="45.46352967473368" lon="8.21823846584156"><ele>189.0</ele><time>2026-04-26T11:54:41Z</time></trkpt><trkpt lat="45.46330755787873" lon="8.218407625722579"><ele>189.0</ele><time>2026-04-26T11:54:42Z</time></trkpt><trkpt lat="45.46308396744532" lon="8.218583582761307"><ele>189.0</ele><time>2026-04-26T11:54:43Z</time></trkpt><trkpt lat="45.462858696686894" lon="8.218766880688802"><ele>189.0</ele><time>2026-04-26T11:54:44Z</time></trkpt><trkpt lat="45.46263126330068" lon="8.21895314928891"><ele>188.5</ele><time>2026-04-26T11:54:45Z</time></trkpt><trkpt lat="45.46240204641798" lon="8.219139616090583"><ele>188.0</ele><time>2026-04-26T11:54:46Z</time></trkpt><trkpt lat="45.462171420642704" lon="8.219325639536217"><ele>188.5</ele><time>2026-04-26T11:54:47Z</time></trkpt><trkpt lat="45.46193905898434" lon="8.21951036573186"><ele>189.0</ele><time>2026-04-26T11:54:48Z</time></trkpt><trkpt lat="45.4617050827175" lon="8.219694535944004"><ele>189.0</ele><time>2026-04-26T11:54:49Z</time></trkpt><trkpt lat="45.461470208583435" lon="8.219880172077419"><ele>189.0</ele><time>2026-04-26T11:54:50Z</time></trkpt><trkpt lat="45.46123470875138" lon="8.220069349729384"><ele>189.0</ele><time>2026-04-26T11:54:51Z</time></trkpt><trkpt lat="45.46099970123909" lon="8.220260026836769"><ele>189.0</ele><time>2026-04-26T11:54:52Z</time></trkpt><trkpt lat="45.46076393028505" lon="8.220452149370011"><ele>189.0</ele><time>2026-04-26T11:54:53Z</time></trkpt><trkpt lat="45.46052902732689" lon="8.220646209072221"><ele>189.0</ele><time>2026-04-26T11:54:54Z</time></trkpt><trkpt lat="45.46029259778375" lon="8.220839626765335"><ele>188.0</ele><time>2026-04-26T11:54:55Z</time></trkpt><trkpt lat="45.46005551559628" lon="8.221031545896263"><ele>187.0</ele><time>2026-04-26T11:54:56Z</time></trkpt><trkpt lat="45.459817194716095" lon="8.221222888627018"><ele>186.5</ele><time>2026-04-26T11:54:57Z</time></trkpt><trkpt lat="45.45957803080163" lon="8.221412404272881"><ele>186.0</ele><time>2026-04-26T11:54:58Z</time></trkpt><trkpt lat="45.459341014361534" lon="8.221602387356509"><ele>185.5</ele><time>2026-04-26T11:54:59Z</time></trkpt><trkpt lat="45.45910699012077" lon="8.221793270897402"><ele>185.0</ele><time>2026-04-26T11:55:00Z</time></trkpt><trkpt lat="45.45887457383337" lon="8.221986780591182"><ele>185.0</ele><time>2026-04-26T11:55:01Z</time></trkpt><trkpt lat="45.45864416699328" lon="8.222177724128075"><ele>185.0</ele><time>2026-04-26T11:55:02Z</time></trkpt><trkpt lat="45.458414192301916" lon="8.222367737282983"><ele>185.5</ele><time>2026-04-26T11:55:03Z</time></trkpt><trkpt lat="45.458185131314266" lon="8.22255546036946"><ele>186.0</ele><time>2026-04-26T11:55:04Z</time></trkpt><trkpt lat="45.45795642522712" lon="8.222741803153044"><ele>186.5</ele><time>2026-04-26T11:55:05Z</time></trkpt><trkpt lat="45.457727299268626" lon="8.222925873057147"><ele>187.0</ele><time>2026-04-26T11:55:06Z</time></trkpt><trkpt lat="45.457500192222334" lon="8.223107485325356"><ele>187.0</ele><time>2026-04-26T11:55:07Z</time></trkpt><trkpt lat="45.45727845184391" lon="8.223286141722264"><ele>187.0</ele><time>2026-04-26T11:55:08Z</time></trkpt><trkpt lat="45.457060934016646" lon="8.223461212595423"><ele>186.5</ele><time>2026-04-26T11:55:09Z</time></trkpt><trkpt lat="45.4568425528301" lon="8.223636131218848"><ele>186.0</ele><time>2026-04-26T11:55:10Z</time></trkpt><trkpt lat="45.45662358526286" lon="8.223811660242882"><ele>185.5</ele><time>2026-04-26T11:55:11Z</time></trkpt><trkpt lat="45.45640254379431" lon="8.223989363976385"><ele>185.0</ele><time>2026-04-26T11:55:12Z</time></trkpt><trkpt lat="45.45618161323763" lon="8.224169405992114"><ele>184.5</ele><time>2026-04-26T11:55:13Z</time></trkpt><trkpt lat="45.45595714919027" lon="8.224354596056108"><ele>184.0</ele><time>2026-04-26T11:55:14Z</time></trkpt><trkpt lat="45.4557314476799" lon="8.224539107748347"><ele>184.0</ele><time>2026-04-26T11:55:15Z</time></trkpt><trkpt lat="45.45550309506011" lon="8.224725394242897"><ele>184.0</ele><time>2026-04-26T11:55:16Z</time></trkpt><trkpt lat="45.4552737072421" lon="8.224914756330834"><ele>184.0</ele><time>2026-04-26T11:55:17Z</time></trkpt><trkpt lat="45.4550432802713" lon="8.22510641983042"><ele>184.0</ele><time>2026-04-26T11:55:18Z</time></trkpt><trkpt lat="45.45481050834773" lon="8.225297085218003"><ele>184.0</ele><time>2026-04-26T11:55:19Z</time></trkpt><trkpt lat="45.454575479732185" lon="8.225489556883435"><ele>184.0</ele><time>2026-04-26T11:55:20Z</time></trkpt><trkpt lat="45.454338298613955" lon="8.225681774256847"><ele>183.5</ele><time>2026-04-26T11:55:21Z</time></trkpt><trkpt lat="45.454105238830344" lon="8.225875116457694"><ele>183.0</ele><time>2026-04-26T11:55:22Z</time></trkpt><trkpt lat="45.45387468281311" lon="8.22606365081825"><ele>183.0</ele><time>2026-04-26T11:55:23Z</time></trkpt><trkpt lat="45.453645777838624" lon="8.226249457771985"><ele>183.0</ele><time>2026-04-26T11:55:24Z</time></trkpt><trkpt lat="45.45341737609061" lon="8.226429771810436"><ele>183.0</ele><time>2026-04-26T11:55:25Z</time></trkpt><trkpt lat="45.45319124757712" lon="8.226611554202659"><ele>183.0</ele><time>2026-04-26T11:55:26Z</time></trkpt><trkpt lat="45.452968470442364" lon="8.22679409897017"><ele>183.5</ele><time>2026-04-26T11:55:27Z</time></trkpt><trkpt lat="45.45274808507295" lon="8.226977512316143"><ele>184.0</ele><time>2026-04-26T11:55:28Z</time></trkpt><trkpt lat="45.452528283223835" lon="8.227158461196094"><ele>183.5</ele><time>2026-04-26T11:55:29Z</time></trkpt><trkpt lat="45.45231026247751" lon="8.227339787582487"><ele>183.0</ele><time>2026-04-26T11:55:30Z</time></trkpt><trkpt lat="45.45209188770637" lon="8.227521882576383"><ele>183.0</ele><time>2026-04-26T11:55:31Z</time></trkpt><trkpt lat="45.45187266529093" lon="8.22769781378388"><ele>183.0</ele><time>2026-04-26T11:55:32Z</time></trkpt><trkpt lat="45.45165222224542" lon="8.227869864564921"><ele>183.0</ele><time>2026-04-26T11:55:33Z</time></trkpt><trkpt lat="45.45143155072075" lon="8.2280401553643"><ele>183.0</ele><time>2026-04-26T11:55:34Z</time></trkpt><trkpt lat="45.45121165746146" lon="8.228216008065594"><ele>183.0</ele><time>2026-04-26T11:55:35Z</time></trkpt><trkpt lat="45.45099437621812" lon="8.228399781928063"><ele>183.0</ele><time>2026-04-26T11:55:36Z</time></trkpt><trkpt lat="45.45077718327311" lon="8.228585771979354"><ele>183.0</ele><time>2026-04-26T11:55:37Z</time></trkpt><trkpt lat="45.45056067097267" lon="8.228770675868649"><ele>183.0</ele><time>2026-04-26T11:55:38Z</time></trkpt><trkpt lat="45.45034092338542" lon="8.22895099733692"><ele>182.5</ele><time>2026-04-26T11:55:39Z</time></trkpt><trkpt lat="45.45011823771896" lon="8.229125736105685"><ele>182.0</ele><time>2026-04-26T11:55:40Z</time></trkpt><trkpt lat="45.44989507034081" lon="8.22929997581354"><ele>182.0</ele><time>2026-04-26T11:55:41Z</time></trkpt><trkpt lat="45.44967650804074" lon="8.229472153135655"><ele>182.0</ele><time>2026-04-26T11:55:42Z</time></trkpt><trkpt lat="45.44946392296062" lon="8.22964413444719"><ele>182.0</ele><time>2026-04-26T11:55:43Z</time></trkpt><trkpt lat="45.449256131931946" lon="8.229823299078117"><ele>182.0</ele><time>2026-04-26T11:55:44Z</time></trkpt><trkpt lat="45.44904774485394" lon="8.230003164678422"><ele>182.0</ele><time>2026-04-26T11:55:45Z</time></trkpt><trkpt lat="45.448838990997125" lon="8.230182169515075"><ele>182.0</ele><time>2026-04-26T11:55:46Z</time></trkpt><trkpt lat="45.448622465012804" lon="8.23033378553127"><ele>181.5</ele><time>2026-04-26T11:55:47Z</time></trkpt><trkpt lat="45.44841403484409" lon="8.230493549895783"><ele>181.0</ele><time>2026-04-26T11:55:48Z</time></trkpt><trkpt lat="45.448213160216014" lon="8.2306616738786"><ele>181.0</ele><time>2026-04-26T11:55:49Z</time></trkpt><trkpt lat="45.44801564707358" lon="8.230831450677202"><ele>181.0</ele><time>2026-04-26T11:55:50Z</time></trkpt><trkpt lat="45.44781687672002" lon="8.230998028444871"><ele>181.0</ele><time>2026-04-26T11:55:51Z</time></trkpt><trkpt lat="45.447619609545846" lon="8.231155612157853"><ele>181.0</ele><time>2026-04-26T11:55:52Z</time></trkpt><trkpt lat="45.44743461082427" lon="8.231296258212817"><ele>181.0</ele><time>2026-04-26T11:55:53Z</time></trkpt><trkpt lat="45.44726399062606" lon="8.231425061546199"><ele>181.0</ele><time>2026-04-26T11:55:54Z</time></trkpt><trkpt lat="45.44710345360083" lon="8.23154916643435"><ele>181.0</ele><time>2026-04-26T11:55:55Z</time></trkpt><trkpt lat="45.44695408136572" lon="8.231668463974424"><ele>181.0</ele><time>2026-04-26T11:55:56Z</time></trkpt><trkpt lat="45.44681715476269" lon="8.231782336234287"><ele>181.0</ele><time>2026-04-26T11:55:57Z</time></trkpt><trkpt lat="45.44669584181161" lon="8.231884305091796"><ele>181.0</ele><time>2026-04-26T11:55:58Z</time></trkpt><trkpt lat="45.44658180311428" lon="8.231967973512353"><ele>181.0</ele><time>2026-04-26T11:55:59Z</time></trkpt><trkpt lat="45.44647552807898" lon="8.232020721818063"><ele>181.0</ele><time>2026-04-26T11:56:00Z</time></trkpt><trkpt lat="45.4463677260114" lon="8.232047181444758"><ele>181.25</ele><time>2026-04-26T11:56:01Z</time></trkpt><trkpt lat="45.446262746784456" lon="8.232091411753737"><ele>181.5</ele><time>2026-04-26T11:56:02Z</time></trkpt><trkpt lat="45.446170570683016" lon="8.232197880040742"><ele>181.75</ele><time>2026-04-26T11:56:03Z</time></trkpt><trkpt lat="45.44608039845548" lon="8.23233537421951"><ele>182.0</ele><time>2026-04-26T11:56:04Z</time></trkpt><trkpt lat="45.44595533845736" lon="8.232461155017054"><ele>182.33333333333331</ele><time>2026-04-26T11:56:05Z</time></trkpt><trkpt lat="45.44581219733857" lon="8.232569903957181"><ele>182.66666666666666</ele><time>2026-04-26T11:56:06Z</time></trkpt><trkpt lat="45.44566534182766" lon="8.23268747817281"><ele>183.0</ele><time>2026-04-26T11:56:07Z</time></trkpt><trkpt lat="45.445507165585475" lon="8.232820412946563"><ele>183.0</ele><time>2026-04-26T11:56:08Z</time></trkpt><trkpt lat="45.44533999855651" lon="8.232958308525204"><ele>183.0</ele><time>2026-04-26T11:56:09Z</time></trkpt><trkpt lat="45.445163354819925" lon="8.233100668891735"><ele>183.0</ele><time>2026-04-26T11:56:10Z</time></trkpt><trkpt lat="45.44499031404567" lon="8.23324423877634"><ele>183.0</ele><time>2026-04-26T11:56:11Z</time></trkpt><trkpt lat="45.44481344948556" lon="8.233391162291701"><ele>183.0</ele><time>2026-04-26T11:56:12Z</time></trkpt><trkpt lat="45.44463694175617" lon="8.233539311470276"><ele>183.0</ele><time>2026-04-26T11:56:13Z</time></trkpt><trkpt lat="45.44445687219818" lon="8.233678625962503"><ele>183.0</ele><time>2026-04-26T11:56:14Z</time></trkpt><trkpt lat="45.44426963128979" lon="8.233824019633087"><ele>183.0</ele><time>2026-04-26T11:56:15Z</time></trkpt><trkpt lat="45.44408784027449" lon="8.233968357693744"><ele>183.0</ele><time>2026-04-26T11:56:16Z</time></trkpt><trkpt lat="45.44390126297328" lon="8.234118863395286"><ele>182.0</ele><time>2026-04-26T11:56:17Z</time></trkpt><trkpt lat="45.44371262348494" lon="8.234274274621962"><ele>181.0</ele><time>2026-04-26T11:56:18Z</time></trkpt><trkpt lat="45.443522083956424" lon="8.23443332553262"><ele>180.0</ele><time>2026-04-26T11:56:19Z</time></trkpt><trkpt lat="45.4433262078067" lon="8.234592612113435"><ele>180.0</ele><time>2026-04-26T11:56:20Z</time></trkpt><trkpt lat="45.44312456064787" lon="8.234751780916833"><ele>180.0</ele><time>2026-04-26T11:56:21Z</time></trkpt><trkpt lat="45.442919496232655" lon="8.234911891656706"><ele>180.0</ele><time>2026-04-26T11:56:22Z</time></trkpt><trkpt lat="45.44271826503249" lon="8.235070124236895"><ele>180.0</ele><time>2026-04-26T11:56:23Z</time></trkpt><trkpt lat="45.44251819774459" lon="8.235234070375848"><ele>180.0</ele><time>2026-04-26T11:56:24Z</time></trkpt><trkpt lat="45.442316938885426" lon="8.235404869557367"><ele>180.0</ele><time>2026-04-26T11:56:25Z</time></trkpt><trkpt lat="45.44211635434693" lon="8.235584010906685"><ele>180.0</ele><time>2026-04-26T11:56:26Z</time></trkpt><trkpt lat="45.44192072683483" lon="8.235784536086252"><ele>180.0</ele><time>2026-04-26T11:56:27Z</time></trkpt><trkpt lat="45.44173597288967" lon="8.236007935529697"><ele>180.0</ele><time>2026-04-26T11:56:28Z</time></trkpt><trkpt lat="45.44156140169405" lon="8.236254238501358"><ele>180.0</ele><time>2026-04-26T11:56:29Z</time></trkpt><trkpt lat="45.44139693219265" lon="8.236517890361089"><ele>180.5</ele><time>2026-04-26T11:56:30Z</time></trkpt><trkpt lat="45.44124371041594" lon="8.236796427176087"><ele>181.0</ele><time>2026-04-26T11:56:31Z</time></trkpt><trkpt lat="45.44110186602398" lon="8.23709103851196"><ele>180.5</ele><time>2026-04-26T11:56:32Z</time></trkpt><trkpt lat="45.44097176246184" lon="8.23740313787843"><ele>180.0</ele><time>2026-04-26T11:56:33Z</time></trkpt><trkpt lat="45.44085796807524" lon="8.237728183952278"><ele>180.0</ele><time>2026-04-26T11:56:34Z</time></trkpt><trkpt lat="45.44076024459905" lon="8.23806660672759"><ele>180.0</ele><time>2026-04-26T11:56:35Z</time></trkpt><trkpt lat="45.440673035216854" lon="8.238413353663242"><ele>180.0</ele><time>2026-04-26T11:56:36Z</time></trkpt><trkpt lat="45.44059338979419" lon="8.238766402531168"><ele>180.0</ele><time>2026-04-26T11:56:37Z</time></trkpt><trkpt lat="45.4405128537133" lon="8.23912162597539"><ele>179.5</ele><time>2026-04-26T11:56:38Z</time></trkpt><trkpt lat="45.4404283956646" lon="8.239479580818736"><ele>179.0</ele><time>2026-04-26T11:56:39Z</time></trkpt><trkpt lat="45.44034007170463" lon="8.239839602531909"><ele>179.0</ele><time>2026-04-26T11:56:40Z</time></trkpt><trkpt lat="45.4402531310007" lon="8.240199106706372"><ele>179.0</ele><time>2026-04-26T11:56:41Z</time></trkpt><trkpt lat="45.440168005215654" lon="8.24056474566571"><ele>179.0</ele><time>2026-04-26T11:56:42Z</time></trkpt><trkpt lat="45.44008192450756" lon="8.240927176533564"><ele>179.0</ele><time>2026-04-26T11:56:43Z</time></trkpt><trkpt lat="45.43999712685739" lon="8.24129162233541"><ele>179.0</ele><time>2026-04-26T11:56:44Z</time></trkpt><trkpt lat="45.43991133864841" lon="8.241655198939782"><ele>179.0</ele><time>2026-04-26T11:56:45Z</time></trkpt><trkpt lat="45.439824888562136" lon="8.24201982565211"><ele>180.0</ele><time>2026-04-26T11:56:46Z</time></trkpt><trkpt lat="45.439745281596636" lon="8.242377912745244"><ele>181.0</ele><time>2026-04-26T11:56:47Z</time></trkpt><trkpt lat="45.43966115648715" lon="8.242740266113081"><ele>179.5</ele><time>2026-04-26T11:56:48Z</time></trkpt><trkpt lat="45.43957265859796" lon="8.243104526062949"><ele>178.0</ele><time>2026-04-26T11:56:49Z</time></trkpt><trkpt lat="45.439485714180826" lon="8.243467583811842"><ele>177.5</ele><time>2026-04-26T11:56:50Z</time></trkpt><trkpt lat="45.43939768085628" lon="8.243805829447684"><ele>177.0</ele><time>2026-04-26T11:56:51Z</time></trkpt><trkpt lat="45.43930858021006" lon="8.244159946418655"><ele>177.0</ele><time>2026-04-26T11:56:52Z</time></trkpt><trkpt lat="45.43923666264938" lon="8.244555402804318"><ele>177.0</ele><time>2026-04-26T11:56:53Z</time></trkpt><trkpt lat="45.4391461690411" lon="8.244947896672857"><ele>177.0</ele><time>2026-04-26T11:56:54Z</time></trkpt><trkpt lat="45.439059492876986" lon="8.245329234018545"><ele>177.0</ele><time>2026-04-26T11:56:55Z</time></trkpt><trkpt lat="45.43897300012392" lon="8.245710420143798"><ele>176.0</ele><time>2026-04-26T11:56:56Z</time></trkpt><trkpt lat="45.43889604895645" lon="8.246086654991759"><ele>175.0</ele><time>2026-04-26T11:56:57Z</time></trkpt><trkpt lat="45.43881886737666" lon="8.24646621986087"><ele>175.0</ele><time>2026-04-26T11:56:58Z</time></trkpt><trkpt lat="45.43873855510567" lon="8.246840018294609"><ele>175.0</ele><time>2026-04-26T11:56:59Z</time></trkpt><trkpt lat="45.43865904287376" lon="8.247211581524791"><ele>174.0</ele><time>2026-04-26T11:57:00Z</time></trkpt><trkpt lat="45.4385696308255" lon="8.247583106470927"><ele>173.0</ele><time>2026-04-26T11:57:01Z</time></trkpt><trkpt lat="45.4384743629361" lon="8.247948300650087"><ele>173.0</ele><time>2026-04-26T11:57:02Z</time></trkpt><trkpt lat="45.43837574695711" lon="8.24831196439684"><ele>173.0</ele><time>2026-04-26T11:57:03Z</time></trkpt><trkpt lat="45.4382800660689" lon="8.248675838845624"><ele>173.5</ele><time>2026-04-26T11:57:04Z</time></trkpt><trkpt lat="45.438191890437956" lon="8.249043877784162"><ele>174.0</ele><time>2026-04-26T11:57:05Z</time></trkpt><trkpt lat="45.438115042378506" lon="8.249416968079526"><ele>174.0</ele><time>2026-04-26T11:57:06Z</time></trkpt><trkpt lat="45.43804204450185" lon="8.249790931964881"><ele>174.0</ele><time>2026-04-26T11:57:07Z</time></trkpt><trkpt lat="45.43796665417129" lon="8.250161062864343"><ele>174.0</ele><time>2026-04-26T11:57:08Z</time></trkpt><trkpt lat="45.43788900831963" lon="8.250524567851082"><ele>174.0</ele><time>2026-04-26T11:57:09Z</time></trkpt><trkpt lat="45.43780537029585" lon="8.250886792423453"><ele>174.0</ele><time>2026-04-26T11:57:10Z</time></trkpt><trkpt lat="45.437713467881096" lon="8.251244522710598"><ele>174.0</ele><time>2026-04-26T11:57:11Z</time></trkpt><trkpt lat="45.43761634730568" lon="8.251599530559636"><ele>173.0</ele><time>2026-04-26T11:57:12Z</time></trkpt><trkpt lat="45.43752233894397" lon="8.251956437860644"><ele>172.0</ele><time>2026-04-26T11:57:13Z</time></trkpt><trkpt lat="45.43743100525174" lon="8.252315022534809"><ele>172.0</ele><time>2026-04-26T11:57:14Z</time></trkpt><trkpt lat="45.43734740143239" lon="8.252675576540566"><ele>172.0</ele><time>2026-04-26T11:57:15Z</time></trkpt><trkpt lat="45.43726492909111" lon="8.253038895224934"><ele>172.0</ele><time>2026-04-26T11:57:16Z</time></trkpt><trkpt lat="45.43718292824906" lon="8.25340593261987"><ele>172.0</ele><time>2026-04-26T11:57:17Z</time></trkpt><trkpt lat="45.43709796530044" lon="8.253773635216735"><ele>172.5</ele><time>2026-04-26T11:57:18Z</time></trkpt><trkpt lat="45.43701456575906" lon="8.254141582606646"><ele>173.0</ele><time>2026-04-26T11:57:19Z</time></trkpt><trkpt lat="45.436928176927886" lon="8.25450640048038"><ele>173.0</ele><time>2026-04-26T11:57:20Z</time></trkpt><trkpt lat="45.43684307149208" lon="8.254870140848665"><ele>173.0</ele><time>2026-04-26T11:57:21Z</time></trkpt><trkpt lat="45.436756514190634" lon="8.25523207415102"><ele>173.0</ele><time>2026-04-26T11:57:22Z</time></trkpt><trkpt lat="45.43667260986563" lon="8.255592518327902"><ele>173.0</ele><time>2026-04-26T11:57:23Z</time></trkpt><trkpt lat="45.43659149805707" lon="8.25594610967704"><ele>173.0</ele><time>2026-04-26T11:57:24Z</time></trkpt><trkpt lat="45.43651560870735" lon="8.256295343238653"><ele>173.0</ele><time>2026-04-26T11:57:25Z</time></trkpt><trkpt lat="45.43644570632706" lon="8.256627157624486"><ele>173.0</ele><time>2026-04-26T11:57:26Z</time></trkpt><trkpt lat="45.43637749315515" lon="8.256937075318246"><ele>173.0</ele><time>2026-04-26T11:57:27Z</time></trkpt><trkpt lat="45.43631180081613" lon="8.2572302353124"><ele>173.0</ele><time>2026-04-26T11:57:28Z</time></trkpt><trkpt lat="45.43625003092202" lon="8.25752347016564"><ele>172.66666666666666</ele><time>2026-04-26T11:57:29Z</time></trkpt><trkpt lat="45.43618614369373" lon="8.257810997845082"><ele>172.33333333333334</ele><time>2026-04-26T11:57:30Z</time></trkpt><trkpt lat="45.436125332301664" lon="8.258091793396805"><ele>172.0</ele><time>2026-04-26T11:57:31Z</time></trkpt><trkpt lat="45.43606584662637" lon="8.258370735579323"><ele>172.0</ele><time>2026-04-26T11:57:32Z</time></trkpt><trkpt lat="45.436008376546624" lon="8.258638548716435"><ele>172.0</ele><time>2026-04-26T11:57:33Z</time></trkpt><trkpt lat="45.435954629616646" lon="8.258887744885614"><ele>172.0</ele><time>2026-04-26T11:57:34Z</time></trkpt><trkpt lat="45.43590578947121" lon="8.259123179781449"><ele>172.0</ele><time>2026-04-26T11:57:35Z</time></trkpt><trkpt lat="45.43586422522918" lon="8.259310151446797"><ele>172.0</ele><time>2026-04-26T11:57:36Z</time></trkpt><trkpt lat="45.43583072705429" lon="8.259474603891123"><ele>172.0</ele><time>2026-04-26T11:57:37Z</time></trkpt><trkpt lat="45.43580509458447" lon="8.259620605012088"><ele>172.0</ele><time>2026-04-26T11:57:38Z</time></trkpt><trkpt lat="45.43578339085512" lon="8.25973237617479"><ele>172.0</ele><time>2026-04-26T11:57:39Z</time></trkpt><trkpt lat="45.4357539902163" lon="8.25981794980166"><ele>172.33333333333334</ele><time>2026-04-26T11:57:40Z</time></trkpt><trkpt lat="45.43555560389517" lon="8.25978832186325"><ele>172.66666666666666</ele><time>2026-04-26T11:57:43Z</time></trkpt><trkpt lat="45.43545351177091" lon="8.259729416556205"><ele>173.0</ele><time>2026-04-26T11:57:44Z</time></trkpt><trkpt lat="45.43531812014928" lon="8.259660386100627"><ele>173.0</ele><time>2026-04-26T11:57:45Z</time></trkpt><trkpt lat="45.435147676193054" lon="8.259574978485873"><ele>173.0</ele><time>2026-04-26T11:57:46Z</time></trkpt><trkpt lat="45.43498513663159" lon="8.259492651265749"><ele>173.0</ele><time>2026-04-26T11:57:47Z</time></trkpt><trkpt lat="45.43480975853108" lon="8.259403179983426"><ele>172.0</ele><time>2026-04-26T11:57:48Z</time></trkpt><trkpt lat="45.43461416041409" lon="8.259305527551605"><ele>171.0</ele><time>2026-04-26T11:57:49Z</time></trkpt><trkpt lat="45.43441009328284" lon="8.259207305863972"><ele>170.0</ele><time>2026-04-26T11:57:50Z</time></trkpt><trkpt lat="45.43419935371383" lon="8.25910301108335"><ele>170.0</ele><time>2026-04-26T11:57:51Z</time></trkpt><trkpt lat="45.43398426339867" lon="8.258994984973432"><ele>170.0</ele><time>2026-04-26T11:57:52Z</time></trkpt><trkpt lat="45.43376122109287" lon="8.258883273711685"><ele>171.0</ele><time>2026-04-26T11:57:53Z</time></trkpt><trkpt lat="45.43353026686344" lon="8.258770191513841"><ele>172.0</ele><time>2026-04-26T11:57:54Z</time></trkpt><trkpt lat="45.43328676407603" lon="8.25864746317282"><ele>172.0</ele><time>2026-04-26T11:57:55Z</time></trkpt><trkpt lat="45.43304221179436" lon="8.258525211145939"><ele>172.0</ele><time>2026-04-26T11:57:56Z</time></trkpt><trkpt lat="45.43279741485114" lon="8.258405133639476"><ele>172.0</ele><time>2026-04-26T11:57:57Z</time></trkpt><trkpt lat="45.432535031352735" lon="8.258275784371724"><ele>172.0</ele><time>2026-04-26T11:57:58Z</time></trkpt><trkpt lat="45.43230553450085" lon="8.258170670956266"><ele>172.5</ele><time>2026-04-26T11:57:59Z</time></trkpt><trkpt lat="45.432057903044345" lon="8.258046183380646"><ele>173.0</ele><time>2026-04-26T11:58:00Z</time></trkpt><trkpt lat="45.43179721443114" lon="8.25791697450641"><ele>173.0</ele><time>2026-04-26T11:58:01Z</time></trkpt><trkpt lat="45.43152801858168" lon="8.25778272097334"><ele>173.0</ele><time>2026-04-26T11:58:02Z</time></trkpt><trkpt lat="45.43127048685598" lon="8.257654912104341"><ele>173.5</ele><time>2026-04-26T11:58:03.001Z</time></trkpt><trkpt lat="45.431011386079554" lon="8.257531173317131"><ele>174.0</ele><time>2026-04-26T11:58:04.001Z</time></trkpt><trkpt lat="45.43075402221366" lon="8.25740444485084"><ele>174.0</ele><time>2026-04-26T11:58:05.001Z</time></trkpt><trkpt lat="45.43049437475481" lon="8.257275552766007"><ele>174.0</ele><time>2026-04-26T11:58:06.001Z</time></trkpt><trkpt lat="45.43023243065789" lon="8.257145420976698"><ele>174.0</ele><time>2026-04-26T11:58:07.001Z</time></trkpt><trkpt lat="45.42997125986141" lon="8.257008798714836"><ele>174.0</ele><time>2026-04-26T11:58:08.001Z</time></trkpt><trkpt lat="45.42970722349101" lon="8.256879386163314"><ele>173.0</ele><time>2026-04-26T11:58:09.001Z</time></trkpt><trkpt lat="45.42943981639844" lon="8.256751688235322"><ele>172.0</ele><time>2026-04-26T11:58:10.001Z</time></trkpt><trkpt lat="45.4291703054264" lon="8.256621513973542"><ele>172.0</ele><time>2026-04-26T11:58:11.001Z</time></trkpt><trkpt lat="45.42889304377488" lon="8.256488210178503"><ele>172.0</ele><time>2026-04-26T11:58:12.001Z</time></trkpt><trkpt lat="45.42861879995553" lon="8.256352504743594"><ele>173.0</ele><time>2026-04-26T11:58:13.001Z</time></trkpt><trkpt lat="45.4283445958051" lon="8.256216845005529"><ele>174.0</ele><time>2026-04-26T11:58:14.001Z</time></trkpt><trkpt lat="45.428069227220824" lon="8.256081341952553"><ele>173.5</ele><time>2026-04-26T11:58:15.001Z</time></trkpt><trkpt lat="45.42779231884656" lon="8.255945791889603"><ele>173.0</ele><time>2026-04-26T11:58:16Z</time></trkpt><trkpt lat="45.42751535077769" lon="8.255811071501094"><ele>173.0</ele><time>2026-04-26T11:58:17Z</time></trkpt><trkpt lat="45.427242424233214" lon="8.255680623494317"><ele>173.0</ele><time>2026-04-26T11:58:18Z</time></trkpt><trkpt lat="45.426983662809015" lon="8.255552834277648"><ele>173.5</ele><time>2026-04-26T11:58:19Z</time></trkpt><trkpt lat="45.4267240222145" lon="8.255426079217061"><ele>174.0</ele><time>2026-04-26T11:58:20Z</time></trkpt><trkpt lat="45.42646693559841" lon="8.255299818371993"><ele>173.5</ele><time>2026-04-26T11:58:21Z</time></trkpt><trkpt lat="45.426211468369615" lon="8.255173633333142"><ele>173.0</ele><time>2026-04-26T11:58:22Z</time></trkpt><trkpt lat="45.425955709639865" lon="8.25504656108748"><ele>173.0</ele><time>2026-04-26T11:58:23Z</time></trkpt><trkpt lat="45.42569940863836" lon="8.254918516782473"><ele>173.0</ele><time>2026-04-26T11:58:24Z</time></trkpt><trkpt lat="45.42544293097003" lon="8.254793721506546"><ele>173.5</ele><time>2026-04-26T11:58:25Z</time></trkpt><trkpt lat="45.4251841228726" lon="8.254671393764635"><ele>174.0</ele><time>2026-04-26T11:58:26Z</time></trkpt><trkpt lat="45.42492308454002" lon="8.254547113439207"><ele>174.0</ele><time>2026-04-26T11:58:27Z</time></trkpt><trkpt lat="45.42466110528265" lon="8.254420269613087"><ele>174.0</ele><time>2026-04-26T11:58:28Z</time></trkpt><trkpt lat="45.42439669906688" lon="8.254290442465122"><ele>174.0</ele><time>2026-04-26T11:58:29Z</time></trkpt><trkpt lat="45.424131238377925" lon="8.254161921556367"><ele>174.0</ele><time>2026-04-26T11:58:30Z</time></trkpt><trkpt lat="45.42386416296092" lon="8.254030773033184"><ele>172.5</ele><time>2026-04-26T11:58:31Z</time></trkpt><trkpt lat="45.4235919860631" lon="8.253899190451014"><ele>171.0</ele><time>2026-04-26T11:58:32Z</time></trkpt><trkpt lat="45.42331837134215" lon="8.253766552665569"><ele>171.0</ele><time>2026-04-26T11:58:33Z</time></trkpt><trkpt lat="45.42304324435108" lon="8.25363272578145"><ele>171.0</ele><time>2026-04-26T11:58:34Z</time></trkpt><trkpt lat="45.422768393016305" lon="8.25349667927519"><ele>172.0</ele><time>2026-04-26T11:58:35Z</time></trkpt><trkpt lat="45.42249397506347" lon="8.253360034055303"><ele>173.0</ele><time>2026-04-26T11:58:36Z</time></trkpt><trkpt lat="45.42221961320998" lon="8.253220217963666"><ele>173.0</ele><time>2026-04-26T11:58:37Z</time></trkpt><trkpt lat="45.42194731702859" lon="8.253080827207455"><ele>173.0</ele><time>2026-04-26T11:58:38Z</time></trkpt><trkpt lat="45.42167828013686" lon="8.252941586765749"><ele>173.0</ele><time>2026-04-26T11:58:39Z</time></trkpt><trkpt lat="45.42140832017905" lon="8.252803689259421"><ele>173.0</ele><time>2026-04-26T11:58:40Z</time></trkpt><trkpt lat="45.42114361349092" lon="8.252665752491263"><ele>173.0</ele><time>2026-04-26T11:58:41Z</time></trkpt><trkpt lat="45.42087662640951" lon="8.252525848617587"><ele>173.0</ele><time>2026-04-26T11:58:42Z</time></trkpt><trkpt lat="45.420607152369925" lon="8.252384876547186"><ele>173.0</ele><time>2026-04-26T11:58:43Z</time></trkpt><trkpt lat="45.42034113583395" lon="8.252245224864325"><ele>173.0</ele><time>2026-04-26T11:58:44Z</time></trkpt><trkpt lat="45.42007291088806" lon="8.252105224890089"><ele>173.0</ele><time>2026-04-26T11:58:45Z</time></trkpt><trkpt lat="45.41980269346341" lon="8.251968803116142"><ele>173.0</ele><time>2026-04-26T11:58:46Z</time></trkpt><trkpt lat="45.41953720934787" lon="8.251835119254263"><ele>172.5</ele><time>2026-04-26T11:58:47Z</time></trkpt><trkpt lat="45.419273415228126" lon="8.25170332962367"><ele>172.0</ele><time>2026-04-26T11:58:48Z</time></trkpt><trkpt lat="45.419011251195194" lon="8.251573386637093"><ele>172.5</ele><time>2026-04-26T11:58:49Z</time></trkpt><trkpt lat="45.41874912146953" lon="8.25144457640662"><ele>173.0</ele><time>2026-04-26T11:58:50Z</time></trkpt><trkpt lat="45.41848653799371" lon="8.25131584372798"><ele>173.0</ele><time>2026-04-26T11:58:51Z</time></trkpt><trkpt lat="45.41822401676343" lon="8.251187969461302"><ele>173.0</ele><time>2026-04-26T11:58:52Z</time></trkpt><trkpt lat="45.417960575244614" lon="8.251059755714463"><ele>172.5</ele><time>2026-04-26T11:58:53Z</time></trkpt><trkpt lat="45.41769636705703" lon="8.25093230182801"><ele>172.0</ele><time>2026-04-26T11:58:54Z</time></trkpt><trkpt lat="45.417430620891196" lon="8.250802942847645"><ele>172.0</ele><time>2026-04-26T11:58:55Z</time></trkpt><trkpt lat="45.4171671899673" lon="8.250669678838447"><ele>172.0</ele><time>2026-04-26T11:58:56Z</time></trkpt><trkpt lat="45.41690143599654" lon="8.250534788845822"><ele>171.5</ele><time>2026-04-26T11:58:57Z</time></trkpt><trkpt lat="45.416638911696886" lon="8.25040842342886"><ele>171.0</ele><time>2026-04-26T11:58:58Z</time></trkpt><trkpt lat="45.41637413147711" lon="8.250278489137532"><ele>171.0</ele><time>2026-04-26T11:58:59Z</time></trkpt><trkpt lat="45.416109119325846" lon="8.250149304806108"><ele>171.0</ele><time>2026-04-26T11:59:00Z</time></trkpt><trkpt lat="45.41584372326105" lon="8.250021022851138"><ele>171.0</ele><time>2026-04-26T11:59:01Z</time></trkpt><trkpt lat="45.415580080823204" lon="8.249889131373871"><ele>171.0</ele><time>2026-04-26T11:59:02Z</time></trkpt><trkpt lat="45.41531707176093" lon="8.249759436393878"><ele>170.5</ele><time>2026-04-26T11:59:03Z</time></trkpt><trkpt lat="45.41504986230433" lon="8.249626292056993"><ele>170.0</ele><time>2026-04-26T11:59:04Z</time></trkpt><trkpt lat="45.414789879007834" lon="8.249495759900393"><ele>169.5</ele><time>2026-04-26T11:59:05Z</time></trkpt><trkpt lat="45.41452987291513" lon="8.24936680209647"><ele>169.0</ele><time>2026-04-26T11:59:06Z</time></trkpt><trkpt lat="45.414270104841485" lon="8.249238946858117"><ele>169.0</ele><time>2026-04-26T11:59:07Z</time></trkpt><trkpt lat="45.414008698171514" lon="8.249109226459437"><ele>169.0</ele><time>2026-04-26T11:59:08Z</time></trkpt><trkpt lat="45.41374716620357" lon="8.248978136020849"><ele>169.5</ele><time>2026-04-26T11:59:09Z</time></trkpt><trkpt lat="45.41348435245961" lon="8.24884521616122"><ele>170.0</ele><time>2026-04-26T11:59:10Z</time></trkpt><trkpt lat="45.413222115931326" lon="8.248711654733254"><ele>170.5</ele><time>2026-04-26T11:59:11Z</time></trkpt><trkpt lat="45.41295900689805" lon="8.24857844368919"><ele>171.0</ele><time>2026-04-26T11:59:12Z</time></trkpt><trkpt lat="45.41269599427549" lon="8.248446316102903"><ele>171.0</ele><time>2026-04-26T11:59:13Z</time></trkpt><trkpt lat="45.41243144488548" lon="8.24831504608022"><ele>171.0</ele><time>2026-04-26T11:59:14Z</time></trkpt><trkpt lat="45.41216746285735" lon="8.248185140259878"><ele>170.5</ele><time>2026-04-26T11:59:15Z</time></trkpt><trkpt lat="45.41190377479913" lon="8.248054631413531"><ele>170.0</ele><time>2026-04-26T11:59:16Z</time></trkpt><trkpt lat="45.41164013034714" lon="8.247922161147484"><ele>170.0</ele><time>2026-04-26T11:59:17Z</time></trkpt><trkpt lat="45.41137740776146" lon="8.247789513559628"><ele>170.0</ele><time>2026-04-26T11:59:18Z</time></trkpt><trkpt lat="45.41111345631448" lon="8.247659062418364"><ele>170.5</ele><time>2026-04-26T11:59:19Z</time></trkpt><trkpt lat="45.410850414319796" lon="8.247529054995036"><ele>171.0</ele><time>2026-04-26T11:59:20Z</time></trkpt><trkpt lat="45.410587851230744" lon="8.247398608012174"><ele>170.5</ele><time>2026-04-26T11:59:21Z</time></trkpt><trkpt lat="45.41032693912537" lon="8.247267800247222"><ele>170.0</ele><time>2026-04-26T11:59:22Z</time></trkpt><trkpt lat="45.4100799962524" lon="8.247142785925407"><ele>170.0</ele><time>2026-04-26T11:59:23Z</time></trkpt><trkpt lat="45.40984480600567" lon="8.247026364951003"><ele>170.0</ele><time>2026-04-26T11:59:24Z</time></trkpt><trkpt lat="45.409613163210246" lon="8.24691367673235"><ele>170.0</ele><time>2026-04-26T11:59:25Z</time></trkpt><trkpt lat="45.40938859570968" lon="8.246803567422065"><ele>170.0</ele><time>2026-04-26T11:59:26Z</time></trkpt><trkpt lat="45.40917259484052" lon="8.246698540846014"><ele>170.0</ele><time>2026-04-26T11:59:27Z</time></trkpt><trkpt lat="45.40895985774334" lon="8.246588391399625"><ele>170.0</ele><time>2026-04-26T11:59:28Z</time></trkpt><trkpt lat="45.40874510505847" lon="8.246483347894097"><ele>170.5</ele><time>2026-04-26T11:59:29Z</time></trkpt><trkpt lat="45.40852660465023" lon="8.246377217460575"><ele>171.0</ele><time>2026-04-26T11:59:30Z</time></trkpt><trkpt lat="45.408303884078144" lon="8.246263603298495"><ele>171.0</ele><time>2026-04-26T11:59:31Z</time></trkpt><trkpt lat="45.40808060179082" lon="8.246144753560275"><ele>171.0</ele><time>2026-04-26T11:59:32Z</time></trkpt><trkpt lat="45.40785386277708" lon="8.246031273845656"><ele>168.5</ele><time>2026-04-26T11:59:33Z</time></trkpt><trkpt lat="45.4076240263094" lon="8.245931731457988"><ele>166.0</ele><time>2026-04-26T11:59:34Z</time></trkpt><trkpt lat="45.407386547660224" lon="8.24584576595785"><ele>165.5</ele><time>2026-04-26T11:59:35Z</time></trkpt><trkpt lat="45.407143853413594" lon="8.245775135748389"><ele>165.0</ele><time>2026-04-26T11:59:36Z</time></trkpt><trkpt lat="45.40690205345369" lon="8.245709969750445"><ele>165.0</ele><time>2026-04-26T11:59:37Z</time></trkpt><trkpt lat="45.40666795586324" lon="8.245651875089473"><ele>165.0</ele><time>2026-04-26T11:59:38Z</time></trkpt><trkpt lat="45.40644303752312" lon="8.245595923321739"><ele>165.66666666666666</ele><time>2026-04-26T11:59:39Z</time></trkpt><trkpt lat="45.406225828016126" lon="8.245539141942285"><ele>166.33333333333331</ele><time>2026-04-26T11:59:40Z</time></trkpt><trkpt lat="45.406019028087925" lon="8.24548300049927"><ele>167.0</ele><time>2026-04-26T11:59:41Z</time></trkpt><trkpt lat="45.40582253689546" lon="8.245428602656256"><ele>167.0</ele><time>2026-04-26T11:59:42Z</time></trkpt><trkpt lat="45.405635965827294" lon="8.245378635761686"><ele>167.0</ele><time>2026-04-26T11:59:43Z</time></trkpt><trkpt lat="45.40545599007161" lon="8.24533816013374"><ele>167.0</ele><time>2026-04-26T11:59:44Z</time></trkpt><trkpt lat="45.40528261954145" lon="8.245329176855273"><ele>167.66666666666666</ele><time>2026-04-26T11:59:45Z</time></trkpt><trkpt lat="45.40510452750632" lon="8.245368065300907"><ele>168.33333333333334</ele><time>2026-04-26T11:59:46Z</time></trkpt><trkpt lat="45.40493156301925" lon="8.245445463854407"><ele>169.0</ele><time>2026-04-26T11:59:47.001Z</time></trkpt><trkpt lat="45.404759220976835" lon="8.245534245438835"><ele>169.0</ele><time>2026-04-26T11:59:48.001Z</time></trkpt><trkpt lat="45.40458226454572" lon="8.2456057140302"><ele>169.0</ele><time>2026-04-26T11:59:49.001Z</time></trkpt><trkpt lat="45.40440335083551" lon="8.245656752125603"><ele>169.0</ele><time>2026-04-26T11:59:50.001Z</time></trkpt><trkpt lat="45.404224856480276" lon="8.245692912621632"><ele>169.25</ele><time>2026-04-26T11:59:51.001Z</time></trkpt><trkpt lat="45.40406361421412" lon="8.245711109147068"><ele>169.5</ele><time>2026-04-26T11:59:52.001Z</time></trkpt><trkpt lat="45.40392560029867" lon="8.245710827098009"><ele>169.75</ele><time>2026-04-26T11:59:53.001Z</time></trkpt><trkpt lat="45.40379963513492" lon="8.24568756211463"><ele>170.0</ele><time>2026-04-26T11:59:54.001Z</time></trkpt><trkpt lat="45.40367911748619" lon="8.245631469808444"><ele>169.66666666666666</ele><time>2026-04-26T11:59:55.001Z</time></trkpt><trkpt lat="45.40356181646734" lon="8.245532282391707"><ele>169.33333333333334</ele><time>2026-04-26T11:59:56.001Z</time></trkpt><trkpt lat="45.403437237712" lon="8.24540804678324"><ele>169.0</ele><time>2026-04-26T11:59:57.001Z</time></trkpt><trkpt lat="45.40330320869468" lon="8.245264566034432"><ele>169.0</ele><time>2026-04-26T11:59:58.001Z</time></trkpt><trkpt lat="45.40315875902854" lon="8.245109707363797"><ele>169.0</ele><time>2026-04-26T11:59:59.001Z</time></trkpt><trkpt lat="45.403006732194456" lon="8.244949963107569"><ele>169.0</ele><time>2026-04-26T12:00:00.001Z</time></trkpt><trkpt lat="45.402849315103765" lon="8.244789540703884"><ele>169.33333333333334</ele><time>2026-04-26T12:00:01.001Z</time></trkpt><trkpt lat="45.402702647251466" lon="8.244641933979729"><ele>169.66666666666666</ele><time>2026-04-26T12:00:02.001Z</time></trkpt><trkpt lat="45.402564772398875" lon="8.244499188427236"><ele>170.0</ele><time>2026-04-26T12:00:03.001Z</time></trkpt><trkpt lat="45.40243774562565" lon="8.244362199345638"><ele>170.0</ele><time>2026-04-26T12:00:04.001Z</time></trkpt><trkpt lat="45.4023150346477" lon="8.244243294162635"><ele>170.0</ele><time>2026-04-26T12:00:05.001Z</time></trkpt><trkpt lat="45.40218056843142" lon="8.244160917987191"><ele>170.0</ele><time>2026-04-26T12:00:06.001Z</time></trkpt><trkpt lat="45.40201995685148" lon="8.244113021545404"><ele>170.33333333333331</ele><time>2026-04-26T12:00:07.001Z</time></trkpt><trkpt lat="45.40184184791305" lon="8.244108408573355"><ele>170.66666666666666</ele><time>2026-04-26T12:00:08.001Z</time></trkpt><trkpt lat="45.40165111628368" lon="8.244141282849133"><ele>171.0</ele><time>2026-04-26T12:00:09.001Z</time></trkpt><trkpt lat="45.40145306754327" lon="8.244184724132133"><ele>170.33333333333334</ele><time>2026-04-26T12:00:10.001Z</time></trkpt><trkpt lat="45.40125967568773" lon="8.244202234500444"><ele>169.66666666666669</ele><time>2026-04-26T12:00:11.001Z</time></trkpt><trkpt lat="45.40105193076955" lon="8.244188443441628"><ele>169.0</ele><time>2026-04-26T12:00:12.001Z</time></trkpt><trkpt lat="45.40084639268973" lon="8.244148140528013"><ele>169.0</ele><time>2026-04-26T12:00:13.001Z</time></trkpt><trkpt lat="45.40063015532744" lon="8.244092910737693"><ele>169.0</ele><time>2026-04-26T12:00:14.001Z</time></trkpt><trkpt lat="45.400402437182166" lon="8.24403448629141"><ele>168.0</ele><time>2026-04-26T12:00:15.001Z</time></trkpt><trkpt lat="45.400162733813595" lon="8.2439760062117"><ele>167.0</ele><time>2026-04-26T12:00:16.001Z</time></trkpt><trkpt lat="45.399933141292586" lon="8.243916974989455"><ele>166.5</ele><time>2026-04-26T12:00:17.001Z</time></trkpt><trkpt lat="45.39970002400093" lon="8.243859612221653"><ele>166.0</ele><time>2026-04-26T12:00:18.001Z</time></trkpt><trkpt lat="45.39945389454687" lon="8.243797416743204"><ele>166.0</ele><time>2026-04-26T12:00:19.001Z</time></trkpt><trkpt lat="45.39919918480332" lon="8.24372981890976"><ele>166.0</ele><time>2026-04-26T12:00:20.001Z</time></trkpt><trkpt lat="45.398941624984744" lon="8.243660098436965"><ele>166.0</ele><time>2026-04-26T12:00:21.001Z</time></trkpt><trkpt lat="45.398682424922754" lon="8.243588786615502"><ele>166.0</ele><time>2026-04-26T12:00:22Z</time></trkpt><trkpt lat="45.39842408559178" lon="8.243518978504639"><ele>166.0</ele><time>2026-04-26T12:00:23Z</time></trkpt><trkpt lat="45.398170264458244" lon="8.243453228984716"><ele>166.0</ele><time>2026-04-26T12:00:24Z</time></trkpt><trkpt lat="45.397919005243914" lon="8.243388931607821"><ele>166.0</ele><time>2026-04-26T12:00:25Z</time></trkpt><trkpt lat="45.39767048924903" lon="8.243327493382038"><ele>166.0</ele><time>2026-04-26T12:00:26Z</time></trkpt><trkpt lat="45.39742419357498" lon="8.243265861619475"><ele>166.0</ele><time>2026-04-26T12:00:27Z</time></trkpt><trkpt lat="45.39717964486451" lon="8.243202302340425"><ele>166.0</ele><time>2026-04-26T12:00:28Z</time></trkpt><trkpt lat="45.39693684820688" lon="8.243134401428087"><ele>165.5</ele><time>2026-04-26T12:00:29Z</time></trkpt><trkpt lat="45.39669499944255" lon="8.243060956546984"><ele>165.0</ele><time>2026-04-26T12:00:30Z</time></trkpt><trkpt lat="45.39645292605543" lon="8.242988380826475"><ele>165.5</ele><time>2026-04-26T12:00:31Z</time></trkpt><trkpt lat="45.396212764574244" lon="8.242917561713655"><ele>166.0</ele><time>2026-04-26T12:00:32Z</time></trkpt><trkpt lat="45.39597487048064" lon="8.2428501578136"><ele>166.0</ele><time>2026-04-26T12:00:33Z</time></trkpt><trkpt lat="45.39574031449864" lon="8.242782037412868"><ele>166.0</ele><time>2026-04-26T12:00:34Z</time></trkpt><trkpt lat="45.395508551176285" lon="8.242716023173346"><ele>166.0</ele><time>2026-04-26T12:00:35Z</time></trkpt><trkpt lat="45.39528234770759" lon="8.242649959005796"><ele>166.0</ele><time>2026-04-26T12:00:36Z</time></trkpt><trkpt lat="45.39506557695895" lon="8.242588818996367"><ele>166.0</ele><time>2026-04-26T12:00:37Z</time></trkpt><trkpt lat="45.39485663970059" lon="8.242529732815203"><ele>166.0</ele><time>2026-04-26T12:00:38Z</time></trkpt><trkpt lat="45.39465645318602" lon="8.242473946029762"><ele>166.0</ele><time>2026-04-26T12:00:39Z</time></trkpt><trkpt lat="45.39445760119116" lon="8.242419914549126"><ele>165.66666666666669</ele><time>2026-04-26T12:00:40Z</time></trkpt><trkpt lat="45.39426336713605" lon="8.242362234917486"><ele>165.33333333333334</ele><time>2026-04-26T12:00:41Z</time></trkpt><trkpt lat="45.39407290269744" lon="8.242298515101464"><ele>165.0</ele><time>2026-04-26T12:00:42Z</time></trkpt><trkpt lat="45.39387669397963" lon="8.242218536664536"><ele>165.33333333333334</ele><time>2026-04-26T12:00:43Z</time></trkpt><trkpt lat="45.393678198159115" lon="8.242121590367994"><ele>165.66666666666669</ele><time>2026-04-26T12:00:44Z</time></trkpt><trkpt lat="45.393479118354485" lon="8.242004990077154"><ele>166.0</ele><time>2026-04-26T12:00:45Z</time></trkpt><trkpt lat="45.39327702453489" lon="8.24187269039685"><ele>166.0</ele><time>2026-04-26T12:00:46Z</time></trkpt><trkpt lat="45.39307233876769" lon="8.241731646127961"><ele>166.0</ele><time>2026-04-26T12:00:47Z</time></trkpt><trkpt lat="45.39286607802821" lon="8.24159523252331"><ele>167.0</ele><time>2026-04-26T12:00:48Z</time></trkpt><trkpt lat="45.392657286260935" lon="8.241460995311515"><ele>168.0</ele><time>2026-04-26T12:00:49Z</time></trkpt><trkpt lat="45.39244818786131" lon="8.241324054680971"><ele>168.0</ele><time>2026-04-26T12:00:50Z</time></trkpt><trkpt lat="45.3922435497207" lon="8.24118846658275"><ele>168.0</ele><time>2026-04-26T12:00:51Z</time></trkpt><trkpt lat="45.392042818715204" lon="8.241055319521472"><ele>168.0</ele><time>2026-04-26T12:00:52Z</time></trkpt><trkpt lat="45.39184544893364" lon="8.24092705666655"><ele>167.66666666666666</ele><time>2026-04-26T12:00:53Z</time></trkpt><trkpt lat="45.39166935315355" lon="8.240809777671824"><ele>167.33333333333331</ele><time>2026-04-26T12:00:54Z</time></trkpt><trkpt lat="45.39152695605261" lon="8.240712944959078"><ele>167.0</ele><time>2026-04-26T12:00:55Z</time></trkpt><trkpt lat="45.391404629194874" lon="8.240632006665349"><ele>166.2</ele><time>2026-04-26T12:00:56Z</time></trkpt><trkpt lat="45.39130020114946" lon="8.240559487441285"><ele>165.39999999999998</ele><time>2026-04-26T12:00:57Z</time></trkpt><trkpt lat="45.39121712868601" lon="8.240501556835067"><ele>164.60000000000002</ele><time>2026-04-26T12:00:58Z</time></trkpt><trkpt lat="45.391144087541704" lon="8.24047032420559"><ele>163.8</ele><time>2026-04-26T12:00:59Z</time></trkpt><trkpt lat="45.39105664880631" lon="8.240432733542926"><ele>163.0</ele><time>2026-04-26T12:01:01Z</time></trkpt><trkpt lat="45.3909849733719" lon="8.24062329986697"><ele>163.25</ele><time>2026-04-26T12:01:02Z</time></trkpt><trkpt lat="45.3909426603628" lon="8.24074314974619"><ele>163.5</ele><time>2026-04-26T12:01:03Z</time></trkpt><trkpt lat="45.39088322993981" lon="8.240886478747472"><ele>163.75</ele><time>2026-04-26T12:01:04Z</time></trkpt><trkpt lat="45.39081232908768" lon="8.241054903737659"><ele>164.0</ele><time>2026-04-26T12:01:05Z</time></trkpt><trkpt lat="45.39073476898151" lon="8.241235179520137"><ele>164.0</ele><time>2026-04-26T12:01:06Z</time></trkpt><trkpt lat="45.39065975077202" lon="8.241412467159156"><ele>164.0</ele><time>2026-04-26T12:01:07Z</time></trkpt><trkpt lat="45.39058041374423" lon="8.241600021278074"><ele>164.0</ele><time>2026-04-26T12:01:08Z</time></trkpt><trkpt lat="45.39049672697469" lon="8.241794483392416"><ele>164.33333333333331</ele><time>2026-04-26T12:01:09Z</time></trkpt><trkpt lat="45.39040785134681" lon="8.241993209463347"><ele>164.66666666666666</ele><time>2026-04-26T12:01:10Z</time></trkpt><trkpt lat="45.39031717148886" lon="8.242200819989247"><ele>165.0</ele><time>2026-04-26T12:01:11Z</time></trkpt><trkpt lat="45.390223410376265" lon="8.242405152700504"><ele>165.0</ele><time>2026-04-26T12:01:12Z</time></trkpt><trkpt lat="45.39012589488281" lon="8.2425943936582"><ele>165.0</ele><time>2026-04-26T12:01:13Z</time></trkpt><trkpt lat="45.39003375608923" lon="8.242768375922614"><ele>165.0</ele><time>2026-04-26T12:01:14Z</time></trkpt><trkpt lat="45.38995215463416" lon="8.242924958486975"><ele>165.0</ele><time>2026-04-26T12:01:15Z</time></trkpt><trkpt lat="45.389876704650305" lon="8.243064984253364"><ele>165.0</ele><time>2026-04-26T12:01:16Z</time></trkpt><trkpt lat="45.38980612632254" lon="8.243194420216012"><ele>165.0</ele><time>2026-04-26T12:01:17Z</time></trkpt><trkpt lat="45.38974831106537" lon="8.243315368903184"><ele>165.0</ele><time>2026-04-26T12:01:18Z</time></trkpt><trkpt lat="45.38970935332868" lon="8.243438900343456"><ele>165.0</ele><time>2026-04-26T12:01:19Z</time></trkpt><trkpt lat="45.389691557936466" lon="8.243578208515348"><ele>165.0</ele><time>2026-04-26T12:01:20Z</time></trkpt><trkpt lat="45.38967286071206" lon="8.243712199528348"><ele>165.0</ele><time>2026-04-26T12:01:21Z</time></trkpt><trkpt lat="45.38966441166742" lon="8.243820966283145"><ele>165.0</ele><time>2026-04-26T12:01:22Z</time></trkpt><trkpt lat="45.38966712373398" lon="8.24392016397296"><ele>165.0</ele><time>2026-04-26T12:01:23Z</time></trkpt><trkpt lat="45.389622800087025" lon="8.244007627048559"><ele>165.0</ele><time>2026-04-26T12:01:24Z</time></trkpt><trkpt lat="45.389547310341854" lon="8.244065022099003"><ele>165.0</ele><time>2026-04-26T12:01:25Z</time></trkpt><trkpt lat="45.389454236646046" lon="8.244070794376183"><ele>165.0</ele><time>2026-04-26T12:01:26Z</time></trkpt><trkpt lat="45.389352896343524" lon="8.244041396869465"><ele>165.0</ele><time>2026-04-26T12:01:27Z</time></trkpt><trkpt lat="45.38924088478525" lon="8.244004940213124"><ele>165.0</ele><time>2026-04-26T12:01:28Z</time></trkpt><trkpt lat="45.389122431217885" lon="8.243963895925203"><ele>165.0</ele><time>2026-04-26T12:01:29Z</time></trkpt><trkpt lat="45.38899606508018" lon="8.243912319142213"><ele>165.0</ele><time>2026-04-26T12:01:30Z</time></trkpt><trkpt lat="45.38886151766326" lon="8.243862509764654"><ele>165.0</ele><time>2026-04-26T12:01:31Z</time></trkpt><trkpt lat="45.388716790314554" lon="8.243829002582462"><ele>165.0</ele><time>2026-04-26T12:01:32Z</time></trkpt><trkpt lat="45.38856210038619" lon="8.24381603431353"><ele>165.0</ele><time>2026-04-26T12:01:33Z</time></trkpt><trkpt lat="45.38840219941525" lon="8.243820239457035"><ele>164.66666666666666</ele><time>2026-04-26T12:01:34Z</time></trkpt><trkpt lat="45.388241623198596" lon="8.243852855050685"><ele>164.33333333333331</ele><time>2026-04-26T12:01:35Z</time></trkpt><trkpt lat="45.38808156985801" lon="8.243901615970326"><ele>164.0</ele><time>2026-04-26T12:01:36Z</time></trkpt><trkpt lat="45.38791802995415" lon="8.243945965800439"><ele>164.0</ele><time>2026-04-26T12:01:37Z</time></trkpt><trkpt lat="45.38775328700602" lon="8.243982924409119"><ele>164.0</ele><time>2026-04-26T12:01:38Z</time></trkpt><trkpt lat="45.38758437095456" lon="8.244017081410462"><ele>164.0</ele><time>2026-04-26T12:01:39Z</time></trkpt><trkpt lat="45.387411692003994" lon="8.244055134416426"><ele>164.0</ele><time>2026-04-26T12:01:40Z</time></trkpt><trkpt lat="45.38723803597684" lon="8.244094712553911"><ele>164.0</ele><time>2026-04-26T12:01:41Z</time></trkpt><trkpt lat="45.387064230648996" lon="8.244136379115801"><ele>164.0</ele><time>2026-04-26T12:01:42Z</time></trkpt><trkpt lat="45.38689386763568" lon="8.244181557636429"><ele>164.0</ele><time>2026-04-26T12:01:43Z</time></trkpt><trkpt lat="45.38672830288216" lon="8.24422450409728"><ele>164.0</ele><time>2026-04-26T12:01:44Z</time></trkpt><trkpt lat="45.38656678261989" lon="8.244264030143869"><ele>164.0</ele><time>2026-04-26T12:01:45Z</time></trkpt><trkpt lat="45.386409228331836" lon="8.244301811720495"><ele>164.0</ele><time>2026-04-26T12:01:46Z</time></trkpt><trkpt lat="45.3862543476265" lon="8.244341486025665"><ele>164.0</ele><time>2026-04-26T12:01:47Z</time></trkpt><trkpt lat="45.38610138175768" lon="8.244378925233457"><ele>164.0</ele><time>2026-04-26T12:01:48Z</time></trkpt><trkpt lat="45.38595124034626" lon="8.244413265184397"><ele>164.0</ele><time>2026-04-26T12:01:49Z</time></trkpt><trkpt lat="45.3858000684379" lon="8.24445040677716"><ele>164.0</ele><time>2026-04-26T12:01:50Z</time></trkpt><trkpt lat="45.38564315121299" lon="8.244490193361827"><ele>164.0</ele><time>2026-04-26T12:01:51Z</time></trkpt><trkpt lat="45.38548363667952" lon="8.24452304946141"><ele>164.0</ele><time>2026-04-26T12:01:52Z</time></trkpt><trkpt lat="45.38532161019264" lon="8.244540966060997"><ele>164.0</ele><time>2026-04-26T12:01:53Z</time></trkpt><trkpt lat="45.38515653488623" lon="8.244554219282323"><ele>164.0</ele><time>2026-04-26T12:01:54Z</time></trkpt><trkpt lat="45.38499013374208" lon="8.244568273143276"><ele>164.0</ele><time>2026-04-26T12:01:55Z</time></trkpt><trkpt lat="45.384830362224605" lon="8.244587368420504"><ele>164.0</ele><time>2026-04-26T12:01:56Z</time></trkpt><trkpt lat="45.38467339417886" lon="8.24461306203807"><ele>164.0</ele><time>2026-04-26T12:01:57Z</time></trkpt><trkpt lat="45.384520972522836" lon="8.24463707344682"><ele>163.75</ele><time>2026-04-26T12:01:58Z</time></trkpt><trkpt lat="45.3843725606357" lon="8.244656618589463"><ele>163.5</ele><time>2026-04-26T12:01:59Z</time></trkpt><trkpt lat="45.38422662327475" lon="8.244678189053175"><ele>163.25</ele><time>2026-04-26T12:02:00Z</time></trkpt><trkpt lat="45.38407736411042" lon="8.2447015298876"><ele>163.0</ele><time>2026-04-26T12:02:01Z</time></trkpt><trkpt lat="45.38392136631444" lon="8.244726751620536"><ele>163.0</ele><time>2026-04-26T12:02:02Z</time></trkpt><trkpt lat="45.383762525402545" lon="8.244763488589758"><ele>163.0</ele><time>2026-04-26T12:02:03Z</time></trkpt><trkpt lat="45.383609482133636" lon="8.244816393855077"><ele>163.0</ele><time>2026-04-26T12:02:04Z</time></trkpt><trkpt lat="45.38347298640827" lon="8.244875518972313"><ele>162.75</ele><time>2026-04-26T12:02:05Z</time></trkpt><trkpt lat="45.38334446459183" lon="8.244921160183242"><ele>162.5</ele><time>2026-04-26T12:02:06Z</time></trkpt><trkpt lat="45.38320520440361" lon="8.24493363345785"><ele>162.25</ele><time>2026-04-26T12:02:07Z</time></trkpt><trkpt lat="45.383050625226666" lon="8.24491191888117"><ele>162.0</ele><time>2026-04-26T12:02:08Z</time></trkpt><trkpt lat="45.382888757663515" lon="8.244860095817486"><ele>162.0</ele><time>2026-04-26T12:02:09Z</time></trkpt><trkpt lat="45.3827181348855" lon="8.244800048372603"><ele>162.0</ele><time>2026-04-26T12:02:10Z</time></trkpt><trkpt lat="45.3825352290141" lon="8.244743421673997"><ele>162.0</ele><time>2026-04-26T12:02:11.001Z</time></trkpt><trkpt lat="45.38235192835185" lon="8.24468952222733"><ele>162.66666666666666</ele><time>2026-04-26T12:02:12.001Z</time></trkpt><trkpt lat="45.382169127266145" lon="8.244633619398002"><ele>163.33333333333331</ele><time>2026-04-26T12:02:13.001Z</time></trkpt><trkpt lat="45.38197939088921" lon="8.244570810628705"><ele>164.0</ele><time>2026-04-26T12:02:14.001Z</time></trkpt><trkpt lat="45.38178850189617" lon="8.24451250123593"><ele>164.0</ele><time>2026-04-26T12:02:15.001Z</time></trkpt><trkpt lat="45.38159847992057" lon="8.244456926567409"><ele>164.0</ele><time>2026-04-26T12:02:16.001Z</time></trkpt><trkpt lat="45.381412423130406" lon="8.24440244821557"><ele>164.0</ele><time>2026-04-26T12:02:17.001Z</time></trkpt><trkpt lat="45.38124546695031" lon="8.244356984510901"><ele>164.25</ele><time>2026-04-26T12:02:18.001Z</time></trkpt><trkpt lat="45.38109998772314" lon="8.24432171739341"><ele>164.5</ele><time>2026-04-26T12:02:19.001Z</time></trkpt><trkpt lat="45.380962687773994" lon="8.24429942718949"><ele>164.75</ele><time>2026-04-26T12:02:20.001Z</time></trkpt><trkpt lat="45.380826534117375" lon="8.2442899240103"><ele>165.0</ele><time>2026-04-26T12:02:21.001Z</time></trkpt><trkpt lat="45.38068313035968" lon="8.244296274151152"><ele>165.0</ele><time>2026-04-26T12:02:22.001Z</time></trkpt><trkpt lat="45.380532811302665" lon="8.244330667037167"><ele>165.0</ele><time>2026-04-26T12:02:23.001Z</time></trkpt><trkpt lat="45.38037609503326" lon="8.244367294796962"><ele>165.0</ele><time>2026-04-26T12:02:24.001Z</time></trkpt><trkpt lat="45.38020885492514" lon="8.244378584016223"><ele>164.66666666666666</ele><time>2026-04-26T12:02:25.001Z</time></trkpt><trkpt lat="45.38003669109801" lon="8.2443537817393"><ele>164.33333333333331</ele><time>2026-04-26T12:02:26.001Z</time></trkpt><trkpt lat="45.37985678878152" lon="8.244308240832082"><ele>164.0</ele><time>2026-04-26T12:02:27.001Z</time></trkpt><trkpt lat="45.379670223747745" lon="8.244258515811698"><ele>164.0</ele><time>2026-04-26T12:02:28.001Z</time></trkpt><trkpt lat="45.379477012965936" lon="8.244202260475385"><ele>164.0</ele><time>2026-04-26T12:02:29.001Z</time></trkpt><trkpt lat="45.379276842119005" lon="8.24413504328706"><ele>164.0</ele><time>2026-04-26T12:02:30.001Z</time></trkpt><trkpt lat="45.379071021384256" lon="8.24406281784855"><ele>164.0</ele><time>2026-04-26T12:02:31.001Z</time></trkpt><trkpt lat="45.37885747122146" lon="8.243992261488204"><ele>164.0</ele><time>2026-04-26T12:02:32.001Z</time></trkpt><trkpt lat="45.378650891182126" lon="8.243925342403623"><ele>164.0</ele><time>2026-04-26T12:02:33Z</time></trkpt><trkpt lat="45.378438900867735" lon="8.243857558997414"><ele>163.5</ele><time>2026-04-26T12:02:34Z</time></trkpt><trkpt lat="45.378221233498785" lon="8.243785641026019"><ele>163.0</ele><time>2026-04-26T12:02:35Z</time></trkpt><trkpt lat="45.37799949026234" lon="8.243710084305345"><ele>163.0</ele><time>2026-04-26T12:02:36Z</time></trkpt><trkpt lat="45.377776883107174" lon="8.243632417381551"><ele>163.0</ele><time>2026-04-26T12:02:37Z</time></trkpt><trkpt lat="45.3775511840813" lon="8.243555090021836"><ele>163.0</ele><time>2026-04-26T12:02:38Z</time></trkpt><trkpt lat="45.37732305945805" lon="8.24347651941032"><ele>163.0</ele><time>2026-04-26T12:02:39Z</time></trkpt><trkpt lat="45.37709338283666" lon="8.243396592623059"><ele>163.5</ele><time>2026-04-26T12:02:40Z</time></trkpt><trkpt lat="45.3768625780235" lon="8.24331832878159"><ele>164.0</ele><time>2026-04-26T12:02:41Z</time></trkpt><trkpt lat="45.37663243826014" lon="8.243240909602646"><ele>164.0</ele><time>2026-04-26T12:02:42Z</time></trkpt><trkpt lat="45.37640240886393" lon="8.243163527990674"><ele>164.0</ele><time>2026-04-26T12:02:43Z</time></trkpt><trkpt lat="45.37617304242632" lon="8.243086616812047"><ele>164.0</ele><time>2026-04-26T12:02:44Z</time></trkpt><trkpt lat="45.37594467532762" lon="8.243006327334193"><ele>164.0</ele><time>2026-04-26T12:02:45Z</time></trkpt><trkpt lat="45.37571742538995" lon="8.2429226367551"><ele>163.0</ele><time>2026-04-26T12:02:46Z</time></trkpt><trkpt lat="45.375491836494774" lon="8.24283949971207"><ele>162.0</ele><time>2026-04-26T12:02:47Z</time></trkpt><trkpt lat="45.37527060122111" lon="8.24275978196552"><ele>162.0</ele><time>2026-04-26T12:02:48Z</time></trkpt><trkpt lat="45.37505785507509" lon="8.242684877764283"><ele>162.0</ele><time>2026-04-26T12:02:49Z</time></trkpt><trkpt lat="45.37485087586416" lon="8.242614068393625"><ele>162.0</ele><time>2026-04-26T12:02:50Z</time></trkpt><trkpt lat="45.37464824708273" lon="8.242541000035999"><ele>162.33333333333334</ele><time>2026-04-26T12:02:51Z</time></trkpt><trkpt lat="45.37444754792512" lon="8.242465017464697"><ele>162.66666666666669</ele><time>2026-04-26T12:02:52Z</time></trkpt><trkpt lat="45.37424829372348" lon="8.24238882737012"><ele>163.0</ele><time>2026-04-26T12:02:53Z</time></trkpt><trkpt lat="45.374048616302915" lon="8.242312228445234"><ele>163.33333333333334</ele><time>2026-04-26T12:02:54Z</time></trkpt><trkpt lat="45.37384870187084" lon="8.242235303455098"><ele>163.66666666666666</ele><time>2026-04-26T12:02:55Z</time></trkpt><trkpt lat="45.37364715944467" lon="8.242162552672756"><ele>164.0</ele><time>2026-04-26T12:02:56Z</time></trkpt><trkpt lat="45.37344267778181" lon="8.242092821225265"><ele>164.0</ele><time>2026-04-26T12:02:57Z</time></trkpt><trkpt lat="45.373235525761864" lon="8.242020596594822"><ele>164.0</ele><time>2026-04-26T12:02:58Z</time></trkpt><trkpt lat="45.37302640468653" lon="8.24194934940144"><ele>164.0</ele><time>2026-04-26T12:02:59Z</time></trkpt><trkpt lat="45.372816470661355" lon="8.241877679607356"><ele>164.33333333333331</ele><time>2026-04-26T12:03:00Z</time></trkpt><trkpt lat="45.37260605471911" lon="8.24180632060142"><ele>164.66666666666666</ele><time>2026-04-26T12:03:01Z</time></trkpt><trkpt lat="45.37239848935646" lon="8.241734354580515"><ele>165.0</ele><time>2026-04-26T12:03:02Z</time></trkpt><trkpt lat="45.372194713762134" lon="8.241662414627033"><ele>165.0</ele><time>2026-04-26T12:03:03Z</time></trkpt><trkpt lat="45.37199483282228" lon="8.241590876989623"><ele>165.0</ele><time>2026-04-26T12:03:04Z</time></trkpt><trkpt lat="45.37179482611599" lon="8.241518499262966"><ele>165.0</ele><time>2026-04-26T12:03:05Z</time></trkpt><trkpt lat="45.371596437906874" lon="8.241446363870564"><ele>165.0</ele><time>2026-04-26T12:03:06Z</time></trkpt><trkpt lat="45.37139934829959" lon="8.24137643767823"><ele>165.0</ele><time>2026-04-26T12:03:07Z</time></trkpt><trkpt lat="45.37120270413546" lon="8.241307305307068"><ele>165.0</ele><time>2026-04-26T12:03:08Z</time></trkpt><trkpt lat="45.371007364096926" lon="8.24123629531411"><ele>165.0</ele><time>2026-04-26T12:03:09Z</time></trkpt><trkpt lat="45.37081262739193" lon="8.241166613811876"><ele>165.0</ele><time>2026-04-26T12:03:10Z</time></trkpt><trkpt lat="45.37061856370762" lon="8.241099336499932"><ele>165.0</ele><time>2026-04-26T12:03:11Z</time></trkpt><trkpt lat="45.37043122214606" lon="8.24103522192568"><ele>165.0</ele><time>2026-04-26T12:03:12Z</time></trkpt><trkpt lat="45.37025470437046" lon="8.240975450808811"><ele>165.0</ele><time>2026-04-26T12:03:13Z</time></trkpt><trkpt lat="45.37008722947288" lon="8.240925128340567"><ele>165.0</ele><time>2026-04-26T12:03:14Z</time></trkpt><trkpt lat="45.369921085307645" lon="8.240888372104164"><ele>165.0</ele><time>2026-04-26T12:03:15Z</time></trkpt><trkpt lat="45.36974675094102" lon="8.240877583107405"><ele>165.0</ele><time>2026-04-26T12:03:16Z</time></trkpt><trkpt lat="45.369563983608955" lon="8.240892573123277"><ele>165.0</ele><time>2026-04-26T12:03:17Z</time></trkpt><trkpt lat="45.369376087174366" lon="8.240922586324533"><ele>164.33333333333334</ele><time>2026-04-26T12:03:18Z</time></trkpt><trkpt lat="45.36918529343884" lon="8.240955332901219"><ele>163.66666666666669</ele><time>2026-04-26T12:03:19Z</time></trkpt><trkpt lat="45.36899352529204" lon="8.240982687705708"><ele>163.0</ele><time>2026-04-26T12:03:20Z</time></trkpt><trkpt lat="45.36880366315965" lon="8.241007989320078"><ele>163.0</ele><time>2026-04-26T12:03:21Z</time></trkpt><trkpt lat="45.368615383988136" lon="8.241032261837647"><ele>163.0</ele><time>2026-04-26T12:03:22Z</time></trkpt><trkpt lat="45.36842970586151" lon="8.241060719301599"><ele>163.0</ele><time>2026-04-26T12:03:23Z</time></trkpt><trkpt lat="45.36824648281036" lon="8.241096243841337"><ele>163.0</ele><time>2026-04-26T12:03:24Z</time></trkpt><trkpt lat="45.3680650083087" lon="8.241143916078599"><ele>163.0</ele><time>2026-04-26T12:03:25Z</time></trkpt><trkpt lat="45.36788704390523" lon="8.241200840791358"><ele>163.0</ele><time>2026-04-26T12:03:26Z</time></trkpt><trkpt lat="45.36771204439123" lon="8.24126732767009"><ele>162.66666666666669</ele><time>2026-04-26T12:03:27Z</time></trkpt><trkpt lat="45.367539567442655" lon="8.241333378224116"><ele>162.33333333333334</ele><time>2026-04-26T12:03:28Z</time></trkpt><trkpt lat="45.36736902328637" lon="8.241396457225234"><ele>162.0</ele><time>2026-04-26T12:03:29Z</time></trkpt><trkpt lat="45.367198244827655" lon="8.241455749198789"><ele>162.0</ele><time>2026-04-26T12:03:30Z</time></trkpt><trkpt lat="45.367029028167885" lon="8.241519675757756"><ele>162.0</ele><time>2026-04-26T12:03:31Z</time></trkpt><trkpt lat="45.36685936629007" lon="8.2415841901796"><ele>162.0</ele><time>2026-04-26T12:03:32Z</time></trkpt><trkpt lat="45.36668773513799" lon="8.241642498788147"><ele>162.0</ele><time>2026-04-26T12:03:33Z</time></trkpt><trkpt lat="45.36651391375204" lon="8.241703034568983"><ele>162.0</ele><time>2026-04-26T12:03:34Z</time></trkpt><trkpt lat="45.36633516707918" lon="8.241766046670715"><ele>162.0</ele><time>2026-04-26T12:03:35Z</time></trkpt><trkpt lat="45.366154152494" lon="8.241831580905968"><ele>162.33333333333334</ele><time>2026-04-26T12:03:36Z</time></trkpt><trkpt lat="45.36597086262245" lon="8.241897603393435"><ele>162.66666666666669</ele><time>2026-04-26T12:03:37Z</time></trkpt><trkpt lat="45.36578263635897" lon="8.241965987092742"><ele>163.0</ele><time>2026-04-26T12:03:38Z</time></trkpt><trkpt lat="45.36559392341962" lon="8.242036667109533"><ele>163.0</ele><time>2026-04-26T12:03:39Z</time></trkpt><trkpt lat="45.36540136937882" lon="8.242106788543458"><ele>163.0</ele><time>2026-04-26T12:03:40Z</time></trkpt><trkpt lat="45.3652055419097" lon="8.242177392258137"><ele>163.0</ele><time>2026-04-26T12:03:41Z</time></trkpt><trkpt lat="45.36500722588326" lon="8.242252852240199"><ele>163.0</ele><time>2026-04-26T12:03:42Z</time></trkpt><trkpt lat="45.36480849374466" lon="8.24233164786916"><ele>163.0</ele><time>2026-04-26T12:03:43Z</time></trkpt><trkpt lat="45.364608982468205" lon="8.242414200041852"><ele>163.0</ele><time>2026-04-26T12:03:44Z</time></trkpt><trkpt lat="45.36440943264233" lon="8.242496888922949"><ele>163.0</ele><time>2026-04-26T12:03:45Z</time></trkpt><trkpt lat="45.36420958107467" lon="8.242571357328623"><ele>163.0</ele><time>2026-04-26T12:03:46Z</time></trkpt><trkpt lat="45.36400751856074" lon="8.242641485125713"><ele>163.0</ele><time>2026-04-26T12:03:47Z</time></trkpt><trkpt lat="45.36380513781713" lon="8.242709003286421"><ele>162.66666666666669</ele><time>2026-04-26T12:03:48Z</time></trkpt><trkpt lat="45.363603050901666" lon="8.242775983365464"><ele>162.33333333333334</ele><time>2026-04-26T12:03:49Z</time></trkpt><trkpt lat="45.363399616649744" lon="8.242843786841703"><ele>162.0</ele><time>2026-04-26T12:03:50Z</time></trkpt><trkpt lat="45.36319585197752" lon="8.242917331059413"><ele>162.0</ele><time>2026-04-26T12:03:51Z</time></trkpt><trkpt lat="45.36299382491555" lon="8.242995443310829"><ele>162.0</ele><time>2026-04-26T12:03:52Z</time></trkpt><trkpt lat="45.362791596889124" lon="8.2430759261909"><ele>162.0</ele><time>2026-04-26T12:03:53Z</time></trkpt><trkpt lat="45.36258853615331" lon="8.243157482160782"><ele>162.0</ele><time>2026-04-26T12:03:54Z</time></trkpt><trkpt lat="45.362384573843975" lon="8.24323894614903"><ele>162.0</ele><time>2026-04-26T12:03:55Z</time></trkpt><trkpt lat="45.362176677372055" lon="8.243318388497736"><ele>162.0</ele><time>2026-04-26T12:03:56Z</time></trkpt><trkpt lat="45.361966397512035" lon="8.243395364987155"><ele>162.0</ele><time>2026-04-26T12:03:57Z</time></trkpt><trkpt lat="45.36175177675751" lon="8.243473136641356"><ele>162.0</ele><time>2026-04-26T12:03:58Z</time></trkpt><trkpt lat="45.3615322016181" lon="8.243554077518478"><ele>162.0</ele><time>2026-04-26T12:03:59Z</time></trkpt><trkpt lat="45.36130815665711" lon="8.24363663350674"><ele>162.5</ele><time>2026-04-26T12:04:00Z</time></trkpt><trkpt lat="45.361079832906476" lon="8.243720546610286"><ele>163.0</ele><time>2026-04-26T12:04:01Z</time></trkpt><trkpt lat="45.360848301859285" lon="8.243805212622307"><ele>163.0</ele><time>2026-04-26T12:04:02Z</time></trkpt><trkpt lat="45.36061343000704" lon="8.243891556435843"><ele>163.0</ele><time>2026-04-26T12:04:03Z</time></trkpt><trkpt lat="45.36037350314585" lon="8.243979328407836"><ele>162.0</ele><time>2026-04-26T12:04:04Z</time></trkpt><trkpt lat="45.3601303385099" lon="8.244067717599812"><ele>161.0</ele><time>2026-04-26T12:04:05Z</time></trkpt><trkpt lat="45.359884869215485" lon="8.244157739476924"><ele>161.5</ele><time>2026-04-26T12:04:06Z</time></trkpt><trkpt lat="45.35963607625195" lon="8.244247449736203"><ele>162.0</ele><time>2026-04-26T12:04:07Z</time></trkpt><trkpt lat="45.35938509457105" lon="8.244340616247646"><ele>162.0</ele><time>2026-04-26T12:04:08Z</time></trkpt><trkpt lat="45.3591361734689" lon="8.244437681895622"><ele>162.0</ele><time>2026-04-26T12:04:09Z</time></trkpt><trkpt lat="45.35889448909257" lon="8.244529359922403"><ele>162.5</ele><time>2026-04-26T12:04:10Z</time></trkpt><trkpt lat="45.35866325426222" lon="8.244618159976069"><ele>163.0</ele><time>2026-04-26T12:04:11Z</time></trkpt><trkpt lat="45.35844118003389" lon="8.244701218188492"><ele>163.0</ele><time>2026-04-26T12:04:12Z</time></trkpt><trkpt lat="45.35823255206631" lon="8.244776449594069"><ele>163.0</ele><time>2026-04-26T12:04:13Z</time></trkpt><trkpt lat="45.358033587134315" lon="8.244847644694918"><ele>163.0</ele><time>2026-04-26T12:04:14Z</time></trkpt><trkpt lat="45.35784273982952" lon="8.244916429893014"><ele>162.33333333333334</ele><time>2026-04-26T12:04:15Z</time></trkpt><trkpt lat="45.35767349049352" lon="8.24497081372682"><ele>161.66666666666666</ele><time>2026-04-26T12:04:16Z</time></trkpt><trkpt lat="45.35751443017696" lon="8.245015718646425"><ele>161.0</ele><time>2026-04-26T12:04:17Z</time></trkpt><trkpt lat="45.357364101320925" lon="8.245038104744898"><ele>161.0</ele><time>2026-04-26T12:04:18Z</time></trkpt><trkpt lat="45.35721487454339" lon="8.245031804261124"><ele>161.0</ele><time>2026-04-26T12:04:19Z</time></trkpt><trkpt lat="45.357053715838404" lon="8.245002282841034"><ele>161.0</ele><time>2026-04-26T12:04:20Z</time></trkpt><trkpt lat="45.35688842645083" lon="8.244941053987302"><ele>161.33333333333331</ele><time>2026-04-26T12:04:21Z</time></trkpt><trkpt lat="45.35672713556566" lon="8.244857465156148"><ele>161.66666666666666</ele><time>2026-04-26T12:04:22Z</time></trkpt><trkpt lat="45.35657493433052" lon="8.244718219845877"><ele>162.0</ele><time>2026-04-26T12:04:23Z</time></trkpt><trkpt lat="45.3564308542874" lon="8.244547601054274"><ele>162.33333333333334</ele><time>2026-04-26T12:04:24Z</time></trkpt><trkpt lat="45.356288208222814" lon="8.244364564803599"><ele>162.66666666666669</ele><time>2026-04-26T12:04:25Z</time></trkpt><trkpt lat="45.35614537869985" lon="8.244166780519874"><ele>163.0</ele><time>2026-04-26T12:04:26Z</time></trkpt><trkpt lat="45.355997919351644" lon="8.243963600181642"><ele>162.66666666666669</ele><time>2026-04-26T12:04:27Z</time></trkpt><trkpt lat="45.3558541981343" lon="8.243768122659882"><ele>162.33333333333334</ele><time>2026-04-26T12:04:28Z</time></trkpt><trkpt lat="45.35572149985943" lon="8.243595110895805"><ele>162.0</ele><time>2026-04-26T12:04:29Z</time></trkpt><trkpt lat="45.35558504503935" lon="8.243442337215447"><ele>162.0</ele><time>2026-04-26T12:04:30Z</time></trkpt><trkpt lat="45.35542997299735" lon="8.243319679754888"><ele>162.0</ele><time>2026-04-26T12:04:31Z</time></trkpt><trkpt lat="45.355255866447045" lon="8.243228430212373"><ele>162.0</ele><time>2026-04-26T12:04:32Z</time></trkpt><trkpt lat="45.35507527219886" lon="8.243155674733554"><ele>162.0</ele><time>2026-04-26T12:04:33Z</time></trkpt><trkpt lat="45.35488769887668" lon="8.243084171258225"><ele>162.0</ele><time>2026-04-26T12:04:34Z</time></trkpt><trkpt lat="45.354700355222015" lon="8.243011857930888"><ele>162.0</ele><time>2026-04-26T12:04:35Z</time></trkpt><trkpt lat="45.354511990576455" lon="8.242941395637652"><ele>162.0</ele><time>2026-04-26T12:04:36Z</time></trkpt><trkpt lat="45.354322351261786" lon="8.24287212633586"><ele>162.0</ele><time>2026-04-26T12:04:37Z</time></trkpt><trkpt lat="45.35413264614115" lon="8.242806657552755"><ele>162.0</ele><time>2026-04-26T12:04:38Z</time></trkpt><trkpt lat="45.353945287728834" lon="8.24274421283978"><ele>162.33333333333334</ele><time>2026-04-26T12:04:39Z</time></trkpt><trkpt lat="45.35376592100288" lon="8.242682478023065"><ele>162.66666666666669</ele><time>2026-04-26T12:04:40Z</time></trkpt><trkpt lat="45.35359478570786" lon="8.242620012582986"><ele>163.0</ele><time>2026-04-26T12:04:41Z</time></trkpt><trkpt lat="45.35342735538029" lon="8.242559272774864"><ele>163.0</ele><time>2026-04-26T12:04:42Z</time></trkpt><trkpt lat="45.35326930872678" lon="8.242500218604594"><ele>163.0</ele><time>2026-04-26T12:04:43Z</time></trkpt><trkpt lat="45.35315618010122" lon="8.242442628464193"><ele>163.0</ele><time>2026-04-26T12:04:44Z</time></trkpt><trkpt lat="45.35305644873937" lon="8.242376691563074"><ele>163.0</ele><time>2026-04-26T12:04:45Z</time></trkpt><trkpt lat="45.35296371024521" lon="8.24230331743663"><ele>162.75</ele><time>2026-04-26T12:04:46Z</time></trkpt><trkpt lat="45.352866899967424" lon="8.24222637513007"><ele>162.5</ele><time>2026-04-26T12:04:47Z</time></trkpt><trkpt lat="45.3527665351363" lon="8.242141680336216"><ele>162.25</ele><time>2026-04-26T12:04:48Z</time></trkpt><trkpt lat="45.35266509193763" lon="8.24204677332594"><ele>162.0</ele><time>2026-04-26T12:04:49Z</time></trkpt><trkpt lat="45.35256697402467" lon="8.24194975084741"><ele>162.0</ele><time>2026-04-26T12:04:50Z</time></trkpt><trkpt lat="45.35246688594231" lon="8.24185856207964"><ele>162.0</ele><time>2026-04-26T12:04:51Z</time></trkpt><trkpt lat="45.35237206932718" lon="8.241771392146072"><ele>162.0</ele><time>2026-04-26T12:04:52Z</time></trkpt><trkpt lat="45.352272108309556" lon="8.24168750835181"><ele>162.0</ele><time>2026-04-26T12:04:53Z</time></trkpt><trkpt lat="45.35216807956203" lon="8.24160095690456"><ele>162.0</ele><time>2026-04-26T12:04:54Z</time></trkpt><trkpt lat="45.35205451676418" lon="8.241525878145419"><ele>162.0</ele><time>2026-04-26T12:04:55Z</time></trkpt><trkpt lat="45.35193938873888" lon="8.241466786848767"><ele>162.0</ele><time>2026-04-26T12:04:56Z</time></trkpt><trkpt lat="45.35182887134791" lon="8.241408539655811"><ele>162.0</ele><time>2026-04-26T12:04:57Z</time></trkpt><trkpt lat="45.351714835600895" lon="8.241338748536966"><ele>162.0</ele><time>2026-04-26T12:04:58Z</time></trkpt><trkpt lat="45.351600795367474" lon="8.241252917557555"><ele>162.0</ele><time>2026-04-26T12:04:59Z</time></trkpt><trkpt lat="45.35149293190393" lon="8.24114722928462"><ele>162.0</ele><time>2026-04-26T12:05:00Z</time></trkpt><trkpt lat="45.351383739618164" lon="8.241033176674353"><ele>162.0</ele><time>2026-04-26T12:05:01Z</time></trkpt><trkpt lat="45.35127840635075" lon="8.240904708019222"><ele>162.25</ele><time>2026-04-26T12:05:02Z</time></trkpt><trkpt lat="45.351181152716904" lon="8.240763827334124"><ele>162.5</ele><time>2026-04-26T12:05:03Z</time></trkpt><trkpt lat="45.351095591577405" lon="8.240618963990942"><ele>162.75</ele><time>2026-04-26T12:05:04Z</time></trkpt><trkpt lat="45.351011368561245" lon="8.240476271789097"><ele>163.0</ele><time>2026-04-26T12:05:05Z</time></trkpt><trkpt lat="45.35093207716874" lon="8.240343271909182"><ele>163.2</ele><time>2026-04-26T12:05:06Z</time></trkpt><trkpt lat="45.350867015817435" lon="8.240226221109193"><ele>163.4</ele><time>2026-04-26T12:05:07Z</time></trkpt><trkpt lat="45.35081185536127" lon="8.240126940346673"><ele>163.6</ele><time>2026-04-26T12:05:08Z</time></trkpt><trkpt lat="45.35077141235807" lon="8.240029297834205"><ele>163.79999999999998</ele><time>2026-04-26T12:05:09Z</time></trkpt><trkpt lat="45.35073711251153" lon="8.239915419975834"><ele>164.0</ele><time>2026-04-26T12:05:10Z</time></trkpt><trkpt lat="45.3506962538265" lon="8.239795518959777"><ele>164.0</ele><time>2026-04-26T12:05:11Z</time></trkpt><trkpt lat="45.3506290758875" lon="8.239701919317413"><ele>164.0</ele><time>2026-04-26T12:05:12Z</time></trkpt><trkpt lat="45.35053762516931" lon="8.23964723102597"><ele>164.0</ele><time>2026-04-26T12:05:13Z</time></trkpt><trkpt lat="45.350437857625465" lon="8.239614213338173"><ele>164.0</ele><time>2026-04-26T12:05:14Z</time></trkpt><trkpt lat="45.350334939417515" lon="8.239637102030452"><ele>164.0</ele><time>2026-04-26T12:05:15Z</time></trkpt><trkpt lat="45.350243718558126" lon="8.239488104949363"><ele>164.0</ele><time>2026-04-26T12:05:16Z</time></trkpt><trkpt lat="45.35017253756494" lon="8.239334056912641"><ele>164.0</ele><time>2026-04-26T12:05:17Z</time></trkpt><trkpt lat="45.35013358590463" lon="8.23913501118524"><ele>164.0</ele><time>2026-04-26T12:05:18Z</time></trkpt><trkpt lat="45.35011468259978" lon="8.238890286908513"><ele>164.0</ele><time>2026-04-26T12:05:19Z</time></trkpt><trkpt lat="45.35007802414518" lon="8.238676959224339"><ele>164.0</ele><time>2026-04-26T12:05:20Z</time></trkpt><trkpt lat="45.35003760869782" lon="8.23843991227407"><ele>164.0</ele><time>2026-04-26T12:05:21Z</time></trkpt><trkpt lat="45.349987342072986" lon="8.238172701564283"><ele>164.0</ele><time>2026-04-26T12:05:22Z</time></trkpt><trkpt lat="45.34993333167633" lon="8.23787892041222"><ele>163.5</ele><time>2026-04-26T12:05:23Z</time></trkpt><trkpt lat="45.3498716689708" lon="8.237545072541069"><ele>163.0</ele><time>2026-04-26T12:05:24Z</time></trkpt><trkpt lat="45.34980703775784" lon="8.237171355026666"><ele>163.0</ele><time>2026-04-26T12:05:25Z</time></trkpt><trkpt lat="45.3497475896146" lon="8.236800902017633"><ele>163.0</ele><time>2026-04-26T12:05:26Z</time></trkpt><trkpt lat="45.34966917051733" lon="8.236388558146114"><ele>163.0</ele><time>2026-04-26T12:05:27Z</time></trkpt><trkpt lat="45.349588930379035" lon="8.235944576089981"><ele>163.0</ele><time>2026-04-26T12:05:28Z</time></trkpt><trkpt lat="45.349506682348306" lon="8.23547925888726"><ele>163.0</ele><time>2026-04-26T12:05:29Z</time></trkpt><trkpt lat="45.34942702499294" lon="8.235022708227342"><ele>163.0</ele><time>2026-04-26T12:05:30Z</time></trkpt><trkpt lat="45.349338327050084" lon="8.234541533981744"><ele>163.0</ele><time>2026-04-26T12:05:31Z</time></trkpt><trkpt lat="45.34924940563056" lon="8.234041020143147"><ele>163.0</ele><time>2026-04-26T12:05:32Z</time></trkpt><trkpt lat="45.34915375384432" lon="8.233525234151177"><ele>164.0</ele><time>2026-04-26T12:05:33Z</time></trkpt><trkpt lat="45.34905994420952" lon="8.232999330652532"><ele>165.0</ele><time>2026-04-26T12:05:34Z</time></trkpt><trkpt lat="45.34896354909315" lon="8.23246002863822"><ele>165.0</ele><time>2026-04-26T12:05:35Z</time></trkpt><trkpt lat="45.34886357442401" lon="8.231909643276866"><ele>165.0</ele><time>2026-04-26T12:05:36Z</time></trkpt><trkpt lat="45.34876202285599" lon="8.231349511372937"><ele>165.0</ele><time>2026-04-26T12:05:37Z</time></trkpt><trkpt lat="45.34866517821925" lon="8.230817453104082"><ele>165.0</ele><time>2026-04-26T12:05:38Z</time></trkpt><trkpt lat="45.34856806826487" lon="8.230286231887872"><ele>165.0</ele><time>2026-04-26T12:05:39Z</time></trkpt><trkpt lat="45.34847026235913" lon="8.229746512672628"><ele>165.0</ele><time>2026-04-26T12:05:40Z</time></trkpt><trkpt lat="45.34836878190727" lon="8.229196061255017"><ele>165.5</ele><time>2026-04-26T12:05:41Z</time></trkpt><trkpt lat="45.34827264561321" lon="8.228663546686446"><ele>166.0</ele><time>2026-04-26T12:05:42Z</time></trkpt><trkpt lat="45.34818513211395" lon="8.228175262985326"><ele>165.5</ele><time>2026-04-26T12:05:43Z</time></trkpt><trkpt lat="45.348106712208946" lon="8.227723666428174"><ele>165.0</ele><time>2026-04-26T12:05:44Z</time></trkpt><trkpt lat="45.34803242382503" lon="8.227330625557558"><ele>165.0</ele><time>2026-04-26T12:05:45Z</time></trkpt><trkpt lat="45.34796673189252" lon="8.226963658230245"><ele>165.0</ele><time>2026-04-26T12:05:46Z</time></trkpt><trkpt lat="45.34790448586192" lon="8.226622293236394"><ele>165.33333333333334</ele><time>2026-04-26T12:05:47Z</time></trkpt><trkpt lat="45.347852091578766" lon="8.22631514936751"><ele>165.66666666666669</ele><time>2026-04-26T12:05:48Z</time></trkpt><trkpt lat="45.347804511971" lon="8.226040025895776"><ele>166.0</ele><time>2026-04-26T12:05:49Z</time></trkpt><trkpt lat="45.34775630768907" lon="8.225782462649985"><ele>166.0</ele><time>2026-04-26T12:05:50Z</time></trkpt><trkpt lat="45.347709956041264" lon="8.22553223034087"><ele>166.0</ele><time>2026-04-26T12:05:51Z</time></trkpt><trkpt lat="45.34766676530226" lon="8.225291374666813"><ele>166.0</ele><time>2026-04-26T12:05:52Z</time></trkpt><trkpt lat="45.34763079501763" lon="8.225058937964873"><ele>166.0</ele><time>2026-04-26T12:05:53Z</time></trkpt><trkpt lat="45.34760456822719" lon="8.224885380211973"><ele>166.0</ele><time>2026-04-26T12:05:54Z</time></trkpt><trkpt lat="45.34757824301998" lon="8.224728958693202"><ele>166.0</ele><time>2026-04-26T12:05:55Z</time></trkpt><trkpt lat="45.34754620072892" lon="8.224557377060112"><ele>166.0</ele><time>2026-04-26T12:05:56Z</time></trkpt><trkpt lat="45.34751125108696" lon="8.224374604950619"><ele>166.0</ele><time>2026-04-26T12:05:57Z</time></trkpt><trkpt lat="45.34747776154511" lon="8.224184519862105"><ele>166.0</ele><time>2026-04-26T12:05:58Z</time></trkpt><trkpt lat="45.347439760986205" lon="8.223979565615695"><ele>166.0</ele><time>2026-04-26T12:05:59Z</time></trkpt><trkpt lat="45.34740113672752" lon="8.223762035946788"><ele>166.0</ele><time>2026-04-26T12:06:00Z</time></trkpt><trkpt lat="45.34736203419602" lon="8.223529860560957"><ele>166.66666666666669</ele><time>2026-04-26T12:06:01Z</time></trkpt><trkpt lat="45.34731698333589" lon="8.223281035637582"><ele>167.33333333333334</ele><time>2026-04-26T12:06:02Z</time></trkpt><trkpt lat="45.34726947977218" lon="8.223026613203423"><ele>168.0</ele><time>2026-04-26T12:06:03Z</time></trkpt><trkpt lat="45.347220579148136" lon="8.222766557212982"><ele>167.66666666666666</ele><time>2026-04-26T12:06:04Z</time></trkpt><trkpt lat="45.347169573563704" lon="8.222496419874512"><ele>167.33333333333331</ele><time>2026-04-26T12:06:05Z</time></trkpt><trkpt lat="45.34712424328303" lon="8.222236522198115"><ele>167.0</ele><time>2026-04-26T12:06:06Z</time></trkpt><trkpt lat="45.3470808158215" lon="8.222001719657039"><ele>166.75</ele><time>2026-04-26T12:06:07Z</time></trkpt><trkpt lat="45.347041851782954" lon="8.221802181496193"><ele>166.5</ele><time>2026-04-26T12:06:08Z</time></trkpt><trkpt lat="45.347010922033625" lon="8.221622026465178"><ele>166.25</ele><time>2026-04-26T12:06:09Z</time></trkpt><trkpt lat="45.346988449002396" lon="8.221480129374125"><ele>166.0</ele><time>2026-04-26T12:06:10Z</time></trkpt><trkpt lat="45.34696987462578" lon="8.221365731571636"><ele>166.0</ele><time>2026-04-26T12:06:11Z</time></trkpt><trkpt lat="45.34697763830487" lon="8.221269379051515"><ele>166.0</ele><time>2026-04-26T12:06:14Z</time></trkpt><trkpt lat="45.34695975210723" lon="8.22118233878817"><ele>166.0</ele><time>2026-04-26T12:06:22Z</time></trkpt><trkpt lat="45.3468992271468" lon="8.221221820876805"><ele>166.0</ele><time>2026-04-26T12:06:26Z</time></trkpt><trkpt lat="45.34693924135541" lon="8.221376413700423"><ele>166.0</ele><time>2026-04-26T12:06:28Z</time></trkpt><trkpt lat="45.346965284401335" lon="8.221512711924996"><ele>166.0</ele><time>2026-04-26T12:06:29Z</time></trkpt><trkpt lat="45.346989831777485" lon="8.221632904667775"><ele>166.0</ele><time>2026-04-26T12:06:30Z</time></trkpt><trkpt lat="45.34701417688005" lon="8.22178048946841"><ele>166.0</ele><time>2026-04-26T12:06:31Z</time></trkpt><trkpt lat="45.34704058421997" lon="8.22195480038833"><ele>166.0</ele><time>2026-04-26T12:06:32Z</time></trkpt><trkpt lat="45.34707207223103" lon="8.222145776578413"><ele>166.0</ele><time>2026-04-26T12:06:33Z</time></trkpt><trkpt lat="45.34710523933888" lon="8.222334828709355"><ele>166.33333333333334</ele><time>2026-04-26T12:06:34Z</time></trkpt><trkpt lat="45.34714280653954" lon="8.22254718975842"><ele>166.66666666666666</ele><time>2026-04-26T12:06:35Z</time></trkpt><trkpt lat="45.347184085210195" lon="8.222775132306866"><ele>167.0</ele><time>2026-04-26T12:06:36Z</time></trkpt><trkpt lat="45.34722635591106" lon="8.223024240053155"><ele>167.33333333333331</ele><time>2026-04-26T12:06:37Z</time></trkpt><trkpt lat="45.347270459019946" lon="8.223272110467668"><ele>167.66666666666666</ele><time>2026-04-26T12:06:38Z</time></trkpt><trkpt lat="45.347315285010666" lon="8.223525567050668"><ele>168.0</ele><time>2026-04-26T12:06:39Z</time></trkpt><trkpt lat="45.34736468001178" lon="8.223790179381092"><ele>167.33333333333334</ele><time>2026-04-26T12:06:40Z</time></trkpt><trkpt lat="45.34741501251756" lon="8.224061441464972"><ele>166.66666666666669</ele><time>2026-04-26T12:06:41Z</time></trkpt><trkpt lat="45.34746518190443" lon="8.224336249681622"><ele>166.0</ele><time>2026-04-26T12:06:42Z</time></trkpt><trkpt lat="45.34751362672616" lon="8.224607902692595"><ele>166.0</ele><time>2026-04-26T12:06:43Z</time></trkpt><trkpt lat="45.347561869785835" lon="8.22487496774285"><ele>166.0</ele><time>2026-04-26T12:06:44Z</time></trkpt><trkpt lat="45.34760832676524" lon="8.225139585836883"><ele>166.0</ele><time>2026-04-26T12:06:45Z</time></trkpt><trkpt lat="45.34765538924994" lon="8.225404123275528"><ele>166.0</ele><time>2026-04-26T12:06:46Z</time></trkpt><trkpt lat="45.347701954694074" lon="8.225670054064391"><ele>166.0</ele><time>2026-04-26T12:06:47Z</time></trkpt><trkpt lat="45.3477478109343" lon="8.225934356582387"><ele>166.0</ele><time>2026-04-26T12:06:48Z</time></trkpt><trkpt lat="45.34779328059267" lon="8.226194332704539"><ele>166.0</ele><time>2026-04-26T12:06:49Z</time></trkpt><trkpt lat="45.3478387289742" lon="8.22644716912226"><ele>166.0</ele><time>2026-04-26T12:06:50Z</time></trkpt><trkpt lat="45.347884485886695" lon="8.226699124076793"><ele>166.0</ele><time>2026-04-26T12:06:51Z</time></trkpt><trkpt lat="45.34792894875486" lon="8.226941718115107"><ele>165.66666666666669</ele><time>2026-04-26T12:06:52Z</time></trkpt><trkpt lat="45.34797027069946" lon="8.227174094031167"><ele>165.33333333333334</ele><time>2026-04-26T12:06:53Z</time></trkpt><trkpt lat="45.34800737875924" lon="8.227383066669782"><ele>165.0</ele><time>2026-04-26T12:06:54Z</time></trkpt><trkpt lat="45.34804089703233" lon="8.227565489978797"><ele>165.0</ele><time>2026-04-26T12:06:55Z</time></trkpt><trkpt lat="45.34806465743303" lon="8.227716603713397"><ele>165.0</ele><time>2026-04-26T12:06:56Z</time></trkpt><trkpt lat="45.34807993983079" lon="8.227837350717085"><ele>165.0</ele><time>2026-04-26T12:06:57Z</time></trkpt><trkpt lat="45.34809067825723" lon="8.227934087254717"><ele>165.0</ele><time>2026-04-26T12:06:58Z</time></trkpt><trkpt lat="45.34810654790582" lon="8.228079505040565"><ele>165.0</ele><time>2026-04-26T12:07:00Z</time></trkpt><trkpt lat="45.34812550626059" lon="8.228183187314395"><ele>165.0</ele><time>2026-04-26T12:07:02Z</time></trkpt><trkpt lat="45.34816104788038" lon="8.228279407701113"><ele>165.0</ele><time>2026-04-26T12:07:17Z</time></trkpt><trkpt lat="45.348184617949" lon="8.228002575730919"><ele>165.0</ele><time>2026-04-26T12:07:21Z</time></trkpt><trkpt lat="45.34814731853882" lon="8.22788640290348"><ele>165.0</ele><time>2026-04-26T12:07:22Z</time></trkpt><trkpt lat="45.34811852637063" lon="8.227764431326761"><ele>165.0</ele><time>2026-04-26T12:07:23Z</time></trkpt><trkpt lat="45.34808735551294" lon="8.227618104794846"><ele>165.0</ele><time>2026-04-26T12:07:24Z</time></trkpt><trkpt lat="45.34805724817043" lon="8.227442289459207"><ele>165.0</ele><time>2026-04-26T12:07:25Z</time></trkpt><trkpt lat="45.34802603549702" lon="8.22723735794664"><ele>165.0</ele><time>2026-04-26T12:07:26Z</time></trkpt><trkpt lat="45.347987467100495" lon="8.227013294835853"><ele>165.0</ele><time>2026-04-26T12:07:27Z</time></trkpt><trkpt lat="45.34794503887018" lon="8.226786748686166"><ele>165.0</ele><time>2026-04-26T12:07:28Z</time></trkpt><trkpt lat="45.347896562027664" lon="8.226529585153067"><ele>165.0</ele><time>2026-04-26T12:07:29Z</time></trkpt><trkpt lat="45.34784614130241" lon="8.226252881718835"><ele>165.0</ele><time>2026-04-26T12:07:30Z</time></trkpt><trkpt lat="45.347793654703885" lon="8.225974518643465"><ele>165.33333333333334</ele><time>2026-04-26T12:07:31Z</time></trkpt><trkpt lat="45.347742233066946" lon="8.225691498012289"><ele>165.66666666666669</ele><time>2026-04-26T12:07:32Z</time></trkpt><trkpt lat="45.34769368580961" lon="8.225401854783371"><ele>166.0</ele><time>2026-04-26T12:07:33Z</time></trkpt><trkpt lat="45.34763986602984" lon="8.225097849282033"><ele>166.0</ele><time>2026-04-26T12:07:34Z</time></trkpt><trkpt lat="45.34758349396413" lon="8.224782131382355"><ele>166.0</ele><time>2026-04-26T12:07:35Z</time></trkpt><trkpt lat="45.34752551619624" lon="8.224455919574115"><ele>166.0</ele><time>2026-04-26T12:07:36Z</time></trkpt><trkpt lat="45.34746775138481" lon="8.224130504725158"><ele>166.0</ele><time>2026-04-26T12:07:37Z</time></trkpt><trkpt lat="45.347409517092075" lon="8.223806952309557"><ele>167.0</ele><time>2026-04-26T12:07:38Z</time></trkpt><trkpt lat="45.347350647645825" lon="8.22347721260645"><ele>168.0</ele><time>2026-04-26T12:07:39Z</time></trkpt><trkpt lat="45.34728852627484" lon="8.223139559984125"><ele>168.0</ele><time>2026-04-26T12:07:40Z</time></trkpt><trkpt lat="45.34722407796475" lon="8.222798460293353"><ele>168.0</ele><time>2026-04-26T12:07:41Z</time></trkpt><trkpt lat="45.34715826133492" lon="8.22245178630591"><ele>167.0</ele><time>2026-04-26T12:07:42Z</time></trkpt><trkpt lat="45.34709581239894" lon="8.222097912667284"><ele>166.0</ele><time>2026-04-26T12:07:43Z</time></trkpt><trkpt lat="45.3470321971018" lon="8.221737979744603"><ele>166.0</ele><time>2026-04-26T12:07:44Z</time></trkpt><trkpt lat="45.34696698870064" lon="8.221373650777963"><ele>166.0</ele><time>2026-04-26T12:07:45Z</time></trkpt><trkpt lat="45.346894350452516" lon="8.221000569652551"><ele>166.0</ele><time>2026-04-26T12:07:46Z</time></trkpt><trkpt lat="45.346824339027975" lon="8.220626369558987"><ele>166.0</ele><time>2026-04-26T12:07:47Z</time></trkpt><trkpt lat="45.34675511710946" lon="8.220248683576916"><ele>166.0</ele><time>2026-04-26T12:07:48Z</time></trkpt><trkpt lat="45.3466827053854" lon="8.219868913248709"><ele>166.0</ele><time>2026-04-26T12:07:49Z</time></trkpt><trkpt lat="45.34661006371931" lon="8.219499590311274"><ele>166.5</ele><time>2026-04-26T12:07:50Z</time></trkpt><trkpt lat="45.34654565773542" lon="8.219127879726429"><ele>167.0</ele><time>2026-04-26T12:07:51Z</time></trkpt><trkpt lat="45.34648130644784" lon="8.21875409645269"><ele>167.0</ele><time>2026-04-26T12:07:52Z</time></trkpt><trkpt lat="45.34641675728505" lon="8.218379155550952"><ele>167.0</ele><time>2026-04-26T12:07:53Z</time></trkpt><trkpt lat="45.34635196482124" lon="8.218002711069552"><ele>167.0</ele><time>2026-04-26T12:07:54Z</time></trkpt><trkpt lat="45.34628582189823" lon="8.217624583595947"><ele>167.0</ele><time>2026-04-26T12:07:55Z</time></trkpt><trkpt lat="45.34621923901127" lon="8.217246357357205"><ele>167.0</ele><time>2026-04-26T12:07:56Z</time></trkpt><trkpt lat="45.34615149340448" lon="8.216866705875137"><ele>167.0</ele><time>2026-04-26T12:07:57Z</time></trkpt><trkpt lat="45.34607979700121" lon="8.216486860530475"><ele>167.0</ele><time>2026-04-26T12:07:58Z</time></trkpt><trkpt lat="45.346005935392874" lon="8.21610233619493"><ele>167.0</ele><time>2026-04-26T12:07:59Z</time></trkpt><trkpt lat="45.34593794830943" lon="8.215720180506388"><ele>167.0</ele><time>2026-04-26T12:08:00Z</time></trkpt><trkpt lat="45.3458670877065" lon="8.215333275174704"><ele>167.0</ele><time>2026-04-26T12:08:01Z</time></trkpt><trkpt lat="45.345798095405094" lon="8.214944015748134"><ele>167.5</ele><time>2026-04-26T12:08:02Z</time></trkpt><trkpt lat="45.34573054595749" lon="8.214556202858716"><ele>168.0</ele><time>2026-04-26T12:08:03Z</time></trkpt><trkpt lat="45.34566348644102" lon="8.214171099072452"><ele>168.0</ele><time>2026-04-26T12:08:04Z</time></trkpt><trkpt lat="45.34559662066391" lon="8.21379646576687"><ele>168.0</ele><time>2026-04-26T12:08:05Z</time></trkpt><trkpt lat="45.34553323500978" lon="8.213434693138574"><ele>167.0</ele><time>2026-04-26T12:08:06Z</time></trkpt><trkpt lat="45.34546528532937" lon="8.213078479241572"><ele>166.0</ele><time>2026-04-26T12:08:07Z</time></trkpt><trkpt lat="45.34540045767219" lon="8.212718396251303"><ele>166.0</ele><time>2026-04-26T12:08:08Z</time></trkpt><trkpt lat="45.34534793324863" lon="8.212354163977718"><ele>166.0</ele><time>2026-04-26T12:08:09Z</time></trkpt><trkpt lat="45.34530975180795" lon="8.211985905878281"><ele>167.0</ele><time>2026-04-26T12:08:10Z</time></trkpt><trkpt lat="45.345280062317116" lon="8.211612133047957"><ele>168.0</ele><time>2026-04-26T12:08:11Z</time></trkpt><trkpt lat="45.34525051519353" lon="8.211233689329745"><ele>168.0</ele><time>2026-04-26T12:08:12Z</time></trkpt><trkpt lat="45.34522626153541" lon="8.21084819608164"><ele>168.0</ele><time>2026-04-26T12:08:13Z</time></trkpt><trkpt lat="45.34519876455595" lon="8.210458091257252"><ele>168.0</ele><time>2026-04-26T12:08:14Z</time></trkpt><trkpt lat="45.34517061873457" lon="8.210066375828992"><ele>168.0</ele><time>2026-04-26T12:08:15Z</time></trkpt><trkpt lat="45.345141105236415" lon="8.209668599623107"><ele>168.5</ele><time>2026-04-26T12:08:16Z</time></trkpt><trkpt lat="45.345110153686434" lon="8.2092725621485"><ele>169.0</ele><time>2026-04-26T12:08:17Z</time></trkpt><trkpt lat="45.345078789565875" lon="8.208874726679898"><ele>169.0</ele><time>2026-04-26T12:08:18Z</time></trkpt><trkpt lat="45.345046837256795" lon="8.208475969489589"><ele>169.0</ele><time>2026-04-26T12:08:19Z</time></trkpt><trkpt lat="45.34501567960344" lon="8.208074461031554"><ele>169.0</ele><time>2026-04-26T12:08:20Z</time></trkpt><trkpt lat="45.34498515257096" lon="8.207672311086116"><ele>169.0</ele><time>2026-04-26T12:08:21Z</time></trkpt><trkpt lat="45.34495472512712" lon="8.20726945938158"><ele>169.0</ele><time>2026-04-26T12:08:22Z</time></trkpt><trkpt lat="45.34492378674211" lon="8.206864968173088"><ele>169.0</ele><time>2026-04-26T12:08:23Z</time></trkpt><trkpt lat="45.34489161198255" lon="8.20645918541118"><ele>169.5</ele><time>2026-04-26T12:08:24Z</time></trkpt><trkpt lat="45.34486138612554" lon="8.206052818114223"><ele>170.0</ele><time>2026-04-26T12:08:25Z</time></trkpt><trkpt lat="45.34483181437028" lon="8.205651253510258"><ele>170.5</ele><time>2026-04-26T12:08:26Z</time></trkpt><trkpt lat="45.34480206733295" lon="8.20526014979482"><ele>171.0</ele><time>2026-04-26T12:08:27Z</time></trkpt><trkpt lat="45.34477399384612" lon="8.204886886595432"><ele>171.5</ele><time>2026-04-26T12:08:28Z</time></trkpt><trkpt lat="45.34474162847105" lon="8.204520647587692"><ele>172.0</ele><time>2026-04-26T12:08:29Z</time></trkpt><trkpt lat="45.34471022140118" lon="8.204158120438958"><ele>170.5</ele><time>2026-04-26T12:08:30Z</time></trkpt><trkpt lat="45.34467921548312" lon="8.203796043924738"><ele>169.0</ele><time>2026-04-26T12:08:31Z</time></trkpt><trkpt lat="45.34464755721882" lon="8.203435680268155"><ele>169.5</ele><time>2026-04-26T12:08:32Z</time></trkpt><trkpt lat="45.344619673222326" lon="8.203076941446277"><ele>170.0</ele><time>2026-04-26T12:08:33Z</time></trkpt><trkpt lat="45.3445936104046" lon="8.202708883902991"><ele>170.0</ele><time>2026-04-26T12:08:34Z</time></trkpt><trkpt lat="45.34456870260306" lon="8.202348394592603"><ele>170.0</ele><time>2026-04-26T12:08:35Z</time></trkpt><trkpt lat="45.34454271924072" lon="8.201991828329293"><ele>170.5</ele><time>2026-04-26T12:08:36Z</time></trkpt><trkpt lat="45.34451742415196" lon="8.201642968175802"><ele>171.0</ele><time>2026-04-26T12:08:37Z</time></trkpt><trkpt lat="45.34449287674093" lon="8.201301878789176"><ele>171.0</ele><time>2026-04-26T12:08:38Z</time></trkpt><trkpt lat="45.344466183056255" lon="8.200960367613932"><ele>171.0</ele><time>2026-04-26T12:08:39Z</time></trkpt><trkpt lat="45.34443601236534" lon="8.200622860067206"><ele>170.5</ele><time>2026-04-26T12:08:40Z</time></trkpt><trkpt lat="45.34440400787257" lon="8.200285910687278"><ele>170.0</ele><time>2026-04-26T12:08:41Z</time></trkpt><trkpt lat="45.34437694778015" lon="8.19995429107401"><ele>170.5</ele><time>2026-04-26T12:08:42Z</time></trkpt><trkpt lat="45.34435090768405" lon="8.199622357405284"><ele>171.0</ele><time>2026-04-26T12:08:43Z</time></trkpt><trkpt lat="45.344325617892075" lon="8.199291011153855"><ele>170.66666666666666</ele><time>2026-04-26T12:08:44Z</time></trkpt><trkpt lat="45.34430222202586" lon="8.198967983963332"><ele>170.33333333333331</ele><time>2026-04-26T12:08:45Z</time></trkpt><trkpt lat="45.34427945493449" lon="8.198655379622448"><ele>170.0</ele><time>2026-04-26T12:08:46Z</time></trkpt><trkpt lat="45.3442522195365" lon="8.198340712909971"><ele>172.0</ele><time>2026-04-26T12:08:47Z</time></trkpt><trkpt lat="45.34422550177504" lon="8.198021262867517"><ele>174.0</ele><time>2026-04-26T12:08:48Z</time></trkpt><trkpt lat="45.34419685758614" lon="8.197697470072718"><ele>174.0</ele><time>2026-04-26T12:08:49Z</time></trkpt><trkpt lat="45.3441669205219" lon="8.197367587518864"><ele>174.0</ele><time>2026-04-26T12:08:50Z</time></trkpt><trkpt lat="45.344142833181635" lon="8.197034369520898"><ele>174.0</ele><time>2026-04-26T12:08:51Z</time></trkpt><trkpt lat="45.344119087772675" lon="8.19669408168103"><ele>174.0</ele><time>2026-04-26T12:08:52Z</time></trkpt><trkpt lat="45.344092928310474" lon="8.196352073315554"><ele>174.0</ele><time>2026-04-26T12:08:53Z</time></trkpt><trkpt lat="45.34406913920975" lon="8.196013521529487"><ele>174.0</ele><time>2026-04-26T12:08:54Z</time></trkpt><trkpt lat="45.34404203767856" lon="8.195673987702067"><ele>174.0</ele><time>2026-04-26T12:08:55Z</time></trkpt><trkpt lat="45.34401269510482" lon="8.195335003355385"><ele>174.0</ele><time>2026-04-26T12:08:56Z</time></trkpt><trkpt lat="45.3439829025228" lon="8.194993843146781"><ele>173.5</ele><time>2026-04-26T12:08:57Z</time></trkpt><trkpt lat="45.3439562490496" lon="8.194656013622222"><ele>173.0</ele><time>2026-04-26T12:08:58Z</time></trkpt><trkpt lat="45.34393540305549" lon="8.194316633644728"><ele>173.0</ele><time>2026-04-26T12:08:59Z</time></trkpt><trkpt lat="45.34391925199508" lon="8.193975781268456"><ele>173.0</ele><time>2026-04-26T12:09:00Z</time></trkpt><trkpt lat="45.34390179353214" lon="8.193634489419104"><ele>172.5</ele><time>2026-04-26T12:09:01Z</time></trkpt><trkpt lat="45.343876082263435" lon="8.193292491353425"><ele>172.0</ele><time>2026-04-26T12:09:02Z</time></trkpt><trkpt lat="45.34384199194613" lon="8.192950269578397"><ele>172.5</ele><time>2026-04-26T12:09:03Z</time></trkpt><trkpt lat="45.3438054452666" lon="8.192608069016034"><ele>173.0</ele><time>2026-04-26T12:09:04Z</time></trkpt><trkpt lat="45.343771322754165" lon="8.192267683055581"><ele>173.0</ele><time>2026-04-26T12:09:05Z</time></trkpt><trkpt lat="45.34374356337945" lon="8.191923198861613"><ele>173.0</ele><time>2026-04-26T12:09:06Z</time></trkpt><trkpt lat="45.3437212169334" lon="8.191578675920923"><ele>173.0</ele><time>2026-04-26T12:09:07Z</time></trkpt><trkpt lat="45.343702492127164" lon="8.191236302436353"><ele>173.0</ele><time>2026-04-26T12:09:08Z</time></trkpt><trkpt lat="45.34368587726654" lon="8.190893366946808"><ele>173.0</ele><time>2026-04-26T12:09:09Z</time></trkpt><trkpt lat="45.343662600019925" lon="8.190554763572226"><ele>173.0</ele><time>2026-04-26T12:09:10Z</time></trkpt><trkpt lat="45.34363035752072" lon="8.190220048726014"><ele>173.0</ele><time>2026-04-26T12:09:11Z</time></trkpt><trkpt lat="45.34359732477856" lon="8.18988738779759"><ele>173.0</ele><time>2026-04-26T12:09:12Z</time></trkpt><trkpt lat="45.34355978711971" lon="8.189548954337576"><ele>173.0</ele><time>2026-04-26T12:09:13Z</time></trkpt><trkpt lat="45.343527155216165" lon="8.189213035119737"><ele>173.0</ele><time>2026-04-26T12:09:14Z</time></trkpt><trkpt lat="45.34350222048818" lon="8.188875626234154"><ele>173.5</ele><time>2026-04-26T12:09:15Z</time></trkpt><trkpt lat="45.343485435251" lon="8.188542051475357"><ele>174.0</ele><time>2026-04-26T12:09:16Z</time></trkpt><trkpt lat="45.343470682724536" lon="8.188207752796293"><ele>174.0</ele><time>2026-04-26T12:09:17Z</time></trkpt><trkpt lat="45.343455242011004" lon="8.18787648794768"><ele>174.0</ele><time>2026-04-26T12:09:18Z</time></trkpt><trkpt lat="45.34343268039281" lon="8.18754959114413"><ele>174.66666666666666</ele><time>2026-04-26T12:09:19Z</time></trkpt><trkpt lat="45.3434069936404" lon="8.187232485549652"><ele>175.33333333333331</ele><time>2026-04-26T12:09:20Z</time></trkpt><trkpt lat="45.34337849244303" lon="8.186923463937026"><ele>176.0</ele><time>2026-04-26T12:09:21Z</time></trkpt><trkpt lat="45.34335638860379" lon="8.186621282377656"><ele>176.0</ele><time>2026-04-26T12:09:22Z</time></trkpt><trkpt lat="45.34333822239296" lon="8.1863248682609"><ele>176.0</ele><time>2026-04-26T12:09:23Z</time></trkpt><trkpt lat="45.34331953700394" lon="8.18604102108801"><ele>176.0</ele><time>2026-04-26T12:09:24Z</time></trkpt><trkpt lat="45.343298668158596" lon="8.185772238754609"><ele>176.0</ele><time>2026-04-26T12:09:25Z</time></trkpt><trkpt lat="45.343273650696716" lon="8.185514202338384"><ele>176.0</ele><time>2026-04-26T12:09:26Z</time></trkpt><trkpt lat="45.34324182417383" lon="8.185267168853807"><ele>176.0</ele><time>2026-04-26T12:09:27Z</time></trkpt><trkpt lat="45.343201692218685" lon="8.185025334461915"><ele>176.0</ele><time>2026-04-26T12:09:28Z</time></trkpt><trkpt lat="45.343151881853615" lon="8.184780620666979"><ele>176.0</ele><time>2026-04-26T12:09:29Z</time></trkpt><trkpt lat="45.34309733623893" lon="8.184539887685775"><ele>176.0</ele><time>2026-04-26T12:09:30Z</time></trkpt><trkpt lat="45.3430359036888" lon="8.184298940664084"><ele>176.0</ele><time>2026-04-26T12:09:31Z</time></trkpt><trkpt lat="45.34295684017565" lon="8.184069804648791"><ele>176.0</ele><time>2026-04-26T12:09:32Z</time></trkpt><trkpt lat="45.34286698033433" lon="8.18385386538459"><ele>176.0</ele><time>2026-04-26T12:09:33Z</time></trkpt><trkpt lat="45.34276451464562" lon="8.183646886951397"><ele>176.0</ele><time>2026-04-26T12:09:34Z</time></trkpt><trkpt lat="45.342652342096905" lon="8.183443654445464"><ele>176.0</ele><time>2026-04-26T12:09:35Z</time></trkpt><trkpt lat="45.34252938142448" lon="8.183246205694816"><ele>176.0</ele><time>2026-04-26T12:09:36Z</time></trkpt><trkpt lat="45.34239629061428" lon="8.183050791339387"><ele>176.33333333333331</ele><time>2026-04-26T12:09:37Z</time></trkpt><trkpt lat="45.34225427283576" lon="8.182866937634316"><ele>176.66666666666666</ele><time>2026-04-26T12:09:38Z</time></trkpt><trkpt lat="45.34209742332495" lon="8.182694322997882"><ele>177.0</ele><time>2026-04-26T12:09:39Z</time></trkpt><trkpt lat="45.34192752910621" lon="8.182537063610008"><ele>177.0</ele><time>2026-04-26T12:09:40Z</time></trkpt><trkpt lat="45.34175498973401" lon="8.182381219336541"><ele>177.0</ele><time>2026-04-26T12:09:41Z</time></trkpt><trkpt lat="45.341580858893366" lon="8.182219981486513"><ele>177.0</ele><time>2026-04-26T12:09:42Z</time></trkpt><trkpt lat="45.34140600313838" lon="8.182056041318782"><ele>176.66666666666666</ele><time>2026-04-26T12:09:43Z</time></trkpt><trkpt lat="45.34122687403791" lon="8.181890262935664"><ele>176.33333333333331</ele><time>2026-04-26T12:09:44Z</time></trkpt><trkpt lat="45.34104722359904" lon="8.181721358986097"><ele>176.0</ele><time>2026-04-26T12:09:45Z</time></trkpt><trkpt lat="45.340868314011324" lon="8.18155142363061"><ele>176.33333333333331</ele><time>2026-04-26T12:09:46Z</time></trkpt><trkpt lat="45.34069170001274" lon="8.181383054588855"><ele>176.66666666666666</ele><time>2026-04-26T12:09:47Z</time></trkpt><trkpt lat="45.34051991607378" lon="8.181221236583704"><ele>177.0</ele><time>2026-04-26T12:09:48Z</time></trkpt><trkpt lat="45.34035520190304" lon="8.181068554752397"><ele>177.0</ele><time>2026-04-26T12:09:49Z</time></trkpt><trkpt lat="45.34020133022212" lon="8.180923549917205"><ele>177.0</ele><time>2026-04-26T12:09:50Z</time></trkpt><trkpt lat="45.34005289835305" lon="8.180780625555194"><ele>177.0</ele><time>2026-04-26T12:09:51Z</time></trkpt><trkpt lat="45.33991412353603" lon="8.180647899530445"><ele>177.25</ele><time>2026-04-26T12:09:52Z</time></trkpt><trkpt lat="45.33978644814376" lon="8.180525357707644"><ele>177.5</ele><time>2026-04-26T12:09:53Z</time></trkpt><trkpt lat="45.33966827504143" lon="8.180413287526388"><ele>177.75</ele><time>2026-04-26T12:09:54Z</time></trkpt><trkpt lat="45.339558201775276" lon="8.180311096267289"><ele>178.0</ele><time>2026-04-26T12:09:55Z</time></trkpt><trkpt lat="45.33945667768471" lon="8.180217450832423"><ele>177.8</ele><time>2026-04-26T12:09:56Z</time></trkpt><trkpt lat="45.33936440666935" lon="8.180125215909412"><ele>177.60000000000002</ele><time>2026-04-26T12:09:57Z</time></trkpt><trkpt lat="45.33928201881476" lon="8.180031991626718"><ele>177.39999999999998</ele><time>2026-04-26T12:09:58Z</time></trkpt><trkpt lat="45.33920668129645" lon="8.179940467037241"><ele>177.2</ele><time>2026-04-26T12:09:59Z</time></trkpt><trkpt lat="45.3391406567896" lon="8.179857837766885"><ele>177.0</ele><time>2026-04-26T12:10:00Z</time></trkpt><trkpt lat="45.33908460432713" lon="8.179789222866596"><ele>177.0</ele><time>2026-04-26T12:10:01Z</time></trkpt><trkpt lat="45.33900313469575" lon="8.179685965758823"><ele>177.0</ele><time>2026-04-26T12:10:03Z</time></trkpt><trkpt lat="45.33895462662903" lon="8.179620184757523"><ele>177.0</ele><time>2026-04-26T12:10:05Z</time></trkpt><trkpt lat="45.33890615298668" lon="8.179550409699425"><ele>177.0</ele><time>2026-04-26T12:10:18Z</time></trkpt><trkpt lat="45.33882984206093" lon="8.17944548047963"><ele>177.0</ele><time>2026-04-26T12:10:20Z</time></trkpt><trkpt lat="45.33868580020625" lon="8.179562073048487"><ele>177.0</ele><time>2026-04-26T12:10:22Z</time></trkpt><trkpt lat="45.33862236533844" lon="8.179659253858448"><ele>177.0</ele><time>2026-04-26T12:10:23Z</time></trkpt><trkpt lat="45.33853831139828" lon="8.179755632653299"><ele>177.0</ele><time>2026-04-26T12:10:24Z</time></trkpt><trkpt lat="45.338437045278546" lon="8.179851734543956"><ele>177.0</ele><time>2026-04-26T12:10:25Z</time></trkpt><trkpt lat="45.33833674446565" lon="8.179939781753609"><ele>177.0</ele><time>2026-04-26T12:10:26Z</time></trkpt><trkpt lat="45.33822718580353" lon="8.180033249898464"><ele>176.75</ele><time>2026-04-26T12:10:27Z</time></trkpt><trkpt lat="45.33811208930276" lon="8.180134027134915"><ele>176.5</ele><time>2026-04-26T12:10:28Z</time></trkpt><trkpt lat="45.33799229099348" lon="8.180242338100102"><ele>176.25</ele><time>2026-04-26T12:10:29Z</time></trkpt><trkpt lat="45.33786438823063" lon="8.180357210105733"><ele>176.0</ele><time>2026-04-26T12:10:30Z</time></trkpt><trkpt lat="45.33773327908335" lon="8.180477944075474"><ele>176.0</ele><time>2026-04-26T12:10:31Z</time></trkpt><trkpt lat="45.33759698605517" lon="8.180601766676117"><ele>176.0</ele><time>2026-04-26T12:10:32Z</time></trkpt><trkpt lat="45.33745645933321" lon="8.180728611913182"><ele>176.0</ele><time>2026-04-26T12:10:33Z</time></trkpt><trkpt lat="45.33731957230481" lon="8.180865814505891"><ele>175.33333333333331</ele><time>2026-04-26T12:10:34Z</time></trkpt><trkpt lat="45.33718215887557" lon="8.180995808011831"><ele>174.66666666666666</ele><time>2026-04-26T12:10:35Z</time></trkpt><trkpt lat="45.33704522613249" lon="8.18112036866428"><ele>174.0</ele><time>2026-04-26T12:10:36Z</time></trkpt><trkpt lat="45.336919657615695" lon="8.181232057141933"><ele>174.0</ele><time>2026-04-26T12:10:37Z</time></trkpt><trkpt lat="45.33680621289686" lon="8.181334559295202"><ele>174.0</ele><time>2026-04-26T12:10:38Z</time></trkpt><trkpt lat="45.33669729408964" lon="8.181434376055522"><ele>174.0</ele><time>2026-04-26T12:10:39Z</time></trkpt><trkpt lat="45.33659292644555" lon="8.181529654206422"><ele>174.0</ele><time>2026-04-26T12:10:40Z</time></trkpt><trkpt lat="45.336495865951775" lon="8.18162095084424"><ele>174.25</ele><time>2026-04-26T12:10:41Z</time></trkpt><trkpt lat="45.33640653043948" lon="8.18170807595579"><ele>174.5</ele><time>2026-04-26T12:10:42Z</time></trkpt><trkpt lat="45.33630664383858" lon="8.18180334241095"><ele>174.75</ele><time>2026-04-26T12:10:43Z</time></trkpt><trkpt lat="45.33620154190729" lon="8.181899178637794"><ele>175.0</ele><time>2026-04-26T12:10:44Z</time></trkpt><trkpt lat="45.336098696667506" lon="8.181994342352052"><ele>175.0</ele><time>2026-04-26T12:10:45Z</time></trkpt><trkpt lat="45.33598991256309" lon="8.182090353190029"><ele>175.0</ele><time>2026-04-26T12:10:46Z</time></trkpt><trkpt lat="45.33588232533184" lon="8.18218635014042"><ele>175.0</ele><time>2026-04-26T12:10:47Z</time></trkpt><trkpt lat="45.335785451549356" lon="8.182278106756984"><ele>175.0</ele><time>2026-04-26T12:10:48Z</time></trkpt><trkpt lat="45.33568733433514" lon="8.182367896060898"><ele>175.0</ele><time>2026-04-26T12:10:49Z</time></trkpt><trkpt lat="45.335578135001015" lon="8.182462943789988"><ele>175.0</ele><time>2026-04-26T12:10:50Z</time></trkpt><trkpt lat="45.33546397773723" lon="8.182564606594667"><ele>175.0</ele><time>2026-04-26T12:10:51Z</time></trkpt><trkpt lat="45.335343312746495" lon="8.182673402988796"><ele>175.0</ele><time>2026-04-26T12:10:52Z</time></trkpt><trkpt lat="45.33521470006994" lon="8.182796745259173"><ele>175.33333333333334</ele><time>2026-04-26T12:10:53Z</time></trkpt><trkpt lat="45.33507037280525" lon="8.182929071216694"><ele>175.66666666666666</ele><time>2026-04-26T12:10:54Z</time></trkpt><trkpt lat="45.3349179070771" lon="8.183066172080759"><ele>176.0</ele><time>2026-04-26T12:10:55Z</time></trkpt><trkpt lat="45.33476951151308" lon="8.183199075070378"><ele>175.33333333333331</ele><time>2026-04-26T12:10:56Z</time></trkpt><trkpt lat="45.33459225681882" lon="8.183349439499649"><ele>174.66666666666666</ele><time>2026-04-26T12:10:57Z</time></trkpt><trkpt lat="45.33441979350266" lon="8.183503443306815"><ele>174.0</ele><time>2026-04-26T12:10:58Z</time></trkpt><trkpt lat="45.3342507493976" lon="8.183658968816522"><ele>174.0</ele><time>2026-04-26T12:10:59Z</time></trkpt><trkpt lat="45.334078961378545" lon="8.183820231639157"><ele>174.0</ele><time>2026-04-26T12:11:00Z</time></trkpt><trkpt lat="45.333899965452765" lon="8.183985320217305"><ele>174.0</ele><time>2026-04-26T12:11:01Z</time></trkpt><trkpt lat="45.33371128035056" lon="8.184159167739605"><ele>173.5</ele><time>2026-04-26T12:11:02Z</time></trkpt><trkpt lat="45.33351383664283" lon="8.18433750253408"><ele>173.0</ele><time>2026-04-26T12:11:03Z</time></trkpt><trkpt lat="45.33331517791662" lon="8.184513689776953"><ele>173.0</ele><time>2026-04-26T12:11:04Z</time></trkpt><trkpt lat="45.33312469340283" lon="8.184688305057062"><ele>173.0</ele><time>2026-04-26T12:11:05Z</time></trkpt><trkpt lat="45.33292742734629" lon="8.184867232283851"><ele>172.5</ele><time>2026-04-26T12:11:06Z</time></trkpt><trkpt lat="45.33272069580763" lon="8.185057020206088"><ele>172.0</ele><time>2026-04-26T12:11:07Z</time></trkpt><trkpt lat="45.332503521220296" lon="8.185258150906275"><ele>172.0</ele><time>2026-04-26T12:11:08Z</time></trkpt><trkpt lat="45.33227837400333" lon="8.185466288764532"><ele>172.0</ele><time>2026-04-26T12:11:09Z</time></trkpt><trkpt lat="45.33204314954123" lon="8.18568018390477"><ele>172.5</ele><time>2026-04-26T12:11:10Z</time></trkpt><trkpt lat="45.331799886692174" lon="8.18589815859808"><ele>173.0</ele><time>2026-04-26T12:11:11Z</time></trkpt><trkpt lat="45.33155208968267" lon="8.186116201929103"><ele>172.5</ele><time>2026-04-26T12:11:12Z</time></trkpt><trkpt lat="45.331319524574255" lon="8.186326158944803"><ele>172.0</ele><time>2026-04-26T12:11:13Z</time></trkpt><trkpt lat="45.33109154791796" lon="8.186535560474347"><ele>173.0</ele><time>2026-04-26T12:11:14Z</time></trkpt><trkpt lat="45.33086269631424" lon="8.186749982957634"><ele>174.0</ele><time>2026-04-26T12:11:15Z</time></trkpt><trkpt lat="45.33063350394926" lon="8.186964516546412"><ele>172.5</ele><time>2026-04-26T12:11:16Z</time></trkpt><trkpt lat="45.330403527182895" lon="8.18717392212911"><ele>171.0</ele><time>2026-04-26T12:11:17Z</time></trkpt><trkpt lat="45.33017096173216" lon="8.187378287786867"><ele>171.0</ele><time>2026-04-26T12:11:18Z</time></trkpt><trkpt lat="45.32993925307668" lon="8.187587235450666"><ele>171.0</ele><time>2026-04-26T12:11:19Z</time></trkpt><trkpt lat="45.32970828402651" lon="8.187797972183759"><ele>171.0</ele><time>2026-04-26T12:11:20Z</time></trkpt><trkpt lat="45.329477924132995" lon="8.1880084540807"><ele>171.0</ele><time>2026-04-26T12:11:21Z</time></trkpt><trkpt lat="45.32924491136141" lon="8.188219446614047"><ele>171.0</ele><time>2026-04-26T12:11:22Z</time></trkpt><trkpt lat="45.329011798355694" lon="8.188431431309327"><ele>171.0</ele><time>2026-04-26T12:11:23Z</time></trkpt><trkpt lat="45.32877781339416" lon="8.188643359830886"><ele>171.0</ele><time>2026-04-26T12:11:24Z</time></trkpt><trkpt lat="45.32854424514408" lon="8.18885482167554"><ele>171.0</ele><time>2026-04-26T12:11:25Z</time></trkpt><trkpt lat="45.32830936914198" lon="8.189067464339105"><ele>171.0</ele><time>2026-04-26T12:11:26Z</time></trkpt><trkpt lat="45.32807543574652" lon="8.189278953801681"><ele>171.0</ele><time>2026-04-26T12:11:27Z</time></trkpt><trkpt lat="45.32784105041987" lon="8.189490625600664"><ele>170.5</ele><time>2026-04-26T12:11:28Z</time></trkpt><trkpt lat="45.32761043954352" lon="8.189698845106589"><ele>170.0</ele><time>2026-04-26T12:11:29Z</time></trkpt><trkpt lat="45.327386643602715" lon="8.189904637038124"><ele>170.0</ele><time>2026-04-26T12:11:30Z</time></trkpt><trkpt lat="45.32716643587248" lon="8.190106148788376"><ele>170.0</ele><time>2026-04-26T12:11:31Z</time></trkpt><trkpt lat="45.32695084290693" lon="8.190304062013483"><ele>170.0</ele><time>2026-04-26T12:11:32Z</time></trkpt><trkpt lat="45.32674578764601" lon="8.190491779917723"><ele>170.0</ele><time>2026-04-26T12:11:33Z</time></trkpt><trkpt lat="45.32654801450562" lon="8.1906704873085"><ele>171.0</ele><time>2026-04-26T12:11:34Z</time></trkpt><trkpt lat="45.326351343933304" lon="8.19084909031247"><ele>172.0</ele><time>2026-04-26T12:11:35Z</time></trkpt><trkpt lat="45.32615915758498" lon="8.19102977826646"><ele>172.0</ele><time>2026-04-26T12:11:36Z</time></trkpt><trkpt lat="45.32596928049615" lon="8.191215861631765"><ele>172.0</ele><time>2026-04-26T12:11:37Z</time></trkpt><trkpt lat="45.3257859686044" lon="8.19141071135707"><ele>172.5</ele><time>2026-04-26T12:11:38Z</time></trkpt><trkpt lat="45.325610939415114" lon="8.191621030844134"><ele>173.0</ele><time>2026-04-26T12:11:39Z</time></trkpt><trkpt lat="45.325436483423594" lon="8.191851136011433"><ele>171.5</ele><time>2026-04-26T12:11:40Z</time></trkpt><trkpt lat="45.32526890596156" lon="8.192079710124117"><ele>170.0</ele><time>2026-04-26T12:11:41Z</time></trkpt><trkpt lat="45.32509973981235" lon="8.192312030869342"><ele>169.5</ele><time>2026-04-26T12:11:42Z</time></trkpt><trkpt lat="45.324922890066986" lon="8.192519883125287"><ele>169.0</ele><time>2026-04-26T12:11:43Z</time></trkpt><trkpt lat="45.324729120627346" lon="8.192699971834367"><ele>169.0</ele><time>2026-04-26T12:11:44Z</time></trkpt><trkpt lat="45.32451466545164" lon="8.192844667597443"><ele>169.0</ele><time>2026-04-26T12:11:45Z</time></trkpt><trkpt lat="45.32429097848081" lon="8.19297118886797"><ele>169.0</ele><time>2026-04-26T12:11:46Z</time></trkpt><trkpt lat="45.32406445939597" lon="8.19310447523772"><ele>169.0</ele><time>2026-04-26T12:11:47Z</time></trkpt><trkpt lat="45.32384081677284" lon="8.193247462001628"><ele>169.0</ele><time>2026-04-26T12:11:48Z</time></trkpt><trkpt lat="45.32361644617525" lon="8.193393916530823"><ele>169.0</ele><time>2026-04-26T12:11:49Z</time></trkpt><trkpt lat="45.3233885355837" lon="8.193540597506196"><ele>169.0</ele><time>2026-04-26T12:11:50Z</time></trkpt><trkpt lat="45.32315869393238" lon="8.193687807311585"><ele>169.0</ele><time>2026-04-26T12:11:51Z</time></trkpt><trkpt lat="45.32292805102104" lon="8.193834285846982"><ele>169.0</ele><time>2026-04-26T12:11:52Z</time></trkpt><trkpt lat="45.32269541740058" lon="8.193979867273026"><ele>169.0</ele><time>2026-04-26T12:11:53Z</time></trkpt><trkpt lat="45.32246054729574" lon="8.19412866173805"><ele>168.5</ele><time>2026-04-26T12:11:54Z</time></trkpt><trkpt lat="45.3222255032275" lon="8.194276560122068"><ele>168.0</ele><time>2026-04-26T12:11:55Z</time></trkpt><trkpt lat="45.321989142050214" lon="8.194428298128306"><ele>168.0</ele><time>2026-04-26T12:11:56Z</time></trkpt><trkpt lat="45.32175600061587" lon="8.19458242502548"><ele>168.0</ele><time>2026-04-26T12:11:57Z</time></trkpt><trkpt lat="45.321528689139654" lon="8.194735544300643"><ele>167.0</ele><time>2026-04-26T12:11:58Z</time></trkpt><trkpt lat="45.32130386189553" lon="8.194883015729932"><ele>166.0</ele><time>2026-04-26T12:11:59Z</time></trkpt><trkpt lat="45.321081598169435" lon="8.195021837207877"><ele>166.0</ele><time>2026-04-26T12:12:00Z</time></trkpt><trkpt lat="45.32086026342497" lon="8.19515774711374"><ele>166.0</ele><time>2026-04-26T12:12:01Z</time></trkpt><trkpt lat="45.32063702835659" lon="8.195304195737712"><ele>165.5</ele><time>2026-04-26T12:12:02Z</time></trkpt><trkpt lat="45.32040275223112" lon="8.195453659703901"><ele>165.0</ele><time>2026-04-26T12:12:03Z</time></trkpt><trkpt lat="45.32016493119607" lon="8.195606408756216"><ele>165.5</ele><time>2026-04-26T12:12:04Z</time></trkpt><trkpt lat="45.31992328083404" lon="8.195762413376048"><ele>166.0</ele><time>2026-04-26T12:12:05Z</time></trkpt><trkpt lat="45.3196779171435" lon="8.195922201064484"><ele>166.0</ele><time>2026-04-26T12:12:06Z</time></trkpt><trkpt lat="45.31943058071971" lon="8.196083495513074"><ele>166.0</ele><time>2026-04-26T12:12:07Z</time></trkpt><trkpt lat="45.319180819478795" lon="8.196245638662086"><ele>166.0</ele><time>2026-04-26T12:12:08Z</time></trkpt><trkpt lat="45.31892787883235" lon="8.196410047765196"><ele>166.0</ele><time>2026-04-26T12:12:09Z</time></trkpt><trkpt lat="45.31867485090809" lon="8.196575299276304"><ele>166.0</ele><time>2026-04-26T12:12:10Z</time></trkpt><trkpt lat="45.31842065210171" lon="8.196741984811778"><ele>166.0</ele><time>2026-04-26T12:12:11Z</time></trkpt><trkpt lat="45.31816485252796" lon="8.196907142875363"><ele>166.5</ele><time>2026-04-26T12:12:12Z</time></trkpt><trkpt lat="45.31790897140024" lon="8.197073380504236"><ele>167.0</ele><time>2026-04-26T12:12:13Z</time></trkpt><trkpt lat="45.317650417753065" lon="8.197240719964439"><ele>167.0</ele><time>2026-04-26T12:12:14Z</time></trkpt><trkpt lat="45.317390351433176" lon="8.197407210995369"><ele>167.0</ele><time>2026-04-26T12:12:15Z</time></trkpt><trkpt lat="45.31712803709019" lon="8.197575103770234"><ele>166.5</ele><time>2026-04-26T12:12:16Z</time></trkpt><trkpt lat="45.316863366952994" lon="8.19774316037056"><ele>166.0</ele><time>2026-04-26T12:12:17Z</time></trkpt><trkpt lat="45.316598335683416" lon="8.197908706092713"><ele>166.0</ele><time>2026-04-26T12:12:18Z</time></trkpt><trkpt lat="45.31633827794297" lon="8.19807553395507"><ele>166.0</ele><time>2026-04-26T12:12:19Z</time></trkpt><trkpt lat="45.31607981119743" lon="8.198241954210012"><ele>166.0</ele><time>2026-04-26T12:12:20Z</time></trkpt><trkpt lat="45.315820256698444" lon="8.198407638781076"><ele>166.0</ele><time>2026-04-26T12:12:21Z</time></trkpt><trkpt lat="45.315564416650076" lon="8.19857401951004"><ele>166.0</ele><time>2026-04-26T12:12:22Z</time></trkpt><trkpt lat="45.3153055508833" lon="8.198740832692426"><ele>166.0</ele><time>2026-04-26T12:12:23Z</time></trkpt><trkpt lat="45.315047676700104" lon="8.198906641560466"><ele>165.5</ele><time>2026-04-26T12:12:24Z</time></trkpt><trkpt lat="45.31479150432549" lon="8.199071095620893"><ele>165.0</ele><time>2026-04-26T12:12:25Z</time></trkpt><trkpt lat="45.31453276518767" lon="8.199236703565035"><ele>165.0</ele><time>2026-04-26T12:12:26Z</time></trkpt><trkpt lat="45.314272915576105" lon="8.199403899925484"><ele>165.0</ele><time>2026-04-26T12:12:27Z</time></trkpt><trkpt lat="45.31401468403568" lon="8.199574407669155"><ele>165.0</ele><time>2026-04-26T12:12:28Z</time></trkpt><trkpt lat="45.31375447610931" lon="8.199747590536743"><ele>165.0</ele><time>2026-04-26T12:12:29Z</time></trkpt><trkpt lat="45.31349397650822" lon="8.199921670235376"><ele>165.0</ele><time>2026-04-26T12:12:30Z</time></trkpt><trkpt lat="45.313232130983394" lon="8.200092948132133"><ele>165.0</ele><time>2026-04-26T12:12:31Z</time></trkpt><trkpt lat="45.312968561695854" lon="8.200261950130937"><ele>165.0</ele><time>2026-04-26T12:12:32Z</time></trkpt><trkpt lat="45.312704178080985" lon="8.200430218989752"><ele>165.0</ele><time>2026-04-26T12:12:33Z</time></trkpt><trkpt lat="45.31244011480283" lon="8.200597056881193"><ele>164.5</ele><time>2026-04-26T12:12:34Z</time></trkpt><trkpt lat="45.3121771242618" lon="8.2007644057761"><ele>164.0</ele><time>2026-04-26T12:12:35Z</time></trkpt><trkpt lat="45.31191371917924" lon="8.200929943161023"><ele>164.0</ele><time>2026-04-26T12:12:36Z</time></trkpt><trkpt lat="45.311652189738226" lon="8.201097445236085"><ele>164.0</ele><time>2026-04-26T12:12:37Z</time></trkpt><trkpt lat="45.311389234080266" lon="8.201265015317508"><ele>164.0</ele><time>2026-04-26T12:12:38Z</time></trkpt><trkpt lat="45.31112818743781" lon="8.201431758505104"><ele>164.0</ele><time>2026-04-26T12:12:39Z</time></trkpt><trkpt lat="45.31086634972134" lon="8.201599776436783"><ele>164.0</ele><time>2026-04-26T12:12:40Z</time></trkpt><trkpt lat="45.310603353804275" lon="8.201764881778862"><ele>164.0</ele><time>2026-04-26T12:12:41Z</time></trkpt><trkpt lat="45.310345553756505" lon="8.201931919203872"><ele>164.0</ele><time>2026-04-26T12:12:42Z</time></trkpt><trkpt lat="45.31008834614524" lon="8.20210090543433"><ele>164.0</ele><time>2026-04-26T12:12:43Z</time></trkpt><trkpt lat="45.309837901006944" lon="8.20227969791839"><ele>164.0</ele><time>2026-04-26T12:12:44Z</time></trkpt><trkpt lat="45.309590775278124" lon="8.202470040986912"><ele>164.0</ele><time>2026-04-26T12:12:45Z</time></trkpt><trkpt lat="45.309364099464986" lon="8.202691811282014"><ele>164.0</ele><time>2026-04-26T12:12:46Z</time></trkpt><trkpt lat="45.30915476575854" lon="8.202945908346"><ele>164.0</ele><time>2026-04-26T12:12:47Z</time></trkpt><trkpt lat="45.30895874340033" lon="8.203220412892913"><ele>163.5</ele><time>2026-04-26T12:12:48Z</time></trkpt><trkpt lat="45.30876499432697" lon="8.203497836552845"><ele>163.0</ele><time>2026-04-26T12:12:49Z</time></trkpt><trkpt lat="45.308564924698054" lon="8.203770038171179"><ele>163.0</ele><time>2026-04-26T12:12:50Z</time></trkpt><trkpt lat="45.30836165395881" lon="8.204038749303322"><ele>163.0</ele><time>2026-04-26T12:12:51Z</time></trkpt><trkpt lat="45.30815723132755" lon="8.204307388021116"><ele>163.5</ele><time>2026-04-26T12:12:52Z</time></trkpt><trkpt lat="45.307954027647234" lon="8.204579407224214"><ele>164.0</ele><time>2026-04-26T12:12:53Z</time></trkpt><trkpt lat="45.307752487283615" lon="8.204852687956333"><ele>163.0</ele><time>2026-04-26T12:12:54Z</time></trkpt><trkpt lat="45.30755074286293" lon="8.20512685887793"><ele>162.0</ele><time>2026-04-26T12:12:55Z</time></trkpt><trkpt lat="45.30734657701063" lon="8.205403031306721"><ele>161.5</ele><time>2026-04-26T12:12:56Z</time></trkpt><trkpt lat="45.307142588998836" lon="8.205675964289918"><ele>161.0</ele><time>2026-04-26T12:12:57Z</time></trkpt><trkpt lat="45.306937995299805" lon="8.205951292977387"><ele>161.0</ele><time>2026-04-26T12:12:58Z</time></trkpt><trkpt lat="45.30673484962841" lon="8.206227892197179"><ele>161.0</ele><time>2026-04-26T12:12:59Z</time></trkpt><trkpt lat="45.30653142512485" lon="8.206507348063079"><ele>161.5</ele><time>2026-04-26T12:13:00Z</time></trkpt><trkpt lat="45.3063296049072" lon="8.206787208961279"><ele>162.0</ele><time>2026-04-26T12:13:01Z</time></trkpt><trkpt lat="45.30612531772724" lon="8.207068462262258"><ele>161.5</ele><time>2026-04-26T12:13:02Z</time></trkpt><trkpt lat="45.305919590969765" lon="8.207347579198066"><ele>161.0</ele><time>2026-04-26T12:13:03Z</time></trkpt><trkpt lat="45.30571140274693" lon="8.207624202771573"><ele>161.0</ele><time>2026-04-26T12:13:04Z</time></trkpt><trkpt lat="45.30550233448425" lon="8.207904605513876"><ele>161.0</ele><time>2026-04-26T12:13:05Z</time></trkpt><trkpt lat="45.30529249406805" lon="8.208184677864432"><ele>161.5</ele><time>2026-04-26T12:13:06Z</time></trkpt><trkpt lat="45.30508176067582" lon="8.208465983257833"><ele>162.0</ele><time>2026-04-26T12:13:07Z</time></trkpt><trkpt lat="45.30487394154243" lon="8.208748364721043"><ele>161.0</ele><time>2026-04-26T12:13:08Z</time></trkpt><trkpt lat="45.30466612929674" lon="8.209033697004712"><ele>160.0</ele><time>2026-04-26T12:13:09Z</time></trkpt><trkpt lat="45.304458071801356" lon="8.209319063616071"><ele>160.0</ele><time>2026-04-26T12:13:10Z</time></trkpt><trkpt lat="45.30424926030764" lon="8.209606573366246"><ele>160.0</ele><time>2026-04-26T12:13:11Z</time></trkpt><trkpt lat="45.30404012934394" lon="8.209892587467039"><ele>160.0</ele><time>2026-04-26T12:13:12Z</time></trkpt><trkpt lat="45.303828556304374" lon="8.210179451139648"><ele>160.0</ele><time>2026-04-26T12:13:13Z</time></trkpt><trkpt lat="45.303614699655455" lon="8.210465686618775"><ele>160.0</ele><time>2026-04-26T12:13:14Z</time></trkpt><trkpt lat="45.30339863337921" lon="8.210750923222015"><ele>160.0</ele><time>2026-04-26T12:13:15Z</time></trkpt><trkpt lat="45.30318258838965" lon="8.211037602410066"><ele>160.0</ele><time>2026-04-26T12:13:16Z</time></trkpt><trkpt lat="45.302969153525495" lon="8.211326630169518"><ele>160.0</ele><time>2026-04-26T12:13:17Z</time></trkpt><trkpt lat="45.30275589959856" lon="8.211618548468115"><ele>160.5</ele><time>2026-04-26T12:13:18Z</time></trkpt><trkpt lat="45.302541920028894" lon="8.211910499890163"><ele>161.0</ele><time>2026-04-26T12:13:19Z</time></trkpt><trkpt lat="45.30232647998271" lon="8.212197682942012"><ele>161.5</ele><time>2026-04-26T12:13:20Z</time></trkpt><trkpt lat="45.30211102153603" lon="8.212486487989796"><ele>162.0</ele><time>2026-04-26T12:13:21Z</time></trkpt><trkpt lat="45.3018958563798" lon="8.212773626424786"><ele>162.0</ele><time>2026-04-26T12:13:22Z</time></trkpt><trkpt lat="45.30168072400933" lon="8.213062624163285"><ele>162.0</ele><time>2026-04-26T12:13:23Z</time></trkpt><trkpt lat="45.301465178142024" lon="8.213355143982621"><ele>161.5</ele><time>2026-04-26T12:13:24Z</time></trkpt><trkpt lat="45.30125018040455" lon="8.213648434632134"><ele>161.0</ele><time>2026-04-26T12:13:25Z</time></trkpt><trkpt lat="45.301036242492756" lon="8.213942116897417"><ele>161.0</ele><time>2026-04-26T12:13:26Z</time></trkpt><trkpt lat="45.3008207763896" lon="8.214238165673995"><ele>161.0</ele><time>2026-04-26T12:13:27Z</time></trkpt><trkpt lat="45.30060483392235" lon="8.214532167401037"><ele>160.0</ele><time>2026-04-26T12:13:28Z</time></trkpt><trkpt lat="45.30038760227264" lon="8.21482490293858"><ele>159.0</ele><time>2026-04-26T12:13:29Z</time></trkpt><trkpt lat="45.30016982939665" lon="8.215115350237259"><ele>159.0</ele><time>2026-04-26T12:13:30Z</time></trkpt><trkpt lat="45.299951069492074" lon="8.21540520130437"><ele>159.0</ele><time>2026-04-26T12:13:31Z</time></trkpt><trkpt lat="45.29973404821187" lon="8.215696185536936"><ele>160.0</ele><time>2026-04-26T12:13:32Z</time></trkpt><trkpt lat="45.299515940970686" lon="8.215988588789203"><ele>161.0</ele><time>2026-04-26T12:13:33Z</time></trkpt><trkpt lat="45.29929838930817" lon="8.216284302800354"><ele>160.0</ele><time>2026-04-26T12:13:34Z</time></trkpt><trkpt lat="45.299082203303804" lon="8.2165825405685"><ele>159.0</ele><time>2026-04-26T12:13:35Z</time></trkpt><trkpt lat="45.298866800427604" lon="8.216882451388617"><ele>159.0</ele><time>2026-04-26T12:13:36Z</time></trkpt><trkpt lat="45.29864941635199" lon="8.217181816927539"><ele>159.0</ele><time>2026-04-26T12:13:37Z</time></trkpt><trkpt lat="45.298429144785395" lon="8.217478626047695"><ele>159.0</ele><time>2026-04-26T12:13:38Z</time></trkpt><trkpt lat="45.29820597289609" lon="8.217775911055947"><ele>159.0</ele><time>2026-04-26T12:13:39Z</time></trkpt><trkpt lat="45.29798364666968" lon="8.218073049709357"><ele>158.5</ele><time>2026-04-26T12:13:40Z</time></trkpt><trkpt lat="45.29776041322628" lon="8.218369846766045"><ele>158.0</ele><time>2026-04-26T12:13:41Z</time></trkpt><trkpt lat="45.297537792545924" lon="8.21866681211543"><ele>158.0</ele><time>2026-04-26T12:13:42Z</time></trkpt><trkpt lat="45.29731435382861" lon="8.218965867907576"><ele>158.0</ele><time>2026-04-26T12:13:43Z</time></trkpt><trkpt lat="45.29709381539484" lon="8.219266881037422"><ele>158.0</ele><time>2026-04-26T12:13:44Z</time></trkpt><trkpt lat="45.29687547762533" lon="8.219568035846542"><ele>158.0</ele><time>2026-04-26T12:13:45Z</time></trkpt><trkpt lat="45.29665722639134" lon="8.21986714792762"><ele>158.0</ele><time>2026-04-26T12:13:46Z</time></trkpt><trkpt lat="45.29643762397708" lon="8.220164419959294"><ele>158.0</ele><time>2026-04-26T12:13:47Z</time></trkpt><trkpt lat="45.296215735128975" lon="8.220461177548346"><ele>157.5</ele><time>2026-04-26T12:13:48Z</time></trkpt><trkpt lat="45.29599346010461" lon="8.22075726169266"><ele>157.0</ele><time>2026-04-26T12:13:49Z</time></trkpt><trkpt lat="45.29577437077627" lon="8.221054247039588"><ele>157.0</ele><time>2026-04-26T12:13:50Z</time></trkpt><trkpt lat="45.29555683125522" lon="8.221349783764838"><ele>157.0</ele><time>2026-04-26T12:13:51Z</time></trkpt><trkpt lat="45.295340377633075" lon="8.221643593970585"><ele>157.0</ele><time>2026-04-26T12:13:52Z</time></trkpt><trkpt lat="45.29512221532684" lon="8.221937084010142"><ele>157.0</ele><time>2026-04-26T12:13:53Z</time></trkpt><trkpt lat="45.294903556279685" lon="8.222230175605448"><ele>157.0</ele><time>2026-04-26T12:13:54Z</time></trkpt><trkpt lat="45.294685217133896" lon="8.222525139762583"><ele>157.0</ele><time>2026-04-26T12:13:55Z</time></trkpt><trkpt lat="45.294467153229824" lon="8.222819752251308"><ele>157.0</ele><time>2026-04-26T12:13:56Z</time></trkpt><trkpt lat="45.29424844924262" lon="8.223115082518598"><ele>157.0</ele><time>2026-04-26T12:13:57Z</time></trkpt><trkpt lat="45.29403079339029" lon="8.223413329113793"><ele>157.0</ele><time>2026-04-26T12:13:58Z</time></trkpt><trkpt lat="45.29382024671334" lon="8.223719638204269"><ele>157.0</ele><time>2026-04-26T12:13:59Z</time></trkpt><trkpt lat="45.29362473552237" lon="8.224039064109693"><ele>157.0</ele><time>2026-04-26T12:14:00Z</time></trkpt><trkpt lat="45.29343655278061" lon="8.224362260330317"><ele>157.0</ele><time>2026-04-26T12:14:01Z</time></trkpt><trkpt lat="45.293250318040855" lon="8.22468724990661"><ele>156.5</ele><time>2026-04-26T12:14:02Z</time></trkpt><trkpt lat="45.29306348256006" lon="8.225014468968984"><ele>156.0</ele><time>2026-04-26T12:14:03Z</time></trkpt><trkpt lat="45.29287571079565" lon="8.225339113929081"><ele>156.0</ele><time>2026-04-26T12:14:04Z</time></trkpt><trkpt lat="45.292686792252745" lon="8.22566108231478"><ele>156.0</ele><time>2026-04-26T12:14:05Z</time></trkpt><trkpt lat="45.29249818794694" lon="8.225981299483646"><ele>156.0</ele><time>2026-04-26T12:14:06Z</time></trkpt><trkpt lat="45.292311276243524" lon="8.226302651452427"><ele>156.0</ele><time>2026-04-26T12:14:07Z</time></trkpt><trkpt lat="45.292124720378126" lon="8.22662659411432"><ele>156.0</ele><time>2026-04-26T12:14:08Z</time></trkpt><trkpt lat="45.291940691003155" lon="8.226950411377448"><ele>156.0</ele><time>2026-04-26T12:14:09Z</time></trkpt><trkpt lat="45.291756775189555" lon="8.227274071975001"><ele>156.0</ele><time>2026-04-26T12:14:10Z</time></trkpt><trkpt lat="45.29157151363981" lon="8.227596867871181"><ele>156.0</ele><time>2026-04-26T12:14:11Z</time></trkpt><trkpt lat="45.29138485601833" lon="8.22792047134094"><ele>156.0</ele><time>2026-04-26T12:14:12Z</time></trkpt><trkpt lat="45.29119803438015" lon="8.228242848674308"><ele>156.0</ele><time>2026-04-26T12:14:13Z</time></trkpt><trkpt lat="45.29101203098124" lon="8.228563217541293"><ele>156.0</ele><time>2026-04-26T12:14:14Z</time></trkpt><trkpt lat="45.290828467172126" lon="8.228882804771333"><ele>156.0</ele><time>2026-04-26T12:14:15Z</time></trkpt><trkpt lat="45.290645276098445" lon="8.229201328587417"><ele>156.0</ele><time>2026-04-26T12:14:16Z</time></trkpt><trkpt lat="45.290461691467215" lon="8.229517710441606"><ele>156.0</ele><time>2026-04-26T12:14:17Z</time></trkpt><trkpt lat="45.29027910508974" lon="8.229831917166512"><ele>156.0</ele><time>2026-04-26T12:14:18Z</time></trkpt><trkpt lat="45.290097092846494" lon="8.230144683977086"><ele>156.0</ele><time>2026-04-26T12:14:19Z</time></trkpt><trkpt lat="45.28991651584241" lon="8.230457325048134"><ele>155.0</ele><time>2026-04-26T12:14:20Z</time></trkpt><trkpt lat="45.28973740378721" lon="8.23076977526604"><ele>154.0</ele><time>2026-04-26T12:14:21Z</time></trkpt><trkpt lat="45.289558037728185" lon="8.231082948178141"><ele>154.0</ele><time>2026-04-26T12:14:22Z</time></trkpt><trkpt lat="45.28937825115537" lon="8.231396453241434"><ele>154.0</ele><time>2026-04-26T12:14:23Z</time></trkpt><trkpt lat="45.289198417162176" lon="8.23171096957299"><ele>154.0</ele><time>2026-04-26T12:14:24Z</time></trkpt><trkpt lat="45.28901797038005" lon="8.232025910349114"><ele>154.0</ele><time>2026-04-26T12:14:25Z</time></trkpt><trkpt lat="45.28883714535533" lon="8.232340649418267"><ele>154.0</ele><time>2026-04-26T12:14:26Z</time></trkpt><trkpt lat="45.28865624516777" lon="8.232656996452425"><ele>154.0</ele><time>2026-04-26T12:14:27Z</time></trkpt><trkpt lat="45.28847473065946" lon="8.232974067441877"><ele>154.5</ele><time>2026-04-26T12:14:28Z</time></trkpt><trkpt lat="45.28829377610477" lon="8.233290138952215"><ele>155.0</ele><time>2026-04-26T12:14:29Z</time></trkpt><trkpt lat="45.28811055494852" lon="8.233607306565435"><ele>154.5</ele><time>2026-04-26T12:14:30Z</time></trkpt><trkpt lat="45.287927082326846" lon="8.23392585047399"><ele>154.0</ele><time>2026-04-26T12:14:31Z</time></trkpt><trkpt lat="45.287743693740374" lon="8.234244547597111"><ele>154.0</ele><time>2026-04-26T12:14:32Z</time></trkpt><trkpt lat="45.2875597027337" lon="8.234564354993827"><ele>154.0</ele><time>2026-04-26T12:14:33Z</time></trkpt><trkpt lat="45.287376396836756" lon="8.23488114962709"><ele>153.0</ele><time>2026-04-26T12:14:34Z</time></trkpt><trkpt lat="45.287193618737646" lon="8.235197031461142"><ele>152.0</ele><time>2026-04-26T12:14:35Z</time></trkpt><trkpt lat="45.28701193586038" lon="8.235512167767627"><ele>152.5</ele><time>2026-04-26T12:14:36Z</time></trkpt><trkpt lat="45.28683157009356" lon="8.235827536386584"><ele>153.0</ele><time>2026-04-26T12:14:37Z</time></trkpt><trkpt lat="45.28665270739691" lon="8.236143897436135"><ele>153.0</ele><time>2026-04-26T12:14:38Z</time></trkpt><trkpt lat="45.2864748709083" lon="8.236459483307213"><ele>153.0</ele><time>2026-04-26T12:14:39Z</time></trkpt><trkpt lat="45.286297006808184" lon="8.236773344983542"><ele>153.0</ele><time>2026-04-26T12:14:40Z</time></trkpt><trkpt lat="45.28611650506188" lon="8.237086692834893"><ele>153.0</ele><time>2026-04-26T12:14:41Z</time></trkpt><trkpt lat="45.2859333225946" lon="8.237399282914229"><ele>153.0</ele><time>2026-04-26T12:14:42Z</time></trkpt><trkpt lat="45.28574960664089" lon="8.237712283616508"><ele>153.0</ele><time>2026-04-26T12:14:43Z</time></trkpt><trkpt lat="45.285564625333166" lon="8.238025791864217"><ele>152.0</ele><time>2026-04-26T12:14:44Z</time></trkpt><trkpt lat="45.285378386386625" lon="8.238337080537292"><ele>151.0</ele><time>2026-04-26T12:14:45Z</time></trkpt><trkpt lat="45.28518941605886" lon="8.238648404678838"><ele>151.0</ele><time>2026-04-26T12:14:46Z</time></trkpt><trkpt lat="45.28499807827274" lon="8.238957510447026"><ele>151.0</ele><time>2026-04-26T12:14:47Z</time></trkpt><trkpt lat="45.28480386133592" lon="8.239261651207766"><ele>151.5</ele><time>2026-04-26T12:14:48Z</time></trkpt><trkpt lat="45.284608661404974" lon="8.239564045063617"><ele>152.0</ele><time>2026-04-26T12:14:49Z</time></trkpt><trkpt lat="45.284412452856344" lon="8.239865896664396"><ele>152.0</ele><time>2026-04-26T12:14:50Z</time></trkpt><trkpt lat="45.284216874310026" lon="8.240167767338916"><ele>152.0</ele><time>2026-04-26T12:14:51Z</time></trkpt><trkpt lat="45.28402019750749" lon="8.24047089829065"><ele>151.5</ele><time>2026-04-26T12:14:52Z</time></trkpt><trkpt lat="45.28382458135435" lon="8.240773506611133"><ele>151.0</ele><time>2026-04-26T12:14:53Z</time></trkpt><trkpt lat="45.28362929297869" lon="8.241077460373322"><ele>151.0</ele><time>2026-04-26T12:14:54Z</time></trkpt><trkpt lat="45.28343339652475" lon="8.241383838477018"><ele>151.0</ele><time>2026-04-26T12:14:55Z</time></trkpt><trkpt lat="45.28323567320887" lon="8.24169162128011"><ele>151.0</ele><time>2026-04-26T12:14:56Z</time></trkpt><trkpt lat="45.283038197190905" lon="8.241998569655877"><ele>151.0</ele><time>2026-04-26T12:14:57Z</time></trkpt><trkpt lat="45.28284115117867" lon="8.242304144561857"><ele>151.0</ele><time>2026-04-26T12:14:58Z</time></trkpt><trkpt lat="45.28264746287329" lon="8.24261020971443"><ele>151.0</ele><time>2026-04-26T12:14:59Z</time></trkpt><trkpt lat="45.28245604279954" lon="8.24291845929297"><ele>151.0</ele><time>2026-04-26T12:15:00Z</time></trkpt><trkpt lat="45.28226660227844" lon="8.243228470278133"><ele>151.0</ele><time>2026-04-26T12:15:01Z</time></trkpt><trkpt lat="45.28208035230385" lon="8.243542396362164"><ele>151.0</ele><time>2026-04-26T12:15:02Z</time></trkpt><trkpt lat="45.28189477763495" lon="8.243856384966042"><ele>151.0</ele><time>2026-04-26T12:15:03Z</time></trkpt><trkpt lat="45.28170686494476" lon="8.244168764806442"><ele>151.0</ele><time>2026-04-26T12:15:04Z</time></trkpt><trkpt lat="45.281516726121154" lon="8.244482418565044"><ele>151.0</ele><time>2026-04-26T12:15:05Z</time></trkpt><trkpt lat="45.28132711006507" lon="8.244797426730626"><ele>151.0</ele><time>2026-04-26T12:15:06Z</time></trkpt><trkpt lat="45.28113811913175" lon="8.24511201487199"><ele>151.0</ele><time>2026-04-26T12:15:07Z</time></trkpt><trkpt lat="45.28095044503065" lon="8.245427339266671"><ele>151.0</ele><time>2026-04-26T12:15:08Z</time></trkpt><trkpt lat="45.280762096102144" lon="8.245741599418288"><ele>151.0</ele><time>2026-04-26T12:15:09Z</time></trkpt><trkpt lat="45.280575352969116" lon="8.246055270852123"><ele>151.0</ele><time>2026-04-26T12:15:10Z</time></trkpt><trkpt lat="45.28039092921353" lon="8.246369937248275"><ele>151.0</ele><time>2026-04-26T12:15:11Z</time></trkpt><trkpt lat="45.28021242349667" lon="8.246687084494626"><ele>151.0</ele><time>2026-04-26T12:15:12Z</time></trkpt><trkpt lat="45.280040577113304" lon="8.247010798515138"><ele>151.0</ele><time>2026-04-26T12:15:13Z</time></trkpt><trkpt lat="45.27987153245307" lon="8.247335455919611"><ele>150.0</ele><time>2026-04-26T12:15:14Z</time></trkpt><trkpt lat="45.27970826256854" lon="8.247657218913272"><ele>149.0</ele><time>2026-04-26T12:15:15Z</time></trkpt><trkpt lat="45.27954325430497" lon="8.247980054502703"><ele>149.0</ele><time>2026-04-26T12:15:16Z</time></trkpt><trkpt lat="45.2793896481645" lon="8.24830996795425"><ele>149.0</ele><time>2026-04-26T12:15:17Z</time></trkpt><trkpt lat="45.2792485498378" lon="8.248652080266647"><ele>148.5</ele><time>2026-04-26T12:15:18Z</time></trkpt><trkpt lat="45.27911602095035" lon="8.24900453321238"><ele>148.0</ele><time>2026-04-26T12:15:19Z</time></trkpt><trkpt lat="45.27898978550455" lon="8.249360794561653"><ele>148.0</ele><time>2026-04-26T12:15:20Z</time></trkpt><trkpt lat="45.27886394658947" lon="8.249722446928107"><ele>148.0</ele><time>2026-04-26T12:15:21Z</time></trkpt><trkpt lat="45.27873576344304" lon="8.250081190602437"><ele>148.5</ele><time>2026-04-26T12:15:22Z</time></trkpt><trkpt lat="45.27860361398368" lon="8.250439209519595"><ele>149.0</ele><time>2026-04-26T12:15:23Z</time></trkpt><trkpt lat="45.27847262913417" lon="8.250795501547687"><ele>149.0</ele><time>2026-04-26T12:15:24Z</time></trkpt><trkpt lat="45.278343410154655" lon="8.251153043207655"><ele>149.0</ele><time>2026-04-26T12:15:25Z</time></trkpt><trkpt lat="45.27821590840986" lon="8.25150884646935"><ele>149.0</ele><time>2026-04-26T12:15:26Z</time></trkpt><trkpt lat="45.278088540943074" lon="8.251863707686299"><ele>149.0</ele><time>2026-04-26T12:15:27Z</time></trkpt><trkpt lat="45.2779607079156" lon="8.252216803057253"><ele>149.0</ele><time>2026-04-26T12:15:28Z</time></trkpt><trkpt lat="45.27783314443752" lon="8.252566542238053"><ele>149.0</ele><time>2026-04-26T12:15:29Z</time></trkpt><trkpt lat="45.27771465023803" lon="8.252896373309058"><ele>148.5</ele><time>2026-04-26T12:15:30Z</time></trkpt><trkpt lat="45.27760510764626" lon="8.253206115329888"><ele>148.0</ele><time>2026-04-26T12:15:31Z</time></trkpt><trkpt lat="45.27749849099735" lon="8.253503722608228"><ele>148.0</ele><time>2026-04-26T12:15:32Z</time></trkpt><trkpt lat="45.27739411487772" lon="8.253794576884951"><ele>148.0</ele><time>2026-04-26T12:15:33Z</time></trkpt><trkpt lat="45.27729850272967" lon="8.25406299242817"><ele>148.0</ele><time>2026-04-26T12:15:34Z</time></trkpt><trkpt lat="45.27720858182334" lon="8.2543190242089"><ele>148.66666666666669</ele><time>2026-04-26T12:15:35Z</time></trkpt><trkpt lat="45.277123613335526" lon="8.254557621880455"><ele>149.33333333333334</ele><time>2026-04-26T12:15:36Z</time></trkpt><trkpt lat="45.27703854447806" lon="8.254789333379716"><ele>150.0</ele><time>2026-04-26T12:15:37Z</time></trkpt><trkpt lat="45.27695881875073" lon="8.255007631049553"><ele>150.66666666666666</ele><time>2026-04-26T12:15:38Z</time></trkpt><trkpt lat="45.276886270903276" lon="8.255217459989955"><ele>151.33333333333331</ele><time>2026-04-26T12:15:39Z</time></trkpt><trkpt lat="45.27681191214475" lon="8.255418451241804"><ele>152.0</ele><time>2026-04-26T12:15:40Z</time></trkpt><trkpt lat="45.27672711531876" lon="8.255598475080225"><ele>152.0</ele><time>2026-04-26T12:15:41Z</time></trkpt><trkpt lat="45.27661240805439" lon="8.255731957303604"><ele>152.0</ele><time>2026-04-26T12:15:42Z</time></trkpt><trkpt lat="45.276449499127814" lon="8.255800468338352"><ele>152.0</ele><time>2026-04-26T12:15:43Z</time></trkpt><trkpt lat="45.27628811944115" lon="8.255841616753917"><ele>151.0</ele><time>2026-04-26T12:15:44Z</time></trkpt><trkpt lat="45.27611316530937" lon="8.25584666922113"><ele>150.0</ele><time>2026-04-26T12:15:45Z</time></trkpt><trkpt lat="45.275928361627344" lon="8.255832672008983"><ele>149.0</ele><time>2026-04-26T12:15:46Z</time></trkpt><trkpt lat="45.27573657299827" lon="8.255817902028886"><ele>148.33333333333331</ele><time>2026-04-26T12:15:47Z</time></trkpt><trkpt lat="45.27554394174803" lon="8.255807009473623"><ele>147.66666666666666</ele><time>2026-04-26T12:15:48Z</time></trkpt><trkpt lat="45.27534573495533" lon="8.255791840320098"><ele>147.0</ele><time>2026-04-26T12:15:49Z</time></trkpt><trkpt lat="45.27512529231631" lon="8.255776254730922"><ele>147.0</ele><time>2026-04-26T12:15:50Z</time></trkpt><trkpt lat="45.274894470734104" lon="8.255747041285444"><ele>147.0</ele><time>2026-04-26T12:15:51Z</time></trkpt><trkpt lat="45.2746586339748" lon="8.255693631192415"><ele>147.5</ele><time>2026-04-26T12:15:52Z</time></trkpt><trkpt lat="45.27441656076602" lon="8.255581063301477"><ele>148.0</ele><time>2026-04-26T12:15:53Z</time></trkpt><trkpt lat="45.27418198333383" lon="8.25548108159055"><ele>148.0</ele><time>2026-04-26T12:15:54Z</time></trkpt><trkpt lat="45.27393906484892" lon="8.255400959858834"><ele>148.0</ele><time>2026-04-26T12:15:55Z</time></trkpt><trkpt lat="45.27369605513794" lon="8.255290579604322"><ele>147.5</ele><time>2026-04-26T12:15:56Z</time></trkpt><trkpt lat="45.273450656907826" lon="8.255183755897612"><ele>147.0</ele><time>2026-04-26T12:15:57Z</time></trkpt><trkpt lat="45.27320278179571" lon="8.255072437515569"><ele>147.0</ele><time>2026-04-26T12:15:58Z</time></trkpt><trkpt lat="45.27295449724588" lon="8.254946001556025"><ele>147.0</ele><time>2026-04-26T12:15:59Z</time></trkpt><trkpt lat="45.2727086962655" lon="8.254799246755931"><ele>147.0</ele><time>2026-04-26T12:16:00Z</time></trkpt><trkpt lat="45.272462505357105" lon="8.254639786763937"><ele>147.0</ele><time>2026-04-26T12:16:01Z</time></trkpt><trkpt lat="45.27221703297866" lon="8.254470566672257"><ele>146.5</ele><time>2026-04-26T12:16:02Z</time></trkpt><trkpt lat="45.27196999518138" lon="8.254298842546335"><ele>146.0</ele><time>2026-04-26T12:16:03Z</time></trkpt><trkpt lat="45.27172277070302" lon="8.254131502748685"><ele>146.0</ele><time>2026-04-26T12:16:04Z</time></trkpt><trkpt lat="45.271473706590555" lon="8.253967801771154"><ele>146.0</ele><time>2026-04-26T12:16:05Z</time></trkpt><trkpt lat="45.271229834653475" lon="8.25380687293984"><ele>147.0</ele><time>2026-04-26T12:16:06Z</time></trkpt><trkpt lat="45.270991623111875" lon="8.253651099944443"><ele>148.0</ele><time>2026-04-26T12:16:07Z</time></trkpt><trkpt lat="45.27076162115176" lon="8.253499011866497"><ele>148.5</ele><time>2026-04-26T12:16:08Z</time></trkpt><trkpt lat="45.270536449341044" lon="8.253349128940611"><ele>149.0</ele><time>2026-04-26T12:16:09Z</time></trkpt><trkpt lat="45.27031868726521" lon="8.253205008814913"><ele>148.66666666666666</ele><time>2026-04-26T12:16:10Z</time></trkpt><trkpt lat="45.270109524890685" lon="8.253065767720157"><ele>148.33333333333334</ele><time>2026-04-26T12:16:11Z</time></trkpt><trkpt lat="45.26991341261994" lon="8.252933412627009"><ele>148.0</ele><time>2026-04-26T12:16:12Z</time></trkpt><trkpt lat="45.26972913009365" lon="8.252808584646662"><ele>148.66666666666669</ele><time>2026-04-26T12:16:13Z</time></trkpt><trkpt lat="45.26955621474477" lon="8.252688197873281"><ele>149.33333333333334</ele><time>2026-04-26T12:16:14Z</time></trkpt><trkpt lat="45.269394026135885" lon="8.252576487589076"><ele>150.0</ele><time>2026-04-26T12:16:15Z</time></trkpt><trkpt lat="45.26923883805939" lon="8.252497759197139"><ele>150.0</ele><time>2026-04-26T12:16:16Z</time></trkpt><trkpt lat="45.269080420364354" lon="8.252439148044617"><ele>150.0</ele><time>2026-04-26T12:16:17Z</time></trkpt><trkpt lat="45.26891676191656" lon="8.2523959112271"><ele>150.0</ele><time>2026-04-26T12:16:18Z</time></trkpt><trkpt lat="45.268762562847584" lon="8.252355173476793"><ele>150.5</ele><time>2026-04-26T12:16:19Z</time></trkpt><trkpt lat="45.26861689323885" lon="8.252325112727032"><ele>151.0</ele><time>2026-04-26T12:16:20Z</time></trkpt><trkpt lat="45.26840831584811" lon="8.252714768473863"><ele>151.0</ele><time>2026-04-26T12:16:21Z</time></trkpt><trkpt lat="45.268250182464065" lon="8.25289753765734"><ele>151.0</ele><time>2026-04-26T12:16:22Z</time></trkpt><trkpt lat="45.26808841470861" lon="8.253083534359341"><ele>151.0</ele><time>2026-04-26T12:16:23Z</time></trkpt><trkpt lat="45.26791453106916" lon="8.253273965286496"><ele>150.66666666666669</ele><time>2026-04-26T12:16:24Z</time></trkpt><trkpt lat="45.26773900306332" lon="8.253461823163759"><ele>150.33333333333334</ele><time>2026-04-26T12:16:25Z</time></trkpt><trkpt lat="45.26756363670734" lon="8.253643603558682"><ele>150.0</ele><time>2026-04-26T12:16:26Z</time></trkpt><trkpt lat="45.26739181525357" lon="8.253821397244907"><ele>149.66666666666666</ele><time>2026-04-26T12:16:27Z</time></trkpt><trkpt lat="45.26723237618774" lon="8.253985171825367"><ele>149.33333333333331</ele><time>2026-04-26T12:16:28Z</time></trkpt><trkpt lat="45.26708923044704" lon="8.254136974582346"><ele>149.0</ele><time>2026-04-26T12:16:29Z</time></trkpt><trkpt lat="45.2669543933408" lon="8.254274798708249"><ele>149.0</ele><time>2026-04-26T12:16:30Z</time></trkpt><trkpt lat="45.26682773425024" lon="8.254397710850622"><ele>149.0</ele><time>2026-04-26T12:16:31Z</time></trkpt><trkpt lat="45.26671071174438" lon="8.254510950268063"><ele>149.0</ele><time>2026-04-26T12:16:32Z</time></trkpt><trkpt lat="45.26660456352969" lon="8.254613599010025"><ele>149.0</ele><time>2026-04-26T12:16:33Z</time></trkpt><trkpt lat="45.26651574935129" lon="8.254687747956321"><ele>149.33333333333331</ele><time>2026-04-26T12:16:34Z</time></trkpt><trkpt lat="45.26643985677017" lon="8.254739534200032"><ele>149.66666666666666</ele><time>2026-04-26T12:16:35Z</time></trkpt><trkpt lat="45.266365677612754" lon="8.254759098709043"><ele>150.0</ele><time>2026-04-26T12:16:36Z</time></trkpt><trkpt lat="45.26628763934258" lon="8.254740609790884"><ele>150.33333333333334</ele><time>2026-04-26T12:16:37Z</time></trkpt><trkpt lat="45.26619828560297" lon="8.254737729301066"><ele>150.66666666666669</ele><time>2026-04-26T12:16:38Z</time></trkpt><trkpt lat="45.266103128025314" lon="8.254790908973217"><ele>151.0</ele><time>2026-04-26T12:16:39Z</time></trkpt><trkpt lat="45.26602774919641" lon="8.254914815065286"><ele>151.0</ele><time>2026-04-26T12:16:40Z</time></trkpt><trkpt lat="45.26599103675402" lon="8.255086181932576"><ele>151.0</ele><time>2026-04-26T12:16:41Z</time></trkpt><trkpt lat="45.26595406599436" lon="8.255265189653498"><ele>151.0</ele><time>2026-04-26T12:16:42Z</time></trkpt><trkpt lat="45.265859176619635" lon="8.255412785686984"><ele>151.0</ele><time>2026-04-26T12:16:43Z</time></trkpt><trkpt lat="45.265705515375316" lon="8.2555334950785"><ele>150.0</ele><time>2026-04-26T12:16:44Z</time></trkpt><trkpt lat="45.26556302352074" lon="8.255654993577933"><ele>149.0</ele><time>2026-04-26T12:16:45Z</time></trkpt><trkpt lat="45.265419479535296" lon="8.255793617964457"><ele>148.0</ele><time>2026-04-26T12:16:46Z</time></trkpt><trkpt lat="45.26526405088332" lon="8.255954055063272"><ele>148.0</ele><time>2026-04-26T12:16:47Z</time></trkpt><trkpt lat="45.26509710064076" lon="8.256130967212373"><ele>148.0</ele><time>2026-04-26T12:16:48Z</time></trkpt><trkpt lat="45.264934372149646" lon="8.256293493161353"><ele>148.0</ele><time>2026-04-26T12:16:49Z</time></trkpt><trkpt lat="45.2647743808407" lon="8.25646094554361"><ele>148.66666666666669</ele><time>2026-04-26T12:16:50Z</time></trkpt><trkpt lat="45.26460302113366" lon="8.256630636766525"><ele>149.33333333333334</ele><time>2026-04-26T12:16:51Z</time></trkpt><trkpt lat="45.26442612796369" lon="8.256806135560192"><ele>150.0</ele><time>2026-04-26T12:16:52Z</time></trkpt><trkpt lat="45.264246564980425" lon="8.25698670262887"><ele>150.0</ele><time>2026-04-26T12:16:53Z</time></trkpt><trkpt lat="45.264064735301424" lon="8.25717150607495"><ele>150.0</ele><time>2026-04-26T12:16:54Z</time></trkpt><trkpt lat="45.26387865778951" lon="8.257361940421273"><ele>149.5</ele><time>2026-04-26T12:16:55Z</time></trkpt><trkpt lat="45.26368829737881" lon="8.257556428234606"><ele>149.0</ele><time>2026-04-26T12:16:56Z</time></trkpt><trkpt lat="45.26349998334961" lon="8.257745637325229"><ele>149.0</ele><time>2026-04-26T12:16:57Z</time></trkpt><trkpt lat="45.26331576491194" lon="8.257934127544637"><ele>149.0</ele><time>2026-04-26T12:16:58Z</time></trkpt><trkpt lat="45.263125611141106" lon="8.258124958187555"><ele>149.0</ele><time>2026-04-26T12:16:59Z</time></trkpt><trkpt lat="45.262932900455944" lon="8.258317971306182"><ele>149.0</ele><time>2026-04-26T12:17:00Z</time></trkpt><trkpt lat="45.26273783284396" lon="8.258510958468326"><ele>149.0</ele><time>2026-04-26T12:17:01Z</time></trkpt><trkpt lat="45.26254121433465" lon="8.258708211090699"><ele>149.0</ele><time>2026-04-26T12:17:02Z</time></trkpt><trkpt lat="45.262342475051796" lon="8.258908108027462"><ele>149.0</ele><time>2026-04-26T12:17:03Z</time></trkpt><trkpt lat="45.26214462042123" lon="8.25911692451916"><ele>149.0</ele><time>2026-04-26T12:17:04Z</time></trkpt><trkpt lat="45.26194293040358" lon="8.259324285040572"><ele>149.0</ele><time>2026-04-26T12:17:05Z</time></trkpt><trkpt lat="45.26174071003662" lon="8.259532867034991"><ele>149.0</ele><time>2026-04-26T12:17:06Z</time></trkpt><trkpt lat="45.26153284863792" lon="8.259740822474368"><ele>147.5</ele><time>2026-04-26T12:17:07Z</time></trkpt><trkpt lat="45.261322090388646" lon="8.259950379285193"><ele>146.0</ele><time>2026-04-26T12:17:08Z</time></trkpt><trkpt lat="45.26110970897115" lon="8.260158818685715"><ele>146.0</ele><time>2026-04-26T12:17:09Z</time></trkpt><trkpt lat="45.26089620603722" lon="8.260369162405846"><ele>146.0</ele><time>2026-04-26T12:17:10Z</time></trkpt><trkpt lat="45.26068246417213" lon="8.260583491806498"><ele>146.0</ele><time>2026-04-26T12:17:11Z</time></trkpt><trkpt lat="45.26046901038559" lon="8.260800776919321"><ele>146.0</ele><time>2026-04-26T12:17:12Z</time></trkpt><trkpt lat="45.26025580968954" lon="8.26101901686784"><ele>146.0</ele><time>2026-04-26T12:17:13Z</time></trkpt><trkpt lat="45.260041683431425" lon="8.261238784565577"><ele>146.0</ele><time>2026-04-26T12:17:14Z</time></trkpt><trkpt lat="45.25982313142738" lon="8.26146059432642"><ele>146.5</ele><time>2026-04-26T12:17:15Z</time></trkpt><trkpt lat="45.25960591975332" lon="8.261679809314941"><ele>147.0</ele><time>2026-04-26T12:17:16Z</time></trkpt><trkpt lat="45.25939318109423" lon="8.261893181372093"><ele>147.0</ele><time>2026-04-26T12:17:17Z</time></trkpt><trkpt lat="45.25918776046316" lon="8.262096949187546"><ele>147.0</ele><time>2026-04-26T12:17:18Z</time></trkpt><trkpt lat="45.2589874923845" lon="8.262297265989883"><ele>147.0</ele><time>2026-04-26T12:17:19Z</time></trkpt><trkpt lat="45.25879298645557" lon="8.262493587857715"><ele>147.0</ele><time>2026-04-26T12:17:20Z</time></trkpt><trkpt lat="45.25860317987693" lon="8.262681550428214"><ele>147.0</ele><time>2026-04-26T12:17:21Z</time></trkpt><trkpt lat="45.258426168502794" lon="8.262861284173797"><ele>147.0</ele><time>2026-04-26T12:17:22Z</time></trkpt><trkpt lat="45.25825134487296" lon="8.263048842486366"><ele>147.0</ele><time>2026-04-26T12:17:23Z</time></trkpt><trkpt lat="45.258105773829264" lon="8.2632638553635"><ele>147.0</ele><time>2026-04-26T12:17:24Z</time></trkpt><trkpt lat="45.25799346420448" lon="8.263518811136873"><ele>147.0</ele><time>2026-04-26T12:17:25Z</time></trkpt><trkpt lat="45.25790379756749" lon="8.26379908753118"><ele>147.0</ele><time>2026-04-26T12:17:26Z</time></trkpt><trkpt lat="45.257828398162296" lon="8.264103396128935"><ele>147.0</ele><time>2026-04-26T12:17:27Z</time></trkpt><trkpt lat="45.257754162374496" lon="8.264411155333491"><ele>147.0</ele><time>2026-04-26T12:17:28Z</time></trkpt><trkpt lat="45.25767198225793" lon="8.264727959121503"><ele>147.0</ele><time>2026-04-26T12:17:29Z</time></trkpt><trkpt lat="45.257585817594816" lon="8.265052506623842"><ele>147.0</ele><time>2026-04-26T12:17:30Z</time></trkpt><trkpt lat="45.25749928409255" lon="8.265383086760911"><ele>146.5</ele><time>2026-04-26T12:17:31Z</time></trkpt><trkpt lat="45.257411890220055" lon="8.265721259474097"><ele>146.0</ele><time>2026-04-26T12:17:32Z</time></trkpt><trkpt lat="45.25732461117227" lon="8.26606566186587"><ele>146.0</ele><time>2026-04-26T12:17:33Z</time></trkpt><trkpt lat="45.25723444305495" lon="8.266413749705544"><ele>146.0</ele><time>2026-04-26T12:17:34Z</time></trkpt><trkpt lat="45.25714601499428" lon="8.266753037982237"><ele>145.0</ele><time>2026-04-26T12:17:35Z</time></trkpt><trkpt lat="45.257065086642214" lon="8.267067580698917"><ele>144.0</ele><time>2026-04-26T12:17:36Z</time></trkpt><trkpt lat="45.25698879904854" lon="8.267357570197774"><ele>144.0</ele><time>2026-04-26T12:17:37Z</time></trkpt><trkpt lat="45.25692020006921" lon="8.26762232816177"><ele>144.0</ele><time>2026-04-26T12:17:38Z</time></trkpt><trkpt lat="45.25685838221387" lon="8.267862760571886"><ele>144.0</ele><time>2026-04-26T12:17:39Z</time></trkpt><trkpt lat="45.25679867314011" lon="8.268093837446925"><ele>144.33333333333334</ele><time>2026-04-26T12:17:40Z</time></trkpt><trkpt lat="45.25674131384942" lon="8.26831280590641"><ele>144.66666666666669</ele><time>2026-04-26T12:17:41Z</time></trkpt><trkpt lat="45.25668762387815" lon="8.268512502947788"><ele>145.0</ele><time>2026-04-26T12:17:42Z</time></trkpt><trkpt lat="45.25663895871813" lon="8.268691524915692"><ele>145.0</ele><time>2026-04-26T12:17:43Z</time></trkpt><trkpt lat="45.25659597875504" lon="8.268858535027983"><ele>145.0</ele><time>2026-04-26T12:17:44Z</time></trkpt><trkpt lat="45.25655615244373" lon="8.269021570737987"><ele>145.0</ele><time>2026-04-26T12:17:45Z</time></trkpt><trkpt lat="45.25651840637205" lon="8.269191273700761"><ele>145.0</ele><time>2026-04-26T12:17:46Z</time></trkpt><trkpt lat="45.25647508192102" lon="8.269369203086633"><ele>144.75</ele><time>2026-04-26T12:17:47Z</time></trkpt><trkpt lat="45.25642562478225" lon="8.269549895501708"><ele>144.5</ele><time>2026-04-26T12:17:48Z</time></trkpt><trkpt lat="45.25637200467359" lon="8.269736160632187"><ele>144.25</ele><time>2026-04-26T12:17:49Z</time></trkpt><trkpt lat="45.256319388837" lon="8.269930791798867"><ele>144.0</ele><time>2026-04-26T12:17:50Z</time></trkpt><trkpt lat="45.256270686203" lon="8.27013114906126"><ele>144.0</ele><time>2026-04-26T12:17:51Z</time></trkpt><trkpt lat="45.25622181985545" lon="8.270337072724374"><ele>144.0</ele><time>2026-04-26T12:17:52Z</time></trkpt><trkpt lat="45.25616784800097" lon="8.27054425761074"><ele>144.0</ele><time>2026-04-26T12:17:53Z</time></trkpt><trkpt lat="45.25610898420337" lon="8.27075180542156"><ele>144.66666666666666</ele><time>2026-04-26T12:17:54Z</time></trkpt><trkpt lat="45.25605030824735" lon="8.270960326704275"><ele>145.33333333333331</ele><time>2026-04-26T12:17:55Z</time></trkpt><trkpt lat="45.25599584000415" lon="8.271173282517381"><ele>146.0</ele><time>2026-04-26T12:17:56Z</time></trkpt><trkpt lat="45.25594444754712" lon="8.271390035626714"><ele>146.33333333333331</ele><time>2026-04-26T12:17:57Z</time></trkpt><trkpt lat="45.25589048881996" lon="8.27160704868011"><ele>146.66666666666666</ele><time>2026-04-26T12:17:58Z</time></trkpt><trkpt lat="45.25583228777337" lon="8.271824860516084"><ele>147.0</ele><time>2026-04-26T12:17:59Z</time></trkpt><trkpt lat="45.25577420747205" lon="8.272036297897326"><ele>147.0</ele><time>2026-04-26T12:18:00Z</time></trkpt><trkpt lat="45.255715457630615" lon="8.272252518210092"><ele>147.0</ele><time>2026-04-26T12:18:01Z</time></trkpt><trkpt lat="45.2556613796383" lon="8.272468048628232"><ele>147.0</ele><time>2026-04-26T12:18:02Z</time></trkpt><trkpt lat="45.25561047693386" lon="8.272677194013331"><ele>146.75</ele><time>2026-04-26T12:18:03Z</time></trkpt><trkpt lat="45.25556273692265" lon="8.272870809212607"><ele>146.5</ele><time>2026-04-26T12:18:04Z</time></trkpt><trkpt lat="45.2555155503313" lon="8.273047551527904"><ele>146.25</ele><time>2026-04-26T12:18:05Z</time></trkpt><trkpt lat="45.25546905801303" lon="8.273209933753478"><ele>146.0</ele><time>2026-04-26T12:18:06Z</time></trkpt><trkpt lat="45.255424539519254" lon="8.27335985559882"><ele>146.0</ele><time>2026-04-26T12:18:07Z</time></trkpt><trkpt lat="45.255383936736955" lon="8.273509231163514"><ele>146.0</ele><time>2026-04-26T12:18:08Z</time></trkpt><trkpt lat="45.25534245759022" lon="8.273660831011519"><ele>146.0</ele><time>2026-04-26T12:18:09Z</time></trkpt><trkpt lat="45.25530022826077" lon="8.273814731237435"><ele>146.0</ele><time>2026-04-26T12:18:10Z</time></trkpt><trkpt lat="45.255260766825586" lon="8.27397712327898"><ele>146.0</ele><time>2026-04-26T12:18:11Z</time></trkpt><trkpt lat="45.25522075824793" lon="8.274142420246289"><ele>146.0</ele><time>2026-04-26T12:18:12Z</time></trkpt><trkpt lat="45.25517756111453" lon="8.274315381731803"><ele>146.0</ele><time>2026-04-26T12:18:13Z</time></trkpt><trkpt lat="45.25513200479909" lon="8.274489946922584"><ele>146.0</ele><time>2026-04-26T12:18:14Z</time></trkpt><trkpt lat="45.25508648439066" lon="8.274668683705594"><ele>146.75</ele><time>2026-04-26T12:18:15Z</time></trkpt><trkpt lat="45.25503782850203" lon="8.274849866373591"><ele>147.5</ele><time>2026-04-26T12:18:16Z</time></trkpt><trkpt lat="45.254989104356596" lon="8.27503650785734"><ele>148.25</ele><time>2026-04-26T12:18:17Z</time></trkpt><trkpt lat="45.25494247026962" lon="8.275221960025924"><ele>149.0</ele><time>2026-04-26T12:18:18Z</time></trkpt><trkpt lat="45.25489369719796" lon="8.275414804189912"><ele>148.75</ele><time>2026-04-26T12:18:19Z</time></trkpt><trkpt lat="45.25484697680533" lon="8.275604957710861"><ele>148.5</ele><time>2026-04-26T12:18:20Z</time></trkpt><trkpt lat="45.25479432009544" lon="8.275795254480926"><ele>148.25</ele><time>2026-04-26T12:18:21Z</time></trkpt><trkpt lat="45.25474310274681" lon="8.275979607675092"><ele>148.0</ele><time>2026-04-26T12:18:22Z</time></trkpt><trkpt lat="45.25469458498432" lon="8.27615989580518"><ele>147.75</ele><time>2026-04-26T12:18:23Z</time></trkpt><trkpt lat="45.25465085528753" lon="8.276339467057847"><ele>147.5</ele><time>2026-04-26T12:18:24Z</time></trkpt><trkpt lat="45.25460368123092" lon="8.276515533801346"><ele>147.25</ele><time>2026-04-26T12:18:25Z</time></trkpt><trkpt lat="45.25455943760686" lon="8.276691543341448"><ele>147.0</ele><time>2026-04-26T12:18:26Z</time></trkpt><trkpt lat="45.25451673512447" lon="8.27686411501704"><ele>147.0</ele><time>2026-04-26T12:18:27Z</time></trkpt><trkpt lat="45.25446750161808" lon="8.277032271199058"><ele>147.0</ele><time>2026-04-26T12:18:28Z</time></trkpt><trkpt lat="45.25441965359343" lon="8.27718033737361"><ele>147.0</ele><time>2026-04-26T12:18:29Z</time></trkpt><trkpt lat="45.25436191785994" lon="8.277316715444476"><ele>147.0</ele><time>2026-04-26T12:18:30Z</time></trkpt><trkpt lat="45.25429215652836" lon="8.277431704661666"><ele>147.0</ele><time>2026-04-26T12:18:31Z</time></trkpt><trkpt lat="45.25421516444244" lon="8.277537415928732"><ele>147.0</ele><time>2026-04-26T12:18:32Z</time></trkpt><trkpt lat="45.254139858094746" lon="8.277645845386896"><ele>147.0</ele><time>2026-04-26T12:18:33Z</time></trkpt><trkpt lat="45.25407169587398" lon="8.277747414179279"><ele>147.0</ele><time>2026-04-26T12:18:34Z</time></trkpt><trkpt lat="45.25400102811791" lon="8.277837988834527"><ele>147.0</ele><time>2026-04-26T12:18:35Z</time></trkpt><trkpt lat="45.25393007059775" lon="8.277908405667466"><ele>147.0</ele><time>2026-04-26T12:18:36Z</time></trkpt><trkpt lat="45.25384837360152" lon="8.277960342195655"><ele>147.0</ele><time>2026-04-26T12:18:37Z</time></trkpt><trkpt lat="45.25376414358728" lon="8.277982814636744"><ele>147.0</ele><time>2026-04-26T12:18:38Z</time></trkpt><trkpt lat="45.253671857193325" lon="8.277949893451552"><ele>147.0</ele><time>2026-04-26T12:18:39Z</time></trkpt><trkpt lat="45.253578555743886" lon="8.277898022603264"><ele>147.0</ele><time>2026-04-26T12:18:40Z</time></trkpt><trkpt lat="45.253476071619716" lon="8.277864476111148"><ele>147.0</ele><time>2026-04-26T12:18:41Z</time></trkpt><trkpt lat="45.2533829355972" lon="8.277830496987152"><ele>147.0</ele><time>2026-04-26T12:18:42Z</time></trkpt><trkpt lat="45.25329521927642" lon="8.277814004933369"><ele>147.0</ele><time>2026-04-26T12:18:43Z</time></trkpt><trkpt lat="45.25321171278716" lon="8.277812725978716"><ele>147.0</ele><time>2026-04-26T12:18:44Z</time></trkpt><trkpt lat="45.25313102649771" lon="8.277836583401626"><ele>147.0</ele><time>2026-04-26T12:18:45Z</time></trkpt><trkpt lat="45.25305643847765" lon="8.277893442621584"><ele>147.0</ele><time>2026-04-26T12:18:46Z</time></trkpt><trkpt lat="45.25298659167809" lon="8.2779930337603"><ele>147.0</ele><time>2026-04-26T12:18:47Z</time></trkpt><trkpt lat="45.25292699071158" lon="8.278120268559277"><ele>147.0</ele><time>2026-04-26T12:18:48Z</time></trkpt><trkpt lat="45.25286407870731" lon="8.278264465672367"><ele>147.0</ele><time>2026-04-26T12:18:49Z</time></trkpt><trkpt lat="45.25279419705809" lon="8.27839974779608"><ele>147.0</ele><time>2026-04-26T12:18:50Z</time></trkpt><trkpt lat="45.252720858110166" lon="8.278543137929478"><ele>147.0</ele><time>2026-04-26T12:18:51Z</time></trkpt><trkpt lat="45.25264950632008" lon="8.27869823394064"><ele>147.0</ele><time>2026-04-26T12:18:52Z</time></trkpt><trkpt lat="45.25258283071999" lon="8.278871202156497"><ele>147.0</ele><time>2026-04-26T12:18:53Z</time></trkpt><trkpt lat="45.252517412567414" lon="8.279047011644641"><ele>147.0</ele><time>2026-04-26T12:18:54Z</time></trkpt><trkpt lat="45.25245358461392" lon="8.279219100912108"><ele>147.0</ele><time>2026-04-26T12:18:55Z</time></trkpt><trkpt lat="45.25239192678636" lon="8.27937751528078"><ele>147.0</ele><time>2026-04-26T12:18:56Z</time></trkpt><trkpt lat="45.25233554532681" lon="8.279538770172184"><ele>147.0</ele><time>2026-04-26T12:18:57Z</time></trkpt><trkpt lat="45.25228505079828" lon="8.279697084113772"><ele>147.0</ele><time>2026-04-26T12:18:58Z</time></trkpt><trkpt lat="45.25224012643824" lon="8.279855391141089"><ele>146.75</ele><time>2026-04-26T12:18:59Z</time></trkpt><trkpt lat="45.252199272714" lon="8.280013548068824"><ele>146.5</ele><time>2026-04-26T12:19:00Z</time></trkpt><trkpt lat="45.25215975255294" lon="8.280173098205116"><ele>146.25</ele><time>2026-04-26T12:19:01Z</time></trkpt><trkpt lat="45.252124353386215" lon="8.28033036648095"><ele>146.0</ele><time>2026-04-26T12:19:02Z</time></trkpt><trkpt lat="45.252088029591604" lon="8.280486838896735"><ele>146.25</ele><time>2026-04-26T12:19:03Z</time></trkpt><trkpt lat="45.252050183271145" lon="8.280641518968961"><ele>146.5</ele><time>2026-04-26T12:19:04Z</time></trkpt><trkpt lat="45.252007515801395" lon="8.280791472135972"><ele>146.75</ele><time>2026-04-26T12:19:05Z</time></trkpt><trkpt lat="45.251968929055614" lon="8.280949206517386"><ele>147.0</ele><time>2026-04-26T12:19:06Z</time></trkpt><trkpt lat="45.251935691910624" lon="8.281109086057413"><ele>147.0</ele><time>2026-04-26T12:19:07Z</time></trkpt><trkpt lat="45.25190477308275" lon="8.28127331385676"><ele>147.0</ele><time>2026-04-26T12:19:08Z</time></trkpt><trkpt lat="45.251872458588494" lon="8.281436677462006"><ele>147.0</ele><time>2026-04-26T12:19:09Z</time></trkpt><trkpt lat="45.25184189212254" lon="8.28159714583998"><ele>147.0</ele><time>2026-04-26T12:19:10Z</time></trkpt><trkpt lat="45.251806427783" lon="8.281756577343064"><ele>146.75</ele><time>2026-04-26T12:19:11Z</time></trkpt><trkpt lat="45.25176888769486" lon="8.281912473715474"><ele>146.5</ele><time>2026-04-26T12:19:12Z</time></trkpt><trkpt lat="45.25173232061302" lon="8.282071615435365"><ele>146.25</ele><time>2026-04-26T12:19:13Z</time></trkpt><trkpt lat="45.25169565269063" lon="8.28223398050326"><ele>146.0</ele><time>2026-04-26T12:19:14Z</time></trkpt><trkpt lat="45.25166297739145" lon="8.282396849868586"><ele>145.75</ele><time>2026-04-26T12:19:15Z</time></trkpt><trkpt lat="45.2516272353596" lon="8.282563306623862"><ele>145.5</ele><time>2026-04-26T12:19:16Z</time></trkpt><trkpt lat="45.25158703836056" lon="8.282732266247168"><ele>145.25</ele><time>2026-04-26T12:19:17Z</time></trkpt><trkpt lat="45.25154470028471" lon="8.28290456517363"><ele>145.0</ele><time>2026-04-26T12:19:18Z</time></trkpt><trkpt lat="45.25150013059692" lon="8.283081121369385"><ele>145.0</ele><time>2026-04-26T12:19:19Z</time></trkpt><trkpt lat="45.251455621202254" lon="8.283263015802788"><ele>145.0</ele><time>2026-04-26T12:19:20Z</time></trkpt><trkpt lat="45.25141109346303" lon="8.28344606210302"><ele>145.0</ele><time>2026-04-26T12:19:21Z</time></trkpt><trkpt lat="45.251367557512616" lon="8.283626825016176"><ele>145.0</ele><time>2026-04-26T12:19:22Z</time></trkpt><trkpt lat="45.251322859318826" lon="8.283806266149796"><ele>145.0</ele><time>2026-04-26T12:19:23Z</time></trkpt><trkpt lat="45.25127835898367" lon="8.283985980490623"><ele>145.0</ele><time>2026-04-26T12:19:24Z</time></trkpt><trkpt lat="45.251222873269505" lon="8.28415500665519"><ele>145.0</ele><time>2026-04-26T12:19:25Z</time></trkpt><trkpt lat="45.25115616272841" lon="8.284313336246893"><ele>145.0</ele><time>2026-04-26T12:19:26Z</time></trkpt><trkpt lat="45.25108057538858" lon="8.284459841369848"><ele>145.0</ele><time>2026-04-26T12:19:27Z</time></trkpt><trkpt lat="45.251001842974105" lon="8.28460052809789"><ele>145.0</ele><time>2026-04-26T12:19:28Z</time></trkpt><trkpt lat="45.25092207601697" lon="8.284739382426384"><ele>145.0</ele><time>2026-04-26T12:19:29Z</time></trkpt><trkpt lat="45.25083777365675" lon="8.28488043840718"><ele>145.0</ele><time>2026-04-26T12:19:30Z</time></trkpt><trkpt lat="45.25074985661027" lon="8.285023131972356"><ele>145.0</ele><time>2026-04-26T12:19:31Z</time></trkpt><trkpt lat="45.25065870226097" lon="8.285169809607918"><ele>145.0</ele><time>2026-04-26T12:19:32Z</time></trkpt><trkpt lat="45.25056287283576" lon="8.285331373704846"><ele>145.0</ele><time>2026-04-26T12:19:33Z</time></trkpt><trkpt lat="45.250463142378614" lon="8.285514308156388"><ele>145.0</ele><time>2026-04-26T12:19:34Z</time></trkpt><trkpt lat="45.2503622243381" lon="8.285720322845632"><ele>144.33333333333334</ele><time>2026-04-26T12:19:35Z</time></trkpt><trkpt lat="45.250252923938284" lon="8.285940148609146"><ele>143.66666666666666</ele><time>2026-04-26T12:19:36Z</time></trkpt><trkpt lat="45.25012650048674" lon="8.286172505169988"><ele>143.0</ele><time>2026-04-26T12:19:37Z</time></trkpt><trkpt lat="45.250001888246665" lon="8.286396638955592"><ele>143.0</ele><time>2026-04-26T12:19:38Z</time></trkpt><trkpt lat="45.2498686448349" lon="8.286634565916732"><ele>143.0</ele><time>2026-04-26T12:19:39Z</time></trkpt><trkpt lat="45.24972589834063" lon="8.286887556735945"><ele>143.0</ele><time>2026-04-26T12:19:40Z</time></trkpt><trkpt lat="45.249579072804636" lon="8.287153289934183"><ele>143.0</ele><time>2026-04-26T12:19:41Z</time></trkpt><trkpt lat="45.249434400964155" lon="8.287419964271752"><ele>143.0</ele><time>2026-04-26T12:19:42Z</time></trkpt><trkpt lat="45.24929034001956" lon="8.287680823985216"><ele>143.0</ele><time>2026-04-26T12:19:43Z</time></trkpt><trkpt lat="45.249141702877154" lon="8.287945261428955"><ele>143.0</ele><time>2026-04-26T12:19:44Z</time></trkpt><trkpt lat="45.24898667759549" lon="8.28822095559996"><ele>142.5</ele><time>2026-04-26T12:19:45Z</time></trkpt><trkpt lat="45.248829873859094" lon="8.288500078150236"><ele>142.0</ele><time>2026-04-26T12:19:46Z</time></trkpt><trkpt lat="45.248670083722786" lon="8.288787337908548"><ele>142.0</ele><time>2026-04-26T12:19:47Z</time></trkpt><trkpt lat="45.24850741119219" lon="8.289078058843401"><ele>142.0</ele><time>2026-04-26T12:19:48Z</time></trkpt><trkpt lat="45.24834557066064" lon="8.289370202901923"><ele>142.0</ele><time>2026-04-26T12:19:49Z</time></trkpt><trkpt lat="45.248182920682446" lon="8.289663169067644"><ele>142.0</ele><time>2026-04-26T12:19:50Z</time></trkpt><trkpt lat="45.248019745871126" lon="8.289954378757516"><ele>141.5</ele><time>2026-04-26T12:19:51Z</time></trkpt><trkpt lat="45.2478558216486" lon="8.290246527353712"><ele>141.0</ele><time>2026-04-26T12:19:52Z</time></trkpt><trkpt lat="45.24769397501657" lon="8.290538696921852"><ele>141.5</ele><time>2026-04-26T12:19:53Z</time></trkpt><trkpt lat="45.24753106351347" lon="8.290830546359622"><ele>142.0</ele><time>2026-04-26T12:19:54Z</time></trkpt><trkpt lat="45.247365263170245" lon="8.291121626352652"><ele>142.0</ele><time>2026-04-26T12:19:55Z</time></trkpt><trkpt lat="45.24720170787178" lon="8.2914119765169"><ele>142.0</ele><time>2026-04-26T12:19:56Z</time></trkpt><trkpt lat="45.24704077701948" lon="8.291703254129397"><ele>142.0</ele><time>2026-04-26T12:19:57Z</time></trkpt><trkpt lat="45.24687779336633" lon="8.291994790162411"><ele>142.0</ele><time>2026-04-26T12:19:58Z</time></trkpt><trkpt lat="45.24671447580393" lon="8.292285519645626"><ele>142.0</ele><time>2026-04-26T12:19:59Z</time></trkpt><trkpt lat="45.246551111057556" lon="8.292578506455728"><ele>142.0</ele><time>2026-04-26T12:20:00Z</time></trkpt><trkpt lat="45.24638829199337" lon="8.292867055877108"><ele>142.5</ele><time>2026-04-26T12:20:01Z</time></trkpt><trkpt lat="45.24622795950142" lon="8.293152969144833"><ele>143.0</ele><time>2026-04-26T12:20:02Z</time></trkpt><trkpt lat="45.246070906531145" lon="8.293432951204444"><ele>143.0</ele><time>2026-04-26T12:20:03Z</time></trkpt><trkpt lat="45.24591773424357" lon="8.293709333887284"><ele>143.0</ele><time>2026-04-26T12:20:04Z</time></trkpt><trkpt lat="45.24576882056239" lon="8.293989729151926"><ele>142.5</ele><time>2026-04-26T12:20:05Z</time></trkpt><trkpt lat="45.24562869125793" lon="8.294279714755435"><ele>142.0</ele><time>2026-04-26T12:20:06Z</time></trkpt><trkpt lat="45.245499748920864" lon="8.294581064260987"><ele>142.5</ele><time>2026-04-26T12:20:07Z</time></trkpt><trkpt lat="45.245391173462565" lon="8.294902330706172"><ele>143.0</ele><time>2026-04-26T12:20:08Z</time></trkpt><trkpt lat="45.245295056908425" lon="8.295234177619053"><ele>143.0</ele><time>2026-04-26T12:20:09Z</time></trkpt><trkpt lat="45.24518168453326" lon="8.295554988414402"><ele>143.0</ele><time>2026-04-26T12:20:10Z</time></trkpt><trkpt lat="45.24510266691151" lon="8.295903702358755"><ele>142.5</ele><time>2026-04-26T12:20:11Z</time></trkpt><trkpt lat="45.24499966288058" lon="8.296238460166835"><ele>142.0</ele><time>2026-04-26T12:20:12Z</time></trkpt><trkpt lat="45.24489493524337" lon="8.296572630734335"><ele>141.5</ele><time>2026-04-26T12:20:13Z</time></trkpt><trkpt lat="45.24479247678229" lon="8.296907806261014"><ele>141.0</ele><time>2026-04-26T12:20:14Z</time></trkpt><trkpt lat="45.244691715206024" lon="8.297245470993818"><ele>141.5</ele><time>2026-04-26T12:20:15Z</time></trkpt><trkpt lat="45.244590182800195" lon="8.297586174567183"><ele>142.0</ele><time>2026-04-26T12:20:16Z</time></trkpt><trkpt lat="45.24448893453588" lon="8.29792715008931"><ele>142.0</ele><time>2026-04-26T12:20:17Z</time></trkpt><trkpt lat="45.24438656015376" lon="8.298268257199808"><ele>142.0</ele><time>2026-04-26T12:20:18Z</time></trkpt><trkpt lat="45.2442834990963" lon="8.298610960621442"><ele>141.5</ele><time>2026-04-26T12:20:19Z</time></trkpt><trkpt lat="45.244179947150705" lon="8.298954733667586"><ele>141.0</ele><time>2026-04-26T12:20:20Z</time></trkpt><trkpt lat="45.24407417219774" lon="8.299301407500897"><ele>141.0</ele><time>2026-04-26T12:20:21Z</time></trkpt><trkpt lat="45.24397026650035" lon="8.299646574916224"><ele>141.0</ele><time>2026-04-26T12:20:22Z</time></trkpt><trkpt lat="45.243868044693" lon="8.299988235340175"><ele>141.0</ele><time>2026-04-26T12:20:23Z</time></trkpt><trkpt lat="45.24376329858037" lon="8.30034333089978"><ele>141.0</ele><time>2026-04-26T12:20:24Z</time></trkpt><trkpt lat="45.243661855268904" lon="8.300690015656617"><ele>141.0</ele><time>2026-04-26T12:20:25Z</time></trkpt><trkpt lat="45.24356138548533" lon="8.301039318861868"><ele>141.0</ele><time>2026-04-26T12:20:26Z</time></trkpt><trkpt lat="45.243460286267414" lon="8.301391125260183"><ele>141.5</ele><time>2026-04-26T12:20:27Z</time></trkpt><trkpt lat="45.24335734644266" lon="8.301739830875427"><ele>142.0</ele><time>2026-04-26T12:20:28Z</time></trkpt><trkpt lat="45.24325045148902" lon="8.302090778142642"><ele>142.0</ele><time>2026-04-26T12:20:29Z</time></trkpt><trkpt lat="45.24314008500041" lon="8.30243815243197"><ele>142.0</ele><time>2026-04-26T12:20:30Z</time></trkpt><trkpt lat="45.243029174024734" lon="8.302785107533527"><ele>141.5</ele><time>2026-04-26T12:20:31Z</time></trkpt><trkpt lat="45.242920989477255" lon="8.30313155636926"><ele>141.0</ele><time>2026-04-26T12:20:32Z</time></trkpt><trkpt lat="45.24281712420435" lon="8.303480762781817"><ele>141.0</ele><time>2026-04-26T12:20:33Z</time></trkpt><trkpt lat="45.24271549776584" lon="8.30383026065598"><ele>141.0</ele><time>2026-04-26T12:20:34Z</time></trkpt><trkpt lat="45.242613808592104" lon="8.304178984812909"><ele>141.5</ele><time>2026-04-26T12:20:35Z</time></trkpt><trkpt lat="45.242513063021924" lon="8.304525758285644"><ele>142.0</ele><time>2026-04-26T12:20:36Z</time></trkpt><trkpt lat="45.242417465242255" lon="8.304876846672093"><ele>142.0</ele><time>2026-04-26T12:20:37Z</time></trkpt><trkpt lat="45.24233083542068" lon="8.305226022279308"><ele>142.0</ele><time>2026-04-26T12:20:38Z</time></trkpt><trkpt lat="45.24225123141478" lon="8.305585708482546"><ele>141.5</ele><time>2026-04-26T12:20:39Z</time></trkpt><trkpt lat="45.242176467848466" lon="8.305949076022426"><ele>141.0</ele><time>2026-04-26T12:20:40Z</time></trkpt><trkpt lat="45.24210277002684" lon="8.306314418702526"><ele>140.0</ele><time>2026-04-26T12:20:41Z</time></trkpt><trkpt lat="45.24202756649302" lon="8.306682749688282"><ele>139.0</ele><time>2026-04-26T12:20:42Z</time></trkpt><trkpt lat="45.24194961243885" lon="8.307047340207426"><ele>139.5</ele><time>2026-04-26T12:20:43Z</time></trkpt><trkpt lat="45.241869507278736" lon="8.307419165545443"><ele>140.0</ele><time>2026-04-26T12:20:44Z</time></trkpt><trkpt lat="45.24179112897786" lon="8.307787732657458"><ele>140.0</ele><time>2026-04-26T12:20:45Z</time></trkpt><trkpt lat="45.24170840496466" lon="8.308155284198463"><ele>140.0</ele><time>2026-04-26T12:20:46Z</time></trkpt><trkpt lat="45.24162054293018" lon="8.308519456482243"><ele>140.0</ele><time>2026-04-26T12:20:47Z</time></trkpt><trkpt lat="45.24153197491031" lon="8.308886258462815"><ele>140.0</ele><time>2026-04-26T12:20:48Z</time></trkpt><trkpt lat="45.241448598836726" lon="8.309251055491755"><ele>139.5</ele><time>2026-04-26T12:20:49Z</time></trkpt><trkpt lat="45.241368717142514" lon="8.309620501379568"><ele>139.0</ele><time>2026-04-26T12:20:50Z</time></trkpt><trkpt lat="45.24128843395354" lon="8.309991471858513"><ele>139.0</ele><time>2026-04-26T12:20:51Z</time></trkpt><trkpt lat="45.241206494624926" lon="8.310365477030674"><ele>139.0</ele><time>2026-04-26T12:20:52Z</time></trkpt><trkpt lat="45.24112365261883" lon="8.310740841838049"><ele>139.5</ele><time>2026-04-26T12:20:53Z</time></trkpt><trkpt lat="45.24104011936943" lon="8.311116261993467"><ele>140.0</ele><time>2026-04-26T12:20:54Z</time></trkpt><trkpt lat="45.240955611864415" lon="8.31149359803449"><ele>140.0</ele><time>2026-04-26T12:20:55Z</time></trkpt><trkpt lat="45.2408729378281" lon="8.311872014295425"><ele>140.0</ele><time>2026-04-26T12:20:56Z</time></trkpt><trkpt lat="45.24078960621626" lon="8.312248219246621"><ele>140.0</ele><time>2026-04-26T12:20:57Z</time></trkpt><trkpt lat="45.2407088056924" lon="8.312620148700212"><ele>140.0</ele><time>2026-04-26T12:20:58Z</time></trkpt><trkpt lat="45.24062864148795" lon="8.312992467724124"><ele>140.0</ele><time>2026-04-26T12:20:59Z</time></trkpt><trkpt lat="45.2405482712904" lon="8.31336038198181"><ele>140.0</ele><time>2026-04-26T12:21:00Z</time></trkpt><trkpt lat="45.240467093642195" lon="8.313729111367833"><ele>140.0</ele><time>2026-04-26T12:21:01Z</time></trkpt><trkpt lat="45.240386492326216" lon="8.314094047232937"><ele>140.0</ele><time>2026-04-26T12:21:02Z</time></trkpt><trkpt lat="45.24030638428926" lon="8.314458625440958"><ele>140.0</ele><time>2026-04-26T12:21:03Z</time></trkpt><trkpt lat="45.24022745238459" lon="8.314819521193463"><ele>140.0</ele><time>2026-04-26T12:21:04Z</time></trkpt><trkpt lat="45.240147192942864" lon="8.315182092021574"><ele>140.0</ele><time>2026-04-26T12:21:05Z</time></trkpt><trkpt lat="45.24006633457172" lon="8.315542971163808"><ele>140.0</ele><time>2026-04-26T12:21:06Z</time></trkpt><trkpt lat="45.23998457072049" lon="8.315903995735589"><ele>139.5</ele><time>2026-04-26T12:21:07Z</time></trkpt><trkpt lat="45.239905586721655" lon="8.316266164457167"><ele>139.0</ele><time>2026-04-26T12:21:08Z</time></trkpt><trkpt lat="45.23982737643883" lon="8.316630274465554"><ele>139.0</ele><time>2026-04-26T12:21:09Z</time></trkpt><trkpt lat="45.23974978254512" lon="8.316988257874483"><ele>139.0</ele><time>2026-04-26T12:21:10Z</time></trkpt><trkpt lat="45.239670459788144" lon="8.31734509057715"><ele>139.0</ele><time>2026-04-26T12:21:11Z</time></trkpt><trkpt lat="45.23959015528971" lon="8.317699019559042"><ele>139.0</ele><time>2026-04-26T12:21:12Z</time></trkpt><trkpt lat="45.23950987745656" lon="8.318050211174535"><ele>139.0</ele><time>2026-04-26T12:21:13Z</time></trkpt><trkpt lat="45.239431815429" lon="8.318402229435035"><ele>139.0</ele><time>2026-04-26T12:21:14Z</time></trkpt><trkpt lat="45.23935309555091" lon="8.318745307581265"><ele>137.5</ele><time>2026-04-26T12:21:15Z</time></trkpt><trkpt lat="45.23927814072828" lon="8.319085649943105"><ele>136.0</ele><time>2026-04-26T12:21:16Z</time></trkpt><trkpt lat="45.2392048345033" lon="8.319420569288772"><ele>137.5</ele><time>2026-04-26T12:21:17Z</time></trkpt><trkpt lat="45.23913269637625" lon="8.319753488088457"><ele>139.0</ele><time>2026-04-26T12:21:18Z</time></trkpt><trkpt lat="45.23906409008009" lon="8.320066888960321"><ele>139.0</ele><time>2026-04-26T12:21:19Z</time></trkpt><trkpt lat="45.238999851707845" lon="8.320372743993373"><ele>139.0</ele><time>2026-04-26T12:21:20Z</time></trkpt><trkpt lat="45.238938358751675" lon="8.320656049921965"><ele>139.0</ele><time>2026-04-26T12:21:21Z</time></trkpt><trkpt lat="45.23887574669272" lon="8.320928428813996"><ele>138.66666666666669</ele><time>2026-04-26T12:21:22Z</time></trkpt><trkpt lat="45.23881248492875" lon="8.321193512948184"><ele>138.33333333333334</ele><time>2026-04-26T12:21:23Z</time></trkpt><trkpt lat="45.23875039448212" lon="8.321461378189529"><ele>138.0</ele><time>2026-04-26T12:21:24Z</time></trkpt><trkpt lat="45.238690513632974" lon="8.321735213370276"><ele>137.0</ele><time>2026-04-26T12:21:25Z</time></trkpt><trkpt lat="45.23863034633528" lon="8.322007487843265"><ele>136.0</ele><time>2026-04-26T12:21:26Z</time></trkpt><trkpt lat="45.23857114617251" lon="8.322283786345228"><ele>135.0</ele><time>2026-04-26T12:21:27Z</time></trkpt><trkpt lat="45.23850994677107" lon="8.3225630554742"><ele>135.0</ele><time>2026-04-26T12:21:28Z</time></trkpt><trkpt lat="45.238449650684686" lon="8.322838879158322"><ele>135.0</ele><time>2026-04-26T12:21:29Z</time></trkpt><trkpt lat="45.23838805251812" lon="8.32311476429433"><ele>135.0</ele><time>2026-04-26T12:21:30Z</time></trkpt><trkpt lat="45.23832954490599" lon="8.323384950203886"><ele>135.0</ele><time>2026-04-26T12:21:31Z</time></trkpt><trkpt lat="45.2382753813216" lon="8.323630624556449"><ele>135.0</ele><time>2026-04-26T12:21:32Z</time></trkpt><trkpt lat="45.23822623391099" lon="8.323849562929336"><ele>135.0</ele><time>2026-04-26T12:21:33Z</time></trkpt><trkpt lat="45.2381869364896" lon="8.324031655191613"><ele>135.0</ele><time>2026-04-26T12:21:34Z</time></trkpt><trkpt lat="45.23815487575771" lon="8.324182305441504"><ele>135.0</ele><time>2026-04-26T12:21:35Z</time></trkpt><trkpt lat="45.238122153185124" lon="8.324326170583246"><ele>135.0</ele><time>2026-04-26T12:21:36Z</time></trkpt><trkpt lat="45.238087561431655" lon="8.324483894429418"><ele>135.0</ele><time>2026-04-26T12:21:37Z</time></trkpt><trkpt lat="45.23805076270556" lon="8.324657673296787"><ele>134.75</ele><time>2026-04-26T12:21:38Z</time></trkpt><trkpt lat="45.23801163967162" lon="8.324839755267606"><ele>134.5</ele><time>2026-04-26T12:21:39Z</time></trkpt><trkpt lat="45.23797026207198" lon="8.325028972513271"><ele>134.25</ele><time>2026-04-26T12:21:40Z</time></trkpt><trkpt lat="45.23792432305972" lon="8.32522670829194"><ele>134.0</ele><time>2026-04-26T12:21:41Z</time></trkpt><trkpt lat="45.23787009597061" lon="8.325426189421796"><ele>133.66666666666666</ele><time>2026-04-26T12:21:42Z</time></trkpt><trkpt lat="45.237802115719376" lon="8.325625617491305"><ele>133.33333333333334</ele><time>2026-04-26T12:21:43Z</time></trkpt><trkpt lat="45.23772512221071" lon="8.325822227334386"><ele>133.0</ele><time>2026-04-26T12:21:44Z</time></trkpt><trkpt lat="45.23763902637766" lon="8.326017690916032"><ele>133.0</ele><time>2026-04-26T12:21:45Z</time></trkpt><trkpt lat="45.23754388141804" lon="8.32620105997195"><ele>133.0</ele><time>2026-04-26T12:21:46Z</time></trkpt><trkpt lat="45.237438734394495" lon="8.326373497409934"><ele>133.0</ele><time>2026-04-26T12:21:47Z</time></trkpt><trkpt lat="45.237316643522334" lon="8.326517442871536"><ele>134.0</ele><time>2026-04-26T12:21:48Z</time></trkpt><trkpt lat="45.23719162335794" lon="8.326652821643542"><ele>135.0</ele><time>2026-04-26T12:21:49Z</time></trkpt><trkpt lat="45.237068758082565" lon="8.3267784411094"><ele>136.0</ele><time>2026-04-26T12:21:50Z</time></trkpt><trkpt lat="45.23695233296989" lon="8.32689637758054"><ele>136.0</ele><time>2026-04-26T12:21:51Z</time></trkpt><trkpt lat="45.23684307212919" lon="8.327009078224126"><ele>136.0</ele><time>2026-04-26T12:21:52Z</time></trkpt><trkpt lat="45.23674539811689" lon="8.327111437357308"><ele>136.0</ele><time>2026-04-26T12:21:53Z</time></trkpt><trkpt lat="45.23665559488146" lon="8.327203962986058"><ele>136.0</ele><time>2026-04-26T12:21:54Z</time></trkpt><trkpt lat="45.23657478571017" lon="8.327287557787482"><ele>136.0</ele><time>2026-04-26T12:21:55Z</time></trkpt><trkpt lat="45.23650467619663" lon="8.327361658839546"><ele>136.0</ele><time>2026-04-26T12:21:56Z</time></trkpt><trkpt lat="45.2364446639702" lon="8.32742673494817"><ele>136.0</ele><time>2026-04-26T12:21:57Z</time></trkpt><trkpt lat="45.23639256679105" lon="8.327483869805889"><ele>136.0</ele><time>2026-04-26T12:21:58Z</time></trkpt><trkpt lat="45.23629496776786" lon="8.327581969076107"><ele>136.0</ele><time>2026-04-26T12:22:00Z</time></trkpt><trkpt lat="45.23623820273903" lon="8.327630579169634"><ele>136.0</ele><time>2026-04-26T12:22:01Z</time></trkpt><trkpt lat="45.23619344956375" lon="8.327696771233267"><ele>136.2</ele><time>2026-04-26T12:22:02Z</time></trkpt><trkpt lat="45.23602443568697" lon="8.327644681761965"><ele>136.39999999999998</ele><time>2026-04-26T12:22:04Z</time></trkpt><trkpt lat="45.23594885149647" lon="8.327591107813339"><ele>136.6</ele><time>2026-04-26T12:22:05Z</time></trkpt><trkpt lat="45.23588074689944" lon="8.32750994971368"><ele>136.79999999999998</ele><time>2026-04-26T12:22:06Z</time></trkpt><trkpt lat="45.23581482118464" lon="8.327413674174934"><ele>137.0</ele><time>2026-04-26T12:22:07Z</time></trkpt><trkpt lat="45.23574386577432" lon="8.327307709701774"><ele>137.0</ele><time>2026-04-26T12:22:08Z</time></trkpt><trkpt lat="45.23567035013905" lon="8.327194665689824"><ele>137.0</ele><time>2026-04-26T12:22:09Z</time></trkpt><trkpt lat="45.23559281356822" lon="8.327074455165373"><ele>137.0</ele><time>2026-04-26T12:22:10Z</time></trkpt><trkpt lat="45.23551147681139" lon="8.326955604593174"><ele>137.0</ele><time>2026-04-26T12:22:11Z</time></trkpt><trkpt lat="45.23542681478366" lon="8.326836435304848"><ele>137.25</ele><time>2026-04-26T12:22:12Z</time></trkpt><trkpt lat="45.235341206144625" lon="8.326714185327589"><ele>137.5</ele><time>2026-04-26T12:22:13Z</time></trkpt><trkpt lat="45.23525898971703" lon="8.326596971481543"><ele>137.75</ele><time>2026-04-26T12:22:14Z</time></trkpt><trkpt lat="45.2351809552705" lon="8.326484781632457"><ele>138.0</ele><time>2026-04-26T12:22:15Z</time></trkpt><trkpt lat="45.235105265696596" lon="8.326379269242095"><ele>138.20000000000002</ele><time>2026-04-26T12:22:16Z</time></trkpt><trkpt lat="45.235035338053315" lon="8.326281113815286"><ele>138.4</ele><time>2026-04-26T12:22:17Z</time></trkpt><trkpt lat="45.234968899864974" lon="8.326184333745847"><ele>138.60000000000002</ele><time>2026-04-26T12:22:18Z</time></trkpt><trkpt lat="45.234902710526306" lon="8.326092176460765"><ele>138.8</ele><time>2026-04-26T12:22:19Z</time></trkpt><trkpt lat="45.23483235462742" lon="8.32600148612601"><ele>139.0</ele><time>2026-04-26T12:22:20Z</time></trkpt><trkpt lat="45.23475437647917" lon="8.325915053488519"><ele>139.2</ele><time>2026-04-26T12:22:21Z</time></trkpt><trkpt lat="45.23467294166207" lon="8.32582254697824"><ele>139.4</ele><time>2026-04-26T12:22:22Z</time></trkpt><trkpt lat="45.23460143504242" lon="8.325699940659364"><ele>139.6</ele><time>2026-04-26T12:22:23Z</time></trkpt><trkpt lat="45.23451508294244" lon="8.325590968249513"><ele>139.8</ele><time>2026-04-26T12:22:24Z</time></trkpt><trkpt lat="45.23442960316116" lon="8.325482615337515"><ele>140.0</ele><time>2026-04-26T12:22:25Z</time></trkpt><trkpt lat="45.234340805652465" lon="8.325370056932263"><ele>140.25</ele><time>2026-04-26T12:22:26Z</time></trkpt><trkpt lat="45.23425000403286" lon="8.325254958143063"><ele>140.5</ele><time>2026-04-26T12:22:27Z</time></trkpt><trkpt lat="45.234159821720276" lon="8.325138354045102"><ele>140.75</ele><time>2026-04-26T12:22:28Z</time></trkpt><trkpt lat="45.23404920636025" lon="8.325056801934606"><ele>141.0</ele><time>2026-04-26T12:22:29Z</time></trkpt><trkpt lat="45.23396291649693" lon="8.324938606717238"><ele>141.0</ele><time>2026-04-26T12:22:30Z</time></trkpt><trkpt lat="45.23387125794427" lon="8.32482258260766"><ele>141.0</ele><time>2026-04-26T12:22:31Z</time></trkpt><trkpt lat="45.23378012542997" lon="8.324708199420053"><ele>141.0</ele><time>2026-04-26T12:22:32Z</time></trkpt><trkpt lat="45.23370804673891" lon="8.324558559979288"><ele>141.0</ele><time>2026-04-26T12:22:33Z</time></trkpt><trkpt lat="45.23361722790509" lon="8.324443826660932"><ele>140.75</ele><time>2026-04-26T12:22:34Z</time></trkpt><trkpt lat="45.233526817186814" lon="8.324329608927977"><ele>140.5</ele><time>2026-04-26T12:22:35Z</time></trkpt><trkpt lat="45.23343640149149" lon="8.324217796982746"><ele>140.25</ele><time>2026-04-26T12:22:36Z</time></trkpt><trkpt lat="45.233345942278945" lon="8.324105527763178"><ele>140.0</ele><time>2026-04-26T12:22:37Z</time></trkpt><trkpt lat="45.233255579669574" lon="8.32399309011779"><ele>140.0</ele><time>2026-04-26T12:22:38Z</time></trkpt><trkpt lat="45.23316372460823" lon="8.323878778766247"><ele>140.0</ele><time>2026-04-26T12:22:39Z</time></trkpt><trkpt lat="45.233069339111424" lon="8.323761318354691"><ele>140.0</ele><time>2026-04-26T12:22:40Z</time></trkpt><trkpt lat="45.23297178117337" lon="8.32363990991537"><ele>140.0</ele><time>2026-04-26T12:22:41Z</time></trkpt><trkpt lat="45.23287241073488" lon="8.323516245866303"><ele>140.0</ele><time>2026-04-26T12:22:42Z</time></trkpt><trkpt lat="45.232772871092884" lon="8.32339237124436"><ele>140.0</ele><time>2026-04-26T12:22:43Z</time></trkpt><trkpt lat="45.23267355563667" lon="8.323268775616752"><ele>140.0</ele><time>2026-04-26T12:22:44Z</time></trkpt><trkpt lat="45.23257242830018" lon="8.323142925151425"><ele>140.0</ele><time>2026-04-26T12:22:45Z</time></trkpt><trkpt lat="45.23247284821862" lon="8.323019000202684"><ele>140.0</ele><time>2026-04-26T12:22:46Z</time></trkpt><trkpt lat="45.23237237161348" lon="8.322893959556565"><ele>140.0</ele><time>2026-04-26T12:22:47Z</time></trkpt><trkpt lat="45.23226242362532" lon="8.322780375606408"><ele>140.0</ele><time>2026-04-26T12:22:48Z</time></trkpt><trkpt lat="45.23215821491875" lon="8.322656561285097"><ele>140.0</ele><time>2026-04-26T12:22:49Z</time></trkpt><trkpt lat="45.23206598722125" lon="8.322512671765276"><ele>140.0</ele><time>2026-04-26T12:22:50Z</time></trkpt><trkpt lat="45.23195620008703" lon="8.322397119918378"><ele>140.0</ele><time>2026-04-26T12:22:51Z</time></trkpt><trkpt lat="45.231854705220464" lon="8.322271789132035"><ele>140.0</ele><time>2026-04-26T12:22:52Z</time></trkpt><trkpt lat="45.2317547711078" lon="8.322146079491983"><ele>140.0</ele><time>2026-04-26T12:22:53Z</time></trkpt><trkpt lat="45.23165229052107" lon="8.32202433928585"><ele>140.0</ele><time>2026-04-26T12:22:54Z</time></trkpt><trkpt lat="45.23155283933721" lon="8.3219048270493"><ele>140.0</ele><time>2026-04-26T12:22:55Z</time></trkpt><trkpt lat="45.23146605911958" lon="8.321765895936926"><ele>140.0</ele><time>2026-04-26T12:22:56Z</time></trkpt><trkpt lat="45.23136411984885" lon="8.32165368100177"><ele>140.0</ele><time>2026-04-26T12:22:57Z</time></trkpt><trkpt lat="45.23126229640542" lon="8.32153132259322"><ele>140.0</ele><time>2026-04-26T12:22:58Z</time></trkpt><trkpt lat="45.23116091305882" lon="8.321409473142179"><ele>140.0</ele><time>2026-04-26T12:22:59Z</time></trkpt><trkpt lat="45.2310625056808" lon="8.321293716425883"><ele>140.0</ele><time>2026-04-26T12:23:00Z</time></trkpt><trkpt lat="45.230969341493065" lon="8.32117257673066"><ele>140.0</ele><time>2026-04-26T12:23:01Z</time></trkpt><trkpt lat="45.230880805385425" lon="8.32105466781499"><ele>140.0</ele><time>2026-04-26T12:23:02Z</time></trkpt><trkpt lat="45.2307868688741" lon="8.320943061653317"><ele>140.0</ele><time>2026-04-26T12:23:03Z</time></trkpt><trkpt lat="45.23069386320038" lon="8.320829407341911"><ele>140.0</ele><time>2026-04-26T12:23:04Z</time></trkpt><trkpt lat="45.23059682456444" lon="8.320709396118003"><ele>140.0</ele><time>2026-04-26T12:23:05Z</time></trkpt><trkpt lat="45.23049634302161" lon="8.320581582904591"><ele>140.0</ele><time>2026-04-26T12:23:06Z</time></trkpt><trkpt lat="45.23038874467686" lon="8.320443495972931"><ele>140.0</ele><time>2026-04-26T12:23:07Z</time></trkpt><trkpt lat="45.23028049040337" lon="8.320308837437095"><ele>140.0</ele><time>2026-04-26T12:23:08Z</time></trkpt><trkpt lat="45.23016547387966" lon="8.320167051020494"><ele>140.0</ele><time>2026-04-26T12:23:09Z</time></trkpt><trkpt lat="45.23004602867464" lon="8.320018811404987"><ele>140.0</ele><time>2026-04-26T12:23:10Z</time></trkpt><trkpt lat="45.229919274130175" lon="8.319864068731338"><ele>140.0</ele><time>2026-04-26T12:23:11Z</time></trkpt><trkpt lat="45.22978872981536" lon="8.319697678593458"><ele>140.0</ele><time>2026-04-26T12:23:12Z</time></trkpt><trkpt lat="45.22965452637492" lon="8.319527509793394"><ele>140.0</ele><time>2026-04-26T12:23:13Z</time></trkpt><trkpt lat="45.22951446031754" lon="8.319351755449535"><ele>140.0</ele><time>2026-04-26T12:23:14Z</time></trkpt><trkpt lat="45.229376010810924" lon="8.319183757497893"><ele>140.0</ele><time>2026-04-26T12:23:15.001Z</time></trkpt><trkpt lat="45.22923651820177" lon="8.319016125779765"><ele>139.66666666666666</ele><time>2026-04-26T12:23:16.001Z</time></trkpt><trkpt lat="45.229094773944745" lon="8.318838782217867"><ele>139.33333333333334</ele><time>2026-04-26T12:23:17.001Z</time></trkpt><trkpt lat="45.228949957312736" lon="8.318664322008633"><ele>139.0</ele><time>2026-04-26T12:23:18.001Z</time></trkpt><trkpt lat="45.22880260435835" lon="8.318486064560974"><ele>139.0</ele><time>2026-04-26T12:23:19.001Z</time></trkpt><trkpt lat="45.228656590942286" lon="8.318300974233654"><ele>139.0</ele><time>2026-04-26T12:23:20.001Z</time></trkpt><trkpt lat="45.2285117784172" lon="8.318116305410385"><ele>139.0</ele><time>2026-04-26T12:23:21.001Z</time></trkpt><trkpt lat="45.228367452836295" lon="8.317935801889462"><ele>139.0</ele><time>2026-04-26T12:23:22.001Z</time></trkpt><trkpt lat="45.228223857124526" lon="8.317759820853345"><ele>139.0</ele><time>2026-04-26T12:23:23.001Z</time></trkpt><trkpt lat="45.22808200497753" lon="8.317581662577746"><ele>139.0</ele><time>2026-04-26T12:23:24.001Z</time></trkpt><trkpt lat="45.22794018565417" lon="8.317404239830115"><ele>139.0</ele><time>2026-04-26T12:23:25.001Z</time></trkpt><trkpt lat="45.22780017598295" lon="8.317226648279885"><ele>139.0</ele><time>2026-04-26T12:23:26.001Z</time></trkpt><trkpt lat="45.2276612060442" lon="8.31705571984557"><ele>139.0</ele><time>2026-04-26T12:23:27.001Z</time></trkpt><trkpt lat="45.22752393820769" lon="8.316884455592497"><ele>139.0</ele><time>2026-04-26T12:23:28Z</time></trkpt><trkpt lat="45.22738801090128" lon="8.316715282832586"><ele>139.0</ele><time>2026-04-26T12:23:29Z</time></trkpt><trkpt lat="45.22725537066387" lon="8.316548406848963"><ele>139.0</ele><time>2026-04-26T12:23:30Z</time></trkpt><trkpt lat="45.227127281089544" lon="8.316386318328133"><ele>139.0</ele><time>2026-04-26T12:23:31Z</time></trkpt><trkpt lat="45.227003635828545" lon="8.316229608899356"><ele>139.0</ele><time>2026-04-26T12:23:32Z</time></trkpt><trkpt lat="45.22688486345856" lon="8.316084890716589"><ele>139.0</ele><time>2026-04-26T12:23:33Z</time></trkpt><trkpt lat="45.22677112367" lon="8.315943455560094"><ele>139.0</ele><time>2026-04-26T12:23:34Z</time></trkpt><trkpt lat="45.22665135564355" lon="8.31579514359175"><ele>139.0</ele><time>2026-04-26T12:23:35Z</time></trkpt><trkpt lat="45.22653979202939" lon="8.31565671791499"><ele>139.0</ele><time>2026-04-26T12:23:36Z</time></trkpt><trkpt lat="45.22646432805474" lon="8.315561192072076"><ele>139.0</ele><time>2026-04-26T12:23:37Z</time></trkpt><trkpt lat="45.22640508198638" lon="8.315490711973808"><ele>139.2</ele><time>2026-04-26T12:23:38Z</time></trkpt><trkpt lat="45.22636737224964" lon="8.315414588642208"><ele>139.4</ele><time>2026-04-26T12:23:40Z</time></trkpt><trkpt lat="45.22642539519376" lon="8.315313294249213"><ele>139.6</ele><time>2026-04-26T12:23:43Z</time></trkpt><trkpt lat="45.226437976013756" lon="8.315165095633017"><ele>139.8</ele><time>2026-04-26T12:23:45Z</time></trkpt><trkpt lat="45.226363853892494" lon="8.315029844488148"><ele>140.0</ele><time>2026-04-26T12:23:47Z</time></trkpt><trkpt lat="45.226295283508236" lon="8.31498643639297"><ele>140.0</ele><time>2026-04-26T12:23:48Z</time></trkpt><trkpt lat="45.226211198108274" lon="8.314947418141825"><ele>140.0</ele><time>2026-04-26T12:23:49Z</time></trkpt><trkpt lat="45.226121091209535" lon="8.314902007507552"><ele>140.0</ele><time>2026-04-26T12:23:50Z</time></trkpt><trkpt lat="45.226034620247106" lon="8.314847388251666"><ele>140.0</ele><time>2026-04-26T12:23:51Z</time></trkpt><trkpt lat="45.22595766272107" lon="8.314791436867228"><ele>140.0</ele><time>2026-04-26T12:23:52Z</time></trkpt><trkpt lat="45.22589390405853" lon="8.31473589381172"><ele>140.0</ele><time>2026-04-26T12:23:53Z</time></trkpt><trkpt lat="45.22584238639591" lon="8.314675847399831"><ele>139.83333333333331</ele><time>2026-04-26T12:23:54Z</time></trkpt><trkpt lat="45.22579167684949" lon="8.314613218187716"><ele>139.66666666666666</ele><time>2026-04-26T12:23:55Z</time></trkpt><trkpt lat="45.22573919686916" lon="8.314542164601262"><ele>139.5</ele><time>2026-04-26T12:23:56Z</time></trkpt><trkpt lat="45.22569364299497" lon="8.314473975719995"><ele>139.33333333333334</ele><time>2026-04-26T12:23:57Z</time></trkpt><trkpt lat="45.2256339869479" lon="8.314365371938711"><ele>139.16666666666669</ele><time>2026-04-26T12:23:59Z</time></trkpt><trkpt lat="45.22559962663261" lon="8.314259305057915"><ele>139.0</ele><time>2026-04-26T12:24:02Z</time></trkpt><trkpt lat="45.225563833494476" lon="8.314113119631944"><ele>139.0</ele><time>2026-04-26T12:24:05Z</time></trkpt><trkpt lat="45.225382643913136" lon="8.314234030824869"><ele>139.0</ele><time>2026-04-26T12:24:06Z</time></trkpt><trkpt lat="45.22533410350678" lon="8.314174233175697"><ele>139.0</ele><time>2026-04-26T12:24:07Z</time></trkpt><trkpt lat="45.225280261277874" lon="8.314107903955609"><ele>139.0</ele><time>2026-04-26T12:24:08Z</time></trkpt><trkpt lat="45.22522211458843" lon="8.314036271928309"><ele>139.0</ele><time>2026-04-26T12:24:09Z</time></trkpt><trkpt lat="45.225162917327516" lon="8.313961227120025"><ele>138.8</ele><time>2026-04-26T12:24:10Z</time></trkpt><trkpt lat="45.225103665322415" lon="8.313886049776487"><ele>138.60000000000002</ele><time>2026-04-26T12:24:11Z</time></trkpt><trkpt lat="45.22504941650898" lon="8.313820838085764"><ele>138.4</ele><time>2026-04-26T12:24:12Z</time></trkpt><trkpt lat="45.22499770152872" lon="8.313763136383582"><ele>138.20000000000002</ele><time>2026-04-26T12:24:13Z</time></trkpt><trkpt lat="45.224944195848394" lon="8.313707969180584"><ele>138.0</ele><time>2026-04-26T12:24:14Z</time></trkpt><trkpt lat="45.2248548892403" lon="8.313492951004372"><ele>138.0</ele><time>2026-04-26T12:24:16Z</time></trkpt><trkpt lat="45.22480206375993" lon="8.313420719418001"><ele>138.0</ele><time>2026-04-26T12:24:17Z</time></trkpt><trkpt lat="45.22474214512285" lon="8.313339739926683"><ele>138.0</ele><time>2026-04-26T12:24:18Z</time></trkpt><trkpt lat="45.224681277861464" lon="8.31325794230447"><ele>138.0</ele><time>2026-04-26T12:24:19Z</time></trkpt><trkpt lat="45.22461787518895" lon="8.313174857232378"><ele>138.0</ele><time>2026-04-26T12:24:20Z</time></trkpt><trkpt lat="45.22455426601593" lon="8.313093592127974"><ele>138.0</ele><time>2026-04-26T12:24:21Z</time></trkpt><trkpt lat="45.224489639918076" lon="8.313011027813733"><ele>138.0</ele><time>2026-04-26T12:24:22Z</time></trkpt><trkpt lat="45.2244233669523" lon="8.312926484545807"><ele>138.0</ele><time>2026-04-26T12:24:23Z</time></trkpt><trkpt lat="45.22435487714685" lon="8.312839124108287"><ele>138.0</ele><time>2026-04-26T12:24:24Z</time></trkpt><trkpt lat="45.224290645237616" lon="8.312757194727629"><ele>138.0</ele><time>2026-04-26T12:24:25Z</time></trkpt><trkpt lat="45.224229055038506" lon="8.31267923894073"><ele>138.0</ele><time>2026-04-26T12:24:26Z</time></trkpt><trkpt lat="45.2241694326549" lon="8.312604073968055"><ele>138.0</ele><time>2026-04-26T12:24:27Z</time></trkpt><trkpt lat="45.22410838193089" lon="8.312527108307979"><ele>138.0</ele><time>2026-04-26T12:24:28Z</time></trkpt><trkpt lat="45.22404910169355" lon="8.312452650588712"><ele>138.0</ele><time>2026-04-26T12:24:29Z</time></trkpt><trkpt lat="45.22398743061508" lon="8.312376713022404"><ele>138.0</ele><time>2026-04-26T12:24:30Z</time></trkpt><trkpt lat="45.22392032919203" lon="8.31229408890794"><ele>138.0</ele><time>2026-04-26T12:24:31Z</time></trkpt><trkpt lat="45.2238551232451" lon="8.312213798749886"><ele>138.0</ele><time>2026-04-26T12:24:32Z</time></trkpt><trkpt lat="45.22378726876593" lon="8.31213024738272"><ele>138.0</ele><time>2026-04-26T12:24:33Z</time></trkpt><trkpt lat="45.22372285380939" lon="8.312050931189766"><ele>138.0</ele><time>2026-04-26T12:24:34Z</time></trkpt><trkpt lat="45.22366468155523" lon="8.311979301825179"><ele>138.0</ele><time>2026-04-26T12:24:35Z</time></trkpt><trkpt lat="45.223606125724785" lon="8.311907200179153"><ele>138.0</ele><time>2026-04-26T12:24:36Z</time></trkpt><trkpt lat="45.22354378856195" lon="8.311830442452335"><ele>138.0</ele><time>2026-04-26T12:24:37Z</time></trkpt><trkpt lat="45.22347769819304" lon="8.311748008684106"><ele>138.0</ele><time>2026-04-26T12:24:38Z</time></trkpt><trkpt lat="45.2234074084675" lon="8.31166024398541"><ele>138.0</ele><time>2026-04-26T12:24:39Z</time></trkpt><trkpt lat="45.22333624651217" lon="8.311571390202452"><ele>138.0</ele><time>2026-04-26T12:24:40Z</time></trkpt><trkpt lat="45.223263980981386" lon="8.311481158496296"><ele>138.0</ele><time>2026-04-26T12:24:41Z</time></trkpt><trkpt lat="45.22318821578131" lon="8.311386557040462"><ele>138.0</ele><time>2026-04-26T12:24:42Z</time></trkpt><trkpt lat="45.223110674511574" lon="8.311290327248736"><ele>138.0</ele><time>2026-04-26T12:24:43Z</time></trkpt><trkpt lat="45.22303047870208" lon="8.311193852462635"><ele>138.0</ele><time>2026-04-26T12:24:44Z</time></trkpt><trkpt lat="45.22295364961855" lon="8.311101427836252"><ele>137.8</ele><time>2026-04-26T12:24:45Z</time></trkpt><trkpt lat="45.22287716355043" lon="8.31101211557008"><ele>137.60000000000002</ele><time>2026-04-26T12:24:46Z</time></trkpt><trkpt lat="45.22280410030518" lon="8.310927087724384"><ele>137.39999999999998</ele><time>2026-04-26T12:24:47Z</time></trkpt><trkpt lat="45.222732586547096" lon="8.310844177032559"><ele>137.2</ele><time>2026-04-26T12:24:48Z</time></trkpt><trkpt lat="45.22265931006996" lon="8.310763718665179"><ele>137.0</ele><time>2026-04-26T12:24:49Z</time></trkpt><trkpt lat="45.22258313967889" lon="8.310681544820612"><ele>137.0</ele><time>2026-04-26T12:24:50Z</time></trkpt><trkpt lat="45.22251566501146" lon="8.310611698473814"><ele>137.0</ele><time>2026-04-26T12:24:51Z</time></trkpt><trkpt lat="45.22244838210064" lon="8.310543499904723"><ele>137.0</ele><time>2026-04-26T12:24:52Z</time></trkpt><trkpt lat="45.22237309153972" lon="8.310471146460168"><ele>137.0</ele><time>2026-04-26T12:24:53Z</time></trkpt><trkpt lat="45.222301157670806" lon="8.310403446541146"><ele>137.0</ele><time>2026-04-26T12:24:54Z</time></trkpt><trkpt lat="45.22223899067742" lon="8.310345734986702"><ele>137.0</ele><time>2026-04-26T12:24:55Z</time></trkpt><trkpt lat="45.22213218132258" lon="8.310250327731827"><ele>137.0</ele><time>2026-04-26T12:24:57Z</time></trkpt><trkpt lat="45.22206762591202" lon="8.310192663708156"><ele>137.0</ele><time>2026-04-26T12:24:58Z</time></trkpt><trkpt lat="45.221998326852855" lon="8.310130762605253"><ele>137.0</ele><time>2026-04-26T12:24:59Z</time></trkpt><trkpt lat="45.22192262051174" lon="8.310069379625597"><ele>137.0</ele><time>2026-04-26T12:25:00Z</time></trkpt><trkpt lat="45.22184621730604" lon="8.310006841815252"><ele>137.0</ele><time>2026-04-26T12:25:01Z</time></trkpt><trkpt lat="45.221764888624406" lon="8.309941434676347"><ele>137.0</ele><time>2026-04-26T12:25:02Z</time></trkpt><trkpt lat="45.221694593414284" lon="8.309887927412927"><ele>137.0</ele><time>2026-04-26T12:25:03Z</time></trkpt><trkpt lat="45.22163127211412" lon="8.309839398922339"><ele>137.0</ele><time>2026-04-26T12:25:04Z</time></trkpt><trkpt lat="45.22155173172437" lon="8.309781782335067"><ele>137.0</ele><time>2026-04-26T12:25:06Z</time></trkpt><trkpt lat="45.22149428780938" lon="8.309710289737625"><ele>137.0</ele><time>2026-04-26T12:25:09Z</time></trkpt><trkpt lat="45.221467670464186" lon="8.309815719961673"><ele>137.0</ele><time>2026-04-26T12:25:14.001Z</time></trkpt><trkpt lat="45.221365279281095" lon="8.309788047415921"><ele>137.0</ele><time>2026-04-26T12:25:15.001Z</time></trkpt><trkpt lat="45.22129208311903" lon="8.309744083713053"><ele>137.4</ele><time>2026-04-26T12:25:16.001Z</time></trkpt><trkpt lat="45.221213356160185" lon="8.309676269366284"><ele>137.79999999999998</ele><time>2026-04-26T12:25:17.001Z</time></trkpt><trkpt lat="45.22112108650694" lon="8.309607423117662"><ele>138.2</ele><time>2026-04-26T12:25:18.001Z</time></trkpt><trkpt lat="45.22100956332352" lon="8.309537876437146"><ele>138.6</ele><time>2026-04-26T12:25:19.001Z</time></trkpt><trkpt lat="45.22089245395024" lon="8.309471719326217"><ele>139.0</ele><time>2026-04-26T12:25:20.001Z</time></trkpt><trkpt lat="45.220766462252215" lon="8.309405737753771"><ele>139.0</ele><time>2026-04-26T12:25:21.001Z</time></trkpt><trkpt lat="45.220629092148684" lon="8.309338251005332"><ele>139.0</ele><time>2026-04-26T12:25:22.001Z</time></trkpt><trkpt lat="45.220486654697" lon="8.309272011955123"><ele>139.0</ele><time>2026-04-26T12:25:23.001Z</time></trkpt><trkpt lat="45.22033336943469" lon="8.30920065198823"><ele>139.0</ele><time>2026-04-26T12:25:24.001Z</time></trkpt><trkpt lat="45.220166218686956" lon="8.309127852843272"><ele>139.0</ele><time>2026-04-26T12:25:25.001Z</time></trkpt><trkpt lat="45.21999426927974" lon="8.309051909712991"><ele>139.0</ele><time>2026-04-26T12:25:26.001Z</time></trkpt><trkpt lat="45.219826751627764" lon="8.308972638686534"><ele>139.66666666666669</ele><time>2026-04-26T12:25:27.001Z</time></trkpt><trkpt lat="45.21965150800637" lon="8.30888539612421"><ele>140.33333333333334</ele><time>2026-04-26T12:25:28.001Z</time></trkpt><trkpt lat="45.21946976551099" lon="8.308799494065477"><ele>141.0</ele><time>2026-04-26T12:25:29.001Z</time></trkpt><trkpt lat="45.21928010590634" lon="8.30871207090097"><ele>141.0</ele><time>2026-04-26T12:25:30.001Z</time></trkpt><trkpt lat="45.219085171818776" lon="8.308625140074364"><ele>141.0</ele><time>2026-04-26T12:25:31.001Z</time></trkpt><trkpt lat="45.21888602548275" lon="8.30853632190365"><ele>141.0</ele><time>2026-04-26T12:25:32.001Z</time></trkpt><trkpt lat="45.21868633037181" lon="8.30844576566667"><ele>140.66666666666666</ele><time>2026-04-26T12:25:33.001Z</time></trkpt><trkpt lat="45.2184823937282" lon="8.308346855492271"><ele>140.33333333333331</ele><time>2026-04-26T12:25:34Z</time></trkpt><trkpt lat="45.21827568061707" lon="8.308243771606275"><ele>140.0</ele><time>2026-04-26T12:25:35Z</time></trkpt><trkpt lat="45.21807010742635" lon="8.308142962900542"><ele>140.33333333333331</ele><time>2026-04-26T12:25:36Z</time></trkpt><trkpt lat="45.217876954204286" lon="8.308054685485189"><ele>140.66666666666666</ele><time>2026-04-26T12:25:37Z</time></trkpt><trkpt lat="45.217696887918805" lon="8.307976347304294"><ele>141.0</ele><time>2026-04-26T12:25:38Z</time></trkpt><trkpt lat="45.21752489913047" lon="8.30789894271608"><ele>141.0</ele><time>2026-04-26T12:25:39Z</time></trkpt><trkpt lat="45.21735177132537" lon="8.307818676667138"><ele>141.0</ele><time>2026-04-26T12:25:40Z</time></trkpt><trkpt lat="45.21718052463179" lon="8.307738918151953"><ele>141.0</ele><time>2026-04-26T12:25:41Z</time></trkpt><trkpt lat="45.21700830171972" lon="8.307659098031207"><ele>141.0</ele><time>2026-04-26T12:25:42Z</time></trkpt><trkpt lat="45.21683149457396" lon="8.307576049898513"><ele>141.0</ele><time>2026-04-26T12:25:43Z</time></trkpt><trkpt lat="45.21665294585241" lon="8.30749279884124"><ele>141.0</ele><time>2026-04-26T12:25:44Z</time></trkpt><trkpt lat="45.216469740485394" lon="8.307409930986399"><ele>141.0</ele><time>2026-04-26T12:25:45Z</time></trkpt><trkpt lat="45.216284671049976" lon="8.307325343197117"><ele>141.0</ele><time>2026-04-26T12:25:46Z</time></trkpt><trkpt lat="45.21609966693262" lon="8.307238334307392"><ele>141.0</ele><time>2026-04-26T12:25:47Z</time></trkpt><trkpt lat="45.21591419237431" lon="8.307151522264563"><ele>141.33333333333334</ele><time>2026-04-26T12:25:48Z</time></trkpt><trkpt lat="45.21572889632065" lon="8.307066356936575"><ele>141.66666666666669</ele><time>2026-04-26T12:25:49Z</time></trkpt><trkpt lat="45.215546352580624" lon="8.306983244757669"><ele>142.0</ele><time>2026-04-26T12:25:50Z</time></trkpt><trkpt lat="45.21536775749589" lon="8.306899771459799"><ele>142.33333333333334</ele><time>2026-04-26T12:25:51Z</time></trkpt><trkpt lat="45.2151908758196" lon="8.306816951598925"><ele>142.66666666666666</ele><time>2026-04-26T12:25:52Z</time></trkpt><trkpt lat="45.21501422298429" lon="8.306735707163263"><ele>143.0</ele><time>2026-04-26T12:25:53Z</time></trkpt><trkpt lat="45.214836034479724" lon="8.306659716884653"><ele>142.33333333333331</ele><time>2026-04-26T12:25:54Z</time></trkpt><trkpt lat="45.21466106154214" lon="8.30657906124728"><ele>141.66666666666666</ele><time>2026-04-26T12:25:55Z</time></trkpt><trkpt lat="45.21448366520355" lon="8.306499716470322"><ele>141.0</ele><time>2026-04-26T12:25:56Z</time></trkpt><trkpt lat="45.214305814923826" lon="8.306416761699952"><ele>141.0</ele><time>2026-04-26T12:25:57Z</time></trkpt><trkpt lat="45.21412673239103" lon="8.306331758510192"><ele>141.0</ele><time>2026-04-26T12:25:58Z</time></trkpt><trkpt lat="45.213942857036756" lon="8.306244794433345"><ele>141.0</ele><time>2026-04-26T12:25:59Z</time></trkpt><trkpt lat="45.213755866879595" lon="8.306153729201629"><ele>141.0</ele><time>2026-04-26T12:26:00Z</time></trkpt><trkpt lat="45.21356472263428" lon="8.30606306734305"><ele>141.0</ele><time>2026-04-26T12:26:01Z</time></trkpt><trkpt lat="45.213370051520656" lon="8.305973724308968"><ele>141.0</ele><time>2026-04-26T12:26:02Z</time></trkpt><trkpt lat="45.21316859660903" lon="8.305883317754233"><ele>141.33333333333334</ele><time>2026-04-26T12:26:03Z</time></trkpt><trkpt lat="45.212967334091964" lon="8.305792950564225"><ele>141.66666666666669</ele><time>2026-04-26T12:26:04Z</time></trkpt><trkpt lat="45.2127642525674" lon="8.30570119515174"><ele>142.0</ele><time>2026-04-26T12:26:05Z</time></trkpt><trkpt lat="45.212557826592715" lon="8.305605515683224"><ele>141.66666666666669</ele><time>2026-04-26T12:26:06Z</time></trkpt><trkpt lat="45.21235225839478" lon="8.305509979397725"><ele>141.33333333333334</ele><time>2026-04-26T12:26:07Z</time></trkpt><trkpt lat="45.21214589745461" lon="8.305414869466057"><ele>141.0</ele><time>2026-04-26T12:26:08Z</time></trkpt><trkpt lat="45.21193727800377" lon="8.30531798221141"><ele>141.0</ele><time>2026-04-26T12:26:09Z</time></trkpt><trkpt lat="45.211730876823005" lon="8.305221805927307"><ele>141.0</ele><time>2026-04-26T12:26:10Z</time></trkpt><trkpt lat="45.211524608881724" lon="8.305124450814859"><ele>141.0</ele><time>2026-04-26T12:26:11Z</time></trkpt><trkpt lat="45.21132119496248" lon="8.305031996222779"><ele>141.66666666666666</ele><time>2026-04-26T12:26:12Z</time></trkpt><trkpt lat="45.21111763057808" lon="8.304937096101796"><ele>142.33333333333331</ele><time>2026-04-26T12:26:13Z</time></trkpt><trkpt lat="45.21091437255744" lon="8.304844523257639"><ele>143.0</ele><time>2026-04-26T12:26:14Z</time></trkpt><trkpt lat="45.2107112940119" lon="8.304752862433967"><ele>142.0</ele><time>2026-04-26T12:26:15Z</time></trkpt><trkpt lat="45.21051320510091" lon="8.304665200650788"><ele>141.0</ele><time>2026-04-26T12:26:16Z</time></trkpt><trkpt lat="45.210318766090666" lon="8.30458004412486"><ele>140.0</ele><time>2026-04-26T12:26:17Z</time></trkpt><trkpt lat="45.210130562635094" lon="8.304496146433364"><ele>140.0</ele><time>2026-04-26T12:26:18Z</time></trkpt><trkpt lat="45.20994715553045" lon="8.304415212281027"><ele>140.0</ele><time>2026-04-26T12:26:19Z</time></trkpt><trkpt lat="45.20976819661194" lon="8.304344476831336"><ele>140.0</ele><time>2026-04-26T12:26:20Z</time></trkpt><trkpt lat="45.20959868488162" lon="8.304284911672537"><ele>140.33333333333331</ele><time>2026-04-26T12:26:21Z</time></trkpt><trkpt lat="45.209433608087586" lon="8.304233537112832"><ele>140.66666666666666</ele><time>2026-04-26T12:26:22Z</time></trkpt><trkpt lat="45.20927323909782" lon="8.304190310050743"><ele>141.0</ele><time>2026-04-26T12:26:23Z</time></trkpt><trkpt lat="45.20912043398223" lon="8.304150582022272"><ele>140.75</ele><time>2026-04-26T12:26:24Z</time></trkpt><trkpt lat="45.208977118399005" lon="8.304117149478207"><ele>140.5</ele><time>2026-04-26T12:26:25Z</time></trkpt><trkpt lat="45.20884046736725" lon="8.304085068713707"><ele>140.25</ele><time>2026-04-26T12:26:26Z</time></trkpt><trkpt lat="45.20870850981539" lon="8.304050011850908"><ele>140.0</ele><time>2026-04-26T12:26:27Z</time></trkpt><trkpt lat="45.20858316294325" lon="8.304017713601468"><ele>140.0</ele><time>2026-04-26T12:26:28Z</time></trkpt><trkpt lat="45.20846491327269" lon="8.303986824127156"><ele>140.0</ele><time>2026-04-26T12:26:29Z</time></trkpt><trkpt lat="45.20836502504955" lon="8.303955258854263"><ele>140.0</ele><time>2026-04-26T12:26:30Z</time></trkpt><trkpt lat="45.20827505829806" lon="8.303915096199823"><ele>140.0</ele><time>2026-04-26T12:26:31Z</time></trkpt><trkpt lat="45.208195112838716" lon="8.303865438613633"><ele>140.0</ele><time>2026-04-26T12:26:32Z</time></trkpt><trkpt lat="45.208124485896704" lon="8.303777795738077"><ele>140.0</ele><time>2026-04-26T12:26:33Z</time></trkpt><trkpt lat="45.20806096401847" lon="8.30367934616785"><ele>140.0</ele><time>2026-04-26T12:26:34Z</time></trkpt><trkpt lat="45.20798443100903" lon="8.303599040836096"><ele>140.0</ele><time>2026-04-26T12:26:35Z</time></trkpt><trkpt lat="45.207877067754346" lon="8.303557099046033"><ele>140.0</ele><time>2026-04-26T12:26:36Z</time></trkpt><trkpt lat="45.207760289210526" lon="8.303514419060543"><ele>140.0</ele><time>2026-04-26T12:26:37Z</time></trkpt><trkpt lat="45.20764343885571" lon="8.303442809938895"><ele>140.0</ele><time>2026-04-26T12:26:38Z</time></trkpt><trkpt lat="45.20753408610094" lon="8.303337047037223"><ele>140.0</ele><time>2026-04-26T12:26:39Z</time></trkpt><trkpt lat="45.20742430240739" lon="8.303227795835225"><ele>140.0</ele><time>2026-04-26T12:26:40Z</time></trkpt><trkpt lat="45.20729849331802" lon="8.303115536469807"><ele>140.0</ele><time>2026-04-26T12:26:41Z</time></trkpt><trkpt lat="45.20716537345411" lon="8.303001083563643"><ele>140.0</ele><time>2026-04-26T12:26:42Z</time></trkpt><trkpt lat="45.20702704881835" lon="8.302875505069252"><ele>140.0</ele><time>2026-04-26T12:26:43Z</time></trkpt><trkpt lat="45.20688675963237" lon="8.302740351885483"><ele>140.0</ele><time>2026-04-26T12:26:44Z</time></trkpt><trkpt lat="45.20674122866495" lon="8.30259998933034"><ele>140.0</ele><time>2026-04-26T12:26:45Z</time></trkpt><trkpt lat="45.206593653544125" lon="8.30245982477168"><ele>140.0</ele><time>2026-04-26T12:26:46Z</time></trkpt><trkpt lat="45.20644865027369" lon="8.302323911046875"><ele>140.0</ele><time>2026-04-26T12:26:47Z</time></trkpt><trkpt lat="45.2063075879472" lon="8.302186730525454"><ele>138.66666666666666</ele><time>2026-04-26T12:26:48Z</time></trkpt><trkpt lat="45.20616627862478" lon="8.30205241454957"><ele>137.33333333333334</ele><time>2026-04-26T12:26:49Z</time></trkpt><trkpt lat="45.206026052895844" lon="8.301916588359317"><ele>136.0</ele><time>2026-04-26T12:26:50Z</time></trkpt><trkpt lat="45.20588489147291" lon="8.301781681597754"><ele>136.0</ele><time>2026-04-26T12:26:51Z</time></trkpt><trkpt lat="45.205741809315995" lon="8.301651367607843"><ele>136.0</ele><time>2026-04-26T12:26:52Z</time></trkpt><trkpt lat="45.205602616145356" lon="8.30151650767504"><ele>136.0</ele><time>2026-04-26T12:26:53Z</time></trkpt><trkpt lat="45.205462037240245" lon="8.301383308640286"><ele>135.33333333333334</ele><time>2026-04-26T12:26:54Z</time></trkpt><trkpt lat="45.20532219564916" lon="8.301247608828689"><ele>134.66666666666666</ele><time>2026-04-26T12:26:55Z</time></trkpt><trkpt lat="45.20518155954864" lon="8.301116382097694"><ele>134.0</ele><time>2026-04-26T12:26:56Z</time></trkpt><trkpt lat="45.205037637683525" lon="8.300983778016672"><ele>134.0</ele><time>2026-04-26T12:26:57Z</time></trkpt><trkpt lat="45.20489095754576" lon="8.300847116670067"><ele>134.0</ele><time>2026-04-26T12:26:58Z</time></trkpt><trkpt lat="45.204743343521244" lon="8.30070638113482"><ele>134.0</ele><time>2026-04-26T12:26:59Z</time></trkpt><trkpt lat="45.20459563761766" lon="8.300563935107217"><ele>133.66666666666666</ele><time>2026-04-26T12:27:00Z</time></trkpt><trkpt lat="45.20444852418283" lon="8.300418029540385"><ele>133.33333333333334</ele><time>2026-04-26T12:27:01Z</time></trkpt><trkpt lat="45.204304564210744" lon="8.300277940373753"><ele>133.0</ele><time>2026-04-26T12:27:02Z</time></trkpt><trkpt lat="45.20415809724357" lon="8.3001380860401"><ele>133.0</ele><time>2026-04-26T12:27:03Z</time></trkpt><trkpt lat="45.20401124785635" lon="8.300003150991433"><ele>133.0</ele><time>2026-04-26T12:27:04Z</time></trkpt><trkpt lat="45.20386839111797" lon="8.299865488210411"><ele>133.0</ele><time>2026-04-26T12:27:05Z</time></trkpt><trkpt lat="45.203729259618164" lon="8.29973129159372"><ele>132.66666666666669</ele><time>2026-04-26T12:27:06Z</time></trkpt><trkpt lat="45.203595462345504" lon="8.299601392603261"><ele>132.33333333333334</ele><time>2026-04-26T12:27:07Z</time></trkpt><trkpt lat="45.203464275263826" lon="8.299475069473893"><ele>132.0</ele><time>2026-04-26T12:27:08Z</time></trkpt><trkpt lat="45.20333344382071" lon="8.299357999353905"><ele>132.0</ele><time>2026-04-26T12:27:09Z</time></trkpt><trkpt lat="45.20319689443814" lon="8.299255520377686"><ele>132.0</ele><time>2026-04-26T12:27:10Z</time></trkpt><trkpt lat="45.20305600079957" lon="8.299174385952076"><ele>132.0</ele><time>2026-04-26T12:27:11.001Z</time></trkpt><trkpt lat="45.20290487428603" lon="8.299100945526979"><ele>131.66666666666666</ele><time>2026-04-26T12:27:12.001Z</time></trkpt><trkpt lat="45.20275182183854" lon="8.299044873088073"><ele>131.33333333333331</ele><time>2026-04-26T12:27:13.001Z</time></trkpt><trkpt lat="45.20259732281785" lon="8.298992119886348"><ele>131.0</ele><time>2026-04-26T12:27:14.001Z</time></trkpt><trkpt lat="45.20244327499949" lon="8.298935267323035"><ele>131.66666666666666</ele><time>2026-04-26T12:27:15.001Z</time></trkpt><trkpt lat="45.20228835964104" lon="8.298883908177622"><ele>132.33333333333334</ele><time>2026-04-26T12:27:16.001Z</time></trkpt><trkpt lat="45.20213480203607" lon="8.29883105302387"><ele>133.0</ele><time>2026-04-26T12:27:17.001Z</time></trkpt><trkpt lat="45.20198106056669" lon="8.298777681077961"><ele>133.0</ele><time>2026-04-26T12:27:18.001Z</time></trkpt><trkpt lat="45.20182744963271" lon="8.29872669859106"><ele>133.0</ele><time>2026-04-26T12:27:19.001Z</time></trkpt><trkpt lat="45.201673907378144" lon="8.298676082085166"><ele>133.0</ele><time>2026-04-26T12:27:20.001Z</time></trkpt><trkpt lat="45.20152149232238" lon="8.298625845685793"><ele>133.0</ele><time>2026-04-26T12:27:21.001Z</time></trkpt><trkpt lat="45.20136666309385" lon="8.2985762845896"><ele>133.0</ele><time>2026-04-26T12:27:22.001Z</time></trkpt><trkpt lat="45.201213884806045" lon="8.298524152409312"><ele>133.0</ele><time>2026-04-26T12:27:23.001Z</time></trkpt><trkpt lat="45.20106199743004" lon="8.298477110889065"><ele>133.0</ele><time>2026-04-26T12:27:24.001Z</time></trkpt><trkpt lat="45.20091224690356" lon="8.298430973098354"><ele>133.0</ele><time>2026-04-26T12:27:25.001Z</time></trkpt><trkpt lat="45.20076451308845" lon="8.298390362249052"><ele>133.0</ele><time>2026-04-26T12:27:26.001Z</time></trkpt><trkpt lat="45.20061871430176" lon="8.298342596168338"><ele>132.75</ele><time>2026-04-26T12:27:27.001Z</time></trkpt><trkpt lat="45.200472804991556" lon="8.298290819370637"><ele>132.5</ele><time>2026-04-26T12:27:28.001Z</time></trkpt><trkpt lat="45.20032840905449" lon="8.298244318504086"><ele>132.25</ele><time>2026-04-26T12:27:29.001Z</time></trkpt><trkpt lat="45.200184930346516" lon="8.298196814404173"><ele>132.0</ele><time>2026-04-26T12:27:30.001Z</time></trkpt><trkpt lat="45.200040330298044" lon="8.298145848655928"><ele>132.0</ele><time>2026-04-26T12:27:31.001Z</time></trkpt><trkpt lat="45.19989569918718" lon="8.298097151590925"><ele>132.0</ele><time>2026-04-26T12:27:32.001Z</time></trkpt><trkpt lat="45.19975002390107" lon="8.298050988937947"><ele>132.0</ele><time>2026-04-26T12:27:33.001Z</time></trkpt><trkpt lat="45.199603894673956" lon="8.298004052902302"><ele>132.0</ele><time>2026-04-26T12:27:34.001Z</time></trkpt><trkpt lat="45.199458742717816" lon="8.297956711019069"><ele>132.0</ele><time>2026-04-26T12:27:35.001Z</time></trkpt><trkpt lat="45.19931629777526" lon="8.297901087240785"><ele>132.0</ele><time>2026-04-26T12:27:36.001Z</time></trkpt><trkpt lat="45.19917035665869" lon="8.29785844357859"><ele>132.0</ele><time>2026-04-26T12:27:37.001Z</time></trkpt><trkpt lat="45.19902715199848" lon="8.297812388585442"><ele>132.0</ele><time>2026-04-26T12:27:38.001Z</time></trkpt><trkpt lat="45.19888629270221" lon="8.2977650216583"><ele>132.0</ele><time>2026-04-26T12:27:39.001Z</time></trkpt><trkpt lat="45.198749734910876" lon="8.297722578978682"><ele>132.0</ele><time>2026-04-26T12:27:40Z</time></trkpt><trkpt lat="45.198617097195765" lon="8.297675669056385"><ele>132.0</ele><time>2026-04-26T12:27:41Z</time></trkpt><trkpt lat="45.19848553049301" lon="8.29762640642157"><ele>132.0</ele><time>2026-04-26T12:27:42Z</time></trkpt><trkpt lat="45.19835140505952" lon="8.297576800380924"><ele>132.0</ele><time>2026-04-26T12:27:43Z</time></trkpt><trkpt lat="45.19821868728899" lon="8.297532921571008"><ele>132.0</ele><time>2026-04-26T12:27:44Z</time></trkpt><trkpt lat="45.198092775014274" lon="8.297498258904549"><ele>132.0</ele><time>2026-04-26T12:27:45Z</time></trkpt><trkpt lat="45.19797516492861" lon="8.297464565776718"><ele>132.0</ele><time>2026-04-26T12:27:46Z</time></trkpt><trkpt lat="45.197864221077275" lon="8.297433861732884"><ele>132.4</ele><time>2026-04-26T12:27:47Z</time></trkpt><trkpt lat="45.19776077143567" lon="8.29740450561647"><ele>132.79999999999998</ele><time>2026-04-26T12:27:48Z</time></trkpt><trkpt lat="45.19766494819991" lon="8.297375225324755"><ele>133.2</ele><time>2026-04-26T12:27:49Z</time></trkpt><trkpt lat="45.19756901292876" lon="8.297347152271879"><ele>133.6</ele><time>2026-04-26T12:27:50Z</time></trkpt><trkpt lat="45.19747108257198" lon="8.297330400547356"><ele>134.0</ele><time>2026-04-26T12:27:51Z</time></trkpt><trkpt lat="45.19737781241082" lon="8.297316077898776"><ele>134.16666666666666</ele><time>2026-04-26T12:27:52Z</time></trkpt><trkpt lat="45.19728500895869" lon="8.297295404228503"><ele>134.33333333333331</ele><time>2026-04-26T12:27:53Z</time></trkpt><trkpt lat="45.19720023942938" lon="8.297281160303472"><ele>134.5</ele><time>2026-04-26T12:27:54Z</time></trkpt><trkpt lat="45.19711608617432" lon="8.297263340626545"><ele>134.66666666666666</ele><time>2026-04-26T12:27:55Z</time></trkpt><trkpt lat="45.19702857314278" lon="8.29724344708418"><ele>134.83333333333334</ele><time>2026-04-26T12:27:56Z</time></trkpt><trkpt lat="45.19693996570702" lon="8.29722065587874"><ele>135.0</ele><time>2026-04-26T12:27:57Z</time></trkpt><trkpt lat="45.19685567980323" lon="8.297201361198942"><ele>135.0</ele><time>2026-04-26T12:27:58Z</time></trkpt><trkpt lat="45.1967724965171" lon="8.297182799306137"><ele>135.0</ele><time>2026-04-26T12:27:59Z</time></trkpt><trkpt lat="45.196691997236755" lon="8.297170783285647"><ele>135.0</ele><time>2026-04-26T12:28:00Z</time></trkpt><trkpt lat="45.19661450410748" lon="8.297155924076009"><ele>135.0</ele><time>2026-04-26T12:28:01Z</time></trkpt><trkpt lat="45.19653939967829" lon="8.297141701838086"><ele>135.0</ele><time>2026-04-26T12:28:02Z</time></trkpt><trkpt lat="45.196462917465375" lon="8.297132096652318"><ele>135.0</ele><time>2026-04-26T12:28:03Z</time></trkpt><trkpt lat="45.196389762341695" lon="8.297120811998532"><ele>135.0</ele><time>2026-04-26T12:28:04Z</time></trkpt><trkpt lat="45.19631934359575" lon="8.297106233078662"><ele>135.0</ele><time>2026-04-26T12:28:05Z</time></trkpt><trkpt lat="45.19625290413523" lon="8.297088246883133"><ele>135.0</ele><time>2026-04-26T12:28:06Z</time></trkpt><trkpt lat="45.196183274297105" lon="8.297088793223573"><ele>135.0</ele><time>2026-04-26T12:28:07Z</time></trkpt><trkpt lat="45.19612051534104" lon="8.297066138910369"><ele>135.0</ele><time>2026-04-26T12:28:08Z</time></trkpt><trkpt lat="45.196057042881414" lon="8.297053654429357"><ele>135.0</ele><time>2026-04-26T12:28:09Z</time></trkpt><trkpt lat="45.19599249021516" lon="8.297041758670135"><ele>135.0</ele><time>2026-04-26T12:28:10Z</time></trkpt><trkpt lat="45.19587147321766" lon="8.297026720221249"><ele>135.0</ele><time>2026-04-26T12:28:12Z</time></trkpt><trkpt lat="45.19575555159902" lon="8.297015773308612"><ele>135.0</ele><time>2026-04-26T12:28:14Z</time></trkpt><trkpt lat="45.195657120735426" lon="8.296970903226024"><ele>135.0</ele><time>2026-04-26T12:28:16Z</time></trkpt><trkpt lat="45.195575205051554" lon="8.296939402404123"><ele>135.0</ele><time>2026-04-26T12:29:27.001Z</time></trkpt><trkpt lat="45.19549864607059" lon="8.296927045962024"><ele>135.0</ele><time>2026-04-26T12:29:29.001Z</time></trkpt><trkpt lat="45.195363888524334" lon="8.296920814553385"><ele>135.33333333333334</ele><time>2026-04-26T12:29:31.001Z</time></trkpt><trkpt lat="45.19529185202339" lon="8.296904828057281"><ele>135.66666666666666</ele><time>2026-04-26T12:29:32.001Z</time></trkpt><trkpt lat="45.19521188501596" lon="8.296888685481203"><ele>136.0</ele><time>2026-04-26T12:29:33.001Z</time></trkpt><trkpt lat="45.19512796206271" lon="8.296868922523366"><ele>136.33333333333331</ele><time>2026-04-26T12:29:34.001Z</time></trkpt><trkpt lat="45.195039079790874" lon="8.296846055590109"><ele>136.66666666666666</ele><time>2026-04-26T12:29:35.001Z</time></trkpt><trkpt lat="45.19495489081712" lon="8.296833558100682"><ele>137.0</ele><time>2026-04-26T12:29:36.001Z</time></trkpt><trkpt lat="45.19487436660768" lon="8.296797459863177"><ele>137.33333333333331</ele><time>2026-04-26T12:29:37.001Z</time></trkpt><trkpt lat="45.194803284813084" lon="8.296783276750348"><ele>137.66666666666666</ele><time>2026-04-26T12:29:38.001Z</time></trkpt><trkpt lat="45.19472983925323" lon="8.296767040804417"><ele>138.0</ele><time>2026-04-26T12:29:39.001Z</time></trkpt><trkpt lat="45.194647157490934" lon="8.296739260992776"><ele>138.33333333333334</ele><time>2026-04-26T12:29:40.001Z</time></trkpt><trkpt lat="45.194583925100275" lon="8.296722100749545"><ele>138.66666666666669</ele><time>2026-04-26T12:29:41.001Z</time></trkpt><trkpt lat="45.194475452565236" lon="8.29670132088518"><ele>139.0</ele><time>2026-04-26T12:29:43.001Z</time></trkpt><trkpt lat="45.194404961088466" lon="8.29669780499101"><ele>139.0</ele><time>2026-04-26T12:29:45.999Z</time></trkpt><trkpt lat="45.19434218779985" lon="8.29668397642866"><ele>139.0</ele><time>2026-04-26T12:30:26Z</time></trkpt><trkpt lat="45.194277669554864" lon="8.29666763577493"><ele>139.0</ele><time>2026-04-26T12:30:27Z</time></trkpt><trkpt lat="45.194203671324914" lon="8.29664279200655"><ele>139.0</ele><time>2026-04-26T12:30:28Z</time></trkpt><trkpt lat="45.194124567747544" lon="8.296627016002251"><ele>139.0</ele><time>2026-04-26T12:30:29Z</time></trkpt><trkpt lat="45.19404199315342" lon="8.296616874480364"><ele>139.0</ele><time>2026-04-26T12:30:30Z</time></trkpt><trkpt lat="45.193949489715095" lon="8.296600010263493"><ele>138.4</ele><time>2026-04-26T12:30:31Z</time></trkpt><trkpt lat="45.193849455766355" lon="8.296570767359764"><ele>137.8</ele><time>2026-04-26T12:30:32Z</time></trkpt><trkpt lat="45.19374984124416" lon="8.296543917387396"><ele>137.2</ele><time>2026-04-26T12:30:33Z</time></trkpt><trkpt lat="45.1936500732195" lon="8.29651256745797"><ele>136.6</ele><time>2026-04-26T12:30:34Z</time></trkpt><trkpt lat="45.19354757159159" lon="8.296486635294569"><ele>136.0</ele><time>2026-04-26T12:30:35Z</time></trkpt><trkpt lat="45.193447449343886" lon="8.296460412067892"><ele>136.0</ele><time>2026-04-26T12:30:36Z</time></trkpt><trkpt lat="45.19334252593032" lon="8.296442870031516"><ele>136.0</ele><time>2026-04-26T12:30:37Z</time></trkpt><trkpt lat="45.19324407606219" lon="8.29642240761522"><ele>136.0</ele><time>2026-04-26T12:30:38Z</time></trkpt><trkpt lat="45.193146591363465" lon="8.296392133314875"><ele>136.0</ele><time>2026-04-26T12:30:39Z</time></trkpt><trkpt lat="45.19305064729517" lon="8.296366429503832"><ele>136.0</ele><time>2026-04-26T12:30:40Z</time></trkpt><trkpt lat="45.19295658891674" lon="8.296337677730083"><ele>135.6</ele><time>2026-04-26T12:30:41Z</time></trkpt><trkpt lat="45.192860263897856" lon="8.29630501279995"><ele>135.2</ele><time>2026-04-26T12:30:42Z</time></trkpt><trkpt lat="45.19277197597056" lon="8.296273437835474"><ele>134.8</ele><time>2026-04-26T12:30:43Z</time></trkpt><trkpt lat="45.19268594399573" lon="8.296243958965306"><ele>134.4</ele><time>2026-04-26T12:30:44Z</time></trkpt><trkpt lat="45.192597409723064" lon="8.29623242941347"><ele>134.0</ele><time>2026-04-26T12:30:45Z</time></trkpt><trkpt lat="45.19250725002781" lon="8.296247512877953"><ele>134.0</ele><time>2026-04-26T12:30:46Z</time></trkpt><trkpt lat="45.19240643241649" lon="8.29625638139476"><ele>134.0</ele><time>2026-04-26T12:30:47Z</time></trkpt><trkpt lat="45.19229945126641" lon="8.296252207124711"><ele>134.0</ele><time>2026-04-26T12:30:48Z</time></trkpt><trkpt lat="45.19218728679507" lon="8.296240356249598"><ele>134.0</ele><time>2026-04-26T12:30:49Z</time></trkpt><trkpt lat="45.192078977533036" lon="8.296225789844994"><ele>134.0</ele><time>2026-04-26T12:30:50Z</time></trkpt><trkpt lat="45.19196477336615" lon="8.296232364966372"><ele>134.0</ele><time>2026-04-26T12:30:51Z</time></trkpt><trkpt lat="45.19184832499902" lon="8.296221906811203"><ele>134.0</ele><time>2026-04-26T12:30:52Z</time></trkpt><trkpt lat="45.191730239475085" lon="8.296214648055592"><ele>134.0</ele><time>2026-04-26T12:30:53Z</time></trkpt><trkpt lat="45.19160317481478" lon="8.29621326794131"><ele>134.0</ele><time>2026-04-26T12:30:54Z</time></trkpt><trkpt lat="45.19147685402632" lon="8.29620201356498"><ele>133.5</ele><time>2026-04-26T12:30:55Z</time></trkpt><trkpt lat="45.1913496912098" lon="8.296198367315679"><ele>133.0</ele><time>2026-04-26T12:30:56Z</time></trkpt><trkpt lat="45.191224873738136" lon="8.296193391773414"><ele>132.5</ele><time>2026-04-26T12:30:57Z</time></trkpt><trkpt lat="45.19109253473757" lon="8.296196018003222"><ele>132.0</ele><time>2026-04-26T12:30:58Z</time></trkpt><trkpt lat="45.190963628649136" lon="8.29618037302354"><ele>132.0</ele><time>2026-04-26T12:30:59Z</time></trkpt><trkpt lat="45.1908270709496" lon="8.296166120398377"><ele>132.0</ele><time>2026-04-26T12:31:00Z</time></trkpt><trkpt lat="45.190682866491386" lon="8.296147025590068"><ele>132.0</ele><time>2026-04-26T12:31:01Z</time></trkpt><trkpt lat="45.19054367437741" lon="8.296136775991936"><ele>132.0</ele><time>2026-04-26T12:31:02Z</time></trkpt><trkpt lat="45.19040281290456" lon="8.296138030314696"><ele>132.0</ele><time>2026-04-26T12:31:03Z</time></trkpt><trkpt lat="45.1902647626922" lon="8.296126643071247"><ele>132.0</ele><time>2026-04-26T12:31:04Z</time></trkpt><trkpt lat="45.19013172762011" lon="8.296118542274446"><ele>132.0</ele><time>2026-04-26T12:31:05Z</time></trkpt><trkpt lat="45.19000283841742" lon="8.296103655175662"><ele>132.0</ele><time>2026-04-26T12:31:06Z</time></trkpt><trkpt lat="45.189877227881574" lon="8.296088627429855"><ele>131.75</ele><time>2026-04-26T12:31:07Z</time></trkpt><trkpt lat="45.18974818477691" lon="8.296075060664206"><ele>131.5</ele><time>2026-04-26T12:31:08Z</time></trkpt><trkpt lat="45.18961642222758" lon="8.29606712621872"><ele>131.25</ele><time>2026-04-26T12:31:09Z</time></trkpt><trkpt lat="45.189473320636885" lon="8.296062495292938"><ele>131.0</ele><time>2026-04-26T12:31:10Z</time></trkpt><trkpt lat="45.1893258055431" lon="8.296059138090204"><ele>131.0</ele><time>2026-04-26T12:31:11Z</time></trkpt><trkpt lat="45.18917312817896" lon="8.2960511729429"><ele>131.0</ele><time>2026-04-26T12:31:12Z</time></trkpt><trkpt lat="45.189015181650646" lon="8.296046320900157"><ele>131.0</ele><time>2026-04-26T12:31:13Z</time></trkpt><trkpt lat="45.188860591760324" lon="8.296029046559477"><ele>131.0</ele><time>2026-04-26T12:31:14Z</time></trkpt><trkpt lat="45.18871018454708" lon="8.29601140110414"><ele>131.0</ele><time>2026-04-26T12:31:15Z</time></trkpt><trkpt lat="45.188566547178446" lon="8.296014154294491"><ele>131.0</ele><time>2026-04-26T12:31:16Z</time></trkpt><trkpt lat="45.18842453402425" lon="8.296010644712338"><ele>131.0</ele><time>2026-04-26T12:31:17Z</time></trkpt><trkpt lat="45.188283339380504" lon="8.296006979602591"><ele>131.25</ele><time>2026-04-26T12:31:18Z</time></trkpt><trkpt lat="45.188134960229156" lon="8.29600995997062"><ele>131.5</ele><time>2026-04-26T12:31:19Z</time></trkpt><trkpt lat="45.1879977185018" lon="8.296002167626996"><ele>131.75</ele><time>2026-04-26T12:31:20Z</time></trkpt><trkpt lat="45.187862592674186" lon="8.295985484235912"><ele>132.0</ele><time>2026-04-26T12:31:21Z</time></trkpt><trkpt lat="45.187738834092734" lon="8.29597280695142"><ele>132.0</ele><time>2026-04-26T12:31:22Z</time></trkpt><trkpt lat="45.187634787897814" lon="8.295959166434951"><ele>132.0</ele><time>2026-04-26T12:31:23Z</time></trkpt><trkpt lat="45.18754717362859" lon="8.29594452505532"><ele>132.0</ele><time>2026-04-26T12:31:24Z</time></trkpt><trkpt lat="45.187465801949045" lon="8.295911113471533"><ele>132.0</ele><time>2026-04-26T12:31:25Z</time></trkpt><trkpt lat="45.18737359267247" lon="8.295887754487838"><ele>132.0</ele><time>2026-04-26T12:31:26Z</time></trkpt><trkpt lat="45.18726861721352" lon="8.295906021371795"><ele>131.75</ele><time>2026-04-26T12:31:27Z</time></trkpt><trkpt lat="45.18714986206065" lon="8.2959304236825"><ele>131.5</ele><time>2026-04-26T12:31:28Z</time></trkpt><trkpt lat="45.187016612589744" lon="8.295931318717932"><ele>131.25</ele><time>2026-04-26T12:31:29.001Z</time></trkpt><trkpt lat="45.186867490205636" lon="8.295922464863567"><ele>131.0</ele><time>2026-04-26T12:31:30.001Z</time></trkpt><trkpt lat="45.1867102166218" lon="8.295913877472126"><ele>131.0</ele><time>2026-04-26T12:31:31.001Z</time></trkpt><trkpt lat="45.18654286111478" lon="8.295907127768274"><ele>131.0</ele><time>2026-04-26T12:31:32.001Z</time></trkpt><trkpt lat="45.18637972057825" lon="8.295899655552626"><ele>131.0</ele><time>2026-04-26T12:31:33.001Z</time></trkpt><trkpt lat="45.18621059735365" lon="8.295892994364722"><ele>130.66666666666666</ele><time>2026-04-26T12:31:34.001Z</time></trkpt><trkpt lat="45.186037892079206" lon="8.29588831525904"><ele>130.33333333333334</ele><time>2026-04-26T12:31:35.001Z</time></trkpt><trkpt lat="45.18586568885813" lon="8.2958769674921"><ele>130.0</ele><time>2026-04-26T12:31:36.001Z</time></trkpt><trkpt lat="45.18569039398057" lon="8.295868309690094"><ele>130.33333333333334</ele><time>2026-04-26T12:31:37.001Z</time></trkpt><trkpt lat="45.18551384673996" lon="8.29585795653897"><ele>130.66666666666666</ele><time>2026-04-26T12:31:38.001Z</time></trkpt><trkpt lat="45.18533082604371" lon="8.295849248388455"><ele>131.0</ele><time>2026-04-26T12:31:39.001Z</time></trkpt><trkpt lat="45.185151201726555" lon="8.295834399058462"><ele>131.0</ele><time>2026-04-26T12:31:40.001Z</time></trkpt><trkpt lat="45.184968501143686" lon="8.295820091881929"><ele>131.0</ele><time>2026-04-26T12:31:41.001Z</time></trkpt><trkpt lat="45.18478534144685" lon="8.295804390501731"><ele>131.0</ele><time>2026-04-26T12:31:42.001Z</time></trkpt><trkpt lat="45.18460282644339" lon="8.295789903310327"><ele>131.0</ele><time>2026-04-26T12:31:43.001Z</time></trkpt><trkpt lat="45.184419293929594" lon="8.295769851270775"><ele>131.0</ele><time>2026-04-26T12:31:44.001Z</time></trkpt><trkpt lat="45.184229164605874" lon="8.29575569178072"><ele>131.0</ele><time>2026-04-26T12:31:45.001Z</time></trkpt><trkpt lat="45.184038357447726" lon="8.295748271926616"><ele>129.66666666666666</ele><time>2026-04-26T12:31:46.001Z</time></trkpt><trkpt lat="45.18384415741041" lon="8.295743203712158"><ele>128.33333333333334</ele><time>2026-04-26T12:31:47.001Z</time></trkpt><trkpt lat="45.18364967096623" lon="8.295741351951943"><ele>127.0</ele><time>2026-04-26T12:31:48.001Z</time></trkpt><trkpt lat="45.183453605206594" lon="8.295714662337591"><ele>127.0</ele><time>2026-04-26T12:31:49.001Z</time></trkpt><trkpt lat="45.183252677565406" lon="8.295723320863175"><ele>127.0</ele><time>2026-04-26T12:31:50.001Z</time></trkpt><trkpt lat="45.18305091553267" lon="8.295698761169826"><ele>127.0</ele><time>2026-04-26T12:31:51.001Z</time></trkpt><trkpt lat="45.18284824643319" lon="8.295682438899668"><ele>127.0</ele><time>2026-04-26T12:31:52Z</time></trkpt><trkpt lat="45.18264446948579" lon="8.295668571815156"><ele>127.0</ele><time>2026-04-26T12:31:53Z</time></trkpt><trkpt lat="45.18243578242291" lon="8.295661036863974"><ele>127.0</ele><time>2026-04-26T12:31:54Z</time></trkpt><trkpt lat="45.18222729768059" lon="8.29565059321295"><ele>127.0</ele><time>2026-04-26T12:31:55Z</time></trkpt><trkpt lat="45.182017745797005" lon="8.295638519158775"><ele>127.0</ele><time>2026-04-26T12:31:56Z</time></trkpt><trkpt lat="45.1818062237014" lon="8.29562464886308"><ele>127.0</ele><time>2026-04-26T12:31:57Z</time></trkpt><trkpt lat="45.18159332488375" lon="8.29560851794973"><ele>127.66666666666667</ele><time>2026-04-26T12:31:58Z</time></trkpt><trkpt lat="45.181378901755636" lon="8.295594022470713"><ele>128.33333333333334</ele><time>2026-04-26T12:31:59Z</time></trkpt><trkpt lat="45.18116445250423" lon="8.295584734894515"><ele>129.0</ele><time>2026-04-26T12:32:00Z</time></trkpt><trkpt lat="45.18094906747184" lon="8.295573159870111"><ele>129.0</ele><time>2026-04-26T12:32:01Z</time></trkpt><trkpt lat="45.18073278765844" lon="8.295563752289526"><ele>129.0</ele><time>2026-04-26T12:32:02Z</time></trkpt><trkpt lat="45.18051619331395" lon="8.295557649955324"><ele>129.0</ele><time>2026-04-26T12:32:03Z</time></trkpt><trkpt lat="45.180298334607876" lon="8.295541165292654"><ele>128.33333333333334</ele><time>2026-04-26T12:32:04Z</time></trkpt><trkpt lat="45.18008345119782" lon="8.295525606694627"><ele>127.66666666666667</ele><time>2026-04-26T12:32:05Z</time></trkpt><trkpt lat="45.17987136187107" lon="8.295497574482463"><ele>127.0</ele><time>2026-04-26T12:32:06Z</time></trkpt><trkpt lat="45.1796614137227" lon="8.295461703634365"><ele>127.0</ele><time>2026-04-26T12:32:07Z</time></trkpt><trkpt lat="45.1794472436894" lon="8.295392491785321"><ele>127.0</ele><time>2026-04-26T12:32:08Z</time></trkpt><trkpt lat="45.179238581908706" lon="8.295305022156148"><ele>127.0</ele><time>2026-04-26T12:32:09Z</time></trkpt><trkpt lat="45.17903225099602" lon="8.295217302980882"><ele>127.0</ele><time>2026-04-26T12:32:10Z</time></trkpt><trkpt lat="45.17882864620225" lon="8.295117200289846"><ele>127.0</ele><time>2026-04-26T12:32:11Z</time></trkpt><trkpt lat="45.17862827911639" lon="8.295014137983104"><ele>127.0</ele><time>2026-04-26T12:32:12Z</time></trkpt><trkpt lat="45.1784294039878" lon="8.294912783472569"><ele>127.0</ele><time>2026-04-26T12:32:13Z</time></trkpt><trkpt lat="45.178230331788654" lon="8.294816472476091"><ele>127.0</ele><time>2026-04-26T12:32:14Z</time></trkpt><trkpt lat="45.17803095847634" lon="8.294724487634614"><ele>127.0</ele><time>2026-04-26T12:32:15Z</time></trkpt><trkpt lat="45.17783373956112" lon="8.294627591100467"><ele>127.33333333333334</ele><time>2026-04-26T12:32:16Z</time></trkpt><trkpt lat="45.17763690671962" lon="8.294530583549689"><ele>127.66666666666666</ele><time>2026-04-26T12:32:17Z</time></trkpt><trkpt lat="45.177440870982096" lon="8.294437600434764"><ele>128.0</ele><time>2026-04-26T12:32:18Z</time></trkpt><trkpt lat="45.177245308885276" lon="8.294348588867555"><ele>128.33333333333331</ele><time>2026-04-26T12:32:19Z</time></trkpt><trkpt lat="45.17704983899049" lon="8.294258690310429"><ele>128.66666666666666</ele><time>2026-04-26T12:32:20Z</time></trkpt><trkpt lat="45.17685933221104" lon="8.294163586221128"><ele>129.0</ele><time>2026-04-26T12:32:21Z</time></trkpt><trkpt lat="45.17667329984795" lon="8.294069438230055"><ele>129.0</ele><time>2026-04-26T12:32:22Z</time></trkpt><trkpt lat="45.17649241944186" lon="8.293978748740557"><ele>129.0</ele><time>2026-04-26T12:32:23Z</time></trkpt><trkpt lat="45.176314955293094" lon="8.293885426816548"><ele>129.0</ele><time>2026-04-26T12:32:24Z</time></trkpt><trkpt lat="45.17615192152758" lon="8.293781582686101"><ele>128.66666666666666</ele><time>2026-04-26T12:32:25Z</time></trkpt><trkpt lat="45.17599830341329" lon="8.293653747205905"><ele>128.33333333333331</ele><time>2026-04-26T12:32:26Z</time></trkpt><trkpt lat="45.17586642950015" lon="8.293482824848622"><ele>128.0</ele><time>2026-04-26T12:32:27Z</time></trkpt><trkpt lat="45.175748231111186" lon="8.29328421908709"><ele>126.66666666666666</ele><time>2026-04-26T12:32:28Z</time></trkpt><trkpt lat="45.175633639558015" lon="8.293066235344037"><ele>125.33333333333334</ele><time>2026-04-26T12:32:29Z</time></trkpt><trkpt lat="45.17551437344412" lon="8.292847151747146"><ele>124.0</ele><time>2026-04-26T12:32:30Z</time></trkpt><trkpt lat="45.17539095054953" lon="8.292625698724118"><ele>124.0</ele><time>2026-04-26T12:32:31Z</time></trkpt><trkpt lat="45.17526735104515" lon="8.29240241599077"><ele>124.0</ele><time>2026-04-26T12:32:32Z</time></trkpt><trkpt lat="45.175143154934304" lon="8.292177604021159"><ele>124.0</ele><time>2026-04-26T12:32:33Z</time></trkpt><trkpt lat="45.175018836473996" lon="8.291957126285425"><ele>124.0</ele><time>2026-04-26T12:32:34Z</time></trkpt><trkpt lat="45.174896126442164" lon="8.291745067763712"><ele>124.0</ele><time>2026-04-26T12:32:35Z</time></trkpt><trkpt lat="45.174776153354046" lon="8.291535582892516"><ele>124.0</ele><time>2026-04-26T12:32:36Z</time></trkpt><trkpt lat="45.17466124541628" lon="8.291328269179717"><ele>126.33333333333334</ele><time>2026-04-26T12:32:37Z</time></trkpt><trkpt lat="45.17455058565379" lon="8.291125969760161"><ele>128.66666666666666</ele><time>2026-04-26T12:32:38Z</time></trkpt><trkpt lat="45.17444528005905" lon="8.290940228133877"><ele>131.0</ele><time>2026-04-26T12:32:39Z</time></trkpt><trkpt lat="45.174346815643815" lon="8.290765944240244"><ele>131.0</ele><time>2026-04-26T12:32:40Z</time></trkpt><trkpt lat="45.17425563087871" lon="8.290599464981097"><ele>131.0</ele><time>2026-04-26T12:32:41Z</time></trkpt><trkpt lat="45.17418428779774" lon="8.290464899303347"><ele>131.0</ele><time>2026-04-26T12:32:42Z</time></trkpt><trkpt lat="45.17412936733483" lon="8.290354026253762"><ele>131.0</ele><time>2026-04-26T12:32:43Z</time></trkpt><trkpt lat="45.17408894110493" lon="8.290268343717736"><ele>131.0</ele><time>2026-04-26T12:32:44Z</time></trkpt><trkpt lat="45.174021870920896" lon="8.29015303161268"><ele>131.66666666666666</ele><time>2026-04-26T12:32:46Z</time></trkpt><trkpt lat="45.173964635643536" lon="8.290114129315638"><ele>132.33333333333334</ele><time>2026-04-26T12:33:26.001Z</time></trkpt><trkpt lat="45.173770534861674" lon="8.290393997731845"><ele>133.0</ele><time>2026-04-26T12:33:34.001Z</time></trkpt><trkpt lat="45.17368685865478" lon="8.29052265330069"><ele>132.57142857142858</ele><time>2026-04-26T12:33:36.001Z</time></trkpt><trkpt lat="45.173643018926185" lon="8.29059360410611"><ele>132.14285714285714</ele><time>2026-04-26T12:33:37.001Z</time></trkpt><trkpt lat="45.173595202071446" lon="8.29066649363713"><ele>131.71428571428572</ele><time>2026-04-26T12:33:38.001Z</time></trkpt><trkpt lat="45.173547279858774" lon="8.290733757088969"><ele>131.28571428571428</ele><time>2026-04-26T12:33:39.001Z</time></trkpt><trkpt lat="45.173501370467314" lon="8.29080194671377"><ele>130.85714285714286</ele><time>2026-04-26T12:33:40.001Z</time></trkpt><trkpt lat="45.17345385265361" lon="8.290873227562454"><ele>130.42857142857144</ele><time>2026-04-26T12:33:41.001Z</time></trkpt><trkpt lat="45.173404634730744" lon="8.290943537791026"><ele>130.0</ele><time>2026-04-26T12:33:42.001Z</time></trkpt><trkpt lat="45.17335531195977" lon="8.291016266156745"><ele>130.00000000000003</ele><time>2026-04-26T12:33:43.001Z</time></trkpt><trkpt lat="45.173305862697816" lon="8.291093396957512"><ele>130.0</ele><time>2026-04-26T12:33:44.001Z</time></trkpt><trkpt lat="45.173251440256635" lon="8.291169614428496"><ele>130.0</ele><time>2026-04-26T12:33:45.001Z</time></trkpt><trkpt lat="45.17319910388165" lon="8.29124491115363"><ele>130.0</ele><time>2026-04-26T12:33:46.001Z</time></trkpt><trkpt lat="45.17314980650793" lon="8.291324017025405"><ele>130.0</ele><time>2026-04-26T12:33:47.001Z</time></trkpt><trkpt lat="45.173094093336935" lon="8.291400670999039"><ele>130.00000000000003</ele><time>2026-04-26T12:33:48.001Z</time></trkpt><trkpt lat="45.173044267888706" lon="8.291472478609311"><ele>130.0</ele><time>2026-04-26T12:33:49.001Z</time></trkpt><trkpt lat="45.172995692570055" lon="8.291546526676333"><ele>129.5</ele><time>2026-04-26T12:33:50.001Z</time></trkpt><trkpt lat="45.17294370573351" lon="8.291619951438626"><ele>129.0</ele><time>2026-04-26T12:33:51.001Z</time></trkpt><trkpt lat="45.17285869412314" lon="8.291741846860196"><ele>128.5</ele><time>2026-04-26T12:33:53.001Z</time></trkpt><trkpt lat="45.1728170018592" lon="8.291822302371417"><ele>128.0</ele><time>2026-04-26T12:33:54.001Z</time></trkpt><trkpt lat="45.17277933748596" lon="8.291903645640513"><ele>127.50000000000001</ele><time>2026-04-26T12:33:55.001Z</time></trkpt><trkpt lat="45.172743709910755" lon="8.291982380993877"><ele>127.0</ele><time>2026-04-26T12:33:56.001Z</time></trkpt><trkpt lat="45.1727100990468" lon="8.292066798255687"><ele>127.0</ele><time>2026-04-26T12:33:57.001Z</time></trkpt><trkpt lat="45.17267302608263" lon="8.292152802941448"><ele>127.0</ele><time>2026-04-26T12:33:58Z</time></trkpt><trkpt lat="45.172635129687976" lon="8.292239749709465"><ele>127.0</ele><time>2026-04-26T12:33:59Z</time></trkpt><trkpt lat="45.17259658567663" lon="8.292322381640197"><ele>127.0</ele><time>2026-04-26T12:34:00Z</time></trkpt><trkpt lat="45.172560657964254" lon="8.292407148386431"><ele>127.0</ele><time>2026-04-26T12:34:01Z</time></trkpt><trkpt lat="45.17252371010751" lon="8.292493211504194"><ele>127.0</ele><time>2026-04-26T12:34:02Z</time></trkpt><trkpt lat="45.17248599649256" lon="8.292571206150333"><ele>127.0</ele><time>2026-04-26T12:34:03Z</time></trkpt><trkpt lat="45.172451538534524" lon="8.29264968826252"><ele>127.00000000000001</ele><time>2026-04-26T12:34:04Z</time></trkpt><trkpt lat="45.17241463339319" lon="8.292731163070947"><ele>127.0</ele><time>2026-04-26T12:34:05Z</time></trkpt><trkpt lat="45.17237224880161" lon="8.292816426193209"><ele>127.0</ele><time>2026-04-26T12:34:06Z</time></trkpt><trkpt lat="45.17232963075438" lon="8.292901607382058"><ele>127.0</ele><time>2026-04-26T12:34:07Z</time></trkpt><trkpt lat="45.172285852983485" lon="8.292972951791008"><ele>127.00000000000001</ele><time>2026-04-26T12:34:08Z</time></trkpt><trkpt lat="45.17219926269678" lon="8.293106506213244"><ele>127.0</ele><time>2026-04-26T12:34:10Z</time></trkpt><trkpt lat="45.17210905845493" lon="8.293221234187678"><ele>127.33333333333334</ele><time>2026-04-26T12:34:12Z</time></trkpt><trkpt lat="45.17201042339162" lon="8.293327068679133"><ele>127.66666666666667</ele><time>2026-04-26T12:34:14Z</time></trkpt><trkpt lat="45.17195690091223" lon="8.293380305062803"><ele>128.0</ele><time>2026-04-26T12:34:15Z</time></trkpt><trkpt lat="45.171900802220435" lon="8.29344076840139"><ele>128.33333333333334</ele><time>2026-04-26T12:34:16Z</time></trkpt><trkpt lat="45.17184191744909" lon="8.29349622819925"><ele>128.66666666666666</ele><time>2026-04-26T12:34:17Z</time></trkpt><trkpt lat="45.17178734000457" lon="8.29354782031083"><ele>129.0</ele><time>2026-04-26T12:34:18Z</time></trkpt><trkpt lat="45.17173331185512" lon="8.29360590401851"><ele>128.99999999999997</ele><time>2026-04-26T12:34:19Z</time></trkpt><trkpt lat="45.171671780080295" lon="8.293667928426121"><ele>129.0</ele><time>2026-04-26T12:34:20Z</time></trkpt><trkpt lat="45.17161266618042" lon="8.29373162543216"><ele>129.0</ele><time>2026-04-26T12:34:21Z</time></trkpt><trkpt lat="45.17155607451992" lon="8.293794132545774"><ele>129.0</ele><time>2026-04-26T12:34:22Z</time></trkpt><trkpt lat="45.17149869224736" lon="8.293857687224694"><ele>129.0</ele><time>2026-04-26T12:34:23Z</time></trkpt><trkpt lat="45.171449542859314" lon="8.293915417197017"><ele>128.99999999999997</ele><time>2026-04-26T12:34:24Z</time></trkpt><trkpt lat="45.171396370216435" lon="8.293979422169818"><ele>129.0</ele><time>2026-04-26T12:34:25Z</time></trkpt><trkpt lat="45.17131466312237" lon="8.294077746140577"><ele>128.5</ele><time>2026-04-26T12:34:27Z</time></trkpt><trkpt lat="45.17121975746748" lon="8.294181056011746"><ele>128.0</ele><time>2026-04-26T12:34:29Z</time></trkpt><trkpt lat="45.17112896947149" lon="8.29427547828175"><ele>127.5</ele><time>2026-04-26T12:34:31Z</time></trkpt><trkpt lat="45.171039557875" lon="8.29437042846542"><ele>127.0</ele><time>2026-04-26T12:34:33Z</time></trkpt><trkpt lat="45.17094090787501" lon="8.294462948098886"><ele>127.0</ele><time>2026-04-26T12:34:35Z</time></trkpt><trkpt lat="45.1708470337395" lon="8.294554613889689"><ele>126.99999999999999</ele><time>2026-04-26T12:34:37Z</time></trkpt><trkpt lat="45.17079258690771" lon="8.294604923411772"><ele>126.99999999999999</ele><time>2026-04-26T12:34:38Z</time></trkpt><trkpt lat="45.17068666271422" lon="8.29470189864575"><ele>127.0</ele><time>2026-04-26T12:34:40Z</time></trkpt><trkpt lat="45.17057048695452" lon="8.294779967215213"><ele>127.0</ele><time>2026-04-26T12:34:42Z</time></trkpt><trkpt lat="45.17051335538047" lon="8.294829710228093"><ele>126.57142857142858</ele><time>2026-04-26T12:34:43Z</time></trkpt><trkpt lat="45.17045657975317" lon="8.29488252073436"><ele>126.14285714285714</ele><time>2026-04-26T12:34:44Z</time></trkpt><trkpt lat="45.17039970691928" lon="8.294930511190168"><ele>125.71428571428572</ele><time>2026-04-26T12:34:45Z</time></trkpt><trkpt lat="45.17034488830205" lon="8.294977308801187"><ele>125.28571428571429</ele><time>2026-04-26T12:34:46Z</time></trkpt><trkpt lat="45.1702899131981" lon="8.295023279217311"><ele>124.85714285714286</ele><time>2026-04-26T12:34:47Z</time></trkpt><trkpt lat="45.170219310909005" lon="8.295079457495214"><ele>124.42857142857143</ele><time>2026-04-26T12:34:49Z</time></trkpt><trkpt lat="45.17013438688043" lon="8.295152405960163"><ele>124.0</ele><time>2026-04-26T12:35:02Z</time></trkpt><trkpt lat="45.170079030928896" lon="8.29519497604994"><ele>124.00000000000001</ele><time>2026-04-26T12:35:04Z</time></trkpt><trkpt lat="45.17000542376432" lon="8.295244391086682"><ele>124.0</ele><time>2026-04-26T12:35:07Z</time></trkpt><trkpt lat="45.16994016748048" lon="8.295296754136768"><ele>124.0</ele><time>2026-04-26T12:35:09.001Z</time></trkpt><trkpt lat="45.16988583608041" lon="8.295347731822545"><ele>124.0</ele><time>2026-04-26T12:35:11.001Z</time></trkpt><trkpt lat="45.16982226815059" lon="8.295401017091129"><ele>124.00000000000001</ele><time>2026-04-26T12:35:13.001Z</time></trkpt><trkpt lat="45.169749588224356" lon="8.295452711410604"><ele>124.0</ele><time>2026-04-26T12:35:15.001Z</time></trkpt><trkpt lat="45.169688521884844" lon="8.29551301483437"><ele>124.00000000000001</ele><time>2026-04-26T12:35:17.001Z</time></trkpt><trkpt lat="45.169629700008485" lon="8.295573111948572"><ele>124.0</ele><time>2026-04-26T12:35:19.001Z</time></trkpt><trkpt lat="45.16956850771025" lon="8.295610713269364"><ele>124.0</ele><time>2026-04-26T12:35:28.001Z</time></trkpt><trkpt lat="45.169489877719" lon="8.295634292485047"><ele>124.0</ele><time>2026-04-26T12:35:36.001Z</time></trkpt><trkpt lat="45.169411295605165" lon="8.295659936320309"><ele>124.00000000000001</ele><time>2026-04-26T12:35:39.001Z</time></trkpt><trkpt lat="45.16932311624273" lon="8.295688714579875"><ele>124.0</ele><time>2026-04-26T12:35:42.001Z</time></trkpt><trkpt lat="45.169253844751424" lon="8.295722216072344"><ele>124.0</ele><time>2026-04-26T12:35:45.001Z</time></trkpt><trkpt lat="45.16917469669298" lon="8.295744571568822"><ele>124.00000000000001</ele><time>2026-04-26T12:36:18Z</time></trkpt><trkpt lat="45.16911286030844" lon="8.29578164646796"><ele>124.0</ele><time>2026-04-26T12:36:28Z</time></trkpt><trkpt lat="45.16912657055534" lon="8.295690588723781"><ele>124.0</ele><time>2026-04-26T12:37:12.001Z</time></trkpt><trkpt lat="45.16919767646332" lon="8.295724026184235"><ele>124.00000000000001</ele><time>2026-04-26T12:37:26.001Z</time></trkpt><trkpt lat="45.169285512480414" lon="8.29571674137949"><ele>124.0</ele><time>2026-04-26T12:37:30.001Z</time></trkpt><trkpt lat="45.169348233422134" lon="8.295683067284992"><ele>124.0</ele><time>2026-04-26T12:37:33.001Z</time></trkpt><trkpt lat="45.16942182157355" lon="8.295652803866895"><ele>124.00000000000001</ele><time>2026-04-26T12:37:36.001Z</time></trkpt><trkpt lat="45.16949852822391" lon="8.295629582026509"><ele>124.0</ele><time>2026-04-26T12:37:38.001Z</time></trkpt><trkpt lat="45.169574385925856" lon="8.295592497682419"><ele>124.0</ele><time>2026-04-26T12:37:40.001Z</time></trkpt><trkpt lat="45.16965546111967" lon="8.295537834922852"><ele>124.0</ele><time>2026-04-26T12:37:42.001Z</time></trkpt><trkpt lat="45.16973264466143" lon="8.295464150488012"><ele>124.00000000000001</ele><time>2026-04-26T12:37:44.001Z</time></trkpt><trkpt lat="45.16981299393783" lon="8.295397948081684"><ele>124.0</ele><time>2026-04-26T12:37:46.001Z</time></trkpt><trkpt lat="45.169901965056034" lon="8.295325470314072"><ele>124.0</ele><time>2026-04-26T12:37:48.001Z</time></trkpt><trkpt lat="45.16999586746529" lon="8.295261582132094"><ele>124.0</ele><time>2026-04-26T12:37:50.001Z</time></trkpt><trkpt lat="45.17010256326138" lon="8.295180681502522"><ele>124.0</ele><time>2026-04-26T12:37:52.001Z</time></trkpt><trkpt lat="45.17021162074002" lon="8.295096259634471"><ele>124.0</ele><time>2026-04-26T12:37:54.001Z</time></trkpt><trkpt lat="45.17027066035857" lon="8.295052642565494"><ele>124.0</ele><time>2026-04-26T12:37:55.001Z</time></trkpt><trkpt lat="45.17032692009401" lon="8.295006537798029"><ele>124.0</ele><time>2026-04-26T12:37:56.001Z</time></trkpt><trkpt lat="45.17038151481993" lon="8.294962009235839"><ele>124.0</ele><time>2026-04-26T12:37:57.001Z</time></trkpt><trkpt lat="45.17048116274708" lon="8.294882321684483"><ele>124.0</ele><time>2026-04-26T12:37:59.001Z</time></trkpt><trkpt lat="45.17057488948811" lon="8.294800107533913"><ele>124.0</ele><time>2026-04-26T12:38:01.001Z</time></trkpt><trkpt lat="45.17067828885236" lon="8.29470786829869"><ele>124.0</ele><time>2026-04-26T12:38:03.001Z</time></trkpt><trkpt lat="45.170778151397606" lon="8.294620749606807"><ele>124.6</ele><time>2026-04-26T12:38:05.001Z</time></trkpt><trkpt lat="45.17087791617834" lon="8.294526978457311"><ele>125.2</ele><time>2026-04-26T12:38:07.001Z</time></trkpt><trkpt lat="45.17093146455837" lon="8.294476847353913"><ele>125.79999999999998</ele><time>2026-04-26T12:38:08.001Z</time></trkpt><trkpt lat="45.1710317805857" lon="8.294378190339046"><ele>126.39999999999999</ele><time>2026-04-26T12:38:10Z</time></trkpt><trkpt lat="45.17112656601948" lon="8.294283564465724"><ele>127.0</ele><time>2026-04-26T12:38:12Z</time></trkpt><trkpt lat="45.17121423117281" lon="8.29418768042836"><ele>127.0</ele><time>2026-04-26T12:38:14Z</time></trkpt><trkpt lat="45.17130248503807" lon="8.294097186516733"><ele>126.99999999999999</ele><time>2026-04-26T12:38:16Z</time></trkpt><trkpt lat="45.17138834139958" lon="8.294001774488589"><ele>126.99999999999999</ele><time>2026-04-26T12:38:18Z</time></trkpt><trkpt lat="45.1714696514972" lon="8.293905915176067"><ele>127.0</ele><time>2026-04-26T12:38:20Z</time></trkpt><trkpt lat="45.17156281477325" lon="8.293796137934514"><ele>127.0</ele><time>2026-04-26T12:38:22Z</time></trkpt><trkpt lat="45.171614207066796" lon="8.293733593160042"><ele>127.39999999999999</ele><time>2026-04-26T12:38:23Z</time></trkpt><trkpt lat="45.171669919373116" lon="8.29367571687731"><ele>127.79999999999998</ele><time>2026-04-26T12:38:24Z</time></trkpt><trkpt lat="45.1717644992896" lon="8.29357637248554"><ele>128.2</ele><time>2026-04-26T12:38:26Z</time></trkpt><trkpt lat="45.17186107540669" lon="8.293482386838305"><ele>128.6</ele><time>2026-04-26T12:38:28Z</time></trkpt><trkpt lat="45.17196496590772" lon="8.29338032780929"><ele>129.0</ele><time>2026-04-26T12:38:30Z</time></trkpt><trkpt lat="45.17201895449772" lon="8.293326527198758"><ele>128.99999999999997</ele><time>2026-04-26T12:38:31Z</time></trkpt><trkpt lat="45.17207272621369" lon="8.293263444725811"><ele>129.0</ele><time>2026-04-26T12:38:32Z</time></trkpt><trkpt lat="45.17212898097939" lon="8.293203408360647"><ele>129.0</ele><time>2026-04-26T12:38:33Z</time></trkpt><trkpt lat="45.17217918528262" lon="8.293142586436412"><ele>129.0</ele><time>2026-04-26T12:38:34Z</time></trkpt><trkpt lat="45.17223035220817" lon="8.293077111152655"><ele>129.0</ele><time>2026-04-26T12:38:35Z</time></trkpt><trkpt lat="45.172278318652225" lon="8.29299926598473"><ele>128.99999999999997</ele><time>2026-04-26T12:38:36Z</time></trkpt><trkpt lat="45.17232867810682" lon="8.292908152111528"><ele>129.0</ele><time>2026-04-26T12:38:37Z</time></trkpt><trkpt lat="45.172379773943405" lon="8.292816910966765"><ele>128.66666666666666</ele><time>2026-04-26T12:38:38Z</time></trkpt><trkpt lat="45.17242625093966" lon="8.292723666366125"><ele>128.33333333333334</ele><time>2026-04-26T12:38:39Z</time></trkpt><trkpt lat="45.17246828264965" lon="8.292630946831768"><ele>128.0</ele><time>2026-04-26T12:38:40Z</time></trkpt><trkpt lat="45.17251055209817" lon="8.292531132287875"><ele>127.66666666666667</ele><time>2026-04-26T12:38:41Z</time></trkpt><trkpt lat="45.17255355539433" lon="8.292427889508625"><ele>127.33333333333334</ele><time>2026-04-26T12:38:42Z</time></trkpt><trkpt lat="45.17259726092304" lon="8.292325899327315"><ele>127.0</ele><time>2026-04-26T12:38:43Z</time></trkpt><trkpt lat="45.17264693510816" lon="8.292220642946623"><ele>127.00000000000001</ele><time>2026-04-26T12:38:44Z</time></trkpt><trkpt lat="45.17269336926641" lon="8.292112061453524"><ele>127.0</ele><time>2026-04-26T12:38:45Z</time></trkpt><trkpt lat="45.172736640149395" lon="8.29201038851452"><ele>127.0</ele><time>2026-04-26T12:38:46Z</time></trkpt><trkpt lat="45.17278001205438" lon="8.291909451218608"><ele>127.0</ele><time>2026-04-26T12:38:47Z</time></trkpt><trkpt lat="45.172824860277984" lon="8.291809400222437"><ele>127.00000000000001</ele><time>2026-04-26T12:38:48Z</time></trkpt><trkpt lat="45.172865544058816" lon="8.291723105108424"><ele>127.0</ele><time>2026-04-26T12:38:49Z</time></trkpt><trkpt lat="45.172908741925" lon="8.291648111126026"><ele>127.00000000000001</ele><time>2026-04-26T12:38:50Z</time></trkpt><trkpt lat="45.17297022808372" lon="8.291563300230635"><ele>127.0</ele><time>2026-04-26T12:38:51Z</time></trkpt><trkpt lat="45.17303504454914" lon="8.291482571414619"><ele>127.0</ele><time>2026-04-26T12:38:52Z</time></trkpt><trkpt lat="45.17309402416534" lon="8.291396416977346"><ele>127.0</ele><time>2026-04-26T12:38:53Z</time></trkpt><trkpt lat="45.17314907058498" lon="8.291309798615199"><ele>127.00000000000001</ele><time>2026-04-26T12:38:54Z</time></trkpt><trkpt lat="45.17320615522423" lon="8.291223593702759"><ele>127.0</ele><time>2026-04-26T12:38:55Z</time></trkpt><trkpt lat="45.173267382957995" lon="8.291132579836253"><ele>127.6</ele><time>2026-04-26T12:38:56Z</time></trkpt><trkpt lat="45.17333049560363" lon="8.29103864397512"><ele>128.2</ele><time>2026-04-26T12:38:57Z</time></trkpt><trkpt lat="45.1733921986868" lon="8.290945916015213"><ele>128.8</ele><time>2026-04-26T12:38:58Z</time></trkpt><trkpt lat="45.17345443018505" lon="8.290851796203597"><ele>129.4</ele><time>2026-04-26T12:38:59Z</time></trkpt><trkpt lat="45.1735178173025" lon="8.290758431730223"><ele>130.0</ele><time>2026-04-26T12:39:00Z</time></trkpt><trkpt lat="45.17357874338965" lon="8.290669161781267"><ele>130.5</ele><time>2026-04-26T12:39:01Z</time></trkpt><trkpt lat="45.173640372163334" lon="8.290579260649045"><ele>131.0</ele><time>2026-04-26T12:39:02Z</time></trkpt><trkpt lat="45.17369938071939" lon="8.290492166743533"><ele>131.5</ele><time>2026-04-26T12:39:03Z</time></trkpt><trkpt lat="45.17375677749924" lon="8.290408872326406"><ele>132.0</ele><time>2026-04-26T12:39:04Z</time></trkpt><trkpt lat="45.173804721094555" lon="8.290333558188802"><ele>132.5</ele><time>2026-04-26T12:39:05Z</time></trkpt><trkpt lat="45.17389323669714" lon="8.290251281318216"><ele>133.0</ele><time>2026-04-26T12:39:07Z</time></trkpt><trkpt lat="45.173972922536755" lon="8.290284244280873"><ele>133.0</ele><time>2026-04-26T12:39:09Z</time></trkpt><trkpt lat="45.17404264198297" lon="8.290380675024082"><ele>133.0</ele><time>2026-04-26T12:39:11Z</time></trkpt><trkpt lat="45.17411721854227" lon="8.290406138241826"><ele>133.0</ele><time>2026-04-26T12:39:23.001Z</time></trkpt><trkpt lat="45.17414417176619" lon="8.290316075797117"><ele>133.0</ele><time>2026-04-26T12:39:26.001Z</time></trkpt><trkpt lat="45.17406539806845" lon="8.290239619689075"><ele>133.0</ele><time>2026-04-26T12:39:28.001Z</time></trkpt><trkpt lat="45.17401276076245" lon="8.29017292098067"><ele>133.0</ele><time>2026-04-26T12:39:29.001Z</time></trkpt><trkpt lat="45.17394112841298" lon="8.290095320616238"><ele>133.0</ele><time>2026-04-26T12:39:30.001Z</time></trkpt><trkpt lat="45.173878568100044" lon="8.290003189901483"><ele>133.0</ele><time>2026-04-26T12:39:31.001Z</time></trkpt><trkpt lat="45.17379813586548" lon="8.289895605305892"><ele>133.0</ele><time>2026-04-26T12:39:32.001Z</time></trkpt><trkpt lat="45.173696544090014" lon="8.289778093110813"><ele>133.0</ele><time>2026-04-26T12:39:33.001Z</time></trkpt><trkpt lat="45.173587447914" lon="8.289677916258894"><ele>133.0</ele><time>2026-04-26T12:39:34.001Z</time></trkpt><trkpt lat="45.17346090648096" lon="8.289575449688678"><ele>133.0</ele><time>2026-04-26T12:39:35.001Z</time></trkpt><trkpt lat="45.173319414253676" lon="8.289469432302873"><ele>133.0</ele><time>2026-04-26T12:39:36.001Z</time></trkpt><trkpt lat="45.173173113060955" lon="8.289358930589898"><ele>132.33333333333334</ele><time>2026-04-26T12:39:37.001Z</time></trkpt><trkpt lat="45.17302931226467" lon="8.289246711040947"><ele>131.66666666666666</ele><time>2026-04-26T12:39:38.001Z</time></trkpt><trkpt lat="45.172874021316495" lon="8.289124597939548"><ele>131.0</ele><time>2026-04-26T12:39:39.001Z</time></trkpt><trkpt lat="45.1727185288636" lon="8.289005725489467"><ele>131.33333333333331</ele><time>2026-04-26T12:39:40.001Z</time></trkpt><trkpt lat="45.17257332980452" lon="8.28889500033226"><ele>131.66666666666666</ele><time>2026-04-26T12:39:41.001Z</time></trkpt><trkpt lat="45.1724410937358" lon="8.288789952073783"><ele>132.0</ele><time>2026-04-26T12:39:42.001Z</time></trkpt><trkpt lat="45.17231553231131" lon="8.288694098324157"><ele>134.25</ele><time>2026-04-26T12:39:43.001Z</time></trkpt><trkpt lat="45.172193541549056" lon="8.288594034176093"><ele>136.5</ele><time>2026-04-26T12:39:44.001Z</time></trkpt><trkpt lat="45.172068200338785" lon="8.288475860128434"><ele>138.75</ele><time>2026-04-26T12:39:45.001Z</time></trkpt><trkpt lat="45.17195612062062" lon="8.288327573346617"><ele>141.0</ele><time>2026-04-26T12:39:46.001Z</time></trkpt><trkpt lat="45.17184937885879" lon="8.288150428742268"><ele>141.66666666666666</ele><time>2026-04-26T12:39:47.001Z</time></trkpt><trkpt lat="45.171747751640396" lon="8.28794941167094"><ele>142.33333333333331</ele><time>2026-04-26T12:39:48.001Z</time></trkpt><trkpt lat="45.17166503095466" lon="8.287724318303185"><ele>143.0</ele><time>2026-04-26T12:39:49.001Z</time></trkpt><trkpt lat="45.171626834074324" lon="8.287466070363553"><ele>144.66666666666666</ele><time>2026-04-26T12:39:50.001Z</time></trkpt><trkpt lat="45.17159764317918" lon="8.287219013636493"><ele>146.33333333333334</ele><time>2026-04-26T12:39:51.001Z</time></trkpt><trkpt lat="45.171599639942706" lon="8.286961966338007"><ele>148.0</ele><time>2026-04-26T12:39:52.001Z</time></trkpt><trkpt lat="45.17161884770679" lon="8.286696243065416"><ele>148.33333333333334</ele><time>2026-04-26T12:39:53.001Z</time></trkpt><trkpt lat="45.171636646103835" lon="8.286420439111494"><ele>148.66666666666666</ele><time>2026-04-26T12:39:54.001Z</time></trkpt><trkpt lat="45.171676550527756" lon="8.286133658091881"><ele>149.0</ele><time>2026-04-26T12:39:55.001Z</time></trkpt><trkpt lat="45.171728485594684" lon="8.285843521859308"><ele>149.66666666666666</ele><time>2026-04-26T12:39:56.001Z</time></trkpt><trkpt lat="45.171789415267995" lon="8.285548944677956"><ele>150.33333333333334</ele><time>2026-04-26T12:39:57.001Z</time></trkpt><trkpt lat="45.171841395806155" lon="8.285240594490224"><ele>151.0</ele><time>2026-04-26T12:39:58.001Z</time></trkpt><trkpt lat="45.17187128267955" lon="8.284927447742454"><ele>151.33333333333334</ele><time>2026-04-26T12:39:59.001Z</time></trkpt><trkpt lat="45.171886891994845" lon="8.284618018161837"><ele>151.66666666666666</ele><time>2026-04-26T12:40:00.001Z</time></trkpt><trkpt lat="45.17189981472496" lon="8.28431128811732"><ele>152.0</ele><time>2026-04-26T12:40:01.001Z</time></trkpt><trkpt lat="45.17193783202659" lon="8.284015629186298"><ele>154.0</ele><time>2026-04-26T12:40:02.001Z</time></trkpt><trkpt lat="45.172011853235944" lon="8.283731096478423"><ele>156.0</ele><time>2026-04-26T12:40:03.001Z</time></trkpt><trkpt lat="45.17210936016951" lon="8.283456976340903"><ele>158.0</ele><time>2026-04-26T12:40:04.001Z</time></trkpt><trkpt lat="45.1722254890785" lon="8.283191057324842"><ele>156.5</ele><time>2026-04-26T12:40:05.001Z</time></trkpt><trkpt lat="45.172347693226506" lon="8.282923979146886"><ele>155.0</ele><time>2026-04-26T12:40:06.001Z</time></trkpt><trkpt lat="45.172490958217765" lon="8.282672428927532"><ele>155.0</ele><time>2026-04-26T12:40:07.001Z</time></trkpt><trkpt lat="45.172605611769335" lon="8.282388183785102"><ele>155.0</ele><time>2026-04-26T12:40:08.001Z</time></trkpt><trkpt lat="45.17273768457239" lon="8.282119184466563"><ele>157.33333333333331</ele><time>2026-04-26T12:40:09.001Z</time></trkpt><trkpt lat="45.17286549964597" lon="8.281851329330278"><ele>159.66666666666666</ele><time>2026-04-26T12:40:10.001Z</time></trkpt><trkpt lat="45.17299163362258" lon="8.281597329354248"><ele>162.0</ele><time>2026-04-26T12:40:11.001Z</time></trkpt><trkpt lat="45.173109079281325" lon="8.28135559428397"><ele>161.0</ele><time>2026-04-26T12:40:12.001Z</time></trkpt><trkpt lat="45.17320971838603" lon="8.281137114149603"><ele>160.0</ele><time>2026-04-26T12:40:13.001Z</time></trkpt><trkpt lat="45.17328250471907" lon="8.280953218934636"><ele>159.0</ele><time>2026-04-26T12:40:14.001Z</time></trkpt><trkpt lat="45.17334014447804" lon="8.28077191655818"><ele>158.5</ele><time>2026-04-26T12:40:15.001Z</time></trkpt><trkpt lat="45.173366308424576" lon="8.280591352305194"><ele>158.0</ele><time>2026-04-26T12:40:15.999Z</time></trkpt><trkpt lat="45.1733428342587" lon="8.28040789719852"><ele>157.5</ele><time>2026-04-26T12:40:16.999Z</time></trkpt><trkpt lat="45.17331340382257" lon="8.280234389932478"><ele>157.0</ele><time>2026-04-26T12:40:17.999Z</time></trkpt><trkpt lat="45.17325829575274" lon="8.280088982865976"><ele>159.39999999999998</ele><time>2026-04-26T12:40:18.999Z</time></trkpt><trkpt lat="45.17318171843559" lon="8.27998436895697"><ele>161.79999999999998</ele><time>2026-04-26T12:40:19.999Z</time></trkpt><trkpt lat="45.173085248521446" lon="8.279920477429448"><ele>164.2</ele><time>2026-04-26T12:40:20.999Z</time></trkpt><trkpt lat="45.17299863822394" lon="8.279901061489255"><ele>166.6</ele><time>2026-04-26T12:40:21.999Z</time></trkpt><trkpt lat="45.17292298540627" lon="8.279865464420288"><ele>169.0</ele><time>2026-04-26T12:40:22.999Z</time></trkpt><trkpt lat="45.17286782575383" lon="8.279650721917275"><ele>169.0</ele><time>2026-04-26T12:40:24.999Z</time></trkpt><trkpt lat="45.172826787216664" lon="8.27949930719917"><ele>169.0</ele><time>2026-04-26T12:40:25.999Z</time></trkpt><trkpt lat="45.17279688957833" lon="8.279323679373444"><ele>169.0</ele><time>2026-04-26T12:40:26.999Z</time></trkpt><trkpt lat="45.17277397552968" lon="8.279142827406327"><ele>169.0</ele><time>2026-04-26T12:40:27.999Z</time></trkpt><trkpt lat="45.17277848952466" lon="8.278936873537296"><ele>169.0</ele><time>2026-04-26T12:40:28.999Z</time></trkpt><trkpt lat="45.17277762831069" lon="8.278721929573877"><ele>169.0</ele><time>2026-04-26T12:40:29.999Z</time></trkpt><trkpt lat="45.17278976367855" lon="8.27852808918605"><ele>169.0</ele><time>2026-04-26T12:40:30.999Z</time></trkpt><trkpt lat="45.1727947986383" lon="8.278360345243486"><ele>169.0</ele><time>2026-04-26T12:40:32Z</time></trkpt><trkpt lat="45.172803300219336" lon="8.278215115457039"><ele>169.79999999999998</ele><time>2026-04-26T12:40:33Z</time></trkpt><trkpt lat="45.172820452301366" lon="8.278082951644759"><ele>170.6</ele><time>2026-04-26T12:40:34Z</time></trkpt><trkpt lat="45.17289132392163" lon="8.277981793912113"><ele>171.4</ele><time>2026-04-26T12:40:35Z</time></trkpt><trkpt lat="45.17300197667278" lon="8.27793396484496"><ele>172.2</ele><time>2026-04-26T12:40:36Z</time></trkpt><trkpt lat="45.173118818545795" lon="8.277854256493915"><ele>173.0</ele><time>2026-04-26T12:40:37Z</time></trkpt><trkpt lat="45.17324730959307" lon="8.277781013551053"><ele>173.0</ele><time>2026-04-26T12:40:38Z</time></trkpt><trkpt lat="45.17337508656941" lon="8.277725817246662"><ele>173.0</ele><time>2026-04-26T12:40:39Z</time></trkpt><trkpt lat="45.17348660504821" lon="8.277668834892067"><ele>173.0</ele><time>2026-04-26T12:40:40Z</time></trkpt><trkpt lat="45.173587387931285" lon="8.277635929233014"><ele>173.0</ele><time>2026-04-26T12:40:41Z</time></trkpt><trkpt lat="45.17366789781307" lon="8.277602631544204"><ele>173.0</ele><time>2026-04-26T12:40:42Z</time></trkpt><trkpt lat="45.17372707791616" lon="8.277554759873446"><ele>173.0</ele><time>2026-04-26T12:40:43Z</time></trkpt><trkpt lat="45.173746399797594" lon="8.27738769775581"><ele>173.0</ele><time>2026-04-26T12:40:45Z</time></trkpt><trkpt lat="45.17369534223976" lon="8.277301492698072"><ele>173.0</ele><time>2026-04-26T12:40:46Z</time></trkpt><trkpt lat="45.1736063965752" lon="8.277231364622919"><ele>173.0</ele><time>2026-04-26T12:40:47Z</time></trkpt><trkpt lat="45.17350578392035" lon="8.277125645164041"><ele>173.0</ele><time>2026-04-26T12:40:48Z</time></trkpt><trkpt lat="45.17337830185606" lon="8.277007209129616"><ele>175.75</ele><time>2026-04-26T12:40:49Z</time></trkpt><trkpt lat="45.173256817532" lon="8.276901656450963"><ele>178.5</ele><time>2026-04-26T12:40:50Z</time></trkpt><trkpt lat="45.173127858824444" lon="8.276817632213081"><ele>181.25</ele><time>2026-04-26T12:40:51Z</time></trkpt><trkpt lat="45.1730009188495" lon="8.276700577765586"><ele>184.0</ele><time>2026-04-26T12:40:52Z</time></trkpt><trkpt lat="45.17284237364622" lon="8.276677915531781"><ele>185.66666666666669</ele><time>2026-04-26T12:40:53Z</time></trkpt><trkpt lat="45.172675144850075" lon="8.276696262564174"><ele>187.33333333333334</ele><time>2026-04-26T12:40:54Z</time></trkpt><trkpt lat="45.17249250260563" lon="8.276723782878399"><ele>189.0</ele><time>2026-04-26T12:40:55Z</time></trkpt><trkpt lat="45.17231728605455" lon="8.276723133878146"><ele>190.66666666666669</ele><time>2026-04-26T12:40:56Z</time></trkpt><trkpt lat="45.17214530836184" lon="8.276749211840004"><ele>192.33333333333334</ele><time>2026-04-26T12:40:57Z</time></trkpt><trkpt lat="45.17196440024862" lon="8.276803386332405"><ele>194.0</ele><time>2026-04-26T12:40:58Z</time></trkpt><trkpt lat="45.17177655560198" lon="8.276833149279824"><ele>194.0</ele><time>2026-04-26T12:40:59Z</time></trkpt><trkpt lat="45.1716100920744" lon="8.27685460622805"><ele>194.0</ele><time>2026-04-26T12:41:00Z</time></trkpt><trkpt lat="45.171470902058765" lon="8.276872867513326"><ele>194.0</ele><time>2026-04-26T12:41:01Z</time></trkpt><trkpt lat="45.171340696816095" lon="8.27692560138368"><ele>194.0</ele><time>2026-04-26T12:41:02Z</time></trkpt><trkpt lat="45.17122264503942" lon="8.27702999021613"><ele>199.33333333333334</ele><time>2026-04-26T12:41:03Z</time></trkpt><trkpt lat="45.17111075070755" lon="8.277176127732574"><ele>204.66666666666669</ele><time>2026-04-26T12:41:04Z</time></trkpt><trkpt lat="45.170990383273" lon="8.277321218148524"><ele>210.0</ele><time>2026-04-26T12:41:05Z</time></trkpt><trkpt lat="45.17086699981285" lon="8.2774411978576"><ele>212.0</ele><time>2026-04-26T12:41:06Z</time></trkpt><trkpt lat="45.17076592787717" lon="8.277570590508722"><ele>214.0</ele><time>2026-04-26T12:41:07Z</time></trkpt><trkpt lat="45.17069324595924" lon="8.277729700814318"><ele>216.0</ele><time>2026-04-26T12:41:08Z</time></trkpt><trkpt lat="45.17063061834996" lon="8.277896672462967"><ele>218.0</ele><time>2026-04-26T12:41:09Z</time></trkpt><trkpt lat="45.170567499554195" lon="8.278022255344245"><ele>221.0</ele><time>2026-04-26T12:41:10Z</time></trkpt><trkpt lat="45.17048449158379" lon="8.278111639008861"><ele>224.0</ele><time>2026-04-26T12:41:11Z</time></trkpt><trkpt lat="45.1703815436902" lon="8.278163891823752"><ele>227.0</ele><time>2026-04-26T12:41:12Z</time></trkpt><trkpt lat="45.17026220838656" lon="8.278172376872124"><ele>230.0</ele><time>2026-04-26T12:41:13Z</time></trkpt><trkpt lat="45.17013319582895" lon="8.278132531250758"><ele>230.0</ele><time>2026-04-26T12:41:14Z</time></trkpt><trkpt lat="45.16998277183694" lon="8.278130107815517"><ele>230.0</ele><time>2026-04-26T12:41:15Z</time></trkpt><trkpt lat="45.16982414672981" lon="8.278101425914187"><ele>230.0</ele><time>2026-04-26T12:41:16Z</time></trkpt><trkpt lat="45.16968120302273" lon="8.278077009199357"><ele>231.8</ele><time>2026-04-26T12:41:17Z</time></trkpt><trkpt lat="45.16956414267452" lon="8.278050709756183"><ele>233.6</ele><time>2026-04-26T12:41:18Z</time></trkpt><trkpt lat="45.1694774250306" lon="8.278024754458492"><ele>235.39999999999998</ele><time>2026-04-26T12:41:19Z</time></trkpt><trkpt lat="45.169380591039875" lon="8.277987102744826"><ele>237.2</ele><time>2026-04-26T12:41:21Z</time></trkpt><trkpt lat="45.169307739560416" lon="8.278144774974718"><ele>239.0</ele><time>2026-04-26T12:41:22Z</time></trkpt><trkpt lat="45.16924626034636" lon="8.278238497875822"><ele>239.0</ele><time>2026-04-26T12:41:23Z</time></trkpt><trkpt lat="45.16916600729688" lon="8.278325091977715"><ele>238.99999999999997</ele><time>2026-04-26T12:41:24Z</time></trkpt><trkpt lat="45.16908232049305" lon="8.278419941096336"><ele>238.99999999999997</ele><time>2026-04-26T12:41:25Z</time></trkpt><trkpt lat="45.169012163546256" lon="8.278525063648358"><ele>239.0</ele><time>2026-04-26T12:41:26Z</time></trkpt><trkpt lat="45.16894929281179" lon="8.278637128130754"><ele>239.0</ele><time>2026-04-26T12:41:27Z</time></trkpt><trkpt lat="45.16889386208848" lon="8.278739145126162"><ele>238.2</ele><time>2026-04-26T12:41:28Z</time></trkpt><trkpt lat="45.168845185290344" lon="8.278835089259646"><ele>237.39999999999998</ele><time>2026-04-26T12:41:29Z</time></trkpt><trkpt lat="45.168809629432324" lon="8.2789293478105"><ele>236.6</ele><time>2026-04-26T12:41:30Z</time></trkpt><trkpt lat="45.16878695738632" lon="8.279025175886332"><ele>235.8</ele><time>2026-04-26T12:41:31Z</time></trkpt><trkpt lat="45.16874497781137" lon="8.279140223201791"><ele>235.0</ele><time>2026-04-26T12:41:33.001Z</time></trkpt><trkpt lat="45.16863335480301" lon="8.278992431685232"><ele>231.0</ele><time>2026-04-26T12:41:38.001Z</time></trkpt><trkpt lat="45.168697443371116" lon="8.27895349723257"><ele>231.0</ele><time>2026-04-26T12:41:41.001Z</time></trkpt><trkpt lat="45.16866210467001" lon="8.278853006373549"><ele>235.0</ele><time>2026-04-26T12:44:15.001Z</time></trkpt><trkpt lat="45.16870443686388" lon="8.278773546500638"><ele>235.0</ele><time>2026-04-26T12:44:21.001Z</time></trkpt><trkpt lat="45.168763696063095" lon="8.27874194830226"><ele>235.0</ele><time>2026-04-26T12:44:36.001Z</time></trkpt></trkseg></trk></gpx>